<?xml version='1.0' encoding='UTF-8'?><gpx version="1.1" creator="JPX - https://github.com/jenetics/jpx" xmlns="http://www.topografix.com/GPX/1/1"><trk><trkseg><trkpt lat="42.1910533" lon="14.2205767"><ele>568.0</ele><time>2026-05-01T12:22:23.282Z</time></trkpt><trkpt lat="42.1909767" lon="14.220585"><ele>568.0</ele><time>2026-05-01T12:22:25.283Z</time></trkpt><trkpt lat="42.1908967" lon="14.2206067"><ele>568.0</ele><time>2026-05-01T12:22:27.282Z</time></trkpt><trkpt lat="42.19079" lon="14.2206133"><ele>568.0</ele><time>2026-05-01T12:22:29.282Z</time></trkpt><trkpt lat="42.1906717" lon="14.2206267"><ele>568.0</ele><time>2026-05-01T12:22:31.282Z</time></trkpt><trkpt lat="42.1905567" lon="14.2206333"><ele>568.5</ele><time>2026-05-01T12:22:33.282Z</time></trkpt><trkpt lat="42.19048" lon="14.22061"><ele>569.0</ele><time>2026-05-01T12:22:34.282Z</time></trkpt><trkpt lat="42.1903767" lon="14.2205917"><ele>569.5</ele><time>2026-05-01T12:22:36.282Z</time></trkpt><trkpt lat="42.19031" lon="14.2205617"><ele>570.0</ele><time>2026-05-01T12:22:38.282Z</time></trkpt><trkpt lat="42.19028" lon="14.2204833"><ele>570.5</ele><time>2026-05-01T12:22:42.282Z</time></trkpt><trkpt lat="42.1902133" lon="14.2204217"><ele>571.0</ele><time>2026-05-01T12:22:45.282Z</time></trkpt><trkpt lat="42.1901533" lon="14.2203333"><ele>571.0</ele><time>2026-05-01T12:22:48.282Z</time></trkpt><trkpt lat="42.1901333" lon="14.2202417"><ele>571.0</ele><time>2026-05-01T12:22:50.282Z</time></trkpt><trkpt lat="42.1901167" lon="14.22015"><ele>571.0</ele><time>2026-05-01T12:22:52.283Z</time></trkpt><trkpt lat="42.1900817" lon="14.220075"><ele>571.0</ele><time>2026-05-01T12:22:54.282Z</time></trkpt><trkpt lat="42.1899933" lon="14.220045"><ele>571.0</ele><time>2026-05-01T12:22:57.282Z</time></trkpt><trkpt lat="42.189925" lon="14.2200567"><ele>571.0</ele><time>2026-05-01T12:22:59.282Z</time></trkpt><trkpt lat="42.1898567" lon="14.2200383"><ele>571.0</ele><time>2026-05-01T12:23:01.282Z</time></trkpt><trkpt lat="42.1899433" lon="14.21998"><ele>571.0</ele><time>2026-05-01T12:23:07.282Z</time></trkpt><trkpt lat="42.1900467" lon="14.2199617"><ele>571.0</ele><time>2026-05-01T12:23:09.282Z</time></trkpt><trkpt lat="42.1901183" lon="14.2199217"><ele>571.0</ele><time>2026-05-01T12:23:10.282Z</time></trkpt><trkpt lat="42.1901917" lon="14.219885"><ele>571.0</ele><time>2026-05-01T12:23:11.282Z</time></trkpt><trkpt lat="42.19027" lon="14.2198417"><ele>571.0</ele><time>2026-05-01T12:23:12.282Z</time></trkpt><trkpt lat="42.190345" lon="14.2198033"><ele>571.0</ele><time>2026-05-01T12:23:13.282Z</time></trkpt><trkpt lat="42.1904333" lon="14.219775"><ele>568.4</ele><time>2026-05-01T12:23:14.282Z</time></trkpt><trkpt lat="42.190525" lon="14.21975"><ele>565.8</ele><time>2026-05-01T12:23:15.282Z</time></trkpt><trkpt lat="42.19062" lon="14.2197383"><ele>563.1999999999999</ele><time>2026-05-01T12:23:16.282Z</time></trkpt><trkpt lat="42.1907233" lon="14.219735"><ele>560.6</ele><time>2026-05-01T12:23:17.282Z</time></trkpt><trkpt lat="42.1908183" lon="14.2197333"><ele>558.0</ele><time>2026-05-01T12:23:18.282Z</time></trkpt><trkpt lat="42.1909167" lon="14.2197333"><ele>556.75</ele><time>2026-05-01T12:23:19.282Z</time></trkpt><trkpt lat="42.191025" lon="14.2197317"><ele>555.5</ele><time>2026-05-01T12:23:20.283Z</time></trkpt><trkpt lat="42.191135" lon="14.21974"><ele>554.25</ele><time>2026-05-01T12:23:21.283Z</time></trkpt><trkpt lat="42.1912467" lon="14.219735"><ele>553.0</ele><time>2026-05-01T12:23:22.282Z</time></trkpt><trkpt lat="42.1913683" lon="14.2197367"><ele>553.0</ele><time>2026-05-01T12:23:23.282Z</time></trkpt><trkpt lat="42.191485" lon="14.2197583"><ele>553.0</ele><time>2026-05-01T12:23:24.282Z</time></trkpt><trkpt lat="42.1916017" lon="14.219765"><ele>553.0</ele><time>2026-05-01T12:23:25.282Z</time></trkpt><trkpt lat="42.19172" lon="14.2197733"><ele>553.0</ele><time>2026-05-01T12:23:26.282Z</time></trkpt><trkpt lat="42.19183" lon="14.21978"><ele>552.1999999999999</ele><time>2026-05-01T12:23:27.282Z</time></trkpt><trkpt lat="42.1919317" lon="14.2197867"><ele>551.4</ele><time>2026-05-01T12:23:28.282Z</time></trkpt><trkpt lat="42.1920367" lon="14.2197933"><ele>550.5999999999999</ele><time>2026-05-01T12:23:29.282Z</time></trkpt><trkpt lat="42.1921333" lon="14.2198033"><ele>549.8</ele><time>2026-05-01T12:23:30.282Z</time></trkpt><trkpt lat="42.19222" lon="14.219815"><ele>549.0</ele><time>2026-05-01T12:23:31.282Z</time></trkpt><trkpt lat="42.1923017" lon="14.2198383"><ele>550.8333333333334</ele><time>2026-05-01T12:23:32.282Z</time></trkpt><trkpt lat="42.1923833" lon="14.2198683"><ele>552.6666666666666</ele><time>2026-05-01T12:23:33.283Z</time></trkpt><trkpt lat="42.1924667" lon="14.2199017"><ele>554.5</ele><time>2026-05-01T12:23:34.282Z</time></trkpt><trkpt lat="42.1925433" lon="14.219935"><ele>556.3333333333333</ele><time>2026-05-01T12:23:35.282Z</time></trkpt><trkpt lat="42.1926217" lon="14.2199683"><ele>558.1666666666666</ele><time>2026-05-01T12:23:36.282Z</time></trkpt><trkpt lat="42.192705" lon="14.2200133"><ele>560.0</ele><time>2026-05-01T12:23:37.282Z</time></trkpt><trkpt lat="42.1927767" lon="14.2200767"><ele>560.0</ele><time>2026-05-01T12:23:38.282Z</time></trkpt><trkpt lat="42.19285" lon="14.22014"><ele>560.0</ele><time>2026-05-01T12:23:39.282Z</time></trkpt><trkpt lat="42.1928983" lon="14.2202033"><ele>560.0</ele><time>2026-05-01T12:23:40.282Z</time></trkpt><trkpt lat="42.19298" lon="14.22027"><ele>560.0</ele><time>2026-05-01T12:23:42.282Z</time></trkpt><trkpt lat="42.1930533" lon="14.2202883"><ele>560.0</ele><time>2026-05-01T12:23:44.282Z</time></trkpt><trkpt lat="42.1931183" lon="14.2203017"><ele>560.0</ele><time>2026-05-01T12:23:48.282Z</time></trkpt><trkpt lat="42.1931883" lon="14.2203533"><ele>558.0</ele><time>2026-05-01T12:23:55.282Z</time></trkpt><trkpt lat="42.193245" lon="14.2204333"><ele>556.0</ele><time>2026-05-01T12:27:37.281Z</time></trkpt><trkpt lat="42.193305" lon="14.2205033"><ele>554.0</ele><time>2026-05-01T12:27:39.281Z</time></trkpt><trkpt lat="42.1934067" lon="14.220535"><ele>552.0</ele><time>2026-05-01T12:27:41.281Z</time></trkpt><trkpt lat="42.19352" lon="14.2205617"><ele>550.0</ele><time>2026-05-01T12:27:43.281Z</time></trkpt><trkpt lat="42.193615" lon="14.220585"><ele>550.0</ele><time>2026-05-01T12:27:45.282Z</time></trkpt><trkpt lat="42.19371" lon="14.2206383"><ele>550.0</ele><time>2026-05-01T12:27:47.281Z</time></trkpt><trkpt lat="42.1938167" lon="14.2206217"><ele>550.0</ele><time>2026-05-01T12:27:49.281Z</time></trkpt><trkpt lat="42.1938583" lon="14.220515"><ele>550.0</ele><time>2026-05-01T12:27:51.281Z</time></trkpt><trkpt lat="42.193815" lon="14.220385"><ele>550.0</ele><time>2026-05-01T12:27:53.281Z</time></trkpt><trkpt lat="42.1937183" lon="14.2202967"><ele>550.0</ele><time>2026-05-01T12:27:55.281Z</time></trkpt><trkpt lat="42.1936517" lon="14.2202583"><ele>550.0</ele><time>2026-05-01T12:27:56.281Z</time></trkpt><trkpt lat="42.1935717" lon="14.2202217"><ele>550.0</ele><time>2026-05-01T12:27:57.281Z</time></trkpt><trkpt lat="42.1934967" lon="14.220185"><ele>550.0</ele><time>2026-05-01T12:27:58.281Z</time></trkpt><trkpt lat="42.1933867" lon="14.220125"><ele>550.0</ele><time>2026-05-01T12:28:00.282Z</time></trkpt><trkpt lat="42.193315" lon="14.2200683"><ele>550.0</ele><time>2026-05-01T12:28:02.281Z</time></trkpt><trkpt lat="42.1933017" lon="14.2199767"><ele>550.0</ele><time>2026-05-01T12:28:05.28Z</time></trkpt><trkpt lat="42.1933683" lon="14.2199867"><ele>550.0</ele><time>2026-05-01T12:28:07.281Z</time></trkpt><trkpt lat="42.1934747" lon="14.2200583"><ele>550.0</ele><time>2026-05-01T12:28:09.281Z</time></trkpt><trkpt lat="42.1935318" lon="14.2200992"><ele>550.0</ele><time>2026-05-01T12:28:10.282Z</time></trkpt><trkpt lat="42.1935898" lon="14.2201361"><ele>550.0</ele><time>2026-05-01T12:28:11.281Z</time></trkpt><trkpt lat="42.1936523" lon="14.2201709"><ele>550.0</ele><time>2026-05-01T12:28:12.281Z</time></trkpt><trkpt lat="42.1937127" lon="14.2202014"><ele>550.0</ele><time>2026-05-01T12:28:13.281Z</time></trkpt><trkpt lat="42.1937693" lon="14.2202413"><ele>550.0</ele><time>2026-05-01T12:28:14.281Z</time></trkpt><trkpt lat="42.1938749" lon="14.2202984"><ele>550.0</ele><time>2026-05-01T12:28:16.281Z</time></trkpt><trkpt lat="42.1939593" lon="14.2204106"><ele>550.0</ele><time>2026-05-01T12:28:18.281Z</time></trkpt><trkpt lat="42.1939897" lon="14.220494"><ele>550.0</ele><time>2026-05-01T12:28:19.282Z</time></trkpt><trkpt lat="42.1940206" lon="14.2206017"><ele>550.0</ele><time>2026-05-01T12:28:20.282Z</time></trkpt><trkpt lat="42.1940467" lon="14.220722"><ele>546.8</ele><time>2026-05-01T12:28:21.281Z</time></trkpt><trkpt lat="42.1940657" lon="14.2208513"><ele>543.6</ele><time>2026-05-01T12:28:22.281Z</time></trkpt><trkpt lat="42.1940739" lon="14.2209956"><ele>540.4</ele><time>2026-05-01T12:28:23.282Z</time></trkpt><trkpt lat="42.1940727" lon="14.2211455"><ele>537.2</ele><time>2026-05-01T12:28:24.281Z</time></trkpt><trkpt lat="42.1940664" lon="14.2212959"><ele>534.0</ele><time>2026-05-01T12:28:25.281Z</time></trkpt><trkpt lat="42.1940655" lon="14.2214645"><ele>532.75</ele><time>2026-05-01T12:28:26.281Z</time></trkpt><trkpt lat="42.1940599" lon="14.2216236"><ele>531.5</ele><time>2026-05-01T12:28:27.281Z</time></trkpt><trkpt lat="42.194052" lon="14.2217794"><ele>530.25</ele><time>2026-05-01T12:28:28.281Z</time></trkpt><trkpt lat="42.1940418" lon="14.2219297"><ele>529.0</ele><time>2026-05-01T12:28:29.281Z</time></trkpt><trkpt lat="42.1940325" lon="14.2220769"><ele>529.0</ele><time>2026-05-01T12:28:30.281Z</time></trkpt><trkpt lat="42.1940227" lon="14.2222195"><ele>529.0</ele><time>2026-05-01T12:28:31.281Z</time></trkpt><trkpt lat="42.1940198" lon="14.2223597"><ele>529.0</ele><time>2026-05-01T12:28:32.281Z</time></trkpt><trkpt lat="42.1940228" lon="14.222503"><ele>529.0</ele><time>2026-05-01T12:28:33.281Z</time></trkpt><trkpt lat="42.1940283" lon="14.2226514"><ele>529.0</ele><time>2026-05-01T12:28:34.281Z</time></trkpt><trkpt lat="42.1940353" lon="14.2227962"><ele>527.6</ele><time>2026-05-01T12:28:35.281Z</time></trkpt><trkpt lat="42.1940447" lon="14.2229356"><ele>526.2</ele><time>2026-05-01T12:28:36.281Z</time></trkpt><trkpt lat="42.1940595" lon="14.2230699"><ele>524.8000000000001</ele><time>2026-05-01T12:28:37.282Z</time></trkpt><trkpt lat="42.1940733" lon="14.2231995"><ele>523.4</ele><time>2026-05-01T12:28:38.281Z</time></trkpt><trkpt lat="42.1940845" lon="14.2233263"><ele>522.0</ele><time>2026-05-01T12:28:39.281Z</time></trkpt><trkpt lat="42.194101" lon="14.2234492"><ele>521.0</ele><time>2026-05-01T12:28:40.281Z</time></trkpt><trkpt lat="42.1941139" lon="14.2235649"><ele>520.0</ele><time>2026-05-01T12:28:41.281Z</time></trkpt><trkpt lat="42.1941233" lon="14.2236733"><ele>519.0</ele><time>2026-05-01T12:28:42.281Z</time></trkpt><trkpt lat="42.19413" lon="14.2237717"><ele>518.0</ele><time>2026-05-01T12:28:43.281Z</time></trkpt><trkpt lat="42.1941817" lon="14.2239017"><ele>517.0</ele><time>2026-05-01T12:28:45.281Z</time></trkpt><trkpt lat="42.194275" lon="14.2239317"><ele>516.0</ele><time>2026-05-01T12:28:47.281Z</time></trkpt><trkpt lat="42.1944417" lon="14.22379"><ele>516.0</ele><time>2026-05-01T12:28:49.281Z</time></trkpt><trkpt lat="42.194565" lon="14.2236583"><ele>516.0</ele><time>2026-05-01T12:28:50.281Z</time></trkpt><trkpt lat="42.194685" lon="14.2235533"><ele>516.0</ele><time>2026-05-01T12:28:51.281Z</time></trkpt><trkpt lat="42.1947983" lon="14.223455"><ele>516.0</ele><time>2026-05-01T12:28:52.281Z</time></trkpt><trkpt lat="42.194915" lon="14.2233683"><ele>514.8</ele><time>2026-05-01T12:28:53.281Z</time></trkpt><trkpt lat="42.1950133" lon="14.2232683"><ele>513.6</ele><time>2026-05-01T12:28:54.281Z</time></trkpt><trkpt lat="42.1951083" lon="14.2231833"><ele>512.4</ele><time>2026-05-01T12:28:55.281Z</time></trkpt><trkpt lat="42.1951933" lon="14.2231"><ele>511.2</ele><time>2026-05-01T12:28:56.281Z</time></trkpt><trkpt lat="42.1952633" lon="14.223015"><ele>510.0</ele><time>2026-05-01T12:28:57.281Z</time></trkpt><trkpt lat="42.1953183" lon="14.2229383"><ele>510.0</ele><time>2026-05-01T12:28:58.281Z</time></trkpt><trkpt lat="42.1953817" lon="14.2228467"><ele>510.0</ele><time>2026-05-01T12:28:59.281Z</time></trkpt><trkpt lat="42.195445" lon="14.2227417"><ele>510.0</ele><time>2026-05-01T12:29:00.282Z</time></trkpt><trkpt lat="42.19551" lon="14.222635"><ele>510.0</ele><time>2026-05-01T12:29:01.281Z</time></trkpt><trkpt lat="42.1955883" lon="14.22252"><ele>510.0</ele><time>2026-05-01T12:29:02.281Z</time></trkpt><trkpt lat="42.1956567" lon="14.222395"><ele>508.25</ele><time>2026-05-01T12:29:03.281Z</time></trkpt><trkpt lat="42.1957033" lon="14.2222517"><ele>506.5</ele><time>2026-05-01T12:29:04.281Z</time></trkpt><trkpt lat="42.195745" lon="14.2221017"><ele>504.75</ele><time>2026-05-01T12:29:05.281Z</time></trkpt><trkpt lat="42.1957667" lon="14.2219483"><ele>503.0</ele><time>2026-05-01T12:29:06.281Z</time></trkpt><trkpt lat="42.1957933" lon="14.2217983"><ele>503.0</ele><time>2026-05-01T12:29:07.281Z</time></trkpt><trkpt lat="42.1958183" lon="14.2216433"><ele>503.0</ele><time>2026-05-01T12:29:08.281Z</time></trkpt><trkpt lat="42.19583" lon="14.221485"><ele>503.0</ele><time>2026-05-01T12:29:09.281Z</time></trkpt><trkpt lat="42.1958317" lon="14.2213283"><ele>503.0</ele><time>2026-05-01T12:29:10.281Z</time></trkpt><trkpt lat="42.1958233" lon="14.2211767"><ele>503.4</ele><time>2026-05-01T12:29:11.281Z</time></trkpt><trkpt lat="42.195815" lon="14.2210267"><ele>503.79999999999995</ele><time>2026-05-01T12:29:12.281Z</time></trkpt><trkpt lat="42.1957967" lon="14.2208867"><ele>504.2</ele><time>2026-05-01T12:29:13.281Z</time></trkpt><trkpt lat="42.19579" lon="14.2207467"><ele>504.6</ele><time>2026-05-01T12:29:14.281Z</time></trkpt><trkpt lat="42.1957917" lon="14.2206067"><ele>505.0</ele><time>2026-05-01T12:29:15.281Z</time></trkpt><trkpt lat="42.1958" lon="14.22047"><ele>505.4</ele><time>2026-05-01T12:29:16.281Z</time></trkpt><trkpt lat="42.1958233" lon="14.2203367"><ele>505.8</ele><time>2026-05-01T12:29:17.281Z</time></trkpt><trkpt lat="42.195855" lon="14.2202067"><ele>506.20000000000005</ele><time>2026-05-01T12:29:18.282Z</time></trkpt><trkpt lat="42.19589" lon="14.2200733"><ele>506.6</ele><time>2026-05-01T12:29:19.281Z</time></trkpt><trkpt lat="42.1959367" lon="14.2199483"><ele>507.0</ele><time>2026-05-01T12:29:20.281Z</time></trkpt><trkpt lat="42.1959933" lon="14.2198267"><ele>507.20000000000005</ele><time>2026-05-01T12:29:21.281Z</time></trkpt><trkpt lat="42.1960633" lon="14.21973"><ele>507.40000000000003</ele><time>2026-05-01T12:29:22.281Z</time></trkpt><trkpt lat="42.1961433" lon="14.2196367"><ele>507.59999999999997</ele><time>2026-05-01T12:29:23.282Z</time></trkpt><trkpt lat="42.1962267" lon="14.2195467"><ele>507.79999999999995</ele><time>2026-05-01T12:29:24.281Z</time></trkpt><trkpt lat="42.1963133" lon="14.2194667"><ele>508.0</ele><time>2026-05-01T12:29:25.281Z</time></trkpt><trkpt lat="42.1963867" lon="14.2193933"><ele>508.00000000000006</ele><time>2026-05-01T12:29:26.281Z</time></trkpt><trkpt lat="42.1964567" lon="14.2193417"><ele>508.0</ele><time>2026-05-01T12:29:27.281Z</time></trkpt><trkpt lat="42.1965133" lon="14.2193033"><ele>508.0</ele><time>2026-05-01T12:29:28.281Z</time></trkpt><trkpt lat="42.1966083" lon="14.219245"><ele>508.0</ele><time>2026-05-01T12:29:30.281Z</time></trkpt><trkpt lat="42.1967317" lon="14.2192417"><ele>508.00000000000006</ele><time>2026-05-01T12:29:32.281Z</time></trkpt><trkpt lat="42.1967967" lon="14.219225"><ele>508.0</ele><time>2026-05-01T12:29:33.281Z</time></trkpt><trkpt lat="42.196885" lon="14.2191417"><ele>506.79999999999995</ele><time>2026-05-01T12:29:35.281Z</time></trkpt><trkpt lat="42.1969583" lon="14.2191033"><ele>505.59999999999997</ele><time>2026-05-01T12:29:36.281Z</time></trkpt><trkpt lat="42.1970433" lon="14.2190783"><ele>504.40000000000003</ele><time>2026-05-01T12:29:37.281Z</time></trkpt><trkpt lat="42.1971517" lon="14.2190633"><ele>503.20000000000005</ele><time>2026-05-01T12:29:38.281Z</time></trkpt><trkpt lat="42.1972717" lon="14.2190533"><ele>502.0</ele><time>2026-05-01T12:29:39.282Z</time></trkpt><trkpt lat="42.1973833" lon="14.2190333"><ele>501.25</ele><time>2026-05-01T12:29:40.281Z</time></trkpt><trkpt lat="42.1974967" lon="14.219015"><ele>500.5</ele><time>2026-05-01T12:29:41.281Z</time></trkpt><trkpt lat="42.1976133" lon="14.2190033"><ele>499.75</ele><time>2026-05-01T12:29:42.281Z</time></trkpt><trkpt lat="42.1977333" lon="14.21899"><ele>499.0</ele><time>2026-05-01T12:29:43.281Z</time></trkpt><trkpt lat="42.1978567" lon="14.218965"><ele>498.0</ele><time>2026-05-01T12:29:44.281Z</time></trkpt><trkpt lat="42.1979833" lon="14.218935"><ele>497.0</ele><time>2026-05-01T12:29:45.281Z</time></trkpt><trkpt lat="42.1981117" lon="14.2189067"><ele>496.0</ele><time>2026-05-01T12:29:46.281Z</time></trkpt><trkpt lat="42.1982467" lon="14.218875"><ele>495.0</ele><time>2026-05-01T12:29:47.282Z</time></trkpt><trkpt lat="42.19838" lon="14.21883"><ele>494.25</ele><time>2026-05-01T12:29:48.281Z</time></trkpt><trkpt lat="42.1985183" lon="14.2187883"><ele>493.5</ele><time>2026-05-01T12:29:49.282Z</time></trkpt><trkpt lat="42.19865" lon="14.2187433"><ele>492.75</ele><time>2026-05-01T12:29:50.281Z</time></trkpt><trkpt lat="42.1987767" lon="14.2186917"><ele>492.0</ele><time>2026-05-01T12:29:51.281Z</time></trkpt><trkpt lat="42.1989033" lon="14.2186317"><ele>490.75</ele><time>2026-05-01T12:29:52.281Z</time></trkpt><trkpt lat="42.19903" lon="14.2185733"><ele>489.5</ele><time>2026-05-01T12:29:53.281Z</time></trkpt><trkpt lat="42.1991533" lon="14.218515"><ele>488.25</ele><time>2026-05-01T12:29:54.281Z</time></trkpt><trkpt lat="42.1992767" lon="14.2184617"><ele>487.0</ele><time>2026-05-01T12:29:55.281Z</time></trkpt><trkpt lat="42.1993967" lon="14.2184183"><ele>487.0</ele><time>2026-05-01T12:29:56.281Z</time></trkpt><trkpt lat="42.19952" lon="14.2183667"><ele>487.0</ele><time>2026-05-01T12:29:57.281Z</time></trkpt><trkpt lat="42.1996483" lon="14.2183233"><ele>487.0</ele><time>2026-05-01T12:29:58.281Z</time></trkpt><trkpt lat="42.1997683" lon="14.2182833"><ele>487.0</ele><time>2026-05-01T12:29:59.281Z</time></trkpt><trkpt lat="42.199885" lon="14.2182583"><ele>486.0</ele><time>2026-05-01T12:30:00.281Z</time></trkpt><trkpt lat="42.1999933" lon="14.2182433"><ele>485.00000000000006</ele><time>2026-05-01T12:30:01.281Z</time></trkpt><trkpt lat="42.2001017" lon="14.2182283"><ele>484.00000000000006</ele><time>2026-05-01T12:30:02.281Z</time></trkpt><trkpt lat="42.2002033" lon="14.21822"><ele>483.0</ele><time>2026-05-01T12:30:03.281Z</time></trkpt><trkpt lat="42.2003017" lon="14.2182083"><ele>482.0</ele><time>2026-05-01T12:30:04.282Z</time></trkpt><trkpt lat="42.2003967" lon="14.21818"><ele>481.0</ele><time>2026-05-01T12:30:05.281Z</time></trkpt><trkpt lat="42.2004983" lon="14.21815"><ele>480.0</ele><time>2026-05-01T12:30:06.281Z</time></trkpt><trkpt lat="42.2006033" lon="14.21812"><ele>479.0</ele><time>2026-05-01T12:30:07.281Z</time></trkpt><trkpt lat="42.2007183" lon="14.2180917"><ele>478.0</ele><time>2026-05-01T12:30:08.282Z</time></trkpt><trkpt lat="42.2008517" lon="14.2180683"><ele>477.25</ele><time>2026-05-01T12:30:09.281Z</time></trkpt><trkpt lat="42.2009883" lon="14.218035"><ele>476.5</ele><time>2026-05-01T12:30:10.281Z</time></trkpt><trkpt lat="42.20112" lon="14.218005"><ele>475.75</ele><time>2026-05-01T12:30:11.281Z</time></trkpt><trkpt lat="42.2012483" lon="14.2179833"><ele>475.0</ele><time>2026-05-01T12:30:12.281Z</time></trkpt><trkpt lat="42.2013783" lon="14.2179683"><ele>474.25</ele><time>2026-05-01T12:30:13.281Z</time></trkpt><trkpt lat="42.2015067" lon="14.2179567"><ele>473.5</ele><time>2026-05-01T12:30:14.281Z</time></trkpt><trkpt lat="42.201625" lon="14.2179533"><ele>472.75</ele><time>2026-05-01T12:30:15.282Z</time></trkpt><trkpt lat="42.201745" lon="14.21796"><ele>472.0</ele><time>2026-05-01T12:30:16.281Z</time></trkpt><trkpt lat="42.2018683" lon="14.2179817"><ele>472.0</ele><time>2026-05-01T12:30:17.281Z</time></trkpt><trkpt lat="42.2019933" lon="14.2180133"><ele>472.0</ele><time>2026-05-01T12:30:18.281Z</time></trkpt><trkpt lat="42.2021233" lon="14.21804"><ele>472.0</ele><time>2026-05-01T12:30:19.281Z</time></trkpt><trkpt lat="42.2022533" lon="14.218065"><ele>472.0</ele><time>2026-05-01T12:30:20.281Z</time></trkpt><trkpt lat="42.202385" lon="14.2180833"><ele>471.25</ele><time>2026-05-01T12:30:21.281Z</time></trkpt><trkpt lat="42.2025083" lon="14.21809"><ele>470.5</ele><time>2026-05-01T12:30:22.281Z</time></trkpt><trkpt lat="42.202625" lon="14.2180867"><ele>469.75</ele><time>2026-05-01T12:30:23.281Z</time></trkpt><trkpt lat="42.202735" lon="14.21807"><ele>469.0</ele><time>2026-05-01T12:30:24.281Z</time></trkpt><trkpt lat="42.20284" lon="14.218055"><ele>469.0</ele><time>2026-05-01T12:30:25.281Z</time></trkpt><trkpt lat="42.2029483" lon="14.21803"><ele>469.0</ele><time>2026-05-01T12:30:26.281Z</time></trkpt><trkpt lat="42.2030483" lon="14.2180083"><ele>469.0</ele><time>2026-05-01T12:30:27.281Z</time></trkpt><trkpt lat="42.2031483" lon="14.2179667"><ele>469.0</ele><time>2026-05-01T12:30:28.281Z</time></trkpt><trkpt lat="42.203235" lon="14.2178933"><ele>469.0</ele><time>2026-05-01T12:30:29.281Z</time></trkpt><trkpt lat="42.2033367" lon="14.2178"><ele>466.75</ele><time>2026-05-01T12:30:30.281Z</time></trkpt><trkpt lat="42.2034517" lon="14.217705"><ele>464.5</ele><time>2026-05-01T12:30:31.281Z</time></trkpt><trkpt lat="42.2035583" lon="14.2176183"><ele>462.25</ele><time>2026-05-01T12:30:32.281Z</time></trkpt><trkpt lat="42.20366" lon="14.217535"><ele>460.0</ele><time>2026-05-01T12:30:33.281Z</time></trkpt><trkpt lat="42.2037517" lon="14.2174533"><ele>460.0</ele><time>2026-05-01T12:30:34.281Z</time></trkpt><trkpt lat="42.20384" lon="14.2173817"><ele>460.0</ele><time>2026-05-01T12:30:35.281Z</time></trkpt><trkpt lat="42.2039367" lon="14.2173317"><ele>460.0</ele><time>2026-05-01T12:30:36.281Z</time></trkpt><trkpt lat="42.2040417" lon="14.2173217"><ele>460.0</ele><time>2026-05-01T12:30:37.282Z</time></trkpt><trkpt lat="42.2041417" lon="14.2173283"><ele>460.0</ele><time>2026-05-01T12:30:38.281Z</time></trkpt><trkpt lat="42.2042467" lon="14.217335"><ele>460.6</ele><time>2026-05-01T12:30:39.281Z</time></trkpt><trkpt lat="42.2043583" lon="14.217325"><ele>461.2</ele><time>2026-05-01T12:30:40.281Z</time></trkpt><trkpt lat="42.2044633" lon="14.2172983"><ele>461.79999999999995</ele><time>2026-05-01T12:30:41.281Z</time></trkpt><trkpt lat="42.204565" lon="14.217265"><ele>462.4</ele><time>2026-05-01T12:30:42.281Z</time></trkpt><trkpt lat="42.2046517" lon="14.21723"><ele>463.0</ele><time>2026-05-01T12:30:43.281Z</time></trkpt><trkpt lat="42.2047283" lon="14.2171983"><ele>463.00000000000006</ele><time>2026-05-01T12:30:44.281Z</time></trkpt><trkpt lat="42.2048067" lon="14.2171683"><ele>463.0</ele><time>2026-05-01T12:30:45.281Z</time></trkpt><trkpt lat="42.204885" lon="14.21714"><ele>463.0</ele><time>2026-05-01T12:30:46.281Z</time></trkpt><trkpt lat="42.2049683" lon="14.2171033"><ele>463.0</ele><time>2026-05-01T12:30:47.281Z</time></trkpt><trkpt lat="42.205055" lon="14.2170667"><ele>463.00000000000006</ele><time>2026-05-01T12:30:48.281Z</time></trkpt><trkpt lat="42.2051417" lon="14.21703"><ele>463.0</ele><time>2026-05-01T12:30:49.281Z</time></trkpt><trkpt lat="42.20523" lon="14.2169983"><ele>462.2</ele><time>2026-05-01T12:30:50.281Z</time></trkpt><trkpt lat="42.205315" lon="14.216975"><ele>461.4</ele><time>2026-05-01T12:30:51.281Z</time></trkpt><trkpt lat="42.20539" lon="14.2169583"><ele>460.59999999999997</ele><time>2026-05-01T12:30:52.281Z</time></trkpt><trkpt lat="42.2054917" lon="14.216935"><ele>459.79999999999995</ele><time>2026-05-01T12:30:54.281Z</time></trkpt><trkpt lat="42.2055783" lon="14.2170183"><ele>459.0</ele><time>2026-05-01T12:30:56.281Z</time></trkpt><trkpt lat="42.2056267" lon="14.2171133"><ele>457.0</ele><time>2026-05-01T12:30:57.282Z</time></trkpt><trkpt lat="42.2056767" lon="14.2172217"><ele>455.0</ele><time>2026-05-01T12:30:58.281Z</time></trkpt><trkpt lat="42.205725" lon="14.217335"><ele>453.0</ele><time>2026-05-01T12:30:59.281Z</time></trkpt><trkpt lat="42.2057683" lon="14.2174417"><ele>451.0</ele><time>2026-05-01T12:31:00.281Z</time></trkpt><trkpt lat="42.20582" lon="14.217545"><ele>449.0</ele><time>2026-05-01T12:31:01.281Z</time></trkpt><trkpt lat="42.205875" lon="14.2176567"><ele>448.0</ele><time>2026-05-01T12:31:02.281Z</time></trkpt><trkpt lat="42.2059333" lon="14.2177767"><ele>447.0</ele><time>2026-05-01T12:31:03.281Z</time></trkpt><trkpt lat="42.2059867" lon="14.21789"><ele>446.0</ele><time>2026-05-01T12:31:04.281Z</time></trkpt><trkpt lat="42.206045" lon="14.218"><ele>445.0</ele><time>2026-05-01T12:31:05.281Z</time></trkpt><trkpt lat="42.2061083" lon="14.2181117"><ele>444.0</ele><time>2026-05-01T12:31:06.281Z</time></trkpt><trkpt lat="42.2061767" lon="14.21822"><ele>442.79999999999995</ele><time>2026-05-01T12:31:07.281Z</time></trkpt><trkpt lat="42.206265" lon="14.2183133"><ele>441.59999999999997</ele><time>2026-05-01T12:31:08.281Z</time></trkpt><trkpt lat="42.2063567" lon="14.2183883"><ele>440.4</ele><time>2026-05-01T12:31:09.281Z</time></trkpt><trkpt lat="42.2064517" lon="14.218455"><ele>439.2</ele><time>2026-05-01T12:31:10.281Z</time></trkpt><trkpt lat="42.206535" lon="14.218515"><ele>438.0</ele><time>2026-05-01T12:31:11.281Z</time></trkpt><trkpt lat="42.2066183" lon="14.2185733"><ele>436.59999999999997</ele><time>2026-05-01T12:31:12.281Z</time></trkpt><trkpt lat="42.2066867" lon="14.2186483"><ele>435.19999999999993</ele><time>2026-05-01T12:31:13.281Z</time></trkpt><trkpt lat="42.2067567" lon="14.21875"><ele>433.8</ele><time>2026-05-01T12:31:14.281Z</time></trkpt><trkpt lat="42.20682" lon="14.2188667"><ele>432.4</ele><time>2026-05-01T12:31:15.281Z</time></trkpt><trkpt lat="42.2068783" lon="14.21899"><ele>431.0</ele><time>2026-05-01T12:31:16.281Z</time></trkpt><trkpt lat="42.2069283" lon="14.219125"><ele>430.4</ele><time>2026-05-01T12:31:17.282Z</time></trkpt><trkpt lat="42.2069867" lon="14.219245"><ele>429.8</ele><time>2026-05-01T12:31:18.281Z</time></trkpt><trkpt lat="42.20704" lon="14.21936"><ele>429.19999999999993</ele><time>2026-05-01T12:31:19.281Z</time></trkpt><trkpt lat="42.2070883" lon="14.219465"><ele>428.59999999999997</ele><time>2026-05-01T12:31:20.281Z</time></trkpt><trkpt lat="42.207135" lon="14.219575"><ele>428.0</ele><time>2026-05-01T12:31:21.281Z</time></trkpt><trkpt lat="42.2071767" lon="14.2196933"><ele>427.99999999999994</ele><time>2026-05-01T12:31:22.281Z</time></trkpt><trkpt lat="42.2072217" lon="14.2197967"><ele>428.0</ele><time>2026-05-01T12:31:23.281Z</time></trkpt><trkpt lat="42.207275" lon="14.219885"><ele>428.0</ele><time>2026-05-01T12:31:24.282Z</time></trkpt><trkpt lat="42.2073333" lon="14.2199583"><ele>428.0</ele><time>2026-05-01T12:31:25.281Z</time></trkpt><trkpt lat="42.2074083" lon="14.2200033"><ele>427.99999999999994</ele><time>2026-05-01T12:31:26.281Z</time></trkpt><trkpt lat="42.207485" lon="14.22002"><ele>428.0</ele><time>2026-05-01T12:31:27.281Z</time></trkpt><trkpt lat="42.2075533" lon="14.2200133"><ele>426.3333333333333</ele><time>2026-05-01T12:31:28.279Z</time></trkpt><trkpt lat="42.2076183" lon="14.220005"><ele>424.66666666666663</ele><time>2026-05-01T12:31:29.281Z</time></trkpt><trkpt lat="42.207725" lon="14.220005"><ele>423.0</ele><time>2026-05-01T12:31:31.281Z</time></trkpt><trkpt lat="42.2078033" lon="14.22005"><ele>421.33333333333337</ele><time>2026-05-01T12:31:36.281Z</time></trkpt><trkpt lat="42.2078217" lon="14.2201667"><ele>419.6666666666667</ele><time>2026-05-01T12:31:38.281Z</time></trkpt><trkpt lat="42.2078733" lon="14.2202433"><ele>418.0</ele><time>2026-05-01T12:31:42.281Z</time></trkpt><trkpt lat="42.207965" lon="14.2202083"><ele>418.00000000000006</ele><time>2026-05-01T12:31:45.281Z</time></trkpt><trkpt lat="42.2080317" lon="14.2202217"><ele>418.0</ele><time>2026-05-01T12:31:47.282Z</time></trkpt><trkpt lat="42.2081033" lon="14.2202967"><ele>418.0</ele><time>2026-05-01T12:31:49.281Z</time></trkpt><trkpt lat="42.2081517" lon="14.220385"><ele>418.0</ele><time>2026-05-01T12:31:51.281Z</time></trkpt><trkpt lat="42.2081962" lon="14.220469"><ele>418.00000000000006</ele><time>2026-05-01T12:31:53.373Z</time></trkpt><trkpt lat="42.2082717" lon="14.2204429"><ele>418.0</ele><time>2026-05-01T12:31:55.393Z</time></trkpt><trkpt lat="42.2083392" lon="14.2203604"><ele>416.0</ele><time>2026-05-01T12:31:57.308Z</time></trkpt><trkpt lat="42.2084307" lon="14.220277"><ele>414.0</ele><time>2026-05-01T12:31:59.281Z</time></trkpt><trkpt lat="42.2085286" lon="14.2201987"><ele>412.0</ele><time>2026-05-01T12:32:01.281Z</time></trkpt><trkpt lat="42.2086017" lon="14.2201267"><ele>410.0</ele><time>2026-05-01T12:32:03.281Z</time></trkpt><trkpt lat="42.2086667" lon="14.2200567"><ele>408.0</ele><time>2026-05-01T12:32:05.281Z</time></trkpt><trkpt lat="42.2087283" lon="14.2199833"><ele>408.0</ele><time>2026-05-01T12:32:07.281Z</time></trkpt><trkpt lat="42.20882" lon="14.2199567"><ele>408.0</ele><time>2026-05-01T12:32:09.281Z</time></trkpt><trkpt lat="42.208885" lon="14.2199567"><ele>408.0</ele><time>2026-05-01T12:32:10.282Z</time></trkpt><trkpt lat="42.2089567" lon="14.2199717"><ele>408.0</ele><time>2026-05-01T12:32:11.281Z</time></trkpt><trkpt lat="42.2090367" lon="14.21999"><ele>408.0</ele><time>2026-05-01T12:32:12.281Z</time></trkpt><trkpt lat="42.209105" lon="14.2200133"><ele>408.0</ele><time>2026-05-01T12:32:13.281Z</time></trkpt><trkpt lat="42.2092" lon="14.2200533"><ele>406.1666666666667</ele><time>2026-05-01T12:32:15.281Z</time></trkpt><trkpt lat="42.2092917" lon="14.220075"><ele>404.33333333333337</ele><time>2026-05-01T12:32:17.281Z</time></trkpt><trkpt lat="42.2093683" lon="14.220085"><ele>402.5</ele><time>2026-05-01T12:32:19.281Z</time></trkpt><trkpt lat="42.20945" lon="14.2200983"><ele>400.6666666666667</ele><time>2026-05-01T12:32:21.281Z</time></trkpt><trkpt lat="42.2095283" lon="14.220055"><ele>398.83333333333337</ele><time>2026-05-01T12:32:23.281Z</time></trkpt><trkpt lat="42.209575" lon="14.21999"><ele>397.0</ele><time>2026-05-01T12:32:24.281Z</time></trkpt><trkpt lat="42.2096267" lon="14.2199217"><ele>397.0</ele><time>2026-05-01T12:32:25.281Z</time></trkpt><trkpt lat="42.2096683" lon="14.219855"><ele>397.0</ele><time>2026-05-01T12:32:26.281Z</time></trkpt><trkpt lat="42.2097183" lon="14.2197183"><ele>397.0</ele><time>2026-05-01T12:32:28.281Z</time></trkpt><trkpt lat="42.209764" lon="14.2195788"><ele>397.0</ele><time>2026-05-01T12:32:30.281Z</time></trkpt><trkpt lat="42.20978" lon="14.2194337"><ele>397.0</ele><time>2026-05-01T12:32:32.281Z</time></trkpt><trkpt lat="42.2098083" lon="14.2193417"><ele>397.00000000000006</ele><time>2026-05-01T12:32:35.281Z</time></trkpt><trkpt lat="42.2098333" lon="14.21944"><ele>397.0</ele><time>2026-05-01T12:32:38.281Z</time></trkpt><trkpt lat="42.2098283" lon="14.219535"><ele>397.0</ele><time>2026-05-01T12:32:39.281Z</time></trkpt><trkpt lat="42.209825" lon="14.2196367"><ele>397.0</ele><time>2026-05-01T12:32:40.281Z</time></trkpt><trkpt lat="42.209835" lon="14.21974"><ele>397.00000000000006</ele><time>2026-05-01T12:32:41.281Z</time></trkpt><trkpt lat="42.2098333" lon="14.219845"><ele>397.0</ele><time>2026-05-01T12:32:42.281Z</time></trkpt><trkpt lat="42.2098217" lon="14.2199517"><ele>397.00000000000006</ele><time>2026-05-01T12:32:43.281Z</time></trkpt><trkpt lat="42.209815" lon="14.2200483"><ele>397.0</ele><time>2026-05-01T12:32:44.281Z</time></trkpt><trkpt lat="42.2098" lon="14.22015"><ele>397.0</ele><time>2026-05-01T12:32:45.282Z</time></trkpt><trkpt lat="42.2098" lon="14.22025"><ele>397.0</ele><time>2026-05-01T12:32:46.281Z</time></trkpt><trkpt lat="42.2097933" lon="14.22034"><ele>397.00000000000006</ele><time>2026-05-01T12:32:47.281Z</time></trkpt><trkpt lat="42.2097983" lon="14.2204933"><ele>397.0</ele><time>2026-05-01T12:32:49.281Z</time></trkpt><trkpt lat="42.2098167" lon="14.2206417"><ele>395.83333333333337</ele><time>2026-05-01T12:32:51.281Z</time></trkpt><trkpt lat="42.2098267" lon="14.22073"><ele>394.6666666666667</ele><time>2026-05-01T12:32:52.281Z</time></trkpt><trkpt lat="42.2098283" lon="14.2208233"><ele>393.5</ele><time>2026-05-01T12:32:53.281Z</time></trkpt><trkpt lat="42.2098317" lon="14.2209133"><ele>392.33333333333337</ele><time>2026-05-01T12:32:54.281Z</time></trkpt><trkpt lat="42.209845" lon="14.2210367"><ele>391.1666666666667</ele><time>2026-05-01T12:32:56.281Z</time></trkpt><trkpt lat="42.2099167" lon="14.2210783"><ele>390.0</ele><time>2026-05-01T12:32:59.281Z</time></trkpt><trkpt lat="42.2100267" lon="14.221105"><ele>390.0</ele><time>2026-05-01T12:33:07.281Z</time></trkpt><trkpt lat="42.2100833" lon="14.221195"><ele>390.0</ele><time>2026-05-01T12:33:10.281Z</time></trkpt><trkpt lat="42.21004" lon="14.2211217"><ele>390.0</ele><time>2026-05-01T12:33:27.281Z</time></trkpt><trkpt lat="42.209975" lon="14.2210767"><ele>390.0</ele><time>2026-05-01T12:33:31.281Z</time></trkpt><trkpt lat="42.2099033" lon="14.221075"><ele>390.0</ele><time>2026-05-01T12:33:34.281Z</time></trkpt><trkpt lat="42.2098817" lon="14.2209667"><ele>390.0</ele><time>2026-05-01T12:33:38.281Z</time></trkpt><trkpt lat="42.20991" lon="14.2208533"><ele>390.0</ele><time>2026-05-01T12:33:40.281Z</time></trkpt><trkpt lat="42.2099817" lon="14.2207917"><ele>390.0</ele><time>2026-05-01T12:33:42.281Z</time></trkpt><trkpt lat="42.2100783" lon="14.22076"><ele>390.0</ele><time>2026-05-01T12:33:44.281Z</time></trkpt><trkpt lat="42.210185" lon="14.22074"><ele>390.0</ele><time>2026-05-01T12:33:46.281Z</time></trkpt><trkpt lat="42.2102667" lon="14.2207267"><ele>390.0</ele><time>2026-05-01T12:33:48.281Z</time></trkpt><trkpt lat="42.21033" lon="14.22076"><ele>390.0</ele><time>2026-05-01T12:33:50.281Z</time></trkpt><trkpt lat="42.2103883" lon="14.2208417"><ele>390.0</ele><time>2026-05-01T12:33:52.282Z</time></trkpt><trkpt lat="42.210475" lon="14.220905"><ele>390.0</ele><time>2026-05-01T12:33:55.281Z</time></trkpt><trkpt lat="42.210575" lon="14.2208833"><ele>390.0</ele><time>2026-05-01T12:33:57.281Z</time></trkpt><trkpt lat="42.210675" lon="14.22085"><ele>390.0</ele><time>2026-05-01T12:33:59.281Z</time></trkpt><trkpt lat="42.2107917" lon="14.220825"><ele>390.0</ele><time>2026-05-01T12:34:01.281Z</time></trkpt><trkpt lat="42.210855" lon="14.22081"><ele>389.0</ele><time>2026-05-01T12:34:02.281Z</time></trkpt><trkpt lat="42.2109183" lon="14.2208017"><ele>388.0</ele><time>2026-05-01T12:34:03.281Z</time></trkpt><trkpt lat="42.2109833" lon="14.22079"><ele>387.0</ele><time>2026-05-01T12:34:04.281Z</time></trkpt><trkpt lat="42.2111017" lon="14.220765"><ele>386.0</ele><time>2026-05-01T12:34:06.281Z</time></trkpt><trkpt lat="42.2111667" lon="14.2207467"><ele>385.0</ele><time>2026-05-01T12:34:07.281Z</time></trkpt><trkpt lat="42.2112883" lon="14.2207183"><ele>384.0</ele><time>2026-05-01T12:34:09.281Z</time></trkpt><trkpt lat="42.2113883" lon="14.2206967"><ele>384.0</ele><time>2026-05-01T12:34:11.282Z</time></trkpt><trkpt lat="42.21149" lon="14.2206533"><ele>384.0</ele><time>2026-05-01T12:34:13.281Z</time></trkpt><trkpt lat="42.2115933" lon="14.2206133"><ele>384.0</ele><time>2026-05-01T12:34:15.281Z</time></trkpt><trkpt lat="42.2116917" lon="14.2206017"><ele>384.0</ele><time>2026-05-01T12:34:17.282Z</time></trkpt><trkpt lat="42.21177" lon="14.2205883"><ele>384.0</ele><time>2026-05-01T12:34:19.282Z</time></trkpt><trkpt lat="42.2118383" lon="14.2205533"><ele>381.6666666666667</ele><time>2026-05-01T12:34:21.281Z</time></trkpt><trkpt lat="42.2119183" lon="14.2205083"><ele>379.3333333333333</ele><time>2026-05-01T12:34:24.281Z</time></trkpt><trkpt lat="42.211985" lon="14.2204333"><ele>377.0</ele><time>2026-05-01T12:34:44.281Z</time></trkpt><trkpt lat="42.2120233" lon="14.2203533"><ele>374.66666666666663</ele><time>2026-05-01T12:34:50.281Z</time></trkpt><trkpt lat="42.2121217" lon="14.2202717"><ele>372.3333333333333</ele><time>2026-05-01T12:35:05.281Z</time></trkpt><trkpt lat="42.212195" lon="14.22023"><ele>370.0</ele><time>2026-05-01T12:35:09.281Z</time></trkpt><trkpt lat="42.2122917" lon="14.22033"><ele>370.0</ele><time>2026-05-01T12:35:24.282Z</time></trkpt><trkpt lat="42.2122917" lon="14.22049"><ele>370.0</ele><time>2026-05-01T12:37:50.28Z</time></trkpt><trkpt lat="42.2123" lon="14.2205767"><ele>370.0</ele><time>2026-05-01T12:37:52.28Z</time></trkpt><trkpt lat="42.2123183" lon="14.220675"><ele>370.0</ele><time>2026-05-01T12:37:54.28Z</time></trkpt><trkpt lat="42.21234" lon="14.2207667"><ele>370.0</ele><time>2026-05-01T12:37:56.28Z</time></trkpt><trkpt lat="42.212415" lon="14.2208067"><ele>370.0</ele><time>2026-05-01T12:37:59.281Z</time></trkpt><trkpt lat="42.2124983" lon="14.2207717"><ele>370.3333333333333</ele><time>2026-05-01T12:38:01.28Z</time></trkpt><trkpt lat="42.212575" lon="14.2207367"><ele>370.66666666666663</ele><time>2026-05-01T12:38:03.28Z</time></trkpt><trkpt lat="42.21266" lon="14.2207"><ele>371.0</ele><time>2026-05-01T12:38:05.281Z</time></trkpt><trkpt lat="42.2127467" lon="14.22064"><ele>371.3333333333333</ele><time>2026-05-01T12:38:07.28Z</time></trkpt><trkpt lat="42.2128183" lon="14.22061"><ele>371.6666666666667</ele><time>2026-05-01T12:38:09.28Z</time></trkpt><trkpt lat="42.2128883" lon="14.2205783"><ele>372.0</ele><time>2026-05-01T12:38:12.28Z</time></trkpt><trkpt lat="42.2129667" lon="14.2205433"><ele>372.0</ele><time>2026-05-01T12:38:15.28Z</time></trkpt><trkpt lat="42.2130583" lon="14.2205033"><ele>372.0</ele><time>2026-05-01T12:38:18.281Z</time></trkpt><trkpt lat="42.213165" lon="14.2204567"><ele>372.0</ele><time>2026-05-01T12:38:21.281Z</time></trkpt><trkpt lat="42.2131933" lon="14.2203583"><ele>372.0</ele><time>2026-05-01T12:38:23.28Z</time></trkpt><trkpt lat="42.213255" lon="14.2203167"><ele>372.0</ele><time>2026-05-01T12:38:25.28Z</time></trkpt><trkpt lat="42.213315" lon="14.2202617"><ele>372.0</ele><time>2026-05-01T12:38:28.281Z</time></trkpt><trkpt lat="42.2133333" lon="14.22018"><ele>372.6666666666667</ele><time>2026-05-01T12:39:41.28Z</time></trkpt><trkpt lat="42.21341" lon="14.2201317"><ele>373.3333333333333</ele><time>2026-05-01T12:39:43.28Z</time></trkpt><trkpt lat="42.213475" lon="14.2200483"><ele>374.0</ele><time>2026-05-01T12:39:45.28Z</time></trkpt><trkpt lat="42.2135433" lon="14.2199667"><ele>374.66666666666663</ele><time>2026-05-01T12:39:47.281Z</time></trkpt><trkpt lat="42.21362" lon="14.2198967"><ele>375.3333333333333</ele><time>2026-05-01T12:39:49.28Z</time></trkpt><trkpt lat="42.2136917" lon="14.2198333"><ele>376.0</ele><time>2026-05-01T12:39:51.281Z</time></trkpt><trkpt lat="42.2137417" lon="14.21977"><ele>374.5</ele><time>2026-05-01T12:39:53.28Z</time></trkpt><trkpt lat="42.21382" lon="14.219685"><ele>373.0</ele><time>2026-05-01T12:39:56.28Z</time></trkpt><trkpt lat="42.2138783" lon="14.2196283"><ele>371.5</ele><time>2026-05-01T12:39:58.28Z</time></trkpt><trkpt lat="42.2139483" lon="14.2195883"><ele>370.0</ele><time>2026-05-01T12:40:01.28Z</time></trkpt><trkpt lat="42.2139883" lon="14.2195"><ele>368.5</ele><time>2026-05-01T12:40:05.28Z</time></trkpt><trkpt lat="42.2140483" lon="14.2194283"><ele>367.0</ele><time>2026-05-01T12:40:08.28Z</time></trkpt><trkpt lat="42.2140933" lon="14.219325"><ele>367.0</ele><time>2026-05-01T12:40:11.281Z</time></trkpt><trkpt lat="42.2141317" lon="14.2192567"><ele>367.0</ele><time>2026-05-01T12:40:13.28Z</time></trkpt><trkpt lat="42.2141817" lon="14.2191933"><ele>367.0</ele><time>2026-05-01T12:40:15.28Z</time></trkpt><trkpt lat="42.2142217" lon="14.2191233"><ele>367.0</ele><time>2026-05-01T12:40:17.28Z</time></trkpt><trkpt lat="42.2142583" lon="14.219005"><ele>367.0</ele><time>2026-05-01T12:40:20.28Z</time></trkpt><trkpt lat="42.2143267" lon="14.218905"><ele>367.0</ele><time>2026-05-01T12:40:23.28Z</time></trkpt><trkpt lat="42.21441" lon="14.2188567"><ele>364.0</ele><time>2026-05-01T12:40:25.281Z</time></trkpt><trkpt lat="42.21451" lon="14.2188133"><ele>361.0</ele><time>2026-05-01T12:40:27.28Z</time></trkpt><trkpt lat="42.2145917" lon="14.2187067"><ele>358.0</ele><time>2026-05-01T12:40:29.28Z</time></trkpt><trkpt lat="42.2146283" lon="14.2185683"><ele>355.0</ele><time>2026-05-01T12:40:30.28Z</time></trkpt><trkpt lat="42.2147183" lon="14.2184667"><ele>352.0</ele><time>2026-05-01T12:40:32.28Z</time></trkpt><trkpt lat="42.2147867" lon="14.2183833"><ele>351.3333333333333</ele><time>2026-05-01T12:40:34.28Z</time></trkpt><trkpt lat="42.2148417" lon="14.2183183"><ele>350.66666666666663</ele><time>2026-05-01T12:40:36.28Z</time></trkpt><trkpt lat="42.2149033" lon="14.2182467"><ele>350.0</ele><time>2026-05-01T12:40:38.28Z</time></trkpt><trkpt lat="42.21496" lon="14.2181667"><ele>349.3333333333333</ele><time>2026-05-01T12:40:40.28Z</time></trkpt><trkpt lat="42.21504" lon="14.2180867"><ele>348.6666666666667</ele><time>2026-05-01T12:40:42.28Z</time></trkpt><trkpt lat="42.2151083" lon="14.2180183"><ele>348.0</ele><time>2026-05-01T12:40:44.28Z</time></trkpt><trkpt lat="42.215185" lon="14.2179633"><ele>348.0</ele><time>2026-05-01T12:40:46.28Z</time></trkpt><trkpt lat="42.2152867" lon="14.217905"><ele>348.0</ele><time>2026-05-01T12:40:48.28Z</time></trkpt><trkpt lat="42.215395" lon="14.2178533"><ele>348.0</ele><time>2026-05-01T12:40:50.28Z</time></trkpt><trkpt lat="42.2154667" lon="14.2178183"><ele>348.0</ele><time>2026-05-01T12:40:52.28Z</time></trkpt><trkpt lat="42.21553" lon="14.2177917"><ele>348.0</ele><time>2026-05-01T12:40:54.28Z</time></trkpt><trkpt lat="42.2156" lon="14.2177317"><ele>348.6666666666667</ele><time>2026-05-01T12:40:56.28Z</time></trkpt><trkpt lat="42.21567" lon="14.2176467"><ele>349.3333333333333</ele><time>2026-05-01T12:40:58.28Z</time></trkpt><trkpt lat="42.2157433" lon="14.2175717"><ele>350.0</ele><time>2026-05-01T12:41:00.28Z</time></trkpt><trkpt lat="42.21581" lon="14.2174883"><ele>350.66666666666663</ele><time>2026-05-01T12:41:02.28Z</time></trkpt><trkpt lat="42.21587" lon="14.21742"><ele>351.3333333333333</ele><time>2026-05-01T12:41:04.28Z</time></trkpt><trkpt lat="42.215935" lon="14.217355"><ele>352.0</ele><time>2026-05-01T12:41:06.28Z</time></trkpt><trkpt lat="42.2160067" lon="14.2172833"><ele>349.8</ele><time>2026-05-01T12:41:08.28Z</time></trkpt><trkpt lat="42.21608" lon="14.217205"><ele>347.6</ele><time>2026-05-01T12:41:10.281Z</time></trkpt><trkpt lat="42.2161483" lon="14.2171333"><ele>345.40000000000003</ele><time>2026-05-01T12:41:12.28Z</time></trkpt><trkpt lat="42.2162183" lon="14.2170717"><ele>343.20000000000005</ele><time>2026-05-01T12:41:14.28Z</time></trkpt><trkpt lat="42.216305" lon="14.216995"><ele>341.0</ele><time>2026-05-01T12:41:16.28Z</time></trkpt><trkpt lat="42.21641" lon="14.2169267"><ele>341.20000000000005</ele><time>2026-05-01T12:41:18.28Z</time></trkpt><trkpt lat="42.216515" lon="14.2168567"><ele>341.40000000000003</ele><time>2026-05-01T12:41:20.28Z</time></trkpt><trkpt lat="42.2166017" lon="14.21681"><ele>341.6</ele><time>2026-05-01T12:41:22.28Z</time></trkpt><trkpt lat="42.2167" lon="14.216755"><ele>341.8</ele><time>2026-05-01T12:41:24.28Z</time></trkpt><trkpt lat="42.2168083" lon="14.2166867"><ele>342.0</ele><time>2026-05-01T12:41:26.28Z</time></trkpt><trkpt lat="42.2169133" lon="14.2166133"><ele>342.0</ele><time>2026-05-01T12:41:28.28Z</time></trkpt><trkpt lat="42.2169833" lon="14.2165717"><ele>342.0</ele><time>2026-05-01T12:41:29.281Z</time></trkpt><trkpt lat="42.2170517" lon="14.2165167"><ele>342.0</ele><time>2026-05-01T12:41:30.28Z</time></trkpt><trkpt lat="42.2171333" lon="14.2164733"><ele>342.0</ele><time>2026-05-01T12:41:31.28Z</time></trkpt><trkpt lat="42.2172117" lon="14.216425"><ele>342.0</ele><time>2026-05-01T12:41:32.28Z</time></trkpt><trkpt lat="42.2172833" lon="14.216375"><ele>342.0</ele><time>2026-05-01T12:41:33.28Z</time></trkpt><trkpt lat="42.2173517" lon="14.2163367"><ele>342.3333333333333</ele><time>2026-05-01T12:41:34.28Z</time></trkpt><trkpt lat="42.2174117" lon="14.2163067"><ele>342.6666666666667</ele><time>2026-05-01T12:41:35.281Z</time></trkpt><trkpt lat="42.2175083" lon="14.2162833"><ele>343.0</ele><time>2026-05-01T12:41:37.281Z</time></trkpt><trkpt lat="42.2175833" lon="14.2163333"><ele>343.33333333333337</ele><time>2026-05-01T12:41:39.28Z</time></trkpt><trkpt lat="42.21763" lon="14.2164217"><ele>343.6666666666667</ele><time>2026-05-01T12:41:41.28Z</time></trkpt><trkpt lat="42.2176633" lon="14.216505"><ele>344.0</ele><time>2026-05-01T12:41:43.28Z</time></trkpt><trkpt lat="42.2177033" lon="14.21662"><ele>344.0</ele><time>2026-05-01T12:41:45.28Z</time></trkpt><trkpt lat="42.2176767" lon="14.2166983"><ele>344.0</ele><time>2026-05-01T12:41:47.28Z</time></trkpt><trkpt lat="42.2176217" lon="14.216765"><ele>344.0</ele><time>2026-05-01T12:41:49.28Z</time></trkpt><trkpt lat="42.21754" lon="14.2168167"><ele>344.0</ele><time>2026-05-01T12:41:51.28Z</time></trkpt><trkpt lat="42.2174933" lon="14.216885"><ele>344.0</ele><time>2026-05-01T12:41:53.28Z</time></trkpt><trkpt lat="42.2175767" lon="14.2169583"><ele>344.0</ele><time>2026-05-01T12:41:56.28Z</time></trkpt><trkpt lat="42.2177017" lon="14.2169417"><ele>344.0</ele><time>2026-05-01T12:41:58.281Z</time></trkpt><trkpt lat="42.2177667" lon="14.2169283"><ele>344.0</ele><time>2026-05-01T12:41:59.28Z</time></trkpt><trkpt lat="42.2178317" lon="14.2169117"><ele>344.0</ele><time>2026-05-01T12:42:00.28Z</time></trkpt><trkpt lat="42.2178983" lon="14.216905"><ele>344.0</ele><time>2026-05-01T12:42:01.28Z</time></trkpt><trkpt lat="42.218" lon="14.2169283"><ele>344.0</ele><time>2026-05-01T12:42:03.28Z</time></trkpt><trkpt lat="42.2181033" lon="14.21702"><ele>344.0</ele><time>2026-05-01T12:42:05.28Z</time></trkpt><trkpt lat="42.2181567" lon="14.21708"><ele>344.6</ele><time>2026-05-01T12:42:06.28Z</time></trkpt><trkpt lat="42.2182417" lon="14.217175"><ele>345.2</ele><time>2026-05-01T12:42:08.28Z</time></trkpt><trkpt lat="42.2183333" lon="14.2171833"><ele>345.8</ele><time>2026-05-01T12:42:17.28Z</time></trkpt><trkpt lat="42.2183983" lon="14.217065"><ele>346.40000000000003</ele><time>2026-05-01T12:42:19.28Z</time></trkpt><trkpt lat="42.2184317" lon="14.216985"><ele>347.0</ele><time>2026-05-01T12:42:20.28Z</time></trkpt><trkpt lat="42.21849" lon="14.2169"><ele>347.0</ele><time>2026-05-01T12:42:21.28Z</time></trkpt><trkpt lat="42.218555" lon="14.21682"><ele>347.0</ele><time>2026-05-01T12:42:22.28Z</time></trkpt><trkpt lat="42.2186317" lon="14.2167467"><ele>347.0</ele><time>2026-05-01T12:42:23.28Z</time></trkpt><trkpt lat="42.2187117" lon="14.2166717"><ele>347.0</ele><time>2026-05-01T12:42:24.28Z</time></trkpt><trkpt lat="42.2187933" lon="14.2165983"><ele>347.0</ele><time>2026-05-01T12:42:25.28Z</time></trkpt><trkpt lat="42.2188633" lon="14.2165217"><ele>346.0</ele><time>2026-05-01T12:42:26.28Z</time></trkpt><trkpt lat="42.2189367" lon="14.2164483"><ele>345.0</ele><time>2026-05-01T12:42:27.28Z</time></trkpt><trkpt lat="42.2190067" lon="14.2163717"><ele>344.0</ele><time>2026-05-01T12:42:28.28Z</time></trkpt><trkpt lat="42.2190683" lon="14.2162933"><ele>343.0</ele><time>2026-05-01T12:42:29.28Z</time></trkpt><trkpt lat="42.2191317" lon="14.21621"><ele>342.0</ele><time>2026-05-01T12:42:30.281Z</time></trkpt><trkpt lat="42.2191883" lon="14.2161183"><ele>341.0</ele><time>2026-05-01T12:42:31.28Z</time></trkpt><trkpt lat="42.2192533" lon="14.2160267"><ele>341.0</ele><time>2026-05-01T12:42:32.28Z</time></trkpt><trkpt lat="42.219315" lon="14.2159183"><ele>341.0</ele><time>2026-05-01T12:42:33.28Z</time></trkpt><trkpt lat="42.2193667" lon="14.215795"><ele>341.0</ele><time>2026-05-01T12:42:34.28Z</time></trkpt><trkpt lat="42.21942" lon="14.2156517"><ele>341.0</ele><time>2026-05-01T12:42:35.28Z</time></trkpt><trkpt lat="42.2194733" lon="14.2155083"><ele>341.0</ele><time>2026-05-01T12:42:36.28Z</time></trkpt><trkpt lat="42.2195267" lon="14.2153533"><ele>338.5</ele><time>2026-05-01T12:42:37.281Z</time></trkpt><trkpt lat="42.21958" lon="14.215205"><ele>336.0</ele><time>2026-05-01T12:42:38.28Z</time></trkpt><trkpt lat="42.219645" lon="14.21506"><ele>333.5</ele><time>2026-05-01T12:42:39.28Z</time></trkpt><trkpt lat="42.2197117" lon="14.21492"><ele>331.0</ele><time>2026-05-01T12:42:40.28Z</time></trkpt><trkpt lat="42.2197817" lon="14.2147833"><ele>330.20000000000005</ele><time>2026-05-01T12:42:41.281Z</time></trkpt><trkpt lat="42.2198417" lon="14.2146517"><ele>329.40000000000003</ele><time>2026-05-01T12:42:42.28Z</time></trkpt><trkpt lat="42.2199017" lon="14.2145367"><ele>328.6</ele><time>2026-05-01T12:42:43.28Z</time></trkpt><trkpt lat="42.2199567" lon="14.21442"><ele>327.8</ele><time>2026-05-01T12:42:44.281Z</time></trkpt><trkpt lat="42.22" lon="14.2143167"><ele>327.0</ele><time>2026-05-01T12:42:45.28Z</time></trkpt><trkpt lat="42.2200283" lon="14.214225"><ele>327.0</ele><time>2026-05-01T12:42:46.28Z</time></trkpt><trkpt lat="42.2200483" lon="14.2141333"><ele>327.0</ele><time>2026-05-01T12:42:47.281Z</time></trkpt><trkpt lat="42.2200683" lon="14.21405"><ele>327.0</ele><time>2026-05-01T12:42:48.28Z</time></trkpt><trkpt lat="42.2201117" lon="14.2139017"><ele>327.0</ele><time>2026-05-01T12:42:50.28Z</time></trkpt><trkpt lat="42.2201467" lon="14.2137917"><ele>327.0</ele><time>2026-05-01T12:42:52.28Z</time></trkpt><trkpt lat="42.2201317" lon="14.2136967"><ele>327.0</ele><time>2026-05-01T12:42:54.28Z</time></trkpt><trkpt lat="42.2200583" lon="14.2136483"><ele>325.8</ele><time>2026-05-01T12:42:56.28Z</time></trkpt><trkpt lat="42.2199633" lon="14.2136133"><ele>324.6</ele><time>2026-05-01T12:42:58.28Z</time></trkpt><trkpt lat="42.2198967" lon="14.2135417"><ele>323.40000000000003</ele><time>2026-05-01T12:43:00.28Z</time></trkpt><trkpt lat="42.2198967" lon="14.2134"><ele>322.20000000000005</ele><time>2026-05-01T12:43:02.28Z</time></trkpt><trkpt lat="42.2199333" lon="14.2133067"><ele>321.0</ele><time>2026-05-01T12:43:03.28Z</time></trkpt><trkpt lat="42.219995" lon="14.2132033"><ele>321.3333333333333</ele><time>2026-05-01T12:43:04.28Z</time></trkpt><trkpt lat="42.22008" lon="14.2130767"><ele>321.66666666666663</ele><time>2026-05-01T12:43:05.28Z</time></trkpt><trkpt lat="42.2201967" lon="14.2129183"><ele>322.0</ele><time>2026-05-01T12:43:06.28Z</time></trkpt><trkpt lat="42.2203133" lon="14.2127683"><ele>322.0</ele><time>2026-05-01T12:43:07.28Z</time></trkpt><trkpt lat="42.2204333" lon="14.2126233"><ele>322.0</ele><time>2026-05-01T12:43:08.28Z</time></trkpt><trkpt lat="42.22056" lon="14.2124717"><ele>322.0</ele><time>2026-05-01T12:43:09.28Z</time></trkpt><trkpt lat="42.2206767" lon="14.2123333"><ele>321.5</ele><time>2026-05-01T12:43:10.28Z</time></trkpt><trkpt lat="42.2207733" lon="14.2121917"><ele>321.0</ele><time>2026-05-01T12:43:11.28Z</time></trkpt><trkpt lat="42.2208717" lon="14.2120617"><ele>320.5</ele><time>2026-05-01T12:43:12.28Z</time></trkpt><trkpt lat="42.2209783" lon="14.2119383"><ele>320.0</ele><time>2026-05-01T12:43:13.28Z</time></trkpt><trkpt lat="42.2210983" lon="14.2118267"><ele>320.0</ele><time>2026-05-01T12:43:14.281Z</time></trkpt><trkpt lat="42.221235" lon="14.2117267"><ele>320.0</ele><time>2026-05-01T12:43:15.281Z</time></trkpt><trkpt lat="42.22139" lon="14.2116267"><ele>320.0</ele><time>2026-05-01T12:43:16.28Z</time></trkpt><trkpt lat="42.2215317" lon="14.2115467"><ele>318.5</ele><time>2026-05-01T12:43:17.28Z</time></trkpt><trkpt lat="42.2216717" lon="14.2114683"><ele>317.0</ele><time>2026-05-01T12:43:18.28Z</time></trkpt><trkpt lat="42.2217983" lon="14.2113917"><ele>315.5</ele><time>2026-05-01T12:43:19.28Z</time></trkpt><trkpt lat="42.2219217" lon="14.21132"><ele>314.0</ele><time>2026-05-01T12:43:20.28Z</time></trkpt><trkpt lat="42.2220317" lon="14.211265"><ele>314.0</ele><time>2026-05-01T12:43:21.28Z</time></trkpt><trkpt lat="42.2221467" lon="14.21122"><ele>314.0</ele><time>2026-05-01T12:43:22.28Z</time></trkpt><trkpt lat="42.2222767" lon="14.21118"><ele>314.0</ele><time>2026-05-01T12:43:23.28Z</time></trkpt><trkpt lat="42.222405" lon="14.2111267"><ele>314.0</ele><time>2026-05-01T12:43:24.28Z</time></trkpt><trkpt lat="42.2225317" lon="14.2110583"><ele>313.0</ele><time>2026-05-01T12:43:25.281Z</time></trkpt><trkpt lat="42.222655" lon="14.21098"><ele>312.0</ele><time>2026-05-01T12:43:26.28Z</time></trkpt><trkpt lat="42.222765" lon="14.2109067"><ele>311.0</ele><time>2026-05-01T12:43:27.28Z</time></trkpt><trkpt lat="42.2228617" lon="14.2108317"><ele>310.0</ele><time>2026-05-01T12:43:28.28Z</time></trkpt><trkpt lat="42.2229433" lon="14.2107567"><ele>310.0</ele><time>2026-05-01T12:43:29.28Z</time></trkpt><trkpt lat="42.2230233" lon="14.21068"><ele>310.0</ele><time>2026-05-01T12:43:30.28Z</time></trkpt><trkpt lat="42.2230933" lon="14.210595"><ele>310.0</ele><time>2026-05-01T12:43:31.28Z</time></trkpt><trkpt lat="42.2231717" lon="14.210525"><ele>310.0</ele><time>2026-05-01T12:43:32.28Z</time></trkpt><trkpt lat="42.2232467" lon="14.2104417"><ele>310.0</ele><time>2026-05-01T12:43:33.281Z</time></trkpt><trkpt lat="42.22332" lon="14.2103533"><ele>309.8</ele><time>2026-05-01T12:43:34.28Z</time></trkpt><trkpt lat="42.2233917" lon="14.2102567"><ele>309.6</ele><time>2026-05-01T12:43:35.28Z</time></trkpt><trkpt lat="42.22346" lon="14.2101633"><ele>309.4</ele><time>2026-05-01T12:43:36.28Z</time></trkpt><trkpt lat="42.2235267" lon="14.2100767"><ele>309.2</ele><time>2026-05-01T12:43:37.28Z</time></trkpt><trkpt lat="42.2235967" lon="14.2100033"><ele>309.0</ele><time>2026-05-01T12:43:38.28Z</time></trkpt><trkpt lat="42.2236667" lon="14.2099383"><ele>309.0</ele><time>2026-05-01T12:43:39.28Z</time></trkpt><trkpt lat="42.2237467" lon="14.2098883"><ele>309.0</ele><time>2026-05-01T12:43:40.28Z</time></trkpt><trkpt lat="42.2238167" lon="14.2098633"><ele>309.0</ele><time>2026-05-01T12:43:41.28Z</time></trkpt><trkpt lat="42.2238917" lon="14.2098633"><ele>309.0</ele><time>2026-05-01T12:43:42.28Z</time></trkpt><trkpt lat="42.223975" lon="14.2098817"><ele>309.0</ele><time>2026-05-01T12:43:43.28Z</time></trkpt><trkpt lat="42.2240667" lon="14.2098983"><ele>309.0</ele><time>2026-05-01T12:43:44.28Z</time></trkpt><trkpt lat="42.2241583" lon="14.2099067"><ele>309.0</ele><time>2026-05-01T12:43:45.28Z</time></trkpt><trkpt lat="42.224245" lon="14.209895"><ele>309.0</ele><time>2026-05-01T12:43:46.28Z</time></trkpt><trkpt lat="42.224325" lon="14.2098583"><ele>309.0</ele><time>2026-05-01T12:43:47.281Z</time></trkpt><trkpt lat="42.22439" lon="14.2097933"><ele>309.0</ele><time>2026-05-01T12:43:48.28Z</time></trkpt><trkpt lat="42.22446" lon="14.209715"><ele>309.0</ele><time>2026-05-01T12:43:49.28Z</time></trkpt><trkpt lat="42.2245183" lon="14.209625"><ele>309.0</ele><time>2026-05-01T12:43:50.28Z</time></trkpt><trkpt lat="42.2245883" lon="14.20954"><ele>309.3333333333333</ele><time>2026-05-01T12:43:51.28Z</time></trkpt><trkpt lat="42.2246533" lon="14.2094567"><ele>309.6666666666667</ele><time>2026-05-01T12:43:52.28Z</time></trkpt><trkpt lat="42.2247083" lon="14.2093733"><ele>310.0</ele><time>2026-05-01T12:43:53.28Z</time></trkpt><trkpt lat="42.2247767" lon="14.2092967"><ele>310.33333333333337</ele><time>2026-05-01T12:43:54.28Z</time></trkpt><trkpt lat="42.2248533" lon="14.2092367"><ele>310.6666666666667</ele><time>2026-05-01T12:43:55.281Z</time></trkpt><trkpt lat="42.2249367" lon="14.20919"><ele>311.0</ele><time>2026-05-01T12:43:56.281Z</time></trkpt><trkpt lat="42.2250233" lon="14.209175"><ele>310.2</ele><time>2026-05-01T12:43:57.28Z</time></trkpt><trkpt lat="42.2251067" lon="14.2091583"><ele>309.40000000000003</ele><time>2026-05-01T12:43:58.28Z</time></trkpt><trkpt lat="42.2251933" lon="14.2091283"><ele>308.6</ele><time>2026-05-01T12:43:59.28Z</time></trkpt><trkpt lat="42.2252983" lon="14.209085"><ele>307.8</ele><time>2026-05-01T12:44:00.28Z</time></trkpt><trkpt lat="42.22539" lon="14.209045"><ele>307.0</ele><time>2026-05-01T12:44:01.28Z</time></trkpt><trkpt lat="42.2254967" lon="14.2089933"><ele>306.6</ele><time>2026-05-01T12:44:02.28Z</time></trkpt><trkpt lat="42.2256033" lon="14.2089433"><ele>306.2</ele><time>2026-05-01T12:44:03.28Z</time></trkpt><trkpt lat="42.2256967" lon="14.2088833"><ele>305.8</ele><time>2026-05-01T12:44:04.281Z</time></trkpt><trkpt lat="42.225795" lon="14.2088283"><ele>305.4</ele><time>2026-05-01T12:44:05.28Z</time></trkpt><trkpt lat="42.22589" lon="14.2088017"><ele>305.0</ele><time>2026-05-01T12:44:06.28Z</time></trkpt><trkpt lat="42.2259783" lon="14.20878"><ele>304.6666666666667</ele><time>2026-05-01T12:44:07.28Z</time></trkpt><trkpt lat="42.2260617" lon="14.2087533"><ele>304.33333333333337</ele><time>2026-05-01T12:44:08.28Z</time></trkpt><trkpt lat="42.2261267" lon="14.20871"><ele>304.0</ele><time>2026-05-01T12:44:09.28Z</time></trkpt><trkpt lat="42.2261767" lon="14.2086583"><ele>303.6666666666667</ele><time>2026-05-01T12:44:10.281Z</time></trkpt><trkpt lat="42.2262383" lon="14.20856"><ele>303.3333333333333</ele><time>2026-05-01T12:44:11.28Z</time></trkpt><trkpt lat="42.2262967" lon="14.208435"><ele>303.0</ele><time>2026-05-01T12:44:12.281Z</time></trkpt><trkpt lat="42.2263417" lon="14.2082883"><ele>302.6</ele><time>2026-05-01T12:44:13.28Z</time></trkpt><trkpt lat="42.2263983" lon="14.2081383"><ele>302.20000000000005</ele><time>2026-05-01T12:44:14.28Z</time></trkpt><trkpt lat="42.2264583" lon="14.2080133"><ele>301.8</ele><time>2026-05-01T12:44:15.28Z</time></trkpt><trkpt lat="42.2265033" lon="14.2078767"><ele>301.40000000000003</ele><time>2026-05-01T12:44:16.28Z</time></trkpt><trkpt lat="42.2265467" lon="14.2077567"><ele>301.0</ele><time>2026-05-01T12:44:17.28Z</time></trkpt><trkpt lat="42.2265983" lon="14.2076533"><ele>300.6</ele><time>2026-05-01T12:44:18.28Z</time></trkpt><trkpt lat="42.2266567" lon="14.2075667"><ele>300.20000000000005</ele><time>2026-05-01T12:44:19.28Z</time></trkpt><trkpt lat="42.2267367" lon="14.2074817"><ele>299.79999999999995</ele><time>2026-05-01T12:44:20.28Z</time></trkpt><trkpt lat="42.22684" lon="14.207395"><ele>299.4</ele><time>2026-05-01T12:44:21.281Z</time></trkpt><trkpt lat="42.2269467" lon="14.2073233"><ele>299.0</ele><time>2026-05-01T12:44:22.281Z</time></trkpt><trkpt lat="42.2270567" lon="14.2072467"><ele>298.8</ele><time>2026-05-01T12:44:23.28Z</time></trkpt><trkpt lat="42.227165" lon="14.2071817"><ele>298.59999999999997</ele><time>2026-05-01T12:44:24.28Z</time></trkpt><trkpt lat="42.2272633" lon="14.2071217"><ele>298.4</ele><time>2026-05-01T12:44:25.28Z</time></trkpt><trkpt lat="42.2273467" lon="14.2070733"><ele>298.2</ele><time>2026-05-01T12:44:26.28Z</time></trkpt><trkpt lat="42.2274283" lon="14.20702"><ele>298.0</ele><time>2026-05-01T12:44:27.28Z</time></trkpt><trkpt lat="42.2274967" lon="14.2069583"><ele>297.2</ele><time>2026-05-01T12:44:28.28Z</time></trkpt><trkpt lat="42.2275617" lon="14.2068783"><ele>296.4</ele><time>2026-05-01T12:44:29.28Z</time></trkpt><trkpt lat="42.2276167" lon="14.2067733"><ele>295.59999999999997</ele><time>2026-05-01T12:44:30.28Z</time></trkpt><trkpt lat="42.2276467" lon="14.206645"><ele>294.8</ele><time>2026-05-01T12:44:31.28Z</time></trkpt><trkpt lat="42.22767" lon="14.20651"><ele>294.0</ele><time>2026-05-01T12:44:32.28Z</time></trkpt><trkpt lat="42.227705" lon="14.206375"><ele>293.4</ele><time>2026-05-01T12:44:33.28Z</time></trkpt><trkpt lat="42.227745" lon="14.2062567"><ele>292.79999999999995</ele><time>2026-05-01T12:44:34.28Z</time></trkpt><trkpt lat="42.2277767" lon="14.2061467"><ele>292.20000000000005</ele><time>2026-05-01T12:44:35.281Z</time></trkpt><trkpt lat="42.2278133" lon="14.2060533"><ele>291.6</ele><time>2026-05-01T12:44:36.281Z</time></trkpt><trkpt lat="42.227835" lon="14.2059667"><ele>291.0</ele><time>2026-05-01T12:44:37.28Z</time></trkpt><trkpt lat="42.2278167" lon="14.2057917"><ele>291.0</ele><time>2026-05-01T12:44:39.28Z</time></trkpt><trkpt lat="42.2277883" lon="14.2056917"><ele>291.0</ele><time>2026-05-01T12:44:40.28Z</time></trkpt><trkpt lat="42.2277517" lon="14.2055967"><ele>291.0</ele><time>2026-05-01T12:44:41.28Z</time></trkpt><trkpt lat="42.2277217" lon="14.20551"><ele>291.0</ele><time>2026-05-01T12:44:42.28Z</time></trkpt><trkpt lat="42.2277083" lon="14.2054117"><ele>291.0</ele><time>2026-05-01T12:44:43.28Z</time></trkpt><trkpt lat="42.2277083" lon="14.2053"><ele>291.0</ele><time>2026-05-01T12:44:44.281Z</time></trkpt><trkpt lat="42.2277217" lon="14.2051983"><ele>290.8333333333333</ele><time>2026-05-01T12:44:45.28Z</time></trkpt><trkpt lat="42.22775" lon="14.2051083"><ele>290.6666666666667</ele><time>2026-05-01T12:44:46.28Z</time></trkpt><trkpt lat="42.2277967" lon="14.205035"><ele>290.5</ele><time>2026-05-01T12:44:47.281Z</time></trkpt><trkpt lat="42.2278617" lon="14.204975"><ele>290.33333333333337</ele><time>2026-05-01T12:44:48.28Z</time></trkpt><trkpt lat="42.2279483" lon="14.204935"><ele>290.1666666666667</ele><time>2026-05-01T12:44:49.281Z</time></trkpt><trkpt lat="42.228045" lon="14.2049"><ele>290.0</ele><time>2026-05-01T12:44:50.28Z</time></trkpt><trkpt lat="42.228135" lon="14.204855"><ele>290.0</ele><time>2026-05-01T12:44:51.28Z</time></trkpt><trkpt lat="42.2282167" lon="14.2047767"><ele>290.0</ele><time>2026-05-01T12:44:52.28Z</time></trkpt><trkpt lat="42.2282817" lon="14.2046917"><ele>290.0</ele><time>2026-05-01T12:44:53.28Z</time></trkpt><trkpt lat="42.228345" lon="14.2045783"><ele>290.0</ele><time>2026-05-01T12:44:54.28Z</time></trkpt><trkpt lat="42.2284" lon="14.2044517"><ele>290.0</ele><time>2026-05-01T12:44:55.28Z</time></trkpt><trkpt lat="42.22845" lon="14.20433"><ele>290.0</ele><time>2026-05-01T12:44:56.28Z</time></trkpt><trkpt lat="42.2284967" lon="14.20423"><ele>290.0</ele><time>2026-05-01T12:44:57.28Z</time></trkpt><trkpt lat="42.2285467" lon="14.2041483"><ele>290.0</ele><time>2026-05-01T12:44:58.28Z</time></trkpt><trkpt lat="42.2286133" lon="14.2040717"><ele>290.0</ele><time>2026-05-01T12:44:59.28Z</time></trkpt><trkpt lat="42.22869" lon="14.2040083"><ele>290.0</ele><time>2026-05-01T12:45:00.28Z</time></trkpt><trkpt lat="42.2287767" lon="14.203955"><ele>290.0</ele><time>2026-05-01T12:45:01.28Z</time></trkpt><trkpt lat="42.228865" lon="14.2039083"><ele>289.6</ele><time>2026-05-01T12:45:02.28Z</time></trkpt><trkpt lat="42.228955" lon="14.2038617"><ele>289.2</ele><time>2026-05-01T12:45:03.28Z</time></trkpt><trkpt lat="42.2290567" lon="14.2038"><ele>288.8</ele><time>2026-05-01T12:45:04.28Z</time></trkpt><trkpt lat="42.2291533" lon="14.2037383"><ele>288.4</ele><time>2026-05-01T12:45:05.28Z</time></trkpt><trkpt lat="42.22926" lon="14.2036717"><ele>288.0</ele><time>2026-05-01T12:45:06.28Z</time></trkpt><trkpt lat="42.2293483" lon="14.2035967"><ele>288.0</ele><time>2026-05-01T12:45:07.28Z</time></trkpt><trkpt lat="42.229425" lon="14.2035217"><ele>288.0</ele><time>2026-05-01T12:45:08.28Z</time></trkpt><trkpt lat="42.2294867" lon="14.2034567"><ele>288.0</ele><time>2026-05-01T12:45:09.28Z</time></trkpt><trkpt lat="42.2295333" lon="14.2033733"><ele>288.0</ele><time>2026-05-01T12:45:10.28Z</time></trkpt><trkpt lat="42.229565" lon="14.2032867"><ele>288.0</ele><time>2026-05-01T12:45:11.281Z</time></trkpt><trkpt lat="42.2295867" lon="14.2031833"><ele>288.0</ele><time>2026-05-01T12:45:12.28Z</time></trkpt><trkpt lat="42.2296067" lon="14.20305"><ele>287.2</ele><time>2026-05-01T12:45:13.28Z</time></trkpt><trkpt lat="42.22962" lon="14.2029217"><ele>286.4</ele><time>2026-05-01T12:45:14.28Z</time></trkpt><trkpt lat="42.22962" lon="14.2027967"><ele>285.59999999999997</ele><time>2026-05-01T12:45:15.28Z</time></trkpt><trkpt lat="42.229625" lon="14.2026767"><ele>284.8</ele><time>2026-05-01T12:45:16.28Z</time></trkpt><trkpt lat="42.2296467" lon="14.2025583"><ele>284.0</ele><time>2026-05-01T12:45:17.28Z</time></trkpt><trkpt lat="42.2296867" lon="14.2024333"><ele>283.8</ele><time>2026-05-01T12:45:18.28Z</time></trkpt><trkpt lat="42.22974" lon="14.2023083"><ele>283.59999999999997</ele><time>2026-05-01T12:45:19.28Z</time></trkpt><trkpt lat="42.2298067" lon="14.20219"><ele>283.4</ele><time>2026-05-01T12:45:20.28Z</time></trkpt><trkpt lat="42.2298733" lon="14.2020933"><ele>283.2</ele><time>2026-05-01T12:45:21.28Z</time></trkpt><trkpt lat="42.22994" lon="14.2020017"><ele>283.0</ele><time>2026-05-01T12:45:22.28Z</time></trkpt><trkpt lat="42.2300133" lon="14.2019167"><ele>283.0</ele><time>2026-05-01T12:45:23.28Z</time></trkpt><trkpt lat="42.2301" lon="14.2018367"><ele>283.0</ele><time>2026-05-01T12:45:24.28Z</time></trkpt><trkpt lat="42.230205" lon="14.20176"><ele>283.0</ele><time>2026-05-01T12:45:25.28Z</time></trkpt><trkpt lat="42.2303117" lon="14.20168"><ele>283.0</ele><time>2026-05-01T12:45:26.28Z</time></trkpt><trkpt lat="42.2304183" lon="14.2016083"><ele>283.0</ele><time>2026-05-01T12:45:27.28Z</time></trkpt><trkpt lat="42.2305283" lon="14.2015167"><ele>283.0</ele><time>2026-05-01T12:45:28.28Z</time></trkpt><trkpt lat="42.2306333" lon="14.201405"><ele>283.0</ele><time>2026-05-01T12:45:29.28Z</time></trkpt><trkpt lat="42.23073" lon="14.2012683"><ele>283.0</ele><time>2026-05-01T12:45:30.28Z</time></trkpt><trkpt lat="42.2308133" lon="14.201125"><ele>282.8</ele><time>2026-05-01T12:45:31.28Z</time></trkpt><trkpt lat="42.2308733" lon="14.200995"><ele>282.6</ele><time>2026-05-01T12:45:32.28Z</time></trkpt><trkpt lat="42.2309267" lon="14.2008683"><ele>282.4</ele><time>2026-05-01T12:45:33.28Z</time></trkpt><trkpt lat="42.2309867" lon="14.2007567"><ele>282.2</ele><time>2026-05-01T12:45:34.281Z</time></trkpt><trkpt lat="42.2310717" lon="14.2006433"><ele>282.0</ele><time>2026-05-01T12:45:35.28Z</time></trkpt><trkpt lat="42.2311717" lon="14.200525"><ele>281.0</ele><time>2026-05-01T12:45:36.28Z</time></trkpt><trkpt lat="42.23128" lon="14.2003833"><ele>280.0</ele><time>2026-05-01T12:45:37.28Z</time></trkpt><trkpt lat="42.231395" lon="14.20023"><ele>279.0</ele><time>2026-05-01T12:45:38.28Z</time></trkpt><trkpt lat="42.231505" lon="14.2000833"><ele>279.0</ele><time>2026-05-01T12:45:39.28Z</time></trkpt><trkpt lat="42.2316067" lon="14.1999517"><ele>279.0</ele><time>2026-05-01T12:45:40.28Z</time></trkpt><trkpt lat="42.2316917" lon="14.1998317"><ele>279.0</ele><time>2026-05-01T12:45:41.28Z</time></trkpt><trkpt lat="42.2317733" lon="14.1997317"><ele>279.0</ele><time>2026-05-01T12:45:42.28Z</time></trkpt><trkpt lat="42.23184" lon="14.1996617"><ele>278.4</ele><time>2026-05-01T12:45:43.28Z</time></trkpt><trkpt lat="42.2318883" lon="14.1996067"><ele>277.79999999999995</ele><time>2026-05-01T12:45:44.28Z</time></trkpt><trkpt lat="42.231975" lon="14.1994667"><ele>277.20000000000005</ele><time>2026-05-01T12:45:46.28Z</time></trkpt><trkpt lat="42.2320283" lon="14.199355"><ele>276.6</ele><time>2026-05-01T12:45:47.28Z</time></trkpt><trkpt lat="42.2320917" lon="14.1992283"><ele>276.0</ele><time>2026-05-01T12:45:48.28Z</time></trkpt><trkpt lat="42.23217" lon="14.1990983"><ele>275.0</ele><time>2026-05-01T12:45:49.28Z</time></trkpt><trkpt lat="42.2322533" lon="14.1989733"><ele>274.0</ele><time>2026-05-01T12:45:50.28Z</time></trkpt><trkpt lat="42.2323267" lon="14.19886"><ele>273.0</ele><time>2026-05-01T12:45:51.28Z</time></trkpt><trkpt lat="42.232405" lon="14.198735"><ele>272.0</ele><time>2026-05-01T12:45:52.28Z</time></trkpt><trkpt lat="42.23249" lon="14.198605"><ele>272.0</ele><time>2026-05-01T12:45:53.28Z</time></trkpt><trkpt lat="42.232565" lon="14.1984867"><ele>272.0</ele><time>2026-05-01T12:45:54.28Z</time></trkpt><trkpt lat="42.2326417" lon="14.1983717"><ele>272.0</ele><time>2026-05-01T12:45:55.28Z</time></trkpt><trkpt lat="42.23272" lon="14.1982583"><ele>272.0</ele><time>2026-05-01T12:45:56.28Z</time></trkpt><trkpt lat="42.2327933" lon="14.1981817"><ele>272.0</ele><time>2026-05-01T12:45:57.281Z</time></trkpt><trkpt lat="42.2328433" lon="14.1980717"><ele>271.1666666666667</ele><time>2026-05-01T12:45:58.281Z</time></trkpt><trkpt lat="42.2328733" lon="14.197985"><ele>270.33333333333337</ele><time>2026-05-01T12:45:59.28Z</time></trkpt><trkpt lat="42.2329067" lon="14.1978883"><ele>269.5</ele><time>2026-05-01T12:46:01.28Z</time></trkpt><trkpt lat="42.232935" lon="14.1977783"><ele>268.6666666666667</ele><time>2026-05-01T12:46:19.28Z</time></trkpt><trkpt lat="42.2330183" lon="14.19778"><ele>267.8333333333333</ele><time>2026-05-01T12:46:21.28Z</time></trkpt><trkpt lat="42.2331117" lon="14.1977733"><ele>267.0</ele><time>2026-05-01T12:46:23.28Z</time></trkpt><trkpt lat="42.23321" lon="14.197735"><ele>267.0</ele><time>2026-05-01T12:46:25.28Z</time></trkpt><trkpt lat="42.2332983" lon="14.1976683"><ele>267.0</ele><time>2026-05-01T12:46:27.28Z</time></trkpt><trkpt lat="42.2333983" lon="14.1975783"><ele>267.0</ele><time>2026-05-01T12:46:29.281Z</time></trkpt><trkpt lat="42.233465" lon="14.1975333"><ele>267.0</ele><time>2026-05-01T12:46:30.28Z</time></trkpt><trkpt lat="42.2335233" lon="14.1974867"><ele>267.0</ele><time>2026-05-01T12:46:31.28Z</time></trkpt><trkpt lat="42.233585" lon="14.1974433"><ele>267.0</ele><time>2026-05-01T12:46:32.28Z</time></trkpt><trkpt lat="42.23363" lon="14.1973817"><ele>267.0</ele><time>2026-05-01T12:46:33.28Z</time></trkpt><trkpt lat="42.23369" lon="14.1972483"><ele>267.0</ele><time>2026-05-01T12:46:35.28Z</time></trkpt><trkpt lat="42.2337433" lon="14.1970933"><ele>267.0</ele><time>2026-05-01T12:46:37.28Z</time></trkpt><trkpt lat="42.2337783" lon="14.1970033"><ele>267.0</ele><time>2026-05-01T12:46:38.281Z</time></trkpt><trkpt lat="42.2338133" lon="14.1969117"><ele>267.0</ele><time>2026-05-01T12:46:39.281Z</time></trkpt><trkpt lat="42.233855" lon="14.1968333"><ele>267.0</ele><time>2026-05-01T12:46:40.281Z</time></trkpt><trkpt lat="42.2339033" lon="14.1967483"><ele>267.0</ele><time>2026-05-01T12:46:41.28Z</time></trkpt><trkpt lat="42.2339367" lon="14.196655"><ele>267.0</ele><time>2026-05-01T12:46:42.28Z</time></trkpt><trkpt lat="42.2339683" lon="14.1965567"><ele>267.0</ele><time>2026-05-01T12:46:43.28Z</time></trkpt><trkpt lat="42.2339967" lon="14.1964483"><ele>267.0</ele><time>2026-05-01T12:46:44.28Z</time></trkpt><trkpt lat="42.2340317" lon="14.1963283"><ele>267.0</ele><time>2026-05-01T12:46:45.28Z</time></trkpt><trkpt lat="42.23408" lon="14.1962067"><ele>266.8</ele><time>2026-05-01T12:46:46.28Z</time></trkpt><trkpt lat="42.2341417" lon="14.1961"><ele>266.6</ele><time>2026-05-01T12:46:47.28Z</time></trkpt><trkpt lat="42.234195" lon="14.19598"><ele>266.40000000000003</ele><time>2026-05-01T12:46:48.28Z</time></trkpt><trkpt lat="42.2342583" lon="14.1958733"><ele>266.2</ele><time>2026-05-01T12:46:49.281Z</time></trkpt><trkpt lat="42.2343167" lon="14.1957733"><ele>266.0</ele><time>2026-05-01T12:46:50.281Z</time></trkpt><trkpt lat="42.234375" lon="14.195685"><ele>266.6</ele><time>2026-05-01T12:46:51.28Z</time></trkpt><trkpt lat="42.2344417" lon="14.195595"><ele>267.20000000000005</ele><time>2026-05-01T12:46:52.28Z</time></trkpt><trkpt lat="42.2345233" lon="14.1954967"><ele>267.79999999999995</ele><time>2026-05-01T12:46:53.28Z</time></trkpt><trkpt lat="42.2346133" lon="14.1953933"><ele>268.4</ele><time>2026-05-01T12:46:54.281Z</time></trkpt><trkpt lat="42.2346867" lon="14.1952933"><ele>269.0</ele><time>2026-05-01T12:46:55.28Z</time></trkpt><trkpt lat="42.2347683" lon="14.1952117"><ele>268.4</ele><time>2026-05-01T12:46:56.28Z</time></trkpt><trkpt lat="42.234845" lon="14.195135"><ele>267.79999999999995</ele><time>2026-05-01T12:46:57.28Z</time></trkpt><trkpt lat="42.2349267" lon="14.1950517"><ele>267.20000000000005</ele><time>2026-05-01T12:46:58.28Z</time></trkpt><trkpt lat="42.2350133" lon="14.1949533"><ele>266.6</ele><time>2026-05-01T12:46:59.28Z</time></trkpt><trkpt lat="42.2351083" lon="14.1948467"><ele>266.0</ele><time>2026-05-01T12:47:00.28Z</time></trkpt><trkpt lat="42.2352017" lon="14.1947467"><ele>265.8</ele><time>2026-05-01T12:47:01.28Z</time></trkpt><trkpt lat="42.235295" lon="14.1946583"><ele>265.6</ele><time>2026-05-01T12:47:02.28Z</time></trkpt><trkpt lat="42.235375" lon="14.19458"><ele>265.4</ele><time>2026-05-01T12:47:03.28Z</time></trkpt><trkpt lat="42.2354467" lon="14.19451"><ele>265.2</ele><time>2026-05-01T12:47:04.281Z</time></trkpt><trkpt lat="42.2355183" lon="14.1944483"><ele>265.0</ele><time>2026-05-01T12:47:05.28Z</time></trkpt><trkpt lat="42.23559" lon="14.1943983"><ele>265.0</ele><time>2026-05-01T12:47:06.28Z</time></trkpt><trkpt lat="42.235665" lon="14.1943433"><ele>265.0</ele><time>2026-05-01T12:47:07.28Z</time></trkpt><trkpt lat="42.23574" lon="14.1943067"><ele>265.0</ele><time>2026-05-01T12:47:08.28Z</time></trkpt><trkpt lat="42.23581" lon="14.1942767"><ele>265.0</ele><time>2026-05-01T12:47:09.28Z</time></trkpt><trkpt lat="42.23593" lon="14.194205"><ele>265.0</ele><time>2026-05-01T12:47:11.28Z</time></trkpt><trkpt lat="42.2359817" lon="14.1941183"><ele>265.0</ele><time>2026-05-01T12:47:12.28Z</time></trkpt><trkpt lat="42.2360333" lon="14.1940333"><ele>265.0</ele><time>2026-05-01T12:47:13.28Z</time></trkpt><trkpt lat="42.2360783" lon="14.193925"><ele>265.0</ele><time>2026-05-01T12:47:14.28Z</time></trkpt><trkpt lat="42.23612" lon="14.1938117"><ele>265.0</ele><time>2026-05-01T12:47:15.28Z</time></trkpt><trkpt lat="42.2361633" lon="14.1936867"><ele>265.0</ele><time>2026-05-01T12:47:16.28Z</time></trkpt><trkpt lat="42.2362" lon="14.1935667"><ele>264.5</ele><time>2026-05-01T12:47:17.28Z</time></trkpt><trkpt lat="42.2362433" lon="14.19345"><ele>264.0</ele><time>2026-05-01T12:47:18.28Z</time></trkpt><trkpt lat="42.2362717" lon="14.19334"><ele>263.5</ele><time>2026-05-01T12:47:19.28Z</time></trkpt><trkpt lat="42.2362983" lon="14.1932367"><ele>263.0</ele><time>2026-05-01T12:47:20.28Z</time></trkpt><trkpt lat="42.2363233" lon="14.1931383"><ele>262.5</ele><time>2026-05-01T12:47:21.28Z</time></trkpt><trkpt lat="42.2363483" lon="14.19304"><ele>262.0</ele><time>2026-05-01T12:47:22.28Z</time></trkpt><trkpt lat="42.236375" lon="14.19293"><ele>262.2</ele><time>2026-05-01T12:47:23.28Z</time></trkpt><trkpt lat="42.2364083" lon="14.1928083"><ele>262.4</ele><time>2026-05-01T12:47:24.28Z</time></trkpt><trkpt lat="42.2364367" lon="14.1926967"><ele>262.6</ele><time>2026-05-01T12:47:25.281Z</time></trkpt><trkpt lat="42.2364667" lon="14.192575"><ele>262.8</ele><time>2026-05-01T12:47:26.28Z</time></trkpt><trkpt lat="42.2365033" lon="14.1924483"><ele>263.0</ele><time>2026-05-01T12:47:27.28Z</time></trkpt><trkpt lat="42.2365433" lon="14.19232"><ele>261.8</ele><time>2026-05-01T12:47:28.28Z</time></trkpt><trkpt lat="42.2365867" lon="14.19219"><ele>260.6</ele><time>2026-05-01T12:47:29.28Z</time></trkpt><trkpt lat="42.2366283" lon="14.192045"><ele>259.4</ele><time>2026-05-01T12:47:30.28Z</time></trkpt><trkpt lat="42.2366733" lon="14.1919017"><ele>258.2</ele><time>2026-05-01T12:47:31.28Z</time></trkpt><trkpt lat="42.2367267" lon="14.1917667"><ele>257.0</ele><time>2026-05-01T12:47:32.28Z</time></trkpt><trkpt lat="42.2367883" lon="14.1916367"><ele>257.0</ele><time>2026-05-01T12:47:33.28Z</time></trkpt><trkpt lat="42.2368583" lon="14.1915283"><ele>257.0</ele><time>2026-05-01T12:47:34.28Z</time></trkpt><trkpt lat="42.2369333" lon="14.19142"><ele>257.0</ele><time>2026-05-01T12:47:35.28Z</time></trkpt><trkpt lat="42.2370083" lon="14.191325"><ele>257.0</ele><time>2026-05-01T12:47:36.28Z</time></trkpt><trkpt lat="42.2370683" lon="14.191235"><ele>257.0</ele><time>2026-05-01T12:47:37.281Z</time></trkpt><trkpt lat="42.2371167" lon="14.1911333"><ele>256.2</ele><time>2026-05-01T12:47:38.28Z</time></trkpt><trkpt lat="42.2371567" lon="14.1910133"><ele>255.39999999999998</ele><time>2026-05-01T12:47:39.28Z</time></trkpt><trkpt lat="42.237195" lon="14.190885"><ele>254.60000000000002</ele><time>2026-05-01T12:47:40.28Z</time></trkpt><trkpt lat="42.2372383" lon="14.1907633"><ele>253.8</ele><time>2026-05-01T12:47:41.28Z</time></trkpt><trkpt lat="42.2372867" lon="14.1906433"><ele>253.0</ele><time>2026-05-01T12:47:42.281Z</time></trkpt><trkpt lat="42.2373283" lon="14.19053"><ele>253.0</ele><time>2026-05-01T12:47:43.28Z</time></trkpt><trkpt lat="42.2373817" lon="14.1904217"><ele>253.0</ele><time>2026-05-01T12:47:44.28Z</time></trkpt><trkpt lat="42.2374583" lon="14.1903267"><ele>253.0</ele><time>2026-05-01T12:47:45.28Z</time></trkpt><trkpt lat="42.2375467" lon="14.1902367"><ele>253.0</ele><time>2026-05-01T12:47:46.28Z</time></trkpt><trkpt lat="42.2376383" lon="14.1901417"><ele>253.0</ele><time>2026-05-01T12:47:47.28Z</time></trkpt><trkpt lat="42.23772" lon="14.190025"><ele>253.0</ele><time>2026-05-01T12:47:48.28Z</time></trkpt><trkpt lat="42.2377883" lon="14.1898983"><ele>253.0</ele><time>2026-05-01T12:47:49.28Z</time></trkpt><trkpt lat="42.237845" lon="14.1897717"><ele>253.0</ele><time>2026-05-01T12:47:50.28Z</time></trkpt><trkpt lat="42.237885" lon="14.1896383"><ele>253.0</ele><time>2026-05-01T12:47:51.28Z</time></trkpt><trkpt lat="42.2379133" lon="14.1895"><ele>253.0</ele><time>2026-05-01T12:47:52.28Z</time></trkpt><trkpt lat="42.2379383" lon="14.18935"><ele>252.0</ele><time>2026-05-01T12:47:53.28Z</time></trkpt><trkpt lat="42.2379533" lon="14.1892067"><ele>251.0</ele><time>2026-05-01T12:47:54.28Z</time></trkpt><trkpt lat="42.2379633" lon="14.1890633"><ele>250.0</ele><time>2026-05-01T12:47:55.281Z</time></trkpt><trkpt lat="42.23796" lon="14.1889233"><ele>249.0</ele><time>2026-05-01T12:47:56.28Z</time></trkpt><trkpt lat="42.237955" lon="14.1887967"><ele>248.0</ele><time>2026-05-01T12:47:57.28Z</time></trkpt><trkpt lat="42.2379567" lon="14.1886633"><ele>247.4</ele><time>2026-05-01T12:47:58.28Z</time></trkpt><trkpt lat="42.2379717" lon="14.1885233"><ele>246.8</ele><time>2026-05-01T12:47:59.28Z</time></trkpt><trkpt lat="42.2380183" lon="14.18839"><ele>246.2</ele><time>2026-05-01T12:48:00.28Z</time></trkpt><trkpt lat="42.2380833" lon="14.1882733"><ele>245.6</ele><time>2026-05-01T12:48:01.28Z</time></trkpt><trkpt lat="42.2381683" lon="14.188175"><ele>245.0</ele><time>2026-05-01T12:48:02.28Z</time></trkpt><trkpt lat="42.23824" lon="14.18809"><ele>244.71428571428572</ele><time>2026-05-01T12:48:03.28Z</time></trkpt><trkpt lat="42.2383017" lon="14.1880083"><ele>244.42857142857144</ele><time>2026-05-01T12:48:04.281Z</time></trkpt><trkpt lat="42.238345" lon="14.1879233"><ele>244.14285714285714</ele><time>2026-05-01T12:48:05.28Z</time></trkpt><trkpt lat="42.2383617" lon="14.1878383"><ele>243.85714285714286</ele><time>2026-05-01T12:48:06.28Z</time></trkpt><trkpt lat="42.238365" lon="14.18775"><ele>243.57142857142858</ele><time>2026-05-01T12:48:07.28Z</time></trkpt><trkpt lat="42.2383717" lon="14.1876533"><ele>243.28571428571428</ele><time>2026-05-01T12:48:08.28Z</time></trkpt><trkpt lat="42.2383767" lon="14.1875583"><ele>243.0</ele><time>2026-05-01T12:48:09.28Z</time></trkpt><trkpt lat="42.23842" lon="14.1874067"><ele>243.0</ele><time>2026-05-01T12:48:11.28Z</time></trkpt><trkpt lat="42.23848" lon="14.18735"><ele>243.0</ele><time>2026-05-01T12:48:12.28Z</time></trkpt><trkpt lat="42.23856" lon="14.1872983"><ele>243.0</ele><time>2026-05-01T12:48:13.28Z</time></trkpt><trkpt lat="42.2386617" lon="14.1872633"><ele>243.0</ele><time>2026-05-01T12:48:14.28Z</time></trkpt><trkpt lat="42.2387683" lon="14.1872383"><ele>243.0</ele><time>2026-05-01T12:48:15.28Z</time></trkpt><trkpt lat="42.2388567" lon="14.1872117"><ele>243.8</ele><time>2026-05-01T12:48:16.28Z</time></trkpt><trkpt lat="42.2389333" lon="14.1871633"><ele>244.60000000000002</ele><time>2026-05-01T12:48:17.28Z</time></trkpt><trkpt lat="42.2390033" lon="14.1870767"><ele>245.39999999999998</ele><time>2026-05-01T12:48:18.28Z</time></trkpt><trkpt lat="42.2390733" lon="14.18698"><ele>246.2</ele><time>2026-05-01T12:48:19.28Z</time></trkpt><trkpt lat="42.23914" lon="14.18681"><ele>247.0</ele><time>2026-05-01T12:48:20.28Z</time></trkpt><trkpt lat="42.2392067" lon="14.1866333"><ele>248.33333333333331</ele><time>2026-05-01T12:48:21.28Z</time></trkpt><trkpt lat="42.2392633" lon="14.1864967"><ele>249.66666666666666</ele><time>2026-05-01T12:48:22.28Z</time></trkpt><trkpt lat="42.2393083" lon="14.1864"><ele>251.0</ele><time>2026-05-01T12:48:23.28Z</time></trkpt><trkpt lat="42.2393517" lon="14.186325"><ele>252.33333333333331</ele><time>2026-05-01T12:48:24.28Z</time></trkpt><trkpt lat="42.239405" lon="14.1862583"><ele>253.66666666666666</ele><time>2026-05-01T12:48:25.28Z</time></trkpt><trkpt lat="42.2394583" lon="14.1861817"><ele>255.0</ele><time>2026-05-01T12:48:26.28Z</time></trkpt><trkpt lat="42.23951" lon="14.1861233"><ele>255.0</ele><time>2026-05-01T12:48:27.28Z</time></trkpt><trkpt lat="42.2395833" lon="14.1860633"><ele>255.0</ele><time>2026-05-01T12:48:28.28Z</time></trkpt><trkpt lat="42.239655" lon="14.1859717"><ele>255.0</ele><time>2026-05-01T12:48:29.28Z</time></trkpt><trkpt lat="42.2397183" lon="14.1858733"><ele>255.0</ele><time>2026-05-01T12:48:30.28Z</time></trkpt><trkpt lat="42.2397817" lon="14.1857583"><ele>255.0</ele><time>2026-05-01T12:48:31.28Z</time></trkpt><trkpt lat="42.2398417" lon="14.1856367"><ele>254.6</ele><time>2026-05-01T12:48:32.28Z</time></trkpt><trkpt lat="42.2398933" lon="14.1855367"><ele>254.2</ele><time>2026-05-01T12:48:33.28Z</time></trkpt><trkpt lat="42.2399417" lon="14.1854417"><ele>253.8</ele><time>2026-05-01T12:48:34.28Z</time></trkpt><trkpt lat="42.23999" lon="14.185345"><ele>253.4</ele><time>2026-05-01T12:48:35.28Z</time></trkpt><trkpt lat="42.2400567" lon="14.185245"><ele>253.0</ele><time>2026-05-01T12:48:36.28Z</time></trkpt><trkpt lat="42.2401333" lon="14.1851483"><ele>253.0</ele><time>2026-05-01T12:48:37.28Z</time></trkpt><trkpt lat="42.2402183" lon="14.1850517"><ele>253.0</ele><time>2026-05-01T12:48:38.28Z</time></trkpt><trkpt lat="42.2403017" lon="14.1849717"><ele>253.0</ele><time>2026-05-01T12:48:39.28Z</time></trkpt><trkpt lat="42.2403733" lon="14.1849"><ele>253.0</ele><time>2026-05-01T12:48:40.28Z</time></trkpt><trkpt lat="42.24043" lon="14.18484"><ele>253.0</ele><time>2026-05-01T12:48:41.28Z</time></trkpt><trkpt lat="42.2404967" lon="14.1847583"><ele>252.99999999999997</ele><time>2026-05-01T12:48:43.28Z</time></trkpt><trkpt lat="42.2405567" lon="14.18469"><ele>253.0</ele><time>2026-05-01T12:48:47.28Z</time></trkpt><trkpt lat="42.24064" lon="14.184705"><ele>253.0</ele><time>2026-05-01T12:48:51.28Z</time></trkpt><trkpt lat="42.240725" lon="14.1847733"><ele>253.0</ele><time>2026-05-01T12:48:53.28Z</time></trkpt><trkpt lat="42.240785" lon="14.184815"><ele>252.99999999999997</ele><time>2026-05-01T12:48:54.28Z</time></trkpt><trkpt lat="42.2408583" lon="14.184865"><ele>253.0</ele><time>2026-05-01T12:48:55.279Z</time></trkpt><trkpt lat="42.2409433" lon="14.1849217"><ele>252.2</ele><time>2026-05-01T12:48:56.28Z</time></trkpt><trkpt lat="42.2410467" lon="14.1849833"><ele>251.4</ele><time>2026-05-01T12:48:57.28Z</time></trkpt><trkpt lat="42.2411467" lon="14.1850383"><ele>250.59999999999997</ele><time>2026-05-01T12:48:58.28Z</time></trkpt><trkpt lat="42.2412417" lon="14.1850933"><ele>249.79999999999998</ele><time>2026-05-01T12:48:59.28Z</time></trkpt><trkpt lat="42.2413283" lon="14.185145"><ele>249.0</ele><time>2026-05-01T12:49:00.28Z</time></trkpt><trkpt lat="42.2414067" lon="14.18518"><ele>248.39999999999998</ele><time>2026-05-01T12:49:01.28Z</time></trkpt><trkpt lat="42.2414867" lon="14.1851833"><ele>247.79999999999998</ele><time>2026-05-01T12:49:02.28Z</time></trkpt><trkpt lat="42.2415683" lon="14.185155"><ele>247.20000000000002</ele><time>2026-05-01T12:49:03.28Z</time></trkpt><trkpt lat="42.24165" lon="14.18509"><ele>246.60000000000002</ele><time>2026-05-01T12:49:04.28Z</time></trkpt><trkpt lat="42.2417317" lon="14.1850217"><ele>246.0</ele><time>2026-05-01T12:49:05.28Z</time></trkpt><trkpt lat="42.2418233" lon="14.184915"><ele>246.0</ele><time>2026-05-01T12:49:06.28Z</time></trkpt><trkpt lat="42.24189" lon="14.1848"><ele>246.00000000000003</ele><time>2026-05-01T12:49:07.28Z</time></trkpt><trkpt lat="42.2419533" lon="14.1846817"><ele>246.00000000000003</ele><time>2026-05-01T12:49:08.281Z</time></trkpt><trkpt lat="42.2420067" lon="14.1845517"><ele>246.0</ele><time>2026-05-01T12:49:09.28Z</time></trkpt><trkpt lat="42.24203" lon="14.1844167"><ele>246.0</ele><time>2026-05-01T12:49:10.28Z</time></trkpt><trkpt lat="42.2420367" lon="14.1842933"><ele>246.0</ele><time>2026-05-01T12:49:11.28Z</time></trkpt><trkpt lat="42.2420383" lon="14.18418"><ele>246.0</ele><time>2026-05-01T12:49:12.281Z</time></trkpt><trkpt lat="42.2420383" lon="14.18407"><ele>246.0</ele><time>2026-05-01T12:49:13.28Z</time></trkpt><trkpt lat="42.2420567" lon="14.1839617"><ele>246.0</ele><time>2026-05-01T12:49:14.28Z</time></trkpt><trkpt lat="42.2420917" lon="14.183865"><ele>246.0</ele><time>2026-05-01T12:49:15.28Z</time></trkpt><trkpt lat="42.2421433" lon="14.183775"><ele>246.0</ele><time>2026-05-01T12:49:16.281Z</time></trkpt><trkpt lat="42.2421917" lon="14.1836783"><ele>246.0</ele><time>2026-05-01T12:49:17.281Z</time></trkpt><trkpt lat="42.2422367" lon="14.18357"><ele>246.00000000000003</ele><time>2026-05-01T12:49:18.28Z</time></trkpt><trkpt lat="42.2423017" lon="14.1834717"><ele>246.00000000000003</ele><time>2026-05-01T12:49:19.28Z</time></trkpt><trkpt lat="42.2423867" lon="14.1833917"><ele>246.0</ele><time>2026-05-01T12:49:20.281Z</time></trkpt><trkpt lat="42.2424833" lon="14.1833517"><ele>246.0</ele><time>2026-05-01T12:49:21.28Z</time></trkpt><trkpt lat="42.2425817" lon="14.1833367"><ele>246.20000000000002</ele><time>2026-05-01T12:49:22.28Z</time></trkpt><trkpt lat="42.242675" lon="14.1833333"><ele>246.40000000000003</ele><time>2026-05-01T12:49:23.281Z</time></trkpt><trkpt lat="42.2427733" lon="14.1833433"><ele>246.6</ele><time>2026-05-01T12:49:24.28Z</time></trkpt><trkpt lat="42.2428717" lon="14.1833617"><ele>246.8</ele><time>2026-05-01T12:49:25.28Z</time></trkpt><trkpt lat="42.2429717" lon="14.18339"><ele>247.0</ele><time>2026-05-01T12:49:26.28Z</time></trkpt><trkpt lat="42.2430617" lon="14.18342"><ele>246.99999999999997</ele><time>2026-05-01T12:49:27.28Z</time></trkpt><trkpt lat="42.24313" lon="14.1834383"><ele>247.0</ele><time>2026-05-01T12:49:28.28Z</time></trkpt><trkpt lat="42.2432317" lon="14.1834433"><ele>247.0</ele><time>2026-05-01T12:49:30.281Z</time></trkpt><trkpt lat="42.24331" lon="14.1833783"><ele>247.0</ele><time>2026-05-01T12:49:32.28Z</time></trkpt><trkpt lat="42.243365" lon="14.18329"><ele>246.99999999999997</ele><time>2026-05-01T12:49:34.28Z</time></trkpt><trkpt lat="42.2433517" lon="14.1832017"><ele>247.0</ele><time>2026-05-01T12:49:37.28Z</time></trkpt><trkpt lat="42.243255" lon="14.1831167"><ele>247.0</ele><time>2026-05-01T12:49:39.28Z</time></trkpt><trkpt lat="42.2431733" lon="14.1830717"><ele>247.0</ele><time>2026-05-01T12:49:40.28Z</time></trkpt><trkpt lat="42.2430867" lon="14.18303"><ele>247.0</ele><time>2026-05-01T12:49:41.28Z</time></trkpt><trkpt lat="42.2429883" lon="14.182985"><ele>247.0</ele><time>2026-05-01T12:49:42.281Z</time></trkpt><trkpt lat="42.2428817" lon="14.18294"><ele>247.0</ele><time>2026-05-01T12:49:43.28Z</time></trkpt><trkpt lat="42.2427817" lon="14.1828933"><ele>247.33333333333331</ele><time>2026-05-01T12:49:44.28Z</time></trkpt><trkpt lat="42.24269" lon="14.1828383"><ele>247.66666666666666</ele><time>2026-05-01T12:49:45.28Z</time></trkpt><trkpt lat="42.2426133" lon="14.1827833"><ele>248.0</ele><time>2026-05-01T12:49:46.28Z</time></trkpt><trkpt lat="42.242545" lon="14.1827133"><ele>248.33333333333331</ele><time>2026-05-01T12:49:47.28Z</time></trkpt><trkpt lat="42.24249" lon="14.18264"><ele>248.66666666666666</ele><time>2026-05-01T12:49:48.28Z</time></trkpt><trkpt lat="42.242435" lon="14.1825733"><ele>249.0</ele><time>2026-05-01T12:49:49.28Z</time></trkpt><trkpt lat="42.2423633" lon="14.1824717"><ele>249.0</ele><time>2026-05-01T12:49:51.28Z</time></trkpt><trkpt lat="42.2423667" lon="14.1823817"><ele>249.0</ele><time>2026-05-01T12:49:53.28Z</time></trkpt><trkpt lat="42.24246" lon="14.1822983"><ele>249.0</ele><time>2026-05-01T12:49:55.28Z</time></trkpt><trkpt lat="42.2425333" lon="14.1822667"><ele>249.0</ele><time>2026-05-01T12:49:56.28Z</time></trkpt><trkpt lat="42.2426133" lon="14.1822383"><ele>249.0</ele><time>2026-05-01T12:49:57.28Z</time></trkpt><trkpt lat="42.2427033" lon="14.182195"><ele>249.0</ele><time>2026-05-01T12:49:58.28Z</time></trkpt><trkpt lat="42.2428117" lon="14.1821267"><ele>249.5</ele><time>2026-05-01T12:49:59.28Z</time></trkpt><trkpt lat="42.2429217" lon="14.18206"><ele>250.0</ele><time>2026-05-01T12:50:00.28Z</time></trkpt><trkpt lat="42.2430333" lon="14.1819983"><ele>250.5</ele><time>2026-05-01T12:50:01.28Z</time></trkpt><trkpt lat="42.243145" lon="14.1819433"><ele>251.0</ele><time>2026-05-01T12:50:02.28Z</time></trkpt><trkpt lat="42.2432517" lon="14.1818867"><ele>249.75</ele><time>2026-05-01T12:50:03.28Z</time></trkpt><trkpt lat="42.2433633" lon="14.1818283"><ele>248.5</ele><time>2026-05-01T12:50:04.281Z</time></trkpt><trkpt lat="42.2434817" lon="14.1817633"><ele>247.25</ele><time>2026-05-01T12:50:05.28Z</time></trkpt><trkpt lat="42.2436083" lon="14.18169"><ele>246.0</ele><time>2026-05-01T12:50:06.28Z</time></trkpt><trkpt lat="42.2437383" lon="14.1816217"><ele>246.0</ele><time>2026-05-01T12:50:07.28Z</time></trkpt><trkpt lat="42.2438683" lon="14.1815567"><ele>246.0</ele><time>2026-05-01T12:50:08.28Z</time></trkpt><trkpt lat="42.2439867" lon="14.1814833"><ele>246.0</ele><time>2026-05-01T12:50:09.28Z</time></trkpt><trkpt lat="42.24412" lon="14.18141"><ele>246.0</ele><time>2026-05-01T12:50:10.28Z</time></trkpt><trkpt lat="42.24424" lon="14.18134"><ele>244.75</ele><time>2026-05-01T12:50:11.28Z</time></trkpt><trkpt lat="42.2443567" lon="14.18127"><ele>243.5</ele><time>2026-05-01T12:50:12.28Z</time></trkpt><trkpt lat="42.2444717" lon="14.1812033"><ele>242.25</ele><time>2026-05-01T12:50:13.28Z</time></trkpt><trkpt lat="42.244575" lon="14.1811433"><ele>241.0</ele><time>2026-05-01T12:50:14.28Z</time></trkpt><trkpt lat="42.2446683" lon="14.1810833"><ele>240.99999999999997</ele><time>2026-05-01T12:50:15.28Z</time></trkpt><trkpt lat="42.2447433" lon="14.1810433"><ele>241.0</ele><time>2026-05-01T12:50:16.28Z</time></trkpt><trkpt lat="42.24484" lon="14.1810283"><ele>241.0</ele><time>2026-05-01T12:50:18.28Z</time></trkpt><trkpt lat="42.2449117" lon="14.1810533"><ele>241.0</ele><time>2026-05-01T12:50:21.28Z</time></trkpt><trkpt lat="42.2449933" lon="14.1810667"><ele>240.99999999999997</ele><time>2026-05-01T12:50:24.28Z</time></trkpt><trkpt lat="42.2450667" lon="14.1811033"><ele>241.0</ele><time>2026-05-01T12:50:27.28Z</time></trkpt><trkpt lat="42.2451617" lon="14.181195"><ele>241.20000000000002</ele><time>2026-05-01T12:50:29.28Z</time></trkpt><trkpt lat="42.2452283" lon="14.1812617"><ele>241.40000000000003</ele><time>2026-05-01T12:50:30.28Z</time></trkpt><trkpt lat="42.2453067" lon="14.181335"><ele>241.6</ele><time>2026-05-01T12:50:31.28Z</time></trkpt><trkpt lat="42.2453917" lon="14.1814133"><ele>241.8</ele><time>2026-05-01T12:50:32.28Z</time></trkpt><trkpt lat="42.245495" lon="14.1814717"><ele>242.0</ele><time>2026-05-01T12:50:33.28Z</time></trkpt><trkpt lat="42.2455983" lon="14.1815183"><ele>240.75</ele><time>2026-05-01T12:50:34.28Z</time></trkpt><trkpt lat="42.2457017" lon="14.1815633"><ele>239.5</ele><time>2026-05-01T12:50:35.28Z</time></trkpt><trkpt lat="42.2458083" lon="14.1816283"><ele>238.25</ele><time>2026-05-01T12:50:36.28Z</time></trkpt><trkpt lat="42.2459067" lon="14.181705"><ele>237.0</ele><time>2026-05-01T12:50:37.28Z</time></trkpt><trkpt lat="42.2460067" lon="14.18179"><ele>237.0</ele><time>2026-05-01T12:50:38.28Z</time></trkpt><trkpt lat="42.2461017" lon="14.18186"><ele>237.0</ele><time>2026-05-01T12:50:39.28Z</time></trkpt><trkpt lat="42.2462017" lon="14.1819"><ele>237.0</ele><time>2026-05-01T12:50:40.28Z</time></trkpt><trkpt lat="42.2463133" lon="14.1819133"><ele>237.0</ele><time>2026-05-01T12:50:41.28Z</time></trkpt><trkpt lat="42.2464383" lon="14.181905"><ele>235.75</ele><time>2026-05-01T12:50:42.28Z</time></trkpt><trkpt lat="42.2465667" lon="14.181905"><ele>234.5</ele><time>2026-05-01T12:50:43.28Z</time></trkpt><trkpt lat="42.2466783" lon="14.1819117"><ele>233.25</ele><time>2026-05-01T12:50:44.28Z</time></trkpt><trkpt lat="42.2467983" lon="14.1819317"><ele>232.0</ele><time>2026-05-01T12:50:45.28Z</time></trkpt><trkpt lat="42.2469083" lon="14.1819833"><ele>232.0</ele><time>2026-05-01T12:50:46.28Z</time></trkpt><trkpt lat="42.2470083" lon="14.1820417"><ele>232.0</ele><time>2026-05-01T12:50:47.28Z</time></trkpt><trkpt lat="42.2470983" lon="14.1821083"><ele>232.0</ele><time>2026-05-01T12:50:48.28Z</time></trkpt><trkpt lat="42.247185" lon="14.1821783"><ele>232.0</ele><time>2026-05-01T12:50:49.281Z</time></trkpt><trkpt lat="42.247265" lon="14.1822633"><ele>232.0</ele><time>2026-05-01T12:50:50.28Z</time></trkpt><trkpt lat="42.24732" lon="14.18236"><ele>231.99999999999997</ele><time>2026-05-01T12:50:51.28Z</time></trkpt><trkpt lat="42.2473683" lon="14.1824617"><ele>232.0</ele><time>2026-05-01T12:50:52.28Z</time></trkpt><trkpt lat="42.2474083" lon="14.1825617"><ele>232.0</ele><time>2026-05-01T12:50:53.28Z</time></trkpt><trkpt lat="42.247435" lon="14.1826567"><ele>232.0</ele><time>2026-05-01T12:50:54.28Z</time></trkpt><trkpt lat="42.2474617" lon="14.1827433"><ele>231.99999999999997</ele><time>2026-05-01T12:50:55.28Z</time></trkpt><trkpt lat="42.2475133" lon="14.1828167"><ele>232.0</ele><time>2026-05-01T12:50:56.28Z</time></trkpt><trkpt lat="42.2475783" lon="14.1828883"><ele>232.0</ele><time>2026-05-01T12:50:57.28Z</time></trkpt><trkpt lat="42.247665" lon="14.1829483"><ele>232.0</ele><time>2026-05-01T12:50:58.28Z</time></trkpt><trkpt lat="42.2477583" lon="14.18301"><ele>232.0</ele><time>2026-05-01T12:50:59.281Z</time></trkpt><trkpt lat="42.2478417" lon="14.1830717"><ele>232.0</ele><time>2026-05-01T12:51:00.28Z</time></trkpt><trkpt lat="42.2479133" lon="14.1831483"><ele>232.0</ele><time>2026-05-01T12:51:01.28Z</time></trkpt><trkpt lat="42.2479733" lon="14.183245"><ele>232.33333333333331</ele><time>2026-05-01T12:51:02.28Z</time></trkpt><trkpt lat="42.24801" lon="14.1833517"><ele>232.66666666666666</ele><time>2026-05-01T12:51:03.28Z</time></trkpt><trkpt lat="42.2480417" lon="14.18345"><ele>233.0</ele><time>2026-05-01T12:51:04.28Z</time></trkpt><trkpt lat="42.248055" lon="14.1835533"><ele>233.33333333333331</ele><time>2026-05-01T12:51:05.28Z</time></trkpt><trkpt lat="42.2480683" lon="14.1836567"><ele>233.66666666666666</ele><time>2026-05-01T12:51:06.28Z</time></trkpt><trkpt lat="42.2480767" lon="14.1837517"><ele>234.0</ele><time>2026-05-01T12:51:07.28Z</time></trkpt><trkpt lat="42.24807" lon="14.1838367"><ele>234.0</ele><time>2026-05-01T12:51:08.28Z</time></trkpt><trkpt lat="42.2480283" lon="14.183975"><ele>233.99999999999997</ele><time>2026-05-01T12:51:10.28Z</time></trkpt><trkpt lat="42.2479917" lon="14.1840633"><ele>233.99999999999997</ele><time>2026-05-01T12:51:12.28Z</time></trkpt><trkpt lat="42.2479983" lon="14.1841767"><ele>234.0</ele><time>2026-05-01T12:51:15.28Z</time></trkpt><trkpt lat="42.2479317" lon="14.18426"><ele>234.0</ele><time>2026-05-01T12:51:17.28Z</time></trkpt><trkpt lat="42.24784" lon="14.1843483"><ele>232.79999999999998</ele><time>2026-05-01T12:51:19.281Z</time></trkpt><trkpt lat="42.2477883" lon="14.1844283"><ele>231.59999999999997</ele><time>2026-05-01T12:51:21.28Z</time></trkpt><trkpt lat="42.2477567" lon="14.18452"><ele>230.4</ele><time>2026-05-01T12:51:23.28Z</time></trkpt><trkpt lat="42.24767" lon="14.1845783"><ele>229.2</ele><time>2026-05-01T12:51:26.28Z</time></trkpt><trkpt lat="42.2475683" lon="14.1845433"><ele>228.0</ele><time>2026-05-01T12:51:28.281Z</time></trkpt><trkpt lat="42.247485" lon="14.1844533"><ele>228.0</ele><time>2026-05-01T12:51:30.28Z</time></trkpt><trkpt lat="42.2474283" lon="14.1844083"><ele>228.0</ele><time>2026-05-01T12:51:32.281Z</time></trkpt><trkpt lat="42.24743" lon="14.1845083"><ele>228.0</ele><time>2026-05-01T12:51:35.28Z</time></trkpt><trkpt lat="42.2475" lon="14.184595"><ele>228.0</ele><time>2026-05-01T12:51:37.28Z</time></trkpt><trkpt lat="42.247565" lon="14.184715"><ele>228.0</ele><time>2026-05-01T12:51:39.28Z</time></trkpt><trkpt lat="42.247635" lon="14.1848583"><ele>226.83333333333334</ele><time>2026-05-01T12:51:41.28Z</time></trkpt><trkpt lat="42.247675" lon="14.1849317"><ele>225.66666666666669</ele><time>2026-05-01T12:51:42.281Z</time></trkpt><trkpt lat="42.247695" lon="14.18502"><ele>224.5</ele><time>2026-05-01T12:51:43.28Z</time></trkpt><trkpt lat="42.247715" lon="14.1851233"><ele>223.33333333333334</ele><time>2026-05-01T12:51:44.281Z</time></trkpt><trkpt lat="42.2477433" lon="14.1852333"><ele>222.16666666666669</ele><time>2026-05-01T12:51:45.28Z</time></trkpt><trkpt lat="42.2477717" lon="14.185355"><ele>221.0</ele><time>2026-05-01T12:51:46.28Z</time></trkpt><trkpt lat="42.24781" lon="14.185475"><ele>221.0</ele><time>2026-05-01T12:51:47.28Z</time></trkpt><trkpt lat="42.24786" lon="14.1855933"><ele>221.00000000000003</ele><time>2026-05-01T12:51:48.281Z</time></trkpt><trkpt lat="42.247905" lon="14.1857"><ele>221.00000000000003</ele><time>2026-05-01T12:51:49.28Z</time></trkpt><trkpt lat="42.2479483" lon="14.1857983"><ele>221.0</ele><time>2026-05-01T12:51:50.28Z</time></trkpt><trkpt lat="42.2479967" lon="14.1859067"><ele>221.0</ele><time>2026-05-01T12:51:51.28Z</time></trkpt><trkpt lat="42.2480517" lon="14.18602"><ele>221.0</ele><time>2026-05-01T12:51:52.28Z</time></trkpt><trkpt lat="42.248115" lon="14.1861483"><ele>221.00000000000003</ele><time>2026-05-01T12:51:53.28Z</time></trkpt><trkpt lat="42.24818" lon="14.1862483"><ele>221.00000000000003</ele><time>2026-05-01T12:51:54.28Z</time></trkpt><trkpt lat="42.2482583" lon="14.1863167"><ele>221.0</ele><time>2026-05-01T12:51:55.281Z</time></trkpt><trkpt lat="42.2483483" lon="14.1863617"><ele>221.0</ele><time>2026-05-01T12:51:56.28Z</time></trkpt><trkpt lat="42.2484283" lon="14.186395"><ele>221.0</ele><time>2026-05-01T12:51:57.28Z</time></trkpt><trkpt lat="42.2485117" lon="14.1864333"><ele>221.00000000000003</ele><time>2026-05-01T12:51:58.28Z</time></trkpt><trkpt lat="42.2486183" lon="14.1864883"><ele>221.00000000000003</ele><time>2026-05-01T12:51:59.281Z</time></trkpt><trkpt lat="42.2487133" lon="14.1865433"><ele>221.0</ele><time>2026-05-01T12:52:00.28Z</time></trkpt><trkpt lat="42.2488033" lon="14.1865767"><ele>221.0</ele><time>2026-05-01T12:52:01.28Z</time></trkpt><trkpt lat="42.2488867" lon="14.18659"><ele>221.00000000000003</ele><time>2026-05-01T12:52:02.28Z</time></trkpt><trkpt lat="42.2489783" lon="14.1865933"><ele>221.0</ele><time>2026-05-01T12:52:03.28Z</time></trkpt><trkpt lat="42.249065" lon="14.1865917"><ele>221.0</ele><time>2026-05-01T12:52:04.28Z</time></trkpt><trkpt lat="42.2491283" lon="14.1865767"><ele>221.0</ele><time>2026-05-01T12:52:05.28Z</time></trkpt><trkpt lat="42.249205" lon="14.1866267"><ele>221.00000000000003</ele><time>2026-05-01T12:52:07.28Z</time></trkpt><trkpt lat="42.2492117" lon="14.1867583"><ele>221.0</ele><time>2026-05-01T12:52:09.28Z</time></trkpt><trkpt lat="42.2492" lon="14.1868717"><ele>221.0</ele><time>2026-05-01T12:52:10.28Z</time></trkpt><trkpt lat="42.2491867" lon="14.1870267"><ele>221.0</ele><time>2026-05-01T12:52:11.28Z</time></trkpt><trkpt lat="42.2491683" lon="14.1871967"><ele>221.0</ele><time>2026-05-01T12:52:12.28Z</time></trkpt><trkpt lat="42.2491417" lon="14.1873683"><ele>221.0</ele><time>2026-05-01T12:52:13.28Z</time></trkpt><trkpt lat="42.24912" lon="14.18755"><ele>220.5</ele><time>2026-05-01T12:52:14.28Z</time></trkpt><trkpt lat="42.2491067" lon="14.1877283"><ele>220.0</ele><time>2026-05-01T12:52:15.28Z</time></trkpt><trkpt lat="42.2490883" lon="14.1878917"><ele>219.5</ele><time>2026-05-01T12:52:16.28Z</time></trkpt><trkpt lat="42.249065" lon="14.1880333"><ele>219.0</ele><time>2026-05-01T12:52:17.28Z</time></trkpt><trkpt lat="42.2490317" lon="14.188155"><ele>219.5</ele><time>2026-05-01T12:52:18.28Z</time></trkpt><trkpt lat="42.249005" lon="14.188265"><ele>220.0</ele><time>2026-05-01T12:52:19.28Z</time></trkpt><trkpt lat="42.24898" lon="14.188355"><ele>220.5</ele><time>2026-05-01T12:52:20.28Z</time></trkpt><trkpt lat="42.2490017" lon="14.188505"><ele>221.0</ele><time>2026-05-01T12:52:22.28Z</time></trkpt><trkpt lat="42.2490583" lon="14.18856"><ele>221.5</ele><time>2026-05-01T12:52:23.28Z</time></trkpt><trkpt lat="42.2491217" lon="14.188595"><ele>222.0</ele><time>2026-05-01T12:52:24.28Z</time></trkpt><trkpt lat="42.249225" lon="14.1886183"><ele>222.0</ele><time>2026-05-01T12:52:25.28Z</time></trkpt><trkpt lat="42.24934" lon="14.1886333"><ele>222.0</ele><time>2026-05-01T12:52:26.28Z</time></trkpt><trkpt lat="42.249455" lon="14.1886533"><ele>222.0</ele><time>2026-05-01T12:52:27.28Z</time></trkpt><trkpt lat="42.2495717" lon="14.1886817"><ele>222.0</ele><time>2026-05-01T12:52:28.28Z</time></trkpt><trkpt lat="42.2496883" lon="14.1887267"><ele>221.5</ele><time>2026-05-01T12:52:29.281Z</time></trkpt><trkpt lat="42.2498083" lon="14.18878"><ele>221.0</ele><time>2026-05-01T12:52:30.28Z</time></trkpt><trkpt lat="42.2499367" lon="14.1888567"><ele>220.5</ele><time>2026-05-01T12:52:31.28Z</time></trkpt><trkpt lat="42.2500617" lon="14.1889417"><ele>220.0</ele><time>2026-05-01T12:52:32.28Z</time></trkpt><trkpt lat="42.2501833" lon="14.1890267"><ele>221.25</ele><time>2026-05-01T12:52:33.28Z</time></trkpt><trkpt lat="42.2503033" lon="14.18912"><ele>222.5</ele><time>2026-05-01T12:52:34.28Z</time></trkpt><trkpt lat="42.250425" lon="14.1892033"><ele>223.75</ele><time>2026-05-01T12:52:35.28Z</time></trkpt><trkpt lat="42.250545" lon="14.18927"><ele>225.0</ele><time>2026-05-01T12:52:36.28Z</time></trkpt><trkpt lat="42.2506633" lon="14.1893017"><ele>225.0</ele><time>2026-05-01T12:52:37.28Z</time></trkpt><trkpt lat="42.2507817" lon="14.1892933"><ele>225.0</ele><time>2026-05-01T12:52:38.28Z</time></trkpt><trkpt lat="42.2509067" lon="14.1892417"><ele>225.0</ele><time>2026-05-01T12:52:39.28Z</time></trkpt><trkpt lat="42.251035" lon="14.18915"><ele>225.0</ele><time>2026-05-01T12:52:40.28Z</time></trkpt><trkpt lat="42.2511583" lon="14.1890417"><ele>224.75</ele><time>2026-05-01T12:52:41.28Z</time></trkpt><trkpt lat="42.2512733" lon="14.1889417"><ele>224.5</ele><time>2026-05-01T12:52:42.28Z</time></trkpt><trkpt lat="42.251375" lon="14.1888533"><ele>224.25</ele><time>2026-05-01T12:52:43.28Z</time></trkpt><trkpt lat="42.25147" lon="14.188775"><ele>224.0</ele><time>2026-05-01T12:52:44.28Z</time></trkpt><trkpt lat="42.2515583" lon="14.1887117"><ele>224.00000000000003</ele><time>2026-05-01T12:52:45.28Z</time></trkpt><trkpt lat="42.2516267" lon="14.1886583"><ele>224.0</ele><time>2026-05-01T12:52:46.28Z</time></trkpt><trkpt lat="42.2516783" lon="14.1886067"><ele>224.0</ele><time>2026-05-01T12:52:47.28Z</time></trkpt><trkpt lat="42.2517383" lon="14.1885033"><ele>224.0</ele><time>2026-05-01T12:52:49.28Z</time></trkpt><trkpt lat="42.2517283" lon="14.1883567"><ele>224.00000000000003</ele><time>2026-05-01T12:52:51.28Z</time></trkpt><trkpt lat="42.2517283" lon="14.18827"><ele>224.0</ele><time>2026-05-01T12:52:52.28Z</time></trkpt><trkpt lat="42.2517683" lon="14.1881033"><ele>223.50000000000003</ele><time>2026-05-01T12:52:54.28Z</time></trkpt><trkpt lat="42.2518083" lon="14.18802"><ele>223.0</ele><time>2026-05-01T12:52:55.28Z</time></trkpt><trkpt lat="42.251865" lon="14.1879333"><ele>222.5</ele><time>2026-05-01T12:52:56.28Z</time></trkpt><trkpt lat="42.2519317" lon="14.1878417"><ele>222.0</ele><time>2026-05-01T12:52:57.28Z</time></trkpt><trkpt lat="42.2520033" lon="14.1877667"><ele>221.50000000000003</ele><time>2026-05-01T12:52:58.28Z</time></trkpt><trkpt lat="42.252075" lon="14.1876767"><ele>221.0</ele><time>2026-05-01T12:52:59.28Z</time></trkpt><trkpt lat="42.2521517" lon="14.1876017"><ele>221.00000000000003</ele><time>2026-05-01T12:53:00.28Z</time></trkpt><trkpt lat="42.2522017" lon="14.1875067"><ele>221.0</ele><time>2026-05-01T12:53:01.28Z</time></trkpt><trkpt lat="42.252235" lon="14.1874083"><ele>221.0</ele><time>2026-05-01T12:53:02.28Z</time></trkpt><trkpt lat="42.25225" lon="14.1873117"><ele>221.0</ele><time>2026-05-01T12:53:03.28Z</time></trkpt><trkpt lat="42.2522533" lon="14.18717"><ele>221.00000000000003</ele><time>2026-05-01T12:53:05.28Z</time></trkpt><trkpt lat="42.2522817" lon="14.1870517"><ele>221.0</ele><time>2026-05-01T12:53:17.28Z</time></trkpt><trkpt lat="42.252345" lon="14.1870167"><ele>220.83333333333334</ele><time>2026-05-01T12:53:19.28Z</time></trkpt><trkpt lat="42.2524033" lon="14.18698"><ele>220.66666666666669</ele><time>2026-05-01T12:53:22.28Z</time></trkpt><trkpt lat="42.25244" lon="14.18687"><ele>220.5</ele><time>2026-05-01T12:53:25.28Z</time></trkpt><trkpt lat="42.2524783" lon="14.1867967"><ele>220.33333333333331</ele><time>2026-05-01T12:53:27.28Z</time></trkpt><trkpt lat="42.2525117" lon="14.1867133"><ele>220.16666666666666</ele><time>2026-05-01T12:53:29.28Z</time></trkpt><trkpt lat="42.2525583" lon="14.186615"><ele>220.0</ele><time>2026-05-01T12:53:31.28Z</time></trkpt><trkpt lat="42.2526067" lon="14.1864933"><ele>218.99999999999997</ele><time>2026-05-01T12:53:33.28Z</time></trkpt><trkpt lat="42.2526583" lon="14.1863933"><ele>218.0</ele><time>2026-05-01T12:53:35.28Z</time></trkpt><trkpt lat="42.2527033" lon="14.186295"><ele>217.0</ele><time>2026-05-01T12:53:37.28Z</time></trkpt><trkpt lat="42.2527467" lon="14.1861983"><ele>216.0</ele><time>2026-05-01T12:53:39.28Z</time></trkpt><trkpt lat="42.2527817" lon="14.1860917"><ele>214.99999999999997</ele><time>2026-05-01T12:53:41.28Z</time></trkpt><trkpt lat="42.2528217" lon="14.1860167"><ele>214.0</ele><time>2026-05-01T12:53:43.279Z</time></trkpt><trkpt lat="42.2528667" lon="14.1859367"><ele>213.99999999999997</ele><time>2026-05-01T12:53:45.279Z</time></trkpt><trkpt lat="42.2529167" lon="14.1858283"><ele>214.0</ele><time>2026-05-01T12:53:47.279Z</time></trkpt><trkpt lat="42.252965" lon="14.1857317"><ele>214.0</ele><time>2026-05-01T12:53:49.279Z</time></trkpt><trkpt lat="42.2529983" lon="14.1856567"><ele>214.0</ele><time>2026-05-01T12:53:51.279Z</time></trkpt><trkpt lat="42.2530383" lon="14.18555"><ele>213.99999999999997</ele><time>2026-05-01T12:53:54.28Z</time></trkpt><trkpt lat="42.25307" lon="14.18546"><ele>214.0</ele><time>2026-05-01T12:53:57.279Z</time></trkpt><trkpt lat="42.2531517" lon="14.185455"><ele>214.2</ele><time>2026-05-01T12:54:01.279Z</time></trkpt><trkpt lat="42.2532233" lon="14.1855"><ele>214.39999999999998</ele><time>2026-05-01T12:54:04.279Z</time></trkpt><trkpt lat="42.2533067" lon="14.1855533"><ele>214.6</ele><time>2026-05-01T12:54:07.279Z</time></trkpt><trkpt lat="42.2533967" lon="14.1856033"><ele>214.8</ele><time>2026-05-01T12:54:09.279Z</time></trkpt><trkpt lat="42.2535" lon="14.1856767"><ele>215.0</ele><time>2026-05-01T12:54:11.279Z</time></trkpt><trkpt lat="42.253585" lon="14.1857417"><ele>215.0</ele><time>2026-05-01T12:54:13.279Z</time></trkpt><trkpt lat="42.25366" lon="14.1858367"><ele>215.0</ele><time>2026-05-01T12:54:15.279Z</time></trkpt><trkpt lat="42.25369" lon="14.1859783"><ele>215.0</ele><time>2026-05-01T12:54:17.279Z</time></trkpt><trkpt lat="42.253695" lon="14.1860783"><ele>215.0</ele><time>2026-05-01T12:54:19.279Z</time></trkpt><trkpt lat="42.25381" lon="14.18617"><ele>215.0</ele><time>2026-05-01T12:54:51.279Z</time></trkpt><trkpt lat="42.2538867" lon="14.18618"><ele>213.50000000000003</ele><time>2026-05-01T12:54:54.279Z</time></trkpt><trkpt lat="42.2539617" lon="14.1862017"><ele>212.0</ele><time>2026-05-01T12:54:58.279Z</time></trkpt><trkpt lat="42.2540167" lon="14.1862667"><ele>210.5</ele><time>2026-05-01T12:55:07.279Z</time></trkpt><trkpt lat="42.2540783" lon="14.18632"><ele>209.0</ele><time>2026-05-01T12:55:10.279Z</time></trkpt><trkpt lat="42.25415" lon="14.1863433"><ele>207.50000000000003</ele><time>2026-05-01T12:55:14.279Z</time></trkpt><trkpt lat="42.2541617" lon="14.18625"><ele>206.0</ele><time>2026-05-01T12:55:21.28Z</time></trkpt><trkpt lat="42.2541817" lon="14.1861183"><ele>206.00000000000003</ele><time>2026-05-01T12:55:24.279Z</time></trkpt><trkpt lat="42.2542367" lon="14.186025"><ele>206.0</ele><time>2026-05-01T12:55:26.279Z</time></trkpt><trkpt lat="42.254315" lon="14.1859717"><ele>206.0</ele><time>2026-05-01T12:55:29.28Z</time></trkpt><trkpt lat="42.254395" lon="14.1860167"><ele>206.0</ele><time>2026-05-01T12:55:31.28Z</time></trkpt><trkpt lat="42.2544517" lon="14.186065"><ele>206.00000000000003</ele><time>2026-05-01T12:55:32.279Z</time></trkpt><trkpt lat="42.25452" lon="14.1861083"><ele>206.0</ele><time>2026-05-01T12:55:33.28Z</time></trkpt><trkpt lat="42.2545883" lon="14.186155"><ele>206.00000000000003</ele><time>2026-05-01T12:55:34.279Z</time></trkpt><trkpt lat="42.254655" lon="14.1861933"><ele>206.0</ele><time>2026-05-01T12:55:35.279Z</time></trkpt><trkpt lat="42.2547133" lon="14.1862267"><ele>206.0</ele><time>2026-05-01T12:55:36.28Z</time></trkpt><trkpt lat="42.2547983" lon="14.1862867"><ele>206.0</ele><time>2026-05-01T12:55:38.279Z</time></trkpt><trkpt lat="42.2548583" lon="14.1863383"><ele>206.00000000000003</ele><time>2026-05-01T12:55:40.28Z</time></trkpt><trkpt lat="42.2549317" lon="14.18641"><ele>206.0</ele><time>2026-05-01T12:56:50.279Z</time></trkpt><trkpt lat="42.2550367" lon="14.1864383"><ele>205.60000000000002</ele><time>2026-05-01T12:57:04.279Z</time></trkpt><trkpt lat="42.2551217" lon="14.18646"><ele>205.2</ele><time>2026-05-01T12:57:06.279Z</time></trkpt><trkpt lat="42.25519" lon="14.1864767"><ele>204.8</ele><time>2026-05-01T12:57:08.279Z</time></trkpt><trkpt lat="42.2552517" lon="14.18655"><ele>204.39999999999998</ele><time>2026-05-01T12:57:35.279Z</time></trkpt><trkpt lat="42.2554017" lon="14.18656"><ele>204.0</ele><time>2026-05-01T12:58:12.279Z</time></trkpt><trkpt lat="42.2554867" lon="14.1864533"><ele>204.0</ele><time>2026-05-01T12:59:10.279Z</time></trkpt><trkpt lat="42.2555767" lon="14.1863983"><ele>204.0</ele><time>2026-05-01T12:59:12.279Z</time></trkpt><trkpt lat="42.2556733" lon="14.18635"><ele>204.0</ele><time>2026-05-01T12:59:14.279Z</time></trkpt><trkpt lat="42.2557367" lon="14.186315"><ele>204.0</ele><time>2026-05-01T12:59:16.279Z</time></trkpt><trkpt lat="42.2557867" lon="14.1861933"><ele>204.0</ele><time>2026-05-01T13:01:12.279Z</time></trkpt><trkpt lat="42.2557983" lon="14.1860733"><ele>204.2</ele><time>2026-05-01T13:01:16.279Z</time></trkpt><trkpt lat="42.2558167" lon="14.185975"><ele>204.39999999999998</ele><time>2026-05-01T13:01:19.28Z</time></trkpt><trkpt lat="42.255875" lon="14.185855"><ele>204.6</ele><time>2026-05-01T13:04:53.279Z</time></trkpt><trkpt lat="42.2559533" lon="14.185775"><ele>204.8</ele><time>2026-05-01T13:05:28.279Z</time></trkpt><trkpt lat="42.2560117" lon="14.1856883"><ele>205.0</ele><time>2026-05-01T13:05:38.279Z</time></trkpt><trkpt lat="42.256075" lon="14.1856033"><ele>205.99999999999997</ele><time>2026-05-01T13:05:41.279Z</time></trkpt><trkpt lat="42.256125" lon="14.185515"><ele>207.0</ele><time>2026-05-01T13:05:43.279Z</time></trkpt><trkpt lat="42.256185" lon="14.1854117"><ele>208.0</ele><time>2026-05-01T13:05:45.279Z</time></trkpt><trkpt lat="42.2562417" lon="14.185335"><ele>209.0</ele><time>2026-05-01T13:05:47.279Z</time></trkpt><trkpt lat="42.25629" lon="14.18527"><ele>209.99999999999997</ele><time>2026-05-01T13:06:18.279Z</time></trkpt><trkpt lat="42.256345" lon="14.18517"><ele>211.0</ele><time>2026-05-01T13:07:28.279Z</time></trkpt><trkpt lat="42.256425" lon="14.18511"><ele>212.66666666666666</ele><time>2026-05-01T13:07:31.279Z</time></trkpt><trkpt lat="42.25649" lon="14.1850933"><ele>214.33333333333331</ele><time>2026-05-01T13:07:34.279Z</time></trkpt><trkpt lat="42.2565533" lon="14.18514"><ele>216.0</ele><time>2026-05-01T13:07:36.279Z</time></trkpt><trkpt lat="42.2566183" lon="14.1851617"><ele>217.66666666666669</ele><time>2026-05-01T13:07:38.279Z</time></trkpt><trkpt lat="42.256695" lon="14.1851333"><ele>219.33333333333334</ele><time>2026-05-01T13:07:42.279Z</time></trkpt><trkpt lat="42.25675" lon="14.184975"><ele>221.0</ele><time>2026-05-01T13:08:14.279Z</time></trkpt><trkpt lat="42.2567933" lon="14.1848833"><ele>222.00000000000003</ele><time>2026-05-01T13:08:15.28Z</time></trkpt><trkpt lat="42.256845" lon="14.1848"><ele>223.0</ele><time>2026-05-01T13:08:16.279Z</time></trkpt><trkpt lat="42.2569067" lon="14.1847333"><ele>224.0</ele><time>2026-05-01T13:08:17.279Z</time></trkpt><trkpt lat="42.2569683" lon="14.184665"><ele>225.0</ele><time>2026-05-01T13:08:18.28Z</time></trkpt><trkpt lat="42.2570433" lon="14.1845983"><ele>226.00000000000003</ele><time>2026-05-01T13:08:19.279Z</time></trkpt><trkpt lat="42.257115" lon="14.1845417"><ele>227.0</ele><time>2026-05-01T13:08:20.279Z</time></trkpt><trkpt lat="42.2571883" lon="14.1844817"><ele>227.00000000000003</ele><time>2026-05-01T13:08:21.279Z</time></trkpt><trkpt lat="42.25726" lon="14.1844183"><ele>227.0</ele><time>2026-05-01T13:08:22.279Z</time></trkpt><trkpt lat="42.2573233" lon="14.1843517"><ele>227.0</ele><time>2026-05-01T13:08:23.279Z</time></trkpt><trkpt lat="42.2573867" lon="14.1842883"><ele>227.0</ele><time>2026-05-01T13:08:24.279Z</time></trkpt><trkpt lat="42.2574417" lon="14.1842317"><ele>227.00000000000003</ele><time>2026-05-01T13:08:25.279Z</time></trkpt><trkpt lat="42.2574967" lon="14.1841717"><ele>227.0</ele><time>2026-05-01T13:08:26.279Z</time></trkpt><trkpt lat="42.25756" lon="14.184055"><ele>228.6</ele><time>2026-05-01T13:08:28.279Z</time></trkpt><trkpt lat="42.2575933" lon="14.183915"><ele>230.2</ele><time>2026-05-01T13:08:30.28Z</time></trkpt><trkpt lat="42.257605" lon="14.1837433"><ele>231.8</ele><time>2026-05-01T13:08:32.279Z</time></trkpt><trkpt lat="42.2576017" lon="14.1836233"><ele>233.4</ele><time>2026-05-01T13:08:33.279Z</time></trkpt><trkpt lat="42.257585" lon="14.183505"><ele>235.0</ele><time>2026-05-01T13:08:34.279Z</time></trkpt><trkpt lat="42.2575667" lon="14.1834117"><ele>234.99999999999997</ele><time>2026-05-01T13:08:35.279Z</time></trkpt><trkpt lat="42.257545" lon="14.1833283"><ele>235.0</ele><time>2026-05-01T13:08:36.279Z</time></trkpt><trkpt lat="42.2575233" lon="14.183245"><ele>235.0</ele><time>2026-05-01T13:08:37.279Z</time></trkpt><trkpt lat="42.2574933" lon="14.183085"><ele>235.0</ele><time>2026-05-01T13:08:39.279Z</time></trkpt><trkpt lat="42.257475" lon="14.1830017"><ele>234.99999999999997</ele><time>2026-05-01T13:08:40.279Z</time></trkpt><trkpt lat="42.257415" lon="14.1828633"><ele>235.0</ele><time>2026-05-01T13:08:42.279Z</time></trkpt><trkpt lat="42.2573217" lon="14.1827767"><ele>237.16666666666666</ele><time>2026-05-01T13:08:44.279Z</time></trkpt><trkpt lat="42.25721" lon="14.1827183"><ele>239.33333333333331</ele><time>2026-05-01T13:08:46.279Z</time></trkpt><trkpt lat="42.2571467" lon="14.1827"><ele>241.5</ele><time>2026-05-01T13:08:47.279Z</time></trkpt><trkpt lat="42.2570717" lon="14.1826417"><ele>243.66666666666669</ele><time>2026-05-01T13:08:49.279Z</time></trkpt><trkpt lat="42.2570483" lon="14.1825467"><ele>245.83333333333334</ele><time>2026-05-01T13:08:51.279Z</time></trkpt><trkpt lat="42.2570667" lon="14.1824167"><ele>248.0</ele><time>2026-05-01T13:08:53.279Z</time></trkpt><trkpt lat="42.2570833" lon="14.1822667"><ele>249.4</ele><time>2026-05-01T13:08:55.279Z</time></trkpt><trkpt lat="42.2571183" lon="14.1821633"><ele>250.8</ele><time>2026-05-01T13:08:57.279Z</time></trkpt><trkpt lat="42.2572017" lon="14.182055"><ele>252.2</ele><time>2026-05-01T13:08:59.279Z</time></trkpt><trkpt lat="42.257285" lon="14.1819267"><ele>253.6</ele><time>2026-05-01T13:09:01.279Z</time></trkpt><trkpt lat="42.2573267" lon="14.1818367"><ele>255.0</ele><time>2026-05-01T13:09:02.279Z</time></trkpt><trkpt lat="42.257365" lon="14.1817333"><ele>255.0</ele><time>2026-05-01T13:09:03.279Z</time></trkpt><trkpt lat="42.2574033" lon="14.18162"><ele>255.0</ele><time>2026-05-01T13:09:04.279Z</time></trkpt><trkpt lat="42.2574367" lon="14.1815"><ele>255.0</ele><time>2026-05-01T13:09:05.279Z</time></trkpt><trkpt lat="42.2574533" lon="14.1814067"><ele>255.0</ele><time>2026-05-01T13:09:06.279Z</time></trkpt><trkpt lat="42.2574783" lon="14.18132"><ele>255.0</ele><time>2026-05-01T13:09:07.279Z</time></trkpt><trkpt lat="42.2575367" lon="14.181195"><ele>255.0</ele><time>2026-05-01T13:09:09.279Z</time></trkpt><trkpt lat="42.2576067" lon="14.1810767"><ele>256.8</ele><time>2026-05-01T13:09:11.28Z</time></trkpt><trkpt lat="42.2576733" lon="14.1809333"><ele>258.6</ele><time>2026-05-01T13:09:13.28Z</time></trkpt><trkpt lat="42.2577367" lon="14.18081"><ele>260.4</ele><time>2026-05-01T13:09:15.279Z</time></trkpt><trkpt lat="42.2577967" lon="14.18068"><ele>262.2</ele><time>2026-05-01T13:09:17.279Z</time></trkpt><trkpt lat="42.2578233" lon="14.1805883"><ele>264.0</ele><time>2026-05-01T13:09:18.279Z</time></trkpt><trkpt lat="42.2578483" lon="14.1805033"><ele>266.59999999999997</ele><time>2026-05-01T13:09:19.279Z</time></trkpt><trkpt lat="42.2578633" lon="14.1803967"><ele>269.2</ele><time>2026-05-01T13:09:20.279Z</time></trkpt><trkpt lat="42.2578783" lon="14.1802767"><ele>271.79999999999995</ele><time>2026-05-01T13:09:21.279Z</time></trkpt><trkpt lat="42.2578917" lon="14.180155"><ele>274.4</ele><time>2026-05-01T13:09:22.279Z</time></trkpt><trkpt lat="42.2579083" lon="14.1800317"><ele>277.0</ele><time>2026-05-01T13:09:23.279Z</time></trkpt><trkpt lat="42.257915" lon="14.1799017"><ele>278.8333333333333</ele><time>2026-05-01T13:09:24.279Z</time></trkpt><trkpt lat="42.25792" lon="14.1798"><ele>280.66666666666663</ele><time>2026-05-01T13:09:25.28Z</time></trkpt><trkpt lat="42.2579233" lon="14.1796833"><ele>282.5</ele><time>2026-05-01T13:09:26.279Z</time></trkpt><trkpt lat="42.25793" lon="14.1795667"><ele>284.3333333333333</ele><time>2026-05-01T13:09:27.279Z</time></trkpt><trkpt lat="42.2579283" lon="14.1794717"><ele>286.1666666666667</ele><time>2026-05-01T13:09:28.279Z</time></trkpt><trkpt lat="42.2579267" lon="14.1793767"><ele>288.0</ele><time>2026-05-01T13:09:29.279Z</time></trkpt><trkpt lat="42.2579433" lon="14.179275"><ele>288.0</ele><time>2026-05-01T13:09:30.279Z</time></trkpt><trkpt lat="42.2579617" lon="14.1791733"><ele>288.0</ele><time>2026-05-01T13:09:31.279Z</time></trkpt><trkpt lat="42.2579767" lon="14.1790617"><ele>288.0</ele><time>2026-05-01T13:09:32.279Z</time></trkpt><trkpt lat="42.2579867" lon="14.1789567"><ele>288.0</ele><time>2026-05-01T13:09:33.279Z</time></trkpt><trkpt lat="42.2580067" lon="14.1788567"><ele>288.0</ele><time>2026-05-01T13:09:34.28Z</time></trkpt><trkpt lat="42.2580333" lon="14.1787683"><ele>288.0</ele><time>2026-05-01T13:09:35.279Z</time></trkpt><trkpt lat="42.258055" lon="14.1786833"><ele>287.1666666666667</ele><time>2026-05-01T13:09:36.28Z</time></trkpt><trkpt lat="42.258075" lon="14.1785717"><ele>286.3333333333333</ele><time>2026-05-01T13:09:37.28Z</time></trkpt><trkpt lat="42.25809" lon="14.1784817"><ele>285.5</ele><time>2026-05-01T13:09:38.279Z</time></trkpt><trkpt lat="42.258095" lon="14.17839"><ele>284.66666666666663</ele><time>2026-05-01T13:09:39.279Z</time></trkpt><trkpt lat="42.2581133" lon="14.1782717"><ele>283.8333333333333</ele><time>2026-05-01T13:09:41.279Z</time></trkpt><trkpt lat="42.2581117" lon="14.1781767"><ele>283.0</ele><time>2026-05-01T13:09:44.279Z</time></trkpt><trkpt lat="42.2581183" lon="14.1780317"><ele>286.66666666666663</ele><time>2026-05-01T13:09:47.279Z</time></trkpt><trkpt lat="42.258095" lon="14.1779167"><ele>290.3333333333333</ele><time>2026-05-01T13:09:49.279Z</time></trkpt><trkpt lat="42.2580267" lon="14.177845"><ele>294.0</ele><time>2026-05-01T13:09:51.279Z</time></trkpt><trkpt lat="42.2579467" lon="14.1777917"><ele>297.6666666666667</ele><time>2026-05-01T13:09:53.279Z</time></trkpt><trkpt lat="42.2578717" lon="14.1777183"><ele>301.33333333333337</ele><time>2026-05-01T13:09:55.279Z</time></trkpt><trkpt lat="42.2577933" lon="14.1777133"><ele>305.0</ele><time>2026-05-01T13:09:57.279Z</time></trkpt><trkpt lat="42.2577033" lon="14.1777367"><ele>305.0</ele><time>2026-05-01T13:09:59.279Z</time></trkpt><trkpt lat="42.2575917" lon="14.1777083"><ele>305.0</ele><time>2026-05-01T13:10:01.279Z</time></trkpt><trkpt lat="42.257485" lon="14.1776967"><ele>305.0</ele><time>2026-05-01T13:10:03.279Z</time></trkpt><trkpt lat="42.257365" lon="14.177745"><ele>305.0</ele><time>2026-05-01T13:10:05.279Z</time></trkpt><trkpt lat="42.2572633" lon="14.1777917"><ele>306.83333333333337</ele><time>2026-05-01T13:10:07.28Z</time></trkpt><trkpt lat="42.2572017" lon="14.1778617"><ele>308.6666666666667</ele><time>2026-05-01T13:10:09.279Z</time></trkpt><trkpt lat="42.25716" lon="14.17793"><ele>310.5</ele><time>2026-05-01T13:10:11.279Z</time></trkpt><trkpt lat="42.25709" lon="14.177945"><ele>312.3333333333333</ele><time>2026-05-01T13:10:13.279Z</time></trkpt><trkpt lat="42.2570517" lon="14.1778683"><ele>314.16666666666663</ele><time>2026-05-01T13:10:15.279Z</time></trkpt><trkpt lat="42.257085" lon="14.1777"><ele>316.0</ele><time>2026-05-01T13:10:17.279Z</time></trkpt><trkpt lat="42.2571133" lon="14.1775817"><ele>316.0</ele><time>2026-05-01T13:10:18.279Z</time></trkpt><trkpt lat="42.2571467" lon="14.17746"><ele>316.0</ele><time>2026-05-01T13:10:19.279Z</time></trkpt><trkpt lat="42.257195" lon="14.1773367"><ele>316.0</ele><time>2026-05-01T13:10:20.279Z</time></trkpt><trkpt lat="42.257255" lon="14.1772167"><ele>316.0</ele><time>2026-05-01T13:10:21.279Z</time></trkpt><trkpt lat="42.2573083" lon="14.177125"><ele>316.0</ele><time>2026-05-01T13:10:22.28Z</time></trkpt><trkpt lat="42.257345" lon="14.177045"><ele>315.8571428571429</ele><time>2026-05-01T13:10:23.279Z</time></trkpt><trkpt lat="42.257385" lon="14.1769633"><ele>315.7142857142857</ele><time>2026-05-01T13:10:24.279Z</time></trkpt><trkpt lat="42.2574133" lon="14.1768867"><ele>315.57142857142856</ele><time>2026-05-01T13:10:25.279Z</time></trkpt><trkpt lat="42.25744" lon="14.1767883"><ele>315.42857142857144</ele><time>2026-05-01T13:10:26.279Z</time></trkpt><trkpt lat="42.2574683" lon="14.1766867"><ele>315.2857142857143</ele><time>2026-05-01T13:10:27.279Z</time></trkpt><trkpt lat="42.2574967" lon="14.17658"><ele>315.14285714285717</ele><time>2026-05-01T13:10:28.279Z</time></trkpt><trkpt lat="42.25753" lon="14.176495"><ele>315.0</ele><time>2026-05-01T13:10:29.279Z</time></trkpt><trkpt lat="42.2575683" lon="14.1763533"><ele>316.5</ele><time>2026-05-01T13:10:31.279Z</time></trkpt><trkpt lat="42.2575917" lon="14.1762567"><ele>318.0</ele><time>2026-05-01T13:10:33.279Z</time></trkpt><trkpt lat="42.2575683" lon="14.1761733"><ele>319.5</ele><time>2026-05-01T13:10:35.279Z</time></trkpt><trkpt lat="42.2575183" lon="14.176115"><ele>321.0</ele><time>2026-05-01T13:10:37.279Z</time></trkpt><trkpt lat="42.2574217" lon="14.176045"><ele>322.5</ele><time>2026-05-01T13:10:39.279Z</time></trkpt><trkpt lat="42.2573283" lon="14.17595"><ele>324.0</ele><time>2026-05-01T13:10:41.279Z</time></trkpt><trkpt lat="42.2572867" lon="14.1758383"><ele>324.8333333333333</ele><time>2026-05-01T13:10:43.28Z</time></trkpt><trkpt lat="42.25725" lon="14.175725"><ele>325.6666666666667</ele><time>2026-05-01T13:10:45.279Z</time></trkpt><trkpt lat="42.2572167" lon="14.1756"><ele>326.5</ele><time>2026-05-01T13:10:47.279Z</time></trkpt><trkpt lat="42.2571883" lon="14.1755017"><ele>327.33333333333337</ele><time>2026-05-01T13:10:50.279Z</time></trkpt><trkpt lat="42.2571717" lon="14.1753867"><ele>328.1666666666667</ele><time>2026-05-01T13:10:52.279Z</time></trkpt><trkpt lat="42.257185" lon="14.1752983"><ele>329.0</ele><time>2026-05-01T13:10:53.279Z</time></trkpt><trkpt lat="42.25721" lon="14.1752067"><ele>329.0</ele><time>2026-05-01T13:10:54.279Z</time></trkpt><trkpt lat="42.2572383" lon="14.17511"><ele>329.0</ele><time>2026-05-01T13:10:55.279Z</time></trkpt><trkpt lat="42.2572783" lon="14.1750083"><ele>329.0</ele><time>2026-05-01T13:10:56.279Z</time></trkpt><trkpt lat="42.2573217" lon="14.174895"><ele>329.0</ele><time>2026-05-01T13:10:57.279Z</time></trkpt><trkpt lat="42.2573783" lon="14.17476"><ele>329.0</ele><time>2026-05-01T13:10:58.28Z</time></trkpt><trkpt lat="42.2574533" lon="14.1745833"><ele>331.5</ele><time>2026-05-01T13:10:59.279Z</time></trkpt><trkpt lat="42.25753" lon="14.1744067"><ele>334.0</ele><time>2026-05-01T13:11:00.279Z</time></trkpt><trkpt lat="42.2575967" lon="14.1742517"><ele>336.5</ele><time>2026-05-01T13:11:01.279Z</time></trkpt><trkpt lat="42.2576567" lon="14.17411"><ele>339.0</ele><time>2026-05-01T13:11:02.28Z</time></trkpt><trkpt lat="42.257715" lon="14.1739733"><ele>340.75</ele><time>2026-05-01T13:11:03.279Z</time></trkpt><trkpt lat="42.2577817" lon="14.17384"><ele>342.5</ele><time>2026-05-01T13:11:04.279Z</time></trkpt><trkpt lat="42.257855" lon="14.1737133"><ele>344.25</ele><time>2026-05-01T13:11:05.279Z</time></trkpt><trkpt lat="42.2579333" lon="14.1735883"><ele>346.0</ele><time>2026-05-01T13:11:06.279Z</time></trkpt><trkpt lat="42.2580133" lon="14.1734733"><ele>346.0</ele><time>2026-05-01T13:11:07.279Z</time></trkpt><trkpt lat="42.2581" lon="14.1733667"><ele>346.0</ele><time>2026-05-01T13:11:08.279Z</time></trkpt><trkpt lat="42.2581967" lon="14.1732683"><ele>346.0</ele><time>2026-05-01T13:11:09.279Z</time></trkpt><trkpt lat="42.2582783" lon="14.1731867"><ele>346.0</ele><time>2026-05-01T13:11:10.28Z</time></trkpt><trkpt lat="42.25834" lon="14.1731333"><ele>346.0</ele><time>2026-05-01T13:11:11.279Z</time></trkpt><trkpt lat="42.258415" lon="14.1730233"><ele>348.20000000000005</ele><time>2026-05-01T13:11:13.28Z</time></trkpt><trkpt lat="42.258445" lon="14.1729483"><ele>350.40000000000003</ele><time>2026-05-01T13:11:14.279Z</time></trkpt><trkpt lat="42.2584883" lon="14.17285"><ele>352.6</ele><time>2026-05-01T13:11:15.279Z</time></trkpt><trkpt lat="42.2585517" lon="14.1727383"><ele>354.8</ele><time>2026-05-01T13:11:16.279Z</time></trkpt><trkpt lat="42.25863" lon="14.1726317"><ele>357.0</ele><time>2026-05-01T13:11:17.279Z</time></trkpt><trkpt lat="42.2587083" lon="14.172535"><ele>357.0</ele><time>2026-05-01T13:11:18.279Z</time></trkpt><trkpt lat="42.2587933" lon="14.1724283"><ele>357.0</ele><time>2026-05-01T13:11:19.279Z</time></trkpt><trkpt lat="42.2588783" lon="14.1723267"><ele>357.0</ele><time>2026-05-01T13:11:20.279Z</time></trkpt><trkpt lat="42.258965" lon="14.1722233"><ele>357.0</ele><time>2026-05-01T13:11:21.28Z</time></trkpt><trkpt lat="42.259045" lon="14.1721333"><ele>357.0</ele><time>2026-05-01T13:11:22.279Z</time></trkpt><trkpt lat="42.2591467" lon="14.172025"><ele>360.20000000000005</ele><time>2026-05-01T13:11:23.279Z</time></trkpt><trkpt lat="42.25924" lon="14.1719283"><ele>363.4</ele><time>2026-05-01T13:11:24.279Z</time></trkpt><trkpt lat="42.2593267" lon="14.1718317"><ele>366.6</ele><time>2026-05-01T13:11:25.279Z</time></trkpt><trkpt lat="42.2594083" lon="14.171725"><ele>369.79999999999995</ele><time>2026-05-01T13:11:26.279Z</time></trkpt><trkpt lat="42.2594633" lon="14.1716067"><ele>373.0</ele><time>2026-05-01T13:11:27.279Z</time></trkpt><trkpt lat="42.2595183" lon="14.17151"><ele>372.4</ele><time>2026-05-01T13:11:28.28Z</time></trkpt><trkpt lat="42.2595583" lon="14.171425"><ele>371.79999999999995</ele><time>2026-05-01T13:11:29.279Z</time></trkpt><trkpt lat="42.2596217" lon="14.1713"><ele>371.2</ele><time>2026-05-01T13:11:31.279Z</time></trkpt><trkpt lat="42.2597167" lon="14.171165"><ele>370.6</ele><time>2026-05-01T13:11:33.279Z</time></trkpt><trkpt lat="42.2597983" lon="14.17108"><ele>370.0</ele><time>2026-05-01T13:11:34.279Z</time></trkpt><trkpt lat="42.2598967" lon="14.1709833"><ele>370.0</ele><time>2026-05-01T13:11:35.279Z</time></trkpt><trkpt lat="42.26" lon="14.170885"><ele>370.0</ele><time>2026-05-01T13:11:36.279Z</time></trkpt><trkpt lat="42.2601" lon="14.17078"><ele>370.0</ele><time>2026-05-01T13:11:37.279Z</time></trkpt><trkpt lat="42.2601933" lon="14.1706867"><ele>370.0</ele><time>2026-05-01T13:11:38.279Z</time></trkpt><trkpt lat="42.2602817" lon="14.1706067"><ele>369.4</ele><time>2026-05-01T13:11:39.279Z</time></trkpt><trkpt lat="42.2603667" lon="14.1705267"><ele>368.8</ele><time>2026-05-01T13:11:40.279Z</time></trkpt><trkpt lat="42.26044" lon="14.1704517"><ele>368.20000000000005</ele><time>2026-05-01T13:11:41.279Z</time></trkpt><trkpt lat="42.2605167" lon="14.170375"><ele>367.6</ele><time>2026-05-01T13:11:42.279Z</time></trkpt><trkpt lat="42.2605983" lon="14.1702883"><ele>367.0</ele><time>2026-05-01T13:11:43.279Z</time></trkpt><trkpt lat="42.26067" lon="14.1702"><ele>365.0</ele><time>2026-05-01T13:11:44.279Z</time></trkpt><trkpt lat="42.26074" lon="14.170115"><ele>363.0</ele><time>2026-05-01T13:11:45.279Z</time></trkpt><trkpt lat="42.2607983" lon="14.1700317"><ele>361.0</ele><time>2026-05-01T13:11:46.279Z</time></trkpt><trkpt lat="42.2608517" lon="14.1699683"><ele>359.0</ele><time>2026-05-01T13:11:47.279Z</time></trkpt><trkpt lat="42.2608983" lon="14.1699083"><ele>357.0</ele><time>2026-05-01T13:11:48.279Z</time></trkpt><trkpt lat="42.260955" lon="14.1697933"><ele>355.0</ele><time>2026-05-01T13:11:50.279Z</time></trkpt><trkpt lat="42.260995" lon="14.16963"><ele>353.8333333333333</ele><time>2026-05-01T13:11:52.279Z</time></trkpt><trkpt lat="42.2610117" lon="14.1695367"><ele>352.66666666666663</ele><time>2026-05-01T13:11:53.279Z</time></trkpt><trkpt lat="42.26102" lon="14.16936"><ele>351.5</ele><time>2026-05-01T13:11:55.279Z</time></trkpt><trkpt lat="42.2610317" lon="14.1692683"><ele>350.3333333333333</ele><time>2026-05-01T13:11:56.279Z</time></trkpt><trkpt lat="42.2610367" lon="14.1691783"><ele>349.1666666666667</ele><time>2026-05-01T13:11:57.279Z</time></trkpt><trkpt lat="42.26104" lon="14.169085"><ele>348.0</ele><time>2026-05-01T13:11:58.279Z</time></trkpt><trkpt lat="42.2610317" lon="14.168975"><ele>347.0</ele><time>2026-05-01T13:11:59.279Z</time></trkpt><trkpt lat="42.2610217" lon="14.1688667"><ele>346.0</ele><time>2026-05-01T13:12:00.279Z</time></trkpt><trkpt lat="42.2610133" lon="14.1687633"><ele>345.0</ele><time>2026-05-01T13:12:01.279Z</time></trkpt><trkpt lat="42.261015" lon="14.1686417"><ele>344.0</ele><time>2026-05-01T13:12:02.28Z</time></trkpt><trkpt lat="42.26103" lon="14.1685033"><ele>343.0</ele><time>2026-05-01T13:12:03.279Z</time></trkpt><trkpt lat="42.2610517" lon="14.1683483"><ele>343.0</ele><time>2026-05-01T13:12:04.279Z</time></trkpt><trkpt lat="42.2610867" lon="14.1682083"><ele>343.0</ele><time>2026-05-01T13:12:05.279Z</time></trkpt><trkpt lat="42.261115" lon="14.16808"><ele>343.0</ele><time>2026-05-01T13:12:06.279Z</time></trkpt><trkpt lat="42.2611467" lon="14.167965"><ele>343.0</ele><time>2026-05-01T13:12:07.279Z</time></trkpt><trkpt lat="42.2611683" lon="14.1678533"><ele>343.0</ele><time>2026-05-01T13:12:08.279Z</time></trkpt><trkpt lat="42.2611783" lon="14.16773"><ele>341.5</ele><time>2026-05-01T13:12:09.279Z</time></trkpt><trkpt lat="42.26118" lon="14.1676"><ele>340.0</ele><time>2026-05-01T13:12:10.279Z</time></trkpt><trkpt lat="42.2611717" lon="14.1674833"><ele>338.5</ele><time>2026-05-01T13:12:11.279Z</time></trkpt><trkpt lat="42.2611683" lon="14.1673617"><ele>337.0</ele><time>2026-05-01T13:12:12.279Z</time></trkpt><trkpt lat="42.2611583" lon="14.167255"><ele>335.5</ele><time>2026-05-01T13:12:13.279Z</time></trkpt><trkpt lat="42.2611533" lon="14.1671583"><ele>334.0</ele><time>2026-05-01T13:12:14.28Z</time></trkpt><trkpt lat="42.26116" lon="14.1670067"><ele>331.0</ele><time>2026-05-01T13:12:16.279Z</time></trkpt><trkpt lat="42.2612417" lon="14.1669367"><ele>328.0</ele><time>2026-05-01T13:12:18.279Z</time></trkpt><trkpt lat="42.261355" lon="14.1669967"><ele>325.0</ele><time>2026-05-01T13:12:20.279Z</time></trkpt><trkpt lat="42.261425" lon="14.1670683"><ele>322.0</ele><time>2026-05-01T13:12:21.279Z</time></trkpt><trkpt lat="42.2615017" lon="14.16714"><ele>319.0</ele><time>2026-05-01T13:12:22.279Z</time></trkpt><trkpt lat="42.2615783" lon="14.1672133"><ele>318.66666666666663</ele><time>2026-05-01T13:12:23.279Z</time></trkpt><trkpt lat="42.2616517" lon="14.1672867"><ele>318.3333333333333</ele><time>2026-05-01T13:12:24.279Z</time></trkpt><trkpt lat="42.2617167" lon="14.1673533"><ele>318.0</ele><time>2026-05-01T13:12:25.28Z</time></trkpt><trkpt lat="42.26178" lon="14.1674317"><ele>317.6666666666667</ele><time>2026-05-01T13:12:26.279Z</time></trkpt><trkpt lat="42.261845" lon="14.16751"><ele>317.33333333333337</ele><time>2026-05-01T13:12:27.279Z</time></trkpt><trkpt lat="42.2619083" lon="14.1675867"><ele>317.0</ele><time>2026-05-01T13:12:28.28Z</time></trkpt><trkpt lat="42.26196" lon="14.1676667"><ele>317.0</ele><time>2026-05-01T13:12:29.279Z</time></trkpt><trkpt lat="42.2620183" lon="14.1677283"><ele>317.0</ele><time>2026-05-01T13:12:30.279Z</time></trkpt><trkpt lat="42.2620833" lon="14.1677517"><ele>317.0</ele><time>2026-05-01T13:12:31.279Z</time></trkpt><trkpt lat="42.2621533" lon="14.167755"><ele>317.0</ele><time>2026-05-01T13:12:32.279Z</time></trkpt><trkpt lat="42.2622317" lon="14.1677367"><ele>317.0</ele><time>2026-05-01T13:12:33.279Z</time></trkpt><trkpt lat="42.2623183" lon="14.1677033"><ele>317.0</ele><time>2026-05-01T13:12:34.279Z</time></trkpt><trkpt lat="42.2624033" lon="14.1676783"><ele>312.5</ele><time>2026-05-01T13:12:35.28Z</time></trkpt><trkpt lat="42.26249" lon="14.16766"><ele>308.0</ele><time>2026-05-01T13:12:36.279Z</time></trkpt><trkpt lat="42.2625617" lon="14.167655"><ele>303.5</ele><time>2026-05-01T13:12:37.279Z</time></trkpt><trkpt lat="42.2626317" lon="14.1676633"><ele>299.0</ele><time>2026-05-01T13:12:38.279Z</time></trkpt><trkpt lat="42.2627117" lon="14.1677067"><ele>294.5</ele><time>2026-05-01T13:12:39.279Z</time></trkpt><trkpt lat="42.2628017" lon="14.16777"><ele>290.0</ele><time>2026-05-01T13:12:40.279Z</time></trkpt><trkpt lat="42.2629017" lon="14.1678483"><ele>290.0</ele><time>2026-05-01T13:12:41.279Z</time></trkpt><trkpt lat="42.2630083" lon="14.167935"><ele>290.0</ele><time>2026-05-01T13:12:42.279Z</time></trkpt><trkpt lat="42.2631133" lon="14.1680117"><ele>290.0</ele><time>2026-05-01T13:12:43.279Z</time></trkpt><trkpt lat="42.2632233" lon="14.16809"><ele>290.0</ele><time>2026-05-01T13:12:44.279Z</time></trkpt><trkpt lat="42.2633217" lon="14.16816"><ele>287.8</ele><time>2026-05-01T13:12:45.279Z</time></trkpt><trkpt lat="42.26341" lon="14.1682283"><ele>285.6</ele><time>2026-05-01T13:12:46.279Z</time></trkpt><trkpt lat="42.2635017" lon="14.1682983"><ele>283.4</ele><time>2026-05-01T13:12:47.279Z</time></trkpt><trkpt lat="42.263595" lon="14.1683533"><ele>281.2</ele><time>2026-05-01T13:12:48.279Z</time></trkpt><trkpt lat="42.2636933" lon="14.1683933"><ele>279.0</ele><time>2026-05-01T13:12:49.279Z</time></trkpt><trkpt lat="42.263785" lon="14.1684183"><ele>278.99999999999994</ele><time>2026-05-01T13:12:50.279Z</time></trkpt><trkpt lat="42.2638683" lon="14.1684283"><ele>279.0</ele><time>2026-05-01T13:12:51.279Z</time></trkpt><trkpt lat="42.263945" lon="14.168425"><ele>279.0</ele><time>2026-05-01T13:12:52.28Z</time></trkpt><trkpt lat="42.264015" lon="14.1684217"><ele>279.0</ele><time>2026-05-01T13:12:53.279Z</time></trkpt><trkpt lat="42.26408" lon="14.16841"><ele>279.0</ele><time>2026-05-01T13:12:54.279Z</time></trkpt><trkpt lat="42.264145" lon="14.16839"><ele>278.99999999999994</ele><time>2026-05-01T13:12:55.279Z</time></trkpt><trkpt lat="42.2642067" lon="14.1683633"><ele>279.0</ele><time>2026-05-01T13:12:56.279Z</time></trkpt><trkpt lat="42.2642967" lon="14.1682633"><ele>274.6666666666667</ele><time>2026-05-01T13:12:58.279Z</time></trkpt><trkpt lat="42.26436" lon="14.1681383"><ele>270.3333333333333</ele><time>2026-05-01T13:13:00.279Z</time></trkpt><trkpt lat="42.2643933" lon="14.1680483"><ele>266.0</ele><time>2026-05-01T13:13:01.279Z</time></trkpt><trkpt lat="42.2644283" lon="14.1679533"><ele>261.66666666666663</ele><time>2026-05-01T13:13:02.279Z</time></trkpt><trkpt lat="42.2644683" lon="14.16786"><ele>257.3333333333333</ele><time>2026-05-01T13:13:03.279Z</time></trkpt><trkpt lat="42.2645017" lon="14.16776"><ele>253.0</ele><time>2026-05-01T13:13:04.279Z</time></trkpt><trkpt lat="42.264545" lon="14.167665"><ele>252.99999999999997</ele><time>2026-05-01T13:13:05.279Z</time></trkpt><trkpt lat="42.264585" lon="14.167575"><ele>253.0</ele><time>2026-05-01T13:13:06.279Z</time></trkpt><trkpt lat="42.2646283" lon="14.167495"><ele>253.0</ele><time>2026-05-01T13:13:07.279Z</time></trkpt><trkpt lat="42.2646783" lon="14.1674233"><ele>253.0</ele><time>2026-05-01T13:13:08.279Z</time></trkpt><trkpt lat="42.26477" lon="14.1673617"><ele>252.99999999999997</ele><time>2026-05-01T13:13:10.279Z</time></trkpt><trkpt lat="42.2648333" lon="14.1673383"><ele>253.0</ele><time>2026-05-01T13:13:12.279Z</time></trkpt><trkpt lat="42.2649033" lon="14.1673233"><ele>248.33333333333331</ele><time>2026-05-01T13:13:15.279Z</time></trkpt><trkpt lat="42.26497" lon="14.1672817"><ele>243.66666666666666</ele><time>2026-05-01T13:13:29.28Z</time></trkpt><trkpt lat="42.26503" lon="14.16722"><ele>239.0</ele><time>2026-05-01T13:13:34.279Z</time></trkpt><trkpt lat="42.2650983" lon="14.16713"><ele>234.33333333333331</ele><time>2026-05-01T13:13:37.279Z</time></trkpt><trkpt lat="42.2651583" lon="14.1670517"><ele>229.66666666666666</ele><time>2026-05-01T13:13:39.279Z</time></trkpt><trkpt lat="42.2652217" lon="14.1669717"><ele>225.0</ele><time>2026-05-01T13:13:41.279Z</time></trkpt><trkpt lat="42.2652983" lon="14.1668617"><ele>225.0</ele><time>2026-05-01T13:13:43.279Z</time></trkpt><trkpt lat="42.265385" lon="14.16673"><ele>225.0</ele><time>2026-05-01T13:13:45.279Z</time></trkpt><trkpt lat="42.2654667" lon="14.1666117"><ele>225.0</ele><time>2026-05-01T13:13:47.279Z</time></trkpt><trkpt lat="42.2655117" lon="14.1665517"><ele>225.0</ele><time>2026-05-01T13:13:48.279Z</time></trkpt><trkpt lat="42.26556" lon="14.16649"><ele>225.0</ele><time>2026-05-01T13:13:49.279Z</time></trkpt><trkpt lat="42.2656167" lon="14.1664267"><ele>222.5714285714286</ele><time>2026-05-01T13:13:50.28Z</time></trkpt><trkpt lat="42.2656717" lon="14.1663617"><ele>220.14285714285717</ele><time>2026-05-01T13:13:51.279Z</time></trkpt><trkpt lat="42.2657267" lon="14.1662933"><ele>217.71428571428572</ele><time>2026-05-01T13:13:52.279Z</time></trkpt><trkpt lat="42.2657783" lon="14.1662217"><ele>215.2857142857143</ele><time>2026-05-01T13:13:53.28Z</time></trkpt><trkpt lat="42.2658233" lon="14.1661467"><ele>212.8571428571429</ele><time>2026-05-01T13:13:54.279Z</time></trkpt><trkpt lat="42.2658633" lon="14.1660633"><ele>210.42857142857142</ele><time>2026-05-01T13:13:55.279Z</time></trkpt><trkpt lat="42.2658983" lon="14.165985"><ele>208.0</ele><time>2026-05-01T13:13:56.279Z</time></trkpt><trkpt lat="42.2659383" lon="14.1658417"><ele>207.99999999999997</ele><time>2026-05-01T13:13:58.279Z</time></trkpt><trkpt lat="42.265965" lon="14.1657117"><ele>208.0</ele><time>2026-05-01T13:14:00.279Z</time></trkpt><trkpt lat="42.2660117" lon="14.1656117"><ele>208.0</ele><time>2026-05-01T13:14:02.279Z</time></trkpt><trkpt lat="42.266075" lon="14.165595"><ele>208.0</ele><time>2026-05-01T13:14:04.28Z</time></trkpt><trkpt lat="42.2661483" lon="14.1656583"><ele>207.99999999999997</ele><time>2026-05-01T13:14:06.279Z</time></trkpt><trkpt lat="42.26619" lon="14.165745"><ele>208.0</ele><time>2026-05-01T13:14:08.279Z</time></trkpt><trkpt lat="42.2662133" lon="14.16583"><ele>208.0</ele><time>2026-05-01T13:14:10.279Z</time></trkpt><trkpt lat="42.26623" lon="14.1659283"><ele>208.0</ele><time>2026-05-01T13:14:12.279Z</time></trkpt><trkpt lat="42.266255" lon="14.16605"><ele>208.0</ele><time>2026-05-01T13:14:14.279Z</time></trkpt><trkpt lat="42.2662817" lon="14.1661967"><ele>208.0</ele><time>2026-05-01T13:14:16.279Z</time></trkpt><trkpt lat="42.2663133" lon="14.16633"><ele>208.0</ele><time>2026-05-01T13:14:18.279Z</time></trkpt><trkpt lat="42.2663517" lon="14.1664933"><ele>207.14285714285714</ele><time>2026-05-01T13:14:20.279Z</time></trkpt><trkpt lat="42.26638" lon="14.166585"><ele>206.2857142857143</ele><time>2026-05-01T13:14:21.28Z</time></trkpt><trkpt lat="42.2664183" lon="14.16668"><ele>205.42857142857144</ele><time>2026-05-01T13:14:22.279Z</time></trkpt><trkpt lat="42.2664533" lon="14.16676"><ele>204.57142857142856</ele><time>2026-05-01T13:14:23.279Z</time></trkpt><trkpt lat="42.2664983" lon="14.1668433"><ele>203.71428571428572</ele><time>2026-05-01T13:14:24.279Z</time></trkpt><trkpt lat="42.2665367" lon="14.1669333"><ele>202.85714285714286</ele><time>2026-05-01T13:14:25.279Z</time></trkpt><trkpt lat="42.266575" lon="14.1670183"><ele>202.0</ele><time>2026-05-01T13:14:26.279Z</time></trkpt><trkpt lat="42.266615" lon="14.1671033"><ele>201.99999999999997</ele><time>2026-05-01T13:14:27.279Z</time></trkpt><trkpt lat="42.2666517" lon="14.1671933"><ele>202.0</ele><time>2026-05-01T13:14:28.279Z</time></trkpt><trkpt lat="42.2666867" lon="14.1672733"><ele>202.0</ele><time>2026-05-01T13:14:29.279Z</time></trkpt><trkpt lat="42.2667183" lon="14.1673533"><ele>202.0</ele><time>2026-05-01T13:14:30.279Z</time></trkpt><trkpt lat="42.266755" lon="14.1674383"><ele>201.99999999999997</ele><time>2026-05-01T13:14:31.279Z</time></trkpt><trkpt lat="42.2667767" lon="14.16752"><ele>202.0</ele><time>2026-05-01T13:14:32.279Z</time></trkpt><trkpt lat="42.2668483" lon="14.16768"><ele>202.16666666666666</ele><time>2026-05-01T13:14:34.28Z</time></trkpt><trkpt lat="42.266895" lon="14.167775"><ele>202.33333333333331</ele><time>2026-05-01T13:14:35.279Z</time></trkpt><trkpt lat="42.2669433" lon="14.1678583"><ele>202.5</ele><time>2026-05-01T13:14:36.279Z</time></trkpt><trkpt lat="42.2669817" lon="14.1679383"><ele>202.66666666666669</ele><time>2026-05-01T13:14:37.279Z</time></trkpt><trkpt lat="42.2670167" lon="14.16801"><ele>202.83333333333334</ele><time>2026-05-01T13:14:38.279Z</time></trkpt><trkpt lat="42.267095" lon="14.1681267"><ele>203.0</ele><time>2026-05-01T13:14:40.279Z</time></trkpt><trkpt lat="42.267175" lon="14.1682367"><ele>203.0</ele><time>2026-05-01T13:14:42.28Z</time></trkpt><trkpt lat="42.2672267" lon="14.16829"><ele>203.0</ele><time>2026-05-01T13:14:43.279Z</time></trkpt><trkpt lat="42.2673167" lon="14.1684017"><ele>203.0</ele><time>2026-05-01T13:14:45.279Z</time></trkpt><trkpt lat="42.2674033" lon="14.1685117"><ele>203.0</ele><time>2026-05-01T13:14:47.279Z</time></trkpt><trkpt lat="42.2674833" lon="14.1686217"><ele>203.0</ele><time>2026-05-01T13:14:49.279Z</time></trkpt><trkpt lat="42.267565" lon="14.1687117"><ele>200.16666666666669</ele><time>2026-05-01T13:14:51.279Z</time></trkpt><trkpt lat="42.2676333" lon="14.168735"><ele>197.33333333333334</ele><time>2026-05-01T13:14:53.279Z</time></trkpt><trkpt lat="42.2676817" lon="14.1686633"><ele>194.5</ele><time>2026-05-01T13:14:56.279Z</time></trkpt><trkpt lat="42.2676767" lon="14.1685767"><ele>191.66666666666669</ele><time>2026-05-01T13:14:58.279Z</time></trkpt><trkpt lat="42.2676733" lon="14.1684667"><ele>188.83333333333334</ele><time>2026-05-01T13:15:00.279Z</time></trkpt><trkpt lat="42.2676867" lon="14.16834"><ele>186.0</ele><time>2026-05-01T13:15:02.279Z</time></trkpt><trkpt lat="42.2676983" lon="14.1682233"><ele>185.33333333333334</ele><time>2026-05-01T13:15:04.279Z</time></trkpt><trkpt lat="42.2677133" lon="14.1681283"><ele>184.66666666666666</ele><time>2026-05-01T13:15:06.279Z</time></trkpt><trkpt lat="42.26772" lon="14.1680233"><ele>184.0</ele><time>2026-05-01T13:15:09.279Z</time></trkpt><trkpt lat="42.267725" lon="14.1679317"><ele>183.33333333333331</ele><time>2026-05-01T13:15:12.279Z</time></trkpt><trkpt lat="42.2677217" lon="14.167845"><ele>182.66666666666666</ele><time>2026-05-01T13:15:14.279Z</time></trkpt><trkpt lat="42.267715" lon="14.16772"><ele>182.0</ele><time>2026-05-01T13:15:16.279Z</time></trkpt><trkpt lat="42.2677017" lon="14.1676117"><ele>182.0</ele><time>2026-05-01T13:15:18.279Z</time></trkpt><trkpt lat="42.2676867" lon="14.16747"><ele>182.0</ele><time>2026-05-01T13:15:20.279Z</time></trkpt><trkpt lat="42.2676867" lon="14.1673783"><ele>182.0</ele><time>2026-05-01T13:15:21.279Z</time></trkpt><trkpt lat="42.2676917" lon="14.16729"><ele>182.0</ele><time>2026-05-01T13:15:22.279Z</time></trkpt><trkpt lat="42.2676917" lon="14.1672"><ele>182.0</ele><time>2026-05-01T13:15:23.279Z</time></trkpt><trkpt lat="42.2676867" lon="14.1670367"><ele>182.0</ele><time>2026-05-01T13:15:25.279Z</time></trkpt><trkpt lat="42.2676867" lon="14.1668817"><ele>181.0</ele><time>2026-05-01T13:15:27.28Z</time></trkpt><trkpt lat="42.2676817" lon="14.1667467"><ele>180.0</ele><time>2026-05-01T13:15:29.279Z</time></trkpt><trkpt lat="42.2676733" lon="14.1666133"><ele>179.0</ele><time>2026-05-01T13:15:31.279Z</time></trkpt><trkpt lat="42.2676933" lon="14.1664433"><ele>178.0</ele><time>2026-05-01T13:15:33.279Z</time></trkpt><trkpt lat="42.2677067" lon="14.16636"><ele>177.0</ele><time>2026-05-01T13:15:34.279Z</time></trkpt><trkpt lat="42.2677433" lon="14.1662233"><ele>176.6</ele><time>2026-05-01T13:15:36.279Z</time></trkpt><trkpt lat="42.2678033" lon="14.1661017"><ele>176.2</ele><time>2026-05-01T13:15:38.279Z</time></trkpt><trkpt lat="42.2678933" lon="14.1660233"><ele>175.8</ele><time>2026-05-01T13:15:40.279Z</time></trkpt><trkpt lat="42.2679883" lon="14.1659383"><ele>175.4</ele><time>2026-05-01T13:15:42.279Z</time></trkpt><trkpt lat="42.2680633" lon="14.1658433"><ele>175.0</ele><time>2026-05-01T13:15:44.279Z</time></trkpt><trkpt lat="42.2680967" lon="14.165725"><ele>174.16666666666669</ele><time>2026-05-01T13:15:46.28Z</time></trkpt><trkpt lat="42.2681033" lon="14.1656333"><ele>173.33333333333334</ele><time>2026-05-01T13:15:48.279Z</time></trkpt><trkpt lat="42.2680933" lon="14.16552"><ele>172.5</ele><time>2026-05-01T13:15:51.279Z</time></trkpt><trkpt lat="42.2680933" lon="14.1654067"><ele>171.66666666666666</ele><time>2026-05-01T13:15:53.279Z</time></trkpt><trkpt lat="42.2680817" lon="14.165275"><ele>170.83333333333331</ele><time>2026-05-01T13:15:55.279Z</time></trkpt><trkpt lat="42.26807" lon="14.1651367"><ele>170.0</ele><time>2026-05-01T13:15:57.279Z</time></trkpt><trkpt lat="42.26807" lon="14.165025"><ele>170.0</ele><time>2026-05-01T13:15:59.279Z</time></trkpt><trkpt lat="42.2680683" lon="14.16491"><ele>170.0</ele><time>2026-05-01T13:16:01.279Z</time></trkpt><trkpt lat="42.2680683" lon="14.1647633"><ele>170.0</ele><time>2026-05-01T13:16:03.279Z</time></trkpt><trkpt lat="42.2680617" lon="14.1646383"><ele>170.0</ele><time>2026-05-01T13:16:05.279Z</time></trkpt><trkpt lat="42.2680617" lon="14.16454"><ele>170.0</ele><time>2026-05-01T13:16:07.279Z</time></trkpt><trkpt lat="42.26806" lon="14.1644217"><ele>170.0</ele><time>2026-05-01T13:16:09.279Z</time></trkpt><trkpt lat="42.2680583" lon="14.1643083"><ele>167.8</ele><time>2026-05-01T13:16:11.279Z</time></trkpt><trkpt lat="42.268035" lon="14.1641583"><ele>165.6</ele><time>2026-05-01T13:16:13.279Z</time></trkpt><trkpt lat="42.2680233" lon="14.1640717"><ele>163.4</ele><time>2026-05-01T13:16:14.279Z</time></trkpt><trkpt lat="42.2680317" lon="14.1639183"><ele>161.2</ele><time>2026-05-01T13:16:16.279Z</time></trkpt><trkpt lat="42.2680467" lon="14.16378"><ele>159.0</ele><time>2026-05-01T13:16:18.279Z</time></trkpt><trkpt lat="42.26808" lon="14.1636233"><ele>156.83333333333334</ele><time>2026-05-01T13:16:20.279Z</time></trkpt><trkpt lat="42.2681033" lon="14.1635417"><ele>154.66666666666666</ele><time>2026-05-01T13:16:21.279Z</time></trkpt><trkpt lat="42.2681367" lon="14.1634167"><ele>152.5</ele><time>2026-05-01T13:16:23.279Z</time></trkpt><trkpt lat="42.26817" lon="14.1633017"><ele>150.33333333333331</ele><time>2026-05-01T13:16:25.279Z</time></trkpt><trkpt lat="42.2682017" lon="14.1631933"><ele>148.16666666666666</ele><time>2026-05-01T13:16:27.28Z</time></trkpt><trkpt lat="42.2682516" lon="14.1630737"><ele>146.0</ele><time>2026-05-01T13:16:29.279Z</time></trkpt><trkpt lat="42.2683189" lon="14.1629373"><ele>146.0</ele><time>2026-05-01T13:16:31.279Z</time></trkpt><trkpt lat="42.2683515" lon="14.1628625"><ele>146.0</ele><time>2026-05-01T13:16:32.279Z</time></trkpt><trkpt lat="42.2683893" lon="14.1627747"><ele>146.0</ele><time>2026-05-01T13:16:33.28Z</time></trkpt><trkpt lat="42.2684287" lon="14.1626805"><ele>146.0</ele><time>2026-05-01T13:16:34.28Z</time></trkpt><trkpt lat="42.2684707" lon="14.1625889"><ele>146.0</ele><time>2026-05-01T13:16:35.28Z</time></trkpt><trkpt lat="42.2685173" lon="14.1624998"><ele>146.0</ele><time>2026-05-01T13:16:36.279Z</time></trkpt><trkpt lat="42.2685673" lon="14.1624177"><ele>147.42857142857142</ele><time>2026-05-01T13:16:37.279Z</time></trkpt><trkpt lat="42.2686251" lon="14.1623551"><ele>148.85714285714286</ele><time>2026-05-01T13:16:38.279Z</time></trkpt><trkpt lat="42.2686912" lon="14.162309"><ele>150.28571428571428</ele><time>2026-05-01T13:16:39.279Z</time></trkpt><trkpt lat="42.2687615" lon="14.162277"><ele>151.71428571428572</ele><time>2026-05-01T13:16:40.279Z</time></trkpt><trkpt lat="42.2688346" lon="14.1622708"><ele>153.14285714285714</ele><time>2026-05-01T13:16:41.279Z</time></trkpt><trkpt lat="42.2689089" lon="14.1622835"><ele>154.57142857142858</ele><time>2026-05-01T13:16:42.279Z</time></trkpt><trkpt lat="42.2689771" lon="14.1622996"><ele>156.0</ele><time>2026-05-01T13:16:43.279Z</time></trkpt><trkpt lat="42.2690835" lon="14.1623051"><ele>156.0</ele><time>2026-05-01T13:16:45.279Z</time></trkpt><trkpt lat="42.2691556" lon="14.1622864"><ele>156.0</ele><time>2026-05-01T13:16:47.279Z</time></trkpt><trkpt lat="42.2692171" lon="14.1621853"><ele>156.0</ele><time>2026-05-01T13:16:49.279Z</time></trkpt><trkpt lat="42.2692425" lon="14.1619992"><ele>156.0</ele><time>2026-05-01T13:16:51.279Z</time></trkpt><trkpt lat="42.2692363" lon="14.161863"><ele>156.0</ele><time>2026-05-01T13:16:52.279Z</time></trkpt><trkpt lat="42.2692302" lon="14.1617385"><ele>156.0</ele><time>2026-05-01T13:16:53.279Z</time></trkpt><trkpt lat="42.2692171" lon="14.1616162"><ele>156.0</ele><time>2026-05-01T13:16:54.279Z</time></trkpt><trkpt lat="42.2691872" lon="14.1615068"><ele>156.0</ele><time>2026-05-01T13:16:55.279Z</time></trkpt><trkpt lat="42.269174" lon="14.1613974"><ele>156.0</ele><time>2026-05-01T13:16:56.279Z</time></trkpt><trkpt lat="42.2691623" lon="14.1612805"><ele>156.0</ele><time>2026-05-01T13:16:57.28Z</time></trkpt><trkpt lat="42.2691511" lon="14.1611653"><ele>156.0</ele><time>2026-05-01T13:16:58.279Z</time></trkpt><trkpt lat="42.2691408" lon="14.1610591"><ele>157.4</ele><time>2026-05-01T13:16:59.279Z</time></trkpt><trkpt lat="42.2691296" lon="14.1609622"><ele>158.8</ele><time>2026-05-01T13:17:00.28Z</time></trkpt><trkpt lat="42.2691067" lon="14.1608776"><ele>160.20000000000002</ele><time>2026-05-01T13:17:01.279Z</time></trkpt><trkpt lat="42.2690127" lon="14.1607756"><ele>161.6</ele><time>2026-05-01T13:17:03.28Z</time></trkpt><trkpt lat="42.2688798" lon="14.160744"><ele>163.0</ele><time>2026-05-01T13:17:05.28Z</time></trkpt><trkpt lat="42.2687899" lon="14.1607568"><ele>164.2857142857143</ele><time>2026-05-01T13:17:06.279Z</time></trkpt><trkpt lat="42.2686999" lon="14.1607742"><ele>165.57142857142856</ele><time>2026-05-01T13:17:07.278Z</time></trkpt><trkpt lat="42.2686195" lon="14.1607948"><ele>166.85714285714286</ele><time>2026-05-01T13:17:08.279Z</time></trkpt><trkpt lat="42.2685512" lon="14.1608263"><ele>168.14285714285717</ele><time>2026-05-01T13:17:09.279Z</time></trkpt><trkpt lat="42.2684906" lon="14.16086"><ele>169.42857142857144</ele><time>2026-05-01T13:17:10.279Z</time></trkpt><trkpt lat="42.2684224" lon="14.1608732"><ele>170.71428571428572</ele><time>2026-05-01T13:17:11.279Z</time></trkpt><trkpt lat="42.2683525" lon="14.1608758"><ele>172.0</ele><time>2026-05-01T13:17:12.279Z</time></trkpt><trkpt lat="42.2682424" lon="14.1609002"><ele>172.0</ele><time>2026-05-01T13:17:14.279Z</time></trkpt><trkpt lat="42.2681565" lon="14.1609388"><ele>172.0</ele><time>2026-05-01T13:17:16.279Z</time></trkpt><trkpt lat="42.2680497" lon="14.160965"><ele>172.0</ele><time>2026-05-01T13:17:18.279Z</time></trkpt><trkpt lat="42.2679305" lon="14.1609729"><ele>172.0</ele><time>2026-05-01T13:17:20.279Z</time></trkpt><trkpt lat="42.2678172" lon="14.1609765"><ele>172.0</ele><time>2026-05-01T13:17:22.279Z</time></trkpt><trkpt lat="42.267711" lon="14.1609558"><ele>172.0</ele><time>2026-05-01T13:17:24.279Z</time></trkpt><trkpt lat="42.267645" lon="14.160905"><ele>172.0</ele><time>2026-05-01T13:17:26.279Z</time></trkpt><trkpt lat="42.2676167" lon="14.1608183"><ele>172.0</ele><time>2026-05-01T13:17:28.279Z</time></trkpt><trkpt lat="42.2676467" lon="14.1606817"><ele>172.0</ele><time>2026-05-01T13:17:30.279Z</time></trkpt><trkpt lat="42.2676933" lon="14.1606167"><ele>172.0</ele><time>2026-05-01T13:17:31.279Z</time></trkpt><trkpt lat="42.2677633" lon="14.1605533"><ele>172.0</ele><time>2026-05-01T13:17:32.279Z</time></trkpt><trkpt lat="42.2678233" lon="14.16049"><ele>174.66666666666669</ele><time>2026-05-01T13:17:33.279Z</time></trkpt><trkpt lat="42.2678817" lon="14.160435"><ele>177.33333333333334</ele><time>2026-05-01T13:17:34.279Z</time></trkpt><trkpt lat="42.2679467" lon="14.1603667"><ele>180.0</ele><time>2026-05-01T13:17:35.279Z</time></trkpt><trkpt lat="42.2679933" lon="14.160285"><ele>182.66666666666666</ele><time>2026-05-01T13:17:36.279Z</time></trkpt><trkpt lat="42.2680533" lon="14.160185"><ele>185.33333333333331</ele><time>2026-05-01T13:17:37.279Z</time></trkpt><trkpt lat="42.2681117" lon="14.160075"><ele>188.0</ele><time>2026-05-01T13:17:38.279Z</time></trkpt><trkpt lat="42.2681883" lon="14.1599367"><ele>190.8</ele><time>2026-05-01T13:17:39.279Z</time></trkpt><trkpt lat="42.2682383" lon="14.1598217"><ele>193.60000000000002</ele><time>2026-05-01T13:17:40.279Z</time></trkpt><trkpt lat="42.26829" lon="14.1597317"><ele>196.39999999999998</ele><time>2026-05-01T13:17:41.28Z</time></trkpt><trkpt lat="42.2683317" lon="14.1596167"><ele>199.2</ele><time>2026-05-01T13:17:42.279Z</time></trkpt><trkpt lat="42.2683633" lon="14.1595"><ele>202.0</ele><time>2026-05-01T13:17:43.279Z</time></trkpt><trkpt lat="42.2683783" lon="14.1593883"><ele>202.0</ele><time>2026-05-01T13:17:44.279Z</time></trkpt><trkpt lat="42.2683883" lon="14.159275"><ele>202.0</ele><time>2026-05-01T13:17:45.279Z</time></trkpt><trkpt lat="42.26838" lon="14.1591733"><ele>202.0</ele><time>2026-05-01T13:17:46.279Z</time></trkpt><trkpt lat="42.26836" lon="14.1590567"><ele>202.0</ele><time>2026-05-01T13:17:47.28Z</time></trkpt><trkpt lat="42.2683467" lon="14.15891"><ele>202.0</ele><time>2026-05-01T13:17:48.279Z</time></trkpt><trkpt lat="42.2683233" lon="14.158755"><ele>204.75</ele><time>2026-05-01T13:17:49.279Z</time></trkpt><trkpt lat="42.2683067" lon="14.1585867"><ele>207.5</ele><time>2026-05-01T13:17:50.279Z</time></trkpt><trkpt lat="42.2683" lon="14.1584317"><ele>210.25</ele><time>2026-05-01T13:17:51.279Z</time></trkpt><trkpt lat="42.2682983" lon="14.1582783"><ele>213.0</ele><time>2026-05-01T13:17:52.279Z</time></trkpt><trkpt lat="42.2683033" lon="14.1581433"><ele>214.8</ele><time>2026-05-01T13:17:53.279Z</time></trkpt><trkpt lat="42.2683133" lon="14.1580183"><ele>216.60000000000002</ele><time>2026-05-01T13:17:54.28Z</time></trkpt><trkpt lat="42.26832" lon="14.1579"><ele>218.39999999999998</ele><time>2026-05-01T13:17:55.279Z</time></trkpt><trkpt lat="42.2683333" lon="14.1577933"><ele>220.2</ele><time>2026-05-01T13:17:56.279Z</time></trkpt><trkpt lat="42.2683433" lon="14.1577017"><ele>222.0</ele><time>2026-05-01T13:17:57.279Z</time></trkpt><trkpt lat="42.2683983" lon="14.1575433"><ele>222.0</ele><time>2026-05-01T13:17:59.279Z</time></trkpt><trkpt lat="42.2684517" lon="14.1573967"><ele>222.0</ele><time>2026-05-01T13:18:01.279Z</time></trkpt><trkpt lat="42.2685083" lon="14.15728"><ele>222.0</ele><time>2026-05-01T13:18:03.279Z</time></trkpt><trkpt lat="42.2685783" lon="14.1572083"><ele>222.0</ele><time>2026-05-01T13:18:05.279Z</time></trkpt><trkpt lat="42.2686842" lon="14.1571877"><ele>222.0</ele><time>2026-05-01T13:18:07.279Z</time></trkpt><trkpt lat="42.2687498" lon="14.1571829"><ele>224.66666666666666</ele><time>2026-05-01T13:18:08.279Z</time></trkpt><trkpt lat="42.2688273" lon="14.1571874"><ele>227.33333333333331</ele><time>2026-05-01T13:18:09.279Z</time></trkpt><trkpt lat="42.2689075" lon="14.157202"><ele>230.0</ele><time>2026-05-01T13:18:10.279Z</time></trkpt><trkpt lat="42.2689903" lon="14.1572273"><ele>232.66666666666666</ele><time>2026-05-01T13:18:11.279Z</time></trkpt><trkpt lat="42.2690761" lon="14.157251"><ele>235.33333333333331</ele><time>2026-05-01T13:18:12.279Z</time></trkpt><trkpt lat="42.2691666" lon="14.1572726"><ele>238.0</ele><time>2026-05-01T13:18:13.279Z</time></trkpt><trkpt lat="42.2692536" lon="14.1572857"><ele>238.16666666666666</ele><time>2026-05-01T13:18:14.279Z</time></trkpt><trkpt lat="42.2693228" lon="14.1572976"><ele>238.33333333333331</ele><time>2026-05-01T13:18:15.279Z</time></trkpt><trkpt lat="42.269421" lon="14.1573223"><ele>238.5</ele><time>2026-05-01T13:18:17.279Z</time></trkpt><trkpt lat="42.2695159" lon="14.1573325"><ele>238.66666666666669</ele><time>2026-05-01T13:18:19.279Z</time></trkpt><trkpt lat="42.2696067" lon="14.1572817"><ele>238.83333333333334</ele><time>2026-05-01T13:18:21.28Z</time></trkpt><trkpt lat="42.2696767" lon="14.1572283"><ele>239.0</ele><time>2026-05-01T13:18:22.279Z</time></trkpt><trkpt lat="42.2697417" lon="14.1571633"><ele>238.50000000000003</ele><time>2026-05-01T13:18:23.279Z</time></trkpt><trkpt lat="42.2698133" lon="14.1570833"><ele>238.0</ele><time>2026-05-01T13:18:24.279Z</time></trkpt><trkpt lat="42.2698717" lon="14.1569967"><ele>237.5</ele><time>2026-05-01T13:18:25.279Z</time></trkpt><trkpt lat="42.269915" lon="14.1569067"><ele>237.0</ele><time>2026-05-01T13:18:26.279Z</time></trkpt><trkpt lat="42.2699483" lon="14.1567983"><ele>236.50000000000003</ele><time>2026-05-01T13:18:27.279Z</time></trkpt><trkpt lat="42.2699833" lon="14.1566733"><ele>236.0</ele><time>2026-05-01T13:18:28.279Z</time></trkpt><trkpt lat="42.2700167" lon="14.1565333"><ele>237.8</ele><time>2026-05-01T13:18:29.279Z</time></trkpt><trkpt lat="42.2700533" lon="14.1563933"><ele>239.60000000000002</ele><time>2026-05-01T13:18:30.279Z</time></trkpt><trkpt lat="42.2700883" lon="14.1562617"><ele>241.4</ele><time>2026-05-01T13:18:31.279Z</time></trkpt><trkpt lat="42.270125" lon="14.156145"><ele>243.2</ele><time>2026-05-01T13:18:32.279Z</time></trkpt><trkpt lat="42.2701733" lon="14.1560367"><ele>245.0</ele><time>2026-05-01T13:18:33.279Z</time></trkpt><trkpt lat="42.27022" lon="14.1559217"><ele>245.00000000000003</ele><time>2026-05-01T13:18:34.279Z</time></trkpt><trkpt lat="42.2702633" lon="14.15582"><ele>245.0</ele><time>2026-05-01T13:18:35.279Z</time></trkpt><trkpt lat="42.2702867" lon="14.1557317"><ele>245.0</ele><time>2026-05-01T13:18:36.279Z</time></trkpt><trkpt lat="42.270255" lon="14.15557"><ele>245.0</ele><time>2026-05-01T13:18:38.279Z</time></trkpt><trkpt lat="42.270195" lon="14.1554983"><ele>245.00000000000003</ele><time>2026-05-01T13:18:40.279Z</time></trkpt><trkpt lat="42.27013" lon="14.15549"><ele>245.0</ele><time>2026-05-01T13:18:42.279Z</time></trkpt><trkpt lat="42.27003" lon="14.155515"><ele>246.16666666666669</ele><time>2026-05-01T13:18:44.279Z</time></trkpt><trkpt lat="42.26997" lon="14.1555417"><ele>247.33333333333334</ele><time>2026-05-01T13:18:45.279Z</time></trkpt><trkpt lat="42.269875" lon="14.1555683"><ele>248.5</ele><time>2026-05-01T13:18:47.279Z</time></trkpt><trkpt lat="42.26978" lon="14.1555433"><ele>249.66666666666669</ele><time>2026-05-01T13:18:49.279Z</time></trkpt><trkpt lat="42.2697117" lon="14.155425"><ele>250.83333333333334</ele><time>2026-05-01T13:18:51.279Z</time></trkpt><trkpt lat="42.2697033" lon="14.1553367"><ele>252.0</ele><time>2026-05-01T13:18:52.279Z</time></trkpt><trkpt lat="42.269755" lon="14.1551933"><ele>252.0</ele><time>2026-05-01T13:18:54.28Z</time></trkpt><trkpt lat="42.26983" lon="14.155075"><ele>252.0</ele><time>2026-05-01T13:18:56.279Z</time></trkpt><trkpt lat="42.2698733" lon="14.155005"><ele>252.0</ele><time>2026-05-01T13:18:57.279Z</time></trkpt><trkpt lat="42.2699217" lon="14.1549067"><ele>252.0</ele><time>2026-05-01T13:18:58.279Z</time></trkpt><trkpt lat="42.26998" lon="14.1547867"><ele>252.0</ele><time>2026-05-01T13:18:59.279Z</time></trkpt><trkpt lat="42.2700383" lon="14.15467"><ele>254.39999999999998</ele><time>2026-05-01T13:19:00.279Z</time></trkpt><trkpt lat="42.2700983" lon="14.1545483"><ele>256.79999999999995</ele><time>2026-05-01T13:19:01.279Z</time></trkpt><trkpt lat="42.2701567" lon="14.1544383"><ele>259.2</ele><time>2026-05-01T13:19:02.279Z</time></trkpt><trkpt lat="42.2701983" lon="14.154365"><ele>261.59999999999997</ele><time>2026-05-01T13:19:03.279Z</time></trkpt><trkpt lat="42.270235" lon="14.1542683"><ele>264.0</ele><time>2026-05-01T13:19:04.28Z</time></trkpt><trkpt lat="42.2703083" lon="14.1541533"><ele>265.2</ele><time>2026-05-01T13:19:05.279Z</time></trkpt><trkpt lat="42.27038" lon="14.154035"><ele>266.4</ele><time>2026-05-01T13:19:06.279Z</time></trkpt><trkpt lat="42.2704583" lon="14.1539183"><ele>267.6</ele><time>2026-05-01T13:19:07.279Z</time></trkpt><trkpt lat="42.27053" lon="14.1538317"><ele>268.8</ele><time>2026-05-01T13:19:08.279Z</time></trkpt><trkpt lat="42.2705933" lon="14.15378"><ele>270.0</ele><time>2026-05-01T13:19:09.279Z</time></trkpt><trkpt lat="42.270665" lon="14.1536583"><ele>270.0</ele><time>2026-05-01T13:19:10.28Z</time></trkpt><trkpt lat="42.2707433" lon="14.1535633"><ele>270.0</ele><time>2026-05-01T13:19:11.279Z</time></trkpt><trkpt lat="42.2708183" lon="14.153445"><ele>270.0</ele><time>2026-05-01T13:19:12.279Z</time></trkpt><trkpt lat="42.2708933" lon="14.1533283"><ele>270.0</ele><time>2026-05-01T13:19:13.279Z</time></trkpt><trkpt lat="42.27095" lon="14.153225"><ele>270.0</ele><time>2026-05-01T13:19:14.28Z</time></trkpt><trkpt lat="42.2709933" lon="14.1531383"><ele>271.8</ele><time>2026-05-01T13:19:15.279Z</time></trkpt><trkpt lat="42.2710283" lon="14.15305"><ele>273.6</ele><time>2026-05-01T13:19:16.28Z</time></trkpt><trkpt lat="42.2710533" lon="14.1529533"><ele>275.4</ele><time>2026-05-01T13:19:17.279Z</time></trkpt><trkpt lat="42.2710733" lon="14.15287"><ele>277.2</ele><time>2026-05-01T13:19:18.279Z</time></trkpt><trkpt lat="42.2710883" lon="14.1527617"><ele>279.0</ele><time>2026-05-01T13:19:20.279Z</time></trkpt><trkpt lat="42.271245" lon="14.15273"><ele>279.0</ele><time>2026-05-01T13:19:56.279Z</time></trkpt><trkpt lat="42.2713367" lon="14.152725"><ele>279.0</ele><time>2026-05-01T13:19:58.279Z</time></trkpt><trkpt lat="42.2714283" lon="14.1527233"><ele>279.0</ele><time>2026-05-01T13:20:00.279Z</time></trkpt><trkpt lat="42.2715083" lon="14.1527267"><ele>279.0</ele><time>2026-05-01T13:20:02.279Z</time></trkpt><trkpt lat="42.2715917" lon="14.152715"><ele>279.0</ele><time>2026-05-01T13:20:04.279Z</time></trkpt><trkpt lat="42.27167" lon="14.1526883"><ele>279.0</ele><time>2026-05-01T13:20:06.279Z</time></trkpt><trkpt lat="42.2717417" lon="14.1526817"><ele>276.6666666666667</ele><time>2026-05-01T13:20:08.279Z</time></trkpt><trkpt lat="42.2718133" lon="14.1527033"><ele>274.3333333333333</ele><time>2026-05-01T13:20:10.279Z</time></trkpt><trkpt lat="42.2718917" lon="14.15276"><ele>272.0</ele><time>2026-05-01T13:20:13.279Z</time></trkpt><trkpt lat="42.27194" lon="14.15283"><ele>269.66666666666663</ele><time>2026-05-01T13:20:15.279Z</time></trkpt><trkpt lat="42.272" lon="14.1529017"><ele>267.3333333333333</ele><time>2026-05-01T13:20:17.279Z</time></trkpt><trkpt lat="42.272055" lon="14.152985"><ele>265.0</ele><time>2026-05-01T13:20:19.28Z</time></trkpt><trkpt lat="42.2721017" lon="14.1530467"><ele>265.0</ele><time>2026-05-01T13:20:21.279Z</time></trkpt><trkpt lat="42.2721433" lon="14.1531217"><ele>265.0</ele><time>2026-05-01T13:20:23.279Z</time></trkpt><trkpt lat="42.272165" lon="14.15322"><ele>265.0</ele><time>2026-05-01T13:20:25.279Z</time></trkpt><trkpt lat="42.2722117" lon="14.153285"><ele>265.0</ele><time>2026-05-01T13:20:27.279Z</time></trkpt><trkpt lat="42.2722583" lon="14.1533733"><ele>265.0</ele><time>2026-05-01T13:20:29.279Z</time></trkpt><trkpt lat="42.272325" lon="14.1534567"><ele>265.0</ele><time>2026-05-01T13:20:31.279Z</time></trkpt><trkpt lat="42.2723917" lon="14.1535633"><ele>261.16666666666663</ele><time>2026-05-01T13:20:33.279Z</time></trkpt><trkpt lat="42.2724633" lon="14.15367"><ele>257.3333333333333</ele><time>2026-05-01T13:20:35.279Z</time></trkpt><trkpt lat="42.2725317" lon="14.15376"><ele>253.5</ele><time>2026-05-01T13:20:37.279Z</time></trkpt><trkpt lat="42.272585" lon="14.1538383"><ele>249.66666666666669</ele><time>2026-05-01T13:20:39.279Z</time></trkpt><trkpt lat="42.2726367" lon="14.1538967"><ele>245.83333333333334</ele><time>2026-05-01T13:20:41.279Z</time></trkpt><trkpt lat="42.2727083" lon="14.153975"><ele>242.0</ele><time>2026-05-01T13:20:43.279Z</time></trkpt><trkpt lat="42.2727767" lon="14.1540433"><ele>239.39999999999998</ele><time>2026-05-01T13:20:45.28Z</time></trkpt><trkpt lat="42.2728483" lon="14.15412"><ele>236.79999999999998</ele><time>2026-05-01T13:20:47.279Z</time></trkpt><trkpt lat="42.2729317" lon="14.1541867"><ele>234.2</ele><time>2026-05-01T13:20:49.279Z</time></trkpt><trkpt lat="42.2730217" lon="14.1542367"><ele>231.6</ele><time>2026-05-01T13:20:51.279Z</time></trkpt><trkpt lat="42.2731083" lon="14.1542917"><ele>229.0</ele><time>2026-05-01T13:20:53.279Z</time></trkpt><trkpt lat="42.2731917" lon="14.154335"><ele>226.49999999999997</ele><time>2026-05-01T13:20:55.279Z</time></trkpt><trkpt lat="42.2732617" lon="14.154375"><ele>224.0</ele><time>2026-05-01T13:20:57.279Z</time></trkpt><trkpt lat="42.27333" lon="14.1544483"><ele>221.5</ele><time>2026-05-01T13:20:59.279Z</time></trkpt><trkpt lat="42.2733667" lon="14.154525"><ele>219.0</ele><time>2026-05-01T13:21:01.279Z</time></trkpt><trkpt lat="42.2733883" lon="14.1546067"><ele>216.49999999999997</ele><time>2026-05-01T13:21:03.279Z</time></trkpt><trkpt lat="42.2734133" lon="14.1547083"><ele>214.0</ele><time>2026-05-01T13:21:06.28Z</time></trkpt><trkpt lat="42.2734267" lon="14.1548283"><ele>211.49999999999997</ele><time>2026-05-01T13:21:09.28Z</time></trkpt><trkpt lat="42.2734417" lon="14.1549167"><ele>209.0</ele><time>2026-05-01T13:21:13.279Z</time></trkpt><trkpt lat="42.2734733" lon="14.15501"><ele>206.5</ele><time>2026-05-01T13:21:16.279Z</time></trkpt><trkpt lat="42.2735367" lon="14.1550867"><ele>204.0</ele><time>2026-05-01T13:21:19.279Z</time></trkpt><trkpt lat="42.2736133" lon="14.1551467"><ele>201.49999999999997</ele><time>2026-05-01T13:21:21.279Z</time></trkpt><trkpt lat="42.2737017" lon="14.1552033"><ele>199.0</ele><time>2026-05-01T13:21:23.279Z</time></trkpt><trkpt lat="42.27379" lon="14.1552767"><ele>199.0</ele><time>2026-05-01T13:21:25.279Z</time></trkpt><trkpt lat="42.27387" lon="14.1553767"><ele>199.0</ele><time>2026-05-01T13:21:27.279Z</time></trkpt><trkpt lat="42.2739283" lon="14.1554867"><ele>199.0</ele><time>2026-05-01T13:21:29.279Z</time></trkpt><trkpt lat="42.274" lon="14.1556033"><ele>199.0</ele><time>2026-05-01T13:21:31.279Z</time></trkpt><trkpt lat="42.2740867" lon="14.1556517"><ele>199.0</ele><time>2026-05-01T13:21:33.279Z</time></trkpt><trkpt lat="42.2741683" lon="14.1556833"><ele>196.83333333333331</ele><time>2026-05-01T13:21:35.279Z</time></trkpt><trkpt lat="42.2742117" lon="14.1557683"><ele>194.66666666666666</ele><time>2026-05-01T13:21:37.279Z</time></trkpt><trkpt lat="42.274245" lon="14.1558917"><ele>192.5</ele><time>2026-05-01T13:21:39.279Z</time></trkpt><trkpt lat="42.2742667" lon="14.1560067"><ele>190.33333333333331</ele><time>2026-05-01T13:21:41.279Z</time></trkpt><trkpt lat="42.274295" lon="14.1560983"><ele>188.16666666666666</ele><time>2026-05-01T13:21:43.28Z</time></trkpt><trkpt lat="42.2743233" lon="14.1561833"><ele>186.0</ele><time>2026-05-01T13:21:45.279Z</time></trkpt><trkpt lat="42.27436" lon="14.1562733"><ele>186.0</ele><time>2026-05-01T13:21:48.279Z</time></trkpt><trkpt lat="42.2744017" lon="14.1563717"><ele>186.0</ele><time>2026-05-01T13:21:51.279Z</time></trkpt><trkpt lat="42.2744267" lon="14.1564633"><ele>186.0</ele><time>2026-05-01T13:21:54.279Z</time></trkpt><trkpt lat="42.27447" lon="14.1565333"><ele>186.0</ele><time>2026-05-01T13:21:57.279Z</time></trkpt><trkpt lat="42.27452" lon="14.156595"><ele>186.0</ele><time>2026-05-01T13:22:02.279Z</time></trkpt><trkpt lat="42.2746117" lon="14.1566783"><ele>186.0</ele><time>2026-05-01T13:22:26.279Z</time></trkpt><trkpt lat="42.27468" lon="14.1566883"><ele>180.0</ele><time>2026-05-01T13:22:33.279Z</time></trkpt><trkpt lat="42.2748133" lon="14.156635"><ele>174.0</ele><time>2026-05-01T13:22:47.279Z</time></trkpt><trkpt lat="42.27492" lon="14.1566133"><ele>168.0</ele><time>2026-05-01T13:22:56.279Z</time></trkpt><trkpt lat="42.2750583" lon="14.1566067"><ele>162.0</ele><time>2026-05-01T13:23:25.28Z</time></trkpt><trkpt lat="42.2751783" lon="14.1565667"><ele>162.0</ele><time>2026-05-01T13:23:39.279Z</time></trkpt><trkpt lat="42.27524" lon="14.156525"><ele>162.0</ele><time>2026-05-01T13:23:42.279Z</time></trkpt><trkpt lat="42.2753617" lon="14.1564533"><ele>162.0</ele><time>2026-05-01T13:24:10.279Z</time></trkpt><trkpt lat="42.2754517" lon="14.15645"><ele>162.0</ele><time>2026-05-01T13:24:13.279Z</time></trkpt><trkpt lat="42.2755133" lon="14.1565167"><ele>162.0</ele><time>2026-05-01T13:24:20.279Z</time></trkpt><trkpt lat="42.2755583" lon="14.1566367"><ele>162.0</ele><time>2026-05-01T13:24:23.279Z</time></trkpt><trkpt lat="42.2756" lon="14.1567483"><ele>162.0</ele><time>2026-05-01T13:24:25.28Z</time></trkpt><trkpt lat="42.2756617" lon="14.1568217"><ele>162.0</ele><time>2026-05-01T13:24:28.279Z</time></trkpt><trkpt lat="42.27573" lon="14.1568067"><ele>162.0</ele><time>2026-05-01T13:24:30.28Z</time></trkpt><trkpt lat="42.2758083" lon="14.1567333"><ele>162.0</ele><time>2026-05-01T13:24:32.279Z</time></trkpt><trkpt lat="42.2758617" lon="14.15667"><ele>162.0</ele><time>2026-05-01T13:24:33.279Z</time></trkpt><trkpt lat="42.2759167" lon="14.1566083"><ele>162.57142857142858</ele><time>2026-05-01T13:24:34.279Z</time></trkpt><trkpt lat="42.2759783" lon="14.1565567"><ele>163.14285714285714</ele><time>2026-05-01T13:24:35.279Z</time></trkpt><trkpt lat="42.27604" lon="14.1565067"><ele>163.71428571428572</ele><time>2026-05-01T13:24:36.279Z</time></trkpt><trkpt lat="42.2761083" lon="14.1564567"><ele>164.28571428571428</ele><time>2026-05-01T13:24:37.279Z</time></trkpt><trkpt lat="42.27618" lon="14.1564167"><ele>164.85714285714286</ele><time>2026-05-01T13:24:38.28Z</time></trkpt><trkpt lat="42.2762483" lon="14.156375"><ele>165.42857142857142</ele><time>2026-05-01T13:24:39.279Z</time></trkpt><trkpt lat="42.2763083" lon="14.156325"><ele>166.0</ele><time>2026-05-01T13:24:40.28Z</time></trkpt><trkpt lat="42.2763733" lon="14.15628"><ele>164.33333333333334</ele><time>2026-05-01T13:24:41.279Z</time></trkpt><trkpt lat="42.2764383" lon="14.15623"><ele>162.66666666666669</ele><time>2026-05-01T13:24:42.279Z</time></trkpt><trkpt lat="42.276505" lon="14.1561783"><ele>161.0</ele><time>2026-05-01T13:24:43.279Z</time></trkpt><trkpt lat="42.27657" lon="14.1561317"><ele>159.33333333333334</ele><time>2026-05-01T13:24:44.279Z</time></trkpt><trkpt lat="42.276645" lon="14.156085"><ele>157.66666666666666</ele><time>2026-05-01T13:24:45.279Z</time></trkpt><trkpt lat="42.2767217" lon="14.1560467"><ele>156.0</ele><time>2026-05-01T13:24:46.28Z</time></trkpt><trkpt lat="42.2768067" lon="14.1560033"><ele>156.0</ele><time>2026-05-01T13:24:47.279Z</time></trkpt><trkpt lat="42.276895" lon="14.15596"><ele>156.0</ele><time>2026-05-01T13:24:48.279Z</time></trkpt><trkpt lat="42.2769883" lon="14.1559117"><ele>156.0</ele><time>2026-05-01T13:24:49.279Z</time></trkpt><trkpt lat="42.2770683" lon="14.1558633"><ele>156.0</ele><time>2026-05-01T13:24:50.279Z</time></trkpt><trkpt lat="42.2771417" lon="14.15582"><ele>156.0</ele><time>2026-05-01T13:24:51.279Z</time></trkpt><trkpt lat="42.277205" lon="14.15578"><ele>156.0</ele><time>2026-05-01T13:24:52.279Z</time></trkpt><trkpt lat="42.2772967" lon="14.1557217"><ele>156.0</ele><time>2026-05-01T13:24:54.279Z</time></trkpt><trkpt lat="42.2773917" lon="14.1556617"><ele>156.0</ele><time>2026-05-01T13:24:56.279Z</time></trkpt><trkpt lat="42.27747" lon="14.1556267"><ele>156.0</ele><time>2026-05-01T13:24:57.279Z</time></trkpt><trkpt lat="42.2775417" lon="14.15558"><ele>156.0</ele><time>2026-05-01T13:24:58.279Z</time></trkpt><trkpt lat="42.277615" lon="14.15553"><ele>156.0</ele><time>2026-05-01T13:24:59.279Z</time></trkpt><trkpt lat="42.2776883" lon="14.1554767"><ele>156.0</ele><time>2026-05-01T13:25:00.279Z</time></trkpt><trkpt lat="42.2777567" lon="14.1554383"><ele>156.0</ele><time>2026-05-01T13:25:01.279Z</time></trkpt><trkpt lat="42.2778283" lon="14.1553983"><ele>156.0</ele><time>2026-05-01T13:25:02.279Z</time></trkpt><trkpt lat="42.2778967" lon="14.155355"><ele>156.0</ele><time>2026-05-01T13:25:03.279Z</time></trkpt><trkpt lat="42.2779667" lon="14.1553117"><ele>156.0</ele><time>2026-05-01T13:25:04.279Z</time></trkpt><trkpt lat="42.2780383" lon="14.1552617"><ele>156.0</ele><time>2026-05-01T13:25:05.279Z</time></trkpt><trkpt lat="42.2781133" lon="14.1552183"><ele>156.0</ele><time>2026-05-01T13:25:06.28Z</time></trkpt><trkpt lat="42.27818" lon="14.15518"><ele>154.0</ele><time>2026-05-01T13:25:07.279Z</time></trkpt><trkpt lat="42.2782517" lon="14.1551633"><ele>152.0</ele><time>2026-05-01T13:25:08.279Z</time></trkpt><trkpt lat="42.2783183" lon="14.1551417"><ele>150.0</ele><time>2026-05-01T13:25:09.28Z</time></trkpt><trkpt lat="42.27839" lon="14.1551067"><ele>148.0</ele><time>2026-05-01T13:25:10.279Z</time></trkpt><trkpt lat="42.27846" lon="14.1550783"><ele>146.0</ele><time>2026-05-01T13:25:11.279Z</time></trkpt><trkpt lat="42.278525" lon="14.1550433"><ele>144.0</ele><time>2026-05-01T13:25:12.279Z</time></trkpt><trkpt lat="42.2785817" lon="14.155"><ele>142.0</ele><time>2026-05-01T13:25:13.279Z</time></trkpt><trkpt lat="42.2786833" lon="14.1549283"><ele>142.0</ele><time>2026-05-01T13:25:15.279Z</time></trkpt><trkpt lat="42.2787383" lon="14.1548867"><ele>142.0</ele><time>2026-05-01T13:25:16.279Z</time></trkpt><trkpt lat="42.278795" lon="14.15484"><ele>142.0</ele><time>2026-05-01T13:25:17.279Z</time></trkpt><trkpt lat="42.2788533" lon="14.15479"><ele>142.0</ele><time>2026-05-01T13:25:18.279Z</time></trkpt><trkpt lat="42.278915" lon="14.1547433"><ele>142.0</ele><time>2026-05-01T13:25:19.279Z</time></trkpt><trkpt lat="42.2789933" lon="14.15469"><ele>142.0</ele><time>2026-05-01T13:25:20.279Z</time></trkpt><trkpt lat="42.2790717" lon="14.1546417"><ele>142.0</ele><time>2026-05-01T13:25:21.279Z</time></trkpt><trkpt lat="42.2791433" lon="14.154595"><ele>141.83333333333334</ele><time>2026-05-01T13:25:22.279Z</time></trkpt><trkpt lat="42.279215" lon="14.1545517"><ele>141.66666666666669</ele><time>2026-05-01T13:25:23.279Z</time></trkpt><trkpt lat="42.279295" lon="14.1545067"><ele>141.5</ele><time>2026-05-01T13:25:24.279Z</time></trkpt><trkpt lat="42.2793733" lon="14.15445"><ele>141.33333333333334</ele><time>2026-05-01T13:25:25.279Z</time></trkpt><trkpt lat="42.2794467" lon="14.1544067"><ele>141.16666666666666</ele><time>2026-05-01T13:25:26.28Z</time></trkpt><trkpt lat="42.2795117" lon="14.1543617"><ele>141.0</ele><time>2026-05-01T13:25:27.279Z</time></trkpt><trkpt lat="42.279575" lon="14.1543217"><ele>141.0</ele><time>2026-05-01T13:25:28.279Z</time></trkpt><trkpt lat="42.27965" lon="14.1542683"><ele>141.0</ele><time>2026-05-01T13:25:29.279Z</time></trkpt><trkpt lat="42.2797383" lon="14.15422"><ele>141.0</ele><time>2026-05-01T13:25:30.28Z</time></trkpt><trkpt lat="42.2798317" lon="14.1541767"><ele>141.0</ele><time>2026-05-01T13:25:31.279Z</time></trkpt><trkpt lat="42.27992" lon="14.1541267"><ele>141.0</ele><time>2026-05-01T13:25:32.28Z</time></trkpt><trkpt lat="42.2799983" lon="14.1540783"><ele>141.33333333333334</ele><time>2026-05-01T13:25:33.279Z</time></trkpt><trkpt lat="42.2800833" lon="14.154035"><ele>141.66666666666666</ele><time>2026-05-01T13:25:34.279Z</time></trkpt><trkpt lat="42.28017" lon="14.1539867"><ele>142.0</ele><time>2026-05-01T13:25:35.28Z</time></trkpt><trkpt lat="42.2802533" lon="14.1539383"><ele>142.33333333333331</ele><time>2026-05-01T13:25:36.279Z</time></trkpt><trkpt lat="42.2803317" lon="14.1538817"><ele>142.66666666666666</ele><time>2026-05-01T13:25:37.279Z</time></trkpt><trkpt lat="42.280405" lon="14.15383"><ele>143.0</ele><time>2026-05-01T13:25:38.279Z</time></trkpt><trkpt lat="42.28048" lon="14.153785"><ele>143.0</ele><time>2026-05-01T13:25:39.279Z</time></trkpt><trkpt lat="42.280565" lon="14.153745"><ele>143.0</ele><time>2026-05-01T13:25:40.28Z</time></trkpt><trkpt lat="42.28065" lon="14.1537167"><ele>143.0</ele><time>2026-05-01T13:25:41.279Z</time></trkpt><trkpt lat="42.2807367" lon="14.153685"><ele>143.0</ele><time>2026-05-01T13:25:42.279Z</time></trkpt><trkpt lat="42.2808133" lon="14.1536583"><ele>143.0</ele><time>2026-05-01T13:25:43.279Z</time></trkpt><trkpt lat="42.2808817" lon="14.1536367"><ele>143.0</ele><time>2026-05-01T13:25:44.279Z</time></trkpt><trkpt lat="42.2809433" lon="14.1536133"><ele>141.33333333333331</ele><time>2026-05-01T13:25:45.279Z</time></trkpt><trkpt lat="42.2810383" lon="14.1535767"><ele>139.66666666666666</ele><time>2026-05-01T13:25:47.279Z</time></trkpt><trkpt lat="42.2811167" lon="14.1535617"><ele>138.0</ele><time>2026-05-01T13:25:50.279Z</time></trkpt><trkpt lat="42.2812083" lon="14.1535383"><ele>136.33333333333334</ele><time>2026-05-01T13:25:53.279Z</time></trkpt><trkpt lat="42.281275" lon="14.153525"><ele>134.66666666666669</ele><time>2026-05-01T13:25:55.279Z</time></trkpt><trkpt lat="42.2813533" lon="14.1534883"><ele>133.0</ele><time>2026-05-01T13:25:57.279Z</time></trkpt><trkpt lat="42.2814333" lon="14.1534333"><ele>130.8</ele><time>2026-05-01T13:25:59.279Z</time></trkpt><trkpt lat="42.2814983" lon="14.1533683"><ele>128.60000000000002</ele><time>2026-05-01T13:26:01.279Z</time></trkpt><trkpt lat="42.2815833" lon="14.1532617"><ele>126.39999999999999</ele><time>2026-05-01T13:26:03.279Z</time></trkpt><trkpt lat="42.2817117" lon="14.1531933"><ele>124.19999999999999</ele><time>2026-05-01T13:26:05.279Z</time></trkpt><trkpt lat="42.281795" lon="14.1531833"><ele>122.0</ele><time>2026-05-01T13:26:06.279Z</time></trkpt><trkpt lat="42.2818583" lon="14.15316"><ele>121.66666666666666</ele><time>2026-05-01T13:26:07.279Z</time></trkpt><trkpt lat="42.2819483" lon="14.1531483"><ele>121.33333333333333</ele><time>2026-05-01T13:26:08.279Z</time></trkpt><trkpt lat="42.282015" lon="14.1531233"><ele>121.0</ele><time>2026-05-01T13:26:09.279Z</time></trkpt><trkpt lat="42.2821033" lon="14.1530967"><ele>120.66666666666666</ele><time>2026-05-01T13:26:10.279Z</time></trkpt><trkpt lat="42.282175" lon="14.153065"><ele>120.33333333333333</ele><time>2026-05-01T13:26:11.279Z</time></trkpt><trkpt lat="42.2822467" lon="14.1530383"><ele>120.0</ele><time>2026-05-01T13:26:12.279Z</time></trkpt><trkpt lat="42.2823117" lon="14.1530183"><ele>119.5</ele><time>2026-05-01T13:26:13.279Z</time></trkpt><trkpt lat="42.28245" lon="14.1530267"><ele>119.0</ele><time>2026-05-01T13:26:29.279Z</time></trkpt><trkpt lat="42.282475" lon="14.1529417"><ele>118.5</ele><time>2026-05-01T13:26:48.28Z</time></trkpt><trkpt lat="42.2825" lon="14.1528383"><ele>118.0</ele><time>2026-05-01T13:26:53.279Z</time></trkpt><trkpt lat="42.2824967" lon="14.1527117"><ele>117.5</ele><time>2026-05-01T13:26:55.279Z</time></trkpt><trkpt lat="42.2824717" lon="14.152625"><ele>117.0</ele><time>2026-05-01T13:26:56.279Z</time></trkpt><trkpt lat="42.282465" lon="14.1525383"><ele>117.0</ele><time>2026-05-01T13:26:57.279Z</time></trkpt><trkpt lat="42.2824383" lon="14.1524567"><ele>117.0</ele><time>2026-05-01T13:26:58.28Z</time></trkpt><trkpt lat="42.2823933" lon="14.152335"><ele>117.0</ele><time>2026-05-01T13:27:00.279Z</time></trkpt><trkpt lat="42.2823533" lon="14.15225"><ele>117.0</ele><time>2026-05-01T13:27:02.279Z</time></trkpt><trkpt lat="42.2823267" lon="14.1521717"><ele>117.0</ele><time>2026-05-01T13:27:04.279Z</time></trkpt><trkpt lat="42.2823933" lon="14.1521133"><ele>117.0</ele><time>2026-05-01T13:27:07.279Z</time></trkpt><trkpt lat="42.2825433" lon="14.1521417"><ele>117.33333333333333</ele><time>2026-05-01T13:27:09.28Z</time></trkpt><trkpt lat="42.2826383" lon="14.1521483"><ele>117.66666666666666</ele><time>2026-05-01T13:27:10.279Z</time></trkpt><trkpt lat="42.282725" lon="14.1521483"><ele>118.0</ele><time>2026-05-01T13:27:11.279Z</time></trkpt><trkpt lat="42.282805" lon="14.1521483"><ele>118.33333333333333</ele><time>2026-05-01T13:27:12.279Z</time></trkpt><trkpt lat="42.2828917" lon="14.1521417"><ele>118.66666666666666</ele><time>2026-05-01T13:27:13.279Z</time></trkpt><trkpt lat="42.2829683" lon="14.1520983"><ele>119.0</ele><time>2026-05-01T13:27:14.279Z</time></trkpt><trkpt lat="42.2830283" lon="14.1520417"><ele>119.0</ele><time>2026-05-01T13:27:15.279Z</time></trkpt><trkpt lat="42.283075" lon="14.15195"><ele>119.0</ele><time>2026-05-01T13:27:16.279Z</time></trkpt><trkpt lat="42.2830983" lon="14.15183"><ele>119.0</ele><time>2026-05-01T13:27:17.279Z</time></trkpt><trkpt lat="42.2831133" lon="14.1516883"><ele>119.0</ele><time>2026-05-01T13:27:18.279Z</time></trkpt><trkpt lat="42.2831283" lon="14.151545"><ele>119.0</ele><time>2026-05-01T13:27:19.279Z</time></trkpt><trkpt lat="42.2831417" lon="14.151415"><ele>119.66666666666666</ele><time>2026-05-01T13:27:20.279Z</time></trkpt><trkpt lat="42.2831617" lon="14.151315"><ele>120.33333333333333</ele><time>2026-05-01T13:27:21.279Z</time></trkpt><trkpt lat="42.28321" lon="14.151195"><ele>121.0</ele><time>2026-05-01T13:27:23.279Z</time></trkpt><trkpt lat="42.2832233" lon="14.151085"><ele>121.66666666666666</ele><time>2026-05-01T13:27:26.279Z</time></trkpt><trkpt lat="42.2831433" lon="14.1510033"><ele>122.33333333333333</ele><time>2026-05-01T13:27:28.279Z</time></trkpt><trkpt lat="42.2830717" lon="14.1509617"><ele>123.0</ele><time>2026-05-01T13:27:29.279Z</time></trkpt><trkpt lat="42.282995" lon="14.1509167"><ele>123.0</ele><time>2026-05-01T13:27:30.279Z</time></trkpt><trkpt lat="42.2829033" lon="14.1508583"><ele>123.0</ele><time>2026-05-01T13:27:31.279Z</time></trkpt><trkpt lat="42.2828067" lon="14.1507817"><ele>123.0</ele><time>2026-05-01T13:27:32.279Z</time></trkpt><trkpt lat="42.2827067" lon="14.1506833"><ele>123.0</ele><time>2026-05-01T13:27:33.28Z</time></trkpt><trkpt lat="42.2826217" lon="14.15058"><ele>126.0</ele><time>2026-05-01T13:27:34.279Z</time></trkpt><trkpt lat="42.2825333" lon="14.1504383"><ele>129.0</ele><time>2026-05-01T13:27:35.279Z</time></trkpt><trkpt lat="42.2824433" lon="14.1502683"><ele>132.0</ele><time>2026-05-01T13:27:36.279Z</time></trkpt><trkpt lat="42.2823517" lon="14.150085"><ele>129.33333333333334</ele><time>2026-05-01T13:27:37.279Z</time></trkpt><trkpt lat="42.2822633" lon="14.1499133"><ele>126.66666666666667</ele><time>2026-05-01T13:27:38.279Z</time></trkpt><trkpt lat="42.2821767" lon="14.1497367"><ele>124.0</ele><time>2026-05-01T13:27:39.279Z</time></trkpt><trkpt lat="42.2820883" lon="14.1495567"><ele>124.0</ele><time>2026-05-01T13:27:40.279Z</time></trkpt><trkpt lat="42.2819967" lon="14.1493683"><ele>124.0</ele><time>2026-05-01T13:27:41.279Z</time></trkpt><trkpt lat="42.2818933" lon="14.1491817"><ele>124.0</ele><time>2026-05-01T13:27:42.279Z</time></trkpt><trkpt lat="42.2818083" lon="14.1490017"><ele>125.33333333333334</ele><time>2026-05-01T13:27:43.279Z</time></trkpt><trkpt lat="42.2817117" lon="14.1488233"><ele>126.66666666666666</ele><time>2026-05-01T13:27:44.279Z</time></trkpt><trkpt lat="42.28163" lon="14.1486533"><ele>128.0</ele><time>2026-05-01T13:27:45.279Z</time></trkpt><trkpt lat="42.2815483" lon="14.1484833"><ele>128.0</ele><time>2026-05-01T13:27:46.279Z</time></trkpt><trkpt lat="42.2814733" lon="14.1483133"><ele>128.0</ele><time>2026-05-01T13:27:47.279Z</time></trkpt><trkpt lat="42.2813917" lon="14.1481567"><ele>128.0</ele><time>2026-05-01T13:27:48.28Z</time></trkpt><trkpt lat="42.2813317" lon="14.1480433"><ele>128.0</ele><time>2026-05-01T13:27:49.279Z</time></trkpt><trkpt lat="42.2812767" lon="14.1479183"><ele>128.20000000000002</ele><time>2026-05-01T13:27:50.28Z</time></trkpt><trkpt lat="42.2812383" lon="14.147835"><ele>128.4</ele><time>2026-05-01T13:27:51.279Z</time></trkpt><trkpt lat="42.281195" lon="14.14773"><ele>128.60000000000002</ele><time>2026-05-01T13:27:53.279Z</time></trkpt><trkpt lat="42.2812767" lon="14.1475517"><ele>128.8</ele><time>2026-05-01T13:28:02.279Z</time></trkpt><trkpt lat="42.2813633" lon="14.1474667"><ele>129.0</ele><time>2026-05-01T13:28:04.279Z</time></trkpt><trkpt lat="42.2814467" lon="14.1473917"><ele>129.4</ele><time>2026-05-01T13:28:06.279Z</time></trkpt><trkpt lat="42.2814933" lon="14.14729"><ele>129.8</ele><time>2026-05-01T13:28:08.28Z</time></trkpt><trkpt lat="42.2815567" lon="14.14717"><ele>130.2</ele><time>2026-05-01T13:28:10.28Z</time></trkpt><trkpt lat="42.2816033" lon="14.1470233"><ele>130.6</ele><time>2026-05-01T13:28:12.279Z</time></trkpt><trkpt lat="42.2816117" lon="14.1468933"><ele>131.0</ele><time>2026-05-01T13:28:14.279Z</time></trkpt><trkpt lat="42.281605" lon="14.1468067"><ele>131.0</ele><time>2026-05-01T13:28:16.279Z</time></trkpt><trkpt lat="42.281585" lon="14.146615"><ele>131.0</ele><time>2026-05-01T13:29:48.279Z</time></trkpt><trkpt lat="42.2815583" lon="14.1464917"><ele>131.0</ele><time>2026-05-01T13:29:50.279Z</time></trkpt><trkpt lat="42.2815283" lon="14.1463633"><ele>131.0</ele><time>2026-05-01T13:29:52.279Z</time></trkpt><trkpt lat="42.2814983" lon="14.1462433"><ele>131.0</ele><time>2026-05-01T13:29:54.279Z</time></trkpt><trkpt lat="42.2814783" lon="14.1461433"><ele>131.16666666666666</ele><time>2026-05-01T13:29:56.279Z</time></trkpt><trkpt lat="42.281455" lon="14.14606"><ele>131.33333333333331</ele><time>2026-05-01T13:30:01.279Z</time></trkpt><trkpt lat="42.2814333" lon="14.14596"><ele>131.5</ele><time>2026-05-01T13:30:04.279Z</time></trkpt><trkpt lat="42.281405" lon="14.1458467"><ele>131.66666666666666</ele><time>2026-05-01T13:30:06.279Z</time></trkpt><trkpt lat="42.28136" lon="14.1457217"><ele>131.83333333333334</ele><time>2026-05-01T13:30:08.279Z</time></trkpt><trkpt lat="42.2812967" lon="14.1456167"><ele>132.0</ele><time>2026-05-01T13:30:10.279Z</time></trkpt><trkpt lat="42.281245" lon="14.1455083"><ele>133.66666666666666</ele><time>2026-05-01T13:30:12.279Z</time></trkpt><trkpt lat="42.28122" lon="14.1454017"><ele>135.33333333333334</ele><time>2026-05-01T13:30:14.279Z</time></trkpt><trkpt lat="42.2812133" lon="14.145315"><ele>137.0</ele><time>2026-05-01T13:30:17.279Z</time></trkpt><trkpt lat="42.2812017" lon="14.14523"><ele>138.66666666666669</ele><time>2026-05-01T13:30:25.279Z</time></trkpt><trkpt lat="42.2812067" lon="14.1451033"><ele>140.33333333333334</ele><time>2026-05-01T13:30:29.279Z</time></trkpt><trkpt lat="42.2812205" lon="14.144949"><ele>142.0</ele><time>2026-05-01T13:30:31.279Z</time></trkpt><trkpt lat="42.2812278" lon="14.1448575"><ele>143.14285714285714</ele><time>2026-05-01T13:30:32.28Z</time></trkpt><trkpt lat="42.2812336" lon="14.14476"><ele>144.28571428571428</ele><time>2026-05-01T13:30:33.279Z</time></trkpt><trkpt lat="42.2812401" lon="14.1446552"><ele>145.42857142857142</ele><time>2026-05-01T13:30:34.279Z</time></trkpt><trkpt lat="42.2812489" lon="14.1445475"><ele>146.57142857142856</ele><time>2026-05-01T13:30:35.279Z</time></trkpt><trkpt lat="42.281265" lon="14.1444517"><ele>147.71428571428572</ele><time>2026-05-01T13:30:36.279Z</time></trkpt><trkpt lat="42.2812717" lon="14.1443667"><ele>148.85714285714283</ele><time>2026-05-01T13:30:37.28Z</time></trkpt><trkpt lat="42.2812767" lon="14.1442783"><ele>150.0</ele><time>2026-05-01T13:30:38.279Z</time></trkpt><trkpt lat="42.2812917" lon="14.14419"><ele>150.0</ele><time>2026-05-01T13:30:39.279Z</time></trkpt><trkpt lat="42.2813167" lon="14.14411"><ele>150.0</ele><time>2026-05-01T13:30:40.279Z</time></trkpt><trkpt lat="42.28132" lon="14.144025"><ele>150.0</ele><time>2026-05-01T13:30:41.279Z</time></trkpt><trkpt lat="42.281325" lon="14.1439267"><ele>150.0</ele><time>2026-05-01T13:30:42.279Z</time></trkpt><trkpt lat="42.2813317" lon="14.1437633"><ele>150.0</ele><time>2026-05-01T13:30:44.279Z</time></trkpt><trkpt lat="42.281345" lon="14.143615"><ele>150.0</ele><time>2026-05-01T13:30:46.279Z</time></trkpt><trkpt lat="42.2813367" lon="14.1434817"><ele>152.2</ele><time>2026-05-01T13:30:48.279Z</time></trkpt><trkpt lat="42.2813167" lon="14.143375"><ele>154.4</ele><time>2026-05-01T13:30:50.279Z</time></trkpt><trkpt lat="42.28129" lon="14.14325"><ele>156.60000000000002</ele><time>2026-05-01T13:30:52.279Z</time></trkpt><trkpt lat="42.2812567" lon="14.143125"><ele>158.8</ele><time>2026-05-01T13:30:54.279Z</time></trkpt><trkpt lat="42.281235" lon="14.1429883"><ele>161.0</ele><time>2026-05-01T13:30:56.279Z</time></trkpt><trkpt lat="42.2812883" lon="14.1428633"><ele>162.8</ele><time>2026-05-01T13:30:58.279Z</time></trkpt><trkpt lat="42.2813667" lon="14.1427583"><ele>164.60000000000002</ele><time>2026-05-01T13:31:00.279Z</time></trkpt><trkpt lat="42.28144" lon="14.1426583"><ele>166.4</ele><time>2026-05-01T13:31:02.279Z</time></trkpt><trkpt lat="42.2815133" lon="14.1425567"><ele>168.2</ele><time>2026-05-01T13:31:04.28Z</time></trkpt><trkpt lat="42.2815483" lon="14.1424683"><ele>170.0</ele><time>2026-05-01T13:31:06.279Z</time></trkpt><trkpt lat="42.2814967" lon="14.142395"><ele>174.4</ele><time>2026-05-01T13:31:09.279Z</time></trkpt><trkpt lat="42.281415" lon="14.14238"><ele>178.8</ele><time>2026-05-01T13:31:11.28Z</time></trkpt><trkpt lat="42.2813367" lon="14.1423583"><ele>183.2</ele><time>2026-05-01T13:31:13.279Z</time></trkpt><trkpt lat="42.2812383" lon="14.1423333"><ele>187.6</ele><time>2026-05-01T13:31:15.279Z</time></trkpt><trkpt lat="42.2811467" lon="14.1422917"><ele>192.0</ele><time>2026-05-01T13:31:17.279Z</time></trkpt><trkpt lat="42.2810483" lon="14.14223"><ele>192.0</ele><time>2026-05-01T13:31:19.279Z</time></trkpt><trkpt lat="42.2809717" lon="14.1421383"><ele>192.0</ele><time>2026-05-01T13:31:21.279Z</time></trkpt><trkpt lat="42.2809433" lon="14.1420217"><ele>192.0</ele><time>2026-05-01T13:31:23.279Z</time></trkpt><trkpt lat="42.28093" lon="14.1418867"><ele>192.0</ele><time>2026-05-01T13:31:25.279Z</time></trkpt><trkpt lat="42.2809" lon="14.1417583"><ele>192.0</ele><time>2026-05-01T13:31:27.279Z</time></trkpt><trkpt lat="42.280875" lon="14.1416083"><ele>192.0</ele><time>2026-05-01T13:31:29.279Z</time></trkpt><trkpt lat="42.2808583" lon="14.1414467"><ele>192.0</ele><time>2026-05-01T13:31:31.279Z</time></trkpt><trkpt lat="42.280845" lon="14.141305"><ele>192.0</ele><time>2026-05-01T13:31:33.279Z</time></trkpt><trkpt lat="42.2808267" lon="14.14122"><ele>192.0</ele><time>2026-05-01T13:31:34.279Z</time></trkpt><trkpt lat="42.280795" lon="14.1410633"><ele>192.0</ele><time>2026-05-01T13:31:36.279Z</time></trkpt><trkpt lat="42.280815" lon="14.14097"><ele>192.0</ele><time>2026-05-01T13:31:38.279Z</time></trkpt><trkpt lat="42.2808917" lon="14.1409217"><ele>192.0</ele><time>2026-05-01T13:31:40.279Z</time></trkpt><trkpt lat="42.2809733" lon="14.1408917"><ele>192.0</ele><time>2026-05-01T13:31:42.28Z</time></trkpt><trkpt lat="42.2810191" lon="14.1408271"><ele>192.0</ele><time>2026-05-01T13:36:28.366Z</time></trkpt><trkpt lat="42.2810833" lon="14.1408067"><ele>192.0</ele><time>2026-05-01T13:42:50.279Z</time></trkpt><trkpt lat="42.2811717" lon="14.1407483"><ele>192.0</ele><time>2026-05-01T13:42:53.279Z</time></trkpt><trkpt lat="42.28126" lon="14.140705"><ele>189.0</ele><time>2026-05-01T13:42:55.279Z</time></trkpt><trkpt lat="42.2813683" lon="14.140655"><ele>186.0</ele><time>2026-05-01T13:42:57.279Z</time></trkpt><trkpt lat="42.2814683" lon="14.1406083"><ele>183.0</ele><time>2026-05-01T13:42:59.279Z</time></trkpt><trkpt lat="42.281565" lon="14.1405533"><ele>180.0</ele><time>2026-05-01T13:43:01.279Z</time></trkpt><trkpt lat="42.2816483" lon="14.140475"><ele>177.0</ele><time>2026-05-01T13:43:03.279Z</time></trkpt><trkpt lat="42.2817217" lon="14.140385"><ele>183.39999999999998</ele><time>2026-05-01T13:43:05.279Z</time></trkpt><trkpt lat="42.2818083" lon="14.14028"><ele>189.79999999999998</ele><time>2026-05-01T13:43:07.28Z</time></trkpt><trkpt lat="42.281855" lon="14.1402167"><ele>196.2</ele><time>2026-05-01T13:43:08.279Z</time></trkpt><trkpt lat="42.2819317" lon="14.1401033"><ele>202.6</ele><time>2026-05-01T13:43:10.279Z</time></trkpt><trkpt lat="42.281985" lon="14.1400033"><ele>209.0</ele><time>2026-05-01T13:43:12.279Z</time></trkpt><trkpt lat="42.2820367" lon="14.139935"><ele>209.66666666666669</ele><time>2026-05-01T13:43:13.28Z</time></trkpt><trkpt lat="42.2821" lon="14.1398633"><ele>210.33333333333334</ele><time>2026-05-01T13:43:14.279Z</time></trkpt><trkpt lat="42.2821567" lon="14.1398033"><ele>211.0</ele><time>2026-05-01T13:43:15.279Z</time></trkpt><trkpt lat="42.2822183" lon="14.1397367"><ele>211.66666666666669</ele><time>2026-05-01T13:43:16.279Z</time></trkpt><trkpt lat="42.2822883" lon="14.1396683"><ele>212.33333333333334</ele><time>2026-05-01T13:43:17.279Z</time></trkpt><trkpt lat="42.2823633" lon="14.1395883"><ele>213.0</ele><time>2026-05-01T13:43:18.279Z</time></trkpt><trkpt lat="42.2824383" lon="14.1395067"><ele>213.0</ele><time>2026-05-01T13:43:19.28Z</time></trkpt><trkpt lat="42.2825133" lon="14.1394167"><ele>213.0</ele><time>2026-05-01T13:43:20.279Z</time></trkpt><trkpt lat="42.2825883" lon="14.1393133"><ele>213.0</ele><time>2026-05-01T13:43:21.279Z</time></trkpt><trkpt lat="42.2826667" lon="14.1392117"><ele>213.0</ele><time>2026-05-01T13:43:22.279Z</time></trkpt><trkpt lat="42.2827433" lon="14.139095"><ele>213.0</ele><time>2026-05-01T13:43:23.279Z</time></trkpt><trkpt lat="42.2828217" lon="14.1389733"><ele>213.8</ele><time>2026-05-01T13:43:24.279Z</time></trkpt><trkpt lat="42.2829083" lon="14.1388617"><ele>214.60000000000002</ele><time>2026-05-01T13:43:25.279Z</time></trkpt><trkpt lat="42.2829733" lon="14.1387617"><ele>215.39999999999998</ele><time>2026-05-01T13:43:26.279Z</time></trkpt><trkpt lat="42.2830367" lon="14.1386633"><ele>216.2</ele><time>2026-05-01T13:43:27.279Z</time></trkpt><trkpt lat="42.2830967" lon="14.1385717"><ele>217.0</ele><time>2026-05-01T13:43:28.279Z</time></trkpt><trkpt lat="42.2831617" lon="14.138495"><ele>216.99999999999997</ele><time>2026-05-01T13:43:29.279Z</time></trkpt><trkpt lat="42.283225" lon="14.1384283"><ele>217.0</ele><time>2026-05-01T13:43:30.279Z</time></trkpt><trkpt lat="42.2832833" lon="14.1383817"><ele>217.0</ele><time>2026-05-01T13:43:31.279Z</time></trkpt><trkpt lat="42.2833467" lon="14.138315"><ele>217.0</ele><time>2026-05-01T13:43:33.279Z</time></trkpt><trkpt lat="42.28331" lon="14.1382367"><ele>216.99999999999997</ele><time>2026-05-01T13:43:36.279Z</time></trkpt><trkpt lat="42.2832067" lon="14.1382017"><ele>217.0</ele><time>2026-05-01T13:43:38.279Z</time></trkpt><trkpt lat="42.28314" lon="14.13818"><ele>214.33333333333331</ele><time>2026-05-01T13:43:39.28Z</time></trkpt><trkpt lat="42.2830667" lon="14.138155"><ele>211.66666666666666</ele><time>2026-05-01T13:43:40.28Z</time></trkpt><trkpt lat="42.282955" lon="14.1381133"><ele>209.0</ele><time>2026-05-01T13:43:42.279Z</time></trkpt><trkpt lat="42.28288" lon="14.1381033"><ele>206.33333333333331</ele><time>2026-05-01T13:43:44.28Z</time></trkpt><trkpt lat="42.2827983" lon="14.1380883"><ele>203.66666666666666</ele><time>2026-05-01T13:43:46.279Z</time></trkpt><trkpt lat="42.2827333" lon="14.138075"><ele>201.0</ele><time>2026-05-01T13:43:48.279Z</time></trkpt><trkpt lat="42.28273" lon="14.13797"><ele>201.0</ele><time>2026-05-01T13:43:51.279Z</time></trkpt><trkpt lat="42.2827783" lon="14.137915"><ele>201.0</ele><time>2026-05-01T13:43:53.279Z</time></trkpt><trkpt lat="42.2828459" lon="14.1378921"><ele>201.0</ele><time>2026-05-01T13:43:55.186Z</time></trkpt><trkpt lat="42.2829091" lon="14.1378122"><ele>201.0</ele><time>2026-05-01T13:43:57.303Z</time></trkpt><trkpt lat="42.2829595" lon="14.1377065"><ele>201.0</ele><time>2026-05-01T13:43:59.202Z</time></trkpt><trkpt lat="42.2829663" lon="14.1376015"><ele>201.0</ele><time>2026-05-01T13:44:01.279Z</time></trkpt><trkpt lat="42.2829508" lon="14.1375086"><ele>201.0</ele><time>2026-05-01T13:44:04.279Z</time></trkpt><trkpt lat="42.2829183" lon="14.1374333"><ele>201.0</ele><time>2026-05-01T13:44:07.279Z</time></trkpt><trkpt lat="42.2828817" lon="14.1373483"><ele>201.0</ele><time>2026-05-01T13:44:09.279Z</time></trkpt><trkpt lat="42.2828383" lon="14.137235"><ele>201.0</ele><time>2026-05-01T13:44:11.279Z</time></trkpt><trkpt lat="42.2828133" lon="14.137105"><ele>201.0</ele><time>2026-05-01T13:44:13.279Z</time></trkpt><trkpt lat="42.2828083" lon="14.1369617"><ele>201.0</ele><time>2026-05-01T13:44:15.279Z</time></trkpt><trkpt lat="42.2828067" lon="14.1368183"><ele>202.0</ele><time>2026-05-01T13:44:17.279Z</time></trkpt><trkpt lat="42.2827967" lon="14.1366767"><ele>203.0</ele><time>2026-05-01T13:44:19.279Z</time></trkpt><trkpt lat="42.28276" lon="14.1365417"><ele>204.0</ele><time>2026-05-01T13:44:21.279Z</time></trkpt><trkpt lat="42.2827433" lon="14.1364567"><ele>205.0</ele><time>2026-05-01T13:44:22.279Z</time></trkpt><trkpt lat="42.2827233" lon="14.136355"><ele>206.0</ele><time>2026-05-01T13:44:23.28Z</time></trkpt><trkpt lat="42.28269" lon="14.1362617"><ele>207.0</ele><time>2026-05-01T13:44:24.279Z</time></trkpt><trkpt lat="42.28265" lon="14.1361833"><ele>208.16666666666666</ele><time>2026-05-01T13:44:25.279Z</time></trkpt><trkpt lat="42.2826067" lon="14.136115"><ele>209.33333333333331</ele><time>2026-05-01T13:44:26.279Z</time></trkpt><trkpt lat="42.2825567" lon="14.136045"><ele>210.5</ele><time>2026-05-01T13:44:27.279Z</time></trkpt><trkpt lat="42.2824983" lon="14.1359733"><ele>211.66666666666666</ele><time>2026-05-01T13:44:28.279Z</time></trkpt><trkpt lat="42.2824517" lon="14.1359067"><ele>212.83333333333331</ele><time>2026-05-01T13:44:29.279Z</time></trkpt><trkpt lat="42.2823767" lon="14.135765"><ele>214.0</ele><time>2026-05-01T13:44:31.279Z</time></trkpt><trkpt lat="42.2823517" lon="14.1356867"><ele>212.39999999999998</ele><time>2026-05-01T13:44:32.279Z</time></trkpt><trkpt lat="42.2823033" lon="14.1355417"><ele>210.79999999999998</ele><time>2026-05-01T13:44:34.279Z</time></trkpt><trkpt lat="42.2822867" lon="14.135375"><ele>209.2</ele><time>2026-05-01T13:44:36.279Z</time></trkpt><trkpt lat="42.2822783" lon="14.1352767"><ele>207.60000000000002</ele><time>2026-05-01T13:44:37.279Z</time></trkpt><trkpt lat="42.2822717" lon="14.1351817"><ele>206.0</ele><time>2026-05-01T13:44:38.279Z</time></trkpt><trkpt lat="42.2822617" lon="14.135075"><ele>206.00000000000003</ele><time>2026-05-01T13:44:39.279Z</time></trkpt><trkpt lat="42.28225" lon="14.1349683"><ele>206.0</ele><time>2026-05-01T13:44:40.279Z</time></trkpt><trkpt lat="42.2822333" lon="14.13486"><ele>206.0</ele><time>2026-05-01T13:44:41.279Z</time></trkpt><trkpt lat="42.28221" lon="14.1347583"><ele>206.0</ele><time>2026-05-01T13:44:42.279Z</time></trkpt><trkpt lat="42.2821983" lon="14.1346583"><ele>206.00000000000003</ele><time>2026-05-01T13:44:43.279Z</time></trkpt><trkpt lat="42.2821833" lon="14.1345567"><ele>206.0</ele><time>2026-05-01T13:44:44.28Z</time></trkpt><trkpt lat="42.2821633" lon="14.1344633"><ele>207.50000000000003</ele><time>2026-05-01T13:44:45.279Z</time></trkpt><trkpt lat="42.2821417" lon="14.1343633"><ele>209.0</ele><time>2026-05-01T13:44:46.28Z</time></trkpt><trkpt lat="42.2821217" lon="14.1342583"><ele>210.5</ele><time>2026-05-01T13:44:47.28Z</time></trkpt><trkpt lat="42.2821033" lon="14.1341583"><ele>212.0</ele><time>2026-05-01T13:44:48.279Z</time></trkpt><trkpt lat="42.2820867" lon="14.1340667"><ele>213.50000000000003</ele><time>2026-05-01T13:44:49.279Z</time></trkpt><trkpt lat="42.2820683" lon="14.133895"><ele>215.0</ele><time>2026-05-01T13:44:51.279Z</time></trkpt><trkpt lat="42.2820483" lon="14.13379"><ele>215.83333333333334</ele><time>2026-05-01T13:44:52.279Z</time></trkpt><trkpt lat="42.2820367" lon="14.1336733"><ele>216.66666666666669</ele><time>2026-05-01T13:44:53.279Z</time></trkpt><trkpt lat="42.2820217" lon="14.1335633"><ele>217.5</ele><time>2026-05-01T13:44:54.279Z</time></trkpt><trkpt lat="42.28201" lon="14.1334683"><ele>218.33333333333331</ele><time>2026-05-01T13:44:55.279Z</time></trkpt><trkpt lat="42.282005" lon="14.1333233"><ele>219.16666666666666</ele><time>2026-05-01T13:44:57.279Z</time></trkpt><trkpt lat="42.28199" lon="14.13323"><ele>220.0</ele><time>2026-05-01T13:44:59.279Z</time></trkpt><trkpt lat="42.2817822" lon="14.1331369"><ele>220.8</ele><time>2026-05-01T13:45:07.279Z</time></trkpt><trkpt lat="42.2816766" lon="14.1330604"><ele>221.6</ele><time>2026-05-01T13:45:09.279Z</time></trkpt><trkpt lat="42.2815776" lon="14.1329931"><ele>222.39999999999998</ele><time>2026-05-01T13:45:11.279Z</time></trkpt><trkpt lat="42.2814778" lon="14.1330088"><ele>223.2</ele><time>2026-05-01T13:45:13.279Z</time></trkpt><trkpt lat="42.2814087" lon="14.1330292"><ele>224.0</ele><time>2026-05-01T13:45:14.28Z</time></trkpt><trkpt lat="42.281331" lon="14.1330385"><ele>224.0</ele><time>2026-05-01T13:45:15.28Z</time></trkpt><trkpt lat="42.2812515" lon="14.1330538"><ele>223.99999999999997</ele><time>2026-05-01T13:45:16.279Z</time></trkpt><trkpt lat="42.2811705" lon="14.1330865"><ele>223.99999999999997</ele><time>2026-05-01T13:45:17.28Z</time></trkpt><trkpt lat="42.2810988" lon="14.1331192"><ele>224.0</ele><time>2026-05-01T13:45:18.279Z</time></trkpt><trkpt lat="42.2809934" lon="14.1331495"><ele>224.0</ele><time>2026-05-01T13:45:20.279Z</time></trkpt><trkpt lat="42.280893" lon="14.1331012"><ele>224.00000000000003</ele><time>2026-05-01T13:45:22.279Z</time></trkpt><trkpt lat="42.2808336" lon="14.133046"><ele>224.0</ele><time>2026-05-01T13:45:23.279Z</time></trkpt><trkpt lat="42.2807757" lon="14.1329766"><ele>224.0</ele><time>2026-05-01T13:45:24.279Z</time></trkpt><trkpt lat="42.2807145" lon="14.1329083"><ele>224.0</ele><time>2026-05-01T13:45:25.279Z</time></trkpt><trkpt lat="42.2806511" lon="14.1328443"><ele>224.00000000000003</ele><time>2026-05-01T13:45:26.279Z</time></trkpt><trkpt lat="42.2805834" lon="14.1327915"><ele>224.0</ele><time>2026-05-01T13:45:27.279Z</time></trkpt><trkpt lat="42.2805106" lon="14.1327541"><ele>223.0</ele><time>2026-05-01T13:45:28.279Z</time></trkpt><trkpt lat="42.2804425" lon="14.132718"><ele>222.0</ele><time>2026-05-01T13:45:29.279Z</time></trkpt><trkpt lat="42.2803823" lon="14.132679"><ele>221.0</ele><time>2026-05-01T13:45:30.279Z</time></trkpt><trkpt lat="42.2803174" lon="14.1326366"><ele>220.0</ele><time>2026-05-01T13:45:31.279Z</time></trkpt><trkpt lat="42.28025" lon="14.1325959"><ele>219.0</ele><time>2026-05-01T13:45:32.279Z</time></trkpt><trkpt lat="42.2801762" lon="14.1325557"><ele>218.0</ele><time>2026-05-01T13:45:33.279Z</time></trkpt><trkpt lat="42.2801089" lon="14.1325107"><ele>217.0</ele><time>2026-05-01T13:45:34.279Z</time></trkpt><trkpt lat="42.2800401" lon="14.1324621"><ele>216.99999999999997</ele><time>2026-05-01T13:45:35.279Z</time></trkpt><trkpt lat="42.2799759" lon="14.132418"><ele>217.0</ele><time>2026-05-01T13:45:36.279Z</time></trkpt><trkpt lat="42.2799163" lon="14.1323786"><ele>217.0</ele><time>2026-05-01T13:45:37.279Z</time></trkpt><trkpt lat="42.2798614" lon="14.1322631"><ele>217.0</ele><time>2026-05-01T13:45:39.279Z</time></trkpt><trkpt lat="42.2798463" lon="14.1320943"><ele>216.99999999999997</ele><time>2026-05-01T13:45:41.279Z</time></trkpt><trkpt lat="42.2798274" lon="14.1320088"><ele>217.0</ele><time>2026-05-01T13:45:42.279Z</time></trkpt><trkpt lat="42.2797992" lon="14.1319264"><ele>218.2</ele><time>2026-05-01T13:45:43.28Z</time></trkpt><trkpt lat="42.2797567" lon="14.1317883"><ele>219.39999999999998</ele><time>2026-05-01T13:45:45.279Z</time></trkpt><trkpt lat="42.2797217" lon="14.1316617"><ele>220.60000000000002</ele><time>2026-05-01T13:45:47.279Z</time></trkpt><trkpt lat="42.2797083" lon="14.1315317"><ele>221.8</ele><time>2026-05-01T13:45:49.279Z</time></trkpt><trkpt lat="42.2797383" lon="14.1314433"><ele>223.0</ele><time>2026-05-01T13:45:52.279Z</time></trkpt><trkpt lat="42.2798467" lon="14.131465"><ele>227.2</ele><time>2026-05-01T13:45:54.279Z</time></trkpt><trkpt lat="42.2799317" lon="14.1314917"><ele>231.4</ele><time>2026-05-01T13:45:55.279Z</time></trkpt><trkpt lat="42.28002" lon="14.1315117"><ele>235.59999999999997</ele><time>2026-05-01T13:45:56.279Z</time></trkpt><trkpt lat="42.280115" lon="14.131525"><ele>239.79999999999998</ele><time>2026-05-01T13:45:57.279Z</time></trkpt><trkpt lat="42.2802133" lon="14.1315233"><ele>244.0</ele><time>2026-05-01T13:45:58.279Z</time></trkpt><trkpt lat="42.28032" lon="14.1315083"><ele>244.0</ele><time>2026-05-01T13:45:59.279Z</time></trkpt><trkpt lat="42.2805317" lon="14.1314533"><ele>244.0</ele><time>2026-05-01T13:46:01.279Z</time></trkpt><trkpt lat="42.2806439" lon="14.1314152"><ele>244.0</ele><time>2026-05-01T13:46:02.279Z</time></trkpt><trkpt lat="42.280748" lon="14.1313634"><ele>244.0</ele><time>2026-05-01T13:46:03.279Z</time></trkpt><trkpt lat="42.2808286" lon="14.1312739"><ele>243.5</ele><time>2026-05-01T13:46:04.279Z</time></trkpt><trkpt lat="42.2808983" lon="14.1311452"><ele>243.0</ele><time>2026-05-01T13:46:05.28Z</time></trkpt><trkpt lat="42.2809597" lon="14.130981"><ele>242.5</ele><time>2026-05-01T13:46:06.279Z</time></trkpt><trkpt lat="42.2810032" lon="14.1308035"><ele>242.0</ele><time>2026-05-01T13:46:07.279Z</time></trkpt><trkpt lat="42.2810353" lon="14.130637"><ele>243.2</ele><time>2026-05-01T13:46:08.279Z</time></trkpt><trkpt lat="42.2810671" lon="14.1304836"><ele>244.39999999999998</ele><time>2026-05-01T13:46:09.279Z</time></trkpt><trkpt lat="42.2810889" lon="14.1303391"><ele>245.60000000000002</ele><time>2026-05-01T13:46:10.279Z</time></trkpt><trkpt lat="42.2811028" lon="14.1302022"><ele>246.8</ele><time>2026-05-01T13:46:11.279Z</time></trkpt><trkpt lat="42.281079" lon="14.1300718"><ele>248.0</ele><time>2026-05-01T13:46:12.279Z</time></trkpt><trkpt lat="42.2810308" lon="14.1299627"><ele>248.0</ele><time>2026-05-01T13:46:13.28Z</time></trkpt><trkpt lat="42.2809609" lon="14.1298879"><ele>248.0</ele><time>2026-05-01T13:46:14.279Z</time></trkpt><trkpt lat="42.280882" lon="14.1298449"><ele>248.0</ele><time>2026-05-01T13:46:15.279Z</time></trkpt><trkpt lat="42.2807986" lon="14.1298405"><ele>248.0</ele><time>2026-05-01T13:46:16.279Z</time></trkpt><trkpt lat="42.2807082" lon="14.1299201"><ele>248.0</ele><time>2026-05-01T13:46:17.279Z</time></trkpt><trkpt lat="42.280614" lon="14.1300485"><ele>249.5</ele><time>2026-05-01T13:46:18.279Z</time></trkpt><trkpt lat="42.2805194" lon="14.1301866"><ele>251.0</ele><time>2026-05-01T13:46:19.279Z</time></trkpt><trkpt lat="42.280421" lon="14.1303142"><ele>252.5</ele><time>2026-05-01T13:46:20.279Z</time></trkpt><trkpt lat="42.2803239" lon="14.1304184"><ele>254.0</ele><time>2026-05-01T13:46:21.279Z</time></trkpt><trkpt lat="42.2802274" lon="14.1304846"><ele>254.0</ele><time>2026-05-01T13:46:22.279Z</time></trkpt><trkpt lat="42.2801295" lon="14.1305008"><ele>253.99999999999997</ele><time>2026-05-01T13:46:23.279Z</time></trkpt><trkpt lat="42.2800245" lon="14.1304713"><ele>253.99999999999997</ele><time>2026-05-01T13:46:24.28Z</time></trkpt><trkpt lat="42.2799208" lon="14.1304124"><ele>254.0</ele><time>2026-05-01T13:46:25.279Z</time></trkpt><trkpt lat="42.279816" lon="14.1303413"><ele>254.0</ele><time>2026-05-01T13:46:26.279Z</time></trkpt><trkpt lat="42.279697" lon="14.1302759"><ele>253.6</ele><time>2026-05-01T13:46:27.279Z</time></trkpt><trkpt lat="42.2795798" lon="14.1302155"><ele>253.2</ele><time>2026-05-01T13:46:28.279Z</time></trkpt><trkpt lat="42.2794725" lon="14.1301493"><ele>252.79999999999998</ele><time>2026-05-01T13:46:29.279Z</time></trkpt><trkpt lat="42.2793902" lon="14.1300685"><ele>252.39999999999998</ele><time>2026-05-01T13:46:30.279Z</time></trkpt><trkpt lat="42.2793294" lon="14.1299711"><ele>252.0</ele><time>2026-05-01T13:46:31.279Z</time></trkpt><trkpt lat="42.2792985" lon="14.1298601"><ele>254.16666666666666</ele><time>2026-05-01T13:46:32.279Z</time></trkpt><trkpt lat="42.2793037" lon="14.1297469"><ele>256.3333333333333</ele><time>2026-05-01T13:46:33.279Z</time></trkpt><trkpt lat="42.2793457" lon="14.1296437"><ele>258.5</ele><time>2026-05-01T13:46:34.279Z</time></trkpt><trkpt lat="42.2794205" lon="14.1295808"><ele>260.66666666666663</ele><time>2026-05-01T13:46:35.279Z</time></trkpt><trkpt lat="42.2795076" lon="14.1295587"><ele>262.8333333333333</ele><time>2026-05-01T13:46:36.279Z</time></trkpt><trkpt lat="42.2796044" lon="14.1295676"><ele>265.0</ele><time>2026-05-01T13:46:37.279Z</time></trkpt><trkpt lat="42.2797046" lon="14.1295683"><ele>264.0</ele><time>2026-05-01T13:46:38.279Z</time></trkpt><trkpt lat="42.2797943" lon="14.1295303"><ele>263.0</ele><time>2026-05-01T13:46:39.279Z</time></trkpt><trkpt lat="42.2798783" lon="14.1294494"><ele>262.0</ele><time>2026-05-01T13:46:40.279Z</time></trkpt><trkpt lat="42.2799472" lon="14.1293399"><ele>261.0</ele><time>2026-05-01T13:46:41.279Z</time></trkpt><trkpt lat="42.2800005" lon="14.12922"><ele>260.0</ele><time>2026-05-01T13:46:42.279Z</time></trkpt><trkpt lat="42.2800605" lon="14.129074"><ele>262.75</ele><time>2026-05-01T13:46:43.279Z</time></trkpt><trkpt lat="42.2801278" lon="14.1288977"><ele>265.5</ele><time>2026-05-01T13:46:44.279Z</time></trkpt><trkpt lat="42.2801895" lon="14.1287096"><ele>268.25</ele><time>2026-05-01T13:46:45.279Z</time></trkpt><trkpt lat="42.2802514" lon="14.1285365"><ele>271.0</ele><time>2026-05-01T13:46:46.279Z</time></trkpt><trkpt lat="42.2803259" lon="14.1283881"><ele>271.0</ele><time>2026-05-01T13:46:47.279Z</time></trkpt><trkpt lat="42.2804181" lon="14.1282668"><ele>271.0</ele><time>2026-05-01T13:46:48.279Z</time></trkpt><trkpt lat="42.2805298" lon="14.1281741"><ele>271.0</ele><time>2026-05-01T13:46:49.279Z</time></trkpt><trkpt lat="42.2806522" lon="14.1281056"><ele>271.0</ele><time>2026-05-01T13:46:50.279Z</time></trkpt><trkpt lat="42.2807765" lon="14.1280435"><ele>272.2</ele><time>2026-05-01T13:46:51.28Z</time></trkpt><trkpt lat="42.2808892" lon="14.1279855"><ele>273.40000000000003</ele><time>2026-05-01T13:46:52.279Z</time></trkpt><trkpt lat="42.2809824" lon="14.1279231"><ele>274.6</ele><time>2026-05-01T13:46:53.279Z</time></trkpt><trkpt lat="42.2810553" lon="14.1278385"><ele>275.8</ele><time>2026-05-01T13:46:54.279Z</time></trkpt><trkpt lat="42.2810963" lon="14.1277317"><ele>277.0</ele><time>2026-05-01T13:46:55.279Z</time></trkpt><trkpt lat="42.2811048" lon="14.1276083"><ele>277.0</ele><time>2026-05-01T13:46:56.279Z</time></trkpt><trkpt lat="42.2810726" lon="14.1274866"><ele>277.0</ele><time>2026-05-01T13:46:57.279Z</time></trkpt><trkpt lat="42.2810116" lon="14.1273853"><ele>277.0</ele><time>2026-05-01T13:46:58.279Z</time></trkpt><trkpt lat="42.280927" lon="14.1273148"><ele>277.0</ele><time>2026-05-01T13:46:59.279Z</time></trkpt><trkpt lat="42.2808242" lon="14.1272758"><ele>277.0</ele><time>2026-05-01T13:47:00.279Z</time></trkpt><trkpt lat="42.2807067" lon="14.1272844"><ele>280.66666666666663</ele><time>2026-05-01T13:47:01.279Z</time></trkpt><trkpt lat="42.2805678" lon="14.1273104"><ele>284.3333333333333</ele><time>2026-05-01T13:47:02.279Z</time></trkpt><trkpt lat="42.2804204" lon="14.1273277"><ele>288.0</ele><time>2026-05-01T13:47:03.279Z</time></trkpt><trkpt lat="42.2802555" lon="14.1273407"><ele>288.0</ele><time>2026-05-01T13:47:04.279Z</time></trkpt><trkpt lat="42.2800944" lon="14.1273628"><ele>288.0</ele><time>2026-05-01T13:47:05.279Z</time></trkpt><trkpt lat="42.2799359" lon="14.1273792"><ele>288.0</ele><time>2026-05-01T13:47:06.279Z</time></trkpt><trkpt lat="42.279793" lon="14.1274027"><ele>286.5</ele><time>2026-05-01T13:47:07.279Z</time></trkpt><trkpt lat="42.2796633" lon="14.127425"><ele>285.0</ele><time>2026-05-01T13:47:08.28Z</time></trkpt><trkpt lat="42.2795433" lon="14.127435"><ele>283.5</ele><time>2026-05-01T13:47:09.279Z</time></trkpt><trkpt lat="42.2794267" lon="14.1274617"><ele>282.0</ele><time>2026-05-01T13:47:10.279Z</time></trkpt><trkpt lat="42.2793133" lon="14.1274767"><ele>282.0</ele><time>2026-05-01T13:47:11.279Z</time></trkpt><trkpt lat="42.2791983" lon="14.127485"><ele>282.0</ele><time>2026-05-01T13:47:12.279Z</time></trkpt><trkpt lat="42.279075" lon="14.127495"><ele>282.0</ele><time>2026-05-01T13:47:13.279Z</time></trkpt><trkpt lat="42.2789683" lon="14.12751"><ele>282.0</ele><time>2026-05-01T13:47:14.279Z</time></trkpt><trkpt lat="42.2788683" lon="14.1275217"><ele>282.0</ele><time>2026-05-01T13:47:15.279Z</time></trkpt><trkpt lat="42.2787783" lon="14.1275167"><ele>282.4</ele><time>2026-05-01T13:47:16.279Z</time></trkpt><trkpt lat="42.278685" lon="14.127495"><ele>282.79999999999995</ele><time>2026-05-01T13:47:17.279Z</time></trkpt><trkpt lat="42.2785917" lon="14.127445"><ele>283.2</ele><time>2026-05-01T13:47:18.279Z</time></trkpt><trkpt lat="42.2785233" lon="14.127375"><ele>283.59999999999997</ele><time>2026-05-01T13:47:19.279Z</time></trkpt><trkpt lat="42.2784783" lon="14.1272767"><ele>284.0</ele><time>2026-05-01T13:47:20.279Z</time></trkpt><trkpt lat="42.27844" lon="14.127175"><ele>284.57142857142856</ele><time>2026-05-01T13:47:21.279Z</time></trkpt><trkpt lat="42.2784183" lon="14.12707"><ele>285.1428571428571</ele><time>2026-05-01T13:47:22.279Z</time></trkpt><trkpt lat="42.2784183" lon="14.1269683"><ele>285.7142857142857</ele><time>2026-05-01T13:47:23.279Z</time></trkpt><trkpt lat="42.2784333" lon="14.12688"><ele>286.2857142857143</ele><time>2026-05-01T13:47:24.279Z</time></trkpt><trkpt lat="42.27846" lon="14.12679"><ele>286.8571428571429</ele><time>2026-05-01T13:47:25.279Z</time></trkpt><trkpt lat="42.2785" lon="14.1267067"><ele>287.42857142857144</ele><time>2026-05-01T13:47:26.279Z</time></trkpt><trkpt lat="42.2785517" lon="14.1266317"><ele>288.0</ele><time>2026-05-01T13:47:27.279Z</time></trkpt><trkpt lat="42.27862" lon="14.1265733"><ele>289.6</ele><time>2026-05-01T13:47:28.279Z</time></trkpt><trkpt lat="42.2787033" lon="14.1265417"><ele>291.20000000000005</ele><time>2026-05-01T13:47:29.279Z</time></trkpt><trkpt lat="42.2788" lon="14.126525"><ele>292.8</ele><time>2026-05-01T13:47:30.279Z</time></trkpt><trkpt lat="42.2789017" lon="14.1265083"><ele>294.40000000000003</ele><time>2026-05-01T13:47:31.279Z</time></trkpt><trkpt lat="42.2789817" lon="14.1264933"><ele>296.0</ele><time>2026-05-01T13:47:32.279Z</time></trkpt><trkpt lat="42.2790833" lon="14.1264733"><ele>296.0</ele><time>2026-05-01T13:47:34.279Z</time></trkpt><trkpt lat="42.2790233" lon="14.1264233"><ele>296.0</ele><time>2026-05-01T13:47:39.279Z</time></trkpt><trkpt lat="42.2789067" lon="14.1264517"><ele>296.0</ele><time>2026-05-01T13:47:41.279Z</time></trkpt><trkpt lat="42.27882" lon="14.1264767"><ele>296.0</ele><time>2026-05-01T13:47:42.279Z</time></trkpt><trkpt lat="42.278725" lon="14.1265117"><ele>296.0</ele><time>2026-05-01T13:47:43.279Z</time></trkpt><trkpt lat="42.2786333" lon="14.12655"><ele>294.6666666666667</ele><time>2026-05-01T13:47:44.28Z</time></trkpt><trkpt lat="42.278555" lon="14.1265967"><ele>293.33333333333337</ele><time>2026-05-01T13:47:45.279Z</time></trkpt><trkpt lat="42.2784867" lon="14.1266733"><ele>292.0</ele><time>2026-05-01T13:47:46.279Z</time></trkpt><trkpt lat="42.2784317" lon="14.1267633"><ele>290.6666666666667</ele><time>2026-05-01T13:47:47.279Z</time></trkpt><trkpt lat="42.278395" lon="14.1268783"><ele>289.3333333333333</ele><time>2026-05-01T13:47:48.279Z</time></trkpt><trkpt lat="42.2783867" lon="14.1269883"><ele>288.0</ele><time>2026-05-01T13:47:49.279Z</time></trkpt><trkpt lat="42.2783933" lon="14.1271017"><ele>288.0</ele><time>2026-05-01T13:47:50.279Z</time></trkpt><trkpt lat="42.278415" lon="14.1272183"><ele>288.0</ele><time>2026-05-01T13:47:51.279Z</time></trkpt><trkpt lat="42.27846" lon="14.1273317"><ele>288.0</ele><time>2026-05-01T13:47:52.279Z</time></trkpt><trkpt lat="42.2785283" lon="14.1274283"><ele>288.0</ele><time>2026-05-01T13:47:53.279Z</time></trkpt><trkpt lat="42.2786017" lon="14.1274983"><ele>288.0</ele><time>2026-05-01T13:47:54.279Z</time></trkpt><trkpt lat="42.278685" lon="14.1275433"><ele>287.2</ele><time>2026-05-01T13:47:55.279Z</time></trkpt><trkpt lat="42.2787817" lon="14.1275533"><ele>286.4</ele><time>2026-05-01T13:47:56.279Z</time></trkpt><trkpt lat="42.27888" lon="14.1275433"><ele>285.59999999999997</ele><time>2026-05-01T13:47:57.279Z</time></trkpt><trkpt lat="42.2789783" lon="14.1275267"><ele>284.8</ele><time>2026-05-01T13:47:58.279Z</time></trkpt><trkpt lat="42.27908" lon="14.1275117"><ele>284.0</ele><time>2026-05-01T13:47:59.279Z</time></trkpt><trkpt lat="42.279165" lon="14.127505"><ele>283.59999999999997</ele><time>2026-05-01T13:48:00.279Z</time></trkpt><trkpt lat="42.2792383" lon="14.1274983"><ele>283.2</ele><time>2026-05-01T13:48:01.279Z</time></trkpt><trkpt lat="42.2793317" lon="14.1274917"><ele>282.79999999999995</ele><time>2026-05-01T13:48:03.279Z</time></trkpt><trkpt lat="42.279325" lon="14.1275967"><ele>282.4</ele><time>2026-05-01T13:48:06.279Z</time></trkpt><trkpt lat="42.2791933" lon="14.1276383"><ele>282.0</ele><time>2026-05-01T13:48:08.279Z</time></trkpt><trkpt lat="42.2790883" lon="14.1276417"><ele>282.0</ele><time>2026-05-01T13:48:09.279Z</time></trkpt><trkpt lat="42.27898" lon="14.1276417"><ele>282.0</ele><time>2026-05-01T13:48:10.279Z</time></trkpt><trkpt lat="42.278875" lon="14.127635"><ele>282.0</ele><time>2026-05-01T13:48:11.279Z</time></trkpt><trkpt lat="42.2787717" lon="14.1276233"><ele>282.0</ele><time>2026-05-01T13:48:12.279Z</time></trkpt><trkpt lat="42.2786767" lon="14.12762"><ele>282.0</ele><time>2026-05-01T13:48:13.279Z</time></trkpt><trkpt lat="42.2785783" lon="14.1276217"><ele>282.4</ele><time>2026-05-01T13:48:14.279Z</time></trkpt><trkpt lat="42.2784767" lon="14.1276183"><ele>282.79999999999995</ele><time>2026-05-01T13:48:15.279Z</time></trkpt><trkpt lat="42.2783733" lon="14.1276017"><ele>283.2</ele><time>2026-05-01T13:48:16.279Z</time></trkpt><trkpt lat="42.2782733" lon="14.1275933"><ele>283.59999999999997</ele><time>2026-05-01T13:48:17.279Z</time></trkpt><trkpt lat="42.2781767" lon="14.1275833"><ele>284.0</ele><time>2026-05-01T13:48:18.28Z</time></trkpt><trkpt lat="42.2780833" lon="14.1275633"><ele>284.33333333333337</ele><time>2026-05-01T13:48:19.279Z</time></trkpt><trkpt lat="42.277995" lon="14.1275367"><ele>284.6666666666667</ele><time>2026-05-01T13:48:20.279Z</time></trkpt><trkpt lat="42.2779133" lon="14.1275033"><ele>285.0</ele><time>2026-05-01T13:48:21.279Z</time></trkpt><trkpt lat="42.2778333" lon="14.12747"><ele>285.3333333333333</ele><time>2026-05-01T13:48:22.279Z</time></trkpt><trkpt lat="42.2777517" lon="14.1274317"><ele>285.66666666666663</ele><time>2026-05-01T13:48:23.279Z</time></trkpt><trkpt lat="42.2776733" lon="14.1274083"><ele>286.0</ele><time>2026-05-01T13:48:24.279Z</time></trkpt><trkpt lat="42.2775967" lon="14.1273867"><ele>287.6</ele><time>2026-05-01T13:48:25.279Z</time></trkpt><trkpt lat="42.2775067" lon="14.1273683"><ele>289.20000000000005</ele><time>2026-05-01T13:48:26.279Z</time></trkpt><trkpt lat="42.27741" lon="14.1273667"><ele>290.79999999999995</ele><time>2026-05-01T13:48:27.279Z</time></trkpt><trkpt lat="42.2773083" lon="14.1273817"><ele>292.4</ele><time>2026-05-01T13:48:28.279Z</time></trkpt><trkpt lat="42.2772033" lon="14.1273867"><ele>294.0</ele><time>2026-05-01T13:48:29.279Z</time></trkpt><trkpt lat="42.2771217" lon="14.12739"><ele>294.59999999999997</ele><time>2026-05-01T13:48:30.279Z</time></trkpt><trkpt lat="42.277035" lon="14.1273717"><ele>295.2</ele><time>2026-05-01T13:48:31.28Z</time></trkpt><trkpt lat="42.27695" lon="14.127325"><ele>295.79999999999995</ele><time>2026-05-01T13:48:32.279Z</time></trkpt><trkpt lat="42.276855" lon="14.1272783"><ele>296.4</ele><time>2026-05-01T13:48:33.279Z</time></trkpt><trkpt lat="42.27676" lon="14.1272383"><ele>297.0</ele><time>2026-05-01T13:48:34.279Z</time></trkpt><trkpt lat="42.2766833" lon="14.1272017"><ele>297.0</ele><time>2026-05-01T13:48:35.279Z</time></trkpt><trkpt lat="42.2766183" lon="14.127185"><ele>297.0</ele><time>2026-05-01T13:48:36.279Z</time></trkpt><trkpt lat="42.27654" lon="14.12723"><ele>297.0</ele><time>2026-05-01T13:48:38.279Z</time></trkpt><trkpt lat="42.2764917" lon="14.1272883"><ele>297.0</ele><time>2026-05-01T13:48:39.279Z</time></trkpt><trkpt lat="42.27643" lon="14.1273833"><ele>297.0</ele><time>2026-05-01T13:48:40.279Z</time></trkpt><trkpt lat="42.2763567" lon="14.1274983"><ele>297.0</ele><time>2026-05-01T13:48:41.279Z</time></trkpt><trkpt lat="42.276275" lon="14.1276367"><ele>296.8</ele><time>2026-05-01T13:48:42.279Z</time></trkpt><trkpt lat="42.276185" lon="14.12776"><ele>296.6</ele><time>2026-05-01T13:48:43.279Z</time></trkpt><trkpt lat="42.276105" lon="14.1278483"><ele>296.40000000000003</ele><time>2026-05-01T13:48:44.279Z</time></trkpt><trkpt lat="42.27602" lon="14.127905"><ele>296.2</ele><time>2026-05-01T13:48:45.28Z</time></trkpt><trkpt lat="42.2759317" lon="14.1279567"><ele>296.0</ele><time>2026-05-01T13:48:46.279Z</time></trkpt><trkpt lat="42.2758217" lon="14.127985"><ele>296.0</ele><time>2026-05-01T13:48:47.279Z</time></trkpt><trkpt lat="42.2756917" lon="14.1280233"><ele>296.0</ele><time>2026-05-01T13:48:48.279Z</time></trkpt><trkpt lat="42.2755533" lon="14.1280667"><ele>296.0</ele><time>2026-05-01T13:48:49.279Z</time></trkpt><trkpt lat="42.27544" lon="14.1281183"><ele>296.0</ele><time>2026-05-01T13:48:50.279Z</time></trkpt><trkpt lat="42.275375" lon="14.12817"><ele>296.8</ele><time>2026-05-01T13:48:51.279Z</time></trkpt><trkpt lat="42.2753167" lon="14.1282267"><ele>297.6</ele><time>2026-05-01T13:48:52.279Z</time></trkpt><trkpt lat="42.2752333" lon="14.1282817"><ele>298.4</ele><time>2026-05-01T13:48:54.279Z</time></trkpt><trkpt lat="42.2751567" lon="14.1282083"><ele>299.2</ele><time>2026-05-01T13:48:56.279Z</time></trkpt><trkpt lat="42.2751267" lon="14.1280933"><ele>300.0</ele><time>2026-05-01T13:48:57.279Z</time></trkpt><trkpt lat="42.2750767" lon="14.127935"><ele>301.0</ele><time>2026-05-01T13:48:58.279Z</time></trkpt><trkpt lat="42.2750183" lon="14.12775"><ele>302.0</ele><time>2026-05-01T13:48:59.279Z</time></trkpt><trkpt lat="42.274945" lon="14.1275367"><ele>303.0</ele><time>2026-05-01T13:49:00.279Z</time></trkpt><trkpt lat="42.2748733" lon="14.1273167"><ele>303.6666666666667</ele><time>2026-05-01T13:49:01.279Z</time></trkpt><trkpt lat="42.2748083" lon="14.1271167"><ele>304.33333333333337</ele><time>2026-05-01T13:49:02.279Z</time></trkpt><trkpt lat="42.2747533" lon="14.1269283"><ele>305.0</ele><time>2026-05-01T13:49:03.279Z</time></trkpt><trkpt lat="42.2747033" lon="14.1267317"><ele>301.5</ele><time>2026-05-01T13:49:04.279Z</time></trkpt><trkpt lat="42.2746617" lon="14.1265533"><ele>298.0</ele><time>2026-05-01T13:49:05.279Z</time></trkpt><trkpt lat="42.2746283" lon="14.12638"><ele>294.5</ele><time>2026-05-01T13:49:06.279Z</time></trkpt><trkpt lat="42.2746217" lon="14.126215"><ele>291.0</ele><time>2026-05-01T13:49:07.279Z</time></trkpt><trkpt lat="42.27464" lon="14.126035"><ele>291.0</ele><time>2026-05-01T13:49:08.279Z</time></trkpt><trkpt lat="42.2746817" lon="14.12585"><ele>291.0</ele><time>2026-05-01T13:49:09.279Z</time></trkpt><trkpt lat="42.2747283" lon="14.12567"><ele>291.0</ele><time>2026-05-01T13:49:10.28Z</time></trkpt><trkpt lat="42.2747767" lon="14.1255033"><ele>291.0</ele><time>2026-05-01T13:49:11.279Z</time></trkpt><trkpt lat="42.2748133" lon="14.12533"><ele>298.0</ele><time>2026-05-01T13:49:12.279Z</time></trkpt><trkpt lat="42.2748583" lon="14.12517"><ele>305.0</ele><time>2026-05-01T13:49:13.279Z</time></trkpt><trkpt lat="42.2749067" lon="14.1250217"><ele>312.0</ele><time>2026-05-01T13:49:14.279Z</time></trkpt><trkpt lat="42.27495" lon="14.1248917"><ele>319.0</ele><time>2026-05-01T13:49:15.279Z</time></trkpt><trkpt lat="42.2749983" lon="14.124775"><ele>320.3333333333333</ele><time>2026-05-01T13:49:16.279Z</time></trkpt><trkpt lat="42.2750467" lon="14.1246667"><ele>321.66666666666663</ele><time>2026-05-01T13:49:17.279Z</time></trkpt><trkpt lat="42.2751017" lon="14.1245617"><ele>323.0</ele><time>2026-05-01T13:49:18.279Z</time></trkpt><trkpt lat="42.275145" lon="14.1244617"><ele>324.3333333333333</ele><time>2026-05-01T13:49:19.279Z</time></trkpt><trkpt lat="42.275185" lon="14.12438"><ele>325.6666666666667</ele><time>2026-05-01T13:49:20.279Z</time></trkpt><trkpt lat="42.27524" lon="14.1243233"><ele>327.0</ele><time>2026-05-01T13:49:21.279Z</time></trkpt><trkpt lat="42.2753033" lon="14.1242767"><ele>327.0</ele><time>2026-05-01T13:49:22.279Z</time></trkpt><trkpt lat="42.2753833" lon="14.1242483"><ele>327.0</ele><time>2026-05-01T13:49:23.279Z</time></trkpt><trkpt lat="42.2754817" lon="14.1242317"><ele>327.0</ele><time>2026-05-01T13:49:24.279Z</time></trkpt><trkpt lat="42.27559" lon="14.124225"><ele>327.0</ele><time>2026-05-01T13:49:25.279Z</time></trkpt><trkpt lat="42.2757" lon="14.124215"><ele>327.0</ele><time>2026-05-01T13:49:26.279Z</time></trkpt><trkpt lat="42.2758067" lon="14.1242117"><ele>326.0</ele><time>2026-05-01T13:49:27.279Z</time></trkpt><trkpt lat="42.2759117" lon="14.12421"><ele>325.0</ele><time>2026-05-01T13:49:28.279Z</time></trkpt><trkpt lat="42.2760033" lon="14.1242033"><ele>324.0</ele><time>2026-05-01T13:49:29.279Z</time></trkpt><trkpt lat="42.276075" lon="14.1241833"><ele>323.0</ele><time>2026-05-01T13:49:30.279Z</time></trkpt><trkpt lat="42.2761783" lon="14.1241467"><ele>322.0</ele><time>2026-05-01T13:49:32.279Z</time></trkpt><trkpt lat="42.27624" lon="14.124115"><ele>321.0</ele><time>2026-05-01T13:49:35.279Z</time></trkpt><trkpt lat="42.2762117" lon="14.1239983"><ele>320.3333333333333</ele><time>2026-05-01T13:49:39.28Z</time></trkpt><trkpt lat="42.276205" lon="14.123875"><ele>319.6666666666667</ele><time>2026-05-01T13:49:42.28Z</time></trkpt><trkpt lat="42.2761967" lon="14.12378"><ele>319.0</ele><time>2026-05-01T13:49:45.279Z</time></trkpt><trkpt lat="42.276195" lon="14.1236633"><ele>318.33333333333337</ele><time>2026-05-01T13:49:54.279Z</time></trkpt><trkpt lat="42.2761467" lon="14.1235533"><ele>317.6666666666667</ele><time>2026-05-01T13:49:56.279Z</time></trkpt><trkpt lat="42.2761017" lon="14.1234817"><ele>317.0</ele><time>2026-05-01T13:49:57.279Z</time></trkpt><trkpt lat="42.27604" lon="14.12344"><ele>317.0</ele><time>2026-05-01T13:49:58.279Z</time></trkpt><trkpt lat="42.2759233" lon="14.123385"><ele>317.0</ele><time>2026-05-01T13:50:00.279Z</time></trkpt><trkpt lat="42.2758467" lon="14.1233583"><ele>317.0</ele><time>2026-05-01T13:50:01.279Z</time></trkpt><trkpt lat="42.2757617" lon="14.1233233"><ele>317.0</ele><time>2026-05-01T13:50:02.279Z</time></trkpt><trkpt lat="42.27568" lon="14.1232967"><ele>317.0</ele><time>2026-05-01T13:50:03.279Z</time></trkpt><trkpt lat="42.2756017" lon="14.123275"><ele>316.5</ele><time>2026-05-01T13:50:04.279Z</time></trkpt><trkpt lat="42.2755167" lon="14.1232483"><ele>316.0</ele><time>2026-05-01T13:50:05.279Z</time></trkpt><trkpt lat="42.27543" lon="14.123225"><ele>315.5</ele><time>2026-05-01T13:50:06.279Z</time></trkpt><trkpt lat="42.2753483" lon="14.1232033"><ele>315.0</ele><time>2026-05-01T13:50:07.279Z</time></trkpt><trkpt lat="42.27527" lon="14.1231833"><ele>314.5</ele><time>2026-05-01T13:50:08.28Z</time></trkpt><trkpt lat="42.27519" lon="14.1231617"><ele>314.0</ele><time>2026-05-01T13:50:09.279Z</time></trkpt><trkpt lat="42.2751167" lon="14.1231467"><ele>314.0</ele><time>2026-05-01T13:50:10.279Z</time></trkpt><trkpt lat="42.2750483" lon="14.1231333"><ele>314.0</ele><time>2026-05-01T13:50:11.279Z</time></trkpt><trkpt lat="42.2749817" lon="14.1231233"><ele>314.0</ele><time>2026-05-01T13:50:12.279Z</time></trkpt><trkpt lat="42.27491" lon="14.123125"><ele>314.0</ele><time>2026-05-01T13:50:13.279Z</time></trkpt><trkpt lat="42.2748333" lon="14.1231167"><ele>314.0</ele><time>2026-05-01T13:50:14.279Z</time></trkpt><trkpt lat="42.274765" lon="14.1231083"><ele>314.0</ele><time>2026-05-01T13:50:15.279Z</time></trkpt><trkpt lat="42.2746367" lon="14.1230933"><ele>315.2</ele><time>2026-05-01T13:50:17.279Z</time></trkpt><trkpt lat="42.2745283" lon="14.1230733"><ele>316.4</ele><time>2026-05-01T13:50:19.279Z</time></trkpt><trkpt lat="42.27443" lon="14.1230367"><ele>317.6</ele><time>2026-05-01T13:50:21.279Z</time></trkpt><trkpt lat="42.2743467" lon="14.1229817"><ele>318.8</ele><time>2026-05-01T13:50:23.279Z</time></trkpt><trkpt lat="42.27425" lon="14.12291"><ele>320.0</ele><time>2026-05-01T13:50:25.279Z</time></trkpt><trkpt lat="42.2741633" lon="14.122845"><ele>320.0</ele><time>2026-05-01T13:50:27.279Z</time></trkpt><trkpt lat="42.2740683" lon="14.1227233"><ele>320.0</ele><time>2026-05-01T13:50:29.279Z</time></trkpt><trkpt lat="42.274025" lon="14.122635"><ele>320.0</ele><time>2026-05-01T13:50:30.279Z</time></trkpt><trkpt lat="42.2739883" lon="14.122535"><ele>320.0</ele><time>2026-05-01T13:50:31.279Z</time></trkpt><trkpt lat="42.2739533" lon="14.1224483"><ele>320.0</ele><time>2026-05-01T13:50:32.279Z</time></trkpt><trkpt lat="42.2739133" lon="14.1223817"><ele>320.0</ele><time>2026-05-01T13:50:33.279Z</time></trkpt><trkpt lat="42.2738417" lon="14.1223033"><ele>316.83333333333337</ele><time>2026-05-01T13:50:35.279Z</time></trkpt><trkpt lat="42.2737883" lon="14.12225"><ele>313.6666666666667</ele><time>2026-05-01T13:50:37.279Z</time></trkpt><trkpt lat="42.27373" lon="14.1221767"><ele>310.5</ele><time>2026-05-01T13:50:40.279Z</time></trkpt><trkpt lat="42.2736917" lon="14.1220883"><ele>307.3333333333333</ele><time>2026-05-01T13:50:42.279Z</time></trkpt><trkpt lat="42.2736667" lon="14.121955"><ele>304.16666666666663</ele><time>2026-05-01T13:50:44.279Z</time></trkpt><trkpt lat="42.2736483" lon="14.1218717"><ele>301.0</ele><time>2026-05-01T13:50:45.279Z</time></trkpt><trkpt lat="42.2735917" lon="14.1217233"><ele>301.0</ele><time>2026-05-01T13:50:47.279Z</time></trkpt><trkpt lat="42.27351" lon="14.12159"><ele>301.0</ele><time>2026-05-01T13:50:49.279Z</time></trkpt><trkpt lat="42.2734617" lon="14.121535"><ele>301.0</ele><time>2026-05-01T13:50:50.279Z</time></trkpt><trkpt lat="42.2733867" lon="14.1214583"><ele>301.0</ele><time>2026-05-01T13:50:52.279Z</time></trkpt><trkpt lat="42.2733267" lon="14.1213917"><ele>301.0</ele><time>2026-05-01T13:50:54.279Z</time></trkpt><trkpt lat="42.27327" lon="14.1212883"><ele>300.40000000000003</ele><time>2026-05-01T13:50:57.279Z</time></trkpt><trkpt lat="42.2732467" lon="14.1211967"><ele>299.8</ele><time>2026-05-01T13:50:59.279Z</time></trkpt><trkpt lat="42.2732" lon="14.1211183"><ele>299.20000000000005</ele><time>2026-05-01T13:51:01.279Z</time></trkpt><trkpt lat="42.27312" lon="14.1210467"><ele>298.6</ele><time>2026-05-01T13:51:03.279Z</time></trkpt><trkpt lat="42.2730167" lon="14.120985"><ele>298.0</ele><time>2026-05-01T13:51:05.279Z</time></trkpt><trkpt lat="42.2729233" lon="14.1209067"><ele>297.0</ele><time>2026-05-01T13:51:07.279Z</time></trkpt><trkpt lat="42.2728433" lon="14.1208467"><ele>296.0</ele><time>2026-05-01T13:51:09.279Z</time></trkpt><trkpt lat="42.2727667" lon="14.1207983"><ele>295.0</ele><time>2026-05-01T13:51:11.279Z</time></trkpt><trkpt lat="42.2726817" lon="14.1207467"><ele>294.0</ele><time>2026-05-01T13:51:13.279Z</time></trkpt><trkpt lat="42.2726" lon="14.1207017"><ele>293.0</ele><time>2026-05-01T13:51:15.279Z</time></trkpt><trkpt lat="42.27253" lon="14.1206517"><ele>292.0</ele><time>2026-05-01T13:51:17.279Z</time></trkpt><trkpt lat="42.2724517" lon="14.1205883"><ele>290.5</ele><time>2026-05-01T13:51:19.279Z</time></trkpt><trkpt lat="42.2723733" lon="14.120515"><ele>289.0</ele><time>2026-05-01T13:51:21.28Z</time></trkpt><trkpt lat="42.2723083" lon="14.1204583"><ele>287.5</ele><time>2026-05-01T13:51:23.279Z</time></trkpt><trkpt lat="42.2722467" lon="14.1204133"><ele>286.0</ele><time>2026-05-01T13:51:25.279Z</time></trkpt><trkpt lat="42.2721933" lon="14.1203617"><ele>284.5</ele><time>2026-05-01T13:51:27.279Z</time></trkpt><trkpt lat="42.27213" lon="14.1203"><ele>283.0</ele><time>2026-05-01T13:51:29.279Z</time></trkpt><trkpt lat="42.2720717" lon="14.1202483"><ele>282.66666666666663</ele><time>2026-05-01T13:51:31.279Z</time></trkpt><trkpt lat="42.272015" lon="14.120195"><ele>282.3333333333333</ele><time>2026-05-01T13:51:33.279Z</time></trkpt><trkpt lat="42.2719533" lon="14.1201467"><ele>282.0</ele><time>2026-05-01T13:51:35.279Z</time></trkpt><trkpt lat="42.2718883" lon="14.1200917"><ele>281.6666666666667</ele><time>2026-05-01T13:51:37.279Z</time></trkpt><trkpt lat="42.27182" lon="14.1200283"><ele>281.33333333333337</ele><time>2026-05-01T13:51:39.279Z</time></trkpt><trkpt lat="42.2717483" lon="14.1199867"><ele>281.0</ele><time>2026-05-01T13:51:41.279Z</time></trkpt><trkpt lat="42.2716817" lon="14.1199433"><ele>280.40000000000003</ele><time>2026-05-01T13:51:43.279Z</time></trkpt><trkpt lat="42.2716067" lon="14.11989"><ele>279.8</ele><time>2026-05-01T13:51:45.279Z</time></trkpt><trkpt lat="42.27153" lon="14.119805"><ele>279.20000000000005</ele><time>2026-05-01T13:51:47.279Z</time></trkpt><trkpt lat="42.2714683" lon="14.1196817"><ele>278.6</ele><time>2026-05-01T13:51:49.279Z</time></trkpt><trkpt lat="42.2714117" lon="14.1195217"><ele>278.0</ele><time>2026-05-01T13:51:51.279Z</time></trkpt><trkpt lat="42.271385" lon="14.1194433"><ele>278.0</ele><time>2026-05-01T13:51:52.279Z</time></trkpt><trkpt lat="42.2713583" lon="14.119365"><ele>278.0</ele><time>2026-05-01T13:51:53.279Z</time></trkpt><trkpt lat="42.2713267" lon="14.1192767"><ele>278.0</ele><time>2026-05-01T13:51:54.279Z</time></trkpt><trkpt lat="42.2712933" lon="14.1191917"><ele>278.0</ele><time>2026-05-01T13:51:55.279Z</time></trkpt><trkpt lat="42.2712567" lon="14.1191033"><ele>278.0</ele><time>2026-05-01T13:51:56.279Z</time></trkpt><trkpt lat="42.271215" lon="14.1190083"><ele>278.0</ele><time>2026-05-01T13:51:57.279Z</time></trkpt><trkpt lat="42.27118" lon="14.1189333"><ele>278.0</ele><time>2026-05-01T13:51:58.279Z</time></trkpt><trkpt lat="42.2710983" lon="14.1188383"><ele>277.2</ele><time>2026-05-01T13:52:00.279Z</time></trkpt><trkpt lat="42.27101" lon="14.1188"><ele>276.4</ele><time>2026-05-01T13:52:02.279Z</time></trkpt><trkpt lat="42.2709083" lon="14.1187883"><ele>275.59999999999997</ele><time>2026-05-01T13:52:04.279Z</time></trkpt><trkpt lat="42.270795" lon="14.1187817"><ele>274.8</ele><time>2026-05-01T13:52:06.279Z</time></trkpt><trkpt lat="42.2706867" lon="14.1187633"><ele>274.0</ele><time>2026-05-01T13:52:08.279Z</time></trkpt><trkpt lat="42.2705783" lon="14.1187417"><ele>275.59999999999997</ele><time>2026-05-01T13:52:10.279Z</time></trkpt><trkpt lat="42.270505" lon="14.1187167"><ele>277.2</ele><time>2026-05-01T13:52:12.28Z</time></trkpt><trkpt lat="42.27042" lon="14.118705"><ele>278.79999999999995</ele><time>2026-05-01T13:52:20.279Z</time></trkpt><trkpt lat="42.2703267" lon="14.1186817"><ele>280.4</ele><time>2026-05-01T13:52:22.279Z</time></trkpt><trkpt lat="42.27024" lon="14.11864"><ele>282.0</ele><time>2026-05-01T13:52:24.279Z</time></trkpt><trkpt lat="42.270135" lon="14.1185733"><ele>282.0</ele><time>2026-05-01T13:52:26.279Z</time></trkpt><trkpt lat="42.2700317" lon="14.1185133"><ele>282.0</ele><time>2026-05-01T13:52:28.279Z</time></trkpt><trkpt lat="42.2699217" lon="14.1184567"><ele>282.0</ele><time>2026-05-01T13:52:30.279Z</time></trkpt><trkpt lat="42.2698217" lon="14.1183983"><ele>282.0</ele><time>2026-05-01T13:52:32.279Z</time></trkpt><trkpt lat="42.269745" lon="14.1183267"><ele>282.0</ele><time>2026-05-01T13:52:34.28Z</time></trkpt><trkpt lat="42.2696783" lon="14.1182667"><ele>279.8333333333333</ele><time>2026-05-01T13:52:36.279Z</time></trkpt><trkpt lat="42.2696217" lon="14.1182083"><ele>277.6666666666667</ele><time>2026-05-01T13:52:38.279Z</time></trkpt><trkpt lat="42.26956" lon="14.1181433"><ele>275.5</ele><time>2026-05-01T13:52:40.279Z</time></trkpt><trkpt lat="42.26951" lon="14.1180633"><ele>273.33333333333337</ele><time>2026-05-01T13:52:42.279Z</time></trkpt><trkpt lat="42.2694617" lon="14.117975"><ele>271.1666666666667</ele><time>2026-05-01T13:52:44.279Z</time></trkpt><trkpt lat="42.26942" lon="14.1178767"><ele>269.0</ele><time>2026-05-01T13:52:46.279Z</time></trkpt><trkpt lat="42.2694" lon="14.11775"><ele>269.0</ele><time>2026-05-01T13:52:48.279Z</time></trkpt><trkpt lat="42.2693867" lon="14.1175983"><ele>269.0</ele><time>2026-05-01T13:52:50.279Z</time></trkpt><trkpt lat="42.2694083" lon="14.1174533"><ele>269.0</ele><time>2026-05-01T13:52:52.279Z</time></trkpt><trkpt lat="42.26946" lon="14.117315"><ele>269.0</ele><time>2026-05-01T13:52:54.279Z</time></trkpt><trkpt lat="42.2695217" lon="14.117185"><ele>267.0</ele><time>2026-05-01T13:52:56.279Z</time></trkpt><trkpt lat="42.2695683" lon="14.117065"><ele>265.0</ele><time>2026-05-01T13:52:58.28Z</time></trkpt><trkpt lat="42.2695917" lon="14.116925"><ele>263.0</ele><time>2026-05-01T13:53:00.279Z</time></trkpt><trkpt lat="42.269595" lon="14.1167617"><ele>261.0</ele><time>2026-05-01T13:53:02.279Z</time></trkpt><trkpt lat="42.2695883" lon="14.1166267"><ele>259.0</ele><time>2026-05-01T13:53:04.279Z</time></trkpt><trkpt lat="42.269585" lon="14.11648"><ele>257.8</ele><time>2026-05-01T13:53:06.279Z</time></trkpt><trkpt lat="42.2695867" lon="14.1163417"><ele>256.59999999999997</ele><time>2026-05-01T13:53:08.279Z</time></trkpt><trkpt lat="42.2695817" lon="14.1162117"><ele>255.4</ele><time>2026-05-01T13:53:10.279Z</time></trkpt><trkpt lat="42.2695733" lon="14.1160867"><ele>254.2</ele><time>2026-05-01T13:53:12.279Z</time></trkpt><trkpt lat="42.26954" lon="14.115955"><ele>253.0</ele><time>2026-05-01T13:53:14.28Z</time></trkpt><trkpt lat="42.2694783" lon="14.1158267"><ele>251.8</ele><time>2026-05-01T13:53:16.279Z</time></trkpt><trkpt lat="42.2693983" lon="14.1157333"><ele>250.60000000000002</ele><time>2026-05-01T13:53:18.279Z</time></trkpt><trkpt lat="42.2692933" lon="14.11564"><ele>249.39999999999998</ele><time>2026-05-01T13:53:20.28Z</time></trkpt><trkpt lat="42.2691983" lon="14.1155533"><ele>248.2</ele><time>2026-05-01T13:53:22.28Z</time></trkpt><trkpt lat="42.2691267" lon="14.1154617"><ele>247.0</ele><time>2026-05-01T13:53:24.279Z</time></trkpt><trkpt lat="42.269075" lon="14.1153383"><ele>246.99999999999997</ele><time>2026-05-01T13:53:26.279Z</time></trkpt><trkpt lat="42.2690267" lon="14.115235"><ele>247.0</ele><time>2026-05-01T13:53:28.279Z</time></trkpt><trkpt lat="42.2689933" lon="14.115155"><ele>247.0</ele><time>2026-05-01T13:53:30.279Z</time></trkpt><trkpt lat="42.2689783" lon="14.1150383"><ele>247.0</ele><time>2026-05-01T13:53:33.279Z</time></trkpt><trkpt lat="42.2689467" lon="14.114955"><ele>246.99999999999997</ele><time>2026-05-01T13:53:36.279Z</time></trkpt><trkpt lat="42.268925" lon="14.114865"><ele>247.0</ele><time>2026-05-01T13:53:39.279Z</time></trkpt><trkpt lat="42.26888" lon="14.1147683"><ele>243.99999999999997</ele><time>2026-05-01T13:53:42.279Z</time></trkpt><trkpt lat="42.26886" lon="14.1146783"><ele>241.0</ele><time>2026-05-01T13:53:44.279Z</time></trkpt><trkpt lat="42.2688367" lon="14.11458"><ele>238.0</ele><time>2026-05-01T13:53:46.279Z</time></trkpt><trkpt lat="42.2688083" lon="14.1144983"><ele>235.0</ele><time>2026-05-01T13:53:48.279Z</time></trkpt><trkpt lat="42.2687835" lon="14.1143862"><ele>231.99999999999997</ele><time>2026-05-01T13:53:50.279Z</time></trkpt><trkpt lat="42.2687692" lon="14.1142839"><ele>229.0</ele><time>2026-05-01T13:53:51.279Z</time></trkpt><trkpt lat="42.2687495" lon="14.1141763"><ele>228.99999999999997</ele><time>2026-05-01T13:53:52.28Z</time></trkpt><trkpt lat="42.2687235" lon="14.114095"><ele>229.0</ele><time>2026-05-01T13:53:53.279Z</time></trkpt><trkpt lat="42.2686577" lon="14.1139554"><ele>229.0</ele><time>2026-05-01T13:53:55.279Z</time></trkpt><trkpt lat="42.268606" lon="14.1138965"><ele>229.0</ele><time>2026-05-01T13:53:56.279Z</time></trkpt><trkpt lat="42.2685473" lon="14.1138516"><ele>228.99999999999997</ele><time>2026-05-01T13:53:57.279Z</time></trkpt><trkpt lat="42.2684848" lon="14.1138065"><ele>229.0</ele><time>2026-05-01T13:53:58.279Z</time></trkpt><trkpt lat="42.268423" lon="14.1137632"><ele>229.0</ele><time>2026-05-01T13:53:59.279Z</time></trkpt><trkpt lat="42.2683646" lon="14.113714"><ele>228.99999999999997</ele><time>2026-05-01T13:54:00.279Z</time></trkpt><trkpt lat="42.2682597" lon="14.1136331"><ele>228.99999999999997</ele><time>2026-05-01T13:54:02.279Z</time></trkpt><trkpt lat="42.2681542" lon="14.1135706"><ele>229.0</ele><time>2026-05-01T13:54:04.279Z</time></trkpt><trkpt lat="42.2680542" lon="14.1134683"><ele>229.0</ele><time>2026-05-01T13:54:06.279Z</time></trkpt><trkpt lat="42.2680068" lon="14.1133963"><ele>228.66666666666666</ele><time>2026-05-01T13:54:07.279Z</time></trkpt><trkpt lat="42.2679586" lon="14.1133195"><ele>228.33333333333331</ele><time>2026-05-01T13:54:08.279Z</time></trkpt><trkpt lat="42.2679093" lon="14.113243"><ele>228.0</ele><time>2026-05-01T13:54:09.279Z</time></trkpt><trkpt lat="42.2678645" lon="14.1131694"><ele>227.66666666666669</ele><time>2026-05-01T13:54:10.279Z</time></trkpt><trkpt lat="42.2678029" lon="14.1130189"><ele>227.33333333333334</ele><time>2026-05-01T13:54:12.279Z</time></trkpt><trkpt lat="42.26777" lon="14.112943"><ele>227.0</ele><time>2026-05-01T13:54:13.279Z</time></trkpt><trkpt lat="42.2677278" lon="14.1128761"><ele>228.00000000000003</ele><time>2026-05-01T13:54:14.28Z</time></trkpt><trkpt lat="42.2676764" lon="14.1128071"><ele>229.0</ele><time>2026-05-01T13:54:15.279Z</time></trkpt><trkpt lat="42.267619" lon="14.112742"><ele>230.0</ele><time>2026-05-01T13:54:16.279Z</time></trkpt><trkpt lat="42.267563" lon="14.1126814"><ele>231.0</ele><time>2026-05-01T13:54:17.279Z</time></trkpt><trkpt lat="42.2675085" lon="14.1126262"><ele>232.00000000000003</ele><time>2026-05-01T13:54:18.279Z</time></trkpt><trkpt lat="42.2674594" lon="14.1125696"><ele>233.0</ele><time>2026-05-01T13:54:19.279Z</time></trkpt><trkpt lat="42.2673999" lon="14.1124132"><ele>232.42857142857144</ele><time>2026-05-01T13:54:21.279Z</time></trkpt><trkpt lat="42.2673762" lon="14.1123192"><ele>231.85714285714283</ele><time>2026-05-01T13:54:22.279Z</time></trkpt><trkpt lat="42.267351" lon="14.1122194"><ele>231.28571428571428</ele><time>2026-05-01T13:54:23.279Z</time></trkpt><trkpt lat="42.2673302" lon="14.1121209"><ele>230.71428571428572</ele><time>2026-05-01T13:54:24.28Z</time></trkpt><trkpt lat="42.2673073" lon="14.1120281"><ele>230.14285714285717</ele><time>2026-05-01T13:54:25.279Z</time></trkpt><trkpt lat="42.267287" lon="14.1119351"><ele>229.57142857142856</ele><time>2026-05-01T13:54:26.279Z</time></trkpt><trkpt lat="42.2672688" lon="14.1118385"><ele>229.0</ele><time>2026-05-01T13:54:27.279Z</time></trkpt><trkpt lat="42.2672396" lon="14.1117427"><ele>231.49999999999997</ele><time>2026-05-01T13:54:28.279Z</time></trkpt><trkpt lat="42.2672092" lon="14.1116385"><ele>234.0</ele><time>2026-05-01T13:54:29.279Z</time></trkpt><trkpt lat="42.2671811" lon="14.1115351"><ele>236.5</ele><time>2026-05-01T13:54:30.279Z</time></trkpt><trkpt lat="42.2671498" lon="14.1114238"><ele>239.0</ele><time>2026-05-01T13:54:31.279Z</time></trkpt><trkpt lat="42.2671189" lon="14.1113155"><ele>241.49999999999997</ele><time>2026-05-01T13:54:32.279Z</time></trkpt><trkpt lat="42.2670847" lon="14.1112072"><ele>244.0</ele><time>2026-05-01T13:54:33.279Z</time></trkpt><trkpt lat="42.2670481" lon="14.1110999"><ele>243.99999999999997</ele><time>2026-05-01T13:54:34.279Z</time></trkpt><trkpt lat="42.2670103" lon="14.1109885"><ele>244.0</ele><time>2026-05-01T13:54:35.28Z</time></trkpt><trkpt lat="42.266974" lon="14.1108846"><ele>244.0</ele><time>2026-05-01T13:54:36.279Z</time></trkpt><trkpt lat="42.266944" lon="14.110789"><ele>244.0</ele><time>2026-05-01T13:54:37.279Z</time></trkpt><trkpt lat="42.2669185" lon="14.1107087"><ele>243.99999999999997</ele><time>2026-05-01T13:54:38.28Z</time></trkpt><trkpt lat="42.2668797" lon="14.1105484"><ele>244.0</ele><time>2026-05-01T13:54:40.279Z</time></trkpt><trkpt lat="42.2668648" lon="14.1104603"><ele>244.4285714285714</ele><time>2026-05-01T13:54:41.279Z</time></trkpt><trkpt lat="42.2668518" lon="14.1103695"><ele>244.85714285714283</ele><time>2026-05-01T13:54:42.279Z</time></trkpt><trkpt lat="42.2668417" lon="14.1102783"><ele>245.28571428571428</ele><time>2026-05-01T13:54:43.279Z</time></trkpt><trkpt lat="42.2668283" lon="14.11018"><ele>245.7142857142857</ele><time>2026-05-01T13:54:44.279Z</time></trkpt><trkpt lat="42.2668183" lon="14.1100883"><ele>246.1428571428571</ele><time>2026-05-01T13:54:45.279Z</time></trkpt><trkpt lat="42.2668067" lon="14.1099967"><ele>246.57142857142858</ele><time>2026-05-01T13:54:46.279Z</time></trkpt><trkpt lat="42.2667917" lon="14.1099133"><ele>247.0</ele><time>2026-05-01T13:54:47.279Z</time></trkpt><trkpt lat="42.2667633" lon="14.109835"><ele>249.0</ele><time>2026-05-01T13:54:48.28Z</time></trkpt><trkpt lat="42.266705" lon="14.1097"><ele>251.0</ele><time>2026-05-01T13:54:50.279Z</time></trkpt><trkpt lat="42.2666733" lon="14.1096233"><ele>253.0</ele><time>2026-05-01T13:54:51.279Z</time></trkpt><trkpt lat="42.2666017" lon="14.1094667"><ele>255.0</ele><time>2026-05-01T13:54:53.279Z</time></trkpt><trkpt lat="42.2665617" lon="14.1093817"><ele>257.0</ele><time>2026-05-01T13:54:54.279Z</time></trkpt><trkpt lat="42.2665267" lon="14.1093033"><ele>257.0</ele><time>2026-05-01T13:54:55.279Z</time></trkpt><trkpt lat="42.2664917" lon="14.1092167"><ele>257.0</ele><time>2026-05-01T13:54:56.279Z</time></trkpt><trkpt lat="42.2664517" lon="14.1091433"><ele>257.0</ele><time>2026-05-01T13:54:57.279Z</time></trkpt><trkpt lat="42.26641" lon="14.1090733"><ele>257.0</ele><time>2026-05-01T13:54:58.279Z</time></trkpt><trkpt lat="42.26634" lon="14.1089417"><ele>257.0</ele><time>2026-05-01T13:55:00.279Z</time></trkpt><trkpt lat="42.2662567" lon="14.1088133"><ele>258.42857142857144</ele><time>2026-05-01T13:55:02.279Z</time></trkpt><trkpt lat="42.2662067" lon="14.1087467"><ele>259.8571428571429</ele><time>2026-05-01T13:55:03.279Z</time></trkpt><trkpt lat="42.266155" lon="14.1086733"><ele>261.28571428571433</ele><time>2026-05-01T13:55:04.279Z</time></trkpt><trkpt lat="42.2661033" lon="14.1085967"><ele>262.7142857142857</ele><time>2026-05-01T13:55:05.279Z</time></trkpt><trkpt lat="42.26605" lon="14.10852"><ele>264.14285714285717</ele><time>2026-05-01T13:55:06.279Z</time></trkpt><trkpt lat="42.2660017" lon="14.1084433"><ele>265.5714285714286</ele><time>2026-05-01T13:55:07.279Z</time></trkpt><trkpt lat="42.2659533" lon="14.1083717"><ele>267.0</ele><time>2026-05-01T13:55:08.279Z</time></trkpt><trkpt lat="42.2659117" lon="14.1083"><ele>267.3333333333333</ele><time>2026-05-01T13:55:09.279Z</time></trkpt><trkpt lat="42.265875" lon="14.108225"><ele>267.6666666666667</ele><time>2026-05-01T13:55:10.279Z</time></trkpt><trkpt lat="42.2658367" lon="14.10815"><ele>268.0</ele><time>2026-05-01T13:55:11.279Z</time></trkpt><trkpt lat="42.2658067" lon="14.1080733"><ele>268.33333333333337</ele><time>2026-05-01T13:55:12.279Z</time></trkpt><trkpt lat="42.2657517" lon="14.1079267"><ele>268.6666666666667</ele><time>2026-05-01T13:55:14.279Z</time></trkpt><trkpt lat="42.2657233" lon="14.10785"><ele>269.0</ele><time>2026-05-01T13:55:15.279Z</time></trkpt><trkpt lat="42.26567" lon="14.1077033"><ele>269.2</ele><time>2026-05-01T13:55:17.279Z</time></trkpt><trkpt lat="42.2656067" lon="14.1075667"><ele>269.4</ele><time>2026-05-01T13:55:19.279Z</time></trkpt><trkpt lat="42.2655267" lon="14.1074383"><ele>269.6</ele><time>2026-05-01T13:55:21.279Z</time></trkpt><trkpt lat="42.2654583" lon="14.10732"><ele>269.8</ele><time>2026-05-01T13:55:23.279Z</time></trkpt><trkpt lat="42.265445" lon="14.1072067"><ele>270.0</ele><time>2026-05-01T13:55:25.279Z</time></trkpt><trkpt lat="42.2654233" lon="14.1071267"><ele>270.0</ele><time>2026-05-01T13:58:46.279Z</time></trkpt><trkpt lat="42.265365" lon="14.10705"><ele>270.0</ele><time>2026-05-01T14:00:43.279Z</time></trkpt><trkpt lat="42.2653417" lon="14.10697"><ele>270.0</ele><time>2026-05-01T14:00:45.28Z</time></trkpt><trkpt lat="42.2654033" lon="14.1069233"><ele>270.0</ele><time>2026-05-01T14:00:48.279Z</time></trkpt><trkpt lat="42.2654583" lon="14.10683"><ele>270.0</ele><time>2026-05-01T14:00:51.279Z</time></trkpt><trkpt lat="42.2655017" lon="14.10674"><ele>270.0</ele><time>2026-05-01T14:00:54.279Z</time></trkpt><trkpt lat="42.2655383" lon="14.1066567"><ele>270.0</ele><time>2026-05-01T14:00:57.279Z</time></trkpt><trkpt lat="42.2655717" lon="14.1065817"><ele>270.0</ele><time>2026-05-01T14:00:59.279Z</time></trkpt><trkpt lat="42.265615" lon="14.1065083"><ele>270.0</ele><time>2026-05-01T14:01:01.279Z</time></trkpt><trkpt lat="42.265675" lon="14.106465"><ele>270.0</ele><time>2026-05-01T14:01:04.279Z</time></trkpt><trkpt lat="42.2657467" lon="14.106435"><ele>270.0</ele><time>2026-05-01T14:01:07.279Z</time></trkpt><trkpt lat="42.2658117" lon="14.106405"><ele>270.0</ele><time>2026-05-01T14:01:10.279Z</time></trkpt><trkpt lat="42.2659033" lon="14.106365"><ele>270.0</ele><time>2026-05-01T14:01:14.279Z</time></trkpt><trkpt lat="42.2659967" lon="14.106325"><ele>265.8333333333333</ele><time>2026-05-01T14:01:17.279Z</time></trkpt><trkpt lat="42.2660283" lon="14.106215"><ele>261.6666666666667</ele><time>2026-05-01T14:01:20.279Z</time></trkpt><trkpt lat="42.2660683" lon="14.106115"><ele>257.5</ele><time>2026-05-01T14:01:23.28Z</time></trkpt><trkpt lat="42.2661033" lon="14.1060367"><ele>253.33333333333334</ele><time>2026-05-01T14:01:26.28Z</time></trkpt><trkpt lat="42.2661417" lon="14.1059517"><ele>249.16666666666669</ele><time>2026-05-01T14:01:30.279Z</time></trkpt><trkpt lat="42.2661733" lon="14.1058533"><ele>245.0</ele><time>2026-05-01T14:01:33.279Z</time></trkpt><trkpt lat="42.266195" lon="14.10575"><ele>241.71428571428572</ele><time>2026-05-01T14:01:37.279Z</time></trkpt><trkpt lat="42.2662167" lon="14.1056617"><ele>238.42857142857144</ele><time>2026-05-01T14:01:43.279Z</time></trkpt><trkpt lat="42.2662317" lon="14.105565"><ele>235.14285714285714</ele><time>2026-05-01T14:01:57.279Z</time></trkpt><trkpt lat="42.2662617" lon="14.1054833"><ele>231.85714285714286</ele><time>2026-05-01T14:02:13.279Z</time></trkpt><trkpt lat="42.2663033" lon="14.1053967"><ele>228.57142857142858</ele><time>2026-05-01T14:02:29.279Z</time></trkpt><trkpt lat="42.2663183" lon="14.1053017"><ele>225.28571428571428</ele><time>2026-05-01T14:02:31.279Z</time></trkpt><trkpt lat="42.2663333" lon="14.1052183"><ele>222.0</ele><time>2026-05-01T14:02:33.279Z</time></trkpt><trkpt lat="42.26635" lon="14.1051217"><ele>222.0</ele><time>2026-05-01T14:02:35.279Z</time></trkpt><trkpt lat="42.2663867" lon="14.1050367"><ele>222.0</ele><time>2026-05-01T14:02:38.279Z</time></trkpt><trkpt lat="42.2664317" lon="14.10497"><ele>222.0</ele><time>2026-05-01T14:02:41.279Z</time></trkpt><trkpt lat="42.26648" lon="14.1049133"><ele>222.0</ele><time>2026-05-01T14:02:43.279Z</time></trkpt><trkpt lat="42.266545" lon="14.1048617"><ele>222.0</ele><time>2026-05-01T14:02:45.279Z</time></trkpt><trkpt lat="42.2666317" lon="14.104795"><ele>222.0</ele><time>2026-05-01T14:02:47.279Z</time></trkpt><trkpt lat="42.2667467" lon="14.1047533"><ele>218.8</ele><time>2026-05-01T14:02:49.279Z</time></trkpt><trkpt lat="42.2668683" lon="14.104735"><ele>215.6</ele><time>2026-05-01T14:02:51.279Z</time></trkpt><trkpt lat="42.266935" lon="14.1047283"><ele>212.4</ele><time>2026-05-01T14:02:52.279Z</time></trkpt><trkpt lat="42.26701" lon="14.104715"><ele>209.20000000000002</ele><time>2026-05-01T14:02:53.279Z</time></trkpt><trkpt lat="42.2670817" lon="14.1047017"><ele>206.0</ele><time>2026-05-01T14:02:54.279Z</time></trkpt><trkpt lat="42.2672083" lon="14.1046717"><ele>205.99999999999997</ele><time>2026-05-01T14:02:56.279Z</time></trkpt><trkpt lat="42.2672733" lon="14.1046533"><ele>206.0</ele><time>2026-05-01T14:02:57.279Z</time></trkpt><trkpt lat="42.2673367" lon="14.10463"><ele>206.0</ele><time>2026-05-01T14:02:58.279Z</time></trkpt><trkpt lat="42.267405" lon="14.1046133"><ele>206.0</ele><time>2026-05-01T14:02:59.28Z</time></trkpt><trkpt lat="42.2674767" lon="14.1046"><ele>206.0</ele><time>2026-05-01T14:03:00.279Z</time></trkpt><trkpt lat="42.2675533" lon="14.1045883"><ele>205.99999999999997</ele><time>2026-05-01T14:03:01.279Z</time></trkpt><trkpt lat="42.267635" lon="14.1045833"><ele>206.0</ele><time>2026-05-01T14:03:02.279Z</time></trkpt><trkpt lat="42.2677267" lon="14.1045767"><ele>206.60000000000002</ele><time>2026-05-01T14:03:03.279Z</time></trkpt><trkpt lat="42.267825" lon="14.1045617"><ele>207.2</ele><time>2026-05-01T14:03:04.279Z</time></trkpt><trkpt lat="42.2679283" lon="14.1045433"><ele>207.8</ele><time>2026-05-01T14:03:05.279Z</time></trkpt><trkpt lat="42.268025" lon="14.1045267"><ele>208.39999999999998</ele><time>2026-05-01T14:03:06.279Z</time></trkpt><trkpt lat="42.2681033" lon="14.1045117"><ele>209.0</ele><time>2026-05-01T14:03:07.279Z</time></trkpt><trkpt lat="42.2681733" lon="14.1044933"><ele>209.71428571428572</ele><time>2026-05-01T14:03:08.279Z</time></trkpt><trkpt lat="42.268245" lon="14.1044783"><ele>210.42857142857142</ele><time>2026-05-01T14:03:09.279Z</time></trkpt><trkpt lat="42.2683133" lon="14.1044567"><ele>211.14285714285717</ele><time>2026-05-01T14:03:10.279Z</time></trkpt><trkpt lat="42.2683767" lon="14.1044367"><ele>211.85714285714286</ele><time>2026-05-01T14:03:11.279Z</time></trkpt><trkpt lat="42.26844" lon="14.1044183"><ele>212.57142857142858</ele><time>2026-05-01T14:03:12.279Z</time></trkpt><trkpt lat="42.268505" lon="14.1044067"><ele>213.2857142857143</ele><time>2026-05-01T14:03:13.279Z</time></trkpt><trkpt lat="42.2686117" lon="14.1043967"><ele>214.0</ele><time>2026-05-01T14:03:15.279Z</time></trkpt><trkpt lat="42.2687217" lon="14.1044167"><ele>213.99999999999997</ele><time>2026-05-01T14:03:17.279Z</time></trkpt><trkpt lat="42.2688383" lon="14.1044383"><ele>214.0</ele><time>2026-05-01T14:03:19.28Z</time></trkpt><trkpt lat="42.2689017" lon="14.10445"><ele>214.0</ele><time>2026-05-01T14:03:20.279Z</time></trkpt><trkpt lat="42.26897" lon="14.1044667"><ele>214.0</ele><time>2026-05-01T14:03:21.279Z</time></trkpt><trkpt lat="42.2690317" lon="14.1044917"><ele>213.99999999999997</ele><time>2026-05-01T14:03:22.279Z</time></trkpt><trkpt lat="42.2691" lon="14.1045083"><ele>214.0</ele><time>2026-05-01T14:03:23.279Z</time></trkpt><trkpt lat="42.2692217" lon="14.1045367"><ele>213.79999999999998</ele><time>2026-05-01T14:03:25.279Z</time></trkpt><trkpt lat="42.2693467" lon="14.1045917"><ele>213.59999999999997</ele><time>2026-05-01T14:03:27.279Z</time></trkpt><trkpt lat="42.26942" lon="14.1046133"><ele>213.4</ele><time>2026-05-01T14:03:28.279Z</time></trkpt><trkpt lat="42.269505" lon="14.1046217"><ele>213.2</ele><time>2026-05-01T14:03:29.279Z</time></trkpt><trkpt lat="42.2695883" lon="14.1046117"><ele>213.0</ele><time>2026-05-01T14:03:30.279Z</time></trkpt><trkpt lat="42.2696733" lon="14.1045933"><ele>213.0</ele><time>2026-05-01T14:03:31.279Z</time></trkpt><trkpt lat="42.2697617" lon="14.1045817"><ele>213.0</ele><time>2026-05-01T14:03:32.28Z</time></trkpt><trkpt lat="42.2698533" lon="14.1045783"><ele>213.0</ele><time>2026-05-01T14:03:33.279Z</time></trkpt><trkpt lat="42.2699417" lon="14.1045833"><ele>213.0</ele><time>2026-05-01T14:03:34.279Z</time></trkpt><trkpt lat="42.2700283" lon="14.1045933"><ele>213.0</ele><time>2026-05-01T14:03:35.279Z</time></trkpt><trkpt lat="42.2701133" lon="14.1046033"><ele>213.0</ele><time>2026-05-01T14:03:36.28Z</time></trkpt><trkpt lat="42.2702017" lon="14.1046117"><ele>213.5</ele><time>2026-05-01T14:03:37.279Z</time></trkpt><trkpt lat="42.2702817" lon="14.1046183"><ele>214.0</ele><time>2026-05-01T14:03:38.28Z</time></trkpt><trkpt lat="42.2703617" lon="14.1046217"><ele>214.5</ele><time>2026-05-01T14:03:39.28Z</time></trkpt><trkpt lat="42.2704383" lon="14.10462"><ele>215.0</ele><time>2026-05-01T14:03:40.279Z</time></trkpt><trkpt lat="42.2705083" lon="14.10462"><ele>215.5</ele><time>2026-05-01T14:03:41.279Z</time></trkpt><trkpt lat="42.2705733" lon="14.1046217"><ele>216.0</ele><time>2026-05-01T14:03:42.279Z</time></trkpt><trkpt lat="42.270675" lon="14.1045983"><ele>216.0</ele><time>2026-05-01T14:03:44.279Z</time></trkpt><trkpt lat="42.2707667" lon="14.1045783"><ele>216.0</ele><time>2026-05-01T14:03:46.279Z</time></trkpt><trkpt lat="42.270895" lon="14.104555"><ele>216.0</ele><time>2026-05-01T14:03:48.279Z</time></trkpt><trkpt lat="42.270965" lon="14.104525"><ele>216.0</ele><time>2026-05-01T14:03:49.279Z</time></trkpt><trkpt lat="42.2710367" lon="14.1045067"><ele>216.0</ele><time>2026-05-01T14:03:50.279Z</time></trkpt><trkpt lat="42.2711017" lon="14.10449"><ele>216.0</ele><time>2026-05-01T14:03:51.279Z</time></trkpt><trkpt lat="42.271165" lon="14.1044733"><ele>216.0</ele><time>2026-05-01T14:03:52.279Z</time></trkpt><trkpt lat="42.271235" lon="14.1044533"><ele>216.0</ele><time>2026-05-01T14:03:53.279Z</time></trkpt><trkpt lat="42.2713217" lon="14.1044417"><ele>216.0</ele><time>2026-05-01T14:03:54.279Z</time></trkpt><trkpt lat="42.271405" lon="14.1044417"><ele>216.0</ele><time>2026-05-01T14:03:55.279Z</time></trkpt><trkpt lat="42.2714817" lon="14.1044433"><ele>216.0</ele><time>2026-05-01T14:03:56.279Z</time></trkpt><trkpt lat="42.2715483" lon="14.10444"><ele>216.0</ele><time>2026-05-01T14:03:57.28Z</time></trkpt><trkpt lat="42.271615" lon="14.104425"><ele>214.83333333333334</ele><time>2026-05-01T14:03:58.279Z</time></trkpt><trkpt lat="42.2716733" lon="14.1043767"><ele>213.66666666666669</ele><time>2026-05-01T14:03:59.279Z</time></trkpt><trkpt lat="42.2717417" lon="14.10431"><ele>212.5</ele><time>2026-05-01T14:04:00.279Z</time></trkpt><trkpt lat="42.2718133" lon="14.104235"><ele>211.33333333333334</ele><time>2026-05-01T14:04:01.279Z</time></trkpt><trkpt lat="42.2718767" lon="14.1041583"><ele>210.16666666666669</ele><time>2026-05-01T14:04:02.279Z</time></trkpt><trkpt lat="42.2719433" lon="14.104085"><ele>209.0</ele><time>2026-05-01T14:04:03.279Z</time></trkpt><trkpt lat="42.2719917" lon="14.1040017"><ele>206.66666666666669</ele><time>2026-05-01T14:04:04.279Z</time></trkpt><trkpt lat="42.2720333" lon="14.1039233"><ele>204.33333333333334</ele><time>2026-05-01T14:04:05.279Z</time></trkpt><trkpt lat="42.27207" lon="14.10383"><ele>202.0</ele><time>2026-05-01T14:04:06.279Z</time></trkpt><trkpt lat="42.272105" lon="14.1037183"><ele>199.66666666666669</ele><time>2026-05-01T14:04:07.279Z</time></trkpt><trkpt lat="42.2721333" lon="14.1036017"><ele>197.33333333333334</ele><time>2026-05-01T14:04:08.28Z</time></trkpt><trkpt lat="42.2721583" lon="14.10349"><ele>195.0</ele><time>2026-05-01T14:04:09.28Z</time></trkpt><trkpt lat="42.2721867" lon="14.1033783"><ele>195.0</ele><time>2026-05-01T14:04:10.279Z</time></trkpt><trkpt lat="42.2722067" lon="14.1032567"><ele>195.0</ele><time>2026-05-01T14:04:11.28Z</time></trkpt><trkpt lat="42.2722133" lon="14.1031383"><ele>195.0</ele><time>2026-05-01T14:04:12.279Z</time></trkpt><trkpt lat="42.2722133" lon="14.10303"><ele>195.0</ele><time>2026-05-01T14:04:13.28Z</time></trkpt><trkpt lat="42.272225" lon="14.1029283"><ele>195.0</ele><time>2026-05-01T14:04:14.279Z</time></trkpt><trkpt lat="42.2722467" lon="14.1028317"><ele>195.0</ele><time>2026-05-01T14:04:15.279Z</time></trkpt><trkpt lat="42.2722783" lon="14.1027417"><ele>194.5</ele><time>2026-05-01T14:04:16.279Z</time></trkpt><trkpt lat="42.272325" lon="14.10267"><ele>194.0</ele><time>2026-05-01T14:04:17.279Z</time></trkpt><trkpt lat="42.2723883" lon="14.102605"><ele>193.5</ele><time>2026-05-01T14:04:18.279Z</time></trkpt><trkpt lat="42.272465" lon="14.1025417"><ele>193.0</ele><time>2026-05-01T14:04:19.279Z</time></trkpt><trkpt lat="42.272545" lon="14.1024733"><ele>192.5</ele><time>2026-05-01T14:04:20.279Z</time></trkpt><trkpt lat="42.2726183" lon="14.1024083"><ele>192.0</ele><time>2026-05-01T14:04:21.279Z</time></trkpt><trkpt lat="42.2726867" lon="14.1023433"><ele>192.0</ele><time>2026-05-01T14:04:22.279Z</time></trkpt><trkpt lat="42.2727517" lon="14.1022683"><ele>192.0</ele><time>2026-05-01T14:04:23.279Z</time></trkpt><trkpt lat="42.27281" lon="14.1021783"><ele>192.0</ele><time>2026-05-01T14:04:24.279Z</time></trkpt><trkpt lat="42.2728533" lon="14.1020783"><ele>192.0</ele><time>2026-05-01T14:04:25.279Z</time></trkpt><trkpt lat="42.272885" lon="14.1019783"><ele>192.0</ele><time>2026-05-01T14:04:26.279Z</time></trkpt><trkpt lat="42.2729133" lon="14.1018733"><ele>192.0</ele><time>2026-05-01T14:04:27.279Z</time></trkpt><trkpt lat="42.2729433" lon="14.1017683"><ele>192.0</ele><time>2026-05-01T14:04:28.279Z</time></trkpt><trkpt lat="42.2729867" lon="14.10167"><ele>192.0</ele><time>2026-05-01T14:04:29.279Z</time></trkpt><trkpt lat="42.2730333" lon="14.10158"><ele>192.0</ele><time>2026-05-01T14:04:30.279Z</time></trkpt><trkpt lat="42.2730933" lon="14.101505"><ele>192.0</ele><time>2026-05-01T14:04:31.279Z</time></trkpt><trkpt lat="42.2731633" lon="14.1014667"><ele>192.0</ele><time>2026-05-01T14:04:32.279Z</time></trkpt><trkpt lat="42.2732467" lon="14.1014583"><ele>192.0</ele><time>2026-05-01T14:04:33.279Z</time></trkpt><trkpt lat="42.27333" lon="14.1014667"><ele>191.8</ele><time>2026-05-01T14:04:34.28Z</time></trkpt><trkpt lat="42.2734183" lon="14.101495"><ele>191.6</ele><time>2026-05-01T14:04:35.279Z</time></trkpt><trkpt lat="42.2735117" lon="14.1015267"><ele>191.4</ele><time>2026-05-01T14:04:36.279Z</time></trkpt><trkpt lat="42.2736067" lon="14.1015667"><ele>191.20000000000002</ele><time>2026-05-01T14:04:37.279Z</time></trkpt><trkpt lat="42.2737067" lon="14.1016117"><ele>191.0</ele><time>2026-05-01T14:04:38.279Z</time></trkpt><trkpt lat="42.2738067" lon="14.10166"><ele>189.8</ele><time>2026-05-01T14:04:39.279Z</time></trkpt><trkpt lat="42.273915" lon="14.1017033"><ele>188.60000000000002</ele><time>2026-05-01T14:04:40.279Z</time></trkpt><trkpt lat="42.274015" lon="14.1017383"><ele>187.4</ele><time>2026-05-01T14:04:41.28Z</time></trkpt><trkpt lat="42.2741133" lon="14.1017733"><ele>186.2</ele><time>2026-05-01T14:04:42.28Z</time></trkpt><trkpt lat="42.2742183" lon="14.101785"><ele>185.0</ele><time>2026-05-01T14:04:43.279Z</time></trkpt><trkpt lat="42.2743233" lon="14.1017833"><ele>185.0</ele><time>2026-05-01T14:04:44.279Z</time></trkpt><trkpt lat="42.2744167" lon="14.1017583"><ele>185.0</ele><time>2026-05-01T14:04:45.279Z</time></trkpt><trkpt lat="42.274505" lon="14.1017133"><ele>185.0</ele><time>2026-05-01T14:04:46.279Z</time></trkpt><trkpt lat="42.2745817" lon="14.1016567"><ele>185.0</ele><time>2026-05-01T14:04:47.279Z</time></trkpt><trkpt lat="42.2746617" lon="14.1015917"><ele>185.0</ele><time>2026-05-01T14:04:48.279Z</time></trkpt><trkpt lat="42.2747383" lon="14.101505"><ele>183.8</ele><time>2026-05-01T14:04:49.279Z</time></trkpt><trkpt lat="42.2748117" lon="14.10141"><ele>182.6</ele><time>2026-05-01T14:04:50.279Z</time></trkpt><trkpt lat="42.2748767" lon="14.101305"><ele>181.39999999999998</ele><time>2026-05-01T14:04:51.279Z</time></trkpt><trkpt lat="42.274935" lon="14.1011783"><ele>180.2</ele><time>2026-05-01T14:04:52.279Z</time></trkpt><trkpt lat="42.2749967" lon="14.101025"><ele>179.0</ele><time>2026-05-01T14:04:53.279Z</time></trkpt><trkpt lat="42.275065" lon="14.1008533"><ele>177.75</ele><time>2026-05-01T14:04:54.279Z</time></trkpt><trkpt lat="42.2751317" lon="14.100685"><ele>176.5</ele><time>2026-05-01T14:04:55.279Z</time></trkpt><trkpt lat="42.2751983" lon="14.1005167"><ele>175.25</ele><time>2026-05-01T14:04:56.279Z</time></trkpt><trkpt lat="42.2752667" lon="14.1003433"><ele>174.0</ele><time>2026-05-01T14:04:57.279Z</time></trkpt><trkpt lat="42.2753433" lon="14.1001583"><ele>174.0</ele><time>2026-05-01T14:04:58.279Z</time></trkpt><trkpt lat="42.27541" lon="14.099975"><ele>174.0</ele><time>2026-05-01T14:04:59.279Z</time></trkpt><trkpt lat="42.2754617" lon="14.099805"><ele>174.0</ele><time>2026-05-01T14:05:00.279Z</time></trkpt><trkpt lat="42.275495" lon="14.0996283"><ele>174.0</ele><time>2026-05-01T14:05:01.279Z</time></trkpt><trkpt lat="42.27551" lon="14.0994467"><ele>174.33333333333334</ele><time>2026-05-01T14:05:02.28Z</time></trkpt><trkpt lat="42.2754967" lon="14.099225"><ele>174.66666666666669</ele><time>2026-05-01T14:05:03.279Z</time></trkpt><trkpt lat="42.2754667" lon="14.0990083"><ele>175.0</ele><time>2026-05-01T14:05:04.279Z</time></trkpt><trkpt lat="42.2754383" lon="14.0988117"><ele>176.25</ele><time>2026-05-01T14:05:05.28Z</time></trkpt><trkpt lat="42.27541" lon="14.0986183"><ele>177.5</ele><time>2026-05-01T14:05:06.279Z</time></trkpt><trkpt lat="42.27538" lon="14.0984233"><ele>178.75</ele><time>2026-05-01T14:05:07.279Z</time></trkpt><trkpt lat="42.2753633" lon="14.0982417"><ele>180.0</ele><time>2026-05-01T14:05:08.279Z</time></trkpt><trkpt lat="42.2753367" lon="14.098065"><ele>180.0</ele><time>2026-05-01T14:05:09.28Z</time></trkpt><trkpt lat="42.275325" lon="14.0978883"><ele>180.0</ele><time>2026-05-01T14:05:10.279Z</time></trkpt><trkpt lat="42.2753217" lon="14.09772"><ele>180.0</ele><time>2026-05-01T14:05:11.279Z</time></trkpt><trkpt lat="42.275335" lon="14.0975567"><ele>180.0</ele><time>2026-05-01T14:05:12.279Z</time></trkpt><trkpt lat="42.275345" lon="14.0973933"><ele>178.75</ele><time>2026-05-01T14:05:13.279Z</time></trkpt><trkpt lat="42.27536" lon="14.0972333"><ele>177.5</ele><time>2026-05-01T14:05:14.279Z</time></trkpt><trkpt lat="42.2753733" lon="14.0970733"><ele>176.25</ele><time>2026-05-01T14:05:15.279Z</time></trkpt><trkpt lat="42.275385" lon="14.0969067"><ele>175.0</ele><time>2026-05-01T14:05:16.28Z</time></trkpt><trkpt lat="42.27541" lon="14.0967383"><ele>173.25</ele><time>2026-05-01T14:05:17.279Z</time></trkpt><trkpt lat="42.27543" lon="14.0965783"><ele>171.5</ele><time>2026-05-01T14:05:18.279Z</time></trkpt><trkpt lat="42.275445" lon="14.0964133"><ele>169.75</ele><time>2026-05-01T14:05:19.279Z</time></trkpt><trkpt lat="42.275465" lon="14.0962517"><ele>168.0</ele><time>2026-05-01T14:05:20.279Z</time></trkpt><trkpt lat="42.2754883" lon="14.0961"><ele>168.0</ele><time>2026-05-01T14:05:21.279Z</time></trkpt><trkpt lat="42.2755217" lon="14.0959467"><ele>168.0</ele><time>2026-05-01T14:05:22.279Z</time></trkpt><trkpt lat="42.27555" lon="14.0958083"><ele>168.0</ele><time>2026-05-01T14:05:23.279Z</time></trkpt><trkpt lat="42.27558" lon="14.0956833"><ele>168.0</ele><time>2026-05-01T14:05:24.279Z</time></trkpt><trkpt lat="42.2755983" lon="14.0955683"><ele>168.0</ele><time>2026-05-01T14:05:25.279Z</time></trkpt><trkpt lat="42.2756117" lon="14.0954733"><ele>167.5</ele><time>2026-05-01T14:05:26.279Z</time></trkpt><trkpt lat="42.2756083" lon="14.0953817"><ele>167.0</ele><time>2026-05-01T14:05:27.279Z</time></trkpt><trkpt lat="42.27564" lon="14.0952233"><ele>166.5</ele><time>2026-05-01T14:05:29.279Z</time></trkpt><trkpt lat="42.275685" lon="14.0951633"><ele>166.0</ele><time>2026-05-01T14:05:30.279Z</time></trkpt><trkpt lat="42.27574" lon="14.0951117"><ele>165.5</ele><time>2026-05-01T14:05:31.279Z</time></trkpt><trkpt lat="42.2758233" lon="14.0950567"><ele>165.0</ele><time>2026-05-01T14:05:32.279Z</time></trkpt><trkpt lat="42.2759283" lon="14.0949967"><ele>165.0</ele><time>2026-05-01T14:05:33.279Z</time></trkpt><trkpt lat="42.2760517" lon="14.0949333"><ele>165.0</ele><time>2026-05-01T14:05:34.279Z</time></trkpt><trkpt lat="42.27617" lon="14.0948683"><ele>165.0</ele><time>2026-05-01T14:05:35.28Z</time></trkpt><trkpt lat="42.2762867" lon="14.0948083"><ele>165.0</ele><time>2026-05-01T14:05:36.279Z</time></trkpt><trkpt lat="42.2763933" lon="14.0947367"><ele>162.25</ele><time>2026-05-01T14:05:37.279Z</time></trkpt><trkpt lat="42.2765" lon="14.09467"><ele>159.5</ele><time>2026-05-01T14:05:38.279Z</time></trkpt><trkpt lat="42.2766" lon="14.094595"><ele>156.75</ele><time>2026-05-01T14:05:39.279Z</time></trkpt><trkpt lat="42.2767017" lon="14.0945083"><ele>154.0</ele><time>2026-05-01T14:05:40.279Z</time></trkpt><trkpt lat="42.2767833" lon="14.0943967"><ele>154.0</ele><time>2026-05-01T14:05:41.279Z</time></trkpt><trkpt lat="42.2768417" lon="14.09425"><ele>154.0</ele><time>2026-05-01T14:05:42.279Z</time></trkpt><trkpt lat="42.276885" lon="14.0940717"><ele>154.0</ele><time>2026-05-01T14:05:43.279Z</time></trkpt><trkpt lat="42.2769367" lon="14.09387"><ele>154.0</ele><time>2026-05-01T14:05:44.279Z</time></trkpt><trkpt lat="42.27698" lon="14.0936583"><ele>151.75</ele><time>2026-05-01T14:05:45.279Z</time></trkpt><trkpt lat="42.2770167" lon="14.093465"><ele>149.5</ele><time>2026-05-01T14:05:46.279Z</time></trkpt><trkpt lat="42.2770517" lon="14.0932783"><ele>147.25</ele><time>2026-05-01T14:05:47.279Z</time></trkpt><trkpt lat="42.2770833" lon="14.0931033"><ele>145.0</ele><time>2026-05-01T14:05:48.279Z</time></trkpt><trkpt lat="42.2771083" lon="14.0929283"><ele>142.75</ele><time>2026-05-01T14:05:49.279Z</time></trkpt><trkpt lat="42.27713" lon="14.092745"><ele>140.5</ele><time>2026-05-01T14:05:50.279Z</time></trkpt><trkpt lat="42.27714" lon="14.0925567"><ele>138.25</ele><time>2026-05-01T14:05:51.279Z</time></trkpt><trkpt lat="42.277145" lon="14.09236"><ele>136.0</ele><time>2026-05-01T14:05:52.279Z</time></trkpt><trkpt lat="42.2771367" lon="14.092165"><ele>133.75</ele><time>2026-05-01T14:05:53.279Z</time></trkpt><trkpt lat="42.2771333" lon="14.0919783"><ele>131.5</ele><time>2026-05-01T14:05:54.279Z</time></trkpt><trkpt lat="42.2771367" lon="14.091805"><ele>129.25</ele><time>2026-05-01T14:05:55.279Z</time></trkpt><trkpt lat="42.2771517" lon="14.09166"><ele>127.0</ele><time>2026-05-01T14:05:56.279Z</time></trkpt><trkpt lat="42.2771717" lon="14.0915217"><ele>128.2</ele><time>2026-05-01T14:05:57.279Z</time></trkpt><trkpt lat="42.277195" lon="14.0913717"><ele>129.39999999999998</ele><time>2026-05-01T14:05:58.28Z</time></trkpt><trkpt lat="42.277225" lon="14.0912533"><ele>130.60000000000002</ele><time>2026-05-01T14:05:59.279Z</time></trkpt><trkpt lat="42.27727" lon="14.091145"><ele>131.8</ele><time>2026-05-01T14:06:00.279Z</time></trkpt><trkpt lat="42.27732" lon="14.0910617"><ele>133.0</ele><time>2026-05-01T14:06:01.279Z</time></trkpt><trkpt lat="42.27739" lon="14.0910083"><ele>133.0</ele><time>2026-05-01T14:06:02.279Z</time></trkpt><trkpt lat="42.2774783" lon="14.0910183"><ele>133.0</ele><time>2026-05-01T14:06:03.279Z</time></trkpt><trkpt lat="42.2775867" lon="14.0910733"><ele>133.0</ele><time>2026-05-01T14:06:04.279Z</time></trkpt><trkpt lat="42.2776917" lon="14.09114"><ele>133.0</ele><time>2026-05-01T14:06:05.279Z</time></trkpt><trkpt lat="42.2777833" lon="14.0911967"><ele>133.0</ele><time>2026-05-01T14:06:06.279Z</time></trkpt><trkpt lat="42.27786" lon="14.0912383"><ele>133.0</ele><time>2026-05-01T14:06:07.279Z</time></trkpt><trkpt lat="42.2779267" lon="14.0912567"><ele>133.0</ele><time>2026-05-01T14:06:08.279Z</time></trkpt><trkpt lat="42.278035" lon="14.09118"><ele>133.0</ele><time>2026-05-01T14:06:10.279Z</time></trkpt><trkpt lat="42.2780733" lon="14.0910933"><ele>133.0</ele><time>2026-05-01T14:06:11.279Z</time></trkpt><trkpt lat="42.2780833" lon="14.0909767"><ele>133.0</ele><time>2026-05-01T14:06:12.279Z</time></trkpt><trkpt lat="42.2780717" lon="14.09086"><ele>133.0</ele><time>2026-05-01T14:06:13.279Z</time></trkpt><trkpt lat="42.2780467" lon="14.0907617"><ele>130.6</ele><time>2026-05-01T14:06:14.279Z</time></trkpt><trkpt lat="42.2780383" lon="14.09065"><ele>128.20000000000002</ele><time>2026-05-01T14:06:16.279Z</time></trkpt><trkpt lat="42.2781033" lon="14.0906717"><ele>125.8</ele><time>2026-05-01T14:06:20.28Z</time></trkpt><trkpt lat="42.27815" lon="14.0908467"><ele>123.4</ele><time>2026-05-01T14:06:22.28Z</time></trkpt><trkpt lat="42.2781967" lon="14.0909717"><ele>121.0</ele><time>2026-05-01T14:06:23.28Z</time></trkpt><trkpt lat="42.2782467" lon="14.0911017"><ele>120.75</ele><time>2026-05-01T14:06:24.28Z</time></trkpt><trkpt lat="42.2782933" lon="14.09124"><ele>120.5</ele><time>2026-05-01T14:06:25.28Z</time></trkpt><trkpt lat="42.2783383" lon="14.0914067"><ele>120.25</ele><time>2026-05-01T14:06:26.28Z</time></trkpt><trkpt lat="42.2783783" lon="14.0915733"><ele>120.0</ele><time>2026-05-01T14:06:27.281Z</time></trkpt><trkpt lat="42.2784217" lon="14.0917667"><ele>121.0</ele><time>2026-05-01T14:06:28.28Z</time></trkpt><trkpt lat="42.2784667" lon="14.0919683"><ele>122.0</ele><time>2026-05-01T14:06:29.28Z</time></trkpt><trkpt lat="42.2784983" lon="14.0921583"><ele>123.0</ele><time>2026-05-01T14:06:30.28Z</time></trkpt><trkpt lat="42.2785117" lon="14.0923383"><ele>124.0</ele><time>2026-05-01T14:06:31.28Z</time></trkpt><trkpt lat="42.2785333" lon="14.092515"><ele>124.2</ele><time>2026-05-01T14:06:32.28Z</time></trkpt><trkpt lat="42.2785633" lon="14.0926767"><ele>124.4</ele><time>2026-05-01T14:06:33.28Z</time></trkpt><trkpt lat="42.2786033" lon="14.0928167"><ele>124.6</ele><time>2026-05-01T14:06:34.281Z</time></trkpt><trkpt lat="42.2786533" lon="14.0929417"><ele>124.8</ele><time>2026-05-01T14:06:35.28Z</time></trkpt><trkpt lat="42.2787167" lon="14.093055"><ele>125.0</ele><time>2026-05-01T14:06:36.28Z</time></trkpt><trkpt lat="42.2787883" lon="14.0931433"><ele>125.0</ele><time>2026-05-01T14:06:37.28Z</time></trkpt><trkpt lat="42.2788633" lon="14.0931983"><ele>125.0</ele><time>2026-05-01T14:06:38.28Z</time></trkpt><trkpt lat="42.2789517" lon="14.0932267"><ele>125.0</ele><time>2026-05-01T14:06:39.28Z</time></trkpt><trkpt lat="42.27905" lon="14.0932133"><ele>125.0</ele><time>2026-05-01T14:06:40.28Z</time></trkpt><trkpt lat="42.2791567" lon="14.093165"><ele>125.0</ele><time>2026-05-01T14:06:41.28Z</time></trkpt><trkpt lat="42.27926" lon="14.093135"><ele>123.2</ele><time>2026-05-01T14:06:42.28Z</time></trkpt><trkpt lat="42.2793667" lon="14.093145"><ele>121.4</ele><time>2026-05-01T14:06:43.28Z</time></trkpt><trkpt lat="42.2794633" lon="14.09319"><ele>119.6</ele><time>2026-05-01T14:06:44.28Z</time></trkpt><trkpt lat="42.279555" lon="14.09328"><ele>117.8</ele><time>2026-05-01T14:06:45.28Z</time></trkpt><trkpt lat="42.2796467" lon="14.0933917"><ele>116.0</ele><time>2026-05-01T14:06:46.281Z</time></trkpt><trkpt lat="42.2797383" lon="14.0935217"><ele>113.0</ele><time>2026-05-01T14:06:47.28Z</time></trkpt><trkpt lat="42.2798333" lon="14.0936417"><ele>110.0</ele><time>2026-05-01T14:06:48.28Z</time></trkpt><trkpt lat="42.27992" lon="14.09374"><ele>107.0</ele><time>2026-05-01T14:06:49.28Z</time></trkpt><trkpt lat="42.280005" lon="14.0938233"><ele>104.0</ele><time>2026-05-01T14:06:50.28Z</time></trkpt><trkpt lat="42.2800733" lon="14.0939133"><ele>101.0</ele><time>2026-05-01T14:06:51.281Z</time></trkpt><trkpt lat="42.28012" lon="14.0940017"><ele>100.75</ele><time>2026-05-01T14:06:52.28Z</time></trkpt><trkpt lat="42.28015" lon="14.0941183"><ele>100.5</ele><time>2026-05-01T14:06:53.28Z</time></trkpt><trkpt lat="42.2801533" lon="14.0942733"><ele>100.25</ele><time>2026-05-01T14:06:54.28Z</time></trkpt><trkpt lat="42.28015" lon="14.094465"><ele>100.0</ele><time>2026-05-01T14:06:55.28Z</time></trkpt><trkpt lat="42.280145" lon="14.094655"><ele>100.0</ele><time>2026-05-01T14:06:56.28Z</time></trkpt><trkpt lat="42.2801483" lon="14.0948467"><ele>100.0</ele><time>2026-05-01T14:06:57.28Z</time></trkpt><trkpt lat="42.2801583" lon="14.0950683"><ele>100.0</ele><time>2026-05-01T14:06:58.28Z</time></trkpt><trkpt lat="42.28017" lon="14.09532"><ele>100.0</ele><time>2026-05-01T14:06:59.28Z</time></trkpt><trkpt lat="42.2801867" lon="14.095555"><ele>100.0</ele><time>2026-05-01T14:07:00.28Z</time></trkpt><trkpt lat="42.280205" lon="14.0957633"><ele>100.0</ele><time>2026-05-01T14:07:01.28Z</time></trkpt><trkpt lat="42.2802317" lon="14.0959717"><ele>100.0</ele><time>2026-05-01T14:07:02.28Z</time></trkpt><trkpt lat="42.2802683" lon="14.09618"><ele>100.0</ele><time>2026-05-01T14:07:03.28Z</time></trkpt><trkpt lat="42.2803033" lon="14.09638"><ele>100.0</ele><time>2026-05-01T14:07:04.28Z</time></trkpt><trkpt lat="42.28034" lon="14.096565"><ele>100.75</ele><time>2026-05-01T14:07:05.281Z</time></trkpt><trkpt lat="42.2803783" lon="14.09674"><ele>101.5</ele><time>2026-05-01T14:07:06.28Z</time></trkpt><trkpt lat="42.2804183" lon="14.0969233"><ele>102.25</ele><time>2026-05-01T14:07:07.281Z</time></trkpt><trkpt lat="42.2804317" lon="14.0971017"><ele>103.0</ele><time>2026-05-01T14:07:08.28Z</time></trkpt><trkpt lat="42.28044" lon="14.0972817"><ele>103.0</ele><time>2026-05-01T14:07:09.28Z</time></trkpt><trkpt lat="42.2804583" lon="14.0974667"><ele>103.0</ele><time>2026-05-01T14:07:10.28Z</time></trkpt><trkpt lat="42.2804833" lon="14.097665"><ele>103.0</ele><time>2026-05-01T14:07:11.28Z</time></trkpt><trkpt lat="42.280515" lon="14.0979"><ele>103.0</ele><time>2026-05-01T14:07:12.28Z</time></trkpt><trkpt lat="42.2805633" lon="14.09814"><ele>103.0</ele><time>2026-05-01T14:07:13.28Z</time></trkpt><trkpt lat="42.2806183" lon="14.09837"><ele>103.0</ele><time>2026-05-01T14:07:14.28Z</time></trkpt><trkpt lat="42.2806667" lon="14.0985983"><ele>105.33333333333334</ele><time>2026-05-01T14:07:15.28Z</time></trkpt><trkpt lat="42.28071" lon="14.0988317"><ele>107.66666666666666</ele><time>2026-05-01T14:07:16.28Z</time></trkpt><trkpt lat="42.2807633" lon="14.09907"><ele>110.0</ele><time>2026-05-01T14:07:17.28Z</time></trkpt><trkpt lat="42.280815" lon="14.0992917"><ele>111.75</ele><time>2026-05-01T14:07:18.28Z</time></trkpt><trkpt lat="42.2808667" lon="14.0995117"><ele>113.5</ele><time>2026-05-01T14:07:19.28Z</time></trkpt><trkpt lat="42.2809133" lon="14.0997033"><ele>115.25</ele><time>2026-05-01T14:07:20.28Z</time></trkpt><trkpt lat="42.280945" lon="14.099855"><ele>117.0</ele><time>2026-05-01T14:07:21.28Z</time></trkpt><trkpt lat="42.2809717" lon="14.099975"><ele>118.39999999999999</ele><time>2026-05-01T14:07:22.28Z</time></trkpt><trkpt lat="42.2809933" lon="14.1000567"><ele>119.79999999999998</ele><time>2026-05-01T14:07:23.28Z</time></trkpt><trkpt lat="42.2810583" lon="14.1001567"><ele>121.2</ele><time>2026-05-01T14:07:25.28Z</time></trkpt><trkpt lat="42.281125" lon="14.1002783"><ele>122.6</ele><time>2026-05-01T14:07:27.28Z</time></trkpt><trkpt lat="42.2811933" lon="14.1004067"><ele>124.0</ele><time>2026-05-01T14:07:29.28Z</time></trkpt><trkpt lat="42.28127" lon="14.1005333"><ele>124.0</ele><time>2026-05-01T14:07:31.28Z</time></trkpt><trkpt lat="42.28135" lon="14.1006733"><ele>124.0</ele><time>2026-05-01T14:07:33.28Z</time></trkpt><trkpt lat="42.2813883" lon="14.1007517"><ele>124.0</ele><time>2026-05-01T14:07:34.28Z</time></trkpt><trkpt lat="42.2814617" lon="14.1008883"><ele>124.0</ele><time>2026-05-01T14:07:36.28Z</time></trkpt><trkpt lat="42.281495" lon="14.1009667"><ele>124.0</ele><time>2026-05-01T14:07:37.28Z</time></trkpt><trkpt lat="42.2815317" lon="14.10105"><ele>124.0</ele><time>2026-05-01T14:07:38.28Z</time></trkpt><trkpt lat="42.2815583" lon="14.1011383"><ele>124.0</ele><time>2026-05-01T14:07:39.28Z</time></trkpt><trkpt lat="42.2816" lon="14.101245"><ele>124.0</ele><time>2026-05-01T14:07:40.28Z</time></trkpt><trkpt lat="42.2816483" lon="14.1013633"><ele>124.0</ele><time>2026-05-01T14:07:41.281Z</time></trkpt><trkpt lat="42.2817067" lon="14.10147"><ele>124.0</ele><time>2026-05-01T14:07:42.28Z</time></trkpt><trkpt lat="42.28176" lon="14.1015783"><ele>125.50000000000001</ele><time>2026-05-01T14:07:43.28Z</time></trkpt><trkpt lat="42.281805" lon="14.10167"><ele>127.0</ele><time>2026-05-01T14:07:44.28Z</time></trkpt><trkpt lat="42.2818517" lon="14.1017533"><ele>128.5</ele><time>2026-05-01T14:07:45.28Z</time></trkpt><trkpt lat="42.2818967" lon="14.1018533"><ele>130.0</ele><time>2026-05-01T14:07:46.281Z</time></trkpt><trkpt lat="42.2819417" lon="14.1019483"><ele>131.5</ele><time>2026-05-01T14:07:47.28Z</time></trkpt><trkpt lat="42.281985" lon="14.1020467"><ele>133.0</ele><time>2026-05-01T14:07:48.28Z</time></trkpt><trkpt lat="42.2820267" lon="14.102135"><ele>133.0</ele><time>2026-05-01T14:07:49.28Z</time></trkpt><trkpt lat="42.282065" lon="14.1022183"><ele>133.0</ele><time>2026-05-01T14:07:50.28Z</time></trkpt><trkpt lat="42.2820983" lon="14.102305"><ele>133.0</ele><time>2026-05-01T14:07:51.28Z</time></trkpt><trkpt lat="42.282135" lon="14.10238"><ele>133.0</ele><time>2026-05-01T14:07:52.28Z</time></trkpt><trkpt lat="42.2821683" lon="14.10246"><ele>133.0</ele><time>2026-05-01T14:07:53.28Z</time></trkpt><trkpt lat="42.282205" lon="14.1025433"><ele>133.0</ele><time>2026-05-01T14:07:54.28Z</time></trkpt><trkpt lat="42.282245" lon="14.1026283"><ele>133.0</ele><time>2026-05-01T14:07:55.28Z</time></trkpt><trkpt lat="42.282295" lon="14.1027283"><ele>132.20000000000002</ele><time>2026-05-01T14:07:56.28Z</time></trkpt><trkpt lat="42.2823467" lon="14.1028333"><ele>131.4</ele><time>2026-05-01T14:07:57.28Z</time></trkpt><trkpt lat="42.2823983" lon="14.10296"><ele>130.60000000000002</ele><time>2026-05-01T14:07:58.281Z</time></trkpt><trkpt lat="42.2824517" lon="14.103085"><ele>129.8</ele><time>2026-05-01T14:07:59.28Z</time></trkpt><trkpt lat="42.2825017" lon="14.1031983"><ele>129.0</ele><time>2026-05-01T14:08:00.28Z</time></trkpt><trkpt lat="42.2825483" lon="14.103305"><ele>129.0</ele><time>2026-05-01T14:08:01.28Z</time></trkpt><trkpt lat="42.2825967" lon="14.1034183"><ele>129.0</ele><time>2026-05-01T14:08:02.28Z</time></trkpt><trkpt lat="42.282645" lon="14.103535"><ele>129.0</ele><time>2026-05-01T14:08:03.281Z</time></trkpt><trkpt lat="42.2826767" lon="14.103645"><ele>129.0</ele><time>2026-05-01T14:08:04.28Z</time></trkpt><trkpt lat="42.2827117" lon="14.10373"><ele>129.0</ele><time>2026-05-01T14:08:05.28Z</time></trkpt><trkpt lat="42.2827665" lon="14.1038734"><ele>129.0</ele><time>2026-05-01T14:08:07.281Z</time></trkpt><trkpt lat="42.2828169" lon="14.1040158"><ele>129.0</ele><time>2026-05-01T14:08:09.28Z</time></trkpt><trkpt lat="42.2828652" lon="14.1041433"><ele>129.0</ele><time>2026-05-01T14:08:11.28Z</time></trkpt><trkpt lat="42.2829064" lon="14.1042642"><ele>129.0</ele><time>2026-05-01T14:08:13.28Z</time></trkpt><trkpt lat="42.2829513" lon="14.104389"><ele>129.0</ele><time>2026-05-01T14:08:15.28Z</time></trkpt><trkpt lat="42.2829968" lon="14.1045086"><ele>130.4</ele><time>2026-05-01T14:08:17.28Z</time></trkpt><trkpt lat="42.2830395" lon="14.104652"><ele>131.8</ele><time>2026-05-01T14:08:19.281Z</time></trkpt><trkpt lat="42.283091" lon="14.1047946"><ele>133.2</ele><time>2026-05-01T14:08:21.28Z</time></trkpt><trkpt lat="42.2831221" lon="14.1048769"><ele>134.6</ele><time>2026-05-01T14:08:22.28Z</time></trkpt><trkpt lat="42.28316" lon="14.1049726"><ele>136.0</ele><time>2026-05-01T14:08:23.28Z</time></trkpt><trkpt lat="42.2832017" lon="14.1050811"><ele>133.2</ele><time>2026-05-01T14:08:24.28Z</time></trkpt><trkpt lat="42.2832468" lon="14.1052168"><ele>130.39999999999998</ele><time>2026-05-01T14:08:25.28Z</time></trkpt><trkpt lat="42.2832916" lon="14.1053564"><ele>127.6</ele><time>2026-05-01T14:08:26.28Z</time></trkpt><trkpt lat="42.2833369" lon="14.105474"><ele>124.8</ele><time>2026-05-01T14:08:27.28Z</time></trkpt><trkpt lat="42.2833712" lon="14.1055829"><ele>122.0</ele><time>2026-05-01T14:08:28.281Z</time></trkpt><trkpt lat="42.2834022" lon="14.1056845"><ele>122.85714285714283</ele><time>2026-05-01T14:08:29.28Z</time></trkpt><trkpt lat="42.2834255" lon="14.1057685"><ele>123.71428571428571</ele><time>2026-05-01T14:08:30.28Z</time></trkpt><trkpt lat="42.2834539" lon="14.1058528"><ele>124.57142857142856</ele><time>2026-05-01T14:08:31.28Z</time></trkpt><trkpt lat="42.2834879" lon="14.1059368"><ele>125.42857142857142</ele><time>2026-05-01T14:08:32.281Z</time></trkpt><trkpt lat="42.2835216" lon="14.1060218"><ele>126.28571428571428</ele><time>2026-05-01T14:08:33.28Z</time></trkpt><trkpt lat="42.2835583" lon="14.1061096"><ele>127.14285714285714</ele><time>2026-05-01T14:08:34.28Z</time></trkpt><trkpt lat="42.283591" lon="14.1061995"><ele>128.0</ele><time>2026-05-01T14:08:35.28Z</time></trkpt><trkpt lat="42.2836194" lon="14.1062924"><ele>127.99999999999999</ele><time>2026-05-01T14:08:36.28Z</time></trkpt><trkpt lat="42.2836533" lon="14.1063933"><ele>128.0</ele><time>2026-05-01T14:08:37.28Z</time></trkpt><trkpt lat="42.2836883" lon="14.1065"><ele>128.0</ele><time>2026-05-01T14:08:38.28Z</time></trkpt><trkpt lat="42.2837317" lon="14.1066117"><ele>128.0</ele><time>2026-05-01T14:08:39.28Z</time></trkpt><trkpt lat="42.2837717" lon="14.10672"><ele>127.99999999999999</ele><time>2026-05-01T14:08:40.28Z</time></trkpt><trkpt lat="42.2838033" lon="14.10682"><ele>128.0</ele><time>2026-05-01T14:08:41.28Z</time></trkpt><trkpt lat="42.2838333" lon="14.1069133"><ele>128.16666666666666</ele><time>2026-05-01T14:08:42.28Z</time></trkpt><trkpt lat="42.2838683" lon="14.1070117"><ele>128.33333333333331</ele><time>2026-05-01T14:08:43.28Z</time></trkpt><trkpt lat="42.283905" lon="14.1071167"><ele>128.5</ele><time>2026-05-01T14:08:44.28Z</time></trkpt><trkpt lat="42.28394" lon="14.107225"><ele>128.66666666666666</ele><time>2026-05-01T14:08:45.28Z</time></trkpt><trkpt lat="42.2839733" lon="14.1073233"><ele>128.83333333333334</ele><time>2026-05-01T14:08:46.28Z</time></trkpt><trkpt lat="42.283995" lon="14.107405"><ele>129.0</ele><time>2026-05-01T14:08:47.28Z</time></trkpt><trkpt lat="42.2840383" lon="14.1075617"><ele>128.99999999999997</ele><time>2026-05-01T14:08:49.28Z</time></trkpt><trkpt lat="42.2840633" lon="14.1076483"><ele>129.0</ele><time>2026-05-01T14:08:50.28Z</time></trkpt><trkpt lat="42.2840883" lon="14.1077333"><ele>129.0</ele><time>2026-05-01T14:08:51.28Z</time></trkpt><trkpt lat="42.2841167" lon="14.1078183"><ele>129.0</ele><time>2026-05-01T14:08:52.28Z</time></trkpt><trkpt lat="42.2841483" lon="14.10791"><ele>129.0</ele><time>2026-05-01T14:08:53.28Z</time></trkpt><trkpt lat="42.28418" lon="14.108005"><ele>128.99999999999997</ele><time>2026-05-01T14:08:54.28Z</time></trkpt><trkpt lat="42.2842067" lon="14.1080933"><ele>129.0</ele><time>2026-05-01T14:08:55.28Z</time></trkpt><trkpt lat="42.28423" lon="14.108175"><ele>129.5</ele><time>2026-05-01T14:08:56.28Z</time></trkpt><trkpt lat="42.284275" lon="14.108305"><ele>130.0</ele><time>2026-05-01T14:08:58.28Z</time></trkpt><trkpt lat="42.2843033" lon="14.1084133"><ele>130.5</ele><time>2026-05-01T14:09:00.28Z</time></trkpt><trkpt lat="42.28435" lon="14.10854"><ele>131.0</ele><time>2026-05-01T14:09:07.28Z</time></trkpt><trkpt lat="42.28438" lon="14.1086183"><ele>131.5</ele><time>2026-05-01T14:09:10.28Z</time></trkpt><trkpt lat="42.2844117" lon="14.1087117"><ele>132.0</ele><time>2026-05-01T14:09:12.28Z</time></trkpt><trkpt lat="42.2844517" lon="14.1088367"><ele>132.0</ele><time>2026-05-01T14:09:14.281Z</time></trkpt><trkpt lat="42.28449" lon="14.1089567"><ele>132.0</ele><time>2026-05-01T14:09:16.28Z</time></trkpt><trkpt lat="42.2845217" lon="14.109045"><ele>132.0</ele><time>2026-05-01T14:09:18.281Z</time></trkpt><trkpt lat="42.2845533" lon="14.1091383"><ele>132.0</ele><time>2026-05-01T14:09:22.28Z</time></trkpt><trkpt lat="42.2845933" lon="14.1092583"><ele>132.0</ele><time>2026-05-01T14:09:25.28Z</time></trkpt><trkpt lat="42.2846383" lon="14.1093583"><ele>132.0</ele><time>2026-05-01T14:09:27.28Z</time></trkpt><trkpt lat="42.2846833" lon="14.1094783"><ele>133.0</ele><time>2026-05-01T14:09:29.281Z</time></trkpt><trkpt lat="42.2847267" lon="14.1095783"><ele>134.0</ele><time>2026-05-01T14:09:31.28Z</time></trkpt><trkpt lat="42.2847696" lon="14.1096721"><ele>135.0</ele><time>2026-05-01T14:09:33.281Z</time></trkpt><trkpt lat="42.2848223" lon="14.1097935"><ele>136.0</ele><time>2026-05-01T14:09:35.28Z</time></trkpt><trkpt lat="42.2848733" lon="14.1099274"><ele>137.0</ele><time>2026-05-01T14:09:37.28Z</time></trkpt><trkpt lat="42.2849033" lon="14.1100317"><ele>135.33333333333331</ele><time>2026-05-01T14:09:39.28Z</time></trkpt><trkpt lat="42.2849417" lon="14.11016"><ele>133.66666666666666</ele><time>2026-05-01T14:09:41.28Z</time></trkpt><trkpt lat="42.2849833" lon="14.1102633"><ele>132.0</ele><time>2026-05-01T14:09:43.28Z</time></trkpt><trkpt lat="42.2850083" lon="14.1103567"><ele>130.33333333333334</ele><time>2026-05-01T14:09:46.28Z</time></trkpt><trkpt lat="42.2850433" lon="14.1104533"><ele>128.66666666666669</ele><time>2026-05-01T14:10:12.28Z</time></trkpt><trkpt lat="42.28507" lon="14.1105767"><ele>127.0</ele><time>2026-05-01T14:10:14.28Z</time></trkpt><trkpt lat="42.28511" lon="14.110705"><ele>128.6</ele><time>2026-05-01T14:10:16.28Z</time></trkpt><trkpt lat="42.2851433" lon="14.1108067"><ele>130.2</ele><time>2026-05-01T14:10:18.28Z</time></trkpt><trkpt lat="42.285175" lon="14.1109317"><ele>131.8</ele><time>2026-05-01T14:10:20.28Z</time></trkpt><trkpt lat="42.285205" lon="14.1110583"><ele>133.4</ele><time>2026-05-01T14:10:22.28Z</time></trkpt><trkpt lat="42.2852317" lon="14.1111783"><ele>135.0</ele><time>2026-05-01T14:10:24.28Z</time></trkpt><trkpt lat="42.2852617" lon="14.1112833"><ele>135.0</ele><time>2026-05-01T14:10:26.28Z</time></trkpt><trkpt lat="42.2852917" lon="14.1113817"><ele>135.0</ele><time>2026-05-01T14:10:28.28Z</time></trkpt><trkpt lat="42.2853133" lon="14.11148"><ele>135.0</ele><time>2026-05-01T14:10:31.28Z</time></trkpt><trkpt lat="42.28534" lon="14.1115833"><ele>135.0</ele><time>2026-05-01T14:11:23.28Z</time></trkpt><trkpt lat="42.285375" lon="14.1117217"><ele>135.0</ele><time>2026-05-01T14:11:25.28Z</time></trkpt><trkpt lat="42.285405" lon="14.1118333"><ele>135.0</ele><time>2026-05-01T14:11:27.28Z</time></trkpt><trkpt lat="42.28543" lon="14.11195"><ele>136.0</ele><time>2026-05-01T14:11:29.28Z</time></trkpt><trkpt lat="42.2854983" lon="14.1120817"><ele>137.0</ele><time>2026-05-01T14:11:31.28Z</time></trkpt><trkpt lat="42.28557" lon="14.11221"><ele>138.0</ele><time>2026-05-01T14:11:33.28Z</time></trkpt><trkpt lat="42.2856333" lon="14.1123217"><ele>139.0</ele><time>2026-05-01T14:11:35.28Z</time></trkpt><trkpt lat="42.2857067" lon="14.1124433"><ele>137.71428571428572</ele><time>2026-05-01T14:11:37.28Z</time></trkpt><trkpt lat="42.2857533" lon="14.112505"><ele>136.42857142857144</ele><time>2026-05-01T14:11:38.28Z</time></trkpt><trkpt lat="42.2857967" lon="14.1125667"><ele>135.14285714285717</ele><time>2026-05-01T14:11:39.28Z</time></trkpt><trkpt lat="42.2858433" lon="14.1126367"><ele>133.85714285714286</ele><time>2026-05-01T14:11:40.281Z</time></trkpt><trkpt lat="42.2858933" lon="14.112705"><ele>132.57142857142858</ele><time>2026-05-01T14:11:41.281Z</time></trkpt><trkpt lat="42.28595" lon="14.112785"><ele>131.2857142857143</ele><time>2026-05-01T14:11:42.28Z</time></trkpt><trkpt lat="42.2860117" lon="14.1128767"><ele>130.0</ele><time>2026-05-01T14:11:43.28Z</time></trkpt><trkpt lat="42.2860717" lon="14.1129683"><ele>130.00000000000003</ele><time>2026-05-01T14:11:44.28Z</time></trkpt><trkpt lat="42.28612" lon="14.1130417"><ele>130.0</ele><time>2026-05-01T14:11:45.28Z</time></trkpt><trkpt lat="42.28616" lon="14.1131183"><ele>130.0</ele><time>2026-05-01T14:11:46.28Z</time></trkpt><trkpt lat="42.2861967" lon="14.1131967"><ele>130.0</ele><time>2026-05-01T14:11:47.28Z</time></trkpt><trkpt lat="42.2862233" lon="14.11329"><ele>130.0</ele><time>2026-05-01T14:11:48.28Z</time></trkpt><trkpt lat="42.2862483" lon="14.11338"><ele>130.00000000000003</ele><time>2026-05-01T14:11:49.28Z</time></trkpt><trkpt lat="42.2862533" lon="14.1134833"><ele>130.0</ele><time>2026-05-01T14:11:50.28Z</time></trkpt><trkpt lat="42.2862583" lon="14.1135883"><ele>131.2857142857143</ele><time>2026-05-01T14:11:51.28Z</time></trkpt><trkpt lat="42.286265" lon="14.1136833"><ele>132.57142857142858</ele><time>2026-05-01T14:11:52.28Z</time></trkpt><trkpt lat="42.2862733" lon="14.1137783"><ele>133.85714285714286</ele><time>2026-05-01T14:11:53.28Z</time></trkpt><trkpt lat="42.2862767" lon="14.1138717"><ele>135.14285714285717</ele><time>2026-05-01T14:11:54.28Z</time></trkpt><trkpt lat="42.2862883" lon="14.113965"><ele>136.42857142857144</ele><time>2026-05-01T14:11:55.281Z</time></trkpt><trkpt lat="42.2862983" lon="14.1140567"><ele>137.71428571428572</ele><time>2026-05-01T14:11:56.28Z</time></trkpt><trkpt lat="42.2863083" lon="14.1141433"><ele>139.0</ele><time>2026-05-01T14:11:57.28Z</time></trkpt><trkpt lat="42.28632" lon="14.1142317"><ele>139.71428571428572</ele><time>2026-05-01T14:11:58.28Z</time></trkpt><trkpt lat="42.28633" lon="14.1143233"><ele>140.42857142857144</ele><time>2026-05-01T14:11:59.28Z</time></trkpt><trkpt lat="42.28634" lon="14.11442"><ele>141.14285714285717</ele><time>2026-05-01T14:12:00.28Z</time></trkpt><trkpt lat="42.2863483" lon="14.11452"><ele>141.85714285714286</ele><time>2026-05-01T14:12:01.28Z</time></trkpt><trkpt lat="42.2863533" lon="14.11463"><ele>142.57142857142858</ele><time>2026-05-01T14:12:02.28Z</time></trkpt><trkpt lat="42.2863633" lon="14.11473"><ele>143.2857142857143</ele><time>2026-05-01T14:12:03.28Z</time></trkpt><trkpt lat="42.2863767" lon="14.1148267"><ele>144.0</ele><time>2026-05-01T14:12:04.28Z</time></trkpt><trkpt lat="42.2863867" lon="14.1149267"><ele>145.00000000000003</ele><time>2026-05-01T14:12:05.281Z</time></trkpt><trkpt lat="42.2864017" lon="14.115015"><ele>146.0</ele><time>2026-05-01T14:12:06.28Z</time></trkpt><trkpt lat="42.2864183" lon="14.1151117"><ele>147.0</ele><time>2026-05-01T14:12:07.28Z</time></trkpt><trkpt lat="42.2864417" lon="14.1152067"><ele>148.0</ele><time>2026-05-01T14:12:08.28Z</time></trkpt><trkpt lat="42.286465" lon="14.1153083"><ele>149.0</ele><time>2026-05-01T14:12:09.28Z</time></trkpt><trkpt lat="42.286495" lon="14.1153983"><ele>150.00000000000003</ele><time>2026-05-01T14:12:10.28Z</time></trkpt><trkpt lat="42.28652" lon="14.115485"><ele>151.0</ele><time>2026-05-01T14:12:11.28Z</time></trkpt><trkpt lat="42.2865467" lon="14.1155683"><ele>151.4</ele><time>2026-05-01T14:12:12.28Z</time></trkpt><trkpt lat="42.2865617" lon="14.1157117"><ele>151.8</ele><time>2026-05-01T14:12:14.28Z</time></trkpt><trkpt lat="42.2865333" lon="14.1158383"><ele>152.20000000000002</ele><time>2026-05-01T14:12:16.28Z</time></trkpt><trkpt lat="42.2865017" lon="14.115985"><ele>152.6</ele><time>2026-05-01T14:12:18.28Z</time></trkpt><trkpt lat="42.28647" lon="14.11606"><ele>153.0</ele><time>2026-05-01T14:12:19.28Z</time></trkpt><trkpt lat="42.2864017" lon="14.116205"><ele>153.0</ele><time>2026-05-01T14:12:21.28Z</time></trkpt><trkpt lat="42.2863617" lon="14.1162767"><ele>153.0</ele><time>2026-05-01T14:12:22.28Z</time></trkpt><trkpt lat="42.2862917" lon="14.1163983"><ele>153.0</ele><time>2026-05-01T14:12:24.28Z</time></trkpt><trkpt lat="42.2862267" lon="14.1165167"><ele>153.0</ele><time>2026-05-01T14:12:26.28Z</time></trkpt><trkpt lat="42.2861867" lon="14.1166417"><ele>153.0</ele><time>2026-05-01T14:12:28.28Z</time></trkpt><trkpt lat="42.2861617" lon="14.116775"><ele>152.66666666666666</ele><time>2026-05-01T14:12:30.281Z</time></trkpt><trkpt lat="42.28615" lon="14.11694"><ele>152.33333333333334</ele><time>2026-05-01T14:12:32.281Z</time></trkpt><trkpt lat="42.28614" lon="14.1170333"><ele>152.0</ele><time>2026-05-01T14:12:33.28Z</time></trkpt><trkpt lat="42.28613" lon="14.1171233"><ele>151.66666666666669</ele><time>2026-05-01T14:12:34.28Z</time></trkpt><trkpt lat="42.2861217" lon="14.1172167"><ele>151.33333333333334</ele><time>2026-05-01T14:12:35.28Z</time></trkpt><trkpt lat="42.286115" lon="14.1173117"><ele>151.0</ele><time>2026-05-01T14:12:36.28Z</time></trkpt><trkpt lat="42.2861067" lon="14.1174133"><ele>151.0</ele><time>2026-05-01T14:12:37.28Z</time></trkpt><trkpt lat="42.286105" lon="14.1175133"><ele>151.0</ele><time>2026-05-01T14:12:38.281Z</time></trkpt><trkpt lat="42.2861" lon="14.1176217"><ele>151.0</ele><time>2026-05-01T14:12:39.28Z</time></trkpt><trkpt lat="42.2860883" lon="14.117725"><ele>151.0</ele><time>2026-05-01T14:12:40.28Z</time></trkpt><trkpt lat="42.28607" lon="14.1178267"><ele>151.0</ele><time>2026-05-01T14:12:41.28Z</time></trkpt><trkpt lat="42.2860533" lon="14.11793"><ele>151.0</ele><time>2026-05-01T14:12:42.28Z</time></trkpt><trkpt lat="42.2860267" lon="14.1180283"><ele>151.0</ele><time>2026-05-01T14:12:43.281Z</time></trkpt><trkpt lat="42.2860017" lon="14.1181267"><ele>151.0</ele><time>2026-05-01T14:12:44.28Z</time></trkpt><trkpt lat="42.28597" lon="14.118225"><ele>151.0</ele><time>2026-05-01T14:12:45.28Z</time></trkpt><trkpt lat="42.2859417" lon="14.1183233"><ele>151.0</ele><time>2026-05-01T14:12:46.28Z</time></trkpt><trkpt lat="42.28592" lon="14.1184233"><ele>151.0</ele><time>2026-05-01T14:12:47.281Z</time></trkpt><trkpt lat="42.2858983" lon="14.118515"><ele>151.0</ele><time>2026-05-01T14:12:48.28Z</time></trkpt><trkpt lat="42.285865" lon="14.1186633"><ele>151.66666666666669</ele><time>2026-05-01T14:12:50.28Z</time></trkpt><trkpt lat="42.2858517" lon="14.1188283"><ele>152.33333333333334</ele><time>2026-05-01T14:12:52.28Z</time></trkpt><trkpt lat="42.2858433" lon="14.118915"><ele>153.0</ele><time>2026-05-01T14:12:53.28Z</time></trkpt><trkpt lat="42.2858233" lon="14.1190117"><ele>153.66666666666666</ele><time>2026-05-01T14:12:54.28Z</time></trkpt><trkpt lat="42.2858017" lon="14.1190983"><ele>154.33333333333331</ele><time>2026-05-01T14:12:55.28Z</time></trkpt><trkpt lat="42.2857667" lon="14.1191767"><ele>155.0</ele><time>2026-05-01T14:12:56.28Z</time></trkpt><trkpt lat="42.2856817" lon="14.11929"><ele>156.0</ele><time>2026-05-01T14:12:58.28Z</time></trkpt><trkpt lat="42.2855983" lon="14.119405"><ele>157.0</ele><time>2026-05-01T14:13:00.28Z</time></trkpt><trkpt lat="42.2855117" lon="14.119505"><ele>158.0</ele><time>2026-05-01T14:13:02.28Z</time></trkpt><trkpt lat="42.2854217" lon="14.1196083"><ele>159.0</ele><time>2026-05-01T14:13:04.28Z</time></trkpt><trkpt lat="42.2853667" lon="14.11966"><ele>160.0</ele><time>2026-05-01T14:13:05.281Z</time></trkpt><trkpt lat="42.2853117" lon="14.1197133"><ele>162.0</ele><time>2026-05-01T14:13:06.28Z</time></trkpt><trkpt lat="42.2852067" lon="14.1198117"><ele>164.0</ele><time>2026-05-01T14:13:08.28Z</time></trkpt><trkpt lat="42.2851517" lon="14.11986"><ele>166.0</ele><time>2026-05-01T14:13:09.281Z</time></trkpt><trkpt lat="42.2850933" lon="14.1199083"><ele>168.0</ele><time>2026-05-01T14:13:10.28Z</time></trkpt><trkpt lat="42.2850383" lon="14.119955"><ele>170.0</ele><time>2026-05-01T14:13:11.28Z</time></trkpt><trkpt lat="42.28498" lon="14.1200017"><ele>172.0</ele><time>2026-05-01T14:13:12.28Z</time></trkpt><trkpt lat="42.284925" lon="14.1200483"><ele>172.0</ele><time>2026-05-01T14:13:13.28Z</time></trkpt><trkpt lat="42.2848317" lon="14.1201317"><ele>172.0</ele><time>2026-05-01T14:13:15.28Z</time></trkpt><trkpt lat="42.2847567" lon="14.1201967"><ele>172.0</ele><time>2026-05-01T14:13:17.28Z</time></trkpt><trkpt lat="42.284695" lon="14.120265"><ele>172.0</ele><time>2026-05-01T14:13:19.28Z</time></trkpt><trkpt lat="42.2846483" lon="14.1203417"><ele>172.0</ele><time>2026-05-01T14:13:21.28Z</time></trkpt><trkpt lat="42.2845976" lon="14.1204425"><ele>172.0</ele><time>2026-05-01T14:13:24.28Z</time></trkpt><trkpt lat="42.2845654" lon="14.1205263"><ele>175.2</ele><time>2026-05-01T14:13:25.28Z</time></trkpt><trkpt lat="42.28452" lon="14.1206719"><ele>178.39999999999998</ele><time>2026-05-01T14:13:27.28Z</time></trkpt><trkpt lat="42.2844836" lon="14.12081"><ele>181.60000000000002</ele><time>2026-05-01T14:13:29.28Z</time></trkpt><trkpt lat="42.2844576" lon="14.1209443"><ele>184.8</ele><time>2026-05-01T14:13:31.28Z</time></trkpt><trkpt lat="42.2844399" lon="14.1210849"><ele>188.0</ele><time>2026-05-01T14:13:33.28Z</time></trkpt><trkpt lat="42.2844155" lon="14.1212367"><ele>188.0</ele><time>2026-05-01T14:13:35.28Z</time></trkpt><trkpt lat="42.2844076" lon="14.1213217"><ele>188.0</ele><time>2026-05-01T14:13:36.28Z</time></trkpt><trkpt lat="42.2843941" lon="14.1214848"><ele>188.0</ele><time>2026-05-01T14:13:38.28Z</time></trkpt><trkpt lat="42.2843789" lon="14.1216317"><ele>188.0</ele><time>2026-05-01T14:13:40.28Z</time></trkpt><trkpt lat="42.284358" lon="14.1217631"><ele>188.0</ele><time>2026-05-01T14:13:42.28Z</time></trkpt><trkpt lat="42.2843261" lon="14.1219068"><ele>188.16666666666666</ele><time>2026-05-01T14:13:44.28Z</time></trkpt><trkpt lat="42.2842599" lon="14.1220336"><ele>188.33333333333331</ele><time>2026-05-01T14:13:46.28Z</time></trkpt><trkpt lat="42.2841552" lon="14.1221144"><ele>188.5</ele><time>2026-05-01T14:13:48.28Z</time></trkpt><trkpt lat="42.2840871" lon="14.1221383"><ele>188.66666666666666</ele><time>2026-05-01T14:13:49.28Z</time></trkpt><trkpt lat="42.2840171" lon="14.1221496"><ele>188.83333333333334</ele><time>2026-05-01T14:13:50.28Z</time></trkpt><trkpt lat="42.2839478" lon="14.12214"><ele>189.0</ele><time>2026-05-01T14:13:51.28Z</time></trkpt><trkpt lat="42.2838858" lon="14.1221136"><ele>194.2</ele><time>2026-05-01T14:13:52.28Z</time></trkpt><trkpt lat="42.283798" lon="14.1220226"><ele>199.39999999999998</ele><time>2026-05-01T14:13:54.28Z</time></trkpt><trkpt lat="42.2837337" lon="14.1219237"><ele>204.6</ele><time>2026-05-01T14:13:56.281Z</time></trkpt><trkpt lat="42.2836817" lon="14.121815"><ele>209.8</ele><time>2026-05-01T14:13:58.28Z</time></trkpt><trkpt lat="42.283625" lon="14.12171"><ele>215.0</ele><time>2026-05-01T14:14:00.28Z</time></trkpt><trkpt lat="42.2835533" lon="14.1215917"><ele>215.0</ele><time>2026-05-01T14:14:02.28Z</time></trkpt><trkpt lat="42.2834833" lon="14.1214667"><ele>215.0</ele><time>2026-05-01T14:14:04.28Z</time></trkpt><trkpt lat="42.28341" lon="14.12135"><ele>215.0</ele><time>2026-05-01T14:14:06.28Z</time></trkpt><trkpt lat="42.283345" lon="14.1212267"><ele>215.0</ele><time>2026-05-01T14:14:08.28Z</time></trkpt><trkpt lat="42.2832917" lon="14.12111"><ele>215.0</ele><time>2026-05-01T14:14:10.28Z</time></trkpt><trkpt lat="42.28324" lon="14.120995"><ele>215.0</ele><time>2026-05-01T14:14:12.28Z</time></trkpt><trkpt lat="42.28322" lon="14.1208583"><ele>215.0</ele><time>2026-05-01T14:14:14.28Z</time></trkpt><trkpt lat="42.283175" lon="14.120715"><ele>215.0</ele><time>2026-05-01T14:14:16.28Z</time></trkpt><trkpt lat="42.2831433" lon="14.1206367"><ele>215.0</ele><time>2026-05-01T14:14:17.281Z</time></trkpt><trkpt lat="42.2831183" lon="14.1205383"><ele>215.0</ele><time>2026-05-01T14:14:18.28Z</time></trkpt><trkpt lat="42.28308" lon="14.1204217"><ele>218.75</ele><time>2026-05-01T14:14:19.28Z</time></trkpt><trkpt lat="42.283035" lon="14.1202817"><ele>222.5</ele><time>2026-05-01T14:14:20.28Z</time></trkpt><trkpt lat="42.2829933" lon="14.12012"><ele>226.25</ele><time>2026-05-01T14:14:21.28Z</time></trkpt><trkpt lat="42.2829533" lon="14.1199767"><ele>230.0</ele><time>2026-05-01T14:14:22.28Z</time></trkpt><trkpt lat="42.2829217" lon="14.1198467"><ele>230.0</ele><time>2026-05-01T14:14:23.28Z</time></trkpt><trkpt lat="42.282885" lon="14.1197183"><ele>230.0</ele><time>2026-05-01T14:14:24.28Z</time></trkpt><trkpt lat="42.2828483" lon="14.1195933"><ele>230.0</ele><time>2026-05-01T14:14:25.28Z</time></trkpt><trkpt lat="42.282815" lon="14.1194633"><ele>230.0</ele><time>2026-05-01T14:14:26.28Z</time></trkpt><trkpt lat="42.2827783" lon="14.119335"><ele>230.0</ele><time>2026-05-01T14:14:27.28Z</time></trkpt><trkpt lat="42.2827433" lon="14.11921"><ele>230.0</ele><time>2026-05-01T14:14:28.28Z</time></trkpt><trkpt lat="42.2827083" lon="14.1190867"><ele>230.0</ele><time>2026-05-01T14:14:29.28Z</time></trkpt><trkpt lat="42.2826667" lon="14.11895"><ele>230.0</ele><time>2026-05-01T14:14:30.28Z</time></trkpt><trkpt lat="42.2826217" lon="14.1188033"><ele>230.0</ele><time>2026-05-01T14:14:31.28Z</time></trkpt><trkpt lat="42.2825767" lon="14.1186567"><ele>230.0</ele><time>2026-05-01T14:14:32.28Z</time></trkpt><trkpt lat="42.2825317" lon="14.1185133"><ele>229.0</ele><time>2026-05-01T14:14:33.28Z</time></trkpt><trkpt lat="42.28249" lon="14.1183783"><ele>228.0</ele><time>2026-05-01T14:14:34.28Z</time></trkpt><trkpt lat="42.2824433" lon="14.11823"><ele>227.0</ele><time>2026-05-01T14:14:35.281Z</time></trkpt><trkpt lat="42.2823783" lon="14.1180867"><ele>226.0</ele><time>2026-05-01T14:14:36.28Z</time></trkpt><trkpt lat="42.2823217" lon="14.117955"><ele>225.49999999999997</ele><time>2026-05-01T14:14:37.28Z</time></trkpt><trkpt lat="42.2822667" lon="14.1178367"><ele>225.0</ele><time>2026-05-01T14:14:38.28Z</time></trkpt><trkpt lat="42.282215" lon="14.1177383"><ele>224.5</ele><time>2026-05-01T14:14:39.28Z</time></trkpt><trkpt lat="42.2821683" lon="14.1176583"><ele>224.0</ele><time>2026-05-01T14:14:40.281Z</time></trkpt><trkpt lat="42.2820967" lon="14.1175783"><ele>223.49999999999997</ele><time>2026-05-01T14:14:42.28Z</time></trkpt><trkpt lat="42.28204" lon="14.1176317"><ele>223.0</ele><time>2026-05-01T14:14:46.28Z</time></trkpt><trkpt lat="42.2820383" lon="14.1178167"><ele>223.0</ele><time>2026-05-01T14:14:48.281Z</time></trkpt><trkpt lat="42.2820383" lon="14.11795"><ele>223.0</ele><time>2026-05-01T14:14:49.28Z</time></trkpt><trkpt lat="42.2820367" lon="14.1180833"><ele>223.0</ele><time>2026-05-01T14:14:50.28Z</time></trkpt><trkpt lat="42.2820283" lon="14.1182133"><ele>223.0</ele><time>2026-05-01T14:14:51.28Z</time></trkpt><trkpt lat="42.282025" lon="14.118335"><ele>223.0</ele><time>2026-05-01T14:14:52.28Z</time></trkpt><trkpt lat="42.2820133" lon="14.11847"><ele>224.25</ele><time>2026-05-01T14:14:53.28Z</time></trkpt><trkpt lat="42.2820067" lon="14.1186083"><ele>225.5</ele><time>2026-05-01T14:14:54.28Z</time></trkpt><trkpt lat="42.2819933" lon="14.1187617"><ele>226.75</ele><time>2026-05-01T14:14:55.28Z</time></trkpt><trkpt lat="42.2819717" lon="14.11892"><ele>228.0</ele><time>2026-05-01T14:14:56.28Z</time></trkpt><trkpt lat="42.2819433" lon="14.1190833"><ele>230.0</ele><time>2026-05-01T14:14:57.28Z</time></trkpt><trkpt lat="42.281925" lon="14.1192467"><ele>232.0</ele><time>2026-05-01T14:14:58.28Z</time></trkpt><trkpt lat="42.2819067" lon="14.1194133"><ele>234.0</ele><time>2026-05-01T14:14:59.28Z</time></trkpt><trkpt lat="42.2819" lon="14.11958"><ele>236.0</ele><time>2026-05-01T14:15:00.28Z</time></trkpt><trkpt lat="42.2819083" lon="14.119755"><ele>237.5</ele><time>2026-05-01T14:15:01.28Z</time></trkpt><trkpt lat="42.2819383" lon="14.119935"><ele>239.0</ele><time>2026-05-01T14:15:02.28Z</time></trkpt><trkpt lat="42.281975" lon="14.1201183"><ele>240.5</ele><time>2026-05-01T14:15:03.28Z</time></trkpt><trkpt lat="42.2820167" lon="14.1202967"><ele>242.0</ele><time>2026-05-01T14:15:04.28Z</time></trkpt><trkpt lat="42.28205" lon="14.1204683"><ele>242.0</ele><time>2026-05-01T14:15:05.28Z</time></trkpt><trkpt lat="42.2820783" lon="14.1206283"><ele>242.0</ele><time>2026-05-01T14:15:06.28Z</time></trkpt><trkpt lat="42.2820883" lon="14.1207967"><ele>242.0</ele><time>2026-05-01T14:15:07.281Z</time></trkpt><trkpt lat="42.2820833" lon="14.120965"><ele>242.0</ele><time>2026-05-01T14:15:08.28Z</time></trkpt><trkpt lat="42.2820683" lon="14.1211367"><ele>243.5</ele><time>2026-05-01T14:15:09.28Z</time></trkpt><trkpt lat="42.28205" lon="14.1213033"><ele>245.0</ele><time>2026-05-01T14:15:10.28Z</time></trkpt><trkpt lat="42.2820283" lon="14.121485"><ele>246.5</ele><time>2026-05-01T14:15:11.281Z</time></trkpt><trkpt lat="42.2820017" lon="14.1216567"><ele>248.0</ele><time>2026-05-01T14:15:12.28Z</time></trkpt><trkpt lat="42.2819917" lon="14.1218383"><ele>249.33333333333334</ele><time>2026-05-01T14:15:13.28Z</time></trkpt><trkpt lat="42.2820033" lon="14.1220383"><ele>250.66666666666669</ele><time>2026-05-01T14:15:14.281Z</time></trkpt><trkpt lat="42.28203" lon="14.1222517"><ele>252.0</ele><time>2026-05-01T14:15:15.28Z</time></trkpt><trkpt lat="42.2820683" lon="14.122455"><ele>254.33333333333331</ele><time>2026-05-01T14:15:16.28Z</time></trkpt><trkpt lat="42.282095" lon="14.122685"><ele>256.66666666666663</ele><time>2026-05-01T14:15:17.28Z</time></trkpt><trkpt lat="42.282125" lon="14.1229133"><ele>259.0</ele><time>2026-05-01T14:15:18.28Z</time></trkpt><trkpt lat="42.2821317" lon="14.1231383"><ele>263.0</ele><time>2026-05-01T14:15:19.28Z</time></trkpt><trkpt lat="42.2821333" lon="14.1233667"><ele>267.0</ele><time>2026-05-01T14:15:20.28Z</time></trkpt><trkpt lat="42.2821383" lon="14.1235833"><ele>271.0</ele><time>2026-05-01T14:15:21.28Z</time></trkpt><trkpt lat="42.2821433" lon="14.123805"><ele>271.0</ele><time>2026-05-01T14:15:22.28Z</time></trkpt><trkpt lat="42.2821533" lon="14.12403"><ele>271.0</ele><time>2026-05-01T14:15:23.28Z</time></trkpt><trkpt lat="42.282165" lon="14.1242533"><ele>271.0</ele><time>2026-05-01T14:15:24.28Z</time></trkpt><trkpt lat="42.2821817" lon="14.1244733"><ele>273.66666666666663</ele><time>2026-05-01T14:15:25.28Z</time></trkpt><trkpt lat="42.2821883" lon="14.1246683"><ele>276.3333333333333</ele><time>2026-05-01T14:15:26.28Z</time></trkpt><trkpt lat="42.2822033" lon="14.124875"><ele>279.0</ele><time>2026-05-01T14:15:27.28Z</time></trkpt><trkpt lat="42.2822267" lon="14.12508"><ele>279.6666666666667</ele><time>2026-05-01T14:15:28.28Z</time></trkpt><trkpt lat="42.282245" lon="14.12529"><ele>280.33333333333337</ele><time>2026-05-01T14:15:29.28Z</time></trkpt><trkpt lat="42.2822667" lon="14.1255"><ele>281.0</ele><time>2026-05-01T14:15:30.28Z</time></trkpt><trkpt lat="42.2822867" lon="14.1257067"><ele>283.0</ele><time>2026-05-01T14:15:31.28Z</time></trkpt><trkpt lat="42.2823133" lon="14.1259217"><ele>285.0</ele><time>2026-05-01T14:15:32.28Z</time></trkpt><trkpt lat="42.2823467" lon="14.1261233"><ele>287.0</ele><time>2026-05-01T14:15:33.28Z</time></trkpt><trkpt lat="42.282385" lon="14.126295"><ele>289.0</ele><time>2026-05-01T14:15:34.281Z</time></trkpt><trkpt lat="42.2824317" lon="14.12646"><ele>291.2</ele><time>2026-05-01T14:15:35.28Z</time></trkpt><trkpt lat="42.2824933" lon="14.1266033"><ele>293.4</ele><time>2026-05-01T14:15:36.28Z</time></trkpt><trkpt lat="42.2825467" lon="14.1267267"><ele>295.6</ele><time>2026-05-01T14:15:37.28Z</time></trkpt><trkpt lat="42.2825883" lon="14.1268183"><ele>297.8</ele><time>2026-05-01T14:15:38.28Z</time></trkpt><trkpt lat="42.28263" lon="14.12695"><ele>300.0</ele><time>2026-05-01T14:15:40.28Z</time></trkpt><trkpt lat="42.28264" lon="14.1270467"><ele>300.0</ele><time>2026-05-01T14:15:42.28Z</time></trkpt><trkpt lat="42.2827133" lon="14.12719"><ele>300.0</ele><time>2026-05-01T14:15:44.28Z</time></trkpt><trkpt lat="42.2827767" lon="14.127295"><ele>300.0</ele><time>2026-05-01T14:15:45.28Z</time></trkpt><trkpt lat="42.2828517" lon="14.1274167"><ele>300.0</ele><time>2026-05-01T14:15:46.28Z</time></trkpt><trkpt lat="42.2829267" lon="14.12755"><ele>300.25</ele><time>2026-05-01T14:15:47.28Z</time></trkpt><trkpt lat="42.2830067" lon="14.127685"><ele>300.5</ele><time>2026-05-01T14:15:48.28Z</time></trkpt><trkpt lat="42.2830883" lon="14.127825"><ele>300.75</ele><time>2026-05-01T14:15:49.28Z</time></trkpt><trkpt lat="42.2831667" lon="14.127975"><ele>301.0</ele><time>2026-05-01T14:15:50.279Z</time></trkpt><trkpt lat="42.2832617" lon="14.128125"><ele>301.25</ele><time>2026-05-01T14:15:51.279Z</time></trkpt><trkpt lat="42.2833533" lon="14.1282883"><ele>301.5</ele><time>2026-05-01T14:15:52.279Z</time></trkpt><trkpt lat="42.2834433" lon="14.1284317"><ele>301.75</ele><time>2026-05-01T14:15:53.279Z</time></trkpt><trkpt lat="42.28353" lon="14.1285483"><ele>302.0</ele><time>2026-05-01T14:15:54.28Z</time></trkpt><trkpt lat="42.2836117" lon="14.1286367"><ele>302.0</ele><time>2026-05-01T14:15:55.279Z</time></trkpt><trkpt lat="42.2837067" lon="14.128685"><ele>302.0</ele><time>2026-05-01T14:15:56.279Z</time></trkpt><trkpt lat="42.283805" lon="14.1287017"><ele>302.0</ele><time>2026-05-01T14:15:57.279Z</time></trkpt><trkpt lat="42.2839183" lon="14.1287"><ele>302.0</ele><time>2026-05-01T14:15:58.279Z</time></trkpt><trkpt lat="42.2840333" lon="14.128705"><ele>302.0</ele><time>2026-05-01T14:15:59.279Z</time></trkpt><trkpt lat="42.2841467" lon="14.1287267"><ele>302.5</ele><time>2026-05-01T14:16:00.279Z</time></trkpt><trkpt lat="42.28426" lon="14.1287917"><ele>303.0</ele><time>2026-05-01T14:16:01.279Z</time></trkpt><trkpt lat="42.2843667" lon="14.128875"><ele>303.5</ele><time>2026-05-01T14:16:02.279Z</time></trkpt><trkpt lat="42.2844717" lon="14.12897"><ele>304.0</ele><time>2026-05-01T14:16:03.279Z</time></trkpt><trkpt lat="42.2845717" lon="14.1290733"><ele>303.5</ele><time>2026-05-01T14:16:04.279Z</time></trkpt><trkpt lat="42.2846833" lon="14.1291817"><ele>303.0</ele><time>2026-05-01T14:16:05.279Z</time></trkpt><trkpt lat="42.284795" lon="14.1292917"><ele>302.5</ele><time>2026-05-01T14:16:06.279Z</time></trkpt><trkpt lat="42.2849067" lon="14.1294"><ele>302.0</ele><time>2026-05-01T14:16:07.28Z</time></trkpt><trkpt lat="42.2850083" lon="14.1295067"><ele>302.0</ele><time>2026-05-01T14:16:08.279Z</time></trkpt><trkpt lat="42.2851033" lon="14.1296083"><ele>302.0</ele><time>2026-05-01T14:16:09.28Z</time></trkpt><trkpt lat="42.2851967" lon="14.1297267"><ele>302.0</ele><time>2026-05-01T14:16:10.28Z</time></trkpt><trkpt lat="42.2852883" lon="14.1298617"><ele>302.0</ele><time>2026-05-01T14:16:11.279Z</time></trkpt><trkpt lat="42.28538" lon="14.13"><ele>303.25</ele><time>2026-05-01T14:16:12.279Z</time></trkpt><trkpt lat="42.2854783" lon="14.1301433"><ele>304.5</ele><time>2026-05-01T14:16:13.279Z</time></trkpt><trkpt lat="42.2855733" lon="14.1303033"><ele>305.75</ele><time>2026-05-01T14:16:14.279Z</time></trkpt><trkpt lat="42.285655" lon="14.1304717"><ele>307.0</ele><time>2026-05-01T14:16:15.279Z</time></trkpt><trkpt lat="42.2857433" lon="14.1306483"><ele>304.0</ele><time>2026-05-01T14:16:16.279Z</time></trkpt><trkpt lat="42.2858283" lon="14.1308333"><ele>301.0</ele><time>2026-05-01T14:16:17.279Z</time></trkpt><trkpt lat="42.2859217" lon="14.13101"><ele>298.0</ele><time>2026-05-01T14:16:18.279Z</time></trkpt><trkpt lat="42.286015" lon="14.131185"><ele>298.0</ele><time>2026-05-01T14:16:19.279Z</time></trkpt><trkpt lat="42.2861117" lon="14.1313417"><ele>298.0</ele><time>2026-05-01T14:16:20.279Z</time></trkpt><trkpt lat="42.286205" lon="14.131485"><ele>298.0</ele><time>2026-05-01T14:16:21.279Z</time></trkpt><trkpt lat="42.2863" lon="14.131625"><ele>298.0</ele><time>2026-05-01T14:16:22.279Z</time></trkpt><trkpt lat="42.2863833" lon="14.1317567"><ele>295.75</ele><time>2026-05-01T14:16:23.279Z</time></trkpt><trkpt lat="42.28646" lon="14.1318933"><ele>293.5</ele><time>2026-05-01T14:16:24.279Z</time></trkpt><trkpt lat="42.2865317" lon="14.1320283"><ele>291.25</ele><time>2026-05-01T14:16:25.279Z</time></trkpt><trkpt lat="42.286605" lon="14.1321783"><ele>289.0</ele><time>2026-05-01T14:16:26.279Z</time></trkpt><trkpt lat="42.2866617" lon="14.1323367"><ele>289.75</ele><time>2026-05-01T14:16:27.279Z</time></trkpt><trkpt lat="42.2867033" lon="14.132505"><ele>290.5</ele><time>2026-05-01T14:16:28.28Z</time></trkpt><trkpt lat="42.28675" lon="14.1326667"><ele>291.25</ele><time>2026-05-01T14:16:29.28Z</time></trkpt><trkpt lat="42.2867833" lon="14.13282"><ele>292.0</ele><time>2026-05-01T14:16:30.279Z</time></trkpt><trkpt lat="42.286825" lon="14.1329533"><ele>292.0</ele><time>2026-05-01T14:16:31.279Z</time></trkpt><trkpt lat="42.2868533" lon="14.1330917"><ele>292.0</ele><time>2026-05-01T14:16:32.279Z</time></trkpt><trkpt lat="42.2868867" lon="14.133215"><ele>292.0</ele><time>2026-05-01T14:16:33.279Z</time></trkpt><trkpt lat="42.2869333" lon="14.133305"><ele>292.0</ele><time>2026-05-01T14:16:34.279Z</time></trkpt><trkpt lat="42.287015" lon="14.1333867"><ele>292.0</ele><time>2026-05-01T14:16:35.279Z</time></trkpt><trkpt lat="42.28712" lon="14.1334367"><ele>291.25</ele><time>2026-05-01T14:16:36.279Z</time></trkpt><trkpt lat="42.2872367" lon="14.1335"><ele>290.5</ele><time>2026-05-01T14:16:37.279Z</time></trkpt><trkpt lat="42.2873683" lon="14.1335483"><ele>289.75</ele><time>2026-05-01T14:16:38.279Z</time></trkpt><trkpt lat="42.287495" lon="14.1336017"><ele>289.0</ele><time>2026-05-01T14:16:39.279Z</time></trkpt><trkpt lat="42.2876267" lon="14.1336433"><ele>289.0</ele><time>2026-05-01T14:16:40.279Z</time></trkpt><trkpt lat="42.2877533" lon="14.1336967"><ele>289.0</ele><time>2026-05-01T14:16:41.279Z</time></trkpt><trkpt lat="42.2878717" lon="14.133765"><ele>289.0</ele><time>2026-05-01T14:16:42.279Z</time></trkpt><trkpt lat="42.28797" lon="14.1338567"><ele>289.0</ele><time>2026-05-01T14:16:43.279Z</time></trkpt><trkpt lat="42.288055" lon="14.1339733"><ele>291.25</ele><time>2026-05-01T14:16:44.279Z</time></trkpt><trkpt lat="42.2881233" lon="14.1341067"><ele>293.5</ele><time>2026-05-01T14:16:45.279Z</time></trkpt><trkpt lat="42.2882033" lon="14.13425"><ele>295.75</ele><time>2026-05-01T14:16:46.279Z</time></trkpt><trkpt lat="42.2882817" lon="14.1343983"><ele>298.0</ele><time>2026-05-01T14:16:47.279Z</time></trkpt><trkpt lat="42.2883817" lon="14.1345417"><ele>298.0</ele><time>2026-05-01T14:16:48.279Z</time></trkpt><trkpt lat="42.2884867" lon="14.134665"><ele>298.0</ele><time>2026-05-01T14:16:49.279Z</time></trkpt><trkpt lat="42.2885983" lon="14.13477"><ele>298.0</ele><time>2026-05-01T14:16:50.279Z</time></trkpt><trkpt lat="42.2887283" lon="14.134865"><ele>298.0</ele><time>2026-05-01T14:16:51.279Z</time></trkpt><trkpt lat="42.288855" lon="14.134975"><ele>302.0</ele><time>2026-05-01T14:16:52.279Z</time></trkpt><trkpt lat="42.2889817" lon="14.135095"><ele>306.0</ele><time>2026-05-01T14:16:53.279Z</time></trkpt><trkpt lat="42.28911" lon="14.135225"><ele>310.0</ele><time>2026-05-01T14:16:54.28Z</time></trkpt><trkpt lat="42.2892417" lon="14.1353567"><ele>310.0</ele><time>2026-05-01T14:16:55.279Z</time></trkpt><trkpt lat="42.2893733" lon="14.1354867"><ele>310.0</ele><time>2026-05-01T14:16:56.279Z</time></trkpt><trkpt lat="42.28951" lon="14.1355983"><ele>310.0</ele><time>2026-05-01T14:16:57.28Z</time></trkpt><trkpt lat="42.2896383" lon="14.1356867"><ele>310.3333333333333</ele><time>2026-05-01T14:16:58.279Z</time></trkpt><trkpt lat="42.2897733" lon="14.1357517"><ele>310.6666666666667</ele><time>2026-05-01T14:16:59.279Z</time></trkpt><trkpt lat="42.289935" lon="14.1358083"><ele>311.0</ele><time>2026-05-01T14:17:00.279Z</time></trkpt><trkpt lat="42.290095" lon="14.1358567"><ele>311.0</ele><time>2026-05-01T14:17:01.28Z</time></trkpt><trkpt lat="42.29023" lon="14.1359033"><ele>311.0</ele><time>2026-05-01T14:17:02.279Z</time></trkpt><trkpt lat="42.2903683" lon="14.135955"><ele>311.0</ele><time>2026-05-01T14:17:03.279Z</time></trkpt><trkpt lat="42.2905" lon="14.1359917"><ele>311.0</ele><time>2026-05-01T14:17:04.279Z</time></trkpt><trkpt lat="42.2906117" lon="14.1360383"><ele>312.5</ele><time>2026-05-01T14:17:05.279Z</time></trkpt><trkpt lat="42.2907417" lon="14.1360817"><ele>314.0</ele><time>2026-05-01T14:17:06.279Z</time></trkpt><trkpt lat="42.290855" lon="14.1361"><ele>315.5</ele><time>2026-05-01T14:17:07.279Z</time></trkpt><trkpt lat="42.2909617" lon="14.1361133"><ele>317.0</ele><time>2026-05-01T14:17:08.279Z</time></trkpt><trkpt lat="42.2910633" lon="14.1361067"><ele>317.0</ele><time>2026-05-01T14:17:09.279Z</time></trkpt><trkpt lat="42.29115" lon="14.13609"><ele>317.0</ele><time>2026-05-01T14:17:10.28Z</time></trkpt><trkpt lat="42.291215" lon="14.1360783"><ele>317.0</ele><time>2026-05-01T14:17:11.279Z</time></trkpt><trkpt lat="42.2913183" lon="14.1360517"><ele>317.0</ele><time>2026-05-01T14:17:13.279Z</time></trkpt><trkpt lat="42.291415" lon="14.136005"><ele>317.0</ele><time>2026-05-01T14:17:15.279Z</time></trkpt><trkpt lat="42.2914633" lon="14.1359017"><ele>316.2</ele><time>2026-05-01T14:17:17.279Z</time></trkpt><trkpt lat="42.2914267" lon="14.1357717"><ele>315.4</ele><time>2026-05-01T14:17:19.279Z</time></trkpt><trkpt lat="42.2913883" lon="14.1356917"><ele>314.6</ele><time>2026-05-01T14:17:20.279Z</time></trkpt><trkpt lat="42.291335" lon="14.1356133"><ele>313.8</ele><time>2026-05-01T14:17:21.279Z</time></trkpt><trkpt lat="42.2913117" lon="14.1355233"><ele>313.0</ele><time>2026-05-01T14:17:22.279Z</time></trkpt><trkpt lat="42.2912517" lon="14.1353633"><ele>314.3333333333333</ele><time>2026-05-01T14:17:24.28Z</time></trkpt><trkpt lat="42.2912317" lon="14.1352533"><ele>315.66666666666663</ele><time>2026-05-01T14:17:25.279Z</time></trkpt><trkpt lat="42.2912083" lon="14.135145"><ele>317.0</ele><time>2026-05-01T14:17:26.279Z</time></trkpt><trkpt lat="42.2911783" lon="14.1350383"><ele>318.3333333333333</ele><time>2026-05-01T14:17:27.279Z</time></trkpt><trkpt lat="42.29115" lon="14.13493"><ele>319.6666666666667</ele><time>2026-05-01T14:17:28.279Z</time></trkpt><trkpt lat="42.2911117" lon="14.1348233"><ele>321.0</ele><time>2026-05-01T14:17:29.279Z</time></trkpt><trkpt lat="42.2910817" lon="14.1347117"><ele>321.0</ele><time>2026-05-01T14:17:30.28Z</time></trkpt><trkpt lat="42.291035" lon="14.1346033"><ele>321.0</ele><time>2026-05-01T14:17:31.279Z</time></trkpt><trkpt lat="42.2909783" lon="14.1344733"><ele>321.0</ele><time>2026-05-01T14:17:32.279Z</time></trkpt><trkpt lat="42.2909117" lon="14.1343717"><ele>321.0</ele><time>2026-05-01T14:17:33.279Z</time></trkpt><trkpt lat="42.2908583" lon="14.1342783"><ele>321.0</ele><time>2026-05-01T14:17:34.279Z</time></trkpt><trkpt lat="42.2908083" lon="14.1341983"><ele>321.0</ele><time>2026-05-01T14:17:35.279Z</time></trkpt><trkpt lat="42.290735" lon="14.134115"><ele>321.0</ele><time>2026-05-01T14:17:37.279Z</time></trkpt><trkpt lat="42.29066" lon="14.1340733"><ele>321.0</ele><time>2026-05-01T14:17:40.279Z</time></trkpt><trkpt lat="42.2905517" lon="14.1339983"><ele>321.0</ele><time>2026-05-01T14:17:42.279Z</time></trkpt><trkpt lat="42.2904733" lon="14.1339567"><ele>321.0</ele><time>2026-05-01T14:17:43.279Z</time></trkpt><trkpt lat="42.29039" lon="14.1339167"><ele>320.6</ele><time>2026-05-01T14:17:44.279Z</time></trkpt><trkpt lat="42.2902933" lon="14.1338733"><ele>320.20000000000005</ele><time>2026-05-01T14:17:45.279Z</time></trkpt><trkpt lat="42.2901917" lon="14.1338167"><ele>319.79999999999995</ele><time>2026-05-01T14:17:46.28Z</time></trkpt><trkpt lat="42.2901033" lon="14.1337533"><ele>319.4</ele><time>2026-05-01T14:17:47.279Z</time></trkpt><trkpt lat="42.2900333" lon="14.1336717"><ele>319.0</ele><time>2026-05-01T14:17:48.279Z</time></trkpt><trkpt lat="42.289975" lon="14.1335767"><ele>319.0</ele><time>2026-05-01T14:17:49.279Z</time></trkpt><trkpt lat="42.2899233" lon="14.13347"><ele>319.0</ele><time>2026-05-01T14:17:50.279Z</time></trkpt><trkpt lat="42.2898683" lon="14.1333533"><ele>319.0</ele><time>2026-05-01T14:17:51.279Z</time></trkpt><trkpt lat="42.2898067" lon="14.1332483"><ele>319.0</ele><time>2026-05-01T14:17:52.28Z</time></trkpt><trkpt lat="42.2897483" lon="14.1331617"><ele>319.0</ele><time>2026-05-01T14:17:53.279Z</time></trkpt><trkpt lat="42.2896917" lon="14.1330933"><ele>318.16666666666663</ele><time>2026-05-01T14:17:54.279Z</time></trkpt><trkpt lat="42.28964" lon="14.13303"><ele>317.3333333333333</ele><time>2026-05-01T14:17:55.279Z</time></trkpt><trkpt lat="42.28959" lon="14.1329183"><ele>316.5</ele><time>2026-05-01T14:17:57.279Z</time></trkpt><trkpt lat="42.2895883" lon="14.1327967"><ele>315.6666666666667</ele><time>2026-05-01T14:17:59.279Z</time></trkpt><trkpt lat="42.28962" lon="14.1326367"><ele>314.83333333333337</ele><time>2026-05-01T14:18:01.279Z</time></trkpt><trkpt lat="42.2896383" lon="14.1325517"><ele>314.0</ele><time>2026-05-01T14:18:02.279Z</time></trkpt><trkpt lat="42.2896567" lon="14.13244"><ele>313.1666666666667</ele><time>2026-05-01T14:18:03.279Z</time></trkpt><trkpt lat="42.2896883" lon="14.1323283"><ele>312.33333333333337</ele><time>2026-05-01T14:18:04.279Z</time></trkpt><trkpt lat="42.2897167" lon="14.1322233"><ele>311.5</ele><time>2026-05-01T14:18:05.279Z</time></trkpt><trkpt lat="42.2897467" lon="14.13213"><ele>310.6666666666667</ele><time>2026-05-01T14:18:06.279Z</time></trkpt><trkpt lat="42.2897783" lon="14.1320433"><ele>309.8333333333333</ele><time>2026-05-01T14:18:07.279Z</time></trkpt><trkpt lat="42.2898133" lon="14.131955"><ele>309.0</ele><time>2026-05-01T14:18:08.279Z</time></trkpt><trkpt lat="42.2898533" lon="14.1318767"><ele>309.0</ele><time>2026-05-01T14:18:09.279Z</time></trkpt><trkpt lat="42.2898833" lon="14.1317933"><ele>309.0</ele><time>2026-05-01T14:18:10.279Z</time></trkpt><trkpt lat="42.2899117" lon="14.1317117"><ele>309.0</ele><time>2026-05-01T14:18:11.279Z</time></trkpt><trkpt lat="42.28997" lon="14.1315933"><ele>309.0</ele><time>2026-05-01T14:18:13.279Z</time></trkpt><trkpt lat="42.2900167" lon="14.131505"><ele>309.0</ele><time>2026-05-01T14:18:15.279Z</time></trkpt><trkpt lat="42.2900633" lon="14.1314233"><ele>309.0</ele><time>2026-05-01T14:18:17.279Z</time></trkpt><trkpt lat="42.2901117" lon="14.131315"><ele>306.3333333333333</ele><time>2026-05-01T14:18:20.279Z</time></trkpt><trkpt lat="42.29014" lon="14.131225"><ele>303.6666666666667</ele><time>2026-05-01T14:18:23.28Z</time></trkpt><trkpt lat="42.2901833" lon="14.131135"><ele>301.0</ele><time>2026-05-01T14:18:26.279Z</time></trkpt><trkpt lat="42.290205" lon="14.1310383"><ele>298.33333333333337</ele><time>2026-05-01T14:18:29.279Z</time></trkpt><trkpt lat="42.29023" lon="14.1309283"><ele>295.6666666666667</ele><time>2026-05-01T14:18:32.279Z</time></trkpt><trkpt lat="42.29025" lon="14.1308317"><ele>293.0</ele><time>2026-05-01T14:18:34.28Z</time></trkpt><trkpt lat="42.2902733" lon="14.130735"><ele>289.8</ele><time>2026-05-01T14:18:36.279Z</time></trkpt><trkpt lat="42.2903033" lon="14.130615"><ele>286.6</ele><time>2026-05-01T14:18:38.279Z</time></trkpt><trkpt lat="42.2903283" lon="14.1304883"><ele>283.4</ele><time>2026-05-01T14:18:40.279Z</time></trkpt><trkpt lat="42.290355" lon="14.1303733"><ele>280.2</ele><time>2026-05-01T14:18:42.279Z</time></trkpt><trkpt lat="42.290385" lon="14.1302683"><ele>277.0</ele><time>2026-05-01T14:18:44.279Z</time></trkpt><trkpt lat="42.2903933" lon="14.1301417"><ele>277.0</ele><time>2026-05-01T14:18:46.279Z</time></trkpt><trkpt lat="42.2903933" lon="14.1300083"><ele>277.0</ele><time>2026-05-01T14:18:48.279Z</time></trkpt><trkpt lat="42.29039" lon="14.1298717"><ele>277.0</ele><time>2026-05-01T14:18:50.279Z</time></trkpt><trkpt lat="42.2903767" lon="14.12971"><ele>277.0</ele><time>2026-05-01T14:18:52.28Z</time></trkpt><trkpt lat="42.2903683" lon="14.129565"><ele>277.0</ele><time>2026-05-01T14:18:54.279Z</time></trkpt><trkpt lat="42.290355" lon="14.1294317"><ele>275.4</ele><time>2026-05-01T14:18:56.279Z</time></trkpt><trkpt lat="42.290355" lon="14.129295"><ele>273.79999999999995</ele><time>2026-05-01T14:18:58.279Z</time></trkpt><trkpt lat="42.29036" lon="14.1291483"><ele>272.2</ele><time>2026-05-01T14:19:00.279Z</time></trkpt><trkpt lat="42.29037" lon="14.1289933"><ele>270.59999999999997</ele><time>2026-05-01T14:19:02.279Z</time></trkpt><trkpt lat="42.290385" lon="14.128845"><ele>269.0</ele><time>2026-05-01T14:19:04.279Z</time></trkpt><trkpt lat="42.2904017" lon="14.1287017"><ele>265.0</ele><time>2026-05-01T14:19:06.279Z</time></trkpt><trkpt lat="42.2904233" lon="14.1285533"><ele>261.0</ele><time>2026-05-01T14:19:08.279Z</time></trkpt><trkpt lat="42.2904483" lon="14.1284167"><ele>257.0</ele><time>2026-05-01T14:19:10.279Z</time></trkpt><trkpt lat="42.290455" lon="14.12829"><ele>253.0</ele><time>2026-05-01T14:19:12.279Z</time></trkpt><trkpt lat="42.29047" lon="14.1281517"><ele>249.0</ele><time>2026-05-01T14:19:14.279Z</time></trkpt><trkpt lat="42.2904833" lon="14.128025"><ele>245.5</ele><time>2026-05-01T14:19:16.279Z</time></trkpt><trkpt lat="42.2904967" lon="14.1279017"><ele>242.0</ele><time>2026-05-01T14:19:18.279Z</time></trkpt><trkpt lat="42.2905167" lon="14.1277833"><ele>238.5</ele><time>2026-05-01T14:19:20.279Z</time></trkpt><trkpt lat="42.2905333" lon="14.127675"><ele>235.0</ele><time>2026-05-01T14:19:22.279Z</time></trkpt><trkpt lat="42.2905483" lon="14.1275717"><ele>231.5</ele><time>2026-05-01T14:19:24.279Z</time></trkpt><trkpt lat="42.290565" lon="14.12746"><ele>228.0</ele><time>2026-05-01T14:19:26.279Z</time></trkpt><trkpt lat="42.290585" lon="14.1273333"><ele>227.2</ele><time>2026-05-01T14:19:28.279Z</time></trkpt><trkpt lat="42.2905983" lon="14.1272167"><ele>226.4</ele><time>2026-05-01T14:19:30.279Z</time></trkpt><trkpt lat="42.290615" lon="14.12709"><ele>225.59999999999997</ele><time>2026-05-01T14:19:32.279Z</time></trkpt><trkpt lat="42.2906333" lon="14.1269583"><ele>224.79999999999998</ele><time>2026-05-01T14:19:34.279Z</time></trkpt><trkpt lat="42.2906433" lon="14.12683"><ele>224.0</ele><time>2026-05-01T14:19:36.279Z</time></trkpt><trkpt lat="42.2906367" lon="14.1267133"><ele>224.0</ele><time>2026-05-01T14:19:38.279Z</time></trkpt><trkpt lat="42.2906267" lon="14.126605"><ele>224.0</ele><time>2026-05-01T14:19:40.279Z</time></trkpt><trkpt lat="42.290615" lon="14.1265083"><ele>224.0</ele><time>2026-05-01T14:19:42.28Z</time></trkpt><trkpt lat="42.2906017" lon="14.12641"><ele>224.0</ele><time>2026-05-01T14:19:44.279Z</time></trkpt><trkpt lat="42.2905867" lon="14.1263167"><ele>224.0</ele><time>2026-05-01T14:19:46.279Z</time></trkpt><trkpt lat="42.2905733" lon="14.1262267"><ele>224.0</ele><time>2026-05-01T14:19:48.279Z</time></trkpt><trkpt lat="42.290565" lon="14.1261283"><ele>224.0</ele><time>2026-05-01T14:19:50.279Z</time></trkpt><trkpt lat="42.29056" lon="14.12601"><ele>220.33333333333334</ele><time>2026-05-01T14:19:52.28Z</time></trkpt><trkpt lat="42.2905533" lon="14.12588"><ele>216.66666666666669</ele><time>2026-05-01T14:19:54.279Z</time></trkpt><trkpt lat="42.290545" lon="14.12576"><ele>213.0</ele><time>2026-05-01T14:19:56.279Z</time></trkpt><trkpt lat="42.2905317" lon="14.1256417"><ele>209.33333333333331</ele><time>2026-05-01T14:19:58.279Z</time></trkpt><trkpt lat="42.2905167" lon="14.1255417"><ele>205.66666666666666</ele><time>2026-05-01T14:20:00.279Z</time></trkpt><trkpt lat="42.29051" lon="14.1254317"><ele>202.0</ele><time>2026-05-01T14:20:02.279Z</time></trkpt><trkpt lat="42.29051" lon="14.12531"><ele>201.49999999999997</ele><time>2026-05-01T14:20:04.279Z</time></trkpt><trkpt lat="42.2905117" lon="14.1251967"><ele>201.0</ele><time>2026-05-01T14:20:06.279Z</time></trkpt><trkpt lat="42.2905183" lon="14.1250883"><ele>200.5</ele><time>2026-05-01T14:20:08.279Z</time></trkpt><trkpt lat="42.2905433" lon="14.1249967"><ele>200.0</ele><time>2026-05-01T14:20:10.279Z</time></trkpt><trkpt lat="42.29057" lon="14.1249067"><ele>199.49999999999997</ele><time>2026-05-01T14:20:12.279Z</time></trkpt><trkpt lat="42.2906033" lon="14.1248167"><ele>199.0</ele><time>2026-05-01T14:20:14.279Z</time></trkpt><trkpt lat="42.29064" lon="14.1247383"><ele>198.16666666666666</ele><time>2026-05-01T14:20:16.279Z</time></trkpt><trkpt lat="42.2906917" lon="14.12463"><ele>197.33333333333331</ele><time>2026-05-01T14:20:19.279Z</time></trkpt><trkpt lat="42.290735" lon="14.1245467"><ele>196.5</ele><time>2026-05-01T14:20:21.279Z</time></trkpt><trkpt lat="42.2907717" lon="14.1244683"><ele>195.66666666666669</ele><time>2026-05-01T14:20:23.279Z</time></trkpt><trkpt lat="42.2908133" lon="14.1243967"><ele>194.83333333333334</ele><time>2026-05-01T14:20:25.279Z</time></trkpt><trkpt lat="42.2908567" lon="14.1243167"><ele>194.0</ele><time>2026-05-01T14:20:27.279Z</time></trkpt><trkpt lat="42.2908933" lon="14.1242333"><ele>194.00000000000003</ele><time>2026-05-01T14:20:29.279Z</time></trkpt><trkpt lat="42.2909267" lon="14.1241417"><ele>194.0</ele><time>2026-05-01T14:20:31.279Z</time></trkpt><trkpt lat="42.2909433" lon="14.12404"><ele>194.0</ele><time>2026-05-01T14:20:33.279Z</time></trkpt><trkpt lat="42.2909617" lon="14.1239383"><ele>194.0</ele><time>2026-05-01T14:20:35.279Z</time></trkpt><trkpt lat="42.2909817" lon="14.12384"><ele>194.00000000000003</ele><time>2026-05-01T14:20:37.279Z</time></trkpt><trkpt lat="42.291" lon="14.1237267"><ele>194.0</ele><time>2026-05-01T14:20:39.279Z</time></trkpt><trkpt lat="42.2909933" lon="14.1236033"><ele>191.00000000000003</ele><time>2026-05-01T14:20:41.279Z</time></trkpt><trkpt lat="42.2909633" lon="14.123495"><ele>188.0</ele><time>2026-05-01T14:20:43.279Z</time></trkpt><trkpt lat="42.29091" lon="14.1233717"><ele>185.0</ele><time>2026-05-01T14:20:45.279Z</time></trkpt><trkpt lat="42.2908633" lon="14.12324"><ele>182.0</ele><time>2026-05-01T14:20:47.279Z</time></trkpt><trkpt lat="42.2908367" lon="14.1231317"><ele>179.0</ele><time>2026-05-01T14:20:49.279Z</time></trkpt><trkpt lat="42.2908017" lon="14.1230567"><ele>176.0</ele><time>2026-05-01T14:20:51.279Z</time></trkpt><trkpt lat="42.29077" lon="14.1229467"><ele>173.0</ele><time>2026-05-01T14:20:54.279Z</time></trkpt><trkpt lat="42.2907317" lon="14.12285"><ele>170.0</ele><time>2026-05-01T14:20:57.279Z</time></trkpt><trkpt lat="42.2906833" lon="14.1226683"><ele>167.0</ele><time>2026-05-01T14:21:07.279Z</time></trkpt><trkpt lat="42.2907017" lon="14.122545"><ele>164.0</ele><time>2026-05-01T14:21:10.279Z</time></trkpt><trkpt lat="42.2907633" lon="14.1224483"><ele>161.0</ele><time>2026-05-01T14:21:13.279Z</time></trkpt><trkpt lat="42.2908117" lon="14.1223933"><ele>161.0</ele><time>2026-05-01T14:21:15.279Z</time></trkpt><trkpt lat="42.2908633" lon="14.1223367"><ele>161.0</ele><time>2026-05-01T14:21:17.279Z</time></trkpt><trkpt lat="42.2909283" lon="14.1222917"><ele>161.0</ele><time>2026-05-01T14:21:19.279Z</time></trkpt><trkpt lat="42.2909883" lon="14.1222367"><ele>161.0</ele><time>2026-05-01T14:21:21.28Z</time></trkpt><trkpt lat="42.29101" lon="14.122155"><ele>161.0</ele><time>2026-05-01T14:21:23.279Z</time></trkpt><trkpt lat="42.2910017" lon="14.1220383"><ele>161.0</ele><time>2026-05-01T14:21:25.279Z</time></trkpt><trkpt lat="42.291015" lon="14.12189"><ele>161.0</ele><time>2026-05-01T14:21:27.279Z</time></trkpt><trkpt lat="42.2910583" lon="14.121755"><ele>161.0</ele><time>2026-05-01T14:21:29.279Z</time></trkpt><trkpt lat="42.2911317" lon="14.1216283"><ele>161.0</ele><time>2026-05-01T14:21:31.279Z</time></trkpt><trkpt lat="42.2911683" lon="14.1215483"><ele>161.0</ele><time>2026-05-01T14:21:32.28Z</time></trkpt><trkpt lat="42.2912333" lon="14.1214067"><ele>161.0</ele><time>2026-05-01T14:21:34.279Z</time></trkpt><trkpt lat="42.2913" lon="14.1212767"><ele>163.0</ele><time>2026-05-01T14:21:36.279Z</time></trkpt><trkpt lat="42.2913667" lon="14.1211417"><ele>165.0</ele><time>2026-05-01T14:21:38.28Z</time></trkpt><trkpt lat="42.2914233" lon="14.1210117"><ele>167.0</ele><time>2026-05-01T14:21:40.28Z</time></trkpt><trkpt lat="42.291475" lon="14.120885"><ele>169.0</ele><time>2026-05-01T14:21:42.28Z</time></trkpt><trkpt lat="42.2915333" lon="14.12076"><ele>171.0</ele><time>2026-05-01T14:21:44.28Z</time></trkpt><trkpt lat="42.2915967" lon="14.12063"><ele>176.20000000000002</ele><time>2026-05-01T14:21:46.281Z</time></trkpt><trkpt lat="42.2916567" lon="14.1205017"><ele>181.4</ele><time>2026-05-01T14:21:48.28Z</time></trkpt><trkpt lat="42.291715" lon="14.1203933"><ele>186.6</ele><time>2026-05-01T14:21:50.28Z</time></trkpt><trkpt lat="42.2917683" lon="14.120285"><ele>191.8</ele><time>2026-05-01T14:21:52.28Z</time></trkpt><trkpt lat="42.291805" lon="14.1201883"><ele>197.0</ele><time>2026-05-01T14:21:54.28Z</time></trkpt><trkpt lat="42.2918333" lon="14.1200767"><ele>197.00000000000003</ele><time>2026-05-01T14:21:56.28Z</time></trkpt><trkpt lat="42.291825" lon="14.1199583"><ele>197.0</ele><time>2026-05-01T14:21:58.28Z</time></trkpt><trkpt lat="42.291815" lon="14.1198217"><ele>197.0</ele><time>2026-05-01T14:22:00.28Z</time></trkpt><trkpt lat="42.2917883" lon="14.119675"><ele>197.0</ele><time>2026-05-01T14:22:02.281Z</time></trkpt><trkpt lat="42.2917583" lon="14.1195983"><ele>197.00000000000003</ele><time>2026-05-01T14:22:03.28Z</time></trkpt><trkpt lat="42.2917317" lon="14.119495"><ele>197.0</ele><time>2026-05-01T14:22:05.28Z</time></trkpt><trkpt lat="42.291804" lon="14.1194665"><ele>200.00000000000003</ele><time>2026-05-01T14:22:10.356Z</time></trkpt><trkpt lat="42.2918578" lon="14.1195202"><ele>203.0</ele><time>2026-05-01T14:22:12.334Z</time></trkpt><trkpt lat="42.2919384" lon="14.1195389"><ele>206.0</ele><time>2026-05-01T14:22:14.29Z</time></trkpt><trkpt lat="42.2920036" lon="14.1195259"><ele>209.0</ele><time>2026-05-01T14:22:15.28Z</time></trkpt><trkpt lat="42.2920943" lon="14.1194859"><ele>212.00000000000003</ele><time>2026-05-01T14:22:17.28Z</time></trkpt><trkpt lat="42.2921705" lon="14.11945"><ele>215.0</ele><time>2026-05-01T14:22:19.229Z</time></trkpt><trkpt lat="42.2922609" lon="14.1194092"><ele>218.0</ele><time>2026-05-01T14:22:21.207Z</time></trkpt><trkpt lat="42.2923562" lon="14.1193163"><ele>221.0</ele><time>2026-05-01T14:22:23.28Z</time></trkpt><trkpt lat="42.2924572" lon="14.1192471"><ele>224.0</ele><time>2026-05-01T14:22:25.28Z</time></trkpt><trkpt lat="42.2925383" lon="14.1191827"><ele>227.0</ele><time>2026-05-01T14:22:27.28Z</time></trkpt><trkpt lat="42.2926126" lon="14.1190996"><ele>230.0</ele><time>2026-05-01T14:22:29.28Z</time></trkpt><trkpt lat="42.2926971" lon="14.1189979"><ele>233.4</ele><time>2026-05-01T14:22:31.28Z</time></trkpt><trkpt lat="42.2927741" lon="14.1189097"><ele>236.8</ele><time>2026-05-01T14:22:33.28Z</time></trkpt><trkpt lat="42.2928515" lon="14.118824"><ele>240.2</ele><time>2026-05-01T14:22:35.28Z</time></trkpt><trkpt lat="42.2929425" lon="14.1187368"><ele>243.6</ele><time>2026-05-01T14:22:37.28Z</time></trkpt><trkpt lat="42.2930224" lon="14.1186683"><ele>247.0</ele><time>2026-05-01T14:22:39.28Z</time></trkpt><trkpt lat="42.2930624" lon="14.1185905"><ele>246.99999999999997</ele><time>2026-05-01T14:22:41.28Z</time></trkpt><trkpt lat="42.2930494" lon="14.1184738"><ele>247.0</ele><time>2026-05-01T14:22:43.28Z</time></trkpt><trkpt lat="42.2930105" lon="14.1183249"><ele>247.0</ele><time>2026-05-01T14:22:45.28Z</time></trkpt><trkpt lat="42.292985" lon="14.1182317"><ele>247.0</ele><time>2026-05-01T14:22:47.28Z</time></trkpt><trkpt lat="42.292915" lon="14.1181267"><ele>246.99999999999997</ele><time>2026-05-01T14:22:56.28Z</time></trkpt><trkpt lat="42.292855" lon="14.1181"><ele>247.0</ele><time>2026-05-01T14:22:57.28Z</time></trkpt><trkpt lat="42.2927817" lon="14.1180717"><ele>246.16666666666666</ele><time>2026-05-01T14:22:58.28Z</time></trkpt><trkpt lat="42.2927083" lon="14.118045"><ele>245.33333333333331</ele><time>2026-05-01T14:22:59.28Z</time></trkpt><trkpt lat="42.2926367" lon="14.1180183"><ele>244.5</ele><time>2026-05-01T14:23:00.28Z</time></trkpt><trkpt lat="42.2925617" lon="14.11799"><ele>243.66666666666669</ele><time>2026-05-01T14:23:01.28Z</time></trkpt><trkpt lat="42.29249" lon="14.1179533"><ele>242.83333333333334</ele><time>2026-05-01T14:23:02.28Z</time></trkpt><trkpt lat="42.2924217" lon="14.1179017"><ele>242.0</ele><time>2026-05-01T14:23:03.281Z</time></trkpt><trkpt lat="42.2923767" lon="14.117835"><ele>242.00000000000003</ele><time>2026-05-01T14:23:04.28Z</time></trkpt><trkpt lat="42.29236" lon="14.1177483"><ele>242.0</ele><time>2026-05-01T14:23:05.28Z</time></trkpt><trkpt lat="42.2923733" lon="14.1176583"><ele>242.0</ele><time>2026-05-01T14:23:06.28Z</time></trkpt><trkpt lat="42.292415" lon="14.11759"><ele>242.0</ele><time>2026-05-01T14:23:07.28Z</time></trkpt><trkpt lat="42.292535" lon="14.11756"><ele>242.00000000000003</ele><time>2026-05-01T14:23:09.28Z</time></trkpt><trkpt lat="42.2926083" lon="14.11759"><ele>242.0</ele><time>2026-05-01T14:23:10.28Z</time></trkpt><trkpt lat="42.29268" lon="14.1176417"><ele>242.0</ele><time>2026-05-01T14:23:11.28Z</time></trkpt><trkpt lat="42.2927467" lon="14.1176983"><ele>241.99999999999997</ele><time>2026-05-01T14:23:12.28Z</time></trkpt><trkpt lat="42.2928117" lon="14.1177517"><ele>242.0</ele><time>2026-05-01T14:23:13.28Z</time></trkpt><trkpt lat="42.2928733" lon="14.1177933"><ele>242.0</ele><time>2026-05-01T14:23:14.28Z</time></trkpt><trkpt lat="42.2929367" lon="14.117825"><ele>241.99999999999997</ele><time>2026-05-01T14:23:15.28Z</time></trkpt><trkpt lat="42.293" lon="14.117845"><ele>242.0</ele><time>2026-05-01T14:23:16.28Z</time></trkpt><trkpt lat="42.2930667" lon="14.1178367"><ele>242.0</ele><time>2026-05-01T14:23:17.28Z</time></trkpt><trkpt lat="42.29315" lon="14.1177483"><ele>242.00000000000003</ele><time>2026-05-01T14:23:19.281Z</time></trkpt><trkpt lat="42.29314" lon="14.117655"><ele>242.0</ele><time>2026-05-01T14:23:20.28Z</time></trkpt><trkpt lat="42.2931033" lon="14.1175767"><ele>242.0</ele><time>2026-05-01T14:23:21.28Z</time></trkpt><trkpt lat="42.293045" lon="14.1175"><ele>242.0</ele><time>2026-05-01T14:23:22.28Z</time></trkpt><trkpt lat="42.29296" lon="14.117415"><ele>242.00000000000003</ele><time>2026-05-01T14:23:23.28Z</time></trkpt><trkpt lat="42.2928717" lon="14.1173217"><ele>242.0</ele><time>2026-05-01T14:23:24.28Z</time></trkpt><trkpt lat="42.2927917" lon="14.117225"><ele>239.39999999999998</ele><time>2026-05-01T14:23:25.28Z</time></trkpt><trkpt lat="42.2927267" lon="14.1171217"><ele>236.79999999999998</ele><time>2026-05-01T14:23:26.28Z</time></trkpt><trkpt lat="42.2926667" lon="14.11701"><ele>234.2</ele><time>2026-05-01T14:23:27.28Z</time></trkpt><trkpt lat="42.2926033" lon="14.1168883"><ele>231.6</ele><time>2026-05-01T14:23:28.28Z</time></trkpt><trkpt lat="42.2925367" lon="14.1167617"><ele>229.0</ele><time>2026-05-01T14:23:29.28Z</time></trkpt><trkpt lat="42.292475" lon="14.116645"><ele>225.5</ele><time>2026-05-01T14:23:30.28Z</time></trkpt><trkpt lat="42.2924067" lon="14.1165367"><ele>222.0</ele><time>2026-05-01T14:23:31.28Z</time></trkpt><trkpt lat="42.2923267" lon="14.1164233"><ele>218.5</ele><time>2026-05-01T14:23:32.28Z</time></trkpt><trkpt lat="42.2922283" lon="14.1162967"><ele>215.0</ele><time>2026-05-01T14:23:33.28Z</time></trkpt><trkpt lat="42.2921167" lon="14.11616"><ele>215.0</ele><time>2026-05-01T14:23:34.28Z</time></trkpt><trkpt lat="42.2919917" lon="14.1160033"><ele>215.0</ele><time>2026-05-01T14:23:35.28Z</time></trkpt><trkpt lat="42.2918633" lon="14.1158267"><ele>215.0</ele><time>2026-05-01T14:23:36.28Z</time></trkpt><trkpt lat="42.2917317" lon="14.1156467"><ele>214.0</ele><time>2026-05-01T14:23:37.28Z</time></trkpt><trkpt lat="42.2916133" lon="14.1154633"><ele>213.0</ele><time>2026-05-01T14:23:38.281Z</time></trkpt><trkpt lat="42.2915067" lon="14.11529"><ele>212.0</ele><time>2026-05-01T14:23:39.28Z</time></trkpt><trkpt lat="42.2914133" lon="14.1151333"><ele>212.0</ele><time>2026-05-01T14:23:40.281Z</time></trkpt><trkpt lat="42.2913317" lon="14.11498"><ele>212.0</ele><time>2026-05-01T14:23:41.28Z</time></trkpt><trkpt lat="42.2912667" lon="14.1148183"><ele>212.0</ele><time>2026-05-01T14:23:42.281Z</time></trkpt><trkpt lat="42.291185" lon="14.11466"><ele>212.0</ele><time>2026-05-01T14:23:43.28Z</time></trkpt><trkpt lat="42.2911017" lon="14.1145033"><ele>212.66666666666669</ele><time>2026-05-01T14:23:44.28Z</time></trkpt><trkpt lat="42.2910217" lon="14.1143283"><ele>213.33333333333331</ele><time>2026-05-01T14:23:45.28Z</time></trkpt><trkpt lat="42.290945" lon="14.1141517"><ele>214.0</ele><time>2026-05-01T14:23:46.28Z</time></trkpt><trkpt lat="42.2908633" lon="14.1139683"><ele>214.0</ele><time>2026-05-01T14:23:47.28Z</time></trkpt><trkpt lat="42.2907833" lon="14.113785"><ele>214.0</ele><time>2026-05-01T14:23:48.28Z</time></trkpt><trkpt lat="42.2907017" lon="14.1136017"><ele>214.0</ele><time>2026-05-01T14:23:49.28Z</time></trkpt><trkpt lat="42.2906233" lon="14.113425"><ele>217.33333333333331</ele><time>2026-05-01T14:23:50.28Z</time></trkpt><trkpt lat="42.2905483" lon="14.1132317"><ele>220.66666666666669</ele><time>2026-05-01T14:23:51.281Z</time></trkpt><trkpt lat="42.2904833" lon="14.1130383"><ele>224.0</ele><time>2026-05-01T14:23:52.28Z</time></trkpt><trkpt lat="42.2904317" lon="14.112835"><ele>224.0</ele><time>2026-05-01T14:23:53.28Z</time></trkpt><trkpt lat="42.2903783" lon="14.1126283"><ele>224.0</ele><time>2026-05-01T14:23:54.28Z</time></trkpt><trkpt lat="42.2903233" lon="14.112415"><ele>224.0</ele><time>2026-05-01T14:23:55.28Z</time></trkpt><trkpt lat="42.290275" lon="14.1122033"><ele>222.33333333333334</ele><time>2026-05-01T14:23:56.28Z</time></trkpt><trkpt lat="42.2902333" lon="14.1119933"><ele>220.66666666666669</ele><time>2026-05-01T14:23:57.281Z</time></trkpt><trkpt lat="42.2901967" lon="14.1117783"><ele>219.0</ele><time>2026-05-01T14:23:58.28Z</time></trkpt><trkpt lat="42.29016" lon="14.111575"><ele>217.25</ele><time>2026-05-01T14:23:59.28Z</time></trkpt><trkpt lat="42.2901367" lon="14.111375"><ele>215.5</ele><time>2026-05-01T14:24:00.28Z</time></trkpt><trkpt lat="42.2901333" lon="14.1111817"><ele>213.75</ele><time>2026-05-01T14:24:01.28Z</time></trkpt><trkpt lat="42.2901517" lon="14.1110233"><ele>212.0</ele><time>2026-05-01T14:24:02.28Z</time></trkpt><trkpt lat="42.29019" lon="14.11086"><ele>209.25</ele><time>2026-05-01T14:24:03.28Z</time></trkpt><trkpt lat="42.290245" lon="14.1106983"><ele>206.5</ele><time>2026-05-01T14:24:04.28Z</time></trkpt><trkpt lat="42.290295" lon="14.1105417"><ele>203.75</ele><time>2026-05-01T14:24:05.28Z</time></trkpt><trkpt lat="42.290365" lon="14.1104033"><ele>201.0</ele><time>2026-05-01T14:24:06.281Z</time></trkpt><trkpt lat="42.2904567" lon="14.1102883"><ele>201.0</ele><time>2026-05-01T14:24:07.28Z</time></trkpt><trkpt lat="42.290575" lon="14.11019"><ele>201.0</ele><time>2026-05-01T14:24:08.28Z</time></trkpt><trkpt lat="42.2906983" lon="14.1100933"><ele>201.0</ele><time>2026-05-01T14:24:09.281Z</time></trkpt><trkpt lat="42.29083" lon="14.1099717"><ele>201.0</ele><time>2026-05-01T14:24:10.28Z</time></trkpt><trkpt lat="42.2909633" lon="14.1098417"><ele>203.0</ele><time>2026-05-01T14:24:11.281Z</time></trkpt><trkpt lat="42.2910967" lon="14.109695"><ele>205.0</ele><time>2026-05-01T14:24:12.28Z</time></trkpt><trkpt lat="42.2912267" lon="14.1095333"><ele>207.0</ele><time>2026-05-01T14:24:13.28Z</time></trkpt><trkpt lat="42.29134" lon="14.1093983"><ele>211.25</ele><time>2026-05-01T14:24:14.28Z</time></trkpt><trkpt lat="42.291455" lon="14.1093"><ele>215.5</ele><time>2026-05-01T14:24:15.28Z</time></trkpt><trkpt lat="42.2915683" lon="14.10922"><ele>219.75</ele><time>2026-05-01T14:24:16.28Z</time></trkpt><trkpt lat="42.291675" lon="14.1091583"><ele>224.0</ele><time>2026-05-01T14:24:17.281Z</time></trkpt><trkpt lat="42.2917817" lon="14.109105"><ele>225.25</ele><time>2026-05-01T14:24:18.28Z</time></trkpt><trkpt lat="42.29189" lon="14.1090267"><ele>226.5</ele><time>2026-05-01T14:24:19.28Z</time></trkpt><trkpt lat="42.29199" lon="14.1089417"><ele>227.75</ele><time>2026-05-01T14:24:20.28Z</time></trkpt><trkpt lat="42.2920967" lon="14.1088467"><ele>229.0</ele><time>2026-05-01T14:24:21.28Z</time></trkpt><trkpt lat="42.2921933" lon="14.108735"><ele>228.5</ele><time>2026-05-01T14:24:22.28Z</time></trkpt><trkpt lat="42.2922867" lon="14.1086217"><ele>228.0</ele><time>2026-05-01T14:24:23.28Z</time></trkpt><trkpt lat="42.2923767" lon="14.1085017"><ele>227.5</ele><time>2026-05-01T14:24:24.28Z</time></trkpt><trkpt lat="42.292445" lon="14.1083667"><ele>227.0</ele><time>2026-05-01T14:24:25.28Z</time></trkpt><trkpt lat="42.292505" lon="14.108235"><ele>227.0</ele><time>2026-05-01T14:24:26.28Z</time></trkpt><trkpt lat="42.2925617" lon="14.108105"><ele>227.0</ele><time>2026-05-01T14:24:27.28Z</time></trkpt><trkpt lat="42.2926167" lon="14.1079717"><ele>227.0</ele><time>2026-05-01T14:24:28.28Z</time></trkpt><trkpt lat="42.2926833" lon="14.10782"><ele>227.0</ele><time>2026-05-01T14:24:29.28Z</time></trkpt><trkpt lat="42.2927533" lon="14.1076517"><ele>227.0</ele><time>2026-05-01T14:24:30.28Z</time></trkpt><trkpt lat="42.2928217" lon="14.10748"><ele>227.0</ele><time>2026-05-01T14:24:31.28Z</time></trkpt><trkpt lat="42.2928817" lon="14.1073067"><ele>227.0</ele><time>2026-05-01T14:24:32.28Z</time></trkpt><trkpt lat="42.2929417" lon="14.1071183"><ele>227.0</ele><time>2026-05-01T14:24:33.28Z</time></trkpt><trkpt lat="42.2930067" lon="14.1069217"><ele>228.0</ele><time>2026-05-01T14:24:34.28Z</time></trkpt><trkpt lat="42.2930717" lon="14.1067283"><ele>229.0</ele><time>2026-05-01T14:24:35.28Z</time></trkpt><trkpt lat="42.2931417" lon="14.1065433"><ele>230.0</ele><time>2026-05-01T14:24:36.28Z</time></trkpt><trkpt lat="42.2932233" lon="14.1063617"><ele>225.66666666666669</ele><time>2026-05-01T14:24:37.28Z</time></trkpt><trkpt lat="42.29331" lon="14.106175"><ele>221.33333333333331</ele><time>2026-05-01T14:24:38.28Z</time></trkpt><trkpt lat="42.2934067" lon="14.1059933"><ele>217.0</ele><time>2026-05-01T14:24:39.28Z</time></trkpt><trkpt lat="42.2935083" lon="14.1058183"><ele>218.0</ele><time>2026-05-01T14:24:40.28Z</time></trkpt><trkpt lat="42.2936233" lon="14.1056583"><ele>219.0</ele><time>2026-05-01T14:24:41.28Z</time></trkpt><trkpt lat="42.2937417" lon="14.1054983"><ele>220.0</ele><time>2026-05-01T14:24:42.28Z</time></trkpt><trkpt lat="42.2938617" lon="14.1053217"><ele>216.33333333333331</ele><time>2026-05-01T14:24:43.28Z</time></trkpt><trkpt lat="42.29398" lon="14.1051117"><ele>212.66666666666669</ele><time>2026-05-01T14:24:44.281Z</time></trkpt><trkpt lat="42.2940917" lon="14.1048883"><ele>209.0</ele><time>2026-05-01T14:24:45.28Z</time></trkpt><trkpt lat="42.2942033" lon="14.1046533"><ele>209.0</ele><time>2026-05-01T14:24:46.28Z</time></trkpt><trkpt lat="42.2943133" lon="14.1044367"><ele>209.0</ele><time>2026-05-01T14:24:47.28Z</time></trkpt><trkpt lat="42.2944183" lon="14.1042267"><ele>209.0</ele><time>2026-05-01T14:24:48.28Z</time></trkpt><trkpt lat="42.29452" lon="14.1040367"><ele>209.0</ele><time>2026-05-01T14:24:49.28Z</time></trkpt><trkpt lat="42.2946183" lon="14.10384"><ele>209.0</ele><time>2026-05-01T14:24:50.281Z</time></trkpt><trkpt lat="42.2947033" lon="14.1036517"><ele>209.0</ele><time>2026-05-01T14:24:51.28Z</time></trkpt><trkpt lat="42.294785" lon="14.1034867"><ele>207.75</ele><time>2026-05-01T14:24:52.28Z</time></trkpt><trkpt lat="42.2948633" lon="14.10332"><ele>206.5</ele><time>2026-05-01T14:24:53.281Z</time></trkpt><trkpt lat="42.2949517" lon="14.1031533"><ele>205.25</ele><time>2026-05-01T14:24:54.281Z</time></trkpt><trkpt lat="42.2950367" lon="14.102985"><ele>204.0</ele><time>2026-05-01T14:24:55.28Z</time></trkpt><trkpt lat="42.2951117" lon="14.10282"><ele>204.0</ele><time>2026-05-01T14:24:56.28Z</time></trkpt><trkpt lat="42.2952017" lon="14.1026533"><ele>204.0</ele><time>2026-05-01T14:24:57.28Z</time></trkpt><trkpt lat="42.2952883" lon="14.1024817"><ele>204.0</ele><time>2026-05-01T14:24:58.28Z</time></trkpt><trkpt lat="42.2953933" lon="14.10233"><ele>203.75</ele><time>2026-05-01T14:24:59.28Z</time></trkpt><trkpt lat="42.2955017" lon="14.102185"><ele>203.5</ele><time>2026-05-01T14:25:00.28Z</time></trkpt><trkpt lat="42.2956" lon="14.1020433"><ele>203.25</ele><time>2026-05-01T14:25:01.281Z</time></trkpt><trkpt lat="42.2957033" lon="14.10192"><ele>203.0</ele><time>2026-05-01T14:25:02.281Z</time></trkpt><trkpt lat="42.2958067" lon="14.1017983"><ele>202.75</ele><time>2026-05-01T14:25:03.28Z</time></trkpt><trkpt lat="42.29592" lon="14.10167"><ele>202.5</ele><time>2026-05-01T14:25:04.28Z</time></trkpt><trkpt lat="42.2960267" lon="14.1015267"><ele>202.25</ele><time>2026-05-01T14:25:05.28Z</time></trkpt><trkpt lat="42.2961217" lon="14.1013817"><ele>202.0</ele><time>2026-05-01T14:25:06.28Z</time></trkpt><trkpt lat="42.29622" lon="14.101235"><ele>201.5</ele><time>2026-05-01T14:25:07.28Z</time></trkpt><trkpt lat="42.2963167" lon="14.1010983"><ele>201.0</ele><time>2026-05-01T14:25:08.28Z</time></trkpt><trkpt lat="42.29641" lon="14.10096"><ele>200.5</ele><time>2026-05-01T14:25:09.28Z</time></trkpt><trkpt lat="42.2965217" lon="14.1008267"><ele>200.0</ele><time>2026-05-01T14:25:10.281Z</time></trkpt><trkpt lat="42.2966317" lon="14.1007117"><ele>200.0</ele><time>2026-05-01T14:25:11.28Z</time></trkpt><trkpt lat="42.2967483" lon="14.1006033"><ele>200.0</ele><time>2026-05-01T14:25:12.28Z</time></trkpt><trkpt lat="42.2968633" lon="14.1005033"><ele>200.0</ele><time>2026-05-01T14:25:13.28Z</time></trkpt><trkpt lat="42.29698" lon="14.1003967"><ele>200.0</ele><time>2026-05-01T14:25:14.28Z</time></trkpt><trkpt lat="42.2970883" lon="14.1002817"><ele>200.0</ele><time>2026-05-01T14:25:15.28Z</time></trkpt><trkpt lat="42.29719" lon="14.10015"><ele>200.0</ele><time>2026-05-01T14:25:16.28Z</time></trkpt><trkpt lat="42.2972867" lon="14.1000117"><ele>200.0</ele><time>2026-05-01T14:25:17.28Z</time></trkpt><trkpt lat="42.29738" lon="14.0998583"><ele>200.0</ele><time>2026-05-01T14:25:18.28Z</time></trkpt><trkpt lat="42.297465" lon="14.09968"><ele>194.66666666666669</ele><time>2026-05-01T14:25:19.28Z</time></trkpt><trkpt lat="42.2975333" lon="14.0994833"><ele>189.33333333333334</ele><time>2026-05-01T14:25:20.28Z</time></trkpt><trkpt lat="42.2975867" lon="14.0992667"><ele>184.0</ele><time>2026-05-01T14:25:21.281Z</time></trkpt><trkpt lat="42.29761" lon="14.0990333"><ele>182.33333333333334</ele><time>2026-05-01T14:25:22.28Z</time></trkpt><trkpt lat="42.2976117" lon="14.0988017"><ele>180.66666666666666</ele><time>2026-05-01T14:25:23.28Z</time></trkpt><trkpt lat="42.2976083" lon="14.0985883"><ele>179.0</ele><time>2026-05-01T14:25:24.28Z</time></trkpt><trkpt lat="42.29761" lon="14.0983867"><ele>179.2</ele><time>2026-05-01T14:25:25.28Z</time></trkpt><trkpt lat="42.297625" lon="14.09821"><ele>179.39999999999998</ele><time>2026-05-01T14:25:26.28Z</time></trkpt><trkpt lat="42.29764" lon="14.09805"><ele>179.6</ele><time>2026-05-01T14:25:27.28Z</time></trkpt><trkpt lat="42.297655" lon="14.097915"><ele>179.8</ele><time>2026-05-01T14:25:28.28Z</time></trkpt><trkpt lat="42.2976733" lon="14.0978117"><ele>180.0</ele><time>2026-05-01T14:25:29.28Z</time></trkpt><trkpt lat="42.2977133" lon="14.0976917"><ele>180.0</ele><time>2026-05-01T14:25:31.28Z</time></trkpt><trkpt lat="42.29778" lon="14.0977083"><ele>180.0</ele><time>2026-05-01T14:25:34.281Z</time></trkpt><trkpt lat="42.2977917" lon="14.09787"><ele>180.0</ele><time>2026-05-01T14:25:36.28Z</time></trkpt><trkpt lat="42.297815" lon="14.097965"><ele>180.0</ele><time>2026-05-01T14:25:37.28Z</time></trkpt><trkpt lat="42.297865" lon="14.0980467"><ele>180.0</ele><time>2026-05-01T14:25:38.28Z</time></trkpt><trkpt lat="42.2979267" lon="14.0980933"><ele>180.0</ele><time>2026-05-01T14:25:39.28Z</time></trkpt><trkpt lat="42.2979933" lon="14.098125"><ele>180.0</ele><time>2026-05-01T14:25:40.28Z</time></trkpt><trkpt lat="42.298065" lon="14.09816"><ele>180.0</ele><time>2026-05-01T14:25:41.28Z</time></trkpt><trkpt lat="42.2981267" lon="14.0982133"><ele>180.0</ele><time>2026-05-01T14:25:42.28Z</time></trkpt><trkpt lat="42.29818" lon="14.0982817"><ele>180.0</ele><time>2026-05-01T14:25:43.28Z</time></trkpt><trkpt lat="42.2982417" lon="14.098355"><ele>180.0</ele><time>2026-05-01T14:25:44.28Z</time></trkpt><trkpt lat="42.2983033" lon="14.0984183"><ele>180.0</ele><time>2026-05-01T14:25:45.28Z</time></trkpt><trkpt lat="42.298375" lon="14.0984617"><ele>176.0</ele><time>2026-05-01T14:25:46.28Z</time></trkpt><trkpt lat="42.298455" lon="14.098515"><ele>172.0</ele><time>2026-05-01T14:25:47.28Z</time></trkpt><trkpt lat="42.2985367" lon="14.0985667"><ele>168.0</ele><time>2026-05-01T14:25:48.28Z</time></trkpt><trkpt lat="42.2986167" lon="14.0986033"><ele>164.0</ele><time>2026-05-01T14:25:49.28Z</time></trkpt><trkpt lat="42.2987167" lon="14.0986333"><ele>160.0</ele><time>2026-05-01T14:25:50.28Z</time></trkpt><trkpt lat="42.2988133" lon="14.098665"><ele>154.75</ele><time>2026-05-01T14:25:51.28Z</time></trkpt><trkpt lat="42.29892" lon="14.0986883"><ele>149.5</ele><time>2026-05-01T14:25:52.28Z</time></trkpt><trkpt lat="42.2990333" lon="14.0987167"><ele>144.25</ele><time>2026-05-01T14:25:53.28Z</time></trkpt><trkpt lat="42.299155" lon="14.098745"><ele>139.0</ele><time>2026-05-01T14:25:54.28Z</time></trkpt><trkpt lat="42.2992883" lon="14.09877"><ele>139.0</ele><time>2026-05-01T14:25:55.28Z</time></trkpt><trkpt lat="42.299415" lon="14.098775"><ele>139.0</ele><time>2026-05-01T14:25:56.28Z</time></trkpt><trkpt lat="42.299535" lon="14.0987717"><ele>139.0</ele><time>2026-05-01T14:25:57.28Z</time></trkpt><trkpt lat="42.2996617" lon="14.0987633"><ele>139.0</ele><time>2026-05-01T14:25:58.28Z</time></trkpt><trkpt lat="42.299785" lon="14.098745"><ele>135.75</ele><time>2026-05-01T14:25:59.28Z</time></trkpt><trkpt lat="42.2998983" lon="14.0987167"><ele>132.5</ele><time>2026-05-01T14:26:00.28Z</time></trkpt><trkpt lat="42.3000133" lon="14.0986783"><ele>129.25</ele><time>2026-05-01T14:26:01.28Z</time></trkpt><trkpt lat="42.3001317" lon="14.09863"><ele>126.0</ele><time>2026-05-01T14:26:02.28Z</time></trkpt><trkpt lat="42.3002467" lon="14.0985633"><ele>126.0</ele><time>2026-05-01T14:26:03.28Z</time></trkpt><trkpt lat="42.3003583" lon="14.0984883"><ele>126.0</ele><time>2026-05-01T14:26:04.28Z</time></trkpt><trkpt lat="42.3004567" lon="14.0984167"><ele>126.0</ele><time>2026-05-01T14:26:05.28Z</time></trkpt><trkpt lat="42.3005483" lon="14.09833"><ele>126.0</ele><time>2026-05-01T14:26:06.28Z</time></trkpt><trkpt lat="42.300635" lon="14.0982367"><ele>123.0</ele><time>2026-05-01T14:26:07.28Z</time></trkpt><trkpt lat="42.3007117" lon="14.098145"><ele>120.0</ele><time>2026-05-01T14:26:08.281Z</time></trkpt><trkpt lat="42.3007817" lon="14.0980683"><ele>117.0</ele><time>2026-05-01T14:26:09.28Z</time></trkpt><trkpt lat="42.3008583" lon="14.0979967"><ele>114.0</ele><time>2026-05-01T14:26:10.28Z</time></trkpt><trkpt lat="42.30095" lon="14.0979367"><ele>111.0</ele><time>2026-05-01T14:26:11.28Z</time></trkpt><trkpt lat="42.3010533" lon="14.0978833"><ele>111.0</ele><time>2026-05-01T14:26:12.281Z</time></trkpt><trkpt lat="42.3011533" lon="14.0978467"><ele>111.0</ele><time>2026-05-01T14:26:13.28Z</time></trkpt><trkpt lat="42.30125" lon="14.097825"><ele>111.0</ele><time>2026-05-01T14:26:14.28Z</time></trkpt><trkpt lat="42.3013367" lon="14.097815"><ele>111.0</ele><time>2026-05-01T14:26:15.28Z</time></trkpt><trkpt lat="42.301415" lon="14.0978133"><ele>111.0</ele><time>2026-05-01T14:26:16.28Z</time></trkpt><trkpt lat="42.3014817" lon="14.0978167"><ele>111.0</ele><time>2026-05-01T14:26:17.28Z</time></trkpt><trkpt lat="42.3015833" lon="14.0978133"><ele>110.0</ele><time>2026-05-01T14:26:19.28Z</time></trkpt><trkpt lat="42.301665" lon="14.0977267"><ele>109.0</ele><time>2026-05-01T14:26:22.28Z</time></trkpt><trkpt lat="42.3017033" lon="14.09755"><ele>108.0</ele><time>2026-05-01T14:26:24.28Z</time></trkpt><trkpt lat="42.3017167" lon="14.0974283"><ele>107.0</ele><time>2026-05-01T14:26:25.28Z</time></trkpt><trkpt lat="42.3017367" lon="14.0972767"><ele>106.0</ele><time>2026-05-01T14:26:26.28Z</time></trkpt><trkpt lat="42.3017567" lon="14.0971083"><ele>105.75</ele><time>2026-05-01T14:26:27.28Z</time></trkpt><trkpt lat="42.30178" lon="14.0969483"><ele>105.5</ele><time>2026-05-01T14:26:28.28Z</time></trkpt><trkpt lat="42.3018067" lon="14.0967867"><ele>105.25</ele><time>2026-05-01T14:26:29.28Z</time></trkpt><trkpt lat="42.3018317" lon="14.0966183"><ele>105.0</ele><time>2026-05-01T14:26:30.28Z</time></trkpt><trkpt lat="42.3018567" lon="14.096455"><ele>105.25</ele><time>2026-05-01T14:26:31.28Z</time></trkpt><trkpt lat="42.30188" lon="14.0962883"><ele>105.5</ele><time>2026-05-01T14:26:32.28Z</time></trkpt><trkpt lat="42.3019117" lon="14.0961167"><ele>105.75</ele><time>2026-05-01T14:26:33.28Z</time></trkpt><trkpt lat="42.3019383" lon="14.0959333"><ele>106.0</ele><time>2026-05-01T14:26:34.281Z</time></trkpt><trkpt lat="42.3019617" lon="14.0957433"><ele>106.0</ele><time>2026-05-01T14:26:35.28Z</time></trkpt><trkpt lat="42.3019833" lon="14.095555"><ele>106.0</ele><time>2026-05-01T14:26:36.28Z</time></trkpt><trkpt lat="42.3020067" lon="14.0953717"><ele>106.0</ele><time>2026-05-01T14:26:37.28Z</time></trkpt><trkpt lat="42.3020267" lon="14.0952"><ele>106.0</ele><time>2026-05-01T14:26:38.28Z</time></trkpt><trkpt lat="42.30204" lon="14.0950383"><ele>105.75</ele><time>2026-05-01T14:26:39.28Z</time></trkpt><trkpt lat="42.3020467" lon="14.0948733"><ele>105.5</ele><time>2026-05-01T14:26:40.281Z</time></trkpt><trkpt lat="42.3020483" lon="14.0947117"><ele>105.25</ele><time>2026-05-01T14:26:41.28Z</time></trkpt><trkpt lat="42.3020317" lon="14.0945667"><ele>105.0</ele><time>2026-05-01T14:26:42.28Z</time></trkpt><trkpt lat="42.302005" lon="14.0944367"><ele>105.0</ele><time>2026-05-01T14:26:43.281Z</time></trkpt><trkpt lat="42.3019783" lon="14.0943217"><ele>105.0</ele><time>2026-05-01T14:26:44.28Z</time></trkpt><trkpt lat="42.3019633" lon="14.0942017"><ele>105.0</ele><time>2026-05-01T14:26:45.28Z</time></trkpt><trkpt lat="42.30194" lon="14.0940683"><ele>105.0</ele><time>2026-05-01T14:26:46.28Z</time></trkpt><trkpt lat="42.3018867" lon="14.0939433"><ele>105.0</ele><time>2026-05-01T14:26:47.28Z</time></trkpt><trkpt lat="42.3018267" lon="14.0938183"><ele>105.2</ele><time>2026-05-01T14:26:48.28Z</time></trkpt><trkpt lat="42.301765" lon="14.09373"><ele>105.4</ele><time>2026-05-01T14:26:49.28Z</time></trkpt><trkpt lat="42.3017083" lon="14.0936483"><ele>105.6</ele><time>2026-05-01T14:26:50.28Z</time></trkpt><trkpt lat="42.301665" lon="14.09358"><ele>105.8</ele><time>2026-05-01T14:26:51.28Z</time></trkpt><trkpt lat="42.301645" lon="14.093435"><ele>106.0</ele><time>2026-05-01T14:26:53.28Z</time></trkpt><trkpt lat="42.3017317" lon="14.0933067"><ele>106.0</ele><time>2026-05-01T14:26:55.28Z</time></trkpt><trkpt lat="42.301805" lon="14.093265"><ele>106.0</ele><time>2026-05-01T14:26:56.281Z</time></trkpt><trkpt lat="42.301895" lon="14.0932233"><ele>106.0</ele><time>2026-05-01T14:26:57.28Z</time></trkpt><trkpt lat="42.302" lon="14.09318"><ele>106.0</ele><time>2026-05-01T14:26:58.28Z</time></trkpt><trkpt lat="42.3021167" lon="14.0931233"><ele>106.0</ele><time>2026-05-01T14:26:59.28Z</time></trkpt><trkpt lat="42.3022433" lon="14.0930683"><ele>107.8</ele><time>2026-05-01T14:27:00.28Z</time></trkpt><trkpt lat="42.302355" lon="14.0930133"><ele>109.6</ele><time>2026-05-01T14:27:01.281Z</time></trkpt><trkpt lat="42.3024567" lon="14.092965"><ele>111.4</ele><time>2026-05-01T14:27:02.28Z</time></trkpt><trkpt lat="42.30255" lon="14.0929183"><ele>113.2</ele><time>2026-05-01T14:27:03.28Z</time></trkpt><trkpt lat="42.3026433" lon="14.0928633"><ele>115.0</ele><time>2026-05-01T14:27:04.28Z</time></trkpt><trkpt lat="42.3027383" lon="14.0928033"><ele>115.0</ele><time>2026-05-01T14:27:05.28Z</time></trkpt><trkpt lat="42.3028233" lon="14.0927433"><ele>115.0</ele><time>2026-05-01T14:27:06.28Z</time></trkpt><trkpt lat="42.3029083" lon="14.09267"><ele>115.0</ele><time>2026-05-01T14:27:07.28Z</time></trkpt><trkpt lat="42.30299" lon="14.0925767"><ele>115.0</ele><time>2026-05-01T14:27:08.28Z</time></trkpt><trkpt lat="42.3030733" lon="14.092465"><ele>115.0</ele><time>2026-05-01T14:27:09.28Z</time></trkpt><trkpt lat="42.30316" lon="14.0923433"><ele>114.2</ele><time>2026-05-01T14:27:10.28Z</time></trkpt><trkpt lat="42.3032333" lon="14.092225"><ele>113.4</ele><time>2026-05-01T14:27:11.28Z</time></trkpt><trkpt lat="42.3033067" lon="14.0921133"><ele>112.6</ele><time>2026-05-01T14:27:12.28Z</time></trkpt><trkpt lat="42.3033833" lon="14.0920183"><ele>111.8</ele><time>2026-05-01T14:27:13.28Z</time></trkpt><trkpt lat="42.3034683" lon="14.0919367"><ele>111.0</ele><time>2026-05-01T14:27:14.28Z</time></trkpt><trkpt lat="42.3035617" lon="14.09186"><ele>111.0</ele><time>2026-05-01T14:27:15.28Z</time></trkpt><trkpt lat="42.30366" lon="14.0917917"><ele>111.0</ele><time>2026-05-01T14:27:16.28Z</time></trkpt><trkpt lat="42.3037617" lon="14.0917267"><ele>111.0</ele><time>2026-05-01T14:27:17.28Z</time></trkpt><trkpt lat="42.303875" lon="14.0916617"><ele>111.0</ele><time>2026-05-01T14:27:18.28Z</time></trkpt><trkpt lat="42.3039883" lon="14.0915967"><ele>111.25</ele><time>2026-05-01T14:27:19.28Z</time></trkpt><trkpt lat="42.3041117" lon="14.0915367"><ele>111.5</ele><time>2026-05-01T14:27:20.28Z</time></trkpt><trkpt lat="42.304245" lon="14.091465"><ele>111.75</ele><time>2026-05-01T14:27:21.28Z</time></trkpt><trkpt lat="42.3043767" lon="14.0913983"><ele>112.0</ele><time>2026-05-01T14:27:22.28Z</time></trkpt><trkpt lat="42.304515" lon="14.0913233"><ele>112.0</ele><time>2026-05-01T14:27:23.28Z</time></trkpt><trkpt lat="42.3046533" lon="14.09124"><ele>112.0</ele><time>2026-05-01T14:27:24.281Z</time></trkpt><trkpt lat="42.3047867" lon="14.0911583"><ele>112.0</ele><time>2026-05-01T14:27:25.28Z</time></trkpt><trkpt lat="42.3049217" lon="14.0910733"><ele>112.0</ele><time>2026-05-01T14:27:26.28Z</time></trkpt><trkpt lat="42.30505" lon="14.090995"><ele>111.0</ele><time>2026-05-01T14:27:27.281Z</time></trkpt><trkpt lat="42.3051783" lon="14.09091"><ele>110.0</ele><time>2026-05-01T14:27:28.28Z</time></trkpt><trkpt lat="42.30531" lon="14.0908267"><ele>109.0</ele><time>2026-05-01T14:27:29.28Z</time></trkpt><trkpt lat="42.30544" lon="14.0907467"><ele>108.0</ele><time>2026-05-01T14:27:30.28Z</time></trkpt><trkpt lat="42.3055467" lon="14.0906767"><ele>105.60000000000001</ele><time>2026-05-01T14:27:31.28Z</time></trkpt><trkpt lat="42.3056467" lon="14.0906133"><ele>103.20000000000002</ele><time>2026-05-01T14:27:32.28Z</time></trkpt><trkpt lat="42.3057333" lon="14.090555"><ele>100.8</ele><time>2026-05-01T14:27:33.28Z</time></trkpt><trkpt lat="42.305815" lon="14.0905083"><ele>98.4</ele><time>2026-05-01T14:27:34.28Z</time></trkpt><trkpt lat="42.3058917" lon="14.090455"><ele>96.0</ele><time>2026-05-01T14:27:35.281Z</time></trkpt><trkpt lat="42.305965" lon="14.0904067"><ele>96.0</ele><time>2026-05-01T14:27:36.28Z</time></trkpt><trkpt lat="42.3060433" lon="14.0903383"><ele>96.0</ele><time>2026-05-01T14:27:37.28Z</time></trkpt><trkpt lat="42.3061333" lon="14.0902583"><ele>96.0</ele><time>2026-05-01T14:27:38.28Z</time></trkpt><trkpt lat="42.30623" lon="14.0901517"><ele>96.0</ele><time>2026-05-01T14:27:39.28Z</time></trkpt><trkpt lat="42.3063217" lon="14.09002"><ele>96.25</ele><time>2026-05-01T14:27:40.28Z</time></trkpt><trkpt lat="42.3064033" lon="14.08986"><ele>96.5</ele><time>2026-05-01T14:27:41.28Z</time></trkpt><trkpt lat="42.3064667" lon="14.0897067"><ele>96.75</ele><time>2026-05-01T14:27:42.28Z</time></trkpt><trkpt lat="42.3065167" lon="14.08957"><ele>97.0</ele><time>2026-05-01T14:27:43.28Z</time></trkpt><trkpt lat="42.3065733" lon="14.0894533"><ele>96.33333333333334</ele><time>2026-05-01T14:27:44.28Z</time></trkpt><trkpt lat="42.3066383" lon="14.0893783"><ele>95.66666666666667</ele><time>2026-05-01T14:27:45.28Z</time></trkpt><trkpt lat="42.3067167" lon="14.08934"><ele>95.0</ele><time>2026-05-01T14:27:46.28Z</time></trkpt><trkpt lat="42.3068" lon="14.08934"><ele>94.33333333333334</ele><time>2026-05-01T14:27:47.28Z</time></trkpt><trkpt lat="42.3068867" lon="14.0893717"><ele>93.66666666666667</ele><time>2026-05-01T14:27:48.28Z</time></trkpt><trkpt lat="42.306985" lon="14.08943"><ele>93.0</ele><time>2026-05-01T14:27:49.28Z</time></trkpt><trkpt lat="42.3070883" lon="14.0895017"><ele>93.0</ele><time>2026-05-01T14:27:50.28Z</time></trkpt><trkpt lat="42.3071883" lon="14.08956"><ele>93.0</ele><time>2026-05-01T14:27:51.28Z</time></trkpt><trkpt lat="42.307275" lon="14.089595"><ele>93.0</ele><time>2026-05-01T14:27:52.28Z</time></trkpt><trkpt lat="42.3073633" lon="14.08961"><ele>93.0</ele><time>2026-05-01T14:27:53.28Z</time></trkpt><trkpt lat="42.3074433" lon="14.089615"><ele>93.0</ele><time>2026-05-01T14:27:54.28Z</time></trkpt><trkpt lat="42.3075217" lon="14.08963"><ele>93.0</ele><time>2026-05-01T14:27:55.28Z</time></trkpt><trkpt lat="42.3076117" lon="14.089655"><ele>92.75</ele><time>2026-05-01T14:27:56.281Z</time></trkpt><trkpt lat="42.3077033" lon="14.0896933"><ele>92.5</ele><time>2026-05-01T14:27:57.28Z</time></trkpt><trkpt lat="42.3078117" lon="14.0897367"><ele>92.25</ele><time>2026-05-01T14:27:58.28Z</time></trkpt><trkpt lat="42.3079283" lon="14.0897733"><ele>92.0</ele><time>2026-05-01T14:27:59.281Z</time></trkpt><trkpt lat="42.3080483" lon="14.0898183"><ele>90.75</ele><time>2026-05-01T14:28:00.28Z</time></trkpt><trkpt lat="42.3081783" lon="14.0898583"><ele>89.5</ele><time>2026-05-01T14:28:01.28Z</time></trkpt><trkpt lat="42.3083067" lon="14.0898917"><ele>88.25</ele><time>2026-05-01T14:28:02.28Z</time></trkpt><trkpt lat="42.3084317" lon="14.0899333"><ele>87.0</ele><time>2026-05-01T14:28:03.28Z</time></trkpt><trkpt lat="42.308545" lon="14.089965"><ele>86.16666666666667</ele><time>2026-05-01T14:28:04.28Z</time></trkpt><trkpt lat="42.3086417" lon="14.09"><ele>85.33333333333333</ele><time>2026-05-01T14:28:05.28Z</time></trkpt><trkpt lat="42.30872" lon="14.0900283"><ele>84.5</ele><time>2026-05-01T14:28:06.28Z</time></trkpt><trkpt lat="42.3087883" lon="14.0900567"><ele>83.66666666666666</ele><time>2026-05-01T14:28:07.28Z</time></trkpt><trkpt lat="42.3088717" lon="14.0900917"><ele>82.83333333333333</ele><time>2026-05-01T14:28:09.28Z</time></trkpt><trkpt lat="42.3089767" lon="14.0901067"><ele>82.0</ele><time>2026-05-01T14:28:15.28Z</time></trkpt><trkpt lat="42.3090617" lon="14.0901117"><ele>81.19999999999999</ele><time>2026-05-01T14:28:17.281Z</time></trkpt><trkpt lat="42.3091383" lon="14.0901917"><ele>80.39999999999999</ele><time>2026-05-01T14:28:20.28Z</time></trkpt><trkpt lat="42.30919" lon="14.0902817"><ele>79.6</ele><time>2026-05-01T14:28:22.28Z</time></trkpt><trkpt lat="42.30923" lon="14.0903983"><ele>78.8</ele><time>2026-05-01T14:28:24.28Z</time></trkpt><trkpt lat="42.30926" lon="14.09054"><ele>78.0</ele><time>2026-05-01T14:28:26.28Z</time></trkpt><trkpt lat="42.309285" lon="14.0906717"><ele>77.6</ele><time>2026-05-01T14:28:28.28Z</time></trkpt><trkpt lat="42.3093167" lon="14.0908167"><ele>77.19999999999999</ele><time>2026-05-01T14:28:30.28Z</time></trkpt><trkpt lat="42.3093817" lon="14.090925"><ele>76.8</ele><time>2026-05-01T14:28:32.28Z</time></trkpt><trkpt lat="42.30946" lon="14.0909983"><ele>76.39999999999999</ele><time>2026-05-01T14:28:34.28Z</time></trkpt><trkpt lat="42.3095317" lon="14.0910767"><ele>76.0</ele><time>2026-05-01T14:28:36.28Z</time></trkpt><trkpt lat="42.3096067" lon="14.0911667"><ele>76.0</ele><time>2026-05-01T14:28:38.28Z</time></trkpt><trkpt lat="42.3096733" lon="14.0912533"><ele>76.0</ele><time>2026-05-01T14:28:40.28Z</time></trkpt><trkpt lat="42.3097483" lon="14.0913583"><ele>76.0</ele><time>2026-05-01T14:28:42.28Z</time></trkpt><trkpt lat="42.309835" lon="14.091465"><ele>76.0</ele><time>2026-05-01T14:28:44.28Z</time></trkpt><trkpt lat="42.3099117" lon="14.0915817"><ele>76.0</ele><time>2026-05-01T14:28:46.28Z</time></trkpt><trkpt lat="42.30999" lon="14.0917133"><ele>77.42857142857143</ele><time>2026-05-01T14:28:48.28Z</time></trkpt><trkpt lat="42.31003" lon="14.091785"><ele>78.85714285714286</ele><time>2026-05-01T14:28:49.28Z</time></trkpt><trkpt lat="42.3100717" lon="14.0918633"><ele>80.28571428571429</ele><time>2026-05-01T14:28:50.28Z</time></trkpt><trkpt lat="42.3101167" lon="14.0919367"><ele>81.71428571428572</ele><time>2026-05-01T14:28:51.28Z</time></trkpt><trkpt lat="42.3101617" lon="14.0920083"><ele>83.14285714285714</ele><time>2026-05-01T14:28:52.28Z</time></trkpt><trkpt lat="42.3102133" lon="14.0920833"><ele>84.57142857142858</ele><time>2026-05-01T14:28:53.28Z</time></trkpt><trkpt lat="42.3102667" lon="14.09215"><ele>86.0</ele><time>2026-05-01T14:28:54.28Z</time></trkpt><trkpt lat="42.3103167" lon="14.092215"><ele>86.0</ele><time>2026-05-01T14:28:55.281Z</time></trkpt><trkpt lat="42.3103983" lon="14.092345"><ele>86.0</ele><time>2026-05-01T14:28:57.28Z</time></trkpt><trkpt lat="42.3104333" lon="14.0924167"><ele>86.0</ele><time>2026-05-01T14:28:58.281Z</time></trkpt><trkpt lat="42.310475" lon="14.092495"><ele>86.0</ele><time>2026-05-01T14:28:59.28Z</time></trkpt><trkpt lat="42.3105183" lon="14.092575"><ele>86.0</ele><time>2026-05-01T14:29:00.28Z</time></trkpt><trkpt lat="42.31057" lon="14.0926583"><ele>86.0</ele><time>2026-05-01T14:29:01.28Z</time></trkpt><trkpt lat="42.3106217" lon="14.0927417"><ele>87.0</ele><time>2026-05-01T14:29:02.28Z</time></trkpt><trkpt lat="42.3106733" lon="14.092825"><ele>88.0</ele><time>2026-05-01T14:29:03.28Z</time></trkpt><trkpt lat="42.3107233" lon="14.0929117"><ele>89.0</ele><time>2026-05-01T14:29:04.28Z</time></trkpt><trkpt lat="42.3107733" lon="14.0929983"><ele>90.0</ele><time>2026-05-01T14:29:05.28Z</time></trkpt><trkpt lat="42.3108267" lon="14.09308"><ele>91.0</ele><time>2026-05-01T14:29:06.28Z</time></trkpt><trkpt lat="42.3108783" lon="14.0931583"><ele>92.0</ele><time>2026-05-01T14:29:07.28Z</time></trkpt><trkpt lat="42.3109283" lon="14.0932333"><ele>92.83333333333334</ele><time>2026-05-01T14:29:08.28Z</time></trkpt><trkpt lat="42.3109783" lon="14.0933017"><ele>93.66666666666667</ele><time>2026-05-01T14:29:09.28Z</time></trkpt><trkpt lat="42.3110283" lon="14.09337"><ele>94.5</ele><time>2026-05-01T14:29:10.28Z</time></trkpt><trkpt lat="42.311085" lon="14.09344"><ele>95.33333333333334</ele><time>2026-05-01T14:29:11.28Z</time></trkpt><trkpt lat="42.31113" lon="14.09351"><ele>96.16666666666667</ele><time>2026-05-01T14:29:12.28Z</time></trkpt><trkpt lat="42.31117" lon="14.0935767"><ele>97.0</ele><time>2026-05-01T14:29:13.28Z</time></trkpt><trkpt lat="42.3112483" lon="14.0937"><ele>97.00000000000001</ele><time>2026-05-01T14:29:15.281Z</time></trkpt><trkpt lat="42.31132" lon="14.093805"><ele>97.0</ele><time>2026-05-01T14:29:17.28Z</time></trkpt><trkpt lat="42.3113783" lon="14.09389"><ele>97.0</ele><time>2026-05-01T14:29:19.28Z</time></trkpt><trkpt lat="42.311445" lon="14.0938617"><ele>97.0</ele><time>2026-05-01T14:29:22.28Z</time></trkpt><trkpt lat="42.3115" lon="14.093725"><ele>97.00000000000001</ele><time>2026-05-01T14:29:24.28Z</time></trkpt><trkpt lat="42.3115383" lon="14.0936433"><ele>97.0</ele><time>2026-05-01T14:29:25.28Z</time></trkpt><trkpt lat="42.3115733" lon="14.09356"><ele>96.83333333333334</ele><time>2026-05-01T14:29:26.28Z</time></trkpt><trkpt lat="42.3116117" lon="14.0934733"><ele>96.66666666666667</ele><time>2026-05-01T14:29:27.28Z</time></trkpt><trkpt lat="42.3116483" lon="14.09339"><ele>96.5</ele><time>2026-05-01T14:29:28.28Z</time></trkpt><trkpt lat="42.3116983" lon="14.093295"><ele>96.33333333333334</ele><time>2026-05-01T14:29:29.28Z</time></trkpt><trkpt lat="42.3117633" lon="14.0931867"><ele>96.16666666666667</ele><time>2026-05-01T14:29:30.28Z</time></trkpt><trkpt lat="42.3118283" lon="14.0930833"><ele>96.0</ele><time>2026-05-01T14:29:31.28Z</time></trkpt><trkpt lat="42.3118967" lon="14.0929733"><ele>95.19999999999999</ele><time>2026-05-01T14:29:32.28Z</time></trkpt><trkpt lat="42.3119617" lon="14.0928633"><ele>94.39999999999999</ele><time>2026-05-01T14:29:33.28Z</time></trkpt><trkpt lat="42.312025" lon="14.0927433"><ele>93.6</ele><time>2026-05-01T14:29:34.28Z</time></trkpt><trkpt lat="42.3120883" lon="14.0926233"><ele>92.8</ele><time>2026-05-01T14:29:35.28Z</time></trkpt><trkpt lat="42.31215" lon="14.0925"><ele>92.0</ele><time>2026-05-01T14:29:36.28Z</time></trkpt><trkpt lat="42.31221" lon="14.0923783"><ele>92.33333333333334</ele><time>2026-05-01T14:29:37.28Z</time></trkpt><trkpt lat="42.3122683" lon="14.0922733"><ele>92.66666666666667</ele><time>2026-05-01T14:29:38.28Z</time></trkpt><trkpt lat="42.312325" lon="14.09218"><ele>93.0</ele><time>2026-05-01T14:29:39.28Z</time></trkpt><trkpt lat="42.3123817" lon="14.092095"><ele>93.33333333333333</ele><time>2026-05-01T14:29:40.28Z</time></trkpt><trkpt lat="42.31245" lon="14.0920183"><ele>93.66666666666666</ele><time>2026-05-01T14:29:41.28Z</time></trkpt><trkpt lat="42.31252" lon="14.0919517"><ele>94.0</ele><time>2026-05-01T14:29:42.28Z</time></trkpt><trkpt lat="42.312595" lon="14.0918867"><ele>94.0</ele><time>2026-05-01T14:29:43.28Z</time></trkpt><trkpt lat="42.31268" lon="14.0918183"><ele>94.0</ele><time>2026-05-01T14:29:44.28Z</time></trkpt><trkpt lat="42.31276" lon="14.091755"><ele>94.0</ele><time>2026-05-01T14:29:45.281Z</time></trkpt><trkpt lat="42.3128367" lon="14.0916833"><ele>94.0</ele><time>2026-05-01T14:29:46.28Z</time></trkpt><trkpt lat="42.3129067" lon="14.09161"><ele>94.0</ele><time>2026-05-01T14:29:47.28Z</time></trkpt><trkpt lat="42.3129733" lon="14.091525"><ele>94.0</ele><time>2026-05-01T14:29:48.28Z</time></trkpt><trkpt lat="42.313025" lon="14.0914133"><ele>94.0</ele><time>2026-05-01T14:29:49.28Z</time></trkpt><trkpt lat="42.31306" lon="14.0912833"><ele>94.0</ele><time>2026-05-01T14:29:50.28Z</time></trkpt><trkpt lat="42.313085" lon="14.0911283"><ele>94.0</ele><time>2026-05-01T14:29:51.28Z</time></trkpt><trkpt lat="42.3131117" lon="14.0909733"><ele>94.0</ele><time>2026-05-01T14:29:52.28Z</time></trkpt><trkpt lat="42.3131383" lon="14.09083"><ele>94.0</ele><time>2026-05-01T14:29:53.281Z</time></trkpt><trkpt lat="42.3131683" lon="14.0906867"><ele>94.0</ele><time>2026-05-01T14:29:54.28Z</time></trkpt><trkpt lat="42.3131967" lon="14.0905533"><ele>94.0</ele><time>2026-05-01T14:29:55.281Z</time></trkpt><trkpt lat="42.3132167" lon="14.090415"><ele>94.0</ele><time>2026-05-01T14:29:56.28Z</time></trkpt><trkpt lat="42.313235" lon="14.09029"><ele>94.0</ele><time>2026-05-01T14:29:57.28Z</time></trkpt><trkpt lat="42.3132483" lon="14.0901633"><ele>94.0</ele><time>2026-05-01T14:29:58.28Z</time></trkpt><trkpt lat="42.3132667" lon="14.0900333"><ele>94.0</ele><time>2026-05-01T14:29:59.28Z</time></trkpt><trkpt lat="42.3132867" lon="14.0898917"><ele>94.0</ele><time>2026-05-01T14:30:00.28Z</time></trkpt><trkpt lat="42.31331" lon="14.08975"><ele>94.0</ele><time>2026-05-01T14:30:01.28Z</time></trkpt><trkpt lat="42.3133367" lon="14.0896133"><ele>94.0</ele><time>2026-05-01T14:30:02.28Z</time></trkpt><trkpt lat="42.313365" lon="14.08948"><ele>93.6</ele><time>2026-05-01T14:30:03.281Z</time></trkpt><trkpt lat="42.3133883" lon="14.0893517"><ele>93.2</ele><time>2026-05-01T14:30:04.28Z</time></trkpt><trkpt lat="42.31342" lon="14.0892233"><ele>92.8</ele><time>2026-05-01T14:30:05.28Z</time></trkpt><trkpt lat="42.3134567" lon="14.0891017"><ele>92.39999999999999</ele><time>2026-05-01T14:30:06.28Z</time></trkpt><trkpt lat="42.3134933" lon="14.0889867"><ele>92.0</ele><time>2026-05-01T14:30:07.28Z</time></trkpt><trkpt lat="42.31353" lon="14.0888717"><ele>91.6</ele><time>2026-05-01T14:30:08.28Z</time></trkpt><trkpt lat="42.313575" lon="14.08876"><ele>91.19999999999999</ele><time>2026-05-01T14:30:09.28Z</time></trkpt><trkpt lat="42.3136233" lon="14.0886467"><ele>90.8</ele><time>2026-05-01T14:30:10.28Z</time></trkpt><trkpt lat="42.3136733" lon="14.088535"><ele>90.4</ele><time>2026-05-01T14:30:11.28Z</time></trkpt><trkpt lat="42.3137283" lon="14.0884267"><ele>90.0</ele><time>2026-05-01T14:30:12.28Z</time></trkpt><trkpt lat="42.3137983" lon="14.0883233"><ele>89.4</ele><time>2026-05-01T14:30:13.28Z</time></trkpt><trkpt lat="42.3138717" lon="14.0882233"><ele>88.8</ele><time>2026-05-01T14:30:14.28Z</time></trkpt><trkpt lat="42.3139433" lon="14.0881133"><ele>88.19999999999999</ele><time>2026-05-01T14:30:15.281Z</time></trkpt><trkpt lat="42.3140217" lon="14.0880133"><ele>87.6</ele><time>2026-05-01T14:30:16.28Z</time></trkpt><trkpt lat="42.3140933" lon="14.0879133"><ele>87.0</ele><time>2026-05-01T14:30:17.28Z</time></trkpt><trkpt lat="42.3141633" lon="14.08782"><ele>86.39999999999999</ele><time>2026-05-01T14:30:18.28Z</time></trkpt><trkpt lat="42.3142317" lon="14.0877283"><ele>85.8</ele><time>2026-05-01T14:30:19.28Z</time></trkpt><trkpt lat="42.3143017" lon="14.087635"><ele>85.2</ele><time>2026-05-01T14:30:20.28Z</time></trkpt><trkpt lat="42.314375" lon="14.087545"><ele>84.6</ele><time>2026-05-01T14:30:21.28Z</time></trkpt><trkpt lat="42.3144483" lon="14.0874517"><ele>84.0</ele><time>2026-05-01T14:30:22.28Z</time></trkpt><trkpt lat="42.3145233" lon="14.0873567"><ele>83.6</ele><time>2026-05-01T14:30:23.28Z</time></trkpt><trkpt lat="42.3145967" lon="14.0872583"><ele>83.2</ele><time>2026-05-01T14:30:24.28Z</time></trkpt><trkpt lat="42.314675" lon="14.087165"><ele>82.8</ele><time>2026-05-01T14:30:25.28Z</time></trkpt><trkpt lat="42.314755" lon="14.0870817"><ele>82.39999999999999</ele><time>2026-05-01T14:30:26.28Z</time></trkpt><trkpt lat="42.3148417" lon="14.0870017"><ele>82.0</ele><time>2026-05-01T14:30:27.281Z</time></trkpt><trkpt lat="42.3149283" lon="14.086925"><ele>81.39999999999999</ele><time>2026-05-01T14:30:28.28Z</time></trkpt><trkpt lat="42.315015" lon="14.086855"><ele>80.8</ele><time>2026-05-01T14:30:29.28Z</time></trkpt><trkpt lat="42.3150967" lon="14.0868017"><ele>80.2</ele><time>2026-05-01T14:30:30.28Z</time></trkpt><trkpt lat="42.3151833" lon="14.0867583"><ele>79.6</ele><time>2026-05-01T14:30:31.28Z</time></trkpt><trkpt lat="42.31527" lon="14.086725"><ele>79.0</ele><time>2026-05-01T14:30:32.28Z</time></trkpt><trkpt lat="42.3153633" lon="14.086705"><ele>79.0</ele><time>2026-05-01T14:30:33.28Z</time></trkpt><trkpt lat="42.3154667" lon="14.0867117"><ele>79.0</ele><time>2026-05-01T14:30:34.281Z</time></trkpt><trkpt lat="42.3155783" lon="14.0867217"><ele>79.0</ele><time>2026-05-01T14:30:35.28Z</time></trkpt><trkpt lat="42.315695" lon="14.0867417"><ele>79.0</ele><time>2026-05-01T14:30:36.281Z</time></trkpt><trkpt lat="42.3158317" lon="14.0867733"><ele>79.25</ele><time>2026-05-01T14:30:37.28Z</time></trkpt><trkpt lat="42.3159667" lon="14.0867833"><ele>79.5</ele><time>2026-05-01T14:30:38.28Z</time></trkpt><trkpt lat="42.3160983" lon="14.0868017"><ele>79.75</ele><time>2026-05-01T14:30:39.28Z</time></trkpt><trkpt lat="42.3162283" lon="14.0868233"><ele>80.0</ele><time>2026-05-01T14:30:40.28Z</time></trkpt><trkpt lat="42.316345" lon="14.08686"><ele>79.25</ele><time>2026-05-01T14:30:41.28Z</time></trkpt><trkpt lat="42.316455" lon="14.0869117"><ele>78.5</ele><time>2026-05-01T14:30:42.28Z</time></trkpt><trkpt lat="42.3165583" lon="14.0869783"><ele>77.75</ele><time>2026-05-01T14:30:43.281Z</time></trkpt><trkpt lat="42.3166583" lon="14.08705"><ele>77.0</ele><time>2026-05-01T14:30:44.28Z</time></trkpt><trkpt lat="42.3167617" lon="14.087115"><ele>77.0</ele><time>2026-05-01T14:30:45.28Z</time></trkpt><trkpt lat="42.3168683" lon="14.0871717"><ele>77.0</ele><time>2026-05-01T14:30:46.28Z</time></trkpt><trkpt lat="42.3169717" lon="14.0872267"><ele>77.0</ele><time>2026-05-01T14:30:47.28Z</time></trkpt><trkpt lat="42.317075" lon="14.087285"><ele>77.0</ele><time>2026-05-01T14:30:48.28Z</time></trkpt><trkpt lat="42.317175" lon="14.0873417"><ele>77.0</ele><time>2026-05-01T14:30:49.28Z</time></trkpt><trkpt lat="42.3172717" lon="14.08739"><ele>75.33333333333334</ele><time>2026-05-01T14:30:50.281Z</time></trkpt><trkpt lat="42.3173567" lon="14.087435"><ele>73.66666666666667</ele><time>2026-05-01T14:30:51.28Z</time></trkpt><trkpt lat="42.3174317" lon="14.0874867"><ele>72.0</ele><time>2026-05-01T14:30:52.28Z</time></trkpt><trkpt lat="42.3175" lon="14.0875433"><ele>70.33333333333333</ele><time>2026-05-01T14:30:53.28Z</time></trkpt><trkpt lat="42.31757" lon="14.0875967"><ele>68.66666666666666</ele><time>2026-05-01T14:30:54.281Z</time></trkpt><trkpt lat="42.317635" lon="14.0876533"><ele>67.0</ele><time>2026-05-01T14:30:55.28Z</time></trkpt><trkpt lat="42.3177067" lon="14.0877133"><ele>67.0</ele><time>2026-05-01T14:30:56.28Z</time></trkpt><trkpt lat="42.3177733" lon="14.0877767"><ele>67.0</ele><time>2026-05-01T14:30:57.28Z</time></trkpt><trkpt lat="42.3178433" lon="14.087845"><ele>67.0</ele><time>2026-05-01T14:30:58.28Z</time></trkpt><trkpt lat="42.3179" lon="14.0879183"><ele>67.0</ele><time>2026-05-01T14:30:59.281Z</time></trkpt><trkpt lat="42.3179567" lon="14.087995"><ele>67.0</ele><time>2026-05-01T14:31:00.28Z</time></trkpt><trkpt lat="42.318015" lon="14.088075"><ele>67.0</ele><time>2026-05-01T14:31:01.28Z</time></trkpt><trkpt lat="42.318074" lon="14.0881516"><ele>66.4</ele><time>2026-05-01T14:31:02.28Z</time></trkpt><trkpt lat="42.3181413" lon="14.088219"><ele>65.80000000000001</ele><time>2026-05-01T14:31:03.28Z</time></trkpt><trkpt lat="42.3182189" lon="14.0882689"><ele>65.2</ele><time>2026-05-01T14:31:04.28Z</time></trkpt><trkpt lat="42.3183113" lon="14.0883034"><ele>64.60000000000001</ele><time>2026-05-01T14:31:05.28Z</time></trkpt><trkpt lat="42.318405" lon="14.0883192"><ele>64.0</ele><time>2026-05-01T14:31:06.28Z</time></trkpt><trkpt lat="42.3185053" lon="14.0883252"><ele>64.0</ele><time>2026-05-01T14:31:07.28Z</time></trkpt><trkpt lat="42.3186058" lon="14.0883374"><ele>64.0</ele><time>2026-05-01T14:31:08.28Z</time></trkpt><trkpt lat="42.3187078" lon="14.0883624"><ele>64.0</ele><time>2026-05-01T14:31:09.28Z</time></trkpt><trkpt lat="42.3188045" lon="14.0884045"><ele>64.0</ele><time>2026-05-01T14:31:10.28Z</time></trkpt><trkpt lat="42.3189102" lon="14.0884461"><ele>64.0</ele><time>2026-05-01T14:31:11.28Z</time></trkpt><trkpt lat="42.3190144" lon="14.0884918"><ele>63.666666666666664</ele><time>2026-05-01T14:31:12.28Z</time></trkpt><trkpt lat="42.3191176" lon="14.0885296"><ele>63.33333333333333</ele><time>2026-05-01T14:31:13.28Z</time></trkpt><trkpt lat="42.3192112" lon="14.0885577"><ele>63.0</ele><time>2026-05-01T14:31:14.28Z</time></trkpt><trkpt lat="42.3192974" lon="14.0885841"><ele>62.66666666666667</ele><time>2026-05-01T14:31:15.28Z</time></trkpt><trkpt lat="42.3193794" lon="14.0886113"><ele>62.333333333333336</ele><time>2026-05-01T14:31:16.28Z</time></trkpt><trkpt lat="42.3194424" lon="14.0886395"><ele>62.0</ele><time>2026-05-01T14:31:17.28Z</time></trkpt><trkpt lat="42.3195188" lon="14.0886464"><ele>62.0</ele><time>2026-05-01T14:31:19.28Z</time></trkpt><trkpt lat="42.3195699" lon="14.088584"><ele>62.0</ele><time>2026-05-01T14:31:21.28Z</time></trkpt><trkpt lat="42.319644" lon="14.0884294"><ele>62.0</ele><time>2026-05-01T14:31:23.28Z</time></trkpt><trkpt lat="42.3196927" lon="14.088335"><ele>62.0</ele><time>2026-05-01T14:31:24.28Z</time></trkpt><trkpt lat="42.3197517" lon="14.0882167"><ele>62.0</ele><time>2026-05-01T14:31:25.28Z</time></trkpt><trkpt lat="42.3198117" lon="14.088095"><ele>61.8</ele><time>2026-05-01T14:31:26.281Z</time></trkpt><trkpt lat="42.3198717" lon="14.0879717"><ele>61.6</ele><time>2026-05-01T14:31:27.28Z</time></trkpt><trkpt lat="42.3199333" lon="14.0878567"><ele>61.39999999999999</ele><time>2026-05-01T14:31:28.28Z</time></trkpt><trkpt lat="42.319985" lon="14.08776"><ele>61.199999999999996</ele><time>2026-05-01T14:31:29.28Z</time></trkpt><trkpt lat="42.3200367" lon="14.0876667"><ele>61.0</ele><time>2026-05-01T14:31:30.28Z</time></trkpt><trkpt lat="42.3200833" lon="14.0875783"><ele>60.99999999999999</ele><time>2026-05-01T14:31:31.28Z</time></trkpt><trkpt lat="42.3201433" lon="14.0875067"><ele>61.0</ele><time>2026-05-01T14:31:32.28Z</time></trkpt><trkpt lat="42.3202017" lon="14.0874417"><ele>61.0</ele><time>2026-05-01T14:31:33.28Z</time></trkpt><trkpt lat="42.3202567" lon="14.087385"><ele>61.0</ele><time>2026-05-01T14:31:34.28Z</time></trkpt><trkpt lat="42.320335" lon="14.08732"><ele>60.99999999999999</ele><time>2026-05-01T14:31:36.28Z</time></trkpt><trkpt lat="42.3204183" lon="14.08742"><ele>61.0</ele><time>2026-05-01T14:31:39.28Z</time></trkpt><trkpt lat="42.3204617" lon="14.0875183"><ele>61.0</ele><time>2026-05-01T14:31:40.28Z</time></trkpt><trkpt lat="42.32052" lon="14.08763"><ele>61.0</ele><time>2026-05-01T14:31:41.28Z</time></trkpt><trkpt lat="42.32059" lon="14.0877783"><ele>61.0</ele><time>2026-05-01T14:31:42.28Z</time></trkpt><trkpt lat="42.3206783" lon="14.0879683"><ele>61.0</ele><time>2026-05-01T14:31:43.28Z</time></trkpt><trkpt lat="42.3207733" lon="14.0881683"><ele>60.666666666666664</ele><time>2026-05-01T14:31:44.28Z</time></trkpt><trkpt lat="42.3208733" lon="14.0883567"><ele>60.33333333333333</ele><time>2026-05-01T14:31:45.28Z</time></trkpt><trkpt lat="42.32096" lon="14.0885417"><ele>60.0</ele><time>2026-05-01T14:31:46.28Z</time></trkpt><trkpt lat="42.321035" lon="14.0887183"><ele>60.0</ele><time>2026-05-01T14:31:47.28Z</time></trkpt><trkpt lat="42.3211167" lon="14.0888867"><ele>60.0</ele><time>2026-05-01T14:31:48.28Z</time></trkpt><trkpt lat="42.3211883" lon="14.0890517"><ele>60.0</ele><time>2026-05-01T14:31:49.28Z</time></trkpt><trkpt lat="42.3212617" lon="14.0891983"><ele>60.0</ele><time>2026-05-01T14:31:50.28Z</time></trkpt><trkpt lat="42.3213233" lon="14.089335"><ele>59.75</ele><time>2026-05-01T14:31:51.28Z</time></trkpt><trkpt lat="42.3213817" lon="14.08947"><ele>59.5</ele><time>2026-05-01T14:31:52.28Z</time></trkpt><trkpt lat="42.3214383" lon="14.0895967"><ele>59.25</ele><time>2026-05-01T14:31:53.28Z</time></trkpt><trkpt lat="42.3215" lon="14.0897183"><ele>59.0</ele><time>2026-05-01T14:31:54.281Z</time></trkpt><trkpt lat="42.3215617" lon="14.0898517"><ele>58.75</ele><time>2026-05-01T14:31:55.28Z</time></trkpt><trkpt lat="42.3216317" lon="14.089985"><ele>58.5</ele><time>2026-05-01T14:31:56.28Z</time></trkpt><trkpt lat="42.3217017" lon="14.0901267"><ele>58.25</ele><time>2026-05-01T14:31:57.28Z</time></trkpt><trkpt lat="42.3217717" lon="14.0902683"><ele>58.0</ele><time>2026-05-01T14:31:58.28Z</time></trkpt><trkpt lat="42.32184" lon="14.0904133"><ele>58.0</ele><time>2026-05-01T14:31:59.28Z</time></trkpt><trkpt lat="42.3219083" lon="14.0905717"><ele>58.0</ele><time>2026-05-01T14:32:00.28Z</time></trkpt><trkpt lat="42.3219833" lon="14.0907283"><ele>58.0</ele><time>2026-05-01T14:32:01.28Z</time></trkpt><trkpt lat="42.32206" lon="14.0908883"><ele>58.0</ele><time>2026-05-01T14:32:02.28Z</time></trkpt><trkpt lat="42.32214" lon="14.09105"><ele>58.0</ele><time>2026-05-01T14:32:03.28Z</time></trkpt><trkpt lat="42.3222167" lon="14.0912033"><ele>58.0</ele><time>2026-05-01T14:32:04.28Z</time></trkpt><trkpt lat="42.32228" lon="14.0913567"><ele>58.0</ele><time>2026-05-01T14:32:05.28Z</time></trkpt><trkpt lat="42.3223483" lon="14.0914933"><ele>58.0</ele><time>2026-05-01T14:32:06.28Z</time></trkpt><trkpt lat="42.3224117" lon="14.0916317"><ele>58.25</ele><time>2026-05-01T14:32:07.28Z</time></trkpt><trkpt lat="42.3224817" lon="14.0917767"><ele>58.5</ele><time>2026-05-01T14:32:08.28Z</time></trkpt><trkpt lat="42.3225517" lon="14.09192"><ele>58.75</ele><time>2026-05-01T14:32:09.28Z</time></trkpt><trkpt lat="42.3226117" lon="14.0920617"><ele>59.0</ele><time>2026-05-01T14:32:10.28Z</time></trkpt><trkpt lat="42.3226733" lon="14.09219"><ele>59.0</ele><time>2026-05-01T14:32:11.28Z</time></trkpt><trkpt lat="42.322735" lon="14.09231"><ele>59.00000000000001</ele><time>2026-05-01T14:32:12.28Z</time></trkpt><trkpt lat="42.3227917" lon="14.0924283"><ele>59.00000000000001</ele><time>2026-05-01T14:32:13.28Z</time></trkpt><trkpt lat="42.3228483" lon="14.0925567"><ele>59.0</ele><time>2026-05-01T14:32:14.28Z</time></trkpt><trkpt lat="42.32291" lon="14.092685"><ele>59.0</ele><time>2026-05-01T14:32:15.28Z</time></trkpt><trkpt lat="42.3229667" lon="14.0928183"><ele>58.75</ele><time>2026-05-01T14:32:16.28Z</time></trkpt><trkpt lat="42.32303" lon="14.0929583"><ele>58.5</ele><time>2026-05-01T14:32:17.28Z</time></trkpt><trkpt lat="42.3230967" lon="14.093095"><ele>58.25</ele><time>2026-05-01T14:32:18.281Z</time></trkpt><trkpt lat="42.3231683" lon="14.0932433"><ele>58.0</ele><time>2026-05-01T14:32:19.28Z</time></trkpt><trkpt lat="42.3232367" lon="14.0933917"><ele>58.0</ele><time>2026-05-01T14:32:20.28Z</time></trkpt><trkpt lat="42.3233083" lon="14.093545"><ele>58.0</ele><time>2026-05-01T14:32:21.281Z</time></trkpt><trkpt lat="42.3233733" lon="14.0936883"><ele>58.0</ele><time>2026-05-01T14:32:22.28Z</time></trkpt><trkpt lat="42.3234417" lon="14.0938333"><ele>58.0</ele><time>2026-05-01T14:32:23.28Z</time></trkpt><trkpt lat="42.3235017" lon="14.09399"><ele>58.0</ele><time>2026-05-01T14:32:24.28Z</time></trkpt><trkpt lat="42.323555" lon="14.0941467"><ele>58.0</ele><time>2026-05-01T14:32:25.28Z</time></trkpt><trkpt lat="42.3236033" lon="14.0943033"><ele>58.0</ele><time>2026-05-01T14:32:26.281Z</time></trkpt><trkpt lat="42.3236383" lon="14.0944683"><ele>58.0</ele><time>2026-05-01T14:32:27.28Z</time></trkpt><trkpt lat="42.3236817" lon="14.094635"><ele>58.0</ele><time>2026-05-01T14:32:28.28Z</time></trkpt><trkpt lat="42.3237133" lon="14.0947967"><ele>58.0</ele><time>2026-05-01T14:32:29.28Z</time></trkpt><trkpt lat="42.323745" lon="14.0949667"><ele>58.0</ele><time>2026-05-01T14:32:30.28Z</time></trkpt><trkpt lat="42.3237783" lon="14.0951217"><ele>58.0</ele><time>2026-05-01T14:32:31.28Z</time></trkpt><trkpt lat="42.3238183" lon="14.0952667"><ele>58.0</ele><time>2026-05-01T14:32:32.28Z</time></trkpt><trkpt lat="42.32385" lon="14.0954217"><ele>58.0</ele><time>2026-05-01T14:32:33.28Z</time></trkpt><trkpt lat="42.3238867" lon="14.0955883"><ele>58.0</ele><time>2026-05-01T14:32:34.28Z</time></trkpt><trkpt lat="42.3239217" lon="14.09576"><ele>58.0</ele><time>2026-05-01T14:32:35.28Z</time></trkpt><trkpt lat="42.3239617" lon="14.0959417"><ele>58.0</ele><time>2026-05-01T14:32:36.28Z</time></trkpt><trkpt lat="42.323995" lon="14.09613"><ele>58.0</ele><time>2026-05-01T14:32:37.28Z</time></trkpt><trkpt lat="42.3240267" lon="14.09632"><ele>58.0</ele><time>2026-05-01T14:32:38.28Z</time></trkpt><trkpt lat="42.324065" lon="14.09651"><ele>58.0</ele><time>2026-05-01T14:32:39.28Z</time></trkpt><trkpt lat="42.3241" lon="14.0967"><ele>58.0</ele><time>2026-05-01T14:32:40.281Z</time></trkpt><trkpt lat="42.3241433" lon="14.0968983"><ele>58.0</ele><time>2026-05-01T14:32:41.28Z</time></trkpt><trkpt lat="42.3241867" lon="14.09709"><ele>58.0</ele><time>2026-05-01T14:32:42.28Z</time></trkpt><trkpt lat="42.3242167" lon="14.0972783"><ele>58.0</ele><time>2026-05-01T14:32:43.28Z</time></trkpt><trkpt lat="42.3242517" lon="14.0974567"><ele>57.666666666666664</ele><time>2026-05-01T14:32:44.28Z</time></trkpt><trkpt lat="42.3242982" lon="14.0976403"><ele>57.33333333333333</ele><time>2026-05-01T14:32:45.28Z</time></trkpt><trkpt lat="42.3243538" lon="14.0978317"><ele>57.0</ele><time>2026-05-01T14:32:46.281Z</time></trkpt><trkpt lat="42.3244267" lon="14.0980169"><ele>57.0</ele><time>2026-05-01T14:32:47.28Z</time></trkpt><trkpt lat="42.3245134" lon="14.0981955"><ele>57.0</ele><time>2026-05-01T14:32:48.281Z</time></trkpt><trkpt lat="42.3246118" lon="14.0983741"><ele>57.0</ele><time>2026-05-01T14:32:49.28Z</time></trkpt><trkpt lat="42.3247151" lon="14.0985392"><ele>56.75</ele><time>2026-05-01T14:32:50.28Z</time></trkpt><trkpt lat="42.3248199" lon="14.0987007"><ele>56.5</ele><time>2026-05-01T14:32:51.28Z</time></trkpt><trkpt lat="42.3249165" lon="14.0988503"><ele>56.25</ele><time>2026-05-01T14:32:52.28Z</time></trkpt><trkpt lat="42.3250044" lon="14.0989999"><ele>56.0</ele><time>2026-05-01T14:32:53.28Z</time></trkpt><trkpt lat="42.3250893" lon="14.0991395"><ele>56.0</ele><time>2026-05-01T14:32:54.281Z</time></trkpt><trkpt lat="42.3251714" lon="14.099273"><ele>56.0</ele><time>2026-05-01T14:32:55.28Z</time></trkpt><trkpt lat="42.325256" lon="14.0993948"><ele>56.0</ele><time>2026-05-01T14:32:56.281Z</time></trkpt><trkpt lat="42.3253424" lon="14.0995223"><ele>56.0</ele><time>2026-05-01T14:32:57.28Z</time></trkpt><trkpt lat="42.32543" lon="14.0996473"><ele>56.0</ele><time>2026-05-01T14:32:58.28Z</time></trkpt><trkpt lat="42.3255094" lon="14.099777"><ele>56.0</ele><time>2026-05-01T14:32:59.28Z</time></trkpt><trkpt lat="42.3255881" lon="14.0999047"><ele>56.0</ele><time>2026-05-01T14:33:00.28Z</time></trkpt><trkpt lat="42.3256649" lon="14.1000313"><ele>56.0</ele><time>2026-05-01T14:33:01.28Z</time></trkpt><trkpt lat="42.3257444" lon="14.1001556"><ele>55.4</ele><time>2026-05-01T14:33:02.28Z</time></trkpt><trkpt lat="42.3258206" lon="14.1002788"><ele>54.8</ele><time>2026-05-01T14:33:03.281Z</time></trkpt><trkpt lat="42.3258995" lon="14.1003978"><ele>54.199999999999996</ele><time>2026-05-01T14:33:04.281Z</time></trkpt><trkpt lat="42.3259742" lon="14.1005085"><ele>53.599999999999994</ele><time>2026-05-01T14:33:05.28Z</time></trkpt><trkpt lat="42.326036" lon="14.1006142"><ele>53.0</ele><time>2026-05-01T14:33:06.28Z</time></trkpt><trkpt lat="42.3260851" lon="14.1007131"><ele>53.285714285714285</ele><time>2026-05-01T14:33:07.28Z</time></trkpt><trkpt lat="42.32612" lon="14.100812"><ele>53.57142857142857</ele><time>2026-05-01T14:33:08.28Z</time></trkpt><trkpt lat="42.3261394" lon="14.1009133"><ele>53.857142857142854</ele><time>2026-05-01T14:33:09.28Z</time></trkpt><trkpt lat="42.3261475" lon="14.1010086"><ele>54.14285714285714</ele><time>2026-05-01T14:33:10.28Z</time></trkpt><trkpt lat="42.3261624" lon="14.1011017"><ele>54.42857142857143</ele><time>2026-05-01T14:33:11.28Z</time></trkpt><trkpt lat="42.3262012" lon="14.1011817"><ele>54.71428571428571</ele><time>2026-05-01T14:33:12.28Z</time></trkpt><trkpt lat="42.3262499" lon="14.1012417"><ele>55.0</ele><time>2026-05-01T14:33:13.28Z</time></trkpt><trkpt lat="42.326335" lon="14.1012833"><ele>55.0</ele><time>2026-05-01T14:33:14.28Z</time></trkpt><trkpt lat="42.3264233" lon="14.10134"><ele>55.0</ele><time>2026-05-01T14:33:15.28Z</time></trkpt><trkpt lat="42.326515" lon="14.101425"><ele>55.0</ele><time>2026-05-01T14:33:16.28Z</time></trkpt><trkpt lat="42.326605" lon="14.1015367"><ele>55.0</ele><time>2026-05-01T14:33:17.28Z</time></trkpt><trkpt lat="42.3266867" lon="14.1016583"><ele>55.0</ele><time>2026-05-01T14:33:18.28Z</time></trkpt><trkpt lat="42.3267633" lon="14.1017817"><ele>55.0</ele><time>2026-05-01T14:33:19.28Z</time></trkpt><trkpt lat="42.32684" lon="14.1019083"><ele>55.0</ele><time>2026-05-01T14:33:20.28Z</time></trkpt><trkpt lat="42.3269217" lon="14.1020367"><ele>55.0</ele><time>2026-05-01T14:33:21.28Z</time></trkpt><trkpt lat="42.327" lon="14.102175"><ele>55.0</ele><time>2026-05-01T14:33:22.28Z</time></trkpt><trkpt lat="42.3270783" lon="14.102325"><ele>55.0</ele><time>2026-05-01T14:33:23.281Z</time></trkpt><trkpt lat="42.3271517" lon="14.1024783"><ele>55.0</ele><time>2026-05-01T14:33:24.28Z</time></trkpt><trkpt lat="42.327215" lon="14.102635"><ele>55.0</ele><time>2026-05-01T14:33:25.28Z</time></trkpt><trkpt lat="42.3272717" lon="14.102815"><ele>53.5</ele><time>2026-05-01T14:33:26.28Z</time></trkpt><trkpt lat="42.32733" lon="14.1029917"><ele>52.0</ele><time>2026-05-01T14:33:27.28Z</time></trkpt><trkpt lat="42.327385" lon="14.1031617"><ele>50.5</ele><time>2026-05-01T14:33:28.28Z</time></trkpt><trkpt lat="42.32744" lon="14.1033267"><ele>49.0</ele><time>2026-05-01T14:33:29.28Z</time></trkpt><trkpt lat="42.3274833" lon="14.1034783"><ele>49.0</ele><time>2026-05-01T14:33:30.281Z</time></trkpt><trkpt lat="42.327535" lon="14.1036283"><ele>49.0</ele><time>2026-05-01T14:33:31.28Z</time></trkpt><trkpt lat="42.3275783" lon="14.1037717"><ele>49.0</ele><time>2026-05-01T14:33:32.28Z</time></trkpt><trkpt lat="42.327615" lon="14.10391"><ele>49.0</ele><time>2026-05-01T14:33:33.28Z</time></trkpt><trkpt lat="42.327655" lon="14.1040383"><ele>49.0</ele><time>2026-05-01T14:33:34.28Z</time></trkpt><trkpt lat="42.3276967" lon="14.1041583"><ele>48.6</ele><time>2026-05-01T14:33:35.28Z</time></trkpt><trkpt lat="42.32774" lon="14.1042867"><ele>48.2</ele><time>2026-05-01T14:33:36.28Z</time></trkpt><trkpt lat="42.3277767" lon="14.1044167"><ele>47.800000000000004</ele><time>2026-05-01T14:33:37.28Z</time></trkpt><trkpt lat="42.327815" lon="14.1045417"><ele>47.400000000000006</ele><time>2026-05-01T14:33:38.28Z</time></trkpt><trkpt lat="42.3278533" lon="14.1046683"><ele>47.0</ele><time>2026-05-01T14:33:39.28Z</time></trkpt><trkpt lat="42.3278967" lon="14.10479"><ele>46.75</ele><time>2026-05-01T14:33:40.28Z</time></trkpt><trkpt lat="42.32794" lon="14.1049233"><ele>46.5</ele><time>2026-05-01T14:33:41.28Z</time></trkpt><trkpt lat="42.32799" lon="14.1050633"><ele>46.25</ele><time>2026-05-01T14:33:42.28Z</time></trkpt><trkpt lat="42.328035" lon="14.105215"><ele>46.0</ele><time>2026-05-01T14:33:43.28Z</time></trkpt><trkpt lat="42.3280883" lon="14.1053617"><ele>46.0</ele><time>2026-05-01T14:33:44.28Z</time></trkpt><trkpt lat="42.3281333" lon="14.1055083"><ele>46.0</ele><time>2026-05-01T14:33:45.28Z</time></trkpt><trkpt lat="42.3281733" lon="14.1056417"><ele>46.0</ele><time>2026-05-01T14:33:46.28Z</time></trkpt><trkpt lat="42.3282167" lon="14.1057733"><ele>46.0</ele><time>2026-05-01T14:33:47.28Z</time></trkpt><trkpt lat="42.3282533" lon="14.105905"><ele>46.0</ele><time>2026-05-01T14:33:48.28Z</time></trkpt><trkpt lat="42.328295" lon="14.1060317"><ele>46.0</ele><time>2026-05-01T14:33:49.28Z</time></trkpt><trkpt lat="42.3283333" lon="14.1061683"><ele>46.0</ele><time>2026-05-01T14:33:50.28Z</time></trkpt><trkpt lat="42.3283767" lon="14.1063017"><ele>46.0</ele><time>2026-05-01T14:33:51.28Z</time></trkpt><trkpt lat="42.3284233" lon="14.106445"><ele>46.0</ele><time>2026-05-01T14:33:52.28Z</time></trkpt><trkpt lat="42.3284783" lon="14.1065917"><ele>46.0</ele><time>2026-05-01T14:33:53.28Z</time></trkpt><trkpt lat="42.3285283" lon="14.1067467"><ele>46.0</ele><time>2026-05-01T14:33:54.281Z</time></trkpt><trkpt lat="42.328575" lon="14.1069067"><ele>46.0</ele><time>2026-05-01T14:33:55.28Z</time></trkpt><trkpt lat="42.328615" lon="14.1070467"><ele>46.0</ele><time>2026-05-01T14:33:56.28Z</time></trkpt><trkpt lat="42.3286533" lon="14.1071817"><ele>46.0</ele><time>2026-05-01T14:33:57.28Z</time></trkpt><trkpt lat="42.3286967" lon="14.1073233"><ele>46.0</ele><time>2026-05-01T14:33:58.28Z</time></trkpt><trkpt lat="42.32874" lon="14.1074433"><ele>46.0</ele><time>2026-05-01T14:33:59.28Z</time></trkpt><trkpt lat="42.3287733" lon="14.1075667"><ele>46.0</ele><time>2026-05-01T14:34:00.28Z</time></trkpt><trkpt lat="42.3288183" lon="14.1076833"><ele>46.0</ele><time>2026-05-01T14:34:01.28Z</time></trkpt><trkpt lat="42.32886" lon="14.107805"><ele>45.0</ele><time>2026-05-01T14:34:02.28Z</time></trkpt><trkpt lat="42.3289067" lon="14.1079367"><ele>44.0</ele><time>2026-05-01T14:34:03.281Z</time></trkpt><trkpt lat="42.32895" lon="14.1080683"><ele>43.0</ele><time>2026-05-01T14:34:04.28Z</time></trkpt><trkpt lat="42.3289967" lon="14.1082083"><ele>42.0</ele><time>2026-05-01T14:34:05.28Z</time></trkpt><trkpt lat="42.32904" lon="14.1083567"><ele>41.0</ele><time>2026-05-01T14:34:06.28Z</time></trkpt><trkpt lat="42.3290783" lon="14.1085067"><ele>41.0</ele><time>2026-05-01T14:34:07.28Z</time></trkpt><trkpt lat="42.329125" lon="14.1086567"><ele>41.0</ele><time>2026-05-01T14:34:08.28Z</time></trkpt><trkpt lat="42.3291767" lon="14.108815"><ele>41.0</ele><time>2026-05-01T14:34:09.28Z</time></trkpt><trkpt lat="42.3292267" lon="14.10897"><ele>41.0</ele><time>2026-05-01T14:34:10.28Z</time></trkpt><trkpt lat="42.3292717" lon="14.109125"><ele>41.5</ele><time>2026-05-01T14:34:11.28Z</time></trkpt><trkpt lat="42.3293183" lon="14.1092767"><ele>42.0</ele><time>2026-05-01T14:34:12.28Z</time></trkpt><trkpt lat="42.32936" lon="14.10943"><ele>42.5</ele><time>2026-05-01T14:34:13.28Z</time></trkpt><trkpt lat="42.3294017" lon="14.1095767"><ele>43.0</ele><time>2026-05-01T14:34:14.28Z</time></trkpt><trkpt lat="42.3294467" lon="14.1097233"><ele>43.0</ele><time>2026-05-01T14:34:15.28Z</time></trkpt><trkpt lat="42.3294933" lon="14.1098733"><ele>43.0</ele><time>2026-05-01T14:34:16.28Z</time></trkpt><trkpt lat="42.3295367" lon="14.11002"><ele>43.0</ele><time>2026-05-01T14:34:17.281Z</time></trkpt><trkpt lat="42.3295883" lon="14.1101583"><ele>43.0</ele><time>2026-05-01T14:34:18.28Z</time></trkpt><trkpt lat="42.3296317" lon="14.110305"><ele>43.25</ele><time>2026-05-01T14:34:19.28Z</time></trkpt><trkpt lat="42.32968" lon="14.11046"><ele>43.5</ele><time>2026-05-01T14:34:20.28Z</time></trkpt><trkpt lat="42.3297317" lon="14.1106117"><ele>43.75</ele><time>2026-05-01T14:34:21.281Z</time></trkpt><trkpt lat="42.3297867" lon="14.110775"><ele>44.0</ele><time>2026-05-01T14:34:22.28Z</time></trkpt><trkpt lat="42.329845" lon="14.1109417"><ele>43.5</ele><time>2026-05-01T14:34:23.28Z</time></trkpt><trkpt lat="42.3298933" lon="14.1110983"><ele>43.0</ele><time>2026-05-01T14:34:24.28Z</time></trkpt><trkpt lat="42.3299433" lon="14.1112533"><ele>42.5</ele><time>2026-05-01T14:34:25.28Z</time></trkpt><trkpt lat="42.3299917" lon="14.111395"><ele>42.0</ele><time>2026-05-01T14:34:26.28Z</time></trkpt><trkpt lat="42.33004" lon="14.111525"><ele>42.2</ele><time>2026-05-01T14:34:27.28Z</time></trkpt><trkpt lat="42.3300833" lon="14.1116467"><ele>42.400000000000006</ele><time>2026-05-01T14:34:28.28Z</time></trkpt><trkpt lat="42.3301233" lon="14.1117717"><ele>42.599999999999994</ele><time>2026-05-01T14:34:29.28Z</time></trkpt><trkpt lat="42.3301583" lon="14.1118967"><ele>42.8</ele><time>2026-05-01T14:34:30.28Z</time></trkpt><trkpt lat="42.330195" lon="14.112015"><ele>43.0</ele><time>2026-05-01T14:34:31.28Z</time></trkpt><trkpt lat="42.3302333" lon="14.1121333"><ele>43.0</ele><time>2026-05-01T14:34:32.281Z</time></trkpt><trkpt lat="42.330275" lon="14.1122517"><ele>43.0</ele><time>2026-05-01T14:34:33.28Z</time></trkpt><trkpt lat="42.3303067" lon="14.11238"><ele>43.0</ele><time>2026-05-01T14:34:34.281Z</time></trkpt><trkpt lat="42.3303417" lon="14.11251"><ele>43.0</ele><time>2026-05-01T14:34:35.28Z</time></trkpt><trkpt lat="42.3303767" lon="14.1126233"><ele>43.0</ele><time>2026-05-01T14:34:36.28Z</time></trkpt><trkpt lat="42.33041" lon="14.11274"><ele>43.0</ele><time>2026-05-01T14:34:37.28Z</time></trkpt><trkpt lat="42.3304383" lon="14.112855"><ele>43.0</ele><time>2026-05-01T14:34:38.28Z</time></trkpt><trkpt lat="42.3304533" lon="14.112965"><ele>43.0</ele><time>2026-05-01T14:34:39.28Z</time></trkpt><trkpt lat="42.33046" lon="14.1130717"><ele>43.0</ele><time>2026-05-01T14:34:40.28Z</time></trkpt><trkpt lat="42.3304717" lon="14.113165"><ele>43.0</ele><time>2026-05-01T14:34:41.28Z</time></trkpt><trkpt lat="42.3304983" lon="14.1132483"><ele>43.0</ele><time>2026-05-01T14:34:42.28Z</time></trkpt><trkpt lat="42.330545" lon="14.11332"><ele>42.0</ele><time>2026-05-01T14:34:43.28Z</time></trkpt><trkpt lat="42.3306133" lon="14.113405"><ele>41.0</ele><time>2026-05-01T14:34:44.28Z</time></trkpt><trkpt lat="42.3306717" lon="14.1135183"><ele>40.0</ele><time>2026-05-01T14:34:45.28Z</time></trkpt><trkpt lat="42.330725" lon="14.1136583"><ele>39.0</ele><time>2026-05-01T14:34:46.28Z</time></trkpt><trkpt lat="42.3307683" lon="14.113805"><ele>38.0</ele><time>2026-05-01T14:34:47.28Z</time></trkpt><trkpt lat="42.33081" lon="14.1139483"><ele>38.0</ele><time>2026-05-01T14:34:48.28Z</time></trkpt><trkpt lat="42.33084" lon="14.1140833"><ele>38.0</ele><time>2026-05-01T14:34:49.281Z</time></trkpt><trkpt lat="42.3308717" lon="14.1142017"><ele>38.0</ele><time>2026-05-01T14:34:50.28Z</time></trkpt><trkpt lat="42.3309" lon="14.114315"><ele>38.0</ele><time>2026-05-01T14:34:51.28Z</time></trkpt><trkpt lat="42.3309317" lon="14.1144233"><ele>38.0</ele><time>2026-05-01T14:34:52.28Z</time></trkpt><trkpt lat="42.3309683" lon="14.1145367"><ele>38.0</ele><time>2026-05-01T14:34:53.28Z</time></trkpt><trkpt lat="42.3310083" lon="14.114645"><ele>38.0</ele><time>2026-05-01T14:34:54.28Z</time></trkpt><trkpt lat="42.331045" lon="14.114775"><ele>38.0</ele><time>2026-05-01T14:34:55.28Z</time></trkpt><trkpt lat="42.3310867" lon="14.1149067"><ele>38.0</ele><time>2026-05-01T14:34:56.28Z</time></trkpt><trkpt lat="42.3311267" lon="14.11503"><ele>38.0</ele><time>2026-05-01T14:34:57.28Z</time></trkpt><trkpt lat="42.331165" lon="14.1151333"><ele>38.0</ele><time>2026-05-01T14:34:58.28Z</time></trkpt><trkpt lat="42.3311983" lon="14.1152467"><ele>38.0</ele><time>2026-05-01T14:34:59.28Z</time></trkpt><trkpt lat="42.3312383" lon="14.115365"><ele>38.0</ele><time>2026-05-01T14:35:00.28Z</time></trkpt><trkpt lat="42.3312783" lon="14.1154867"><ele>38.0</ele><time>2026-05-01T14:35:01.28Z</time></trkpt><trkpt lat="42.3313167" lon="14.11562"><ele>38.0</ele><time>2026-05-01T14:35:02.28Z</time></trkpt><trkpt lat="42.3313583" lon="14.1157533"><ele>38.0</ele><time>2026-05-01T14:35:03.28Z</time></trkpt><trkpt lat="42.3313983" lon="14.115885"><ele>38.0</ele><time>2026-05-01T14:35:04.28Z</time></trkpt><trkpt lat="42.331435" lon="14.1160017"><ele>38.0</ele><time>2026-05-01T14:35:05.28Z</time></trkpt><trkpt lat="42.331475" lon="14.11612"><ele>38.0</ele><time>2026-05-01T14:35:06.28Z</time></trkpt><trkpt lat="42.3315017" lon="14.116235"><ele>38.0</ele><time>2026-05-01T14:35:07.28Z</time></trkpt><trkpt lat="42.3315333" lon="14.1163533"><ele>38.0</ele><time>2026-05-01T14:35:08.28Z</time></trkpt><trkpt lat="42.33158" lon="14.1164733"><ele>38.0</ele><time>2026-05-01T14:35:09.28Z</time></trkpt><trkpt lat="42.3316217" lon="14.1165933"><ele>38.0</ele><time>2026-05-01T14:35:10.28Z</time></trkpt><trkpt lat="42.331665" lon="14.1167183"><ele>38.0</ele><time>2026-05-01T14:35:11.28Z</time></trkpt><trkpt lat="42.331705" lon="14.116835"><ele>38.0</ele><time>2026-05-01T14:35:12.28Z</time></trkpt><trkpt lat="42.331735" lon="14.1169567"><ele>38.0</ele><time>2026-05-01T14:35:13.28Z</time></trkpt><trkpt lat="42.3317733" lon="14.11707"><ele>38.0</ele><time>2026-05-01T14:35:14.28Z</time></trkpt><trkpt lat="42.3318067" lon="14.1172"><ele>38.0</ele><time>2026-05-01T14:35:15.28Z</time></trkpt><trkpt lat="42.33185" lon="14.117325"><ele>38.0</ele><time>2026-05-01T14:35:16.28Z</time></trkpt><trkpt lat="42.331895" lon="14.11745"><ele>38.0</ele><time>2026-05-01T14:35:17.28Z</time></trkpt><trkpt lat="42.3319333" lon="14.11757"><ele>38.4</ele><time>2026-05-01T14:35:18.28Z</time></trkpt><trkpt lat="42.3319683" lon="14.1177033"><ele>38.8</ele><time>2026-05-01T14:35:19.28Z</time></trkpt><trkpt lat="42.3320067" lon="14.11783"><ele>39.2</ele><time>2026-05-01T14:35:20.281Z</time></trkpt><trkpt lat="42.3320483" lon="14.117955"><ele>39.6</ele><time>2026-05-01T14:35:21.28Z</time></trkpt><trkpt lat="42.3320883" lon="14.118085"><ele>40.0</ele><time>2026-05-01T14:35:22.28Z</time></trkpt><trkpt lat="42.3321283" lon="14.118215"><ele>40.0</ele><time>2026-05-01T14:35:23.28Z</time></trkpt><trkpt lat="42.33217" lon="14.1183383"><ele>40.0</ele><time>2026-05-01T14:35:24.28Z</time></trkpt><trkpt lat="42.3322083" lon="14.1184633"><ele>40.0</ele><time>2026-05-01T14:35:25.28Z</time></trkpt><trkpt lat="42.3322433" lon="14.11859"><ele>40.0</ele><time>2026-05-01T14:35:26.28Z</time></trkpt><trkpt lat="42.3322883" lon="14.1187167"><ele>40.0</ele><time>2026-05-01T14:35:27.281Z</time></trkpt><trkpt lat="42.3323283" lon="14.1188533"><ele>39.6</ele><time>2026-05-01T14:35:28.281Z</time></trkpt><trkpt lat="42.332375" lon="14.1189817"><ele>39.2</ele><time>2026-05-01T14:35:29.28Z</time></trkpt><trkpt lat="42.3324217" lon="14.1191083"><ele>38.8</ele><time>2026-05-01T14:35:30.28Z</time></trkpt><trkpt lat="42.3324633" lon="14.1192483"><ele>38.4</ele><time>2026-05-01T14:35:31.28Z</time></trkpt><trkpt lat="42.3325067" lon="14.1193783"><ele>38.0</ele><time>2026-05-01T14:35:32.28Z</time></trkpt><trkpt lat="42.3325483" lon="14.119505"><ele>37.8</ele><time>2026-05-01T14:35:33.28Z</time></trkpt><trkpt lat="42.3325933" lon="14.119635"><ele>37.599999999999994</ele><time>2026-05-01T14:35:34.28Z</time></trkpt><trkpt lat="42.3326367" lon="14.1197783"><ele>37.400000000000006</ele><time>2026-05-01T14:35:35.28Z</time></trkpt><trkpt lat="42.3326817" lon="14.1199167"><ele>37.2</ele><time>2026-05-01T14:35:36.28Z</time></trkpt><trkpt lat="42.33272" lon="14.12006"><ele>37.0</ele><time>2026-05-01T14:35:37.281Z</time></trkpt><trkpt lat="42.33276" lon="14.1201967"><ele>37.6</ele><time>2026-05-01T14:35:38.28Z</time></trkpt><trkpt lat="42.3328033" lon="14.12033"><ele>38.2</ele><time>2026-05-01T14:35:39.281Z</time></trkpt><trkpt lat="42.3328467" lon="14.1204717"><ele>38.8</ele><time>2026-05-01T14:35:40.28Z</time></trkpt><trkpt lat="42.3328833" lon="14.1206117"><ele>39.4</ele><time>2026-05-01T14:35:41.28Z</time></trkpt><trkpt lat="42.3329267" lon="14.1207383"><ele>40.0</ele><time>2026-05-01T14:35:42.28Z</time></trkpt><trkpt lat="42.3329733" lon="14.1208583"><ele>40.0</ele><time>2026-05-01T14:35:43.28Z</time></trkpt><trkpt lat="42.3330117" lon="14.1209717"><ele>40.0</ele><time>2026-05-01T14:35:44.28Z</time></trkpt><trkpt lat="42.33305" lon="14.1210783"><ele>40.0</ele><time>2026-05-01T14:35:45.28Z</time></trkpt><trkpt lat="42.3330783" lon="14.1211833"><ele>40.0</ele><time>2026-05-01T14:35:46.28Z</time></trkpt><trkpt lat="42.3330967" lon="14.1212683"><ele>40.0</ele><time>2026-05-01T14:35:47.28Z</time></trkpt><trkpt lat="42.333135" lon="14.1214317"><ele>40.285714285714285</ele><time>2026-05-01T14:35:49.28Z</time></trkpt><trkpt lat="42.3331633" lon="14.121515"><ele>40.57142857142857</ele><time>2026-05-01T14:35:50.28Z</time></trkpt><trkpt lat="42.3331917" lon="14.1216133"><ele>40.85714285714286</ele><time>2026-05-01T14:35:51.28Z</time></trkpt><trkpt lat="42.33322" lon="14.1216967"><ele>41.14285714285714</ele><time>2026-05-01T14:35:52.28Z</time></trkpt><trkpt lat="42.3332533" lon="14.1217933"><ele>41.42857142857143</ele><time>2026-05-01T14:35:53.28Z</time></trkpt><trkpt lat="42.3332833" lon="14.1218883"><ele>41.714285714285715</ele><time>2026-05-01T14:35:54.281Z</time></trkpt><trkpt lat="42.3333183" lon="14.1219867"><ele>42.0</ele><time>2026-05-01T14:35:55.28Z</time></trkpt><trkpt lat="42.33335" lon="14.1220967"><ele>42.0</ele><time>2026-05-01T14:35:56.28Z</time></trkpt><trkpt lat="42.33339" lon="14.1222067"><ele>42.0</ele><time>2026-05-01T14:35:57.281Z</time></trkpt><trkpt lat="42.33343" lon="14.1223267"><ele>42.0</ele><time>2026-05-01T14:35:58.281Z</time></trkpt><trkpt lat="42.3334683" lon="14.1224417"><ele>42.0</ele><time>2026-05-01T14:35:59.28Z</time></trkpt><trkpt lat="42.333505" lon="14.1225467"><ele>42.0</ele><time>2026-05-01T14:36:00.28Z</time></trkpt><trkpt lat="42.3335383" lon="14.122655"><ele>42.2</ele><time>2026-05-01T14:36:01.28Z</time></trkpt><trkpt lat="42.3335683" lon="14.1227683"><ele>42.400000000000006</ele><time>2026-05-01T14:36:02.28Z</time></trkpt><trkpt lat="42.333605" lon="14.1228883"><ele>42.599999999999994</ele><time>2026-05-01T14:36:03.28Z</time></trkpt><trkpt lat="42.3336433" lon="14.1230117"><ele>42.8</ele><time>2026-05-01T14:36:04.28Z</time></trkpt><trkpt lat="42.3336833" lon="14.1231383"><ele>43.0</ele><time>2026-05-01T14:36:05.28Z</time></trkpt><trkpt lat="42.333725" lon="14.12327"><ele>43.0</ele><time>2026-05-01T14:36:06.28Z</time></trkpt><trkpt lat="42.3337683" lon="14.1234033"><ele>43.0</ele><time>2026-05-01T14:36:07.28Z</time></trkpt><trkpt lat="42.3338133" lon="14.123545"><ele>43.0</ele><time>2026-05-01T14:36:08.28Z</time></trkpt><trkpt lat="42.33386" lon="14.1236917"><ele>43.0</ele><time>2026-05-01T14:36:09.28Z</time></trkpt><trkpt lat="42.3339083" lon="14.1238417"><ele>42.75</ele><time>2026-05-01T14:36:10.28Z</time></trkpt><trkpt lat="42.3339617" lon="14.1239967"><ele>42.5</ele><time>2026-05-01T14:36:11.28Z</time></trkpt><trkpt lat="42.3340083" lon="14.1241517"><ele>42.25</ele><time>2026-05-01T14:36:12.28Z</time></trkpt><trkpt lat="42.3340517" lon="14.12431"><ele>42.0</ele><time>2026-05-01T14:36:13.28Z</time></trkpt><trkpt lat="42.3341" lon="14.1244717"><ele>41.75</ele><time>2026-05-01T14:36:14.28Z</time></trkpt><trkpt lat="42.3341517" lon="14.12463"><ele>41.5</ele><time>2026-05-01T14:36:15.28Z</time></trkpt><trkpt lat="42.3341983" lon="14.12479"><ele>41.25</ele><time>2026-05-01T14:36:16.281Z</time></trkpt><trkpt lat="42.3342467" lon="14.124945"><ele>41.0</ele><time>2026-05-01T14:36:17.28Z</time></trkpt><trkpt lat="42.33429" lon="14.1250967"><ele>41.4</ele><time>2026-05-01T14:36:18.28Z</time></trkpt><trkpt lat="42.3343433" lon="14.1252483"><ele>41.8</ele><time>2026-05-01T14:36:19.28Z</time></trkpt><trkpt lat="42.33438" lon="14.12539"><ele>42.199999999999996</ele><time>2026-05-01T14:36:20.28Z</time></trkpt><trkpt lat="42.3344217" lon="14.1255183"><ele>42.599999999999994</ele><time>2026-05-01T14:36:21.28Z</time></trkpt><trkpt lat="42.334465" lon="14.1256483"><ele>43.0</ele><time>2026-05-01T14:36:22.28Z</time></trkpt><trkpt lat="42.3345083" lon="14.12578"><ele>43.4</ele><time>2026-05-01T14:36:23.28Z</time></trkpt><trkpt lat="42.3345433" lon="14.1259133"><ele>43.8</ele><time>2026-05-01T14:36:24.28Z</time></trkpt><trkpt lat="42.33458" lon="14.126045"><ele>44.2</ele><time>2026-05-01T14:36:25.28Z</time></trkpt><trkpt lat="42.3346217" lon="14.1261767"><ele>44.6</ele><time>2026-05-01T14:36:26.28Z</time></trkpt><trkpt lat="42.3346717" lon="14.1263117"><ele>45.0</ele><time>2026-05-01T14:36:27.28Z</time></trkpt><trkpt lat="42.3347183" lon="14.1264417"><ele>45.166666666666664</ele><time>2026-05-01T14:36:28.28Z</time></trkpt><trkpt lat="42.3347617" lon="14.1265617"><ele>45.333333333333336</ele><time>2026-05-01T14:36:29.28Z</time></trkpt><trkpt lat="42.3347917" lon="14.1266783"><ele>45.5</ele><time>2026-05-01T14:36:30.28Z</time></trkpt><trkpt lat="42.3348283" lon="14.12678"><ele>45.66666666666667</ele><time>2026-05-01T14:36:31.28Z</time></trkpt><trkpt lat="42.3348583" lon="14.1268833"><ele>45.833333333333336</ele><time>2026-05-01T14:36:32.28Z</time></trkpt><trkpt lat="42.33489" lon="14.1269867"><ele>46.0</ele><time>2026-05-01T14:36:33.28Z</time></trkpt><trkpt lat="42.3349217" lon="14.1270917"><ele>46.0</ele><time>2026-05-01T14:36:34.28Z</time></trkpt><trkpt lat="42.33495" lon="14.1271883"><ele>46.0</ele><time>2026-05-01T14:36:35.281Z</time></trkpt><trkpt lat="42.334975" lon="14.1272783"><ele>46.0</ele><time>2026-05-01T14:36:36.28Z</time></trkpt><trkpt lat="42.3350017" lon="14.1273617"><ele>46.0</ele><time>2026-05-01T14:36:37.28Z</time></trkpt><trkpt lat="42.33503" lon="14.1274517"><ele>46.0</ele><time>2026-05-01T14:36:38.281Z</time></trkpt><trkpt lat="42.3350617" lon="14.1275483"><ele>46.0</ele><time>2026-05-01T14:36:39.28Z</time></trkpt><trkpt lat="42.3350983" lon="14.1276433"><ele>46.0</ele><time>2026-05-01T14:36:40.28Z</time></trkpt><trkpt lat="42.3351283" lon="14.1277467"><ele>46.4</ele><time>2026-05-01T14:36:41.28Z</time></trkpt><trkpt lat="42.3351617" lon="14.1278483"><ele>46.8</ele><time>2026-05-01T14:36:42.28Z</time></trkpt><trkpt lat="42.33519" lon="14.12795"><ele>47.199999999999996</ele><time>2026-05-01T14:36:43.28Z</time></trkpt><trkpt lat="42.3352183" lon="14.12804"><ele>47.599999999999994</ele><time>2026-05-01T14:36:44.28Z</time></trkpt><trkpt lat="42.3352717" lon="14.1281817"><ele>48.0</ele><time>2026-05-01T14:36:46.28Z</time></trkpt><trkpt lat="42.3353117" lon="14.128325"><ele>48.2</ele><time>2026-05-01T14:36:48.28Z</time></trkpt><trkpt lat="42.335355" lon="14.1284883"><ele>48.4</ele><time>2026-05-01T14:36:50.28Z</time></trkpt><trkpt lat="42.3353867" lon="14.1285883"><ele>48.6</ele><time>2026-05-01T14:36:51.279Z</time></trkpt><trkpt lat="42.3354183" lon="14.1286817"><ele>48.800000000000004</ele><time>2026-05-01T14:36:52.28Z</time></trkpt><trkpt lat="42.3354483" lon="14.1287583"><ele>49.0</ele><time>2026-05-01T14:36:53.28Z</time></trkpt><trkpt lat="42.335495" lon="14.1288983"><ele>49.2</ele><time>2026-05-01T14:36:55.281Z</time></trkpt><trkpt lat="42.3355433" lon="14.1290667"><ele>49.400000000000006</ele><time>2026-05-01T14:36:57.28Z</time></trkpt><trkpt lat="42.33557" lon="14.1291667"><ele>49.6</ele><time>2026-05-01T14:36:58.28Z</time></trkpt><trkpt lat="42.335605" lon="14.1292717"><ele>49.8</ele><time>2026-05-01T14:36:59.28Z</time></trkpt><trkpt lat="42.3356417" lon="14.1293933"><ele>50.0</ele><time>2026-05-01T14:37:00.28Z</time></trkpt><trkpt lat="42.33568" lon="14.1295267"><ele>50.0</ele><time>2026-05-01T14:37:01.28Z</time></trkpt><trkpt lat="42.3357233" lon="14.1296683"><ele>50.0</ele><time>2026-05-01T14:37:02.28Z</time></trkpt><trkpt lat="42.3357717" lon="14.129805"><ele>50.0</ele><time>2026-05-01T14:37:03.28Z</time></trkpt><trkpt lat="42.3358117" lon="14.1299417"><ele>50.0</ele><time>2026-05-01T14:37:04.28Z</time></trkpt><trkpt lat="42.3358517" lon="14.130065"><ele>50.0</ele><time>2026-05-01T14:37:05.281Z</time></trkpt><trkpt lat="42.3358933" lon="14.1301817"><ele>50.4</ele><time>2026-05-01T14:37:06.28Z</time></trkpt><trkpt lat="42.3359267" lon="14.130295"><ele>50.8</ele><time>2026-05-01T14:37:07.28Z</time></trkpt><trkpt lat="42.3359583" lon="14.1304167"><ele>51.2</ele><time>2026-05-01T14:37:08.28Z</time></trkpt><trkpt lat="42.3359967" lon="14.13054"><ele>51.6</ele><time>2026-05-01T14:37:09.28Z</time></trkpt><trkpt lat="42.3360383" lon="14.1306717"><ele>52.0</ele><time>2026-05-01T14:37:10.28Z</time></trkpt><trkpt lat="42.33608" lon="14.1307983"><ele>52.0</ele><time>2026-05-01T14:37:11.28Z</time></trkpt><trkpt lat="42.33612" lon="14.1309167"><ele>52.0</ele><time>2026-05-01T14:37:12.28Z</time></trkpt><trkpt lat="42.336155" lon="14.1310383"><ele>52.0</ele><time>2026-05-01T14:37:13.28Z</time></trkpt><trkpt lat="42.3361917" lon="14.1311567"><ele>52.0</ele><time>2026-05-01T14:37:14.28Z</time></trkpt><trkpt lat="42.336225" lon="14.1312783"><ele>52.0</ele><time>2026-05-01T14:37:15.28Z</time></trkpt><trkpt lat="42.33626" lon="14.1314033"><ele>52.0</ele><time>2026-05-01T14:37:16.28Z</time></trkpt><trkpt lat="42.3363" lon="14.1315333"><ele>52.0</ele><time>2026-05-01T14:37:17.28Z</time></trkpt><trkpt lat="42.336345" lon="14.131655"><ele>52.0</ele><time>2026-05-01T14:37:18.28Z</time></trkpt><trkpt lat="42.3363883" lon="14.1317833"><ele>52.0</ele><time>2026-05-01T14:37:19.28Z</time></trkpt><trkpt lat="42.3364317" lon="14.1318983"><ele>52.0</ele><time>2026-05-01T14:37:20.28Z</time></trkpt><trkpt lat="42.3364783" lon="14.1320033"><ele>52.0</ele><time>2026-05-01T14:37:21.28Z</time></trkpt><trkpt lat="42.3365283" lon="14.1321083"><ele>52.0</ele><time>2026-05-01T14:37:22.28Z</time></trkpt><trkpt lat="42.3365883" lon="14.13221"><ele>52.0</ele><time>2026-05-01T14:37:23.28Z</time></trkpt><trkpt lat="42.3366517" lon="14.1323"><ele>52.0</ele><time>2026-05-01T14:37:24.281Z</time></trkpt><trkpt lat="42.3367217" lon="14.1323833"><ele>52.0</ele><time>2026-05-01T14:37:25.281Z</time></trkpt><trkpt lat="42.336785" lon="14.1324667"><ele>52.33333333333333</ele><time>2026-05-01T14:37:26.281Z</time></trkpt><trkpt lat="42.336845" lon="14.1325383"><ele>52.666666666666664</ele><time>2026-05-01T14:37:27.281Z</time></trkpt><trkpt lat="42.33691" lon="14.132595"><ele>53.0</ele><time>2026-05-01T14:37:28.28Z</time></trkpt><trkpt lat="42.336965" lon="14.1326517"><ele>53.33333333333333</ele><time>2026-05-01T14:37:29.28Z</time></trkpt><trkpt lat="42.3370183" lon="14.1326983"><ele>53.666666666666664</ele><time>2026-05-01T14:37:30.28Z</time></trkpt><trkpt lat="42.3371283" lon="14.132775"><ele>54.0</ele><time>2026-05-01T14:37:32.28Z</time></trkpt><trkpt lat="42.337195" lon="14.1328133"><ele>54.166666666666664</ele><time>2026-05-01T14:37:33.28Z</time></trkpt><trkpt lat="42.3372717" lon="14.13285"><ele>54.33333333333333</ele><time>2026-05-01T14:37:34.28Z</time></trkpt><trkpt lat="42.337355" lon="14.132885"><ele>54.5</ele><time>2026-05-01T14:37:35.28Z</time></trkpt><trkpt lat="42.3374417" lon="14.1329233"><ele>54.666666666666664</ele><time>2026-05-01T14:37:36.28Z</time></trkpt><trkpt lat="42.337525" lon="14.1329667"><ele>54.83333333333333</ele><time>2026-05-01T14:37:37.28Z</time></trkpt><trkpt lat="42.33762" lon="14.1329983"><ele>55.0</ele><time>2026-05-01T14:37:38.28Z</time></trkpt><trkpt lat="42.3377217" lon="14.1330233"><ele>54.99999999999999</ele><time>2026-05-01T14:37:39.28Z</time></trkpt><trkpt lat="42.337805" lon="14.1330467"><ele>55.0</ele><time>2026-05-01T14:37:40.28Z</time></trkpt><trkpt lat="42.3378817" lon="14.1330683"><ele>55.0</ele><time>2026-05-01T14:37:41.281Z</time></trkpt><trkpt lat="42.3379533" lon="14.1330883"><ele>55.0</ele><time>2026-05-01T14:37:42.28Z</time></trkpt><trkpt lat="42.3380233" lon="14.1331033"><ele>54.99999999999999</ele><time>2026-05-01T14:37:43.28Z</time></trkpt><trkpt lat="42.3380933" lon="14.1331233"><ele>55.0</ele><time>2026-05-01T14:37:44.281Z</time></trkpt><trkpt lat="42.3381683" lon="14.1331483"><ele>54.99999999999999</ele><time>2026-05-01T14:37:45.28Z</time></trkpt><trkpt lat="42.3382483" lon="14.1331833"><ele>55.0</ele><time>2026-05-01T14:37:46.28Z</time></trkpt><trkpt lat="42.3383267" lon="14.133205"><ele>55.0</ele><time>2026-05-01T14:37:47.28Z</time></trkpt><trkpt lat="42.338415" lon="14.1332233"><ele>55.0</ele><time>2026-05-01T14:37:48.28Z</time></trkpt><trkpt lat="42.3385033" lon="14.13325"><ele>54.99999999999999</ele><time>2026-05-01T14:37:49.281Z</time></trkpt><trkpt lat="42.3386" lon="14.13328"><ele>55.0</ele><time>2026-05-01T14:37:50.28Z</time></trkpt><trkpt lat="42.3386983" lon="14.1333167"><ele>54.99999999999999</ele><time>2026-05-01T14:37:51.28Z</time></trkpt><trkpt lat="42.33879" lon="14.13335"><ele>55.0</ele><time>2026-05-01T14:37:52.28Z</time></trkpt><trkpt lat="42.3388717" lon="14.1333783"><ele>55.0</ele><time>2026-05-01T14:37:53.28Z</time></trkpt><trkpt lat="42.3389483" lon="14.1334033"><ele>55.0</ele><time>2026-05-01T14:37:54.28Z</time></trkpt><trkpt lat="42.3390133" lon="14.13342"><ele>54.99999999999999</ele><time>2026-05-01T14:37:55.28Z</time></trkpt><trkpt lat="42.33908" lon="14.13344"><ele>55.0</ele><time>2026-05-01T14:37:56.281Z</time></trkpt><trkpt lat="42.3391433" lon="14.1334517"><ele>55.166666666666664</ele><time>2026-05-01T14:37:57.28Z</time></trkpt><trkpt lat="42.3392067" lon="14.1334683"><ele>55.33333333333333</ele><time>2026-05-01T14:37:58.28Z</time></trkpt><trkpt lat="42.3392783" lon="14.13349"><ele>55.5</ele><time>2026-05-01T14:37:59.28Z</time></trkpt><trkpt lat="42.33936" lon="14.1335117"><ele>55.66666666666667</ele><time>2026-05-01T14:38:00.28Z</time></trkpt><trkpt lat="42.339445" lon="14.133535"><ele>55.833333333333336</ele><time>2026-05-01T14:38:01.28Z</time></trkpt><trkpt lat="42.3395233" lon="14.1335533"><ele>56.0</ele><time>2026-05-01T14:38:02.28Z</time></trkpt><trkpt lat="42.3395917" lon="14.1335783"><ele>55.75</ele><time>2026-05-01T14:38:03.28Z</time></trkpt><trkpt lat="42.3397233" lon="14.13361"><ele>55.5</ele><time>2026-05-01T14:38:05.28Z</time></trkpt><trkpt lat="42.3398383" lon="14.1336583"><ele>55.25</ele><time>2026-05-01T14:38:07.28Z</time></trkpt><trkpt lat="42.3399417" lon="14.1336983"><ele>55.0</ele><time>2026-05-01T14:38:09.28Z</time></trkpt><trkpt lat="42.3400467" lon="14.1337267"><ele>54.99999999999999</ele><time>2026-05-01T14:38:11.28Z</time></trkpt><trkpt lat="42.3401367" lon="14.133745"><ele>55.0</ele><time>2026-05-01T14:38:13.28Z</time></trkpt><trkpt lat="42.3402017" lon="14.13378"><ele>55.0</ele><time>2026-05-01T14:38:15.28Z</time></trkpt><trkpt lat="42.3402783" lon="14.1338"><ele>55.0</ele><time>2026-05-01T14:38:17.281Z</time></trkpt><trkpt lat="42.3403517" lon="14.13383"><ele>54.99999999999999</ele><time>2026-05-01T14:38:19.28Z</time></trkpt><trkpt lat="42.3404283" lon="14.1338867"><ele>55.0</ele><time>2026-05-01T14:38:21.28Z</time></trkpt><trkpt lat="42.34051" lon="14.1339667"><ele>54.6</ele><time>2026-05-01T14:38:23.28Z</time></trkpt><trkpt lat="42.3405967" lon="14.1340067"><ele>54.2</ele><time>2026-05-01T14:38:25.28Z</time></trkpt><trkpt lat="42.3406883" lon="14.1339533"><ele>53.8</ele><time>2026-05-01T14:38:27.281Z</time></trkpt><trkpt lat="42.3407117" lon="14.1338217"><ele>53.4</ele><time>2026-05-01T14:38:29.28Z</time></trkpt><trkpt lat="42.3406667" lon="14.1336633"><ele>53.0</ele><time>2026-05-01T14:38:31.28Z</time></trkpt><trkpt lat="42.3406717" lon="14.1335267"><ele>53.00000000000001</ele><time>2026-05-01T14:38:33.28Z</time></trkpt><trkpt lat="42.34073" lon="14.1334133"><ele>53.0</ele><time>2026-05-01T14:38:35.28Z</time></trkpt><trkpt lat="42.3407967" lon="14.1333917"><ele>53.0</ele><time>2026-05-01T14:40:33.279Z</time></trkpt><trkpt lat="42.340765" lon="14.13347"><ele>53.0</ele><time>2026-05-01T14:40:42.279Z</time></trkpt><trkpt lat="42.340665" lon="14.1334667"><ele>53.00000000000001</ele><time>2026-05-01T14:41:26.28Z</time></trkpt><trkpt lat="42.3406183" lon="14.1333633"><ele>53.0</ele><time>2026-05-01T14:45:21.28Z</time></trkpt><trkpt lat="42.3407283" lon="14.1334217"><ele>53.00000000000001</ele><time>2026-05-01T14:47:45.28Z</time></trkpt><trkpt lat="42.3407567" lon="14.13328"><ele>53.0</ele><time>2026-05-01T14:52:40.28Z</time></trkpt><trkpt lat="42.3408167" lon="14.1331733"><ele>53.0</ele><time>2026-05-01T14:53:09.281Z</time></trkpt><trkpt lat="42.3408567" lon="14.1330983"><ele>53.0</ele><time>2026-05-01T14:53:10.28Z</time></trkpt><trkpt lat="42.340895" lon="14.133015"><ele>53.00000000000001</ele><time>2026-05-01T14:53:11.28Z</time></trkpt><trkpt lat="42.3409483" lon="14.1329333"><ele>53.0</ele><time>2026-05-01T14:53:12.28Z</time></trkpt><trkpt lat="42.341005" lon="14.1328433"><ele>52.599999999999994</ele><time>2026-05-01T14:53:13.28Z</time></trkpt><trkpt lat="42.341065" lon="14.1327533"><ele>52.199999999999996</ele><time>2026-05-01T14:53:14.28Z</time></trkpt><trkpt lat="42.341125" lon="14.1326633"><ele>51.8</ele><time>2026-05-01T14:53:15.28Z</time></trkpt><trkpt lat="42.3411867" lon="14.1325683"><ele>51.4</ele><time>2026-05-01T14:53:16.28Z</time></trkpt><trkpt lat="42.341255" lon="14.1324783"><ele>51.0</ele><time>2026-05-01T14:53:17.28Z</time></trkpt><trkpt lat="42.34132" lon="14.1323783"><ele>50.4</ele><time>2026-05-01T14:53:18.28Z</time></trkpt><trkpt lat="42.3413833" lon="14.1322633"><ele>49.8</ele><time>2026-05-01T14:53:19.28Z</time></trkpt><trkpt lat="42.3414433" lon="14.1321483"><ele>49.199999999999996</ele><time>2026-05-01T14:53:20.28Z</time></trkpt><trkpt lat="42.3414933" lon="14.1320383"><ele>48.599999999999994</ele><time>2026-05-01T14:53:21.28Z</time></trkpt><trkpt lat="42.3415367" lon="14.1319233"><ele>48.0</ele><time>2026-05-01T14:53:22.28Z</time></trkpt><trkpt lat="42.3415733" lon="14.131805"><ele>48.0</ele><time>2026-05-01T14:53:23.28Z</time></trkpt><trkpt lat="42.3416133" lon="14.1316867"><ele>48.0</ele><time>2026-05-01T14:53:24.28Z</time></trkpt><trkpt lat="42.3416433" lon="14.131575"><ele>48.0</ele><time>2026-05-01T14:53:25.28Z</time></trkpt><trkpt lat="42.341675" lon="14.13146"><ele>48.0</ele><time>2026-05-01T14:53:26.28Z</time></trkpt><trkpt lat="42.34171" lon="14.13136"><ele>48.0</ele><time>2026-05-01T14:53:27.281Z</time></trkpt><trkpt lat="42.34176" lon="14.13126"><ele>48.0</ele><time>2026-05-01T14:53:28.28Z</time></trkpt><trkpt lat="42.3418083" lon="14.1311517"><ele>47.75</ele><time>2026-05-01T14:53:29.28Z</time></trkpt><trkpt lat="42.3418367" lon="14.131025"><ele>47.5</ele><time>2026-05-01T14:53:30.28Z</time></trkpt><trkpt lat="42.34187" lon="14.1308667"><ele>47.25</ele><time>2026-05-01T14:53:31.28Z</time></trkpt><trkpt lat="42.3419067" lon="14.1306917"><ele>47.0</ele><time>2026-05-01T14:53:32.28Z</time></trkpt><trkpt lat="42.3419483" lon="14.1305283"><ele>46.83333333333333</ele><time>2026-05-01T14:53:33.28Z</time></trkpt><trkpt lat="42.3419833" lon="14.1303867"><ele>46.666666666666664</ele><time>2026-05-01T14:53:34.28Z</time></trkpt><trkpt lat="42.34201" lon="14.130265"><ele>46.5</ele><time>2026-05-01T14:53:35.28Z</time></trkpt><trkpt lat="42.3420167" lon="14.1301417"><ele>46.333333333333336</ele><time>2026-05-01T14:53:36.281Z</time></trkpt><trkpt lat="42.3420283" lon="14.130045"><ele>46.16666666666667</ele><time>2026-05-01T14:53:37.28Z</time></trkpt><trkpt lat="42.3420417" lon="14.1299433"><ele>46.0</ele><time>2026-05-01T14:53:38.28Z</time></trkpt><trkpt lat="42.3420617" lon="14.1298267"><ele>45.66666666666667</ele><time>2026-05-01T14:53:39.28Z</time></trkpt><trkpt lat="42.3421" lon="14.1297167"><ele>45.333333333333336</ele><time>2026-05-01T14:53:40.28Z</time></trkpt><trkpt lat="42.3421383" lon="14.129615"><ele>45.0</ele><time>2026-05-01T14:53:41.28Z</time></trkpt><trkpt lat="42.342175" lon="14.129515"><ele>44.666666666666664</ele><time>2026-05-01T14:53:42.28Z</time></trkpt><trkpt lat="42.3421733" lon="14.1294167"><ele>44.33333333333333</ele><time>2026-05-01T14:53:43.28Z</time></trkpt><trkpt lat="42.3421633" lon="14.1293217"><ele>44.0</ele><time>2026-05-01T14:53:44.28Z</time></trkpt><trkpt lat="42.34212" lon="14.1292333"><ele>44.0</ele><time>2026-05-01T14:53:45.28Z</time></trkpt><trkpt lat="42.3420417" lon="14.1291567"><ele>44.0</ele><time>2026-05-01T14:53:46.28Z</time></trkpt><trkpt lat="42.3419583" lon="14.1290717"><ele>44.0</ele><time>2026-05-01T14:53:47.28Z</time></trkpt><trkpt lat="42.3418883" lon="14.128965"><ele>44.0</ele><time>2026-05-01T14:53:48.281Z</time></trkpt><trkpt lat="42.3418383" lon="14.1288267"><ele>44.0</ele><time>2026-05-01T14:53:49.28Z</time></trkpt><trkpt lat="42.3417983" lon="14.128665"><ele>42.33333333333333</ele><time>2026-05-01T14:53:50.28Z</time></trkpt><trkpt lat="42.34176" lon="14.1284783"><ele>40.666666666666664</ele><time>2026-05-01T14:53:51.28Z</time></trkpt><trkpt lat="42.34172" lon="14.128255"><ele>39.0</ele><time>2026-05-01T14:53:52.28Z</time></trkpt><trkpt lat="42.3416883" lon="14.1280467"><ele>38.333333333333336</ele><time>2026-05-01T14:53:53.28Z</time></trkpt><trkpt lat="42.341655" lon="14.1278433"><ele>37.66666666666667</ele><time>2026-05-01T14:53:54.28Z</time></trkpt><trkpt lat="42.3416267" lon="14.1276417"><ele>37.0</ele><time>2026-05-01T14:53:55.28Z</time></trkpt><trkpt lat="42.341595" lon="14.1274333"><ele>36.333333333333336</ele><time>2026-05-01T14:53:56.28Z</time></trkpt><trkpt lat="42.3415633" lon="14.1272167"><ele>35.666666666666664</ele><time>2026-05-01T14:53:57.281Z</time></trkpt><trkpt lat="42.34153" lon="14.127"><ele>35.0</ele><time>2026-05-01T14:53:58.28Z</time></trkpt><trkpt lat="42.3414933" lon="14.1267833"><ele>35.0</ele><time>2026-05-01T14:53:59.28Z</time></trkpt><trkpt lat="42.341455" lon="14.1265733"><ele>35.0</ele><time>2026-05-01T14:54:00.28Z</time></trkpt><trkpt lat="42.341415" lon="14.12635"><ele>35.0</ele><time>2026-05-01T14:54:01.28Z</time></trkpt><trkpt lat="42.341375" lon="14.1261383"><ele>35.0</ele><time>2026-05-01T14:54:02.28Z</time></trkpt><trkpt lat="42.3413367" lon="14.125905"><ele>35.0</ele><time>2026-05-01T14:54:03.28Z</time></trkpt><trkpt lat="42.3412967" lon="14.1256683"><ele>35.0</ele><time>2026-05-01T14:54:04.281Z</time></trkpt><trkpt lat="42.3412583" lon="14.125425"><ele>35.0</ele><time>2026-05-01T14:54:05.28Z</time></trkpt><trkpt lat="42.3412217" lon="14.1251817"><ele>35.0</ele><time>2026-05-01T14:54:06.28Z</time></trkpt><trkpt lat="42.3411783" lon="14.1249367"><ele>35.0</ele><time>2026-05-01T14:54:07.28Z</time></trkpt><trkpt lat="42.3411317" lon="14.1246817"><ele>35.0</ele><time>2026-05-01T14:54:08.28Z</time></trkpt><trkpt lat="42.341095" lon="14.1244133"><ele>35.0</ele><time>2026-05-01T14:54:09.28Z</time></trkpt><trkpt lat="42.3410533" lon="14.12416"><ele>35.0</ele><time>2026-05-01T14:54:10.28Z</time></trkpt><trkpt lat="42.341015" lon="14.1239083"><ele>35.0</ele><time>2026-05-01T14:54:11.28Z</time></trkpt><trkpt lat="42.3409717" lon="14.123665"><ele>35.0</ele><time>2026-05-01T14:54:12.28Z</time></trkpt><trkpt lat="42.34093" lon="14.12343"><ele>35.0</ele><time>2026-05-01T14:54:13.28Z</time></trkpt><trkpt lat="42.3408867" lon="14.1232"><ele>35.0</ele><time>2026-05-01T14:54:14.281Z</time></trkpt><trkpt lat="42.34085" lon="14.1229833"><ele>35.0</ele><time>2026-05-01T14:54:15.28Z</time></trkpt><trkpt lat="42.3408117" lon="14.1227917"><ele>35.0</ele><time>2026-05-01T14:54:16.28Z</time></trkpt><trkpt lat="42.3407833" lon="14.1226"><ele>35.0</ele><time>2026-05-01T14:54:17.28Z</time></trkpt><trkpt lat="42.3407667" lon="14.1224033"><ele>35.0</ele><time>2026-05-01T14:54:18.28Z</time></trkpt><trkpt lat="42.3407717" lon="14.1222067"><ele>35.0</ele><time>2026-05-01T14:54:19.28Z</time></trkpt><trkpt lat="42.3408033" lon="14.1220117"><ele>35.0</ele><time>2026-05-01T14:54:20.28Z</time></trkpt><trkpt lat="42.3408433" lon="14.1218583"><ele>34.83333333333333</ele><time>2026-05-01T14:54:21.28Z</time></trkpt><trkpt lat="42.3408917" lon="14.1217433"><ele>34.666666666666664</ele><time>2026-05-01T14:54:22.28Z</time></trkpt><trkpt lat="42.3409467" lon="14.121665"><ele>34.5</ele><time>2026-05-01T14:54:23.28Z</time></trkpt><trkpt lat="42.3410083" lon="14.1216067"><ele>34.333333333333336</ele><time>2026-05-01T14:54:24.28Z</time></trkpt><trkpt lat="42.3410817" lon="14.12154"><ele>34.16666666666667</ele><time>2026-05-01T14:54:25.28Z</time></trkpt><trkpt lat="42.3411467" lon="14.121445"><ele>34.0</ele><time>2026-05-01T14:54:26.28Z</time></trkpt><trkpt lat="42.3411867" lon="14.1213383"><ele>33.8</ele><time>2026-05-01T14:54:27.28Z</time></trkpt><trkpt lat="42.3412" lon="14.1212017"><ele>33.599999999999994</ele><time>2026-05-01T14:54:28.281Z</time></trkpt><trkpt lat="42.3412167" lon="14.1210667"><ele>33.4</ele><time>2026-05-01T14:54:29.28Z</time></trkpt><trkpt lat="42.3412517" lon="14.1209367"><ele>33.199999999999996</ele><time>2026-05-01T14:54:30.28Z</time></trkpt><trkpt lat="42.34131" lon="14.12081"><ele>33.0</ele><time>2026-05-01T14:54:31.28Z</time></trkpt><trkpt lat="42.3413867" lon="14.120665"><ele>33.0</ele><time>2026-05-01T14:54:32.28Z</time></trkpt><trkpt lat="42.3414683" lon="14.1205133"><ele>33.0</ele><time>2026-05-01T14:54:33.28Z</time></trkpt><trkpt lat="42.341555" lon="14.1203583"><ele>33.0</ele><time>2026-05-01T14:54:34.28Z</time></trkpt><trkpt lat="42.3416517" lon="14.1201883"><ele>33.0</ele><time>2026-05-01T14:54:35.28Z</time></trkpt><trkpt lat="42.3417417" lon="14.1200267"><ele>32.333333333333336</ele><time>2026-05-01T14:54:36.281Z</time></trkpt><trkpt lat="42.3418433" lon="14.1198467"><ele>31.666666666666668</ele><time>2026-05-01T14:54:37.28Z</time></trkpt><trkpt lat="42.3419417" lon="14.1196633"><ele>31.0</ele><time>2026-05-01T14:54:38.28Z</time></trkpt><trkpt lat="42.3420417" lon="14.1194767"><ele>31.0</ele><time>2026-05-01T14:54:39.28Z</time></trkpt><trkpt lat="42.342145" lon="14.11929"><ele>31.0</ele><time>2026-05-01T14:54:40.28Z</time></trkpt><trkpt lat="42.3422417" lon="14.1191033"><ele>31.0</ele><time>2026-05-01T14:54:41.28Z</time></trkpt><trkpt lat="42.3423333" lon="14.1189033"><ele>31.666666666666668</ele><time>2026-05-01T14:54:42.28Z</time></trkpt><trkpt lat="42.342415" lon="14.11869"><ele>32.333333333333336</ele><time>2026-05-01T14:54:43.28Z</time></trkpt><trkpt lat="42.3424817" lon="14.118475"><ele>33.0</ele><time>2026-05-01T14:54:44.28Z</time></trkpt><trkpt lat="42.3425317" lon="14.1182467"><ele>35.0</ele><time>2026-05-01T14:54:45.281Z</time></trkpt><trkpt lat="42.34258" lon="14.1180067"><ele>37.0</ele><time>2026-05-01T14:54:46.28Z</time></trkpt><trkpt lat="42.3426267" lon="14.1177667"><ele>39.0</ele><time>2026-05-01T14:54:47.28Z</time></trkpt><trkpt lat="42.342665" lon="14.1175383"><ele>41.0</ele><time>2026-05-01T14:54:48.28Z</time></trkpt><trkpt lat="42.3427083" lon="14.1173067"><ele>43.0</ele><time>2026-05-01T14:54:49.28Z</time></trkpt><trkpt lat="42.3427533" lon="14.1170833"><ele>45.0</ele><time>2026-05-01T14:54:50.28Z</time></trkpt><trkpt lat="42.34281" lon="14.11685"><ele>45.0</ele><time>2026-05-01T14:54:51.28Z</time></trkpt><trkpt lat="42.34285" lon="14.1166233"><ele>45.0</ele><time>2026-05-01T14:54:52.28Z</time></trkpt><trkpt lat="42.34288" lon="14.1164233"><ele>45.0</ele><time>2026-05-01T14:54:53.28Z</time></trkpt><trkpt lat="42.3429083" lon="14.1162317"><ele>45.25</ele><time>2026-05-01T14:54:54.28Z</time></trkpt><trkpt lat="42.3429417" lon="14.1160533"><ele>45.5</ele><time>2026-05-01T14:54:55.28Z</time></trkpt><trkpt lat="42.342975" lon="14.1158767"><ele>45.75</ele><time>2026-05-01T14:54:56.28Z</time></trkpt><trkpt lat="42.3430183" lon="14.1156983"><ele>46.0</ele><time>2026-05-01T14:54:57.28Z</time></trkpt><trkpt lat="42.343055" lon="14.1155167"><ele>46.5</ele><time>2026-05-01T14:54:58.28Z</time></trkpt><trkpt lat="42.3430833" lon="14.115335"><ele>47.0</ele><time>2026-05-01T14:54:59.28Z</time></trkpt><trkpt lat="42.3431083" lon="14.11514"><ele>47.5</ele><time>2026-05-01T14:55:00.28Z</time></trkpt><trkpt lat="42.34313" lon="14.114955"><ele>48.0</ele><time>2026-05-01T14:55:01.28Z</time></trkpt><trkpt lat="42.3431483" lon="14.1147733"><ele>48.0</ele><time>2026-05-01T14:55:02.28Z</time></trkpt><trkpt lat="42.343175" lon="14.1145867"><ele>48.0</ele><time>2026-05-01T14:55:03.28Z</time></trkpt><trkpt lat="42.3432017" lon="14.1143933"><ele>48.0</ele><time>2026-05-01T14:55:04.28Z</time></trkpt><trkpt lat="42.3432283" lon="14.1141967"><ele>48.0</ele><time>2026-05-01T14:55:05.28Z</time></trkpt><trkpt lat="42.3432467" lon="14.1139983"><ele>47.666666666666664</ele><time>2026-05-01T14:55:06.28Z</time></trkpt><trkpt lat="42.34327" lon="14.1137967"><ele>47.33333333333333</ele><time>2026-05-01T14:55:07.28Z</time></trkpt><trkpt lat="42.3432967" lon="14.1135767"><ele>47.0</ele><time>2026-05-01T14:55:08.28Z</time></trkpt><trkpt lat="42.343325" lon="14.1133617"><ele>47.0</ele><time>2026-05-01T14:55:09.28Z</time></trkpt><trkpt lat="42.3433533" lon="14.11316"><ele>47.0</ele><time>2026-05-01T14:55:10.28Z</time></trkpt><trkpt lat="42.3433817" lon="14.1129633"><ele>47.0</ele><time>2026-05-01T14:55:11.28Z</time></trkpt><trkpt lat="42.3434017" lon="14.1127583"><ele>47.0</ele><time>2026-05-01T14:55:12.28Z</time></trkpt><trkpt lat="42.3434217" lon="14.112565"><ele>47.0</ele><time>2026-05-01T14:55:13.28Z</time></trkpt><trkpt lat="42.3434433" lon="14.1123833"><ele>47.0</ele><time>2026-05-01T14:55:14.28Z</time></trkpt><trkpt lat="42.3434683" lon="14.1122183"><ele>47.0</ele><time>2026-05-01T14:55:15.28Z</time></trkpt><trkpt lat="42.3434933" lon="14.1120683"><ele>47.0</ele><time>2026-05-01T14:55:16.281Z</time></trkpt><trkpt lat="42.3435117" lon="14.1119133"><ele>47.0</ele><time>2026-05-01T14:55:17.281Z</time></trkpt><trkpt lat="42.3435317" lon="14.111785"><ele>47.0</ele><time>2026-05-01T14:55:18.28Z</time></trkpt><trkpt lat="42.343545" lon="14.11167"><ele>47.0</ele><time>2026-05-01T14:55:19.28Z</time></trkpt><trkpt lat="42.3435625" lon="14.1115757"><ele>47.0</ele><time>2026-05-01T14:55:20.28Z</time></trkpt><trkpt lat="42.3435949" lon="14.1114964"><ele>47.0</ele><time>2026-05-01T14:55:21.28Z</time></trkpt><trkpt lat="42.3436449" lon="14.1114378"><ele>47.25</ele><time>2026-05-01T14:55:22.281Z</time></trkpt><trkpt lat="42.3437849" lon="14.111464"><ele>47.5</ele><time>2026-05-01T14:55:24.28Z</time></trkpt><trkpt lat="42.343873" lon="14.1115329"><ele>47.75</ele><time>2026-05-01T14:55:25.28Z</time></trkpt><trkpt lat="42.3439656" lon="14.1116065"><ele>48.0</ele><time>2026-05-01T14:55:26.28Z</time></trkpt><trkpt lat="42.3440679" lon="14.1116829"><ele>48.0</ele><time>2026-05-01T14:55:27.28Z</time></trkpt><trkpt lat="42.3441811" lon="14.1117604"><ele>48.0</ele><time>2026-05-01T14:55:28.281Z</time></trkpt><trkpt lat="42.3443083" lon="14.1118367"><ele>48.0</ele><time>2026-05-01T14:55:29.28Z</time></trkpt><trkpt lat="42.3444383" lon="14.1119083"><ele>48.0</ele><time>2026-05-01T14:55:30.28Z</time></trkpt><trkpt lat="42.3445633" lon="14.1120033"><ele>48.0</ele><time>2026-05-01T14:55:31.28Z</time></trkpt><trkpt lat="42.3446833" lon="14.112085"><ele>48.0</ele><time>2026-05-01T14:55:32.28Z</time></trkpt><trkpt lat="42.3448117" lon="14.11216"><ele>48.0</ele><time>2026-05-01T14:55:33.28Z</time></trkpt><trkpt lat="42.344935" lon="14.1122317"><ele>48.0</ele><time>2026-05-01T14:55:34.28Z</time></trkpt><trkpt lat="42.3450533" lon="14.1123"><ele>47.5</ele><time>2026-05-01T14:55:35.28Z</time></trkpt><trkpt lat="42.34517" lon="14.112365"><ele>47.0</ele><time>2026-05-01T14:55:36.28Z</time></trkpt><trkpt lat="42.3452833" lon="14.11242"><ele>46.5</ele><time>2026-05-01T14:55:37.28Z</time></trkpt><trkpt lat="42.34541" lon="14.1124667"><ele>46.0</ele><time>2026-05-01T14:55:38.28Z</time></trkpt><trkpt lat="42.345545" lon="14.1125083"><ele>46.0</ele><time>2026-05-01T14:55:39.28Z</time></trkpt><trkpt lat="42.345685" lon="14.1125467"><ele>46.0</ele><time>2026-05-01T14:55:40.28Z</time></trkpt><trkpt lat="42.34583" lon="14.1125867"><ele>46.0</ele><time>2026-05-01T14:55:41.28Z</time></trkpt><trkpt lat="42.3459683" lon="14.112625"><ele>46.0</ele><time>2026-05-01T14:55:42.28Z</time></trkpt><trkpt lat="42.346105" lon="14.11267"><ele>46.0</ele><time>2026-05-01T14:55:43.28Z</time></trkpt><trkpt lat="42.3462417" lon="14.112725"><ele>46.0</ele><time>2026-05-01T14:55:44.28Z</time></trkpt><trkpt lat="42.3463967" lon="14.1127983"><ele>46.0</ele><time>2026-05-01T14:55:45.28Z</time></trkpt><trkpt lat="42.3465733" lon="14.1128783"><ele>45.333333333333336</ele><time>2026-05-01T14:55:46.281Z</time></trkpt><trkpt lat="42.3467533" lon="14.1129633"><ele>44.666666666666664</ele><time>2026-05-01T14:55:47.28Z</time></trkpt><trkpt lat="42.3469383" lon="14.11306"><ele>44.0</ele><time>2026-05-01T14:55:48.28Z</time></trkpt><trkpt lat="42.3471133" lon="14.1131367"><ele>44.33333333333333</ele><time>2026-05-01T14:55:49.28Z</time></trkpt><trkpt lat="42.347275" lon="14.1132167"><ele>44.666666666666664</ele><time>2026-05-01T14:55:50.28Z</time></trkpt><trkpt lat="42.3474267" lon="14.1133017"><ele>45.0</ele><time>2026-05-01T14:55:51.28Z</time></trkpt><trkpt lat="42.3475733" lon="14.11337"><ele>45.0</ele><time>2026-05-01T14:55:52.28Z</time></trkpt><trkpt lat="42.3477083" lon="14.11345"><ele>45.0</ele><time>2026-05-01T14:55:53.28Z</time></trkpt><trkpt lat="42.3478417" lon="14.1135217"><ele>45.0</ele><time>2026-05-01T14:55:54.28Z</time></trkpt><trkpt lat="42.3479683" lon="14.1135833"><ele>45.0</ele><time>2026-05-01T14:55:55.28Z</time></trkpt><trkpt lat="42.3480967" lon="14.11363"><ele>45.0</ele><time>2026-05-01T14:55:56.28Z</time></trkpt><trkpt lat="42.34822" lon="14.1136683"><ele>45.0</ele><time>2026-05-01T14:55:57.28Z</time></trkpt><trkpt lat="42.3483417" lon="14.11368"><ele>45.0</ele><time>2026-05-01T14:55:58.28Z</time></trkpt><trkpt lat="42.34846" lon="14.1136483"><ele>45.0</ele><time>2026-05-01T14:55:59.28Z</time></trkpt><trkpt lat="42.3485817" lon="14.11359"><ele>45.0</ele><time>2026-05-01T14:56:00.28Z</time></trkpt><trkpt lat="42.3487083" lon="14.1135133"><ele>45.0</ele><time>2026-05-01T14:56:01.28Z</time></trkpt><trkpt lat="42.3488433" lon="14.1134267"><ele>45.0</ele><time>2026-05-01T14:56:02.28Z</time></trkpt><trkpt lat="42.3489833" lon="14.1133417"><ele>45.0</ele><time>2026-05-01T14:56:03.28Z</time></trkpt><trkpt lat="42.3491267" lon="14.113245"><ele>44.0</ele><time>2026-05-01T14:56:04.28Z</time></trkpt><trkpt lat="42.3492683" lon="14.113145"><ele>43.0</ele><time>2026-05-01T14:56:05.28Z</time></trkpt><trkpt lat="42.3494033" lon="14.11305"><ele>42.0</ele><time>2026-05-01T14:56:06.28Z</time></trkpt><trkpt lat="42.349525" lon="14.112965"><ele>41.0</ele><time>2026-05-01T14:56:07.28Z</time></trkpt><trkpt lat="42.34964" lon="14.11289"><ele>41.75</ele><time>2026-05-01T14:56:08.28Z</time></trkpt><trkpt lat="42.3497467" lon="14.1128083"><ele>42.5</ele><time>2026-05-01T14:56:09.28Z</time></trkpt><trkpt lat="42.3498617" lon="14.112725"><ele>43.25</ele><time>2026-05-01T14:56:10.281Z</time></trkpt><trkpt lat="42.3499917" lon="14.11265"><ele>44.0</ele><time>2026-05-01T14:56:11.281Z</time></trkpt><trkpt lat="42.3501333" lon="14.1125867"><ele>44.0</ele><time>2026-05-01T14:56:12.28Z</time></trkpt><trkpt lat="42.3502817" lon="14.1125317"><ele>44.0</ele><time>2026-05-01T14:56:13.28Z</time></trkpt><trkpt lat="42.3504367" lon="14.112505"><ele>44.0</ele><time>2026-05-01T14:56:14.28Z</time></trkpt><trkpt lat="42.3505883" lon="14.112495"><ele>44.0</ele><time>2026-05-01T14:56:15.28Z</time></trkpt><trkpt lat="42.350745" lon="14.1125117"><ele>44.0</ele><time>2026-05-01T14:56:16.28Z</time></trkpt><trkpt lat="42.3509183" lon="14.1125517"><ele>44.0</ele><time>2026-05-01T14:56:17.28Z</time></trkpt><trkpt lat="42.3510983" lon="14.1126083"><ele>44.0</ele><time>2026-05-01T14:56:18.28Z</time></trkpt><trkpt lat="42.3512817" lon="14.1126783"><ele>44.0</ele><time>2026-05-01T14:56:19.28Z</time></trkpt><trkpt lat="42.3514717" lon="14.112753"><ele>44.0</ele><time>2026-05-01T14:56:20.28Z</time></trkpt><trkpt lat="42.351671" lon="14.1128386"><ele>42.666666666666664</ele><time>2026-05-01T14:56:21.281Z</time></trkpt><trkpt lat="42.3518737" lon="14.1129204"><ele>41.333333333333336</ele><time>2026-05-01T14:56:22.28Z</time></trkpt><trkpt lat="42.3520668" lon="14.1130052"><ele>40.0</ele><time>2026-05-01T14:56:23.28Z</time></trkpt><trkpt lat="42.3522606" lon="14.1130852"><ele>38.66666666666667</ele><time>2026-05-01T14:56:24.28Z</time></trkpt><trkpt lat="42.352461" lon="14.1131645"><ele>37.333333333333336</ele><time>2026-05-01T14:56:25.28Z</time></trkpt><trkpt lat="42.3526665" lon="14.1132524"><ele>36.0</ele><time>2026-05-01T14:56:26.28Z</time></trkpt><trkpt lat="42.3528698" lon="14.1133418"><ele>35.666666666666664</ele><time>2026-05-01T14:56:27.281Z</time></trkpt><trkpt lat="42.3530744" lon="14.1134282"><ele>35.33333333333333</ele><time>2026-05-01T14:56:28.28Z</time></trkpt><trkpt lat="42.3532782" lon="14.1135103"><ele>35.0</ele><time>2026-05-01T14:56:29.28Z</time></trkpt><trkpt lat="42.3534814" lon="14.1135898"><ele>35.0</ele><time>2026-05-01T14:56:30.28Z</time></trkpt><trkpt lat="42.353683" lon="14.1136707"><ele>35.0</ele><time>2026-05-01T14:56:31.28Z</time></trkpt><trkpt lat="42.3538841" lon="14.1137487"><ele>35.0</ele><time>2026-05-01T14:56:32.28Z</time></trkpt><trkpt lat="42.3540884" lon="14.1138259"><ele>35.33333333333333</ele><time>2026-05-01T14:56:33.281Z</time></trkpt><trkpt lat="42.3542924" lon="14.1138992"><ele>35.666666666666664</ele><time>2026-05-01T14:56:34.281Z</time></trkpt><trkpt lat="42.3544977" lon="14.1139794"><ele>36.0</ele><time>2026-05-01T14:56:35.281Z</time></trkpt><trkpt lat="42.3547003" lon="14.1140628"><ele>36.333333333333336</ele><time>2026-05-01T14:56:36.28Z</time></trkpt><trkpt lat="42.3549022" lon="14.1141474"><ele>36.66666666666667</ele><time>2026-05-01T14:56:37.28Z</time></trkpt><trkpt lat="42.355106" lon="14.1142335"><ele>37.0</ele><time>2026-05-01T14:56:38.28Z</time></trkpt><trkpt lat="42.3553073" lon="14.1143211"><ele>37.0</ele><time>2026-05-01T14:56:39.28Z</time></trkpt><trkpt lat="42.3555086" lon="14.1143976"><ele>37.0</ele><time>2026-05-01T14:56:40.28Z</time></trkpt><trkpt lat="42.3557123" lon="14.1144775"><ele>37.0</ele><time>2026-05-01T14:56:41.28Z</time></trkpt><trkpt lat="42.3559188" lon="14.114568"><ele>40.333333333333336</ele><time>2026-05-01T14:56:42.28Z</time></trkpt><trkpt lat="42.3561282" lon="14.1146554"><ele>43.666666666666664</ele><time>2026-05-01T14:56:43.28Z</time></trkpt><trkpt lat="42.3563425" lon="14.1147428"><ele>47.0</ele><time>2026-05-01T14:56:44.28Z</time></trkpt><trkpt lat="42.3565607" lon="14.1148267"><ele>45.0</ele><time>2026-05-01T14:56:45.281Z</time></trkpt><trkpt lat="42.3567766" lon="14.1149055"><ele>43.0</ele><time>2026-05-01T14:56:46.28Z</time></trkpt><trkpt lat="42.3569921" lon="14.1149887"><ele>41.0</ele><time>2026-05-01T14:56:47.28Z</time></trkpt><trkpt lat="42.3572068" lon="14.1150729"><ele>41.0</ele><time>2026-05-01T14:56:48.28Z</time></trkpt><trkpt lat="42.3574224" lon="14.1151553"><ele>41.0</ele><time>2026-05-01T14:56:49.28Z</time></trkpt><trkpt lat="42.3576321" lon="14.1152368"><ele>41.0</ele><time>2026-05-01T14:56:50.28Z</time></trkpt><trkpt lat="42.3578378" lon="14.1153203"><ele>41.0</ele><time>2026-05-01T14:56:51.28Z</time></trkpt><trkpt lat="42.35805" lon="14.1154026"><ele>41.0</ele><time>2026-05-01T14:56:52.281Z</time></trkpt><trkpt lat="42.3582696" lon="14.1154897"><ele>41.0</ele><time>2026-05-01T14:56:53.28Z</time></trkpt><trkpt lat="42.3585038" lon="14.1155801"><ele>41.0</ele><time>2026-05-01T14:56:54.28Z</time></trkpt><trkpt lat="42.3587394" lon="14.1156778"><ele>38.5</ele><time>2026-05-01T14:56:55.28Z</time></trkpt><trkpt lat="42.3589711" lon="14.1157714"><ele>36.0</ele><time>2026-05-01T14:56:56.28Z</time></trkpt><trkpt lat="42.3591964" lon="14.1158634"><ele>36.0</ele><time>2026-05-01T14:56:57.28Z</time></trkpt><trkpt lat="42.359413" lon="14.1159498"><ele>36.0</ele><time>2026-05-01T14:56:58.28Z</time></trkpt><trkpt lat="42.3596203" lon="14.1160356"><ele>36.0</ele><time>2026-05-01T14:56:59.281Z</time></trkpt><trkpt lat="42.3598098" lon="14.1161245"><ele>36.333333333333336</ele><time>2026-05-01T14:57:00.28Z</time></trkpt><trkpt lat="42.3600011" lon="14.1162076"><ele>36.66666666666667</ele><time>2026-05-01T14:57:01.28Z</time></trkpt><trkpt lat="42.3601887" lon="14.1162986"><ele>37.0</ele><time>2026-05-01T14:57:02.28Z</time></trkpt><trkpt lat="42.3603804" lon="14.1163835"><ele>38.66666666666667</ele><time>2026-05-01T14:57:03.28Z</time></trkpt><trkpt lat="42.360569" lon="14.1164681"><ele>40.333333333333336</ele><time>2026-05-01T14:57:04.28Z</time></trkpt><trkpt lat="42.360757" lon="14.116555"><ele>42.0</ele><time>2026-05-01T14:57:05.28Z</time></trkpt><trkpt lat="42.3609434" lon="14.1166391"><ele>40.0</ele><time>2026-05-01T14:57:06.28Z</time></trkpt><trkpt lat="42.3611269" lon="14.1167189"><ele>38.0</ele><time>2026-05-01T14:57:07.28Z</time></trkpt><trkpt lat="42.3613019" lon="14.1167958"><ele>36.0</ele><time>2026-05-01T14:57:08.281Z</time></trkpt><trkpt lat="42.3614653" lon="14.1168709"><ele>36.0</ele><time>2026-05-01T14:57:09.28Z</time></trkpt><trkpt lat="42.361632" lon="14.1169476"><ele>36.0</ele><time>2026-05-01T14:57:10.28Z</time></trkpt><trkpt lat="42.3617951" lon="14.117026"><ele>36.0</ele><time>2026-05-01T14:57:11.28Z</time></trkpt><trkpt lat="42.3619603" lon="14.117103"><ele>36.0</ele><time>2026-05-01T14:57:12.281Z</time></trkpt><trkpt lat="42.3621311" lon="14.1171753"><ele>36.0</ele><time>2026-05-01T14:57:13.28Z</time></trkpt><trkpt lat="42.3623018" lon="14.1172461"><ele>36.0</ele><time>2026-05-01T14:57:14.28Z</time></trkpt><trkpt lat="42.3624717" lon="14.1173148"><ele>33.666666666666664</ele><time>2026-05-01T14:57:15.28Z</time></trkpt><trkpt lat="42.3626384" lon="14.1173728"><ele>31.333333333333332</ele><time>2026-05-01T14:57:16.28Z</time></trkpt><trkpt lat="42.3628043" lon="14.1174201"><ele>29.0</ele><time>2026-05-01T14:57:17.28Z</time></trkpt><trkpt lat="42.362978" lon="14.1174465"><ele>29.666666666666664</ele><time>2026-05-01T14:57:18.28Z</time></trkpt><trkpt lat="42.3631518" lon="14.1174602"><ele>30.333333333333336</ele><time>2026-05-01T14:57:19.28Z</time></trkpt><trkpt lat="42.3633339" lon="14.1174686"><ele>31.0</ele><time>2026-05-01T14:57:20.28Z</time></trkpt><trkpt lat="42.3635171" lon="14.1174675"><ele>31.0</ele><time>2026-05-01T14:57:21.28Z</time></trkpt><trkpt lat="42.3636971" lon="14.1174739"><ele>31.0</ele><time>2026-05-01T14:57:22.28Z</time></trkpt><trkpt lat="42.3638774" lon="14.1174759"><ele>31.0</ele><time>2026-05-01T14:57:23.28Z</time></trkpt><trkpt lat="42.3640497" lon="14.1174916"><ele>31.666666666666668</ele><time>2026-05-01T14:57:24.28Z</time></trkpt><trkpt lat="42.3642182" lon="14.1175105"><ele>32.333333333333336</ele><time>2026-05-01T14:57:25.28Z</time></trkpt><trkpt lat="42.3643802" lon="14.1175533"><ele>33.0</ele><time>2026-05-01T14:57:26.28Z</time></trkpt><trkpt lat="42.3645345" lon="14.1176277"><ele>33.0</ele><time>2026-05-01T14:57:27.28Z</time></trkpt><trkpt lat="42.3646798" lon="14.1177252"><ele>33.0</ele><time>2026-05-01T14:57:28.281Z</time></trkpt><trkpt lat="42.3648254" lon="14.1178252"><ele>33.0</ele><time>2026-05-01T14:57:29.28Z</time></trkpt><trkpt lat="42.3649765" lon="14.1179257"><ele>32.666666666666664</ele><time>2026-05-01T14:57:30.28Z</time></trkpt><trkpt lat="42.3651278" lon="14.1180206"><ele>32.33333333333333</ele><time>2026-05-01T14:57:31.28Z</time></trkpt><trkpt lat="42.3652795" lon="14.1181192"><ele>32.0</ele><time>2026-05-01T14:57:32.28Z</time></trkpt><trkpt lat="42.3654316" lon="14.1182256"><ele>30.666666666666664</ele><time>2026-05-01T14:57:33.28Z</time></trkpt><trkpt lat="42.365585" lon="14.1183448"><ele>29.333333333333336</ele><time>2026-05-01T14:57:34.28Z</time></trkpt><trkpt lat="42.36574" lon="14.1184508"><ele>28.0</ele><time>2026-05-01T14:57:35.28Z</time></trkpt><trkpt lat="42.3658919" lon="14.1185618"><ele>28.0</ele><time>2026-05-01T14:57:36.28Z</time></trkpt><trkpt lat="42.3660443" lon="14.1186616"><ele>28.0</ele><time>2026-05-01T14:57:37.28Z</time></trkpt><trkpt lat="42.3662077" lon="14.1187701"><ele>28.0</ele><time>2026-05-01T14:57:38.28Z</time></trkpt><trkpt lat="42.3663741" lon="14.1188745"><ele>28.0</ele><time>2026-05-01T14:57:39.28Z</time></trkpt><trkpt lat="42.3665488" lon="14.1189808"><ele>28.0</ele><time>2026-05-01T14:57:40.28Z</time></trkpt><trkpt lat="42.3667244" lon="14.1191028"><ele>28.0</ele><time>2026-05-01T14:57:41.28Z</time></trkpt><trkpt lat="42.3668976" lon="14.1192263"><ele>28.0</ele><time>2026-05-01T14:57:42.28Z</time></trkpt><trkpt lat="42.3670671" lon="14.1193472"><ele>28.0</ele><time>2026-05-01T14:57:43.279Z</time></trkpt><trkpt lat="42.3672306" lon="14.1194674"><ele>28.0</ele><time>2026-05-01T14:57:44.28Z</time></trkpt><trkpt lat="42.3673878" lon="14.1195787"><ele>28.0</ele><time>2026-05-01T14:57:45.28Z</time></trkpt><trkpt lat="42.3675404" lon="14.1196836"><ele>28.0</ele><time>2026-05-01T14:57:46.28Z</time></trkpt><trkpt lat="42.3676874" lon="14.1197879"><ele>28.0</ele><time>2026-05-01T14:57:47.28Z</time></trkpt><trkpt lat="42.3678318" lon="14.1198912"><ele>28.0</ele><time>2026-05-01T14:57:48.28Z</time></trkpt><trkpt lat="42.3679785" lon="14.1199873"><ele>28.0</ele><time>2026-05-01T14:57:49.28Z</time></trkpt><trkpt lat="42.368124" lon="14.1200857"><ele>28.0</ele><time>2026-05-01T14:57:50.28Z</time></trkpt><trkpt lat="42.3682735" lon="14.1201724"><ele>28.333333333333336</ele><time>2026-05-01T14:57:51.28Z</time></trkpt><trkpt lat="42.3684356" lon="14.1202348"><ele>28.666666666666664</ele><time>2026-05-01T14:57:52.28Z</time></trkpt><trkpt lat="42.368602" lon="14.1202778"><ele>29.0</ele><time>2026-05-01T14:57:53.28Z</time></trkpt><trkpt lat="42.3687782" lon="14.1203096"><ele>31.666666666666664</ele><time>2026-05-01T14:57:54.28Z</time></trkpt><trkpt lat="42.3689654" lon="14.1203322"><ele>34.333333333333336</ele><time>2026-05-01T14:57:55.28Z</time></trkpt><trkpt lat="42.3691562" lon="14.1203552"><ele>37.0</ele><time>2026-05-01T14:57:56.28Z</time></trkpt><trkpt lat="42.3693501" lon="14.1203758"><ele>37.0</ele><time>2026-05-01T14:57:57.28Z</time></trkpt><trkpt lat="42.369543" lon="14.1203973"><ele>37.0</ele><time>2026-05-01T14:57:58.281Z</time></trkpt><trkpt lat="42.3697354" lon="14.1204153"><ele>37.0</ele><time>2026-05-01T14:57:59.281Z</time></trkpt><trkpt lat="42.3699317" lon="14.120445"><ele>37.0</ele><time>2026-05-01T14:58:00.28Z</time></trkpt><trkpt lat="42.3701267" lon="14.1204667"><ele>37.0</ele><time>2026-05-01T14:58:01.28Z</time></trkpt><trkpt lat="42.3703183" lon="14.1204867"><ele>37.0</ele><time>2026-05-01T14:58:02.28Z</time></trkpt><trkpt lat="42.370505" lon="14.1205133"><ele>37.333333333333336</ele><time>2026-05-01T14:58:03.28Z</time></trkpt><trkpt lat="42.3706883" lon="14.1205467"><ele>37.666666666666664</ele><time>2026-05-01T14:58:04.28Z</time></trkpt><trkpt lat="42.370865" lon="14.1205917"><ele>38.0</ele><time>2026-05-01T14:58:05.28Z</time></trkpt><trkpt lat="42.3710317" lon="14.120665"><ele>38.0</ele><time>2026-05-01T14:58:06.28Z</time></trkpt><trkpt lat="42.3711967" lon="14.1207317"><ele>38.0</ele><time>2026-05-01T14:58:07.28Z</time></trkpt><trkpt lat="42.3713583" lon="14.120795"><ele>38.0</ele><time>2026-05-01T14:58:08.28Z</time></trkpt><trkpt lat="42.371525" lon="14.12087"><ele>36.33333333333333</ele><time>2026-05-01T14:58:09.28Z</time></trkpt><trkpt lat="42.37169" lon="14.120945"><ele>34.666666666666664</ele><time>2026-05-01T14:58:10.28Z</time></trkpt><trkpt lat="42.3718417" lon="14.1210183"><ele>33.0</ele><time>2026-05-01T14:58:11.281Z</time></trkpt><trkpt lat="42.3719967" lon="14.1211017"><ele>33.0</ele><time>2026-05-01T14:58:12.28Z</time></trkpt><trkpt lat="42.3721483" lon="14.12119"><ele>33.0</ele><time>2026-05-01T14:58:13.28Z</time></trkpt><trkpt lat="42.372295" lon="14.1212933"><ele>33.0</ele><time>2026-05-01T14:58:14.28Z</time></trkpt><trkpt lat="42.3724367" lon="14.1213917"><ele>33.25</ele><time>2026-05-01T14:58:15.28Z</time></trkpt><trkpt lat="42.3725667" lon="14.12149"><ele>33.5</ele><time>2026-05-01T14:58:16.28Z</time></trkpt><trkpt lat="42.372695" lon="14.12159"><ele>33.75</ele><time>2026-05-01T14:58:17.28Z</time></trkpt><trkpt lat="42.372825" lon="14.12169"><ele>34.0</ele><time>2026-05-01T14:58:18.281Z</time></trkpt><trkpt lat="42.3729483" lon="14.1217933"><ele>35.75</ele><time>2026-05-01T14:58:19.28Z</time></trkpt><trkpt lat="42.37307" lon="14.1218983"><ele>37.5</ele><time>2026-05-01T14:58:20.28Z</time></trkpt><trkpt lat="42.3731833" lon="14.1219883"><ele>39.25</ele><time>2026-05-01T14:58:21.28Z</time></trkpt><trkpt lat="42.3732917" lon="14.1220783"><ele>41.0</ele><time>2026-05-01T14:58:22.28Z</time></trkpt><trkpt lat="42.3733917" lon="14.12216"><ele>41.0</ele><time>2026-05-01T14:58:23.28Z</time></trkpt><trkpt lat="42.373485" lon="14.1222333"><ele>41.0</ele><time>2026-05-01T14:58:24.28Z</time></trkpt><trkpt lat="42.3735667" lon="14.1223033"><ele>41.0</ele><time>2026-05-01T14:58:25.28Z</time></trkpt><trkpt lat="42.3736483" lon="14.1223683"><ele>41.0</ele><time>2026-05-01T14:58:26.28Z</time></trkpt><trkpt lat="42.37372" lon="14.12242"><ele>41.0</ele><time>2026-05-01T14:58:27.28Z</time></trkpt><trkpt lat="42.3737817" lon="14.1224683"><ele>41.0</ele><time>2026-05-01T14:58:28.28Z</time></trkpt><trkpt lat="42.3738383" lon="14.122515"><ele>41.0</ele><time>2026-05-01T14:58:29.28Z</time></trkpt><trkpt lat="42.373935" lon="14.12259"><ele>41.0</ele><time>2026-05-01T14:58:31.28Z</time></trkpt><trkpt lat="42.3740167" lon="14.12265"><ele>41.0</ele><time>2026-05-01T14:58:33.28Z</time></trkpt><trkpt lat="42.3741117" lon="14.1226983"><ele>41.0</ele><time>2026-05-01T14:59:16.279Z</time></trkpt><trkpt lat="42.3741733" lon="14.1227533"><ele>41.0</ele><time>2026-05-01T14:59:17.279Z</time></trkpt><trkpt lat="42.374245" lon="14.12282"><ele>41.0</ele><time>2026-05-01T14:59:18.279Z</time></trkpt><trkpt lat="42.374325" lon="14.1228933"><ele>41.0</ele><time>2026-05-01T14:59:19.279Z</time></trkpt><trkpt lat="42.3744233" lon="14.1229733"><ele>41.0</ele><time>2026-05-01T14:59:20.28Z</time></trkpt><trkpt lat="42.374525" lon="14.12306"><ele>41.0</ele><time>2026-05-01T14:59:21.279Z</time></trkpt><trkpt lat="42.3746433" lon="14.1231417"><ele>40.5</ele><time>2026-05-01T14:59:22.279Z</time></trkpt><trkpt lat="42.374755" lon="14.1232317"><ele>40.0</ele><time>2026-05-01T14:59:23.279Z</time></trkpt><trkpt lat="42.3748767" lon="14.1233217"><ele>39.5</ele><time>2026-05-01T14:59:24.28Z</time></trkpt><trkpt lat="42.3749983" lon="14.1234117"><ele>39.0</ele><time>2026-05-01T14:59:25.279Z</time></trkpt><trkpt lat="42.3751133" lon="14.1235033"><ele>39.0</ele><time>2026-05-01T14:59:26.279Z</time></trkpt><trkpt lat="42.3752233" lon="14.123595"><ele>39.0</ele><time>2026-05-01T14:59:27.279Z</time></trkpt><trkpt lat="42.37534" lon="14.1236867"><ele>39.0</ele><time>2026-05-01T14:59:28.279Z</time></trkpt><trkpt lat="42.3754483" lon="14.1237717"><ele>39.0</ele><time>2026-05-01T14:59:29.279Z</time></trkpt><trkpt lat="42.3755517" lon="14.1238517"><ele>39.8</ele><time>2026-05-01T14:59:30.279Z</time></trkpt><trkpt lat="42.3756483" lon="14.1239133"><ele>40.599999999999994</ele><time>2026-05-01T14:59:31.279Z</time></trkpt><trkpt lat="42.375755" lon="14.12397"><ele>41.4</ele><time>2026-05-01T14:59:32.279Z</time></trkpt><trkpt lat="42.3758633" lon="14.12401"><ele>42.199999999999996</ele><time>2026-05-01T14:59:33.28Z</time></trkpt><trkpt lat="42.3759717" lon="14.12404"><ele>43.0</ele><time>2026-05-01T14:59:34.279Z</time></trkpt><trkpt lat="42.376075" lon="14.124055"><ele>42.16666666666667</ele><time>2026-05-01T14:59:35.279Z</time></trkpt><trkpt lat="42.3761617" lon="14.124085"><ele>41.333333333333336</ele><time>2026-05-01T14:59:36.279Z</time></trkpt><trkpt lat="42.3762367" lon="14.12414"><ele>40.5</ele><time>2026-05-01T14:59:37.28Z</time></trkpt><trkpt lat="42.3762983" lon="14.1242167"><ele>39.666666666666664</ele><time>2026-05-01T14:59:38.279Z</time></trkpt><trkpt lat="42.3763483" lon="14.124305"><ele>38.83333333333333</ele><time>2026-05-01T14:59:39.279Z</time></trkpt><trkpt lat="42.376385" lon="14.124395"><ele>38.0</ele><time>2026-05-01T14:59:40.279Z</time></trkpt><trkpt lat="42.37643" lon="14.1244733"><ele>37.8</ele><time>2026-05-01T14:59:41.279Z</time></trkpt><trkpt lat="42.3764833" lon="14.124525"><ele>37.599999999999994</ele><time>2026-05-01T14:59:42.279Z</time></trkpt><trkpt lat="42.3766033" lon="14.1245083"><ele>37.400000000000006</ele><time>2026-05-01T14:59:44.279Z</time></trkpt><trkpt lat="42.3766583" lon="14.12443"><ele>37.2</ele><time>2026-05-01T14:59:45.279Z</time></trkpt><trkpt lat="42.3767017" lon="14.1243183"><ele>37.0</ele><time>2026-05-01T14:59:46.279Z</time></trkpt><trkpt lat="42.3767583" lon="14.1241933"><ele>37.0</ele><time>2026-05-01T14:59:47.279Z</time></trkpt><trkpt lat="42.3768533" lon="14.1240633"><ele>37.0</ele><time>2026-05-01T14:59:48.279Z</time></trkpt><trkpt lat="42.3769467" lon="14.12393"><ele>37.0</ele><time>2026-05-01T14:59:49.279Z</time></trkpt><trkpt lat="42.3770283" lon="14.1237883"><ele>37.0</ele><time>2026-05-01T14:59:50.279Z</time></trkpt><trkpt lat="42.377105" lon="14.123645"><ele>38.75</ele><time>2026-05-01T14:59:51.279Z</time></trkpt><trkpt lat="42.377185" lon="14.123535"><ele>40.5</ele><time>2026-05-01T14:59:52.279Z</time></trkpt><trkpt lat="42.3772817" lon="14.1234517"><ele>42.25</ele><time>2026-05-01T14:59:53.279Z</time></trkpt><trkpt lat="42.3773983" lon="14.1233967"><ele>44.0</ele><time>2026-05-01T14:59:54.279Z</time></trkpt><trkpt lat="42.3775167" lon="14.123385"><ele>44.5</ele><time>2026-05-01T14:59:55.28Z</time></trkpt><trkpt lat="42.3776367" lon="14.123405"><ele>45.0</ele><time>2026-05-01T14:59:56.279Z</time></trkpt><trkpt lat="42.3777733" lon="14.1234383"><ele>45.5</ele><time>2026-05-01T14:59:57.279Z</time></trkpt><trkpt lat="42.37792" lon="14.1234733"><ele>46.0</ele><time>2026-05-01T14:59:58.279Z</time></trkpt><trkpt lat="42.3780817" lon="14.123505"><ele>49.0</ele><time>2026-05-01T14:59:59.279Z</time></trkpt><trkpt lat="42.3782517" lon="14.123535"><ele>52.0</ele><time>2026-05-01T15:00:00.279Z</time></trkpt><trkpt lat="42.3784167" lon="14.123575"><ele>55.0</ele><time>2026-05-01T15:00:01.279Z</time></trkpt><trkpt lat="42.378565" lon="14.1236017"><ele>55.0</ele><time>2026-05-01T15:00:02.279Z</time></trkpt><trkpt lat="42.378695" lon="14.1236217"><ele>55.0</ele><time>2026-05-01T15:00:03.279Z</time></trkpt><trkpt lat="42.3788167" lon="14.1236517"><ele>55.0</ele><time>2026-05-01T15:00:04.279Z</time></trkpt><trkpt lat="42.37894" lon="14.123665"><ele>55.0</ele><time>2026-05-01T15:00:05.279Z</time></trkpt><trkpt lat="42.3790567" lon="14.1236817"><ele>55.8</ele><time>2026-05-01T15:00:06.279Z</time></trkpt><trkpt lat="42.379175" lon="14.123695"><ele>56.6</ele><time>2026-05-01T15:00:07.279Z</time></trkpt><trkpt lat="42.3792783" lon="14.1237333"><ele>57.400000000000006</ele><time>2026-05-01T15:00:08.279Z</time></trkpt><trkpt lat="42.3793633" lon="14.12377"><ele>58.2</ele><time>2026-05-01T15:00:09.279Z</time></trkpt><trkpt lat="42.3794317" lon="14.1238117"><ele>59.0</ele><time>2026-05-01T15:00:10.279Z</time></trkpt><trkpt lat="42.3795033" lon="14.1238733"><ele>59.00000000000001</ele><time>2026-05-01T15:00:11.279Z</time></trkpt><trkpt lat="42.3795633" lon="14.123945"><ele>59.0</ele><time>2026-05-01T15:00:12.279Z</time></trkpt><trkpt lat="42.3796133" lon="14.1240167"><ele>59.0</ele><time>2026-05-01T15:00:13.279Z</time></trkpt><trkpt lat="42.3796683" lon="14.1240733"><ele>59.0</ele><time>2026-05-01T15:00:14.279Z</time></trkpt><trkpt lat="42.3797317" lon="14.1241333"><ele>59.00000000000001</ele><time>2026-05-01T15:00:15.279Z</time></trkpt><trkpt lat="42.379805" lon="14.1241917"><ele>59.0</ele><time>2026-05-01T15:00:16.279Z</time></trkpt><trkpt lat="42.3798983" lon="14.1242667"><ele>57.25</ele><time>2026-05-01T15:00:17.279Z</time></trkpt><trkpt lat="42.37999" lon="14.1243467"><ele>55.5</ele><time>2026-05-01T15:00:18.279Z</time></trkpt><trkpt lat="42.380095" lon="14.1244233"><ele>53.75</ele><time>2026-05-01T15:00:19.279Z</time></trkpt><trkpt lat="42.3802083" lon="14.1245033"><ele>52.0</ele><time>2026-05-01T15:00:20.279Z</time></trkpt><trkpt lat="42.3803283" lon="14.1245933"><ele>52.0</ele><time>2026-05-01T15:00:21.279Z</time></trkpt><trkpt lat="42.38044" lon="14.1246783"><ele>52.0</ele><time>2026-05-01T15:00:22.279Z</time></trkpt><trkpt lat="42.3805517" lon="14.12476"><ele>52.0</ele><time>2026-05-01T15:00:23.279Z</time></trkpt><trkpt lat="42.3806667" lon="14.124845"><ele>52.0</ele><time>2026-05-01T15:00:24.28Z</time></trkpt><trkpt lat="42.3807883" lon="14.1249367"><ele>50.666666666666664</ele><time>2026-05-01T15:00:25.279Z</time></trkpt><trkpt lat="42.38092" lon="14.1250317"><ele>49.33333333333333</ele><time>2026-05-01T15:00:26.279Z</time></trkpt><trkpt lat="42.3810567" lon="14.1251367"><ele>48.0</ele><time>2026-05-01T15:00:27.279Z</time></trkpt><trkpt lat="42.38119" lon="14.1252383"><ele>48.0</ele><time>2026-05-01T15:00:28.279Z</time></trkpt><trkpt lat="42.3813317" lon="14.12533"><ele>48.0</ele><time>2026-05-01T15:00:29.279Z</time></trkpt><trkpt lat="42.38147" lon="14.1254267"><ele>48.0</ele><time>2026-05-01T15:00:30.279Z</time></trkpt><trkpt lat="42.381605" lon="14.1255117"><ele>47.0</ele><time>2026-05-01T15:00:31.279Z</time></trkpt><trkpt lat="42.38173" lon="14.1256083"><ele>46.0</ele><time>2026-05-01T15:00:32.279Z</time></trkpt><trkpt lat="42.381855" lon="14.12571"><ele>45.0</ele><time>2026-05-01T15:00:33.28Z</time></trkpt><trkpt lat="42.3819783" lon="14.1258183"><ele>44.0</ele><time>2026-05-01T15:00:34.279Z</time></trkpt><trkpt lat="42.3821033" lon="14.125935"><ele>46.25</ele><time>2026-05-01T15:00:35.279Z</time></trkpt><trkpt lat="42.3822267" lon="14.1260483"><ele>48.5</ele><time>2026-05-01T15:00:36.279Z</time></trkpt><trkpt lat="42.382345" lon="14.1261467"><ele>50.75</ele><time>2026-05-01T15:00:37.279Z</time></trkpt><trkpt lat="42.382465" lon="14.1262383"><ele>53.0</ele><time>2026-05-01T15:00:38.279Z</time></trkpt><trkpt lat="42.3825894" lon="14.1263131"><ele>53.0</ele><time>2026-05-01T15:00:39.279Z</time></trkpt><trkpt lat="42.3827155" lon="14.1263639"><ele>53.0</ele><time>2026-05-01T15:00:40.279Z</time></trkpt><trkpt lat="42.3828474" lon="14.1263918"><ele>53.0</ele><time>2026-05-01T15:00:41.279Z</time></trkpt><trkpt lat="42.3829822" lon="14.1264057"><ele>53.0</ele><time>2026-05-01T15:00:42.279Z</time></trkpt><trkpt lat="42.3831115" lon="14.1264109"><ele>53.0</ele><time>2026-05-01T15:00:43.279Z</time></trkpt><trkpt lat="42.3832348" lon="14.1264049"><ele>53.0</ele><time>2026-05-01T15:00:44.279Z</time></trkpt><trkpt lat="42.383351" lon="14.126411"><ele>53.0</ele><time>2026-05-01T15:00:45.279Z</time></trkpt><trkpt lat="42.3834665" lon="14.1264443"><ele>53.0</ele><time>2026-05-01T15:00:46.279Z</time></trkpt><trkpt lat="42.3835819" lon="14.1265091"><ele>50.25</ele><time>2026-05-01T15:00:47.279Z</time></trkpt><trkpt lat="42.3837022" lon="14.1265976"><ele>47.5</ele><time>2026-05-01T15:00:48.279Z</time></trkpt><trkpt lat="42.3838236" lon="14.1266782"><ele>44.75</ele><time>2026-05-01T15:00:49.279Z</time></trkpt><trkpt lat="42.383945" lon="14.1267517"><ele>42.0</ele><time>2026-05-01T15:00:50.279Z</time></trkpt><trkpt lat="42.384068" lon="14.1268169"><ele>42.0</ele><time>2026-05-01T15:00:51.279Z</time></trkpt><trkpt lat="42.3841965" lon="14.1268798"><ele>42.0</ele><time>2026-05-01T15:00:52.279Z</time></trkpt><trkpt lat="42.3843347" lon="14.1269374"><ele>42.0</ele><time>2026-05-01T15:00:53.279Z</time></trkpt><trkpt lat="42.3844709" lon="14.1269887"><ele>42.0</ele><time>2026-05-01T15:00:54.279Z</time></trkpt><trkpt lat="42.3846047" lon="14.1270414"><ele>42.75</ele><time>2026-05-01T15:00:55.279Z</time></trkpt><trkpt lat="42.3847338" lon="14.1270807"><ele>43.5</ele><time>2026-05-01T15:00:56.279Z</time></trkpt><trkpt lat="42.3848683" lon="14.1271269"><ele>44.25</ele><time>2026-05-01T15:00:57.28Z</time></trkpt><trkpt lat="42.3849944" lon="14.1271964"><ele>45.0</ele><time>2026-05-01T15:00:58.28Z</time></trkpt><trkpt lat="42.3851126" lon="14.1273014"><ele>42.75</ele><time>2026-05-01T15:00:59.279Z</time></trkpt><trkpt lat="42.3852259" lon="14.1274247"><ele>40.5</ele><time>2026-05-01T15:01:00.279Z</time></trkpt><trkpt lat="42.3853393" lon="14.1275511"><ele>38.25</ele><time>2026-05-01T15:01:01.279Z</time></trkpt><trkpt lat="42.3854576" lon="14.1276786"><ele>36.0</ele><time>2026-05-01T15:01:02.279Z</time></trkpt><trkpt lat="42.3855697" lon="14.1278059"><ele>36.0</ele><time>2026-05-01T15:01:03.279Z</time></trkpt><trkpt lat="42.3856854" lon="14.1279195"><ele>36.0</ele><time>2026-05-01T15:01:04.279Z</time></trkpt><trkpt lat="42.3858075" lon="14.1280348"><ele>36.0</ele><time>2026-05-01T15:01:05.279Z</time></trkpt><trkpt lat="42.3859304" lon="14.1281461"><ele>36.0</ele><time>2026-05-01T15:01:06.279Z</time></trkpt><trkpt lat="42.3860521" lon="14.1282647"><ele>35.666666666666664</ele><time>2026-05-01T15:01:07.279Z</time></trkpt><trkpt lat="42.3861732" lon="14.1283921"><ele>35.33333333333333</ele><time>2026-05-01T15:01:08.279Z</time></trkpt><trkpt lat="42.3862916" lon="14.1285302"><ele>35.0</ele><time>2026-05-01T15:01:09.279Z</time></trkpt><trkpt lat="42.3863912" lon="14.1286789"><ele>35.5</ele><time>2026-05-01T15:01:10.279Z</time></trkpt><trkpt lat="42.3864826" lon="14.1288259"><ele>36.0</ele><time>2026-05-01T15:01:11.279Z</time></trkpt><trkpt lat="42.386566" lon="14.1289667"><ele>36.5</ele><time>2026-05-01T15:01:12.279Z</time></trkpt><trkpt lat="42.3866486" lon="14.129096"><ele>37.0</ele><time>2026-05-01T15:01:13.279Z</time></trkpt><trkpt lat="42.3867327" lon="14.1292239"><ele>36.0</ele><time>2026-05-01T15:01:14.279Z</time></trkpt><trkpt lat="42.3868197" lon="14.1293543"><ele>35.0</ele><time>2026-05-01T15:01:15.279Z</time></trkpt><trkpt lat="42.3869146" lon="14.1294724"><ele>34.0</ele><time>2026-05-01T15:01:16.279Z</time></trkpt><trkpt lat="42.3870038" lon="14.1295767"><ele>33.0</ele><time>2026-05-01T15:01:17.279Z</time></trkpt><trkpt lat="42.3870925" lon="14.1296766"><ele>32.8</ele><time>2026-05-01T15:01:18.28Z</time></trkpt><trkpt lat="42.3871774" lon="14.12977"><ele>32.599999999999994</ele><time>2026-05-01T15:01:19.28Z</time></trkpt><trkpt lat="42.3872709" lon="14.129856"><ele>32.400000000000006</ele><time>2026-05-01T15:01:20.279Z</time></trkpt><trkpt lat="42.3873581" lon="14.1299425"><ele>32.2</ele><time>2026-05-01T15:01:21.279Z</time></trkpt><trkpt lat="42.3874415" lon="14.1300233"><ele>32.0</ele><time>2026-05-01T15:01:22.279Z</time></trkpt><trkpt lat="42.387518" lon="14.1301019"><ele>32.0</ele><time>2026-05-01T15:01:23.279Z</time></trkpt><trkpt lat="42.3875985" lon="14.1301759"><ele>32.0</ele><time>2026-05-01T15:01:24.279Z</time></trkpt><trkpt lat="42.3876717" lon="14.1302461"><ele>32.0</ele><time>2026-05-01T15:01:25.279Z</time></trkpt><trkpt lat="42.3877439" lon="14.1303112"><ele>32.0</ele><time>2026-05-01T15:01:26.279Z</time></trkpt><trkpt lat="42.3878055" lon="14.1303668"><ele>32.0</ele><time>2026-05-01T15:01:27.28Z</time></trkpt><trkpt lat="42.3878961" lon="14.130441"><ele>31.999999999999996</ele><time>2026-05-01T15:01:29.279Z</time></trkpt><trkpt lat="42.3879622" lon="14.1304677"><ele>32.0</ele><time>2026-05-01T15:01:32.279Z</time></trkpt><trkpt lat="42.3880233" lon="14.130505"><ele>32.0</ele><time>2026-05-01T15:01:40.279Z</time></trkpt><trkpt lat="42.388095" lon="14.1305483"><ele>32.0</ele><time>2026-05-01T15:01:42.279Z</time></trkpt><trkpt lat="42.3881617" lon="14.1305833"><ele>31.999999999999996</ele><time>2026-05-01T15:01:43.279Z</time></trkpt><trkpt lat="42.3882417" lon="14.1306233"><ele>32.0</ele><time>2026-05-01T15:01:44.279Z</time></trkpt><trkpt lat="42.3883367" lon="14.1306733"><ele>32.0</ele><time>2026-05-01T15:01:45.279Z</time></trkpt><trkpt lat="42.3884333" lon="14.1307233"><ele>32.0</ele><time>2026-05-01T15:01:46.28Z</time></trkpt><trkpt lat="42.38853" lon="14.1307767"><ele>32.0</ele><time>2026-05-01T15:01:47.279Z</time></trkpt><trkpt lat="42.3886183" lon="14.1308433"><ele>32.0</ele><time>2026-05-01T15:01:48.279Z</time></trkpt><trkpt lat="42.3887117" lon="14.1308833"><ele>32.0</ele><time>2026-05-01T15:01:49.279Z</time></trkpt><trkpt lat="42.3888" lon="14.13093"><ele>32.166666666666664</ele><time>2026-05-01T15:01:50.279Z</time></trkpt><trkpt lat="42.3888867" lon="14.1309717"><ele>32.33333333333333</ele><time>2026-05-01T15:01:51.279Z</time></trkpt><trkpt lat="42.3889583" lon="14.1310117"><ele>32.5</ele><time>2026-05-01T15:01:52.279Z</time></trkpt><trkpt lat="42.38902" lon="14.131065"><ele>32.666666666666664</ele><time>2026-05-01T15:01:53.279Z</time></trkpt><trkpt lat="42.38909" lon="14.1311183"><ele>32.833333333333336</ele><time>2026-05-01T15:01:54.279Z</time></trkpt><trkpt lat="42.389165" lon="14.1311817"><ele>33.0</ele><time>2026-05-01T15:01:55.279Z</time></trkpt><trkpt lat="42.389245" lon="14.1312467"><ele>33.0</ele><time>2026-05-01T15:01:56.279Z</time></trkpt><trkpt lat="42.3893317" lon="14.1313117"><ele>33.0</ele><time>2026-05-01T15:01:57.279Z</time></trkpt><trkpt lat="42.3894183" lon="14.1313783"><ele>33.0</ele><time>2026-05-01T15:01:58.28Z</time></trkpt><trkpt lat="42.3895017" lon="14.1314583"><ele>33.0</ele><time>2026-05-01T15:01:59.279Z</time></trkpt><trkpt lat="42.3895967" lon="14.13153"><ele>33.0</ele><time>2026-05-01T15:02:00.279Z</time></trkpt><trkpt lat="42.3896917" lon="14.1316017"><ele>32.5</ele><time>2026-05-01T15:02:01.279Z</time></trkpt><trkpt lat="42.3897833" lon="14.1316867"><ele>32.0</ele><time>2026-05-01T15:02:02.279Z</time></trkpt><trkpt lat="42.3898783" lon="14.1317683"><ele>31.5</ele><time>2026-05-01T15:02:03.279Z</time></trkpt><trkpt lat="42.3899783" lon="14.13185"><ele>31.0</ele><time>2026-05-01T15:02:04.279Z</time></trkpt><trkpt lat="42.3900733" lon="14.1319317"><ele>31.0</ele><time>2026-05-01T15:02:05.279Z</time></trkpt><trkpt lat="42.390165" lon="14.1320167"><ele>31.0</ele><time>2026-05-01T15:02:06.279Z</time></trkpt><trkpt lat="42.390255" lon="14.13209"><ele>31.0</ele><time>2026-05-01T15:02:07.279Z</time></trkpt><trkpt lat="42.3903417" lon="14.132165"><ele>31.0</ele><time>2026-05-01T15:02:08.279Z</time></trkpt><trkpt lat="42.39043" lon="14.1322467"><ele>31.0</ele><time>2026-05-01T15:02:09.279Z</time></trkpt><trkpt lat="42.3905183" lon="14.1323283"><ele>30.75</ele><time>2026-05-01T15:02:10.279Z</time></trkpt><trkpt lat="42.3906067" lon="14.1324083"><ele>30.5</ele><time>2026-05-01T15:02:11.28Z</time></trkpt><trkpt lat="42.3907017" lon="14.1324917"><ele>30.25</ele><time>2026-05-01T15:02:12.279Z</time></trkpt><trkpt lat="42.3907983" lon="14.1325767"><ele>30.0</ele><time>2026-05-01T15:02:13.279Z</time></trkpt><trkpt lat="42.3909017" lon="14.1326683"><ele>30.0</ele><time>2026-05-01T15:02:14.279Z</time></trkpt><trkpt lat="42.391005" lon="14.1327633"><ele>30.0</ele><time>2026-05-01T15:02:15.279Z</time></trkpt><trkpt lat="42.39111" lon="14.1328617"><ele>30.0</ele><time>2026-05-01T15:02:16.279Z</time></trkpt><trkpt lat="42.3912133" lon="14.13295"><ele>30.0</ele><time>2026-05-01T15:02:17.279Z</time></trkpt><trkpt lat="42.3913133" lon="14.13305"><ele>30.0</ele><time>2026-05-01T15:02:18.279Z</time></trkpt><trkpt lat="42.3914167" lon="14.133145"><ele>30.0</ele><time>2026-05-01T15:02:19.279Z</time></trkpt><trkpt lat="42.3915067" lon="14.133235"><ele>30.0</ele><time>2026-05-01T15:02:20.279Z</time></trkpt><trkpt lat="42.3915967" lon="14.1333183"><ele>30.0</ele><time>2026-05-01T15:02:21.279Z</time></trkpt><trkpt lat="42.3916833" lon="14.1334067"><ele>30.0</ele><time>2026-05-01T15:02:22.279Z</time></trkpt><trkpt lat="42.391775" lon="14.1334983"><ele>30.0</ele><time>2026-05-01T15:02:23.279Z</time></trkpt><trkpt lat="42.39187" lon="14.1335833"><ele>30.0</ele><time>2026-05-01T15:02:24.279Z</time></trkpt><trkpt lat="42.3919617" lon="14.133655"><ele>30.0</ele><time>2026-05-01T15:02:25.279Z</time></trkpt><trkpt lat="42.392055" lon="14.1337283"><ele>30.0</ele><time>2026-05-01T15:02:26.279Z</time></trkpt><trkpt lat="42.392155" lon="14.13381"><ele>29.75</ele><time>2026-05-01T15:02:27.279Z</time></trkpt><trkpt lat="42.3922417" lon="14.1339017"><ele>29.5</ele><time>2026-05-01T15:02:28.279Z</time></trkpt><trkpt lat="42.3923283" lon="14.134005"><ele>29.25</ele><time>2026-05-01T15:02:29.279Z</time></trkpt><trkpt lat="42.3924083" lon="14.1341133"><ele>29.0</ele><time>2026-05-01T15:02:30.279Z</time></trkpt><trkpt lat="42.3924833" lon="14.1342283"><ele>29.0</ele><time>2026-05-01T15:02:31.279Z</time></trkpt><trkpt lat="42.3925683" lon="14.134365"><ele>29.0</ele><time>2026-05-01T15:02:32.279Z</time></trkpt><trkpt lat="42.39265" lon="14.1344717"><ele>29.0</ele><time>2026-05-01T15:02:33.279Z</time></trkpt><trkpt lat="42.3927367" lon="14.1345767"><ele>29.0</ele><time>2026-05-01T15:02:34.279Z</time></trkpt><trkpt lat="42.392815" lon="14.1346517"><ele>29.25</ele><time>2026-05-01T15:02:35.279Z</time></trkpt><trkpt lat="42.3930383" lon="14.1345767"><ele>29.5</ele><time>2026-05-01T15:02:37.279Z</time></trkpt><trkpt lat="42.393125" lon="14.1346733"><ele>29.75</ele><time>2026-05-01T15:02:38.279Z</time></trkpt><trkpt lat="42.3932117" lon="14.13475"><ele>30.0</ele><time>2026-05-01T15:02:39.279Z</time></trkpt><trkpt lat="42.39331" lon="14.1348383"><ele>29.4</ele><time>2026-05-01T15:02:40.279Z</time></trkpt><trkpt lat="42.3933983" lon="14.13492"><ele>28.8</ele><time>2026-05-01T15:02:41.279Z</time></trkpt><trkpt lat="42.3934933" lon="14.1350067"><ele>28.200000000000003</ele><time>2026-05-01T15:02:42.279Z</time></trkpt><trkpt lat="42.3935883" lon="14.1350867"><ele>27.6</ele><time>2026-05-01T15:02:43.279Z</time></trkpt><trkpt lat="42.3936783" lon="14.1351683"><ele>27.0</ele><time>2026-05-01T15:02:44.279Z</time></trkpt><trkpt lat="42.3937717" lon="14.1352467"><ele>27.6</ele><time>2026-05-01T15:02:45.279Z</time></trkpt><trkpt lat="42.3938667" lon="14.13533"><ele>28.200000000000003</ele><time>2026-05-01T15:02:46.28Z</time></trkpt><trkpt lat="42.3939567" lon="14.1354133"><ele>28.8</ele><time>2026-05-01T15:02:47.279Z</time></trkpt><trkpt lat="42.3940467" lon="14.135495"><ele>29.4</ele><time>2026-05-01T15:02:48.279Z</time></trkpt><trkpt lat="42.3941417" lon="14.135575"><ele>30.0</ele><time>2026-05-01T15:02:49.279Z</time></trkpt><trkpt lat="42.3942183" lon="14.1356517"><ele>29.2</ele><time>2026-05-01T15:02:50.279Z</time></trkpt><trkpt lat="42.39431" lon="14.1357383"><ele>28.4</ele><time>2026-05-01T15:02:51.279Z</time></trkpt><trkpt lat="42.3943967" lon="14.1358133"><ele>27.6</ele><time>2026-05-01T15:02:52.279Z</time></trkpt><trkpt lat="42.3944833" lon="14.1358917"><ele>26.8</ele><time>2026-05-01T15:02:53.279Z</time></trkpt><trkpt lat="42.3945717" lon="14.1359717"><ele>26.0</ele><time>2026-05-01T15:02:54.279Z</time></trkpt><trkpt lat="42.3946533" lon="14.1360533"><ele>26.6</ele><time>2026-05-01T15:02:55.28Z</time></trkpt><trkpt lat="42.3947317" lon="14.1361317"><ele>27.200000000000003</ele><time>2026-05-01T15:02:56.279Z</time></trkpt><trkpt lat="42.3948117" lon="14.136205"><ele>27.799999999999997</ele><time>2026-05-01T15:02:57.28Z</time></trkpt><trkpt lat="42.3948917" lon="14.1362833"><ele>28.4</ele><time>2026-05-01T15:02:58.279Z</time></trkpt><trkpt lat="42.3949783" lon="14.1363567"><ele>29.0</ele><time>2026-05-01T15:02:59.279Z</time></trkpt><trkpt lat="42.3950683" lon="14.1364283"><ele>29.0</ele><time>2026-05-01T15:03:00.279Z</time></trkpt><trkpt lat="42.395155" lon="14.1365083"><ele>29.0</ele><time>2026-05-01T15:03:01.279Z</time></trkpt><trkpt lat="42.3952417" lon="14.13659"><ele>29.0</ele><time>2026-05-01T15:03:02.279Z</time></trkpt><trkpt lat="42.3953267" lon="14.1366567"><ele>29.0</ele><time>2026-05-01T15:03:03.279Z</time></trkpt><trkpt lat="42.395415" lon="14.136735"><ele>29.0</ele><time>2026-05-01T15:03:04.28Z</time></trkpt><trkpt lat="42.3955067" lon="14.1368133"><ele>28.4</ele><time>2026-05-01T15:03:05.279Z</time></trkpt><trkpt lat="42.3955933" lon="14.1368933"><ele>27.799999999999997</ele><time>2026-05-01T15:03:06.279Z</time></trkpt><trkpt lat="42.3956767" lon="14.1369617"><ele>27.200000000000003</ele><time>2026-05-01T15:03:07.28Z</time></trkpt><trkpt lat="42.3957567" lon="14.1370317"><ele>26.6</ele><time>2026-05-01T15:03:08.279Z</time></trkpt><trkpt lat="42.3958417" lon="14.1371117"><ele>26.0</ele><time>2026-05-01T15:03:09.279Z</time></trkpt><trkpt lat="42.39593" lon="14.137185"><ele>26.0</ele><time>2026-05-01T15:03:10.279Z</time></trkpt><trkpt lat="42.3960133" lon="14.13726"><ele>26.0</ele><time>2026-05-01T15:03:11.279Z</time></trkpt><trkpt lat="42.3961" lon="14.1373333"><ele>26.0</ele><time>2026-05-01T15:03:12.279Z</time></trkpt><trkpt lat="42.3961833" lon="14.1373983"><ele>26.0</ele><time>2026-05-01T15:03:13.28Z</time></trkpt><trkpt lat="42.396265" lon="14.1374767"><ele>26.0</ele><time>2026-05-01T15:03:14.279Z</time></trkpt><trkpt lat="42.3963417" lon="14.1375483"><ele>26.200000000000003</ele><time>2026-05-01T15:03:15.279Z</time></trkpt><trkpt lat="42.3964217" lon="14.1376183"><ele>26.400000000000002</ele><time>2026-05-01T15:03:16.279Z</time></trkpt><trkpt lat="42.3965017" lon="14.1376883"><ele>26.6</ele><time>2026-05-01T15:03:17.279Z</time></trkpt><trkpt lat="42.39658" lon="14.137755"><ele>26.8</ele><time>2026-05-01T15:03:18.279Z</time></trkpt><trkpt lat="42.3966633" lon="14.1378217"><ele>27.0</ele><time>2026-05-01T15:03:19.279Z</time></trkpt><trkpt lat="42.39674" lon="14.1378967"><ele>27.0</ele><time>2026-05-01T15:03:20.279Z</time></trkpt><trkpt lat="42.396825" lon="14.1379683"><ele>27.000000000000004</ele><time>2026-05-01T15:03:21.28Z</time></trkpt><trkpt lat="42.3969117" lon="14.1380483"><ele>27.000000000000004</ele><time>2026-05-01T15:03:22.279Z</time></trkpt><trkpt lat="42.397" lon="14.1381333"><ele>27.0</ele><time>2026-05-01T15:03:23.279Z</time></trkpt><trkpt lat="42.3971017" lon="14.1382183"><ele>27.0</ele><time>2026-05-01T15:03:24.279Z</time></trkpt><trkpt lat="42.3971983" lon="14.1383033"><ele>26.8</ele><time>2026-05-01T15:03:25.279Z</time></trkpt><trkpt lat="42.39729" lon="14.138385"><ele>26.6</ele><time>2026-05-01T15:03:26.279Z</time></trkpt><trkpt lat="42.3973783" lon="14.13846"><ele>26.400000000000002</ele><time>2026-05-01T15:03:27.279Z</time></trkpt><trkpt lat="42.39746" lon="14.138535"><ele>26.200000000000003</ele><time>2026-05-01T15:03:28.279Z</time></trkpt><trkpt lat="42.3975383" lon="14.1386083"><ele>26.0</ele><time>2026-05-01T15:03:29.279Z</time></trkpt><trkpt lat="42.3976183" lon="14.1386833"><ele>26.0</ele><time>2026-05-01T15:03:30.279Z</time></trkpt><trkpt lat="42.397705" lon="14.1387617"><ele>26.0</ele><time>2026-05-01T15:03:31.279Z</time></trkpt><trkpt lat="42.3977983" lon="14.138845"><ele>26.0</ele><time>2026-05-01T15:03:32.279Z</time></trkpt><trkpt lat="42.3978967" lon="14.13893"><ele>26.0</ele><time>2026-05-01T15:03:33.279Z</time></trkpt><trkpt lat="42.3979967" lon="14.1390167"><ele>26.0</ele><time>2026-05-01T15:03:34.279Z</time></trkpt><trkpt lat="42.3981083" lon="14.1391117"><ele>26.0</ele><time>2026-05-01T15:03:35.279Z</time></trkpt><trkpt lat="42.3982183" lon="14.1392067"><ele>26.0</ele><time>2026-05-01T15:03:36.279Z</time></trkpt><trkpt lat="42.3983333" lon="14.1393067"><ele>26.0</ele><time>2026-05-01T15:03:37.279Z</time></trkpt><trkpt lat="42.3984467" lon="14.1394033"><ele>26.0</ele><time>2026-05-01T15:03:38.28Z</time></trkpt><trkpt lat="42.39856" lon="14.1395017"><ele>26.0</ele><time>2026-05-01T15:03:39.279Z</time></trkpt><trkpt lat="42.3986767" lon="14.13961"><ele>26.0</ele><time>2026-05-01T15:03:40.279Z</time></trkpt><trkpt lat="42.3987883" lon="14.1397117"><ele>26.0</ele><time>2026-05-01T15:03:41.279Z</time></trkpt><trkpt lat="42.398895" lon="14.139795"><ele>25.75</ele><time>2026-05-01T15:03:42.279Z</time></trkpt><trkpt lat="42.399" lon="14.1398917"><ele>25.5</ele><time>2026-05-01T15:03:43.279Z</time></trkpt><trkpt lat="42.3991133" lon="14.139985"><ele>25.25</ele><time>2026-05-01T15:03:44.28Z</time></trkpt><trkpt lat="42.3992333" lon="14.1400983"><ele>25.0</ele><time>2026-05-01T15:03:45.279Z</time></trkpt><trkpt lat="42.3993567" lon="14.1402133"><ele>25.0</ele><time>2026-05-01T15:03:46.279Z</time></trkpt><trkpt lat="42.3994783" lon="14.14033"><ele>25.0</ele><time>2026-05-01T15:03:47.279Z</time></trkpt><trkpt lat="42.3996017" lon="14.1404383"><ele>25.0</ele><time>2026-05-01T15:03:48.279Z</time></trkpt><trkpt lat="42.3997117" lon="14.1405483"><ele>25.0</ele><time>2026-05-01T15:03:49.279Z</time></trkpt><trkpt lat="42.39982" lon="14.1406417"><ele>25.25</ele><time>2026-05-01T15:03:50.279Z</time></trkpt><trkpt lat="42.3999267" lon="14.14074"><ele>25.5</ele><time>2026-05-01T15:03:51.279Z</time></trkpt><trkpt lat="42.4000283" lon="14.1408367"><ele>25.75</ele><time>2026-05-01T15:03:52.279Z</time></trkpt><trkpt lat="42.40013" lon="14.1409283"><ele>26.0</ele><time>2026-05-01T15:03:53.28Z</time></trkpt><trkpt lat="42.4002233" lon="14.14101"><ele>26.0</ele><time>2026-05-01T15:03:54.28Z</time></trkpt><trkpt lat="42.4003167" lon="14.141095"><ele>26.0</ele><time>2026-05-01T15:03:55.279Z</time></trkpt><trkpt lat="42.4004033" lon="14.1411783"><ele>26.0</ele><time>2026-05-01T15:03:56.279Z</time></trkpt><trkpt lat="42.4005067" lon="14.1412633"><ele>26.0</ele><time>2026-05-01T15:03:57.279Z</time></trkpt><trkpt lat="42.4006117" lon="14.1413567"><ele>25.75</ele><time>2026-05-01T15:03:58.279Z</time></trkpt><trkpt lat="42.400725" lon="14.1414583"><ele>25.5</ele><time>2026-05-01T15:03:59.279Z</time></trkpt><trkpt lat="42.4008417" lon="14.141555"><ele>25.25</ele><time>2026-05-01T15:04:00.279Z</time></trkpt><trkpt lat="42.4009617" lon="14.1416617"><ele>25.0</ele><time>2026-05-01T15:04:01.279Z</time></trkpt><trkpt lat="42.4010817" lon="14.1417667"><ele>25.0</ele><time>2026-05-01T15:04:02.279Z</time></trkpt><trkpt lat="42.4012067" lon="14.1418833"><ele>25.0</ele><time>2026-05-01T15:04:03.279Z</time></trkpt><trkpt lat="42.4013267" lon="14.1419967"><ele>25.0</ele><time>2026-05-01T15:04:04.279Z</time></trkpt><trkpt lat="42.4014433" lon="14.1421"><ele>25.0</ele><time>2026-05-01T15:04:05.279Z</time></trkpt><trkpt lat="42.4015533" lon="14.1422033"><ele>25.0</ele><time>2026-05-01T15:04:06.279Z</time></trkpt><trkpt lat="42.4016583" lon="14.1422983"><ele>25.0</ele><time>2026-05-01T15:04:07.279Z</time></trkpt><trkpt lat="42.4017567" lon="14.1423833"><ele>25.0</ele><time>2026-05-01T15:04:08.279Z</time></trkpt><trkpt lat="42.4018483" lon="14.1424717"><ele>25.0</ele><time>2026-05-01T15:04:09.279Z</time></trkpt><trkpt lat="42.4019333" lon="14.1425467"><ele>24.75</ele><time>2026-05-01T15:04:10.279Z</time></trkpt><trkpt lat="42.40202" lon="14.1426267"><ele>24.5</ele><time>2026-05-01T15:04:11.28Z</time></trkpt><trkpt lat="42.402115" lon="14.1427083"><ele>24.25</ele><time>2026-05-01T15:04:12.279Z</time></trkpt><trkpt lat="42.4022167" lon="14.1427967"><ele>24.0</ele><time>2026-05-01T15:04:13.279Z</time></trkpt><trkpt lat="42.4023183" lon="14.1428817"><ele>24.0</ele><time>2026-05-01T15:04:14.28Z</time></trkpt><trkpt lat="42.4024283" lon="14.1429717"><ele>24.0</ele><time>2026-05-01T15:04:15.279Z</time></trkpt><trkpt lat="42.4025417" lon="14.1430633"><ele>24.0</ele><time>2026-05-01T15:04:16.279Z</time></trkpt><trkpt lat="42.4026583" lon="14.14316"><ele>24.0</ele><time>2026-05-01T15:04:17.28Z</time></trkpt><trkpt lat="42.4027783" lon="14.14326"><ele>24.0</ele><time>2026-05-01T15:04:18.279Z</time></trkpt><trkpt lat="42.4029" lon="14.1433533"><ele>24.0</ele><time>2026-05-01T15:04:19.279Z</time></trkpt><trkpt lat="42.4030217" lon="14.14346"><ele>24.0</ele><time>2026-05-01T15:04:20.279Z</time></trkpt><trkpt lat="42.4031417" lon="14.14357"><ele>24.0</ele><time>2026-05-01T15:04:21.279Z</time></trkpt><trkpt lat="42.40326" lon="14.143685"><ele>24.0</ele><time>2026-05-01T15:04:22.279Z</time></trkpt><trkpt lat="42.4033783" lon="14.1437933"><ele>24.0</ele><time>2026-05-01T15:04:23.279Z</time></trkpt><trkpt lat="42.403495" lon="14.1439017"><ele>24.0</ele><time>2026-05-01T15:04:24.279Z</time></trkpt><trkpt lat="42.4036133" lon="14.144005"><ele>24.0</ele><time>2026-05-01T15:04:25.279Z</time></trkpt><trkpt lat="42.4037167" lon="14.1441017"><ele>24.2</ele><time>2026-05-01T15:04:26.279Z</time></trkpt><trkpt lat="42.403805" lon="14.1441867"><ele>24.4</ele><time>2026-05-01T15:04:27.279Z</time></trkpt><trkpt lat="42.4038883" lon="14.1442667"><ele>24.6</ele><time>2026-05-01T15:04:28.279Z</time></trkpt><trkpt lat="42.40397" lon="14.144345"><ele>24.8</ele><time>2026-05-01T15:04:29.279Z</time></trkpt><trkpt lat="42.4040533" lon="14.1444233"><ele>25.0</ele><time>2026-05-01T15:04:30.279Z</time></trkpt><trkpt lat="42.40413" lon="14.1445"><ele>25.000000000000004</ele><time>2026-05-01T15:04:31.279Z</time></trkpt><trkpt lat="42.4042" lon="14.14457"><ele>25.0</ele><time>2026-05-01T15:04:32.279Z</time></trkpt><trkpt lat="42.4042683" lon="14.1446333"><ele>25.0</ele><time>2026-05-01T15:04:33.279Z</time></trkpt><trkpt lat="42.4043333" lon="14.1447017"><ele>25.0</ele><time>2026-05-01T15:04:34.279Z</time></trkpt><trkpt lat="42.4044017" lon="14.14477"><ele>25.000000000000004</ele><time>2026-05-01T15:04:35.279Z</time></trkpt><trkpt lat="42.404475" lon="14.1448417"><ele>25.0</ele><time>2026-05-01T15:04:36.279Z</time></trkpt><trkpt lat="42.4045583" lon="14.1449083"><ele>25.2</ele><time>2026-05-01T15:04:37.279Z</time></trkpt><trkpt lat="42.40465" lon="14.1449833"><ele>25.4</ele><time>2026-05-01T15:04:38.279Z</time></trkpt><trkpt lat="42.404735" lon="14.14506"><ele>25.6</ele><time>2026-05-01T15:04:39.28Z</time></trkpt><trkpt lat="42.40482" lon="14.1451383"><ele>25.8</ele><time>2026-05-01T15:04:40.279Z</time></trkpt><trkpt lat="42.4049033" lon="14.1452083"><ele>26.0</ele><time>2026-05-01T15:04:41.28Z</time></trkpt><trkpt lat="42.4049817" lon="14.1452683"><ele>25.499999999999996</ele><time>2026-05-01T15:04:42.279Z</time></trkpt><trkpt lat="42.4050517" lon="14.14533"><ele>25.0</ele><time>2026-05-01T15:04:43.279Z</time></trkpt><trkpt lat="42.4051217" lon="14.1453867"><ele>24.5</ele><time>2026-05-01T15:04:44.279Z</time></trkpt><trkpt lat="42.4051883" lon="14.145445"><ele>24.0</ele><time>2026-05-01T15:04:45.279Z</time></trkpt><trkpt lat="42.4052467" lon="14.1455"><ele>23.5</ele><time>2026-05-01T15:04:46.279Z</time></trkpt><trkpt lat="42.405305" lon="14.14556"><ele>23.0</ele><time>2026-05-01T15:04:47.279Z</time></trkpt><trkpt lat="42.4053667" lon="14.145615"><ele>22.833333333333336</ele><time>2026-05-01T15:04:48.279Z</time></trkpt><trkpt lat="42.405445" lon="14.1457233"><ele>22.666666666666668</ele><time>2026-05-01T15:04:50.279Z</time></trkpt><trkpt lat="42.4054617" lon="14.1458417"><ele>22.5</ele><time>2026-05-01T15:04:52.279Z</time></trkpt><trkpt lat="42.4054517" lon="14.145955"><ele>22.333333333333332</ele><time>2026-05-01T15:04:54.279Z</time></trkpt><trkpt lat="42.40548" lon="14.1460533"><ele>22.166666666666664</ele><time>2026-05-01T15:04:56.28Z</time></trkpt><trkpt lat="42.4055533" lon="14.1460817"><ele>22.0</ele><time>2026-05-01T15:04:58.28Z</time></trkpt><trkpt lat="42.405665" lon="14.1460583"><ele>22.0</ele><time>2026-05-01T15:05:00.279Z</time></trkpt><trkpt lat="42.4057867" lon="14.1460333"><ele>22.0</ele><time>2026-05-01T15:05:02.28Z</time></trkpt><trkpt lat="42.4059" lon="14.146095"><ele>22.0</ele><time>2026-05-01T15:05:04.279Z</time></trkpt><trkpt lat="42.405955" lon="14.14615"><ele>22.0</ele><time>2026-05-01T15:05:05.279Z</time></trkpt><trkpt lat="42.4060267" lon="14.146215"><ele>22.0</ele><time>2026-05-01T15:05:06.279Z</time></trkpt><trkpt lat="42.4061033" lon="14.1462867"><ele>22.0</ele><time>2026-05-01T15:05:07.279Z</time></trkpt><trkpt lat="42.406175" lon="14.1463583"><ele>22.0</ele><time>2026-05-01T15:05:08.279Z</time></trkpt><trkpt lat="42.4062567" lon="14.1464317"><ele>22.0</ele><time>2026-05-01T15:05:09.279Z</time></trkpt><trkpt lat="42.4063417" lon="14.1465067"><ele>22.0</ele><time>2026-05-01T15:05:10.279Z</time></trkpt><trkpt lat="42.4064317" lon="14.1465767"><ele>22.0</ele><time>2026-05-01T15:05:11.279Z</time></trkpt><trkpt lat="42.40652" lon="14.1466467"><ele>22.0</ele><time>2026-05-01T15:05:12.279Z</time></trkpt><trkpt lat="42.4066083" lon="14.14672"><ele>22.0</ele><time>2026-05-01T15:05:13.279Z</time></trkpt><trkpt lat="42.40671" lon="14.1467983"><ele>22.0</ele><time>2026-05-01T15:05:14.279Z</time></trkpt><trkpt lat="42.4068117" lon="14.1468583"><ele>22.0</ele><time>2026-05-01T15:05:15.28Z</time></trkpt><trkpt lat="42.40692" lon="14.146915"><ele>22.0</ele><time>2026-05-01T15:05:16.279Z</time></trkpt><trkpt lat="42.4070333" lon="14.1469617"><ele>21.0</ele><time>2026-05-01T15:05:17.279Z</time></trkpt><trkpt lat="42.4071617" lon="14.1470117"><ele>20.0</ele><time>2026-05-01T15:05:18.279Z</time></trkpt><trkpt lat="42.4072867" lon="14.1470417"><ele>19.0</ele><time>2026-05-01T15:05:19.279Z</time></trkpt><trkpt lat="42.40741" lon="14.1470717"><ele>18.0</ele><time>2026-05-01T15:05:20.279Z</time></trkpt><trkpt lat="42.4075317" lon="14.1470933"><ele>18.0</ele><time>2026-05-01T15:05:21.279Z</time></trkpt><trkpt lat="42.4076533" lon="14.1471183"><ele>18.0</ele><time>2026-05-01T15:05:22.279Z</time></trkpt><trkpt lat="42.4077717" lon="14.14714"><ele>18.0</ele><time>2026-05-01T15:05:23.279Z</time></trkpt><trkpt lat="42.407895" lon="14.1471633"><ele>18.0</ele><time>2026-05-01T15:05:24.279Z</time></trkpt><trkpt lat="42.4080217" lon="14.1471867"><ele>17.75</ele><time>2026-05-01T15:05:25.279Z</time></trkpt><trkpt lat="42.4081467" lon="14.14722"><ele>17.5</ele><time>2026-05-01T15:05:26.279Z</time></trkpt><trkpt lat="42.408265" lon="14.1472633"><ele>17.25</ele><time>2026-05-01T15:05:27.279Z</time></trkpt><trkpt lat="42.4083817" lon="14.1473167"><ele>17.0</ele><time>2026-05-01T15:05:28.279Z</time></trkpt><trkpt lat="42.4084983" lon="14.1473717"><ele>17.0</ele><time>2026-05-01T15:05:29.279Z</time></trkpt><trkpt lat="42.4086133" lon="14.147435"><ele>17.0</ele><time>2026-05-01T15:05:30.279Z</time></trkpt><trkpt lat="42.4087267" lon="14.1475033"><ele>17.0</ele><time>2026-05-01T15:05:31.279Z</time></trkpt><trkpt lat="42.4088417" lon="14.147575"><ele>17.0</ele><time>2026-05-01T15:05:32.279Z</time></trkpt><trkpt lat="42.4089667" lon="14.1476567"><ele>17.0</ele><time>2026-05-01T15:05:33.279Z</time></trkpt><trkpt lat="42.4090967" lon="14.1477533"><ele>17.0</ele><time>2026-05-01T15:05:34.279Z</time></trkpt><trkpt lat="42.4092483" lon="14.1478617"><ele>17.0</ele><time>2026-05-01T15:05:35.279Z</time></trkpt><trkpt lat="42.4094017" lon="14.147985"><ele>17.0</ele><time>2026-05-01T15:05:36.279Z</time></trkpt><trkpt lat="42.4095567" lon="14.1481067"><ele>17.0</ele><time>2026-05-01T15:05:37.279Z</time></trkpt><trkpt lat="42.409705" lon="14.14823"><ele>17.0</ele><time>2026-05-01T15:05:38.279Z</time></trkpt><trkpt lat="42.4098533" lon="14.148345"><ele>17.666666666666668</ele><time>2026-05-01T15:05:39.279Z</time></trkpt><trkpt lat="42.4100067" lon="14.1484717"><ele>18.333333333333332</ele><time>2026-05-01T15:05:40.279Z</time></trkpt><trkpt lat="42.41016" lon="14.1485983"><ele>19.0</ele><time>2026-05-01T15:05:41.279Z</time></trkpt><trkpt lat="42.4103067" lon="14.1487183"><ele>19.0</ele><time>2026-05-01T15:05:42.279Z</time></trkpt><trkpt lat="42.41045" lon="14.148835"><ele>19.0</ele><time>2026-05-01T15:05:43.279Z</time></trkpt><trkpt lat="42.4105933" lon="14.14895"><ele>19.0</ele><time>2026-05-01T15:05:44.279Z</time></trkpt><trkpt lat="42.410735" lon="14.1490633"><ele>19.666666666666664</ele><time>2026-05-01T15:05:45.279Z</time></trkpt><trkpt lat="42.4108783" lon="14.1491783"><ele>20.333333333333332</ele><time>2026-05-01T15:05:46.279Z</time></trkpt><trkpt lat="42.411015" lon="14.1492917"><ele>21.0</ele><time>2026-05-01T15:05:47.279Z</time></trkpt><trkpt lat="42.4111617" lon="14.149405"><ele>21.0</ele><time>2026-05-01T15:05:48.279Z</time></trkpt><trkpt lat="42.41131" lon="14.1495217"><ele>21.0</ele><time>2026-05-01T15:05:49.279Z</time></trkpt><trkpt lat="42.4114633" lon="14.1496433"><ele>21.0</ele><time>2026-05-01T15:05:50.28Z</time></trkpt><trkpt lat="42.41162" lon="14.149765"><ele>20.0</ele><time>2026-05-01T15:05:51.279Z</time></trkpt><trkpt lat="42.4117833" lon="14.1499033"><ele>19.0</ele><time>2026-05-01T15:05:52.279Z</time></trkpt><trkpt lat="42.4119617" lon="14.1500433"><ele>18.0</ele><time>2026-05-01T15:05:53.279Z</time></trkpt><trkpt lat="42.41215" lon="14.1501933"><ele>17.0</ele><time>2026-05-01T15:05:54.279Z</time></trkpt><trkpt lat="42.4123283" lon="14.1503183"><ele>16.0</ele><time>2026-05-01T15:05:55.279Z</time></trkpt><trkpt lat="42.4125" lon="14.1504467"><ele>15.0</ele><time>2026-05-01T15:05:56.279Z</time></trkpt><trkpt lat="42.4126567" lon="14.150575"><ele>15.0</ele><time>2026-05-01T15:05:57.279Z</time></trkpt><trkpt lat="42.41281" lon="14.1507117"><ele>15.0</ele><time>2026-05-01T15:05:58.279Z</time></trkpt><trkpt lat="42.4129633" lon="14.1508483"><ele>15.0</ele><time>2026-05-01T15:05:59.279Z</time></trkpt><trkpt lat="42.413105" lon="14.1509967"><ele>15.0</ele><time>2026-05-01T15:06:00.279Z</time></trkpt><trkpt lat="42.413255" lon="14.1511567"><ele>15.0</ele><time>2026-05-01T15:06:01.279Z</time></trkpt><trkpt lat="42.4134033" lon="14.15131"><ele>15.0</ele><time>2026-05-01T15:06:02.279Z</time></trkpt><trkpt lat="42.4135467" lon="14.1514467"><ele>15.333333333333332</ele><time>2026-05-01T15:06:03.279Z</time></trkpt><trkpt lat="42.4136967" lon="14.15158"><ele>15.666666666666666</ele><time>2026-05-01T15:06:04.279Z</time></trkpt><trkpt lat="42.4138533" lon="14.1517017"><ele>16.0</ele><time>2026-05-01T15:06:05.279Z</time></trkpt><trkpt lat="42.414005" lon="14.1518033"><ele>16.0</ele><time>2026-05-01T15:06:06.279Z</time></trkpt><trkpt lat="42.4141567" lon="14.1518833"><ele>16.0</ele><time>2026-05-01T15:06:07.279Z</time></trkpt><trkpt lat="42.414315" lon="14.151945"><ele>16.0</ele><time>2026-05-01T15:06:08.279Z</time></trkpt><trkpt lat="42.4144917" lon="14.1520067"><ele>15.666666666666666</ele><time>2026-05-01T15:06:09.279Z</time></trkpt><trkpt lat="42.4146817" lon="14.1520483"><ele>15.333333333333332</ele><time>2026-05-01T15:06:10.28Z</time></trkpt><trkpt lat="42.4148667" lon="14.1520683"><ele>15.0</ele><time>2026-05-01T15:06:11.28Z</time></trkpt><trkpt lat="42.415055" lon="14.152085"><ele>15.0</ele><time>2026-05-01T15:06:12.279Z</time></trkpt><trkpt lat="42.4152333" lon="14.1520883"><ele>15.0</ele><time>2026-05-01T15:06:13.279Z</time></trkpt><trkpt lat="42.4154" lon="14.152095"><ele>15.0</ele><time>2026-05-01T15:06:14.28Z</time></trkpt><trkpt lat="42.415575" lon="14.15211"><ele>15.333333333333332</ele><time>2026-05-01T15:06:15.279Z</time></trkpt><trkpt lat="42.4157383" lon="14.1521383"><ele>15.666666666666666</ele><time>2026-05-01T15:06:16.279Z</time></trkpt><trkpt lat="42.4158933" lon="14.1521817"><ele>16.0</ele><time>2026-05-01T15:06:17.28Z</time></trkpt><trkpt lat="42.41605" lon="14.15224"><ele>16.0</ele><time>2026-05-01T15:06:18.279Z</time></trkpt><trkpt lat="42.4161967" lon="14.152325"><ele>16.0</ele><time>2026-05-01T15:06:19.279Z</time></trkpt><trkpt lat="42.4163383" lon="14.1524383"><ele>16.0</ele><time>2026-05-01T15:06:20.279Z</time></trkpt><trkpt lat="42.4164567" lon="14.152585"><ele>17.333333333333332</ele><time>2026-05-01T15:06:21.279Z</time></trkpt><trkpt lat="42.4165633" lon="14.15275"><ele>18.666666666666668</ele><time>2026-05-01T15:06:22.279Z</time></trkpt><trkpt lat="42.4166733" lon="14.152905"><ele>20.0</ele><time>2026-05-01T15:06:23.279Z</time></trkpt><trkpt lat="42.41679" lon="14.1530633"><ele>19.666666666666668</ele><time>2026-05-01T15:06:24.279Z</time></trkpt><trkpt lat="42.41691" lon="14.1532183"><ele>19.333333333333332</ele><time>2026-05-01T15:06:25.279Z</time></trkpt><trkpt lat="42.417025" lon="14.1533767"><ele>19.0</ele><time>2026-05-01T15:06:26.279Z</time></trkpt><trkpt lat="42.4171417" lon="14.153545"><ele>19.0</ele><time>2026-05-01T15:06:27.279Z</time></trkpt><trkpt lat="42.4172617" lon="14.1537133"><ele>19.0</ele><time>2026-05-01T15:06:28.279Z</time></trkpt><trkpt lat="42.4173933" lon="14.1538817"><ele>19.0</ele><time>2026-05-01T15:06:29.279Z</time></trkpt><trkpt lat="42.41752" lon="14.1540517"><ele>19.0</ele><time>2026-05-01T15:06:30.279Z</time></trkpt><trkpt lat="42.41765" lon="14.1542233"><ele>19.0</ele><time>2026-05-01T15:06:31.279Z</time></trkpt><trkpt lat="42.4177867" lon="14.154395"><ele>19.0</ele><time>2026-05-01T15:06:32.28Z</time></trkpt><trkpt lat="42.4179267" lon="14.1545783"><ele>19.0</ele><time>2026-05-01T15:06:33.279Z</time></trkpt><trkpt lat="42.4180617" lon="14.1547667"><ele>19.0</ele><time>2026-05-01T15:06:34.279Z</time></trkpt><trkpt lat="42.41821" lon="14.1549533"><ele>19.0</ele><time>2026-05-01T15:06:35.279Z</time></trkpt><trkpt lat="42.4183467" lon="14.1551467"><ele>18.666666666666664</ele><time>2026-05-01T15:06:36.279Z</time></trkpt><trkpt lat="42.4184917" lon="14.1553483"><ele>18.333333333333332</ele><time>2026-05-01T15:06:37.279Z</time></trkpt><trkpt lat="42.418635" lon="14.1555517"><ele>18.0</ele><time>2026-05-01T15:06:38.279Z</time></trkpt><trkpt lat="42.4187683" lon="14.1557467"><ele>19.666666666666668</ele><time>2026-05-01T15:06:39.279Z</time></trkpt><trkpt lat="42.4188967" lon="14.15592"><ele>21.333333333333336</ele><time>2026-05-01T15:06:40.279Z</time></trkpt><trkpt lat="42.4190233" lon="14.15608"><ele>23.0</ele><time>2026-05-01T15:06:41.279Z</time></trkpt><trkpt lat="42.4191567" lon="14.1562367"><ele>23.0</ele><time>2026-05-01T15:06:42.279Z</time></trkpt><trkpt lat="42.419305" lon="14.1563567"><ele>23.0</ele><time>2026-05-01T15:06:43.279Z</time></trkpt><trkpt lat="42.4194633" lon="14.1564433"><ele>23.0</ele><time>2026-05-01T15:06:44.279Z</time></trkpt><trkpt lat="42.4196367" lon="14.156525"><ele>22.0</ele><time>2026-05-01T15:06:45.28Z</time></trkpt><trkpt lat="42.4198167" lon="14.1565983"><ele>21.0</ele><time>2026-05-01T15:06:46.279Z</time></trkpt><trkpt lat="42.4199933" lon="14.1566683"><ele>20.0</ele><time>2026-05-01T15:06:47.279Z</time></trkpt><trkpt lat="42.4201717" lon="14.1567517"><ele>20.0</ele><time>2026-05-01T15:06:48.279Z</time></trkpt><trkpt lat="42.4203583" lon="14.156825"><ele>20.0</ele><time>2026-05-01T15:06:49.279Z</time></trkpt><trkpt lat="42.4205433" lon="14.156895"><ele>20.0</ele><time>2026-05-01T15:06:50.28Z</time></trkpt><trkpt lat="42.4207283" lon="14.156985"><ele>20.333333333333336</ele><time>2026-05-01T15:06:51.279Z</time></trkpt><trkpt lat="42.4209067" lon="14.1570683"><ele>20.666666666666668</ele><time>2026-05-01T15:06:52.279Z</time></trkpt><trkpt lat="42.4210783" lon="14.1571433"><ele>21.0</ele><time>2026-05-01T15:06:53.279Z</time></trkpt><trkpt lat="42.42125" lon="14.1572117"><ele>21.666666666666668</ele><time>2026-05-01T15:06:54.28Z</time></trkpt><trkpt lat="42.421405" lon="14.1572767"><ele>22.333333333333336</ele><time>2026-05-01T15:06:55.279Z</time></trkpt><trkpt lat="42.42155" lon="14.1573417"><ele>23.0</ele><time>2026-05-01T15:06:56.279Z</time></trkpt><trkpt lat="42.4216883" lon="14.15739"><ele>22.4</ele><time>2026-05-01T15:06:57.279Z</time></trkpt><trkpt lat="42.4218233" lon="14.1574133"><ele>21.799999999999997</ele><time>2026-05-01T15:06:58.279Z</time></trkpt><trkpt lat="42.421935" lon="14.1574183"><ele>21.2</ele><time>2026-05-01T15:06:59.279Z</time></trkpt><trkpt lat="42.4220317" lon="14.157415"><ele>20.6</ele><time>2026-05-01T15:07:00.279Z</time></trkpt><trkpt lat="42.4221083" lon="14.157415"><ele>20.0</ele><time>2026-05-01T15:07:01.279Z</time></trkpt><trkpt lat="42.4222017" lon="14.1574217"><ele>20.0</ele><time>2026-05-01T15:07:03.28Z</time></trkpt><trkpt lat="42.4222867" lon="14.1574933"><ele>20.0</ele><time>2026-05-01T15:07:05.279Z</time></trkpt><trkpt lat="42.4223883" lon="14.1575367"><ele>20.0</ele><time>2026-05-01T15:07:07.279Z</time></trkpt><trkpt lat="42.4225" lon="14.1575617"><ele>20.0</ele><time>2026-05-01T15:07:09.279Z</time></trkpt><trkpt lat="42.4225967" lon="14.15761"><ele>20.0</ele><time>2026-05-01T15:07:11.279Z</time></trkpt><trkpt lat="42.4226517" lon="14.1576683"><ele>20.0</ele><time>2026-05-01T15:07:13.279Z</time></trkpt><trkpt lat="42.4227283" lon="14.1577417"><ele>20.0</ele><time>2026-05-01T15:07:26.28Z</time></trkpt><trkpt lat="42.4228217" lon="14.1578083"><ele>20.0</ele><time>2026-05-01T15:07:28.28Z</time></trkpt><trkpt lat="42.422885" lon="14.157845"><ele>20.0</ele><time>2026-05-01T15:07:29.279Z</time></trkpt><trkpt lat="42.42296" lon="14.1578783"><ele>20.0</ele><time>2026-05-01T15:07:30.279Z</time></trkpt><trkpt lat="42.4230433" lon="14.1579117"><ele>20.0</ele><time>2026-05-01T15:07:31.279Z</time></trkpt><trkpt lat="42.4231283" lon="14.1579517"><ele>19.6</ele><time>2026-05-01T15:07:32.279Z</time></trkpt><trkpt lat="42.423215" lon="14.1579883"><ele>19.2</ele><time>2026-05-01T15:07:33.28Z</time></trkpt><trkpt lat="42.4233" lon="14.1580233"><ele>18.8</ele><time>2026-05-01T15:07:34.279Z</time></trkpt><trkpt lat="42.4233867" lon="14.1580617"><ele>18.4</ele><time>2026-05-01T15:07:35.279Z</time></trkpt><trkpt lat="42.4234767" lon="14.1581"><ele>18.0</ele><time>2026-05-01T15:07:36.279Z</time></trkpt><trkpt lat="42.4235633" lon="14.1581333"><ele>18.0</ele><time>2026-05-01T15:07:37.28Z</time></trkpt><trkpt lat="42.4236467" lon="14.1581683"><ele>18.0</ele><time>2026-05-01T15:07:38.279Z</time></trkpt><trkpt lat="42.42374" lon="14.1582033"><ele>18.0</ele><time>2026-05-01T15:07:39.279Z</time></trkpt><trkpt lat="42.4238317" lon="14.1582333"><ele>18.0</ele><time>2026-05-01T15:07:40.279Z</time></trkpt><trkpt lat="42.4239283" lon="14.1582717"><ele>18.0</ele><time>2026-05-01T15:07:41.279Z</time></trkpt><trkpt lat="42.4240217" lon="14.158305"><ele>17.8</ele><time>2026-05-01T15:07:42.28Z</time></trkpt><trkpt lat="42.4241067" lon="14.1583483"><ele>17.6</ele><time>2026-05-01T15:07:43.28Z</time></trkpt><trkpt lat="42.424185" lon="14.1583933"><ele>17.4</ele><time>2026-05-01T15:07:44.279Z</time></trkpt><trkpt lat="42.4242767" lon="14.15844"><ele>17.2</ele><time>2026-05-01T15:07:45.279Z</time></trkpt><trkpt lat="42.4243667" lon="14.158485"><ele>17.0</ele><time>2026-05-01T15:07:46.279Z</time></trkpt><trkpt lat="42.4244667" lon="14.1585217"><ele>17.0</ele><time>2026-05-01T15:07:47.279Z</time></trkpt><trkpt lat="42.4245667" lon="14.158575"><ele>17.0</ele><time>2026-05-01T15:07:48.279Z</time></trkpt><trkpt lat="42.424665" lon="14.1586017"><ele>17.0</ele><time>2026-05-01T15:07:49.279Z</time></trkpt><trkpt lat="42.424765" lon="14.15863"><ele>17.0</ele><time>2026-05-01T15:07:50.279Z</time></trkpt><trkpt lat="42.4248617" lon="14.15867"><ele>17.0</ele><time>2026-05-01T15:07:51.279Z</time></trkpt><trkpt lat="42.42495" lon="14.1587117"><ele>17.166666666666668</ele><time>2026-05-01T15:07:52.28Z</time></trkpt><trkpt lat="42.4250367" lon="14.15875"><ele>17.333333333333336</ele><time>2026-05-01T15:07:53.279Z</time></trkpt><trkpt lat="42.425125" lon="14.1587917"><ele>17.5</ele><time>2026-05-01T15:07:54.279Z</time></trkpt><trkpt lat="42.4252117" lon="14.15883"><ele>17.666666666666668</ele><time>2026-05-01T15:07:55.279Z</time></trkpt><trkpt lat="42.42529" lon="14.15887"><ele>17.833333333333332</ele><time>2026-05-01T15:07:56.28Z</time></trkpt><trkpt lat="42.4253667" lon="14.158905"><ele>18.0</ele><time>2026-05-01T15:07:57.279Z</time></trkpt><trkpt lat="42.42544" lon="14.158945"><ele>18.166666666666668</ele><time>2026-05-01T15:07:58.28Z</time></trkpt><trkpt lat="42.425515" lon="14.15899"><ele>18.333333333333332</ele><time>2026-05-01T15:07:59.28Z</time></trkpt><trkpt lat="42.425595" lon="14.1590267"><ele>18.5</ele><time>2026-05-01T15:08:00.279Z</time></trkpt><trkpt lat="42.425675" lon="14.159065"><ele>18.666666666666664</ele><time>2026-05-01T15:08:01.279Z</time></trkpt><trkpt lat="42.4257533" lon="14.15911"><ele>18.833333333333332</ele><time>2026-05-01T15:08:02.279Z</time></trkpt><trkpt lat="42.4258333" lon="14.159155"><ele>19.0</ele><time>2026-05-01T15:08:03.279Z</time></trkpt><trkpt lat="42.4259217" lon="14.1592033"><ele>19.0</ele><time>2026-05-01T15:08:04.279Z</time></trkpt><trkpt lat="42.4260133" lon="14.159255"><ele>19.0</ele><time>2026-05-01T15:08:05.279Z</time></trkpt><trkpt lat="42.4261117" lon="14.1593"><ele>19.0</ele><time>2026-05-01T15:08:06.279Z</time></trkpt><trkpt lat="42.4262083" lon="14.159365"><ele>19.0</ele><time>2026-05-01T15:08:07.279Z</time></trkpt><trkpt lat="42.426305" lon="14.1594267"><ele>19.0</ele><time>2026-05-01T15:08:08.279Z</time></trkpt><trkpt lat="42.426405" lon="14.1595017"><ele>19.2</ele><time>2026-05-01T15:08:09.279Z</time></trkpt><trkpt lat="42.4265033" lon="14.1595733"><ele>19.4</ele><time>2026-05-01T15:08:10.279Z</time></trkpt><trkpt lat="42.4265983" lon="14.1596383"><ele>19.6</ele><time>2026-05-01T15:08:11.279Z</time></trkpt><trkpt lat="42.4266933" lon="14.1596983"><ele>19.8</ele><time>2026-05-01T15:08:12.279Z</time></trkpt><trkpt lat="42.4267867" lon="14.1597633"><ele>20.0</ele><time>2026-05-01T15:08:13.279Z</time></trkpt><trkpt lat="42.426875" lon="14.159845"><ele>19.8</ele><time>2026-05-01T15:08:14.279Z</time></trkpt><trkpt lat="42.426965" lon="14.1599233"><ele>19.6</ele><time>2026-05-01T15:08:15.279Z</time></trkpt><trkpt lat="42.4270517" lon="14.1600083"><ele>19.4</ele><time>2026-05-01T15:08:16.279Z</time></trkpt><trkpt lat="42.4271517" lon="14.1600783"><ele>19.2</ele><time>2026-05-01T15:08:17.279Z</time></trkpt><trkpt lat="42.4272483" lon="14.1601617"><ele>19.0</ele><time>2026-05-01T15:08:18.279Z</time></trkpt><trkpt lat="42.4273417" lon="14.1602567"><ele>18.75</ele><time>2026-05-01T15:08:19.279Z</time></trkpt><trkpt lat="42.4274433" lon="14.1603317"><ele>18.5</ele><time>2026-05-01T15:08:20.279Z</time></trkpt><trkpt lat="42.4275417" lon="14.1604267"><ele>18.25</ele><time>2026-05-01T15:08:21.279Z</time></trkpt><trkpt lat="42.4276417" lon="14.16051"><ele>18.0</ele><time>2026-05-01T15:08:22.279Z</time></trkpt><trkpt lat="42.4277333" lon="14.1605967"><ele>18.0</ele><time>2026-05-01T15:08:23.279Z</time></trkpt><trkpt lat="42.4278383" lon="14.16069"><ele>18.0</ele><time>2026-05-01T15:08:24.279Z</time></trkpt><trkpt lat="42.427945" lon="14.160785"><ele>18.0</ele><time>2026-05-01T15:08:25.279Z</time></trkpt><trkpt lat="42.4280467" lon="14.1608767"><ele>18.0</ele><time>2026-05-01T15:08:26.279Z</time></trkpt><trkpt lat="42.4281417" lon="14.160965"><ele>17.75</ele><time>2026-05-01T15:08:27.279Z</time></trkpt><trkpt lat="42.42824" lon="14.1610617"><ele>17.5</ele><time>2026-05-01T15:08:28.279Z</time></trkpt><trkpt lat="42.4283383" lon="14.16116"><ele>17.25</ele><time>2026-05-01T15:08:29.28Z</time></trkpt><trkpt lat="42.42844" lon="14.16126"><ele>17.0</ele><time>2026-05-01T15:08:30.279Z</time></trkpt><trkpt lat="42.4285433" lon="14.16136"><ele>17.0</ele><time>2026-05-01T15:08:31.279Z</time></trkpt><trkpt lat="42.4286317" lon="14.1614633"><ele>17.0</ele><time>2026-05-01T15:08:32.28Z</time></trkpt><trkpt lat="42.428715" lon="14.16154"><ele>17.0</ele><time>2026-05-01T15:08:33.279Z</time></trkpt><trkpt lat="42.4287933" lon="14.16161"><ele>17.0</ele><time>2026-05-01T15:08:34.279Z</time></trkpt><trkpt lat="42.4288633" lon="14.1616817"><ele>17.0</ele><time>2026-05-01T15:08:35.279Z</time></trkpt><trkpt lat="42.4289317" lon="14.1617433"><ele>18.666666666666668</ele><time>2026-05-01T15:08:36.279Z</time></trkpt><trkpt lat="42.4289967" lon="14.161815"><ele>20.333333333333336</ele><time>2026-05-01T15:08:37.279Z</time></trkpt><trkpt lat="42.4290583" lon="14.1618833"><ele>22.0</ele><time>2026-05-01T15:08:38.279Z</time></trkpt><trkpt lat="42.429125" lon="14.1619467"><ele>23.666666666666668</ele><time>2026-05-01T15:08:39.279Z</time></trkpt><trkpt lat="42.4291917" lon="14.16202"><ele>25.333333333333332</ele><time>2026-05-01T15:08:40.279Z</time></trkpt><trkpt lat="42.4292667" lon="14.162095"><ele>27.0</ele><time>2026-05-01T15:08:41.279Z</time></trkpt><trkpt lat="42.42935" lon="14.16218"><ele>27.0</ele><time>2026-05-01T15:08:42.279Z</time></trkpt><trkpt lat="42.42944" lon="14.1622717"><ele>27.0</ele><time>2026-05-01T15:08:43.279Z</time></trkpt><trkpt lat="42.429535" lon="14.16236"><ele>27.0</ele><time>2026-05-01T15:08:44.279Z</time></trkpt><trkpt lat="42.4296333" lon="14.1624467"><ele>27.0</ele><time>2026-05-01T15:08:45.279Z</time></trkpt><trkpt lat="42.42973" lon="14.1625417"><ele>25.8</ele><time>2026-05-01T15:08:46.279Z</time></trkpt><trkpt lat="42.429825" lon="14.16261"><ele>24.6</ele><time>2026-05-01T15:08:47.279Z</time></trkpt><trkpt lat="42.42991" lon="14.1626617"><ele>23.400000000000002</ele><time>2026-05-01T15:08:48.279Z</time></trkpt><trkpt lat="42.4299983" lon="14.1627"><ele>22.200000000000003</ele><time>2026-05-01T15:08:49.28Z</time></trkpt><trkpt lat="42.4300817" lon="14.1627167"><ele>21.0</ele><time>2026-05-01T15:08:50.28Z</time></trkpt><trkpt lat="42.4301617" lon="14.1627283"><ele>21.0</ele><time>2026-05-01T15:08:51.279Z</time></trkpt><trkpt lat="42.4302433" lon="14.1627317"><ele>21.0</ele><time>2026-05-01T15:08:52.279Z</time></trkpt><trkpt lat="42.4303183" lon="14.1627417"><ele>21.0</ele><time>2026-05-01T15:08:53.279Z</time></trkpt><trkpt lat="42.4304167" lon="14.16275"><ele>21.0</ele><time>2026-05-01T15:08:55.279Z</time></trkpt><trkpt lat="42.4304883" lon="14.1627633"><ele>21.0</ele><time>2026-05-01T15:08:57.279Z</time></trkpt><trkpt lat="42.43053" lon="14.1626917"><ele>21.0</ele><time>2026-05-01T15:09:00.279Z</time></trkpt><trkpt lat="42.430475" lon="14.1626"><ele>21.0</ele><time>2026-05-01T15:09:03.279Z</time></trkpt><trkpt lat="42.4304067" lon="14.1625483"><ele>21.0</ele><time>2026-05-01T15:09:05.279Z</time></trkpt><trkpt lat="42.4303483" lon="14.162475"><ele>21.0</ele><time>2026-05-01T15:09:07.279Z</time></trkpt><trkpt lat="42.4303367" lon="14.1623417"><ele>21.0</ele><time>2026-05-01T15:09:10.28Z</time></trkpt><trkpt lat="42.4303917" lon="14.162195"><ele>21.0</ele><time>2026-05-01T15:09:12.279Z</time></trkpt><trkpt lat="42.4304267" lon="14.162115"><ele>21.0</ele><time>2026-05-01T15:09:13.279Z</time></trkpt><trkpt lat="42.4305017" lon="14.1619817"><ele>21.285714285714285</ele><time>2026-05-01T15:09:15.279Z</time></trkpt><trkpt lat="42.430535" lon="14.1619017"><ele>21.57142857142857</ele><time>2026-05-01T15:09:16.279Z</time></trkpt><trkpt lat="42.430565" lon="14.1618217"><ele>21.857142857142858</ele><time>2026-05-01T15:09:17.279Z</time></trkpt><trkpt lat="42.4305917" lon="14.161735"><ele>22.142857142857142</ele><time>2026-05-01T15:09:18.279Z</time></trkpt><trkpt lat="42.4306267" lon="14.1616417"><ele>22.428571428571427</ele><time>2026-05-01T15:09:19.279Z</time></trkpt><trkpt lat="42.430665" lon="14.161545"><ele>22.714285714285715</ele><time>2026-05-01T15:09:20.279Z</time></trkpt><trkpt lat="42.4307" lon="14.1614583"><ele>23.0</ele><time>2026-05-01T15:09:21.279Z</time></trkpt><trkpt lat="42.4307333" lon="14.1613817"><ele>23.666666666666668</ele><time>2026-05-01T15:09:22.279Z</time></trkpt><trkpt lat="42.4307867" lon="14.1612783"><ele>24.333333333333336</ele><time>2026-05-01T15:09:24.279Z</time></trkpt><trkpt lat="42.43083" lon="14.16121"><ele>25.0</ele><time>2026-05-01T15:09:27.279Z</time></trkpt><trkpt lat="42.430865" lon="14.1611133"><ele>25.666666666666668</ele><time>2026-05-01T15:09:29.279Z</time></trkpt><trkpt lat="42.4308983" lon="14.1610183"><ele>26.333333333333332</ele><time>2026-05-01T15:09:30.28Z</time></trkpt><trkpt lat="42.4309367" lon="14.1609133"><ele>27.0</ele><time>2026-05-01T15:09:31.279Z</time></trkpt><trkpt lat="42.430985" lon="14.16079"><ele>27.0</ele><time>2026-05-01T15:09:32.279Z</time></trkpt><trkpt lat="42.4310367" lon="14.160655"><ele>27.000000000000004</ele><time>2026-05-01T15:09:33.279Z</time></trkpt><trkpt lat="42.4310933" lon="14.16051"><ele>27.000000000000004</ele><time>2026-05-01T15:09:34.279Z</time></trkpt><trkpt lat="42.4311483" lon="14.1603833"><ele>27.0</ele><time>2026-05-01T15:09:35.279Z</time></trkpt><trkpt lat="42.4311983" lon="14.1602683"><ele>27.0</ele><time>2026-05-01T15:09:36.279Z</time></trkpt><trkpt lat="42.431245" lon="14.1601533"><ele>27.0</ele><time>2026-05-01T15:09:37.279Z</time></trkpt><trkpt lat="42.4312983" lon="14.160035"><ele>27.000000000000004</ele><time>2026-05-01T15:09:38.279Z</time></trkpt><trkpt lat="42.4313467" lon="14.15992"><ele>27.000000000000004</ele><time>2026-05-01T15:09:39.279Z</time></trkpt><trkpt lat="42.4314" lon="14.1598067"><ele>27.0</ele><time>2026-05-01T15:09:40.279Z</time></trkpt><trkpt lat="42.4314467" lon="14.159685"><ele>27.0</ele><time>2026-05-01T15:09:41.279Z</time></trkpt><trkpt lat="42.4314933" lon="14.1595633"><ele>28.25</ele><time>2026-05-01T15:09:42.279Z</time></trkpt><trkpt lat="42.4315333" lon="14.1594317"><ele>29.5</ele><time>2026-05-01T15:09:43.279Z</time></trkpt><trkpt lat="42.4315933" lon="14.1592967"><ele>30.75</ele><time>2026-05-01T15:09:44.279Z</time></trkpt><trkpt lat="42.4316533" lon="14.15915"><ele>32.0</ele><time>2026-05-01T15:09:45.279Z</time></trkpt><trkpt lat="42.431715" lon="14.1590133"><ele>32.2</ele><time>2026-05-01T15:09:46.279Z</time></trkpt><trkpt lat="42.4317733" lon="14.15888"><ele>32.400000000000006</ele><time>2026-05-01T15:09:47.279Z</time></trkpt><trkpt lat="42.4318233" lon="14.1587567"><ele>32.599999999999994</ele><time>2026-05-01T15:09:48.279Z</time></trkpt><trkpt lat="42.4318717" lon="14.1586333"><ele>32.8</ele><time>2026-05-01T15:09:49.279Z</time></trkpt><trkpt lat="42.4319267" lon="14.1585067"><ele>33.0</ele><time>2026-05-01T15:09:50.279Z</time></trkpt><trkpt lat="42.431985" lon="14.158375"><ele>33.0</ele><time>2026-05-01T15:09:51.279Z</time></trkpt><trkpt lat="42.432025" lon="14.158245"><ele>33.0</ele><time>2026-05-01T15:09:52.279Z</time></trkpt><trkpt lat="42.4320733" lon="14.1581233"><ele>33.0</ele><time>2026-05-01T15:09:53.279Z</time></trkpt><trkpt lat="42.4321233" lon="14.1580033"><ele>33.0</ele><time>2026-05-01T15:09:54.28Z</time></trkpt><trkpt lat="42.4321733" lon="14.1578817"><ele>33.0</ele><time>2026-05-01T15:09:55.279Z</time></trkpt><trkpt lat="42.4322283" lon="14.1577733"><ele>34.599999999999994</ele><time>2026-05-01T15:09:56.279Z</time></trkpt><trkpt lat="42.4322767" lon="14.15766"><ele>36.199999999999996</ele><time>2026-05-01T15:09:57.279Z</time></trkpt><trkpt lat="42.4323317" lon="14.1575533"><ele>37.8</ele><time>2026-05-01T15:09:58.279Z</time></trkpt><trkpt lat="42.4323867" lon="14.157445"><ele>39.4</ele><time>2026-05-01T15:09:59.279Z</time></trkpt><trkpt lat="42.4324567" lon="14.15735"><ele>41.0</ele><time>2026-05-01T15:10:00.28Z</time></trkpt><trkpt lat="42.432535" lon="14.15727"><ele>42.0</ele><time>2026-05-01T15:10:01.279Z</time></trkpt><trkpt lat="42.4326183" lon="14.157175"><ele>43.0</ele><time>2026-05-01T15:10:02.279Z</time></trkpt><trkpt lat="42.4327067" lon="14.1570633"><ele>44.0</ele><time>2026-05-01T15:10:03.279Z</time></trkpt><trkpt lat="42.43281" lon="14.156975"><ele>45.0</ele><time>2026-05-01T15:10:04.279Z</time></trkpt><trkpt lat="42.4329217" lon="14.156895"><ele>46.25</ele><time>2026-05-01T15:10:05.279Z</time></trkpt><trkpt lat="42.4330267" lon="14.1568067"><ele>47.5</ele><time>2026-05-01T15:10:06.28Z</time></trkpt><trkpt lat="42.4331267" lon="14.1567217"><ele>48.75</ele><time>2026-05-01T15:10:07.28Z</time></trkpt><trkpt lat="42.4332333" lon="14.15664"><ele>50.0</ele><time>2026-05-01T15:10:08.279Z</time></trkpt><trkpt lat="42.43334" lon="14.15655"><ele>50.5</ele><time>2026-05-01T15:10:09.279Z</time></trkpt><trkpt lat="42.4334583" lon="14.156465"><ele>51.0</ele><time>2026-05-01T15:10:10.279Z</time></trkpt><trkpt lat="42.4335783" lon="14.1563783"><ele>51.5</ele><time>2026-05-01T15:10:11.279Z</time></trkpt><trkpt lat="42.4337033" lon="14.156275"><ele>52.0</ele><time>2026-05-01T15:10:12.279Z</time></trkpt><trkpt lat="42.4338317" lon="14.15618"><ele>52.5</ele><time>2026-05-01T15:10:13.279Z</time></trkpt><trkpt lat="42.433955" lon="14.1560883"><ele>53.0</ele><time>2026-05-01T15:10:14.279Z</time></trkpt><trkpt lat="42.43408" lon="14.1559967"><ele>53.5</ele><time>2026-05-01T15:10:15.279Z</time></trkpt><trkpt lat="42.4342017" lon="14.155905"><ele>54.0</ele><time>2026-05-01T15:10:16.279Z</time></trkpt><trkpt lat="42.4343133" lon="14.1558183"><ele>54.0</ele><time>2026-05-01T15:10:17.279Z</time></trkpt><trkpt lat="42.4344317" lon="14.1557383"><ele>54.0</ele><time>2026-05-01T15:10:18.279Z</time></trkpt><trkpt lat="42.4345417" lon="14.1556483"><ele>54.0</ele><time>2026-05-01T15:10:19.279Z</time></trkpt><trkpt lat="42.4346567" lon="14.1555583"><ele>54.0</ele><time>2026-05-01T15:10:20.279Z</time></trkpt><trkpt lat="42.4347683" lon="14.1554717"><ele>55.25</ele><time>2026-05-01T15:10:21.279Z</time></trkpt><trkpt lat="42.4348833" lon="14.155385"><ele>56.5</ele><time>2026-05-01T15:10:22.279Z</time></trkpt><trkpt lat="42.435" lon="14.1553017"><ele>57.75</ele><time>2026-05-01T15:10:23.28Z</time></trkpt><trkpt lat="42.4351267" lon="14.1552"><ele>59.0</ele><time>2026-05-01T15:10:24.279Z</time></trkpt><trkpt lat="42.435255" lon="14.155105"><ele>59.0</ele><time>2026-05-01T15:10:25.279Z</time></trkpt><trkpt lat="42.4353917" lon="14.155005"><ele>59.0</ele><time>2026-05-01T15:10:26.28Z</time></trkpt><trkpt lat="42.4355283" lon="14.1548967"><ele>59.0</ele><time>2026-05-01T15:10:27.279Z</time></trkpt><trkpt lat="42.4356767" lon="14.15478"><ele>60.333333333333336</ele><time>2026-05-01T15:10:28.279Z</time></trkpt><trkpt lat="42.4358217" lon="14.1546733"><ele>61.66666666666667</ele><time>2026-05-01T15:10:29.279Z</time></trkpt><trkpt lat="42.4359767" lon="14.1545617"><ele>63.0</ele><time>2026-05-01T15:10:30.279Z</time></trkpt><trkpt lat="42.4361283" lon="14.1544317"><ele>63.0</ele><time>2026-05-01T15:10:31.279Z</time></trkpt><trkpt lat="42.4362783" lon="14.1543033"><ele>63.0</ele><time>2026-05-01T15:10:32.279Z</time></trkpt><trkpt lat="42.4364183" lon="14.154185"><ele>63.0</ele><time>2026-05-01T15:10:33.279Z</time></trkpt><trkpt lat="42.43655" lon="14.15407"><ele>65.33333333333333</ele><time>2026-05-01T15:10:34.279Z</time></trkpt><trkpt lat="42.436685" lon="14.1539583"><ele>67.66666666666666</ele><time>2026-05-01T15:10:35.279Z</time></trkpt><trkpt lat="42.4368267" lon="14.1538417"><ele>70.0</ele><time>2026-05-01T15:10:36.279Z</time></trkpt><trkpt lat="42.4369617" lon="14.1537183"><ele>70.0</ele><time>2026-05-01T15:10:37.279Z</time></trkpt><trkpt lat="42.43709" lon="14.1536"><ele>70.0</ele><time>2026-05-01T15:10:38.279Z</time></trkpt><trkpt lat="42.4372183" lon="14.1534933"><ele>70.0</ele><time>2026-05-01T15:10:39.28Z</time></trkpt><trkpt lat="42.43734" lon="14.1534067"><ele>70.0</ele><time>2026-05-01T15:10:40.279Z</time></trkpt><trkpt lat="42.4374567" lon="14.153335"><ele>69.75</ele><time>2026-05-01T15:10:41.279Z</time></trkpt><trkpt lat="42.4375733" lon="14.1532833"><ele>69.5</ele><time>2026-05-01T15:10:42.279Z</time></trkpt><trkpt lat="42.4376967" lon="14.1532433"><ele>69.25</ele><time>2026-05-01T15:10:43.28Z</time></trkpt><trkpt lat="42.43782" lon="14.1532133"><ele>69.0</ele><time>2026-05-01T15:10:44.28Z</time></trkpt><trkpt lat="42.4379467" lon="14.1531833"><ele>67.5</ele><time>2026-05-01T15:10:45.279Z</time></trkpt><trkpt lat="42.43808" lon="14.1531517"><ele>66.0</ele><time>2026-05-01T15:10:46.279Z</time></trkpt><trkpt lat="42.4382067" lon="14.1530983"><ele>64.5</ele><time>2026-05-01T15:10:47.279Z</time></trkpt><trkpt lat="42.438325" lon="14.1530333"><ele>63.0</ele><time>2026-05-01T15:10:48.279Z</time></trkpt><trkpt lat="42.4384433" lon="14.15295"><ele>63.0</ele><time>2026-05-01T15:10:49.279Z</time></trkpt><trkpt lat="42.4385533" lon="14.1528467"><ele>63.0</ele><time>2026-05-01T15:10:50.279Z</time></trkpt><trkpt lat="42.4386633" lon="14.15273"><ele>63.0</ele><time>2026-05-01T15:10:51.279Z</time></trkpt><trkpt lat="42.4387717" lon="14.1526017"><ele>63.0</ele><time>2026-05-01T15:10:52.279Z</time></trkpt><trkpt lat="42.438875" lon="14.1524667"><ele>65.5</ele><time>2026-05-01T15:10:53.279Z</time></trkpt><trkpt lat="42.4389783" lon="14.1523183"><ele>68.0</ele><time>2026-05-01T15:10:54.279Z</time></trkpt><trkpt lat="42.439075" lon="14.1521783"><ele>70.5</ele><time>2026-05-01T15:10:55.279Z</time></trkpt><trkpt lat="42.4391717" lon="14.1520317"><ele>73.0</ele><time>2026-05-01T15:10:56.28Z</time></trkpt><trkpt lat="42.4392683" lon="14.1518917"><ele>73.0</ele><time>2026-05-01T15:10:57.279Z</time></trkpt><trkpt lat="42.4393767" lon="14.1517617"><ele>73.0</ele><time>2026-05-01T15:10:58.279Z</time></trkpt><trkpt lat="42.439485" lon="14.151665"><ele>73.0</ele><time>2026-05-01T15:10:59.279Z</time></trkpt><trkpt lat="42.4396" lon="14.1515833"><ele>73.0</ele><time>2026-05-01T15:11:00.279Z</time></trkpt><trkpt lat="42.439725" lon="14.151515"><ele>73.75</ele><time>2026-05-01T15:11:01.279Z</time></trkpt><trkpt lat="42.439855" lon="14.1514533"><ele>74.5</ele><time>2026-05-01T15:11:02.279Z</time></trkpt><trkpt lat="42.4399867" lon="14.15139"><ele>75.25</ele><time>2026-05-01T15:11:03.279Z</time></trkpt><trkpt lat="42.4401233" lon="14.1513117"><ele>76.0</ele><time>2026-05-01T15:11:04.279Z</time></trkpt><trkpt lat="42.4402567" lon="14.1512367"><ele>76.0</ele><time>2026-05-01T15:11:05.279Z</time></trkpt><trkpt lat="42.4403883" lon="14.1511467"><ele>76.0</ele><time>2026-05-01T15:11:06.279Z</time></trkpt><trkpt lat="42.44052" lon="14.15105"><ele>76.0</ele><time>2026-05-01T15:11:07.279Z</time></trkpt><trkpt lat="42.44065" lon="14.1509617"><ele>76.0</ele><time>2026-05-01T15:11:08.28Z</time></trkpt><trkpt lat="42.4407817" lon="14.15088"><ele>79.0</ele><time>2026-05-01T15:11:09.279Z</time></trkpt><trkpt lat="42.4409183" lon="14.1508267"><ele>82.0</ele><time>2026-05-01T15:11:10.279Z</time></trkpt><trkpt lat="42.441055" lon="14.1508"><ele>85.0</ele><time>2026-05-01T15:11:11.279Z</time></trkpt><trkpt lat="42.4411833" lon="14.1508067"><ele>88.0</ele><time>2026-05-01T15:11:12.279Z</time></trkpt><trkpt lat="42.44131" lon="14.1508383"><ele>88.75</ele><time>2026-05-01T15:11:13.28Z</time></trkpt><trkpt lat="42.4414383" lon="14.1508883"><ele>89.5</ele><time>2026-05-01T15:11:14.279Z</time></trkpt><trkpt lat="42.4415633" lon="14.1509433"><ele>90.25</ele><time>2026-05-01T15:11:15.279Z</time></trkpt><trkpt lat="42.4417" lon="14.150965"><ele>91.0</ele><time>2026-05-01T15:11:16.279Z</time></trkpt><trkpt lat="42.4418267" lon="14.1509633"><ele>91.0</ele><time>2026-05-01T15:11:17.279Z</time></trkpt><trkpt lat="42.4419617" lon="14.150935"><ele>91.0</ele><time>2026-05-01T15:11:18.279Z</time></trkpt><trkpt lat="42.44209" lon="14.15089"><ele>91.0</ele><time>2026-05-01T15:11:19.279Z</time></trkpt><trkpt lat="42.4422033" lon="14.1508233"><ele>91.0</ele><time>2026-05-01T15:11:20.279Z</time></trkpt><trkpt lat="42.442295" lon="14.15071"><ele>91.75</ele><time>2026-05-01T15:11:21.28Z</time></trkpt><trkpt lat="42.4423633" lon="14.15058"><ele>92.5</ele><time>2026-05-01T15:11:22.279Z</time></trkpt><trkpt lat="42.44241" lon="14.15042"><ele>93.25</ele><time>2026-05-01T15:11:23.279Z</time></trkpt><trkpt lat="42.442445" lon="14.15024"><ele>94.0</ele><time>2026-05-01T15:11:24.279Z</time></trkpt><trkpt lat="42.4424717" lon="14.1500583"><ele>95.0</ele><time>2026-05-01T15:11:25.279Z</time></trkpt><trkpt lat="42.4425033" lon="14.1498717"><ele>96.0</ele><time>2026-05-01T15:11:26.279Z</time></trkpt><trkpt lat="42.4425367" lon="14.14969"><ele>97.0</ele><time>2026-05-01T15:11:27.279Z</time></trkpt><trkpt lat="42.4425833" lon="14.1495"><ele>98.0</ele><time>2026-05-01T15:11:28.279Z</time></trkpt><trkpt lat="42.4426367" lon="14.1493183"><ele>98.0</ele><time>2026-05-01T15:11:29.279Z</time></trkpt><trkpt lat="42.4426967" lon="14.1491517"><ele>98.0</ele><time>2026-05-01T15:11:30.279Z</time></trkpt><trkpt lat="42.442755" lon="14.1489867"><ele>98.0</ele><time>2026-05-01T15:11:31.28Z</time></trkpt><trkpt lat="42.4428233" lon="14.1488283"><ele>98.0</ele><time>2026-05-01T15:11:32.279Z</time></trkpt><trkpt lat="42.4429033" lon="14.1486817"><ele>99.5</ele><time>2026-05-01T15:11:33.279Z</time></trkpt><trkpt lat="42.4429983" lon="14.14854"><ele>101.0</ele><time>2026-05-01T15:11:34.279Z</time></trkpt><trkpt lat="42.4430967" lon="14.1483867"><ele>102.5</ele><time>2026-05-01T15:11:35.279Z</time></trkpt><trkpt lat="42.4431983" lon="14.1482417"><ele>104.0</ele><time>2026-05-01T15:11:36.28Z</time></trkpt><trkpt lat="42.443305" lon="14.1480983"><ele>107.75</ele><time>2026-05-01T15:11:37.279Z</time></trkpt><trkpt lat="42.443415" lon="14.14795"><ele>111.5</ele><time>2026-05-01T15:11:38.279Z</time></trkpt><trkpt lat="42.4435217" lon="14.1478083"><ele>115.25</ele><time>2026-05-01T15:11:39.279Z</time></trkpt><trkpt lat="42.4436267" lon="14.1476817"><ele>119.0</ele><time>2026-05-01T15:11:40.279Z</time></trkpt><trkpt lat="42.4437467" lon="14.1475917"><ele>117.75</ele><time>2026-05-01T15:11:41.279Z</time></trkpt><trkpt lat="42.44387" lon="14.1475217"><ele>116.5</ele><time>2026-05-01T15:11:42.279Z</time></trkpt><trkpt lat="42.4439983" lon="14.1474767"><ele>115.25</ele><time>2026-05-01T15:11:43.279Z</time></trkpt><trkpt lat="42.444115" lon="14.14744"><ele>114.0</ele><time>2026-05-01T15:11:44.279Z</time></trkpt><trkpt lat="42.4442233" lon="14.1474"><ele>115.66666666666667</ele><time>2026-05-01T15:11:45.279Z</time></trkpt><trkpt lat="42.44432" lon="14.1473667"><ele>117.33333333333334</ele><time>2026-05-01T15:11:46.279Z</time></trkpt><trkpt lat="42.4444017" lon="14.147315"><ele>119.0</ele><time>2026-05-01T15:11:47.279Z</time></trkpt><trkpt lat="42.444465" lon="14.1472433"><ele>120.66666666666667</ele><time>2026-05-01T15:11:48.28Z</time></trkpt><trkpt lat="42.44451" lon="14.1471617"><ele>122.33333333333334</ele><time>2026-05-01T15:11:49.279Z</time></trkpt><trkpt lat="42.4445433" lon="14.14708"><ele>124.0</ele><time>2026-05-01T15:11:50.279Z</time></trkpt><trkpt lat="42.4445683" lon="14.1470017"><ele>124.00000000000001</ele><time>2026-05-01T15:11:51.279Z</time></trkpt><trkpt lat="42.4446" lon="14.1469267"><ele>124.0</ele><time>2026-05-01T15:11:52.279Z</time></trkpt><trkpt lat="42.4446467" lon="14.1468383"><ele>124.0</ele><time>2026-05-01T15:11:53.279Z</time></trkpt><trkpt lat="42.444705" lon="14.1467433"><ele>124.0</ele><time>2026-05-01T15:11:54.279Z</time></trkpt><trkpt lat="42.4447733" lon="14.1466417"><ele>124.00000000000001</ele><time>2026-05-01T15:11:55.279Z</time></trkpt><trkpt lat="42.4448383" lon="14.146535"><ele>124.0</ele><time>2026-05-01T15:11:56.279Z</time></trkpt><trkpt lat="42.4448983" lon="14.1464233"><ele>124.4</ele><time>2026-05-01T15:11:57.279Z</time></trkpt><trkpt lat="42.4449567" lon="14.146305"><ele>124.80000000000001</ele><time>2026-05-01T15:11:58.279Z</time></trkpt><trkpt lat="42.44502" lon="14.1461817"><ele>125.19999999999999</ele><time>2026-05-01T15:11:59.279Z</time></trkpt><trkpt lat="42.44508" lon="14.1460733"><ele>125.6</ele><time>2026-05-01T15:12:00.279Z</time></trkpt><trkpt lat="42.4451433" lon="14.1459683"><ele>126.0</ele><time>2026-05-01T15:12:01.279Z</time></trkpt><trkpt lat="42.4452083" lon="14.1458733"><ele>126.0</ele><time>2026-05-01T15:12:02.279Z</time></trkpt><trkpt lat="42.445265" lon="14.1457717"><ele>126.0</ele><time>2026-05-01T15:12:03.279Z</time></trkpt><trkpt lat="42.4453217" lon="14.1456717"><ele>126.0</ele><time>2026-05-01T15:12:04.279Z</time></trkpt><trkpt lat="42.4453817" lon="14.1455683"><ele>126.0</ele><time>2026-05-01T15:12:05.279Z</time></trkpt><trkpt lat="42.4454417" lon="14.1454717"><ele>126.0</ele><time>2026-05-01T15:12:06.28Z</time></trkpt><trkpt lat="42.4455117" lon="14.1453817"><ele>124.8</ele><time>2026-05-01T15:12:07.279Z</time></trkpt><trkpt lat="42.4455933" lon="14.1452983"><ele>123.6</ele><time>2026-05-01T15:12:08.279Z</time></trkpt><trkpt lat="42.44568" lon="14.1452117"><ele>122.4</ele><time>2026-05-01T15:12:09.279Z</time></trkpt><trkpt lat="42.4457717" lon="14.1451267"><ele>121.2</ele><time>2026-05-01T15:12:10.28Z</time></trkpt><trkpt lat="42.4458683" lon="14.145045"><ele>120.0</ele><time>2026-05-01T15:12:11.279Z</time></trkpt><trkpt lat="42.44595" lon="14.1449867"><ele>120.0</ele><time>2026-05-01T15:12:12.279Z</time></trkpt><trkpt lat="42.44603" lon="14.1449333"><ele>120.0</ele><time>2026-05-01T15:12:13.279Z</time></trkpt><trkpt lat="42.446115" lon="14.14488"><ele>120.0</ele><time>2026-05-01T15:12:14.279Z</time></trkpt><trkpt lat="42.4462067" lon="14.1448317"><ele>120.0</ele><time>2026-05-01T15:12:15.279Z</time></trkpt><trkpt lat="42.4463167" lon="14.144775"><ele>120.0</ele><time>2026-05-01T15:12:16.279Z</time></trkpt><trkpt lat="42.4464367" lon="14.14473"><ele>120.25</ele><time>2026-05-01T15:12:17.279Z</time></trkpt><trkpt lat="42.4465617" lon="14.14469"><ele>120.5</ele><time>2026-05-01T15:12:18.279Z</time></trkpt><trkpt lat="42.4466933" lon="14.1446517"><ele>120.75</ele><time>2026-05-01T15:12:19.279Z</time></trkpt><trkpt lat="42.4468317" lon="14.14461"><ele>121.0</ele><time>2026-05-01T15:12:20.279Z</time></trkpt><trkpt lat="42.446955" lon="14.1445717"><ele>121.0</ele><time>2026-05-01T15:12:21.28Z</time></trkpt><trkpt lat="42.44707" lon="14.1445383"><ele>121.0</ele><time>2026-05-01T15:12:22.279Z</time></trkpt><trkpt lat="42.4471683" lon="14.1445133"><ele>121.0</ele><time>2026-05-01T15:12:23.279Z</time></trkpt><trkpt lat="42.447265" lon="14.1444983"><ele>121.0</ele><time>2026-05-01T15:12:24.279Z</time></trkpt><trkpt lat="42.447365" lon="14.1445183"><ele>121.0</ele><time>2026-05-01T15:12:25.28Z</time></trkpt><trkpt lat="42.4474517" lon="14.1445833"><ele>122.0</ele><time>2026-05-01T15:12:26.279Z</time></trkpt><trkpt lat="42.4475117" lon="14.14468"><ele>123.0</ele><time>2026-05-01T15:12:27.279Z</time></trkpt><trkpt lat="42.44755" lon="14.1448033"><ele>124.0</ele><time>2026-05-01T15:12:28.279Z</time></trkpt><trkpt lat="42.4475667" lon="14.144945"><ele>125.0</ele><time>2026-05-01T15:12:29.279Z</time></trkpt><trkpt lat="42.447575" lon="14.145095"><ele>126.0</ele><time>2026-05-01T15:12:30.279Z</time></trkpt><trkpt lat="42.4475817" lon="14.1452433"><ele>126.19999999999999</ele><time>2026-05-01T15:12:31.279Z</time></trkpt><trkpt lat="42.4475833" lon="14.1453983"><ele>126.39999999999999</ele><time>2026-05-01T15:12:32.28Z</time></trkpt><trkpt lat="42.4475917" lon="14.145545"><ele>126.6</ele><time>2026-05-01T15:12:33.279Z</time></trkpt><trkpt lat="42.44761" lon="14.1456883"><ele>126.8</ele><time>2026-05-01T15:12:34.28Z</time></trkpt><trkpt lat="42.4476617" lon="14.1458233"><ele>127.0</ele><time>2026-05-01T15:12:35.279Z</time></trkpt><trkpt lat="42.4477367" lon="14.145945"><ele>127.5</ele><time>2026-05-01T15:12:36.279Z</time></trkpt><trkpt lat="42.4478333" lon="14.14606"><ele>128.0</ele><time>2026-05-01T15:12:37.279Z</time></trkpt><trkpt lat="42.4479483" lon="14.1461617"><ele>128.5</ele><time>2026-05-01T15:12:38.279Z</time></trkpt><trkpt lat="42.4480783" lon="14.146255"><ele>129.0</ele><time>2026-05-01T15:12:39.279Z</time></trkpt><trkpt lat="42.4482067" lon="14.146335"><ele>132.25</ele><time>2026-05-01T15:12:40.279Z</time></trkpt><trkpt lat="42.4483467" lon="14.14638"><ele>135.5</ele><time>2026-05-01T15:12:41.279Z</time></trkpt><trkpt lat="42.4484933" lon="14.14642"><ele>138.75</ele><time>2026-05-01T15:12:42.279Z</time></trkpt><trkpt lat="42.4486417" lon="14.1464383"><ele>142.0</ele><time>2026-05-01T15:12:43.279Z</time></trkpt><trkpt lat="42.448775" lon="14.1464267"><ele>142.5</ele><time>2026-05-01T15:12:44.279Z</time></trkpt><trkpt lat="42.448905" lon="14.14637"><ele>143.0</ele><time>2026-05-01T15:12:45.279Z</time></trkpt><trkpt lat="42.4490233" lon="14.1462933"><ele>143.5</ele><time>2026-05-01T15:12:46.279Z</time></trkpt><trkpt lat="42.449125" lon="14.1461817"><ele>144.0</ele><time>2026-05-01T15:12:47.279Z</time></trkpt><trkpt lat="42.4492217" lon="14.1460433"><ele>144.0</ele><time>2026-05-01T15:12:48.279Z</time></trkpt><trkpt lat="42.449305" lon="14.1458883"><ele>144.0</ele><time>2026-05-01T15:12:49.279Z</time></trkpt><trkpt lat="42.4493883" lon="14.14573"><ele>144.0</ele><time>2026-05-01T15:12:50.28Z</time></trkpt><trkpt lat="42.4494683" lon="14.1455683"><ele>144.0</ele><time>2026-05-01T15:12:51.279Z</time></trkpt><trkpt lat="42.4495517" lon="14.1453917"><ele>143.33333333333334</ele><time>2026-05-01T15:12:52.279Z</time></trkpt><trkpt lat="42.44964" lon="14.1452133"><ele>142.66666666666669</ele><time>2026-05-01T15:12:53.279Z</time></trkpt><trkpt lat="42.44971" lon="14.1450367"><ele>142.0</ele><time>2026-05-01T15:12:54.279Z</time></trkpt><trkpt lat="42.4497767" lon="14.14485"><ele>142.0</ele><time>2026-05-01T15:12:55.28Z</time></trkpt><trkpt lat="42.4498367" lon="14.1446667"><ele>142.0</ele><time>2026-05-01T15:12:56.279Z</time></trkpt><trkpt lat="42.4498883" lon="14.1444883"><ele>142.0</ele><time>2026-05-01T15:12:57.279Z</time></trkpt><trkpt lat="42.449925" lon="14.1442833"><ele>142.0</ele><time>2026-05-01T15:12:58.279Z</time></trkpt><trkpt lat="42.449945" lon="14.1440583"><ele>140.66666666666669</ele><time>2026-05-01T15:12:59.279Z</time></trkpt><trkpt lat="42.449945" lon="14.14383"><ele>139.33333333333334</ele><time>2026-05-01T15:13:00.279Z</time></trkpt><trkpt lat="42.4499233" lon="14.1436067"><ele>138.0</ele><time>2026-05-01T15:13:01.279Z</time></trkpt><trkpt lat="42.4499117" lon="14.1433983"><ele>137.66666666666666</ele><time>2026-05-01T15:13:02.279Z</time></trkpt><trkpt lat="42.4498817" lon="14.14319"><ele>137.33333333333331</ele><time>2026-05-01T15:13:03.279Z</time></trkpt><trkpt lat="42.4498483" lon="14.1429883"><ele>137.0</ele><time>2026-05-01T15:13:04.28Z</time></trkpt><trkpt lat="42.4497867" lon="14.1427983"><ele>137.0</ele><time>2026-05-01T15:13:05.279Z</time></trkpt><trkpt lat="42.449725" lon="14.1426133"><ele>137.0</ele><time>2026-05-01T15:13:06.28Z</time></trkpt><trkpt lat="42.4496617" lon="14.1424367"><ele>137.0</ele><time>2026-05-01T15:13:07.279Z</time></trkpt><trkpt lat="42.449605" lon="14.142285"><ele>137.0</ele><time>2026-05-01T15:13:08.279Z</time></trkpt><trkpt lat="42.4495567" lon="14.1421533"><ele>137.5</ele><time>2026-05-01T15:13:09.279Z</time></trkpt><trkpt lat="42.4495317" lon="14.1420317"><ele>138.0</ele><time>2026-05-01T15:13:10.279Z</time></trkpt><trkpt lat="42.4495367" lon="14.1419167"><ele>138.5</ele><time>2026-05-01T15:13:11.279Z</time></trkpt><trkpt lat="42.4495767" lon="14.1418083"><ele>139.0</ele><time>2026-05-01T15:13:12.279Z</time></trkpt><trkpt lat="42.44963" lon="14.141715"><ele>139.5</ele><time>2026-05-01T15:13:13.279Z</time></trkpt><trkpt lat="42.4496917" lon="14.1416517"><ele>140.0</ele><time>2026-05-01T15:13:14.279Z</time></trkpt><trkpt lat="42.4497733" lon="14.1415833"><ele>141.25</ele><time>2026-05-01T15:13:15.28Z</time></trkpt><trkpt lat="42.44987" lon="14.14152"><ele>142.5</ele><time>2026-05-01T15:13:16.279Z</time></trkpt><trkpt lat="42.4499767" lon="14.1414667"><ele>143.75</ele><time>2026-05-01T15:13:17.279Z</time></trkpt><trkpt lat="42.450085" lon="14.14141"><ele>145.0</ele><time>2026-05-01T15:13:18.279Z</time></trkpt><trkpt lat="42.4501933" lon="14.1413567"><ele>145.0</ele><time>2026-05-01T15:13:19.279Z</time></trkpt><trkpt lat="42.4502917" lon="14.14131"><ele>145.0</ele><time>2026-05-01T15:13:20.279Z</time></trkpt><trkpt lat="42.4503933" lon="14.1412683"><ele>145.0</ele><time>2026-05-01T15:13:21.279Z</time></trkpt><trkpt lat="42.450485" lon="14.1412283"><ele>145.0</ele><time>2026-05-01T15:13:22.279Z</time></trkpt><trkpt lat="42.45058" lon="14.1411883"><ele>145.0</ele><time>2026-05-01T15:13:23.279Z</time></trkpt><trkpt lat="42.4506867" lon="14.14115"><ele>146.25</ele><time>2026-05-01T15:13:24.279Z</time></trkpt><trkpt lat="42.4508" lon="14.14112"><ele>147.5</ele><time>2026-05-01T15:13:25.279Z</time></trkpt><trkpt lat="42.4509217" lon="14.141075"><ele>148.75</ele><time>2026-05-01T15:13:26.279Z</time></trkpt><trkpt lat="42.4510417" lon="14.14105"><ele>150.0</ele><time>2026-05-01T15:13:27.279Z</time></trkpt><trkpt lat="42.4511539" lon="14.1410103"><ele>150.0</ele><time>2026-05-01T15:13:28.279Z</time></trkpt><trkpt lat="42.4512672" lon="14.1409842"><ele>150.0</ele><time>2026-05-01T15:13:29.279Z</time></trkpt><trkpt lat="42.4513834" lon="14.1409578"><ele>150.0</ele><time>2026-05-01T15:13:30.279Z</time></trkpt><trkpt lat="42.4514907" lon="14.1409276"><ele>150.0</ele><time>2026-05-01T15:13:31.279Z</time></trkpt><trkpt lat="42.4515883" lon="14.1408967"><ele>150.0</ele><time>2026-05-01T15:13:32.279Z</time></trkpt><trkpt lat="42.4516817" lon="14.1408733"><ele>150.2</ele><time>2026-05-01T15:13:33.279Z</time></trkpt><trkpt lat="42.4517683" lon="14.1408467"><ele>150.4</ele><time>2026-05-01T15:13:34.28Z</time></trkpt><trkpt lat="42.451865" lon="14.1408333"><ele>150.6</ele><time>2026-05-01T15:13:35.279Z</time></trkpt><trkpt lat="42.4519567" lon="14.1408283"><ele>150.8</ele><time>2026-05-01T15:13:36.279Z</time></trkpt><trkpt lat="42.4520517" lon="14.1408067"><ele>151.0</ele><time>2026-05-01T15:13:37.279Z</time></trkpt><trkpt lat="42.452155" lon="14.14079"><ele>151.0</ele><time>2026-05-01T15:13:38.28Z</time></trkpt><trkpt lat="42.4522567" lon="14.1407683"><ele>151.0</ele><time>2026-05-01T15:13:39.279Z</time></trkpt><trkpt lat="42.4523517" lon="14.1407467"><ele>151.0</ele><time>2026-05-01T15:13:40.279Z</time></trkpt><trkpt lat="42.4524417" lon="14.1407333"><ele>151.0</ele><time>2026-05-01T15:13:41.279Z</time></trkpt><trkpt lat="42.4525217" lon="14.14072"><ele>151.0</ele><time>2026-05-01T15:13:42.279Z</time></trkpt><trkpt lat="42.4526033" lon="14.1407017"><ele>151.16666666666669</ele><time>2026-05-01T15:13:43.279Z</time></trkpt><trkpt lat="42.452685" lon="14.1406883"><ele>151.33333333333334</ele><time>2026-05-01T15:13:44.279Z</time></trkpt><trkpt lat="42.452755" lon="14.1406633"><ele>151.5</ele><time>2026-05-01T15:13:45.28Z</time></trkpt><trkpt lat="42.4528167" lon="14.1406433"><ele>151.66666666666666</ele><time>2026-05-01T15:13:46.279Z</time></trkpt><trkpt lat="42.452925" lon="14.140615"><ele>151.83333333333331</ele><time>2026-05-01T15:13:48.279Z</time></trkpt><trkpt lat="42.4530383" lon="14.14057"><ele>152.0</ele><time>2026-05-01T15:13:50.279Z</time></trkpt><trkpt lat="42.4531067" lon="14.1405333"><ele>155.39999999999998</ele><time>2026-05-01T15:13:51.279Z</time></trkpt><trkpt lat="42.4531867" lon="14.140485"><ele>158.79999999999998</ele><time>2026-05-01T15:13:52.279Z</time></trkpt><trkpt lat="42.4532817" lon="14.1404267"><ele>162.2</ele><time>2026-05-01T15:13:53.28Z</time></trkpt><trkpt lat="42.4533883" lon="14.140375"><ele>165.6</ele><time>2026-05-01T15:13:54.279Z</time></trkpt><trkpt lat="42.4534933" lon="14.1403233"><ele>169.0</ele><time>2026-05-01T15:13:55.279Z</time></trkpt><trkpt lat="42.453595" lon="14.14026"><ele>169.0</ele><time>2026-05-01T15:13:56.279Z</time></trkpt><trkpt lat="42.4536917" lon="14.1401967"><ele>169.0</ele><time>2026-05-01T15:13:57.279Z</time></trkpt><trkpt lat="42.4537783" lon="14.1401417"><ele>169.0</ele><time>2026-05-01T15:13:58.279Z</time></trkpt><trkpt lat="42.453855" lon="14.1400733"><ele>169.0</ele><time>2026-05-01T15:13:59.279Z</time></trkpt><trkpt lat="42.453915" lon="14.139985"><ele>169.0</ele><time>2026-05-01T15:14:00.279Z</time></trkpt><trkpt lat="42.4539817" lon="14.1398817"><ele>170.0</ele><time>2026-05-01T15:14:01.279Z</time></trkpt><trkpt lat="42.4540467" lon="14.13976"><ele>171.0</ele><time>2026-05-01T15:14:02.279Z</time></trkpt><trkpt lat="42.4541033" lon="14.13964"><ele>172.0</ele><time>2026-05-01T15:14:03.279Z</time></trkpt><trkpt lat="42.45415" lon="14.1395367"><ele>173.0</ele><time>2026-05-01T15:14:04.279Z</time></trkpt><trkpt lat="42.4541983" lon="14.1394367"><ele>174.0</ele><time>2026-05-01T15:14:05.279Z</time></trkpt><trkpt lat="42.454245" lon="14.139345"><ele>174.0</ele><time>2026-05-01T15:14:06.279Z</time></trkpt><trkpt lat="42.4542917" lon="14.13926"><ele>174.0</ele><time>2026-05-01T15:14:07.279Z</time></trkpt><trkpt lat="42.4543333" lon="14.1391733"><ele>174.0</ele><time>2026-05-01T15:14:08.279Z</time></trkpt><trkpt lat="42.4543733" lon="14.1390917"><ele>174.0</ele><time>2026-05-01T15:14:09.279Z</time></trkpt><trkpt lat="42.4544167" lon="14.1390083"><ele>174.0</ele><time>2026-05-01T15:14:10.279Z</time></trkpt><trkpt lat="42.4544567" lon="14.13893"><ele>174.0</ele><time>2026-05-01T15:14:11.279Z</time></trkpt><trkpt lat="42.454495" lon="14.138845"><ele>174.0</ele><time>2026-05-01T15:14:12.279Z</time></trkpt><trkpt lat="42.45453" lon="14.1387733"><ele>173.83333333333334</ele><time>2026-05-01T15:14:13.279Z</time></trkpt><trkpt lat="42.4545767" lon="14.1386983"><ele>173.66666666666666</ele><time>2026-05-01T15:14:14.279Z</time></trkpt><trkpt lat="42.4546283" lon="14.1386167"><ele>173.5</ele><time>2026-05-01T15:14:15.279Z</time></trkpt><trkpt lat="42.4546817" lon="14.1385267"><ele>173.33333333333331</ele><time>2026-05-01T15:14:16.279Z</time></trkpt><trkpt lat="42.45474" lon="14.1384333"><ele>173.16666666666666</ele><time>2026-05-01T15:14:17.28Z</time></trkpt><trkpt lat="42.4547967" lon="14.1383467"><ele>173.0</ele><time>2026-05-01T15:14:18.279Z</time></trkpt><trkpt lat="42.45486" lon="14.1382567"><ele>172.4</ele><time>2026-05-01T15:14:19.279Z</time></trkpt><trkpt lat="42.4549267" lon="14.13816"><ele>171.8</ele><time>2026-05-01T15:14:20.279Z</time></trkpt><trkpt lat="42.4549817" lon="14.13806"><ele>171.2</ele><time>2026-05-01T15:14:21.279Z</time></trkpt><trkpt lat="42.4550167" lon="14.137935"><ele>170.6</ele><time>2026-05-01T15:14:22.279Z</time></trkpt><trkpt lat="42.45504" lon="14.1378167"><ele>170.0</ele><time>2026-05-01T15:14:23.279Z</time></trkpt><trkpt lat="42.4550533" lon="14.1376933"><ele>170.0</ele><time>2026-05-01T15:14:24.279Z</time></trkpt><trkpt lat="42.4550633" lon="14.1375767"><ele>170.0</ele><time>2026-05-01T15:14:25.279Z</time></trkpt><trkpt lat="42.455055" lon="14.1374617"><ele>170.0</ele><time>2026-05-01T15:14:26.279Z</time></trkpt><trkpt lat="42.4550383" lon="14.1373367"><ele>170.0</ele><time>2026-05-01T15:14:27.279Z</time></trkpt><trkpt lat="42.4550367" lon="14.13722"><ele>170.0</ele><time>2026-05-01T15:14:28.279Z</time></trkpt><trkpt lat="42.4550183" lon="14.1371117"><ele>170.0</ele><time>2026-05-01T15:14:29.279Z</time></trkpt><trkpt lat="42.4550183" lon="14.137005"><ele>170.42857142857144</ele><time>2026-05-01T15:14:30.279Z</time></trkpt><trkpt lat="42.4550117" lon="14.136895"><ele>170.85714285714283</ele><time>2026-05-01T15:14:31.279Z</time></trkpt><trkpt lat="42.45501" lon="14.136795"><ele>171.28571428571428</ele><time>2026-05-01T15:14:32.28Z</time></trkpt><trkpt lat="42.455005" lon="14.13668"><ele>171.71428571428572</ele><time>2026-05-01T15:14:33.279Z</time></trkpt><trkpt lat="42.455015" lon="14.1365783"><ele>172.14285714285717</ele><time>2026-05-01T15:14:34.279Z</time></trkpt><trkpt lat="42.4550283" lon="14.1364917"><ele>172.57142857142856</ele><time>2026-05-01T15:14:35.279Z</time></trkpt><trkpt lat="42.4550567" lon="14.136415"><ele>173.0</ele><time>2026-05-01T15:14:36.279Z</time></trkpt><trkpt lat="42.4551567" lon="14.13634"><ele>174.16666666666666</ele><time>2026-05-01T15:14:38.279Z</time></trkpt><trkpt lat="42.4552283" lon="14.136325"><ele>175.33333333333331</ele><time>2026-05-01T15:14:39.279Z</time></trkpt><trkpt lat="42.45531" lon="14.1362983"><ele>176.5</ele><time>2026-05-01T15:14:40.279Z</time></trkpt><trkpt lat="42.455405" lon="14.1362517"><ele>177.66666666666666</ele><time>2026-05-01T15:14:41.279Z</time></trkpt><trkpt lat="42.4554917" lon="14.136215"><ele>178.83333333333334</ele><time>2026-05-01T15:14:42.28Z</time></trkpt><trkpt lat="42.4555717" lon="14.13616"><ele>180.0</ele><time>2026-05-01T15:14:43.279Z</time></trkpt><trkpt lat="42.45565" lon="14.13611"><ele>180.0</ele><time>2026-05-01T15:14:44.279Z</time></trkpt><trkpt lat="42.4557283" lon="14.136045"><ele>180.0</ele><time>2026-05-01T15:14:45.279Z</time></trkpt><trkpt lat="42.455815" lon="14.1359867"><ele>180.0</ele><time>2026-05-01T15:14:46.279Z</time></trkpt><trkpt lat="42.4558983" lon="14.1359167"><ele>180.0</ele><time>2026-05-01T15:14:47.279Z</time></trkpt><trkpt lat="42.4559867" lon="14.1358367"><ele>180.0</ele><time>2026-05-01T15:14:48.279Z</time></trkpt><trkpt lat="42.4560567" lon="14.1357233"><ele>182.8</ele><time>2026-05-01T15:14:49.279Z</time></trkpt><trkpt lat="42.456115" lon="14.1356083"><ele>185.6</ele><time>2026-05-01T15:14:50.279Z</time></trkpt><trkpt lat="42.4561617" lon="14.1354867"><ele>188.39999999999998</ele><time>2026-05-01T15:14:51.279Z</time></trkpt><trkpt lat="42.456205" lon="14.13536"><ele>191.2</ele><time>2026-05-01T15:14:52.279Z</time></trkpt><trkpt lat="42.45624" lon="14.1352333"><ele>194.0</ele><time>2026-05-01T15:14:53.279Z</time></trkpt><trkpt lat="42.45628" lon="14.1351117"><ele>188.79999999999998</ele><time>2026-05-01T15:14:54.279Z</time></trkpt><trkpt lat="42.45632" lon="14.1349767"><ele>183.6</ele><time>2026-05-01T15:14:55.279Z</time></trkpt><trkpt lat="42.4563617" lon="14.1348383"><ele>178.4</ele><time>2026-05-01T15:14:56.28Z</time></trkpt><trkpt lat="42.456405" lon="14.1347033"><ele>173.2</ele><time>2026-05-01T15:14:57.279Z</time></trkpt><trkpt lat="42.4564417" lon="14.134575"><ele>168.0</ele><time>2026-05-01T15:14:58.279Z</time></trkpt><trkpt lat="42.4564867" lon="14.1344433"><ele>168.0</ele><time>2026-05-01T15:14:59.279Z</time></trkpt><trkpt lat="42.456535" lon="14.1343017"><ele>168.0</ele><time>2026-05-01T15:15:00.279Z</time></trkpt><trkpt lat="42.4565783" lon="14.1341567"><ele>168.0</ele><time>2026-05-01T15:15:01.279Z</time></trkpt><trkpt lat="42.45663" lon="14.1340083"><ele>168.0</ele><time>2026-05-01T15:15:02.279Z</time></trkpt><trkpt lat="42.4566717" lon="14.1338483"><ele>168.0</ele><time>2026-05-01T15:15:03.279Z</time></trkpt><trkpt lat="42.4567067" lon="14.1336783"><ele>168.0</ele><time>2026-05-01T15:15:04.279Z</time></trkpt><trkpt lat="42.4567317" lon="14.1334983"><ele>168.0</ele><time>2026-05-01T15:15:05.279Z</time></trkpt><trkpt lat="42.4567533" lon="14.1333283"><ele>168.0</ele><time>2026-05-01T15:15:06.279Z</time></trkpt><trkpt lat="42.456775" lon="14.1331667"><ele>167.5</ele><time>2026-05-01T15:15:07.279Z</time></trkpt><trkpt lat="42.4567967" lon="14.1329983"><ele>167.0</ele><time>2026-05-01T15:15:08.279Z</time></trkpt><trkpt lat="42.45682" lon="14.1328267"><ele>166.5</ele><time>2026-05-01T15:15:09.279Z</time></trkpt><trkpt lat="42.4568533" lon="14.132665"><ele>166.0</ele><time>2026-05-01T15:15:10.279Z</time></trkpt><trkpt lat="42.4568883" lon="14.1324917"><ele>166.0</ele><time>2026-05-01T15:15:11.279Z</time></trkpt><trkpt lat="42.4569417" lon="14.1323217"><ele>166.0</ele><time>2026-05-01T15:15:12.279Z</time></trkpt><trkpt lat="42.457" lon="14.132155"><ele>166.0</ele><time>2026-05-01T15:15:13.279Z</time></trkpt><trkpt lat="42.4570717" lon="14.131985"><ele>166.0</ele><time>2026-05-01T15:15:14.28Z</time></trkpt><trkpt lat="42.4571433" lon="14.1318133"><ele>164.5</ele><time>2026-05-01T15:15:15.279Z</time></trkpt><trkpt lat="42.4572183" lon="14.131645"><ele>163.0</ele><time>2026-05-01T15:15:16.279Z</time></trkpt><trkpt lat="42.45729" lon="14.1314783"><ele>161.5</ele><time>2026-05-01T15:15:17.28Z</time></trkpt><trkpt lat="42.4573533" lon="14.131315"><ele>160.0</ele><time>2026-05-01T15:15:18.279Z</time></trkpt><trkpt lat="42.4574183" lon="14.13115"><ele>160.0</ele><time>2026-05-01T15:15:19.279Z</time></trkpt><trkpt lat="42.4574933" lon="14.130995"><ele>160.0</ele><time>2026-05-01T15:15:20.279Z</time></trkpt><trkpt lat="42.4575933" lon="14.13083"><ele>160.0</ele><time>2026-05-01T15:15:21.279Z</time></trkpt><trkpt lat="42.4576983" lon="14.1306733"><ele>160.25</ele><time>2026-05-01T15:15:22.28Z</time></trkpt><trkpt lat="42.457805" lon="14.1305333"><ele>160.5</ele><time>2026-05-01T15:15:23.279Z</time></trkpt><trkpt lat="42.4579217" lon="14.13041"><ele>160.75</ele><time>2026-05-01T15:15:24.279Z</time></trkpt><trkpt lat="42.4580384" lon="14.1302929"><ele>161.0</ele><time>2026-05-01T15:15:25.279Z</time></trkpt><trkpt lat="42.4581535" lon="14.1301752"><ele>160.66666666666666</ele><time>2026-05-01T15:15:26.279Z</time></trkpt><trkpt lat="42.4582655" lon="14.1300439"><ele>160.33333333333334</ele><time>2026-05-01T15:15:27.279Z</time></trkpt><trkpt lat="42.4583737" lon="14.1298907"><ele>160.0</ele><time>2026-05-01T15:15:28.279Z</time></trkpt><trkpt lat="42.4584722" lon="14.1297271"><ele>160.0</ele><time>2026-05-01T15:15:29.279Z</time></trkpt><trkpt lat="42.4585515" lon="14.1295538"><ele>160.0</ele><time>2026-05-01T15:15:30.279Z</time></trkpt><trkpt lat="42.4586124" lon="14.1293712"><ele>160.0</ele><time>2026-05-01T15:15:31.279Z</time></trkpt><trkpt lat="42.4586602" lon="14.1291891"><ele>160.0</ele><time>2026-05-01T15:15:32.279Z</time></trkpt><trkpt lat="42.4586944" lon="14.1290026"><ele>158.33333333333334</ele><time>2026-05-01T15:15:33.279Z</time></trkpt><trkpt lat="42.4587139" lon="14.1288138"><ele>156.66666666666666</ele><time>2026-05-01T15:15:34.279Z</time></trkpt><trkpt lat="42.4587045" lon="14.1286097"><ele>155.0</ele><time>2026-05-01T15:15:35.279Z</time></trkpt><trkpt lat="42.4586719" lon="14.1283924"><ele>157.66666666666666</ele><time>2026-05-01T15:15:36.279Z</time></trkpt><trkpt lat="42.4586139" lon="14.1281696"><ele>160.33333333333334</ele><time>2026-05-01T15:15:37.279Z</time></trkpt><trkpt lat="42.4585393" lon="14.1279484"><ele>163.0</ele><time>2026-05-01T15:15:38.279Z</time></trkpt><trkpt lat="42.4584634" lon="14.1277425"><ele>163.0</ele><time>2026-05-01T15:15:39.279Z</time></trkpt><trkpt lat="42.4583981" lon="14.1275557"><ele>163.0</ele><time>2026-05-01T15:15:40.28Z</time></trkpt><trkpt lat="42.4583321" lon="14.1273892"><ele>163.0</ele><time>2026-05-01T15:15:41.279Z</time></trkpt><trkpt lat="42.4582534" lon="14.1272513"><ele>163.0</ele><time>2026-05-01T15:15:42.279Z</time></trkpt><trkpt lat="42.4581611" lon="14.1271421"><ele>161.25</ele><time>2026-05-01T15:15:43.279Z</time></trkpt><trkpt lat="42.4580572" lon="14.1270442"><ele>159.5</ele><time>2026-05-01T15:15:44.279Z</time></trkpt><trkpt lat="42.4579524" lon="14.1269371"><ele>157.75</ele><time>2026-05-01T15:15:45.279Z</time></trkpt><trkpt lat="42.4578506" lon="14.1268109"><ele>156.0</ele><time>2026-05-01T15:15:46.279Z</time></trkpt><trkpt lat="42.457767" lon="14.1266639"><ele>158.75</ele><time>2026-05-01T15:15:47.279Z</time></trkpt><trkpt lat="42.457688" lon="14.1265195"><ele>161.5</ele><time>2026-05-01T15:15:48.279Z</time></trkpt><trkpt lat="42.4576107" lon="14.1263738"><ele>164.25</ele><time>2026-05-01T15:15:49.279Z</time></trkpt><trkpt lat="42.4575391" lon="14.1262274"><ele>167.0</ele><time>2026-05-01T15:15:50.28Z</time></trkpt><trkpt lat="42.457468" lon="14.126073"><ele>167.0</ele><time>2026-05-01T15:15:51.279Z</time></trkpt><trkpt lat="42.4574076" lon="14.1259214"><ele>167.0</ele><time>2026-05-01T15:15:52.279Z</time></trkpt><trkpt lat="42.4573549" lon="14.1257802"><ele>167.0</ele><time>2026-05-01T15:15:53.279Z</time></trkpt><trkpt lat="42.4573151" lon="14.1256446"><ele>167.0</ele><time>2026-05-01T15:15:54.279Z</time></trkpt><trkpt lat="42.4572876" lon="14.1255154"><ele>167.66666666666666</ele><time>2026-05-01T15:15:55.279Z</time></trkpt><trkpt lat="42.4572657" lon="14.1253946"><ele>168.33333333333331</ele><time>2026-05-01T15:15:56.279Z</time></trkpt><trkpt lat="42.457248" lon="14.1252738"><ele>169.0</ele><time>2026-05-01T15:15:57.279Z</time></trkpt><trkpt lat="42.4572336" lon="14.1251589"><ele>169.66666666666666</ele><time>2026-05-01T15:15:58.279Z</time></trkpt><trkpt lat="42.4572238" lon="14.1250422"><ele>170.33333333333334</ele><time>2026-05-01T15:15:59.279Z</time></trkpt><trkpt lat="42.4572281" lon="14.1249157"><ele>171.0</ele><time>2026-05-01T15:16:00.28Z</time></trkpt><trkpt lat="42.4572333" lon="14.1247824"><ele>171.0</ele><time>2026-05-01T15:16:01.279Z</time></trkpt><trkpt lat="42.4572386" lon="14.1246391"><ele>171.0</ele><time>2026-05-01T15:16:02.279Z</time></trkpt><trkpt lat="42.457253" lon="14.1244794"><ele>171.0</ele><time>2026-05-01T15:16:03.279Z</time></trkpt><trkpt lat="42.4572821" lon="14.1243143"><ele>171.0</ele><time>2026-05-01T15:16:04.279Z</time></trkpt><trkpt lat="42.4573215" lon="14.1241442"><ele>169.25</ele><time>2026-05-01T15:16:05.279Z</time></trkpt><trkpt lat="42.4573683" lon="14.1239668"><ele>167.5</ele><time>2026-05-01T15:16:06.279Z</time></trkpt><trkpt lat="42.457424" lon="14.1237812"><ele>165.75</ele><time>2026-05-01T15:16:07.279Z</time></trkpt><trkpt lat="42.4574765" lon="14.1235981"><ele>164.0</ele><time>2026-05-01T15:16:08.279Z</time></trkpt><trkpt lat="42.4575309" lon="14.1234184"><ele>164.0</ele><time>2026-05-01T15:16:09.279Z</time></trkpt><trkpt lat="42.4575829" lon="14.1232311"><ele>164.0</ele><time>2026-05-01T15:16:10.279Z</time></trkpt><trkpt lat="42.4576338" lon="14.1230343"><ele>164.0</ele><time>2026-05-01T15:16:11.279Z</time></trkpt><trkpt lat="42.4576933" lon="14.1228321"><ele>163.5</ele><time>2026-05-01T15:16:12.279Z</time></trkpt><trkpt lat="42.4577511" lon="14.1226418"><ele>163.0</ele><time>2026-05-01T15:16:13.279Z</time></trkpt><trkpt lat="42.4578117" lon="14.1224555"><ele>162.5</ele><time>2026-05-01T15:16:14.279Z</time></trkpt><trkpt lat="42.4578831" lon="14.1222824"><ele>162.0</ele><time>2026-05-01T15:16:15.279Z</time></trkpt><trkpt lat="42.4579697" lon="14.1221196"><ele>161.75</ele><time>2026-05-01T15:16:16.279Z</time></trkpt><trkpt lat="42.4580679" lon="14.1219638"><ele>161.5</ele><time>2026-05-01T15:16:17.279Z</time></trkpt><trkpt lat="42.4581702" lon="14.1218182"><ele>161.25</ele><time>2026-05-01T15:16:18.279Z</time></trkpt><trkpt lat="42.4582796" lon="14.1216818"><ele>161.0</ele><time>2026-05-01T15:16:19.279Z</time></trkpt><trkpt lat="42.4583973" lon="14.1215563"><ele>161.0</ele><time>2026-05-01T15:16:20.279Z</time></trkpt><trkpt lat="42.458519" lon="14.1214362"><ele>161.0</ele><time>2026-05-01T15:16:21.279Z</time></trkpt><trkpt lat="42.4586385" lon="14.121313"><ele>161.0</ele><time>2026-05-01T15:16:22.28Z</time></trkpt><trkpt lat="42.4587555" lon="14.1211911"><ele>161.0</ele><time>2026-05-01T15:16:23.279Z</time></trkpt><trkpt lat="42.4588678" lon="14.1210747"><ele>160.75</ele><time>2026-05-01T15:16:24.279Z</time></trkpt><trkpt lat="42.4589739" lon="14.1209629"><ele>160.5</ele><time>2026-05-01T15:16:25.279Z</time></trkpt><trkpt lat="42.4590816" lon="14.1208524"><ele>160.25</ele><time>2026-05-01T15:16:26.279Z</time></trkpt><trkpt lat="42.4591859" lon="14.1207383"><ele>160.0</ele><time>2026-05-01T15:16:27.279Z</time></trkpt><trkpt lat="42.4592899" lon="14.1206323"><ele>160.0</ele><time>2026-05-01T15:16:28.279Z</time></trkpt><trkpt lat="42.4593892" lon="14.1205277"><ele>160.0</ele><time>2026-05-01T15:16:29.279Z</time></trkpt><trkpt lat="42.4594818" lon="14.1204271"><ele>160.0</ele><time>2026-05-01T15:16:30.279Z</time></trkpt><trkpt lat="42.4595683" lon="14.12033"><ele>160.0</ele><time>2026-05-01T15:16:31.279Z</time></trkpt><trkpt lat="42.4596567" lon="14.1202433"><ele>160.0</ele><time>2026-05-01T15:16:32.279Z</time></trkpt><trkpt lat="42.45974" lon="14.120165"><ele>160.0</ele><time>2026-05-01T15:16:33.279Z</time></trkpt><trkpt lat="42.4598283" lon="14.1201033"><ele>160.0</ele><time>2026-05-01T15:16:34.279Z</time></trkpt><trkpt lat="42.459925" lon="14.120055"><ele>160.0</ele><time>2026-05-01T15:16:35.279Z</time></trkpt><trkpt lat="42.4600333" lon="14.120015"><ele>160.0</ele><time>2026-05-01T15:16:36.279Z</time></trkpt><trkpt lat="42.460155" lon="14.1199867"><ele>160.0</ele><time>2026-05-01T15:16:37.28Z</time></trkpt><trkpt lat="42.4602883" lon="14.119995"><ele>160.0</ele><time>2026-05-01T15:16:38.279Z</time></trkpt><trkpt lat="42.46041" lon="14.1200317"><ele>160.0</ele><time>2026-05-01T15:16:39.279Z</time></trkpt><trkpt lat="42.4605333" lon="14.1200867"><ele>160.0</ele><time>2026-05-01T15:16:40.279Z</time></trkpt><trkpt lat="42.4606683" lon="14.1201533"><ele>160.5</ele><time>2026-05-01T15:16:41.279Z</time></trkpt><trkpt lat="42.4608083" lon="14.1202067"><ele>161.0</ele><time>2026-05-01T15:16:42.279Z</time></trkpt><trkpt lat="42.4609467" lon="14.1202467"><ele>161.5</ele><time>2026-05-01T15:16:43.279Z</time></trkpt><trkpt lat="42.4610767" lon="14.1202883"><ele>162.0</ele><time>2026-05-01T15:16:44.279Z</time></trkpt><trkpt lat="42.46121" lon="14.1203267"><ele>163.75</ele><time>2026-05-01T15:16:45.279Z</time></trkpt><trkpt lat="42.4613383" lon="14.12039"><ele>165.5</ele><time>2026-05-01T15:16:46.279Z</time></trkpt><trkpt lat="42.4614567" lon="14.1204633"><ele>167.25</ele><time>2026-05-01T15:16:47.279Z</time></trkpt><trkpt lat="42.4615717" lon="14.120545"><ele>169.0</ele><time>2026-05-01T15:16:48.279Z</time></trkpt><trkpt lat="42.46169" lon="14.1206283"><ele>169.0</ele><time>2026-05-01T15:16:49.28Z</time></trkpt><trkpt lat="42.461815" lon="14.1207167"><ele>169.0</ele><time>2026-05-01T15:16:50.279Z</time></trkpt><trkpt lat="42.461945" lon="14.120815"><ele>169.0</ele><time>2026-05-01T15:16:51.279Z</time></trkpt><trkpt lat="42.462075" lon="14.1209233"><ele>169.0</ele><time>2026-05-01T15:16:52.279Z</time></trkpt><trkpt lat="42.4622117" lon="14.121025"><ele>168.0</ele><time>2026-05-01T15:16:53.279Z</time></trkpt><trkpt lat="42.462345" lon="14.1211233"><ele>167.0</ele><time>2026-05-01T15:16:54.279Z</time></trkpt><trkpt lat="42.4624767" lon="14.121215"><ele>166.0</ele><time>2026-05-01T15:16:55.279Z</time></trkpt><trkpt lat="42.4626133" lon="14.1213217"><ele>166.0</ele><time>2026-05-01T15:16:56.279Z</time></trkpt><trkpt lat="42.462745" lon="14.121415"><ele>166.0</ele><time>2026-05-01T15:16:57.279Z</time></trkpt><trkpt lat="42.46288" lon="14.1215117"><ele>166.0</ele><time>2026-05-01T15:16:58.279Z</time></trkpt><trkpt lat="42.46301" lon="14.1216083"><ele>163.25</ele><time>2026-05-01T15:16:59.279Z</time></trkpt><trkpt lat="42.4631267" lon="14.1216983"><ele>160.5</ele><time>2026-05-01T15:17:00.28Z</time></trkpt><trkpt lat="42.4632367" lon="14.12178"><ele>157.75</ele><time>2026-05-01T15:17:01.28Z</time></trkpt><trkpt lat="42.4633483" lon="14.1218583"><ele>155.0</ele><time>2026-05-01T15:17:02.279Z</time></trkpt><trkpt lat="42.4634583" lon="14.1219333"><ele>155.0</ele><time>2026-05-01T15:17:03.279Z</time></trkpt><trkpt lat="42.46357" lon="14.1220083"><ele>155.0</ele><time>2026-05-01T15:17:04.279Z</time></trkpt><trkpt lat="42.4636833" lon="14.122085"><ele>155.0</ele><time>2026-05-01T15:17:05.279Z</time></trkpt><trkpt lat="42.4637885" lon="14.122184"><ele>155.0</ele><time>2026-05-01T15:17:06.279Z</time></trkpt><trkpt lat="42.4638843" lon="14.1222989"><ele>153.5</ele><time>2026-05-01T15:17:07.279Z</time></trkpt><trkpt lat="42.4639679" lon="14.1224389"><ele>152.0</ele><time>2026-05-01T15:17:08.279Z</time></trkpt><trkpt lat="42.464045" lon="14.1225939"><ele>150.5</ele><time>2026-05-01T15:17:09.28Z</time></trkpt><trkpt lat="42.464112" lon="14.1227611"><ele>149.0</ele><time>2026-05-01T15:17:10.28Z</time></trkpt><trkpt lat="42.4641738" lon="14.1229287"><ele>149.0</ele><time>2026-05-01T15:17:11.28Z</time></trkpt><trkpt lat="42.4642355" lon="14.1230936"><ele>149.0</ele><time>2026-05-01T15:17:12.279Z</time></trkpt><trkpt lat="42.4642866" lon="14.1232598"><ele>149.0</ele><time>2026-05-01T15:17:13.279Z</time></trkpt><trkpt lat="42.4643317" lon="14.1234301"><ele>149.0</ele><time>2026-05-01T15:17:14.279Z</time></trkpt><trkpt lat="42.4643748" lon="14.1236068"><ele>149.0</ele><time>2026-05-01T15:17:15.279Z</time></trkpt><trkpt lat="42.4644254" lon="14.1237855"><ele>149.0</ele><time>2026-05-01T15:17:16.279Z</time></trkpt><trkpt lat="42.4644919" lon="14.1239674"><ele>149.0</ele><time>2026-05-01T15:17:17.279Z</time></trkpt><trkpt lat="42.4645743" lon="14.1241452"><ele>149.0</ele><time>2026-05-01T15:17:18.28Z</time></trkpt><trkpt lat="42.4646776" lon="14.1243066"><ele>146.33333333333331</ele><time>2026-05-01T15:17:19.279Z</time></trkpt><trkpt lat="42.4647887" lon="14.124452"><ele>143.66666666666666</ele><time>2026-05-01T15:17:20.279Z</time></trkpt><trkpt lat="42.4649055" lon="14.1245926"><ele>141.0</ele><time>2026-05-01T15:17:21.279Z</time></trkpt><trkpt lat="42.4650071" lon="14.1247414"><ele>141.0</ele><time>2026-05-01T15:17:22.279Z</time></trkpt><trkpt lat="42.4650996" lon="14.1248946"><ele>141.0</ele><time>2026-05-01T15:17:23.279Z</time></trkpt><trkpt lat="42.4651847" lon="14.1250492"><ele>141.0</ele><time>2026-05-01T15:17:24.28Z</time></trkpt><trkpt lat="42.4652758" lon="14.1252137"><ele>141.0</ele><time>2026-05-01T15:17:25.279Z</time></trkpt><trkpt lat="42.4653702" lon="14.1253766"><ele>141.66666666666666</ele><time>2026-05-01T15:17:26.279Z</time></trkpt><trkpt lat="42.4654719" lon="14.1255409"><ele>142.33333333333331</ele><time>2026-05-01T15:17:27.279Z</time></trkpt><trkpt lat="42.4655851" lon="14.125696"><ele>143.0</ele><time>2026-05-01T15:17:28.279Z</time></trkpt><trkpt lat="42.4657039" lon="14.1258342"><ele>143.0</ele><time>2026-05-01T15:17:29.279Z</time></trkpt><trkpt lat="42.4658257" lon="14.1259555"><ele>143.0</ele><time>2026-05-01T15:17:30.279Z</time></trkpt><trkpt lat="42.4659542" lon="14.1260414"><ele>143.0</ele><time>2026-05-01T15:17:31.279Z</time></trkpt><trkpt lat="42.46609" lon="14.1260965"><ele>143.0</ele><time>2026-05-01T15:17:32.279Z</time></trkpt><trkpt lat="42.4662366" lon="14.1261222"><ele>140.75</ele><time>2026-05-01T15:17:33.279Z</time></trkpt><trkpt lat="42.4663767" lon="14.12614"><ele>138.5</ele><time>2026-05-01T15:17:34.279Z</time></trkpt><trkpt lat="42.4665126" lon="14.1261602"><ele>136.25</ele><time>2026-05-01T15:17:35.279Z</time></trkpt><trkpt lat="42.4666305" lon="14.1261995"><ele>134.0</ele><time>2026-05-01T15:17:36.279Z</time></trkpt><trkpt lat="42.466739" lon="14.1262769"><ele>134.0</ele><time>2026-05-01T15:17:37.279Z</time></trkpt><trkpt lat="42.4668254" lon="14.1263985"><ele>134.0</ele><time>2026-05-01T15:17:38.279Z</time></trkpt><trkpt lat="42.4668933" lon="14.1265517"><ele>134.0</ele><time>2026-05-01T15:17:39.279Z</time></trkpt><trkpt lat="42.4669617" lon="14.12671"><ele>134.0</ele><time>2026-05-01T15:17:40.28Z</time></trkpt><trkpt lat="42.46704" lon="14.126865"><ele>134.33333333333331</ele><time>2026-05-01T15:17:41.279Z</time></trkpt><trkpt lat="42.467125" lon="14.127035"><ele>134.66666666666666</ele><time>2026-05-01T15:17:42.279Z</time></trkpt><trkpt lat="42.4672" lon="14.1272117"><ele>135.0</ele><time>2026-05-01T15:17:43.279Z</time></trkpt><trkpt lat="42.4672833" lon="14.127395"><ele>137.5</ele><time>2026-05-01T15:17:44.279Z</time></trkpt><trkpt lat="42.467355" lon="14.1275783"><ele>140.0</ele><time>2026-05-01T15:17:45.279Z</time></trkpt><trkpt lat="42.4674167" lon="14.127755"><ele>142.5</ele><time>2026-05-01T15:17:46.279Z</time></trkpt><trkpt lat="42.4674817" lon="14.1279283"><ele>145.0</ele><time>2026-05-01T15:17:47.279Z</time></trkpt><trkpt lat="42.46754" lon="14.12809"><ele>145.5</ele><time>2026-05-01T15:17:48.279Z</time></trkpt><trkpt lat="42.4676" lon="14.12824"><ele>146.0</ele><time>2026-05-01T15:17:49.279Z</time></trkpt><trkpt lat="42.4676567" lon="14.12839"><ele>146.5</ele><time>2026-05-01T15:17:50.279Z</time></trkpt><trkpt lat="42.467715" lon="14.128525"><ele>147.0</ele><time>2026-05-01T15:17:51.279Z</time></trkpt><trkpt lat="42.467785" lon="14.1286333"><ele>147.0</ele><time>2026-05-01T15:17:52.28Z</time></trkpt><trkpt lat="42.4678767" lon="14.1287233"><ele>147.0</ele><time>2026-05-01T15:17:53.279Z</time></trkpt><trkpt lat="42.4679867" lon="14.1287833"><ele>147.0</ele><time>2026-05-01T15:17:54.279Z</time></trkpt><trkpt lat="42.4681017" lon="14.1288283"><ele>147.0</ele><time>2026-05-01T15:17:55.279Z</time></trkpt><trkpt lat="42.4682317" lon="14.1288717"><ele>147.75</ele><time>2026-05-01T15:17:56.279Z</time></trkpt><trkpt lat="42.4683733" lon="14.1289167"><ele>148.5</ele><time>2026-05-01T15:17:57.279Z</time></trkpt><trkpt lat="42.4685133" lon="14.1289617"><ele>149.25</ele><time>2026-05-01T15:17:58.279Z</time></trkpt><trkpt lat="42.468655" lon="14.1290067"><ele>150.0</ele><time>2026-05-01T15:17:59.279Z</time></trkpt><trkpt lat="42.4688" lon="14.1290583"><ele>150.0</ele><time>2026-05-01T15:18:00.279Z</time></trkpt><trkpt lat="42.4689367" lon="14.1291117"><ele>150.0</ele><time>2026-05-01T15:18:01.279Z</time></trkpt><trkpt lat="42.4690567" lon="14.1291633"><ele>150.0</ele><time>2026-05-01T15:18:02.279Z</time></trkpt><trkpt lat="42.4691717" lon="14.1292133"><ele>150.0</ele><time>2026-05-01T15:18:03.279Z</time></trkpt><trkpt lat="42.4692833" lon="14.1292767"><ele>150.0</ele><time>2026-05-01T15:18:04.279Z</time></trkpt><trkpt lat="42.4693867" lon="14.129355"><ele>150.0</ele><time>2026-05-01T15:18:05.28Z</time></trkpt><trkpt lat="42.4694933" lon="14.1294533"><ele>150.0</ele><time>2026-05-01T15:18:06.279Z</time></trkpt><trkpt lat="42.4696033" lon="14.1295683"><ele>150.0</ele><time>2026-05-01T15:18:07.279Z</time></trkpt><trkpt lat="42.46971" lon="14.1296817"><ele>150.0</ele><time>2026-05-01T15:18:08.279Z</time></trkpt><trkpt lat="42.4698067" lon="14.1297983"><ele>150.0</ele><time>2026-05-01T15:18:09.28Z</time></trkpt><trkpt lat="42.4699033" lon="14.1299133"><ele>150.0</ele><time>2026-05-01T15:18:10.28Z</time></trkpt><trkpt lat="42.4700033" lon="14.13004"><ele>150.0</ele><time>2026-05-01T15:18:11.279Z</time></trkpt><trkpt lat="42.4701033" lon="14.1301683"><ele>150.0</ele><time>2026-05-01T15:18:12.279Z</time></trkpt><trkpt lat="42.4702117" lon="14.1302883"><ele>150.0</ele><time>2026-05-01T15:18:13.279Z</time></trkpt><trkpt lat="42.470325" lon="14.1304167"><ele>150.0</ele><time>2026-05-01T15:18:14.28Z</time></trkpt><trkpt lat="42.470435" lon="14.1305483"><ele>150.0</ele><time>2026-05-01T15:18:15.279Z</time></trkpt><trkpt lat="42.470545" lon="14.130685"><ele>148.0</ele><time>2026-05-01T15:18:16.28Z</time></trkpt><trkpt lat="42.4706533" lon="14.1308233"><ele>146.0</ele><time>2026-05-01T15:18:17.28Z</time></trkpt><trkpt lat="42.470775" lon="14.13097"><ele>144.0</ele><time>2026-05-01T15:18:18.28Z</time></trkpt><trkpt lat="42.4708967" lon="14.131115"><ele>144.0</ele><time>2026-05-01T15:18:19.279Z</time></trkpt><trkpt lat="42.471" lon="14.1312583"><ele>144.0</ele><time>2026-05-01T15:18:20.279Z</time></trkpt><trkpt lat="42.4711067" lon="14.13138"><ele>144.0</ele><time>2026-05-01T15:18:21.279Z</time></trkpt><trkpt lat="42.471205" lon="14.1315033"><ele>144.0</ele><time>2026-05-01T15:18:22.279Z</time></trkpt><trkpt lat="42.4713" lon="14.1316267"><ele>143.5</ele><time>2026-05-01T15:18:23.279Z</time></trkpt><trkpt lat="42.47139" lon="14.1317483"><ele>143.0</ele><time>2026-05-01T15:18:24.279Z</time></trkpt><trkpt lat="42.4714583" lon="14.1318883"><ele>142.5</ele><time>2026-05-01T15:18:25.279Z</time></trkpt><trkpt lat="42.4715" lon="14.1320433"><ele>142.0</ele><time>2026-05-01T15:18:26.279Z</time></trkpt><trkpt lat="42.471525" lon="14.13222"><ele>143.5</ele><time>2026-05-01T15:18:27.279Z</time></trkpt><trkpt lat="42.4715367" lon="14.1323967"><ele>145.0</ele><time>2026-05-01T15:18:28.279Z</time></trkpt><trkpt lat="42.4715467" lon="14.1325683"><ele>146.5</ele><time>2026-05-01T15:18:29.279Z</time></trkpt><trkpt lat="42.4715633" lon="14.1327467"><ele>148.0</ele><time>2026-05-01T15:18:30.279Z</time></trkpt><trkpt lat="42.471605" lon="14.1329183"><ele>148.0</ele><time>2026-05-01T15:18:31.279Z</time></trkpt><trkpt lat="42.471665" lon="14.1330683"><ele>148.0</ele><time>2026-05-01T15:18:32.279Z</time></trkpt><trkpt lat="42.4717417" lon="14.1331933"><ele>148.0</ele><time>2026-05-01T15:18:33.279Z</time></trkpt><trkpt lat="42.4718317" lon="14.133285"><ele>148.0</ele><time>2026-05-01T15:18:34.279Z</time></trkpt><trkpt lat="42.4719433" lon="14.1333383"><ele>148.0</ele><time>2026-05-01T15:18:35.279Z</time></trkpt><trkpt lat="42.4720583" lon="14.1333683"><ele>148.0</ele><time>2026-05-01T15:18:36.28Z</time></trkpt><trkpt lat="42.47218" lon="14.1333667"><ele>148.0</ele><time>2026-05-01T15:18:37.279Z</time></trkpt><trkpt lat="42.4722967" lon="14.1333717"><ele>148.0</ele><time>2026-05-01T15:18:38.279Z</time></trkpt><trkpt lat="42.47241" lon="14.1333767"><ele>150.5</ele><time>2026-05-01T15:18:39.279Z</time></trkpt><trkpt lat="42.4725167" lon="14.1334367"><ele>153.0</ele><time>2026-05-01T15:18:40.279Z</time></trkpt><trkpt lat="42.47262" lon="14.13353"><ele>155.5</ele><time>2026-05-01T15:18:41.279Z</time></trkpt><trkpt lat="42.4727083" lon="14.133635"><ele>158.0</ele><time>2026-05-01T15:18:42.279Z</time></trkpt><trkpt lat="42.472815" lon="14.1337483"><ele>160.66666666666666</ele><time>2026-05-01T15:18:43.279Z</time></trkpt><trkpt lat="42.4729483" lon="14.1338633"><ele>163.33333333333334</ele><time>2026-05-01T15:18:44.279Z</time></trkpt><trkpt lat="42.4730867" lon="14.1339717"><ele>166.0</ele><time>2026-05-01T15:18:45.279Z</time></trkpt><trkpt lat="42.4732117" lon="14.134075"><ele>166.0</ele><time>2026-05-01T15:18:46.28Z</time></trkpt><trkpt lat="42.4733267" lon="14.1341967"><ele>166.0</ele><time>2026-05-01T15:18:47.279Z</time></trkpt><trkpt lat="42.4734311" lon="14.1343241"><ele>166.0</ele><time>2026-05-01T15:18:48.279Z</time></trkpt><trkpt lat="42.4735139" lon="14.1344548"><ele>166.0</ele><time>2026-05-01T15:18:49.28Z</time></trkpt><trkpt lat="42.4735636" lon="14.1345922"><ele>166.0</ele><time>2026-05-01T15:18:50.279Z</time></trkpt><trkpt lat="42.4735897" lon="14.1347288"><ele>166.0</ele><time>2026-05-01T15:18:51.279Z</time></trkpt><trkpt lat="42.4735979" lon="14.134863"><ele>166.0</ele><time>2026-05-01T15:18:52.279Z</time></trkpt><trkpt lat="42.4736133" lon="14.1349998"><ele>166.0</ele><time>2026-05-01T15:18:53.279Z</time></trkpt><trkpt lat="42.473644" lon="14.1351342"><ele>166.0</ele><time>2026-05-01T15:18:54.279Z</time></trkpt><trkpt lat="42.4736876" lon="14.1352662"><ele>164.4</ele><time>2026-05-01T15:18:55.279Z</time></trkpt><trkpt lat="42.473752" lon="14.1353856"><ele>162.8</ele><time>2026-05-01T15:18:56.279Z</time></trkpt><trkpt lat="42.4738323" lon="14.1354771"><ele>161.20000000000002</ele><time>2026-05-01T15:18:57.279Z</time></trkpt><trkpt lat="42.4739331" lon="14.1355434"><ele>159.60000000000002</ele><time>2026-05-01T15:18:58.28Z</time></trkpt><trkpt lat="42.4740465" lon="14.1355993"><ele>158.0</ele><time>2026-05-01T15:18:59.279Z</time></trkpt><trkpt lat="42.474168" lon="14.1356532"><ele>160.0</ele><time>2026-05-01T15:19:00.279Z</time></trkpt><trkpt lat="42.4742932" lon="14.1357161"><ele>162.0</ele><time>2026-05-01T15:19:01.279Z</time></trkpt><trkpt lat="42.4744062" lon="14.1358038"><ele>164.0</ele><time>2026-05-01T15:19:02.279Z</time></trkpt><trkpt lat="42.4745076" lon="14.1359072"><ele>166.0</ele><time>2026-05-01T15:19:03.279Z</time></trkpt><trkpt lat="42.4746027" lon="14.1359933"><ele>170.25</ele><time>2026-05-01T15:19:04.279Z</time></trkpt><trkpt lat="42.4747005" lon="14.1360692"><ele>174.5</ele><time>2026-05-01T15:19:05.279Z</time></trkpt><trkpt lat="42.474809" lon="14.1361336"><ele>178.75</ele><time>2026-05-01T15:19:06.279Z</time></trkpt><trkpt lat="42.4749215" lon="14.136174"><ele>183.0</ele><time>2026-05-01T15:19:07.279Z</time></trkpt><trkpt lat="42.4750279" lon="14.136209"><ele>183.0</ele><time>2026-05-01T15:19:08.279Z</time></trkpt><trkpt lat="42.4751164" lon="14.1362542"><ele>183.0</ele><time>2026-05-01T15:19:09.279Z</time></trkpt><trkpt lat="42.4751979" lon="14.1363316"><ele>183.0</ele><time>2026-05-01T15:19:10.279Z</time></trkpt><trkpt lat="42.4752681" lon="14.1364442"><ele>183.0</ele><time>2026-05-01T15:19:11.279Z</time></trkpt><trkpt lat="42.4753413" lon="14.1365702"><ele>183.0</ele><time>2026-05-01T15:19:12.279Z</time></trkpt><trkpt lat="42.4754276" lon="14.1366813"><ele>183.0</ele><time>2026-05-01T15:19:13.279Z</time></trkpt><trkpt lat="42.4755353" lon="14.1367873"><ele>183.0</ele><time>2026-05-01T15:19:14.279Z</time></trkpt><trkpt lat="42.4756625" lon="14.1368839"><ele>183.0</ele><time>2026-05-01T15:19:15.279Z</time></trkpt><trkpt lat="42.4757996" lon="14.1369711"><ele>183.0</ele><time>2026-05-01T15:19:16.279Z</time></trkpt><trkpt lat="42.4759388" lon="14.1370563"><ele>183.0</ele><time>2026-05-01T15:19:17.28Z</time></trkpt><trkpt lat="42.4760781" lon="14.1371459"><ele>183.0</ele><time>2026-05-01T15:19:18.279Z</time></trkpt><trkpt lat="42.4762093" lon="14.1372256"><ele>183.0</ele><time>2026-05-01T15:19:19.28Z</time></trkpt><trkpt lat="42.4763373" lon="14.1372876"><ele>183.0</ele><time>2026-05-01T15:19:20.279Z</time></trkpt><trkpt lat="42.4764583" lon="14.137335"><ele>182.0</ele><time>2026-05-01T15:19:21.279Z</time></trkpt><trkpt lat="42.4765783" lon="14.1373833"><ele>181.0</ele><time>2026-05-01T15:19:22.279Z</time></trkpt><trkpt lat="42.4767" lon="14.1374267"><ele>180.0</ele><time>2026-05-01T15:19:23.279Z</time></trkpt><trkpt lat="42.4768167" lon="14.1374483"><ele>179.0</ele><time>2026-05-01T15:19:24.279Z</time></trkpt><trkpt lat="42.4769267" lon="14.137455"><ele>179.0</ele><time>2026-05-01T15:19:25.279Z</time></trkpt><trkpt lat="42.477035" lon="14.1374617"><ele>179.0</ele><time>2026-05-01T15:19:26.279Z</time></trkpt><trkpt lat="42.4771383" lon="14.137465"><ele>179.0</ele><time>2026-05-01T15:19:27.279Z</time></trkpt><trkpt lat="42.4772517" lon="14.1374583"><ele>179.0</ele><time>2026-05-01T15:19:28.279Z</time></trkpt><trkpt lat="42.47737" lon="14.1374483"><ele>179.0</ele><time>2026-05-01T15:19:29.279Z</time></trkpt><trkpt lat="42.4774917" lon="14.137425"><ele>179.75</ele><time>2026-05-01T15:19:30.279Z</time></trkpt><trkpt lat="42.4776133" lon="14.1373867"><ele>180.5</ele><time>2026-05-01T15:19:31.28Z</time></trkpt><trkpt lat="42.4777383" lon="14.13733"><ele>181.25</ele><time>2026-05-01T15:19:32.279Z</time></trkpt><trkpt lat="42.4778583" lon="14.1372917"><ele>182.0</ele><time>2026-05-01T15:19:33.279Z</time></trkpt><trkpt lat="42.4779733" lon="14.1372483"><ele>179.2</ele><time>2026-05-01T15:19:34.279Z</time></trkpt><trkpt lat="42.4780767" lon="14.1372167"><ele>176.39999999999998</ele><time>2026-05-01T15:19:35.28Z</time></trkpt><trkpt lat="42.478165" lon="14.137195"><ele>173.60000000000002</ele><time>2026-05-01T15:19:36.28Z</time></trkpt><trkpt lat="42.4782633" lon="14.1372083"><ele>170.8</ele><time>2026-05-01T15:19:37.279Z</time></trkpt><trkpt lat="42.47837" lon="14.1372383"><ele>168.0</ele><time>2026-05-01T15:19:38.279Z</time></trkpt><trkpt lat="42.4784833" lon="14.1372783"><ele>168.0</ele><time>2026-05-01T15:19:39.279Z</time></trkpt><trkpt lat="42.4786017" lon="14.1373117"><ele>168.0</ele><time>2026-05-01T15:19:40.279Z</time></trkpt><trkpt lat="42.4787133" lon="14.1373183"><ele>168.0</ele><time>2026-05-01T15:19:41.279Z</time></trkpt><trkpt lat="42.4788233" lon="14.13729"><ele>168.0</ele><time>2026-05-01T15:19:42.279Z</time></trkpt><trkpt lat="42.4789233" lon="14.1372467"><ele>167.8</ele><time>2026-05-01T15:19:43.279Z</time></trkpt><trkpt lat="42.4790167" lon="14.1371933"><ele>167.60000000000002</ele><time>2026-05-01T15:19:44.28Z</time></trkpt><trkpt lat="42.4791133" lon="14.1371283"><ele>167.39999999999998</ele><time>2026-05-01T15:19:45.279Z</time></trkpt><trkpt lat="42.4792117" lon="14.1370533"><ele>167.2</ele><time>2026-05-01T15:19:46.279Z</time></trkpt><trkpt lat="42.479305" lon="14.136945"><ele>167.0</ele><time>2026-05-01T15:19:47.279Z</time></trkpt><trkpt lat="42.4793833" lon="14.13681"><ele>167.0</ele><time>2026-05-01T15:19:48.279Z</time></trkpt><trkpt lat="42.4794533" lon="14.1366617"><ele>167.0</ele><time>2026-05-01T15:19:49.279Z</time></trkpt><trkpt lat="42.47953" lon="14.1365217"><ele>167.0</ele><time>2026-05-01T15:19:50.279Z</time></trkpt><trkpt lat="42.4796083" lon="14.1364083"><ele>167.0</ele><time>2026-05-01T15:19:51.279Z</time></trkpt><trkpt lat="42.4796917" lon="14.1362967"><ele>166.5</ele><time>2026-05-01T15:19:52.279Z</time></trkpt><trkpt lat="42.4797783" lon="14.1361917"><ele>166.0</ele><time>2026-05-01T15:19:53.279Z</time></trkpt><trkpt lat="42.4798517" lon="14.1360533"><ele>165.5</ele><time>2026-05-01T15:19:54.279Z</time></trkpt><trkpt lat="42.4799133" lon="14.1359033"><ele>165.0</ele><time>2026-05-01T15:19:55.279Z</time></trkpt><trkpt lat="42.4799583" lon="14.1357467"><ele>163.4</ele><time>2026-05-01T15:19:56.279Z</time></trkpt><trkpt lat="42.4799917" lon="14.1356"><ele>161.8</ele><time>2026-05-01T15:19:57.279Z</time></trkpt><trkpt lat="42.480025" lon="14.1354533"><ele>160.2</ele><time>2026-05-01T15:19:58.279Z</time></trkpt><trkpt lat="42.4800667" lon="14.13532"><ele>158.6</ele><time>2026-05-01T15:19:59.279Z</time></trkpt><trkpt lat="42.4801217" lon="14.1352"><ele>157.0</ele><time>2026-05-01T15:20:00.279Z</time></trkpt><trkpt lat="42.480205" lon="14.1350983"><ele>157.0</ele><time>2026-05-01T15:20:01.279Z</time></trkpt><trkpt lat="42.4802983" lon="14.1350017"><ele>157.0</ele><time>2026-05-01T15:20:02.279Z</time></trkpt><trkpt lat="42.4803867" lon="14.134915"><ele>157.0</ele><time>2026-05-01T15:20:03.279Z</time></trkpt><trkpt lat="42.4804783" lon="14.1348533"><ele>157.0</ele><time>2026-05-01T15:20:04.279Z</time></trkpt><trkpt lat="42.48057" lon="14.1348"><ele>157.0</ele><time>2026-05-01T15:20:05.279Z</time></trkpt><trkpt lat="42.48067" lon="14.1347783"><ele>157.25</ele><time>2026-05-01T15:20:06.279Z</time></trkpt><trkpt lat="42.4807767" lon="14.1348033"><ele>157.5</ele><time>2026-05-01T15:20:07.279Z</time></trkpt><trkpt lat="42.4808767" lon="14.1348717"><ele>157.75</ele><time>2026-05-01T15:20:08.279Z</time></trkpt><trkpt lat="42.480975" lon="14.13496"><ele>158.0</ele><time>2026-05-01T15:20:09.279Z</time></trkpt><trkpt lat="42.48105" lon="14.135085"><ele>158.0</ele><time>2026-05-01T15:20:10.279Z</time></trkpt><trkpt lat="42.4811133" lon="14.135225"><ele>158.0</ele><time>2026-05-01T15:20:11.28Z</time></trkpt><trkpt lat="42.481165" lon="14.135375"><ele>158.0</ele><time>2026-05-01T15:20:12.279Z</time></trkpt><trkpt lat="42.4812133" lon="14.13551"><ele>158.0</ele><time>2026-05-01T15:20:13.279Z</time></trkpt><trkpt lat="42.4812633" lon="14.1356617"><ele>155.25</ele><time>2026-05-01T15:20:14.279Z</time></trkpt><trkpt lat="42.48132" lon="14.1358217"><ele>152.5</ele><time>2026-05-01T15:20:15.279Z</time></trkpt><trkpt lat="42.48137" lon="14.1359667"><ele>149.75</ele><time>2026-05-01T15:20:16.279Z</time></trkpt><trkpt lat="42.48142" lon="14.13611"><ele>147.0</ele><time>2026-05-01T15:20:17.28Z</time></trkpt><trkpt lat="42.4814633" lon="14.1362483"><ele>147.0</ele><time>2026-05-01T15:20:18.279Z</time></trkpt><trkpt lat="42.481515" lon="14.1363683"><ele>147.0</ele><time>2026-05-01T15:20:19.279Z</time></trkpt><trkpt lat="42.4815833" lon="14.1364783"><ele>147.0</ele><time>2026-05-01T15:20:20.279Z</time></trkpt><trkpt lat="42.4816683" lon="14.1365367"><ele>147.0</ele><time>2026-05-01T15:20:21.279Z</time></trkpt><trkpt lat="42.4817767" lon="14.1365517"><ele>147.0</ele><time>2026-05-01T15:20:22.279Z</time></trkpt><trkpt lat="42.4818833" lon="14.1365317"><ele>147.0</ele><time>2026-05-01T15:20:23.279Z</time></trkpt><trkpt lat="42.4819817" lon="14.1364667"><ele>147.0</ele><time>2026-05-01T15:20:24.28Z</time></trkpt><trkpt lat="42.482055" lon="14.1363767"><ele>147.0</ele><time>2026-05-01T15:20:25.279Z</time></trkpt><trkpt lat="42.4821117" lon="14.1362433"><ele>147.0</ele><time>2026-05-01T15:20:26.279Z</time></trkpt><trkpt lat="42.4821567" lon="14.1360767"><ele>145.75</ele><time>2026-05-01T15:20:27.279Z</time></trkpt><trkpt lat="42.4821867" lon="14.135905"><ele>144.5</ele><time>2026-05-01T15:20:28.279Z</time></trkpt><trkpt lat="42.4822183" lon="14.1357283"><ele>143.25</ele><time>2026-05-01T15:20:29.279Z</time></trkpt><trkpt lat="42.482255" lon="14.1355367"><ele>142.0</ele><time>2026-05-01T15:20:30.279Z</time></trkpt><trkpt lat="42.482295" lon="14.1353383"><ele>141.0</ele><time>2026-05-01T15:20:31.279Z</time></trkpt><trkpt lat="42.4823383" lon="14.1351383"><ele>140.0</ele><time>2026-05-01T15:20:32.279Z</time></trkpt><trkpt lat="42.4823783" lon="14.1349333"><ele>139.0</ele><time>2026-05-01T15:20:33.279Z</time></trkpt><trkpt lat="42.482425" lon="14.134735"><ele>138.5</ele><time>2026-05-01T15:20:34.279Z</time></trkpt><trkpt lat="42.4824717" lon="14.1345467"><ele>138.0</ele><time>2026-05-01T15:20:35.279Z</time></trkpt><trkpt lat="42.4825083" lon="14.1343667"><ele>137.5</ele><time>2026-05-01T15:20:36.279Z</time></trkpt><trkpt lat="42.4825433" lon="14.1342"><ele>137.0</ele><time>2026-05-01T15:20:37.279Z</time></trkpt><trkpt lat="42.48258" lon="14.1340467"><ele>136.0</ele><time>2026-05-01T15:20:38.279Z</time></trkpt><trkpt lat="42.482615" lon="14.1338933"><ele>135.0</ele><time>2026-05-01T15:20:39.279Z</time></trkpt><trkpt lat="42.4826483" lon="14.1337417"><ele>134.0</ele><time>2026-05-01T15:20:40.279Z</time></trkpt><trkpt lat="42.4826917" lon="14.1335967"><ele>133.0</ele><time>2026-05-01T15:20:41.279Z</time></trkpt><trkpt lat="42.48275" lon="14.1334583"><ele>133.0</ele><time>2026-05-01T15:20:42.279Z</time></trkpt><trkpt lat="42.48282" lon="14.133345"><ele>133.0</ele><time>2026-05-01T15:20:43.279Z</time></trkpt><trkpt lat="42.482905" lon="14.1332517"><ele>133.0</ele><time>2026-05-01T15:20:44.279Z</time></trkpt><trkpt lat="42.483015" lon="14.1331933"><ele>133.0</ele><time>2026-05-01T15:20:45.279Z</time></trkpt><trkpt lat="42.48313" lon="14.13313"><ele>132.0</ele><time>2026-05-01T15:20:46.279Z</time></trkpt><trkpt lat="42.4832517" lon="14.1330733"><ele>131.0</ele><time>2026-05-01T15:20:47.279Z</time></trkpt><trkpt lat="42.4833767" lon="14.1330167"><ele>130.0</ele><time>2026-05-01T15:20:48.279Z</time></trkpt><trkpt lat="42.48351" lon="14.1329517"><ele>129.0</ele><time>2026-05-01T15:20:49.279Z</time></trkpt><trkpt lat="42.4836467" lon="14.13288"><ele>128.0</ele><time>2026-05-01T15:20:50.279Z</time></trkpt><trkpt lat="42.4837833" lon="14.1328133"><ele>127.0</ele><time>2026-05-01T15:20:51.28Z</time></trkpt><trkpt lat="42.4839183" lon="14.132745"><ele>126.0</ele><time>2026-05-01T15:20:52.279Z</time></trkpt><trkpt lat="42.48405" lon="14.13268"><ele>125.0</ele><time>2026-05-01T15:20:53.279Z</time></trkpt><trkpt lat="42.48418" lon="14.1326133"><ele>125.0</ele><time>2026-05-01T15:20:54.279Z</time></trkpt><trkpt lat="42.4843083" lon="14.132555"><ele>125.0</ele><time>2026-05-01T15:20:55.28Z</time></trkpt><trkpt lat="42.4844333" lon="14.1325"><ele>125.0</ele><time>2026-05-01T15:20:56.279Z</time></trkpt><trkpt lat="42.4845633" lon="14.132435"><ele>125.0</ele><time>2026-05-01T15:20:57.28Z</time></trkpt><trkpt lat="42.4846983" lon="14.132375"><ele>123.5</ele><time>2026-05-01T15:20:58.279Z</time></trkpt><trkpt lat="42.4848233" lon="14.1323267"><ele>122.0</ele><time>2026-05-01T15:20:59.279Z</time></trkpt><trkpt lat="42.4849483" lon="14.132295"><ele>120.5</ele><time>2026-05-01T15:21:00.279Z</time></trkpt><trkpt lat="42.485075" lon="14.13229"><ele>119.0</ele><time>2026-05-01T15:21:01.279Z</time></trkpt><trkpt lat="42.4851983" lon="14.1323283"><ele>119.25</ele><time>2026-05-01T15:21:02.279Z</time></trkpt><trkpt lat="42.4853167" lon="14.1323933"><ele>119.5</ele><time>2026-05-01T15:21:03.279Z</time></trkpt><trkpt lat="42.4854217" lon="14.1325017"><ele>119.75</ele><time>2026-05-01T15:21:04.279Z</time></trkpt><trkpt lat="42.4855217" lon="14.1326167"><ele>120.0</ele><time>2026-05-01T15:21:05.279Z</time></trkpt><trkpt lat="42.48562" lon="14.13273"><ele>119.5</ele><time>2026-05-01T15:21:06.279Z</time></trkpt><trkpt lat="42.4857133" lon="14.1328417"><ele>119.0</ele><time>2026-05-01T15:21:07.279Z</time></trkpt><trkpt lat="42.4858083" lon="14.13297"><ele>118.5</ele><time>2026-05-01T15:21:08.279Z</time></trkpt><trkpt lat="42.4859117" lon="14.1330867"><ele>118.0</ele><time>2026-05-01T15:21:09.279Z</time></trkpt><trkpt lat="42.4860117" lon="14.1332117"><ele>117.75</ele><time>2026-05-01T15:21:10.279Z</time></trkpt><trkpt lat="42.4861083" lon="14.133335"><ele>117.5</ele><time>2026-05-01T15:21:11.279Z</time></trkpt><trkpt lat="42.4862033" lon="14.133445"><ele>117.25</ele><time>2026-05-01T15:21:12.279Z</time></trkpt><trkpt lat="42.4862983" lon="14.133555"><ele>117.0</ele><time>2026-05-01T15:21:13.279Z</time></trkpt><trkpt lat="42.48639" lon="14.1336583"><ele>117.0</ele><time>2026-05-01T15:21:14.28Z</time></trkpt><trkpt lat="42.4864683" lon="14.1337617"><ele>116.99999999999999</ele><time>2026-05-01T15:21:15.279Z</time></trkpt><trkpt lat="42.4865417" lon="14.1338733"><ele>116.99999999999999</ele><time>2026-05-01T15:21:16.279Z</time></trkpt><trkpt lat="42.4866067" lon="14.133985"><ele>117.0</ele><time>2026-05-01T15:21:17.279Z</time></trkpt><trkpt lat="42.4866483" lon="14.1341067"><ele>117.0</ele><time>2026-05-01T15:21:18.279Z</time></trkpt><trkpt lat="42.4866733" lon="14.1342383"><ele>117.0</ele><time>2026-05-01T15:21:19.28Z</time></trkpt><trkpt lat="42.4867" lon="14.13438"><ele>117.0</ele><time>2026-05-01T15:21:20.279Z</time></trkpt><trkpt lat="42.48673" lon="14.134535"><ele>117.0</ele><time>2026-05-01T15:21:21.279Z</time></trkpt><trkpt lat="42.486755" lon="14.1347017"><ele>117.0</ele><time>2026-05-01T15:21:22.279Z</time></trkpt><trkpt lat="42.4867767" lon="14.1348717"><ele>117.0</ele><time>2026-05-01T15:21:23.279Z</time></trkpt><trkpt lat="42.4868083" lon="14.1350467"><ele>117.0</ele><time>2026-05-01T15:21:24.279Z</time></trkpt><trkpt lat="42.4868317" lon="14.1352233"><ele>117.0</ele><time>2026-05-01T15:21:25.279Z</time></trkpt><trkpt lat="42.4868667" lon="14.1354067"><ele>117.0</ele><time>2026-05-01T15:21:26.279Z</time></trkpt><trkpt lat="42.486905" lon="14.1355883"><ele>116.66666666666666</ele><time>2026-05-01T15:21:27.279Z</time></trkpt><trkpt lat="42.486955" lon="14.1357767"><ele>116.33333333333333</ele><time>2026-05-01T15:21:28.279Z</time></trkpt><trkpt lat="42.487015" lon="14.1359733"><ele>116.0</ele><time>2026-05-01T15:21:29.279Z</time></trkpt><trkpt lat="42.487085" lon="14.1361717"><ele>117.0</ele><time>2026-05-01T15:21:30.279Z</time></trkpt><trkpt lat="42.48717" lon="14.1363717"><ele>118.0</ele><time>2026-05-01T15:21:31.279Z</time></trkpt><trkpt lat="42.4872483" lon="14.1365617"><ele>119.0</ele><time>2026-05-01T15:21:32.279Z</time></trkpt><trkpt lat="42.48732" lon="14.1367517"><ele>120.25</ele><time>2026-05-01T15:21:33.28Z</time></trkpt><trkpt lat="42.4873917" lon="14.1369433"><ele>121.5</ele><time>2026-05-01T15:21:34.279Z</time></trkpt><trkpt lat="42.48745" lon="14.13712"><ele>122.75</ele><time>2026-05-01T15:21:35.279Z</time></trkpt><trkpt lat="42.4875083" lon="14.1372767"><ele>124.0</ele><time>2026-05-01T15:21:36.279Z</time></trkpt><trkpt lat="42.4875517" lon="14.1374233"><ele>124.0</ele><time>2026-05-01T15:21:37.279Z</time></trkpt><trkpt lat="42.48759" lon="14.1375667"><ele>124.0</ele><time>2026-05-01T15:21:38.279Z</time></trkpt><trkpt lat="42.48761" lon="14.13772"><ele>124.0</ele><time>2026-05-01T15:21:39.279Z</time></trkpt><trkpt lat="42.4876217" lon="14.1378883"><ele>124.0</ele><time>2026-05-01T15:21:40.28Z</time></trkpt><trkpt lat="42.4876217" lon="14.13807"><ele>124.25</ele><time>2026-05-01T15:21:41.279Z</time></trkpt><trkpt lat="42.4876067" lon="14.1382517"><ele>124.5</ele><time>2026-05-01T15:21:42.279Z</time></trkpt><trkpt lat="42.4876067" lon="14.1384333"><ele>124.75</ele><time>2026-05-01T15:21:43.279Z</time></trkpt><trkpt lat="42.4876367" lon="14.1386067"><ele>125.0</ele><time>2026-05-01T15:21:44.279Z</time></trkpt><trkpt lat="42.4876883" lon="14.1387867"><ele>125.0</ele><time>2026-05-01T15:21:45.279Z</time></trkpt><trkpt lat="42.4877667" lon="14.1389517"><ele>125.0</ele><time>2026-05-01T15:21:46.279Z</time></trkpt><trkpt lat="42.4878717" lon="14.1391033"><ele>125.0</ele><time>2026-05-01T15:21:47.279Z</time></trkpt><trkpt lat="42.4879967" lon="14.1392267"><ele>128.0</ele><time>2026-05-01T15:21:48.279Z</time></trkpt><trkpt lat="42.4881417" lon="14.1393067"><ele>131.0</ele><time>2026-05-01T15:21:49.279Z</time></trkpt><trkpt lat="42.4882867" lon="14.1393533"><ele>134.0</ele><time>2026-05-01T15:21:50.279Z</time></trkpt><trkpt lat="42.488435" lon="14.1393667"><ele>134.0</ele><time>2026-05-01T15:21:51.279Z</time></trkpt><trkpt lat="42.48856" lon="14.13936"><ele>134.0</ele><time>2026-05-01T15:21:52.279Z</time></trkpt><trkpt lat="42.4886867" lon="14.13936"><ele>134.0</ele><time>2026-05-01T15:21:53.279Z</time></trkpt><trkpt lat="42.4888067" lon="14.1393717"><ele>134.0</ele><time>2026-05-01T15:21:54.279Z</time></trkpt><trkpt lat="42.488905" lon="14.1393967"><ele>134.5</ele><time>2026-05-01T15:21:55.279Z</time></trkpt><trkpt lat="42.4890067" lon="14.13945"><ele>135.0</ele><time>2026-05-01T15:21:56.28Z</time></trkpt><trkpt lat="42.4891" lon="14.1395083"><ele>135.5</ele><time>2026-05-01T15:21:57.279Z</time></trkpt><trkpt lat="42.4891767" lon="14.1395733"><ele>136.0</ele><time>2026-05-01T15:21:58.279Z</time></trkpt><trkpt lat="42.4892433" lon="14.13961"><ele>136.5</ele><time>2026-05-01T15:21:59.279Z</time></trkpt><trkpt lat="42.4893083" lon="14.1396117"><ele>137.0</ele><time>2026-05-01T15:22:00.279Z</time></trkpt><trkpt lat="42.489375" lon="14.1395767"><ele>137.0</ele><time>2026-05-01T15:22:01.279Z</time></trkpt><trkpt lat="42.4894533" lon="14.139515"><ele>137.0</ele><time>2026-05-01T15:22:02.279Z</time></trkpt><trkpt lat="42.4895583" lon="14.1394633"><ele>137.0</ele><time>2026-05-01T15:22:03.28Z</time></trkpt><trkpt lat="42.489685" lon="14.1394367"><ele>137.0</ele><time>2026-05-01T15:22:04.279Z</time></trkpt><trkpt lat="42.489805" lon="14.139425"><ele>137.79999999999998</ele><time>2026-05-01T15:22:05.279Z</time></trkpt><trkpt lat="42.489915" lon="14.1394333"><ele>138.6</ele><time>2026-05-01T15:22:06.279Z</time></trkpt><trkpt lat="42.490015" lon="14.1394333"><ele>139.39999999999998</ele><time>2026-05-01T15:22:07.279Z</time></trkpt><trkpt lat="42.490115" lon="14.1394383"><ele>140.2</ele><time>2026-05-01T15:22:08.279Z</time></trkpt><trkpt lat="42.4902183" lon="14.139455"><ele>141.0</ele><time>2026-05-01T15:22:09.279Z</time></trkpt><trkpt lat="42.490325" lon="14.13947"><ele>142.66666666666666</ele><time>2026-05-01T15:22:10.279Z</time></trkpt><trkpt lat="42.490425" lon="14.1394833"><ele>144.33333333333334</ele><time>2026-05-01T15:22:11.279Z</time></trkpt><trkpt lat="42.4905183" lon="14.1395067"><ele>146.0</ele><time>2026-05-01T15:22:12.279Z</time></trkpt><trkpt lat="42.49059" lon="14.1395117"><ele>147.66666666666669</ele><time>2026-05-01T15:22:13.28Z</time></trkpt><trkpt lat="42.490665" lon="14.1395167"><ele>149.33333333333334</ele><time>2026-05-01T15:22:14.279Z</time></trkpt><trkpt lat="42.49074" lon="14.139525"><ele>151.0</ele><time>2026-05-01T15:22:15.279Z</time></trkpt><trkpt lat="42.4908033" lon="14.1395483"><ele>151.0</ele><time>2026-05-01T15:22:16.279Z</time></trkpt><trkpt lat="42.49088" lon="14.139665"><ele>151.0</ele><time>2026-05-01T15:22:18.279Z</time></trkpt><trkpt lat="42.4908883" lon="14.139755"><ele>151.0</ele><time>2026-05-01T15:22:19.279Z</time></trkpt><trkpt lat="42.4908867" lon="14.13987"><ele>151.0</ele><time>2026-05-01T15:22:20.279Z</time></trkpt><trkpt lat="42.4908717" lon="14.1400183"><ele>151.0</ele><time>2026-05-01T15:22:21.28Z</time></trkpt><trkpt lat="42.4908667" lon="14.1401767"><ele>151.8</ele><time>2026-05-01T15:22:22.28Z</time></trkpt><trkpt lat="42.4908583" lon="14.1403433"><ele>152.6</ele><time>2026-05-01T15:22:23.279Z</time></trkpt><trkpt lat="42.4908583" lon="14.1405017"><ele>153.4</ele><time>2026-05-01T15:22:24.279Z</time></trkpt><trkpt lat="42.490865" lon="14.1406233"><ele>154.2</ele><time>2026-05-01T15:22:25.279Z</time></trkpt><trkpt lat="42.49088" lon="14.1407267"><ele>155.0</ele><time>2026-05-01T15:22:26.28Z</time></trkpt><trkpt lat="42.4909067" lon="14.1408217"><ele>155.0</ele><time>2026-05-01T15:22:27.279Z</time></trkpt><trkpt lat="42.4909517" lon="14.1408867"><ele>155.0</ele><time>2026-05-01T15:22:28.279Z</time></trkpt><trkpt lat="42.4910617" lon="14.1408917"><ele>155.0</ele><time>2026-05-01T15:22:30.279Z</time></trkpt><trkpt lat="42.4911183" lon="14.1408383"><ele>155.0</ele><time>2026-05-01T15:22:31.28Z</time></trkpt><trkpt lat="42.4911583" lon="14.1407683"><ele>155.0</ele><time>2026-05-01T15:22:32.28Z</time></trkpt><trkpt lat="42.4912267" lon="14.1406433"><ele>155.0</ele><time>2026-05-01T15:22:34.279Z</time></trkpt><trkpt lat="42.4912817" lon="14.1405367"><ele>156.0</ele><time>2026-05-01T15:22:36.28Z</time></trkpt><trkpt lat="42.4913233" lon="14.1404517"><ele>157.0</ele><time>2026-05-01T15:22:38.28Z</time></trkpt><trkpt lat="42.4913617" lon="14.1403617"><ele>158.0</ele><time>2026-05-01T15:22:40.28Z</time></trkpt><trkpt lat="42.49146" lon="14.1403283"><ele>159.0</ele><time>2026-05-01T15:22:42.279Z</time></trkpt><trkpt lat="42.4915267" lon="14.1403633"><ele>160.0</ele><time>2026-05-01T15:22:43.279Z</time></trkpt><trkpt lat="42.4915833" lon="14.1404383"><ele>161.0</ele><time>2026-05-01T15:22:44.279Z</time></trkpt><trkpt lat="42.4916217" lon="14.1405367"><ele>161.0</ele><time>2026-05-01T15:22:45.279Z</time></trkpt><trkpt lat="42.4916583" lon="14.1406633"><ele>161.0</ele><time>2026-05-01T15:22:46.279Z</time></trkpt><trkpt lat="42.4916817" lon="14.1407883"><ele>161.0</ele><time>2026-05-01T15:22:47.279Z</time></trkpt><trkpt lat="42.4917133" lon="14.14091"><ele>161.0</ele><time>2026-05-01T15:22:48.279Z</time></trkpt><trkpt lat="42.491745" lon="14.1410417"><ele>161.0</ele><time>2026-05-01T15:22:49.279Z</time></trkpt><trkpt lat="42.4917683" lon="14.141175"><ele>161.0</ele><time>2026-05-01T15:22:50.279Z</time></trkpt><trkpt lat="42.4917767" lon="14.141315"><ele>161.0</ele><time>2026-05-01T15:22:51.279Z</time></trkpt><trkpt lat="42.4917767" lon="14.14145"><ele>161.0</ele><time>2026-05-01T15:22:52.279Z</time></trkpt><trkpt lat="42.4917567" lon="14.1415833"><ele>161.0</ele><time>2026-05-01T15:22:53.279Z</time></trkpt><trkpt lat="42.491725" lon="14.141685"><ele>161.0</ele><time>2026-05-01T15:22:54.279Z</time></trkpt><trkpt lat="42.4916867" lon="14.1417933"><ele>161.0</ele><time>2026-05-01T15:22:55.279Z</time></trkpt><trkpt lat="42.4916417" lon="14.141905"><ele>161.0</ele><time>2026-05-01T15:22:56.279Z</time></trkpt><trkpt lat="42.4916033" lon="14.1420317"><ele>161.0</ele><time>2026-05-01T15:22:57.279Z</time></trkpt><trkpt lat="42.4915767" lon="14.1421483"><ele>161.0</ele><time>2026-05-01T15:22:58.279Z</time></trkpt><trkpt lat="42.4915767" lon="14.1422683"><ele>161.0</ele><time>2026-05-01T15:22:59.279Z</time></trkpt><trkpt lat="42.4916083" lon="14.1423983"><ele>160.20000000000002</ele><time>2026-05-01T15:23:00.28Z</time></trkpt><trkpt lat="42.4916617" lon="14.1425133"><ele>159.4</ele><time>2026-05-01T15:23:01.279Z</time></trkpt><trkpt lat="42.4917183" lon="14.14263"><ele>158.6</ele><time>2026-05-01T15:23:02.279Z</time></trkpt><trkpt lat="42.4917617" lon="14.1427383"><ele>157.8</ele><time>2026-05-01T15:23:03.279Z</time></trkpt><trkpt lat="42.4917767" lon="14.142855"><ele>157.0</ele><time>2026-05-01T15:23:04.279Z</time></trkpt><trkpt lat="42.49176" lon="14.14297"><ele>157.0</ele><time>2026-05-01T15:23:05.279Z</time></trkpt><trkpt lat="42.4917133" lon="14.1430733"><ele>157.0</ele><time>2026-05-01T15:23:06.279Z</time></trkpt><trkpt lat="42.4916617" lon="14.1431767"><ele>157.0</ele><time>2026-05-01T15:23:07.279Z</time></trkpt><trkpt lat="42.4916033" lon="14.1432867"><ele>157.0</ele><time>2026-05-01T15:23:08.279Z</time></trkpt><trkpt lat="42.4915633" lon="14.1434"><ele>157.0</ele><time>2026-05-01T15:23:09.279Z</time></trkpt><trkpt lat="42.4915583" lon="14.1435383"><ele>157.0</ele><time>2026-05-01T15:23:10.279Z</time></trkpt><trkpt lat="42.491585" lon="14.1436833"><ele>157.0</ele><time>2026-05-01T15:23:11.279Z</time></trkpt><trkpt lat="42.4916483" lon="14.1438283"><ele>157.0</ele><time>2026-05-01T15:23:12.28Z</time></trkpt><trkpt lat="42.49172" lon="14.1439767"><ele>157.0</ele><time>2026-05-01T15:23:13.279Z</time></trkpt><trkpt lat="42.491815" lon="14.1441033"><ele>157.0</ele><time>2026-05-01T15:23:14.279Z</time></trkpt><trkpt lat="42.4919317" lon="14.1441983"><ele>157.0</ele><time>2026-05-01T15:23:15.279Z</time></trkpt><trkpt lat="42.49207" lon="14.144255"><ele>157.0</ele><time>2026-05-01T15:23:16.279Z</time></trkpt><trkpt lat="42.4922117" lon="14.1443033"><ele>157.0</ele><time>2026-05-01T15:23:17.279Z</time></trkpt><trkpt lat="42.49235" lon="14.1443533"><ele>150.75</ele><time>2026-05-01T15:23:18.279Z</time></trkpt><trkpt lat="42.492485" lon="14.1444167"><ele>144.5</ele><time>2026-05-01T15:23:19.279Z</time></trkpt><trkpt lat="42.492605" lon="14.1444833"><ele>138.25</ele><time>2026-05-01T15:23:20.28Z</time></trkpt><trkpt lat="42.492715" lon="14.14455"><ele>132.0</ele><time>2026-05-01T15:23:21.279Z</time></trkpt><trkpt lat="42.4928133" lon="14.144605"><ele>132.0</ele><time>2026-05-01T15:23:22.279Z</time></trkpt><trkpt lat="42.4929083" lon="14.1447083"><ele>132.0</ele><time>2026-05-01T15:23:23.279Z</time></trkpt><trkpt lat="42.4929967" lon="14.14482"><ele>132.0</ele><time>2026-05-01T15:23:24.279Z</time></trkpt><trkpt lat="42.493075" lon="14.1449433"><ele>132.0</ele><time>2026-05-01T15:23:25.279Z</time></trkpt><trkpt lat="42.4931533" lon="14.1450717"><ele>133.0</ele><time>2026-05-01T15:23:26.279Z</time></trkpt><trkpt lat="42.49324" lon="14.14519"><ele>134.0</ele><time>2026-05-01T15:23:27.279Z</time></trkpt><trkpt lat="42.4933317" lon="14.1452633"><ele>135.0</ele><time>2026-05-01T15:23:28.279Z</time></trkpt><trkpt lat="42.4934283" lon="14.1453067"><ele>136.0</ele><time>2026-05-01T15:23:29.28Z</time></trkpt><trkpt lat="42.4935267" lon="14.145315"><ele>137.0</ele><time>2026-05-01T15:23:30.279Z</time></trkpt><trkpt lat="42.4936267" lon="14.1452883"><ele>137.0</ele><time>2026-05-01T15:23:31.279Z</time></trkpt><trkpt lat="42.4937267" lon="14.1452517"><ele>137.0</ele><time>2026-05-01T15:23:32.279Z</time></trkpt><trkpt lat="42.4938133" lon="14.1451683"><ele>137.0</ele><time>2026-05-01T15:23:33.279Z</time></trkpt><trkpt lat="42.4938817" lon="14.145055"><ele>137.0</ele><time>2026-05-01T15:23:34.279Z</time></trkpt><trkpt lat="42.4939333" lon="14.144915"><ele>137.0</ele><time>2026-05-01T15:23:35.279Z</time></trkpt><trkpt lat="42.49397" lon="14.14475"><ele>132.25</ele><time>2026-05-01T15:23:36.279Z</time></trkpt><trkpt lat="42.494005" lon="14.14459"><ele>127.5</ele><time>2026-05-01T15:23:37.279Z</time></trkpt><trkpt lat="42.4940433" lon="14.1444333"><ele>122.75</ele><time>2026-05-01T15:23:38.279Z</time></trkpt><trkpt lat="42.494095" lon="14.1442767"><ele>118.0</ele><time>2026-05-01T15:23:39.279Z</time></trkpt><trkpt lat="42.4941567" lon="14.1441417"><ele>112.75</ele><time>2026-05-01T15:23:40.279Z</time></trkpt><trkpt lat="42.4942333" lon="14.1440367"><ele>107.5</ele><time>2026-05-01T15:23:41.279Z</time></trkpt><trkpt lat="42.49433" lon="14.143965"><ele>102.25</ele><time>2026-05-01T15:23:42.279Z</time></trkpt><trkpt lat="42.4944433" lon="14.14391"><ele>97.0</ele><time>2026-05-01T15:23:43.279Z</time></trkpt><trkpt lat="42.4945683" lon="14.1438667"><ele>98.75</ele><time>2026-05-01T15:23:44.279Z</time></trkpt><trkpt lat="42.4947117" lon="14.1438767"><ele>100.5</ele><time>2026-05-01T15:23:45.279Z</time></trkpt><trkpt lat="42.494855" lon="14.143885"><ele>102.25</ele><time>2026-05-01T15:23:46.279Z</time></trkpt><trkpt lat="42.4949967" lon="14.1438717"><ele>104.0</ele><time>2026-05-01T15:23:47.279Z</time></trkpt><trkpt lat="42.4951417" lon="14.1438383"><ele>104.0</ele><time>2026-05-01T15:23:48.279Z</time></trkpt><trkpt lat="42.4952917" lon="14.1437817"><ele>104.0</ele><time>2026-05-01T15:23:49.279Z</time></trkpt><trkpt lat="42.495425" lon="14.1437183"><ele>104.0</ele><time>2026-05-01T15:23:50.279Z</time></trkpt><trkpt lat="42.4955617" lon="14.1436433"><ele>104.0</ele><time>2026-05-01T15:23:51.279Z</time></trkpt><trkpt lat="42.49569" lon="14.1435567"><ele>103.33333333333333</ele><time>2026-05-01T15:23:52.279Z</time></trkpt><trkpt lat="42.49582" lon="14.14344"><ele>102.66666666666666</ele><time>2026-05-01T15:23:53.279Z</time></trkpt><trkpt lat="42.49595" lon="14.1433283"><ele>102.0</ele><time>2026-05-01T15:23:54.279Z</time></trkpt><trkpt lat="42.4960883" lon="14.1432067"><ele>102.0</ele><time>2026-05-01T15:23:55.279Z</time></trkpt><trkpt lat="42.496225" lon="14.14309"><ele>102.0</ele><time>2026-05-01T15:23:56.28Z</time></trkpt><trkpt lat="42.4963567" lon="14.142985"><ele>102.0</ele><time>2026-05-01T15:23:57.279Z</time></trkpt><trkpt lat="42.4965033" lon="14.1428667"><ele>101.33333333333334</ele><time>2026-05-01T15:23:58.279Z</time></trkpt><trkpt lat="42.4966417" lon="14.142755"><ele>100.66666666666667</ele><time>2026-05-01T15:23:59.279Z</time></trkpt><trkpt lat="42.4967683" lon="14.1426467"><ele>100.0</ele><time>2026-05-01T15:24:00.28Z</time></trkpt><trkpt lat="42.4968967" lon="14.1425333"><ele>100.0</ele><time>2026-05-01T15:24:01.279Z</time></trkpt><trkpt lat="42.4970183" lon="14.1424167"><ele>100.0</ele><time>2026-05-01T15:24:02.28Z</time></trkpt><trkpt lat="42.4971233" lon="14.1422967"><ele>100.0</ele><time>2026-05-01T15:24:03.279Z</time></trkpt><trkpt lat="42.4972133" lon="14.1421883"><ele>100.0</ele><time>2026-05-01T15:24:04.279Z</time></trkpt><trkpt lat="42.4972967" lon="14.1420817"><ele>97.50000000000001</ele><time>2026-05-01T15:24:05.279Z</time></trkpt><trkpt lat="42.4973733" lon="14.1419983"><ele>95.0</ele><time>2026-05-01T15:24:06.279Z</time></trkpt><trkpt lat="42.4974467" lon="14.1419433"><ele>92.5</ele><time>2026-05-01T15:24:07.279Z</time></trkpt><trkpt lat="42.49752" lon="14.1419133"><ele>90.0</ele><time>2026-05-01T15:24:08.279Z</time></trkpt><trkpt lat="42.49758" lon="14.141955"><ele>87.5</ele><time>2026-05-01T15:24:09.279Z</time></trkpt><trkpt lat="42.4976117" lon="14.142035"><ele>85.0</ele><time>2026-05-01T15:24:10.279Z</time></trkpt><trkpt lat="42.4975917" lon="14.142145"><ele>85.0</ele><time>2026-05-01T15:24:11.279Z</time></trkpt><trkpt lat="42.4975533" lon="14.1422767"><ele>85.0</ele><time>2026-05-01T15:24:12.279Z</time></trkpt><trkpt lat="42.49749" lon="14.14241"><ele>85.0</ele><time>2026-05-01T15:24:13.279Z</time></trkpt><trkpt lat="42.4974" lon="14.1425567"><ele>85.0</ele><time>2026-05-01T15:24:14.279Z</time></trkpt><trkpt lat="42.4973133" lon="14.142715"><ele>85.33333333333333</ele><time>2026-05-01T15:24:15.279Z</time></trkpt><trkpt lat="42.4972167" lon="14.1428733"><ele>85.66666666666667</ele><time>2026-05-01T15:24:16.279Z</time></trkpt><trkpt lat="42.4971133" lon="14.1430417"><ele>86.0</ele><time>2026-05-01T15:24:17.279Z</time></trkpt><trkpt lat="42.497015" lon="14.1432167"><ele>89.33333333333334</ele><time>2026-05-01T15:24:18.279Z</time></trkpt><trkpt lat="42.496915" lon="14.1433933"><ele>92.66666666666667</ele><time>2026-05-01T15:24:19.28Z</time></trkpt><trkpt lat="42.49682" lon="14.1435633"><ele>96.0</ele><time>2026-05-01T15:24:20.279Z</time></trkpt><trkpt lat="42.496725" lon="14.1437117"><ele>96.0</ele><time>2026-05-01T15:24:21.279Z</time></trkpt><trkpt lat="42.4966317" lon="14.14384"><ele>96.0</ele><time>2026-05-01T15:24:22.279Z</time></trkpt><trkpt lat="42.4965383" lon="14.1439667"><ele>96.0</ele><time>2026-05-01T15:24:23.279Z</time></trkpt><trkpt lat="42.4964683" lon="14.1440933"><ele>96.0</ele><time>2026-05-01T15:24:24.279Z</time></trkpt><trkpt lat="42.4964217" lon="14.144255"><ele>92.5</ele><time>2026-05-01T15:24:25.279Z</time></trkpt><trkpt lat="42.4964017" lon="14.1444117"><ele>89.0</ele><time>2026-05-01T15:24:26.279Z</time></trkpt><trkpt lat="42.4963867" lon="14.1445767"><ele>85.5</ele><time>2026-05-01T15:24:27.279Z</time></trkpt><trkpt lat="42.4963983" lon="14.1447233"><ele>82.0</ele><time>2026-05-01T15:24:28.28Z</time></trkpt><trkpt lat="42.4963917" lon="14.1448883"><ele>84.0</ele><time>2026-05-01T15:24:29.279Z</time></trkpt><trkpt lat="42.496365" lon="14.145045"><ele>86.0</ele><time>2026-05-01T15:24:30.279Z</time></trkpt><trkpt lat="42.4963167" lon="14.14518"><ele>88.0</ele><time>2026-05-01T15:24:31.28Z</time></trkpt><trkpt lat="42.4962633" lon="14.1452967"><ele>90.0</ele><time>2026-05-01T15:24:32.28Z</time></trkpt><trkpt lat="42.4962067" lon="14.1454217"><ele>92.0</ele><time>2026-05-01T15:24:33.279Z</time></trkpt><trkpt lat="42.49617" lon="14.1455483"><ele>92.0</ele><time>2026-05-01T15:24:34.279Z</time></trkpt><trkpt lat="42.4961583" lon="14.1456883"><ele>92.0</ele><time>2026-05-01T15:24:35.279Z</time></trkpt><trkpt lat="42.4961717" lon="14.14581"><ele>92.0</ele><time>2026-05-01T15:24:36.279Z</time></trkpt><trkpt lat="42.496215" lon="14.1459267"><ele>92.0</ele><time>2026-05-01T15:24:37.279Z</time></trkpt><trkpt lat="42.4962983" lon="14.146005"><ele>92.0</ele><time>2026-05-01T15:24:38.279Z</time></trkpt><trkpt lat="42.4963967" lon="14.1460483"><ele>87.0</ele><time>2026-05-01T15:24:39.279Z</time></trkpt><trkpt lat="42.4965033" lon="14.1460333"><ele>82.0</ele><time>2026-05-01T15:24:40.279Z</time></trkpt><trkpt lat="42.4965967" lon="14.1459733"><ele>77.0</ele><time>2026-05-01T15:24:41.279Z</time></trkpt><trkpt lat="42.4966717" lon="14.145865"><ele>72.0</ele><time>2026-05-01T15:24:42.279Z</time></trkpt><trkpt lat="42.496715" lon="14.1456983"><ele>71.5</ele><time>2026-05-01T15:24:43.279Z</time></trkpt><trkpt lat="42.4967317" lon="14.1455167"><ele>71.0</ele><time>2026-05-01T15:24:44.279Z</time></trkpt><trkpt lat="42.4967367" lon="14.1453533"><ele>70.5</ele><time>2026-05-01T15:24:45.279Z</time></trkpt><trkpt lat="42.496755" lon="14.14519"><ele>70.0</ele><time>2026-05-01T15:24:46.279Z</time></trkpt><trkpt lat="42.4968" lon="14.1450133"><ele>67.5</ele><time>2026-05-01T15:24:47.279Z</time></trkpt><trkpt lat="42.4968767" lon="14.1448567"><ele>65.0</ele><time>2026-05-01T15:24:48.279Z</time></trkpt><trkpt lat="42.4969667" lon="14.1447317"><ele>62.5</ele><time>2026-05-01T15:24:49.279Z</time></trkpt><trkpt lat="42.49707" lon="14.1446167"><ele>60.0</ele><time>2026-05-01T15:24:50.279Z</time></trkpt><trkpt lat="42.4971983" lon="14.14453"><ele>60.0</ele><time>2026-05-01T15:24:51.279Z</time></trkpt><trkpt lat="42.4973367" lon="14.1444417"><ele>60.0</ele><time>2026-05-01T15:24:52.279Z</time></trkpt><trkpt lat="42.4974733" lon="14.14435"><ele>60.0</ele><time>2026-05-01T15:24:53.279Z</time></trkpt><trkpt lat="42.49761" lon="14.1442217"><ele>60.0</ele><time>2026-05-01T15:24:54.279Z</time></trkpt><trkpt lat="42.4977467" lon="14.1440567"><ele>60.0</ele><time>2026-05-01T15:24:55.279Z</time></trkpt><trkpt lat="42.49788" lon="14.14386"><ele>60.0</ele><time>2026-05-01T15:24:56.279Z</time></trkpt><trkpt lat="42.4980017" lon="14.1436633"><ele>61.33333333333333</ele><time>2026-05-01T15:24:57.279Z</time></trkpt><trkpt lat="42.498115" lon="14.1434867"><ele>62.666666666666664</ele><time>2026-05-01T15:24:58.279Z</time></trkpt><trkpt lat="42.4982117" lon="14.1433217"><ele>64.0</ele><time>2026-05-01T15:24:59.279Z</time></trkpt><trkpt lat="42.4982983" lon="14.14318"><ele>64.0</ele><time>2026-05-01T15:25:00.279Z</time></trkpt><trkpt lat="42.4983783" lon="14.1430467"><ele>64.0</ele><time>2026-05-01T15:25:01.279Z</time></trkpt><trkpt lat="42.4984433" lon="14.142935"><ele>64.0</ele><time>2026-05-01T15:25:02.279Z</time></trkpt><trkpt lat="42.4985017" lon="14.142845"><ele>64.0</ele><time>2026-05-01T15:25:03.279Z</time></trkpt><trkpt lat="42.4985583" lon="14.1427733"><ele>64.0</ele><time>2026-05-01T15:25:04.279Z</time></trkpt><trkpt lat="42.4986283" lon="14.1426917"><ele>63.99999999999999</ele><time>2026-05-01T15:25:06.279Z</time></trkpt><trkpt lat="42.49869" lon="14.1426433"><ele>64.0</ele><time>2026-05-01T15:25:14.279Z</time></trkpt><trkpt lat="42.49874" lon="14.1425133"><ele>64.0</ele><time>2026-05-01T15:25:16.279Z</time></trkpt><trkpt lat="42.498765" lon="14.1424133"><ele>64.0</ele><time>2026-05-01T15:25:17.279Z</time></trkpt><trkpt lat="42.4987983" lon="14.1423033"><ele>63.99999999999999</ele><time>2026-05-01T15:25:18.279Z</time></trkpt><trkpt lat="42.4988417" lon="14.14218"><ele>64.0</ele><time>2026-05-01T15:25:19.279Z</time></trkpt><trkpt lat="42.498885" lon="14.142055"><ele>61.6</ele><time>2026-05-01T15:25:20.28Z</time></trkpt><trkpt lat="42.4989333" lon="14.1419283"><ele>59.2</ele><time>2026-05-01T15:25:21.279Z</time></trkpt><trkpt lat="42.4989917" lon="14.1418017"><ele>56.800000000000004</ele><time>2026-05-01T15:25:22.279Z</time></trkpt><trkpt lat="42.499055" lon="14.1416783"><ele>54.400000000000006</ele><time>2026-05-01T15:25:23.279Z</time></trkpt><trkpt lat="42.4991283" lon="14.141555"><ele>52.0</ele><time>2026-05-01T15:25:24.279Z</time></trkpt><trkpt lat="42.4992083" lon="14.1414317"><ele>52.0</ele><time>2026-05-01T15:25:25.279Z</time></trkpt><trkpt lat="42.4992883" lon="14.1413167"><ele>52.0</ele><time>2026-05-01T15:25:26.279Z</time></trkpt><trkpt lat="42.4993767" lon="14.1412133"><ele>52.0</ele><time>2026-05-01T15:25:27.279Z</time></trkpt><trkpt lat="42.4994667" lon="14.14111"><ele>52.0</ele><time>2026-05-01T15:25:28.279Z</time></trkpt><trkpt lat="42.499565" lon="14.1410183"><ele>48.75</ele><time>2026-05-01T15:25:29.279Z</time></trkpt><trkpt lat="42.4996633" lon="14.140925"><ele>45.5</ele><time>2026-05-01T15:25:30.279Z</time></trkpt><trkpt lat="42.4997567" lon="14.14083"><ele>42.25</ele><time>2026-05-01T15:25:31.279Z</time></trkpt><trkpt lat="42.4998483" lon="14.1407267"><ele>39.0</ele><time>2026-05-01T15:25:32.279Z</time></trkpt><trkpt lat="42.49994" lon="14.140595"><ele>39.0</ele><time>2026-05-01T15:25:33.279Z</time></trkpt><trkpt lat="42.500025" lon="14.1404733"><ele>39.0</ele><time>2026-05-01T15:25:34.28Z</time></trkpt><trkpt lat="42.5001067" lon="14.1403533"><ele>39.0</ele><time>2026-05-01T15:25:35.279Z</time></trkpt><trkpt lat="42.50019" lon="14.1402233"><ele>39.0</ele><time>2026-05-01T15:25:36.279Z</time></trkpt><trkpt lat="42.5002683" lon="14.1401067"><ele>39.0</ele><time>2026-05-01T15:25:37.279Z</time></trkpt><trkpt lat="42.5003333" lon="14.1399917"><ele>39.0</ele><time>2026-05-01T15:25:38.279Z</time></trkpt><trkpt lat="42.5004017" lon="14.1398767"><ele>39.0</ele><time>2026-05-01T15:25:39.279Z</time></trkpt><trkpt lat="42.5004767" lon="14.1397667"><ele>39.0</ele><time>2026-05-01T15:25:40.279Z</time></trkpt><trkpt lat="42.5005417" lon="14.139655"><ele>39.0</ele><time>2026-05-01T15:25:41.279Z</time></trkpt><trkpt lat="42.5006033" lon="14.1395383"><ele>36.4</ele><time>2026-05-01T15:25:42.279Z</time></trkpt><trkpt lat="42.50067" lon="14.1394233"><ele>33.8</ele><time>2026-05-01T15:25:43.28Z</time></trkpt><trkpt lat="42.5007283" lon="14.1393183"><ele>31.200000000000003</ele><time>2026-05-01T15:25:44.279Z</time></trkpt><trkpt lat="42.50078" lon="14.1392083"><ele>28.6</ele><time>2026-05-01T15:25:45.279Z</time></trkpt><trkpt lat="42.5008283" lon="14.139105"><ele>26.0</ele><time>2026-05-01T15:25:46.279Z</time></trkpt><trkpt lat="42.50087" lon="14.1390183"><ele>25.285714285714285</ele><time>2026-05-01T15:25:47.279Z</time></trkpt><trkpt lat="42.5009117" lon="14.1389267"><ele>24.571428571428573</ele><time>2026-05-01T15:25:48.279Z</time></trkpt><trkpt lat="42.5009533" lon="14.1388467"><ele>23.857142857142858</ele><time>2026-05-01T15:25:49.279Z</time></trkpt><trkpt lat="42.5009933" lon="14.1387683"><ele>23.142857142857142</ele><time>2026-05-01T15:25:50.279Z</time></trkpt><trkpt lat="42.5010283" lon="14.1386933"><ele>22.42857142857143</ele><time>2026-05-01T15:25:51.279Z</time></trkpt><trkpt lat="42.5010633" lon="14.138615"><ele>21.714285714285715</ele><time>2026-05-01T15:25:52.279Z</time></trkpt><trkpt lat="42.5011067" lon="14.1385217"><ele>21.0</ele><time>2026-05-01T15:25:54.279Z</time></trkpt><trkpt lat="42.5011567" lon="14.1384067"><ele>21.0</ele><time>2026-05-01T15:25:58.279Z</time></trkpt><trkpt lat="42.5011883" lon="14.1383217"><ele>21.0</ele><time>2026-05-01T15:25:59.279Z</time></trkpt><trkpt lat="42.5012183" lon="14.1382217"><ele>21.0</ele><time>2026-05-01T15:26:00.279Z</time></trkpt><trkpt lat="42.5012433" lon="14.1380817"><ele>21.0</ele><time>2026-05-01T15:26:01.279Z</time></trkpt><trkpt lat="42.5012783" lon="14.137935"><ele>21.0</ele><time>2026-05-01T15:26:02.279Z</time></trkpt><trkpt lat="42.5013167" lon="14.1377767"><ele>19.75</ele><time>2026-05-01T15:26:03.279Z</time></trkpt><trkpt lat="42.5013583" lon="14.1376167"><ele>18.5</ele><time>2026-05-01T15:26:04.279Z</time></trkpt><trkpt lat="42.5014017" lon="14.1374567"><ele>17.25</ele><time>2026-05-01T15:26:05.279Z</time></trkpt><trkpt lat="42.5014383" lon="14.137295"><ele>16.0</ele><time>2026-05-01T15:26:06.279Z</time></trkpt><trkpt lat="42.5014767" lon="14.1371483"><ele>15.600000000000001</ele><time>2026-05-01T15:26:07.279Z</time></trkpt><trkpt lat="42.5015117" lon="14.1370117"><ele>15.200000000000001</ele><time>2026-05-01T15:26:08.279Z</time></trkpt><trkpt lat="42.5015467" lon="14.1368733"><ele>14.799999999999999</ele><time>2026-05-01T15:26:09.279Z</time></trkpt><trkpt lat="42.5015833" lon="14.1367383"><ele>14.399999999999999</ele><time>2026-05-01T15:26:10.279Z</time></trkpt><trkpt lat="42.5016183" lon="14.136605"><ele>14.0</ele><time>2026-05-01T15:26:11.28Z</time></trkpt><trkpt lat="42.5016583" lon="14.1364783"><ele>14.0</ele><time>2026-05-01T15:26:12.279Z</time></trkpt><trkpt lat="42.5016917" lon="14.136345"><ele>13.999999999999998</ele><time>2026-05-01T15:26:13.28Z</time></trkpt><trkpt lat="42.50172" lon="14.1362067"><ele>13.999999999999998</ele><time>2026-05-01T15:26:14.279Z</time></trkpt><trkpt lat="42.5017633" lon="14.1360617"><ele>14.0</ele><time>2026-05-01T15:26:15.279Z</time></trkpt><trkpt lat="42.501805" lon="14.1359317"><ele>14.0</ele><time>2026-05-01T15:26:16.279Z</time></trkpt><trkpt lat="42.5018383" lon="14.1358017"><ele>14.166666666666668</ele><time>2026-05-01T15:26:17.279Z</time></trkpt><trkpt lat="42.5018633" lon="14.1356717"><ele>14.333333333333334</ele><time>2026-05-01T15:26:18.279Z</time></trkpt><trkpt lat="42.5018933" lon="14.13556"><ele>14.5</ele><time>2026-05-01T15:26:19.279Z</time></trkpt><trkpt lat="42.5019083" lon="14.13547"><ele>14.666666666666668</ele><time>2026-05-01T15:26:20.279Z</time></trkpt><trkpt lat="42.501925" lon="14.1353867"><ele>14.833333333333334</ele><time>2026-05-01T15:26:21.279Z</time></trkpt><trkpt lat="42.5019517" lon="14.1352733"><ele>15.0</ele><time>2026-05-01T15:26:23.279Z</time></trkpt><trkpt lat="42.5019783" lon="14.1351833"><ele>15.0</ele><time>2026-05-01T15:26:25.279Z</time></trkpt><trkpt lat="42.50199" lon="14.1350883"><ele>15.0</ele><time>2026-05-01T15:26:27.279Z</time></trkpt><trkpt lat="42.502015" lon="14.1349817"><ele>15.0</ele><time>2026-05-01T15:26:29.279Z</time></trkpt><trkpt lat="42.502085" lon="14.1348433"><ele>15.0</ele><time>2026-05-01T15:26:38.279Z</time></trkpt><trkpt lat="42.5021933" lon="14.1347467"><ele>15.0</ele><time>2026-05-01T15:26:40.279Z</time></trkpt><trkpt lat="42.502265" lon="14.1347183"><ele>14.833333333333334</ele><time>2026-05-01T15:26:41.279Z</time></trkpt><trkpt lat="42.5023333" lon="14.134715"><ele>14.666666666666668</ele><time>2026-05-01T15:26:42.279Z</time></trkpt><trkpt lat="42.5024017" lon="14.1347267"><ele>14.5</ele><time>2026-05-01T15:26:43.28Z</time></trkpt><trkpt lat="42.502465" lon="14.1347533"><ele>14.333333333333334</ele><time>2026-05-01T15:26:44.28Z</time></trkpt><trkpt lat="42.5025567" lon="14.1348217"><ele>14.166666666666668</ele><time>2026-05-01T15:26:46.279Z</time></trkpt><trkpt lat="42.5026367" lon="14.1348833"><ele>14.0</ele><time>2026-05-01T15:26:48.279Z</time></trkpt><trkpt lat="42.502715" lon="14.134975"><ele>14.000000000000002</ele><time>2026-05-01T15:26:50.28Z</time></trkpt><trkpt lat="42.502795" lon="14.135055"><ele>14.0</ele><time>2026-05-01T15:26:52.279Z</time></trkpt><trkpt lat="42.50286" lon="14.1351217"><ele>14.0</ele><time>2026-05-01T15:26:54.279Z</time></trkpt><trkpt lat="42.5029217" lon="14.1351867"><ele>14.0</ele><time>2026-05-01T15:26:56.28Z</time></trkpt><trkpt lat="42.50297" lon="14.13526"><ele>14.000000000000002</ele><time>2026-05-01T15:27:01.279Z</time></trkpt><trkpt lat="42.5030333" lon="14.13529"><ele>14.0</ele><time>2026-05-01T15:27:03.28Z</time></trkpt><trkpt lat="42.5031133" lon="14.1352367"><ele>13.799999999999999</ele><time>2026-05-01T15:27:05.279Z</time></trkpt><trkpt lat="42.5031717" lon="14.135075"><ele>13.599999999999998</ele><time>2026-05-01T15:27:07.279Z</time></trkpt><trkpt lat="42.5032033" lon="14.1349667"><ele>13.4</ele><time>2026-05-01T15:27:08.279Z</time></trkpt><trkpt lat="42.5032317" lon="14.1348517"><ele>13.2</ele><time>2026-05-01T15:27:09.279Z</time></trkpt><trkpt lat="42.5032583" lon="14.134735"><ele>13.0</ele><time>2026-05-01T15:27:10.279Z</time></trkpt><trkpt lat="42.5032833" lon="14.1346167"><ele>13.0</ele><time>2026-05-01T15:27:11.279Z</time></trkpt><trkpt lat="42.50331" lon="14.1345017"><ele>13.0</ele><time>2026-05-01T15:27:12.279Z</time></trkpt><trkpt lat="42.5033383" lon="14.1343683"><ele>13.0</ele><time>2026-05-01T15:27:13.279Z</time></trkpt><trkpt lat="42.5033767" lon="14.1342467"><ele>13.0</ele><time>2026-05-01T15:27:14.279Z</time></trkpt><trkpt lat="42.5034083" lon="14.1341267"><ele>13.0</ele><time>2026-05-01T15:27:15.279Z</time></trkpt><trkpt lat="42.50343" lon="14.1340183"><ele>12.999999999999998</ele><time>2026-05-01T15:27:16.279Z</time></trkpt><trkpt lat="42.5034517" lon="14.1339183"><ele>13.0</ele><time>2026-05-01T15:27:17.279Z</time></trkpt><trkpt lat="42.5034917" lon="14.1338183"><ele>13.0</ele><time>2026-05-01T15:27:18.279Z</time></trkpt><trkpt lat="42.5035383" lon="14.1337317"><ele>13.0</ele><time>2026-05-01T15:27:19.279Z</time></trkpt><trkpt lat="42.5035933" lon="14.13365"><ele>12.999999999999998</ele><time>2026-05-01T15:27:20.279Z</time></trkpt><trkpt lat="42.5036667" lon="14.1335817"><ele>13.0</ele><time>2026-05-01T15:27:21.28Z</time></trkpt><trkpt lat="42.503745" lon="14.133505"><ele>13.0</ele><time>2026-05-01T15:27:22.279Z</time></trkpt><trkpt lat="42.5038317" lon="14.13343"><ele>13.0</ele><time>2026-05-01T15:27:23.279Z</time></trkpt><trkpt lat="42.503925" lon="14.1333483"><ele>13.0</ele><time>2026-05-01T15:27:24.28Z</time></trkpt><trkpt lat="42.504015" lon="14.13326"><ele>13.0</ele><time>2026-05-01T15:27:25.279Z</time></trkpt><trkpt lat="42.5041083" lon="14.1331783"><ele>13.0</ele><time>2026-05-01T15:27:26.279Z</time></trkpt><trkpt lat="42.5042083" lon="14.133085"><ele>13.0</ele><time>2026-05-01T15:27:27.279Z</time></trkpt><trkpt lat="42.5043083" lon="14.1329983"><ele>13.0</ele><time>2026-05-01T15:27:28.279Z</time></trkpt><trkpt lat="42.50441" lon="14.1329067"><ele>13.0</ele><time>2026-05-01T15:27:29.28Z</time></trkpt><trkpt lat="42.5045083" lon="14.132805"><ele>13.0</ele><time>2026-05-01T15:27:30.279Z</time></trkpt><trkpt lat="42.5046133" lon="14.1327133"><ele>12.0</ele><time>2026-05-01T15:27:31.279Z</time></trkpt><trkpt lat="42.5047183" lon="14.13262"><ele>11.0</ele><time>2026-05-01T15:27:32.279Z</time></trkpt><trkpt lat="42.50482" lon="14.1325267"><ele>10.0</ele><time>2026-05-01T15:27:33.279Z</time></trkpt><trkpt lat="42.504925" lon="14.1324233"><ele>9.0</ele><time>2026-05-01T15:27:34.279Z</time></trkpt><trkpt lat="42.505035" lon="14.1323183"><ele>9.0</ele><time>2026-05-01T15:27:35.279Z</time></trkpt><trkpt lat="42.5051467" lon="14.13222"><ele>9.0</ele><time>2026-05-01T15:27:36.279Z</time></trkpt><trkpt lat="42.505255" lon="14.1321167"><ele>9.0</ele><time>2026-05-01T15:27:37.279Z</time></trkpt><trkpt lat="42.50536" lon="14.132015"><ele>9.0</ele><time>2026-05-01T15:27:38.279Z</time></trkpt><trkpt lat="42.5054633" lon="14.1319267"><ele>9.0</ele><time>2026-05-01T15:27:39.279Z</time></trkpt><trkpt lat="42.505565" lon="14.131845"><ele>9.0</ele><time>2026-05-01T15:27:40.279Z</time></trkpt><trkpt lat="42.505655" lon="14.1317533"><ele>9.0</ele><time>2026-05-01T15:27:41.279Z</time></trkpt><trkpt lat="42.5057517" lon="14.1316583"><ele>9.0</ele><time>2026-05-01T15:27:42.279Z</time></trkpt><trkpt lat="42.5058483" lon="14.1315633"><ele>9.0</ele><time>2026-05-01T15:27:43.279Z</time></trkpt><trkpt lat="42.5059467" lon="14.131465"><ele>9.0</ele><time>2026-05-01T15:27:44.279Z</time></trkpt><trkpt lat="42.50604" lon="14.1313767"><ele>9.0</ele><time>2026-05-01T15:27:45.279Z</time></trkpt><trkpt lat="42.5061383" lon="14.131285"><ele>9.0</ele><time>2026-05-01T15:27:46.279Z</time></trkpt><trkpt lat="42.5062383" lon="14.1311833"><ele>9.0</ele><time>2026-05-01T15:27:47.279Z</time></trkpt><trkpt lat="42.50634" lon="14.1311183"><ele>9.0</ele><time>2026-05-01T15:27:48.279Z</time></trkpt><trkpt lat="42.5064467" lon="14.131055"><ele>9.0</ele><time>2026-05-01T15:27:49.279Z</time></trkpt><trkpt lat="42.5065417" lon="14.131015"><ele>9.0</ele><time>2026-05-01T15:27:50.279Z</time></trkpt><trkpt lat="42.506635" lon="14.13097"><ele>9.0</ele><time>2026-05-01T15:27:51.279Z</time></trkpt><trkpt lat="42.50673" lon="14.1309217"><ele>9.0</ele><time>2026-05-01T15:27:52.279Z</time></trkpt><trkpt lat="42.50682" lon="14.1308717"><ele>9.0</ele><time>2026-05-01T15:27:53.279Z</time></trkpt><trkpt lat="42.50691" lon="14.1308267"><ele>9.0</ele><time>2026-05-01T15:27:54.28Z</time></trkpt><trkpt lat="42.5070017" lon="14.1307917"><ele>9.0</ele><time>2026-05-01T15:27:55.279Z</time></trkpt><trkpt lat="42.5070933" lon="14.1307517"><ele>9.0</ele><time>2026-05-01T15:27:56.279Z</time></trkpt><trkpt lat="42.5071867" lon="14.1307167"><ele>9.6</ele><time>2026-05-01T15:27:57.279Z</time></trkpt><trkpt lat="42.5072867" lon="14.1306917"><ele>10.2</ele><time>2026-05-01T15:27:58.279Z</time></trkpt><trkpt lat="42.507385" lon="14.1306633"><ele>10.799999999999999</ele><time>2026-05-01T15:27:59.279Z</time></trkpt><trkpt lat="42.50749" lon="14.1306283"><ele>11.4</ele><time>2026-05-01T15:28:00.279Z</time></trkpt><trkpt lat="42.507595" lon="14.1305833"><ele>12.0</ele><time>2026-05-01T15:28:01.279Z</time></trkpt><trkpt lat="42.5077083" lon="14.1305367"><ele>12.0</ele><time>2026-05-01T15:28:02.279Z</time></trkpt><trkpt lat="42.5078133" lon="14.1304667"><ele>12.0</ele><time>2026-05-01T15:28:03.28Z</time></trkpt><trkpt lat="42.5079083" lon="14.130395"><ele>12.0</ele><time>2026-05-01T15:28:04.279Z</time></trkpt><trkpt lat="42.5079983" lon="14.1303267"><ele>12.0</ele><time>2026-05-01T15:28:05.279Z</time></trkpt><trkpt lat="42.5080833" lon="14.1302633"><ele>12.0</ele><time>2026-05-01T15:28:06.28Z</time></trkpt><trkpt lat="42.5081583" lon="14.1301967"><ele>12.0</ele><time>2026-05-01T15:28:07.279Z</time></trkpt><trkpt lat="42.5082383" lon="14.1301383"><ele>12.0</ele><time>2026-05-01T15:28:08.279Z</time></trkpt><trkpt lat="42.5083117" lon="14.1300817"><ele>12.0</ele><time>2026-05-01T15:28:09.279Z</time></trkpt><trkpt lat="42.50838" lon="14.1300283"><ele>12.0</ele><time>2026-05-01T15:28:10.279Z</time></trkpt><trkpt lat="42.508445" lon="14.129975"><ele>12.0</ele><time>2026-05-01T15:28:11.279Z</time></trkpt><trkpt lat="42.508505" lon="14.129925"><ele>12.0</ele><time>2026-05-01T15:28:12.279Z</time></trkpt><trkpt lat="42.50856" lon="14.1298783"><ele>10.799999999999999</ele><time>2026-05-01T15:28:13.279Z</time></trkpt><trkpt lat="42.5086217" lon="14.1298217"><ele>9.6</ele><time>2026-05-01T15:28:15.279Z</time></trkpt><trkpt lat="42.5087017" lon="14.12977"><ele>8.399999999999999</ele><time>2026-05-01T15:28:21.279Z</time></trkpt><trkpt lat="42.5087767" lon="14.12974"><ele>7.199999999999999</ele><time>2026-05-01T15:28:23.279Z</time></trkpt><trkpt lat="42.5088917" lon="14.1297417"><ele>6.0</ele><time>2026-05-01T15:28:25.279Z</time></trkpt><trkpt lat="42.5090167" lon="14.1298083"><ele>5.8</ele><time>2026-05-01T15:28:27.279Z</time></trkpt><trkpt lat="42.50908" lon="14.129875"><ele>5.6</ele><time>2026-05-01T15:28:28.279Z</time></trkpt><trkpt lat="42.50915" lon="14.1299617"><ele>5.4</ele><time>2026-05-01T15:28:29.279Z</time></trkpt><trkpt lat="42.5092183" lon="14.1300533"><ele>5.2</ele><time>2026-05-01T15:28:30.279Z</time></trkpt><trkpt lat="42.5092883" lon="14.1301567"><ele>5.0</ele><time>2026-05-01T15:28:31.279Z</time></trkpt><trkpt lat="42.5093567" lon="14.1302533"><ele>5.0</ele><time>2026-05-01T15:28:32.28Z</time></trkpt><trkpt lat="42.5094267" lon="14.1303467"><ele>5.0</ele><time>2026-05-01T15:28:33.279Z</time></trkpt><trkpt lat="42.5094967" lon="14.1304483"><ele>5.0</ele><time>2026-05-01T15:28:34.279Z</time></trkpt><trkpt lat="42.5095633" lon="14.130555"><ele>5.0</ele><time>2026-05-01T15:28:35.279Z</time></trkpt><trkpt lat="42.5096317" lon="14.1306617"><ele>5.0</ele><time>2026-05-01T15:28:36.279Z</time></trkpt><trkpt lat="42.5097117" lon="14.130775"><ele>5.0</ele><time>2026-05-01T15:28:37.279Z</time></trkpt><trkpt lat="42.5097983" lon="14.1309"><ele>5.0</ele><time>2026-05-01T15:28:38.279Z</time></trkpt><trkpt lat="42.5098817" lon="14.13102"><ele>5.0</ele><time>2026-05-01T15:28:39.279Z</time></trkpt><trkpt lat="42.5099583" lon="14.1311417"><ele>5.0</ele><time>2026-05-01T15:28:40.279Z</time></trkpt><trkpt lat="42.5100317" lon="14.1312683"><ele>5.0</ele><time>2026-05-01T15:28:41.279Z</time></trkpt><trkpt lat="42.5101133" lon="14.1314017"><ele>5.0</ele><time>2026-05-01T15:28:42.279Z</time></trkpt><trkpt lat="42.51019" lon="14.131535"><ele>5.0</ele><time>2026-05-01T15:28:43.279Z</time></trkpt><trkpt lat="42.5102667" lon="14.1316717"><ele>5.0</ele><time>2026-05-01T15:28:44.279Z</time></trkpt><trkpt lat="42.5103433" lon="14.1318117"><ele>4.75</ele><time>2026-05-01T15:28:45.279Z</time></trkpt><trkpt lat="42.51042" lon="14.13194"><ele>4.5</ele><time>2026-05-01T15:28:46.279Z</time></trkpt><trkpt lat="42.5104917" lon="14.1320817"><ele>4.25</ele><time>2026-05-01T15:28:47.279Z</time></trkpt><trkpt lat="42.5105667" lon="14.1322333"><ele>4.0</ele><time>2026-05-01T15:28:48.279Z</time></trkpt><trkpt lat="42.5106417" lon="14.1323883"><ele>4.5</ele><time>2026-05-01T15:28:49.279Z</time></trkpt><trkpt lat="42.5107167" lon="14.1325317"><ele>5.0</ele><time>2026-05-01T15:28:50.28Z</time></trkpt><trkpt lat="42.51079" lon="14.1326633"><ele>5.5</ele><time>2026-05-01T15:28:51.279Z</time></trkpt><trkpt lat="42.5108617" lon="14.1327967"><ele>6.0</ele><time>2026-05-01T15:28:52.279Z</time></trkpt><trkpt lat="42.510935" lon="14.1329317"><ele>6.0</ele><time>2026-05-01T15:28:53.279Z</time></trkpt><trkpt lat="42.511015" lon="14.13306"><ele>6.0</ele><time>2026-05-01T15:28:54.279Z</time></trkpt><trkpt lat="42.511095" lon="14.133185"><ele>6.0</ele><time>2026-05-01T15:28:55.279Z</time></trkpt><trkpt lat="42.5111717" lon="14.1333183"><ele>6.0</ele><time>2026-05-01T15:28:56.279Z</time></trkpt><trkpt lat="42.5112467" lon="14.1334467"><ele>5.75</ele><time>2026-05-01T15:28:57.279Z</time></trkpt><trkpt lat="42.5113233" lon="14.133575"><ele>5.5</ele><time>2026-05-01T15:28:58.279Z</time></trkpt><trkpt lat="42.511395" lon="14.1337017"><ele>5.25</ele><time>2026-05-01T15:28:59.279Z</time></trkpt><trkpt lat="42.5114633" lon="14.1338283"><ele>5.0</ele><time>2026-05-01T15:29:00.279Z</time></trkpt><trkpt lat="42.5115283" lon="14.1339633"><ele>5.0</ele><time>2026-05-01T15:29:01.28Z</time></trkpt><trkpt lat="42.5115883" lon="14.1340967"><ele>5.0</ele><time>2026-05-01T15:29:02.279Z</time></trkpt><trkpt lat="42.5116533" lon="14.13422"><ele>5.0</ele><time>2026-05-01T15:29:03.279Z</time></trkpt><trkpt lat="42.5117383" lon="14.134335"><ele>5.0</ele><time>2026-05-01T15:29:04.279Z</time></trkpt><trkpt lat="42.5118433" lon="14.1344367"><ele>5.0</ele><time>2026-05-01T15:29:05.279Z</time></trkpt><trkpt lat="42.5119583" lon="14.1345333"><ele>5.0</ele><time>2026-05-01T15:29:06.279Z</time></trkpt><trkpt lat="42.5120767" lon="14.1346283"><ele>5.0</ele><time>2026-05-01T15:29:07.279Z</time></trkpt><trkpt lat="42.5122017" lon="14.134705"><ele>5.0</ele><time>2026-05-01T15:29:08.279Z</time></trkpt><trkpt lat="42.51232" lon="14.1347783"><ele>4.5</ele><time>2026-05-01T15:29:09.279Z</time></trkpt><trkpt lat="42.5124317" lon="14.1348617"><ele>4.0</ele><time>2026-05-01T15:29:10.279Z</time></trkpt><trkpt lat="42.51254" lon="14.1349383"><ele>3.5</ele><time>2026-05-01T15:29:11.279Z</time></trkpt><trkpt lat="42.5126467" lon="14.1350183"><ele>3.0</ele><time>2026-05-01T15:29:12.279Z</time></trkpt><trkpt lat="42.5127533" lon="14.1350967"><ele>3.0</ele><time>2026-05-01T15:29:13.279Z</time></trkpt><trkpt lat="42.5128483" lon="14.1351867"><ele>3.0</ele><time>2026-05-01T15:29:14.279Z</time></trkpt><trkpt lat="42.51294" lon="14.1352983"><ele>3.0</ele><time>2026-05-01T15:29:15.279Z</time></trkpt><trkpt lat="42.5130217" lon="14.1354183"><ele>3.0</ele><time>2026-05-01T15:29:16.279Z</time></trkpt><trkpt lat="42.5130983" lon="14.135555"><ele>3.0</ele><time>2026-05-01T15:29:17.279Z</time></trkpt><trkpt lat="42.5131683" lon="14.13569"><ele>3.0</ele><time>2026-05-01T15:29:18.279Z</time></trkpt><trkpt lat="42.513225" lon="14.1358483"><ele>3.0</ele><time>2026-05-01T15:29:19.279Z</time></trkpt><trkpt lat="42.5132833" lon="14.135995"><ele>3.0</ele><time>2026-05-01T15:29:20.279Z</time></trkpt><trkpt lat="42.51332" lon="14.1361433"><ele>3.0</ele><time>2026-05-01T15:29:21.279Z</time></trkpt><trkpt lat="42.5133467" lon="14.136295"><ele>3.0</ele><time>2026-05-01T15:29:22.279Z</time></trkpt><trkpt lat="42.5133817" lon="14.1364383"><ele>3.0</ele><time>2026-05-01T15:29:23.279Z</time></trkpt><trkpt lat="42.5134117" lon="14.1365683"><ele>3.0</ele><time>2026-05-01T15:29:24.279Z</time></trkpt><trkpt lat="42.5134467" lon="14.1366967"><ele>3.0</ele><time>2026-05-01T15:29:25.279Z</time></trkpt><trkpt lat="42.5134733" lon="14.136815"><ele>3.1666666666666665</ele><time>2026-05-01T15:29:26.28Z</time></trkpt><trkpt lat="42.5135067" lon="14.13693"><ele>3.333333333333333</ele><time>2026-05-01T15:29:27.279Z</time></trkpt><trkpt lat="42.51354" lon="14.1370367"><ele>3.5</ele><time>2026-05-01T15:29:28.279Z</time></trkpt><trkpt lat="42.513575" lon="14.137145"><ele>3.6666666666666665</ele><time>2026-05-01T15:29:29.279Z</time></trkpt><trkpt lat="42.513615" lon="14.1372333"><ele>3.833333333333333</ele><time>2026-05-01T15:29:30.279Z</time></trkpt><trkpt lat="42.5136733" lon="14.13735"><ele>4.0</ele><time>2026-05-01T15:29:32.279Z</time></trkpt><trkpt lat="42.5137183" lon="14.13745"><ele>4.333333333333333</ele><time>2026-05-01T15:29:38.279Z</time></trkpt><trkpt lat="42.5137333" lon="14.1375933"><ele>4.666666666666666</ele><time>2026-05-01T15:29:40.28Z</time></trkpt><trkpt lat="42.5137333" lon="14.1376883"><ele>5.0</ele><time>2026-05-01T15:29:41.279Z</time></trkpt><trkpt lat="42.5137183" lon="14.137785"><ele>5.333333333333333</ele><time>2026-05-01T15:29:42.279Z</time></trkpt><trkpt lat="42.5136917" lon="14.137905"><ele>5.666666666666667</ele><time>2026-05-01T15:29:43.279Z</time></trkpt><trkpt lat="42.513655" lon="14.138025"><ele>6.0</ele><time>2026-05-01T15:29:44.279Z</time></trkpt><trkpt lat="42.5136067" lon="14.1381417"><ele>5.8</ele><time>2026-05-01T15:29:45.279Z</time></trkpt><trkpt lat="42.513555" lon="14.1382683"><ele>5.6</ele><time>2026-05-01T15:29:46.279Z</time></trkpt><trkpt lat="42.513505" lon="14.138395"><ele>5.4</ele><time>2026-05-01T15:29:47.279Z</time></trkpt><trkpt lat="42.513465" lon="14.138515"><ele>5.2</ele><time>2026-05-01T15:29:48.279Z</time></trkpt><trkpt lat="42.51342" lon="14.138625"><ele>5.0</ele><time>2026-05-01T15:29:49.279Z</time></trkpt><trkpt lat="42.5133783" lon="14.1387433"><ele>5.0</ele><time>2026-05-01T15:29:50.279Z</time></trkpt><trkpt lat="42.5133367" lon="14.1388583"><ele>5.0</ele><time>2026-05-01T15:29:51.279Z</time></trkpt><trkpt lat="42.5132933" lon="14.1389683"><ele>5.0</ele><time>2026-05-01T15:29:52.279Z</time></trkpt><trkpt lat="42.51325" lon="14.139075"><ele>5.0</ele><time>2026-05-01T15:29:53.279Z</time></trkpt><trkpt lat="42.5132083" lon="14.139185"><ele>5.0</ele><time>2026-05-01T15:29:54.28Z</time></trkpt><trkpt lat="42.5131617" lon="14.1393017"><ele>5.2</ele><time>2026-05-01T15:29:55.279Z</time></trkpt><trkpt lat="42.513115" lon="14.1394233"><ele>5.4</ele><time>2026-05-01T15:29:56.279Z</time></trkpt><trkpt lat="42.5130683" lon="14.1395467"><ele>5.6</ele><time>2026-05-01T15:29:57.279Z</time></trkpt><trkpt lat="42.5130183" lon="14.1396683"><ele>5.8</ele><time>2026-05-01T15:29:58.279Z</time></trkpt><trkpt lat="42.51297" lon="14.1397983"><ele>6.0</ele><time>2026-05-01T15:29:59.279Z</time></trkpt><trkpt lat="42.512925" lon="14.13993"><ele>6.0</ele><time>2026-05-01T15:30:00.28Z</time></trkpt><trkpt lat="42.5128733" lon="14.1400517"><ele>6.0</ele><time>2026-05-01T15:30:01.279Z</time></trkpt><trkpt lat="42.5128283" lon="14.1401717"><ele>6.0</ele><time>2026-05-01T15:30:02.279Z</time></trkpt><trkpt lat="42.5127833" lon="14.1402783"><ele>6.0</ele><time>2026-05-01T15:30:03.28Z</time></trkpt><trkpt lat="42.512745" lon="14.1403833"><ele>6.0</ele><time>2026-05-01T15:30:04.279Z</time></trkpt><trkpt lat="42.5127083" lon="14.1404683"><ele>6.0</ele><time>2026-05-01T15:30:05.279Z</time></trkpt><trkpt lat="42.5126767" lon="14.1405433"><ele>6.0</ele><time>2026-05-01T15:30:06.279Z</time></trkpt><trkpt lat="42.51261" lon="14.1406967"><ele>6.0</ele><time>2026-05-01T15:30:08.279Z</time></trkpt><trkpt lat="42.5125767" lon="14.1407983"><ele>6.0</ele><time>2026-05-01T15:30:09.279Z</time></trkpt><trkpt lat="42.512535" lon="14.1408983"><ele>6.0</ele><time>2026-05-01T15:30:10.279Z</time></trkpt><trkpt lat="42.512495" lon="14.1409867"><ele>6.0</ele><time>2026-05-01T15:30:11.28Z</time></trkpt><trkpt lat="42.5124583" lon="14.1410817"><ele>6.333333333333333</ele><time>2026-05-01T15:30:12.279Z</time></trkpt><trkpt lat="42.5124267" lon="14.1411717"><ele>6.666666666666666</ele><time>2026-05-01T15:30:13.279Z</time></trkpt><trkpt lat="42.5124083" lon="14.141255"><ele>7.0</ele><time>2026-05-01T15:30:14.279Z</time></trkpt><trkpt lat="42.5124133" lon="14.1413417"><ele>7.333333333333333</ele><time>2026-05-01T15:30:15.279Z</time></trkpt><trkpt lat="42.5124717" lon="14.1414733"><ele>7.666666666666666</ele><time>2026-05-01T15:30:17.279Z</time></trkpt><trkpt lat="42.5125317" lon="14.1415133"><ele>8.0</ele><time>2026-05-01T15:30:18.28Z</time></trkpt><trkpt lat="42.5126" lon="14.1415233"><ele>8.0</ele><time>2026-05-01T15:30:19.279Z</time></trkpt><trkpt lat="42.5126783" lon="14.14151"><ele>8.0</ele><time>2026-05-01T15:30:20.279Z</time></trkpt><trkpt lat="42.5127767" lon="14.1414833"><ele>8.0</ele><time>2026-05-01T15:30:21.279Z</time></trkpt><trkpt lat="42.5128717" lon="14.1414667"><ele>8.0</ele><time>2026-05-01T15:30:22.279Z</time></trkpt><trkpt lat="42.5129717" lon="14.1414517"><ele>8.0</ele><time>2026-05-01T15:30:23.279Z</time></trkpt><trkpt lat="42.513075" lon="14.1414383"><ele>7.6000000000000005</ele><time>2026-05-01T15:30:24.279Z</time></trkpt><trkpt lat="42.5131783" lon="14.1414417"><ele>7.200000000000001</ele><time>2026-05-01T15:30:25.279Z</time></trkpt><trkpt lat="42.5132733" lon="14.1414517"><ele>6.8</ele><time>2026-05-01T15:30:26.279Z</time></trkpt><trkpt lat="42.5133683" lon="14.14147"><ele>6.4</ele><time>2026-05-01T15:30:27.28Z</time></trkpt><trkpt lat="42.51346" lon="14.141505"><ele>6.0</ele><time>2026-05-01T15:30:28.279Z</time></trkpt><trkpt lat="42.513535" lon="14.1415467"><ele>6.0</ele><time>2026-05-01T15:30:29.279Z</time></trkpt><trkpt lat="42.5136083" lon="14.1415983"><ele>6.0</ele><time>2026-05-01T15:30:30.279Z</time></trkpt><trkpt lat="42.513685" lon="14.1416567"><ele>6.0</ele><time>2026-05-01T15:30:31.279Z</time></trkpt><trkpt lat="42.513755" lon="14.14171"><ele>6.0</ele><time>2026-05-01T15:30:32.279Z</time></trkpt><trkpt lat="42.5138233" lon="14.1417667"><ele>6.0</ele><time>2026-05-01T15:30:33.279Z</time></trkpt><trkpt lat="42.5138967" lon="14.1418217"><ele>6.0</ele><time>2026-05-01T15:30:34.279Z</time></trkpt><trkpt lat="42.5139683" lon="14.1418783"><ele>5.5</ele><time>2026-05-01T15:30:35.279Z</time></trkpt><trkpt lat="42.5140283" lon="14.14193"><ele>5.0</ele><time>2026-05-01T15:30:36.279Z</time></trkpt><trkpt lat="42.5140867" lon="14.141985"><ele>4.5</ele><time>2026-05-01T15:30:37.279Z</time></trkpt><trkpt lat="42.51414" lon="14.1420317"><ele>4.0</ele><time>2026-05-01T15:30:38.279Z</time></trkpt><trkpt lat="42.5142283" lon="14.1421333"><ele>3.5</ele><time>2026-05-01T15:30:40.279Z</time></trkpt><trkpt lat="42.5142683" lon="14.1422133"><ele>3.0</ele><time>2026-05-01T15:30:42.279Z</time></trkpt><trkpt lat="42.5143017" lon="14.1423317"><ele>2.8</ele><time>2026-05-01T15:30:44.279Z</time></trkpt><trkpt lat="42.514375" lon="14.1424417"><ele>2.5999999999999996</ele><time>2026-05-01T15:30:46.279Z</time></trkpt><trkpt lat="42.5144883" lon="14.1424583"><ele>2.4000000000000004</ele><time>2026-05-01T15:30:48.279Z</time></trkpt><trkpt lat="42.5145617" lon="14.1424317"><ele>2.2</ele><time>2026-05-01T15:30:49.279Z</time></trkpt><trkpt lat="42.5146367" lon="14.1424183"><ele>2.0</ele><time>2026-05-01T15:30:50.279Z</time></trkpt><trkpt lat="42.5147183" lon="14.1424367"><ele>2.0</ele><time>2026-05-01T15:30:51.279Z</time></trkpt><trkpt lat="42.5148" lon="14.1424733"><ele>2.0</ele><time>2026-05-01T15:30:52.28Z</time></trkpt><trkpt lat="42.5148867" lon="14.1425283"><ele>2.0</ele><time>2026-05-01T15:30:53.279Z</time></trkpt><trkpt lat="42.5149683" lon="14.1425967"><ele>2.0</ele><time>2026-05-01T15:30:54.279Z</time></trkpt><trkpt lat="42.5150633" lon="14.1426667"><ele>2.0</ele><time>2026-05-01T15:30:55.28Z</time></trkpt><trkpt lat="42.5151633" lon="14.1427333"><ele>2.0</ele><time>2026-05-01T15:30:56.279Z</time></trkpt><trkpt lat="42.5152667" lon="14.14281"><ele>2.0</ele><time>2026-05-01T15:30:57.279Z</time></trkpt><trkpt lat="42.5153783" lon="14.142885"><ele>2.0</ele><time>2026-05-01T15:30:58.279Z</time></trkpt><trkpt lat="42.5154933" lon="14.1429683"><ele>2.0</ele><time>2026-05-01T15:30:59.279Z</time></trkpt><trkpt lat="42.5156133" lon="14.1430617"><ele>2.25</ele><time>2026-05-01T15:31:00.279Z</time></trkpt><trkpt lat="42.515725" lon="14.1431533"><ele>2.5</ele><time>2026-05-01T15:31:01.279Z</time></trkpt><trkpt lat="42.5158517" lon="14.143245"><ele>2.75</ele><time>2026-05-01T15:31:02.279Z</time></trkpt><trkpt lat="42.515975" lon="14.14334"><ele>3.0</ele><time>2026-05-01T15:31:03.279Z</time></trkpt><trkpt lat="42.5161117" lon="14.143435"><ele>3.75</ele><time>2026-05-01T15:31:04.279Z</time></trkpt><trkpt lat="42.51624" lon="14.1435283"><ele>4.5</ele><time>2026-05-01T15:31:05.28Z</time></trkpt><trkpt lat="42.516375" lon="14.14362"><ele>5.25</ele><time>2026-05-01T15:31:06.279Z</time></trkpt><trkpt lat="42.5165" lon="14.1437033"><ele>6.0</ele><time>2026-05-01T15:31:07.279Z</time></trkpt><trkpt lat="42.51662" lon="14.1438033"><ele>6.0</ele><time>2026-05-01T15:31:08.279Z</time></trkpt><trkpt lat="42.51675" lon="14.143895"><ele>6.0</ele><time>2026-05-01T15:31:09.279Z</time></trkpt><trkpt lat="42.5168767" lon="14.1439883"><ele>6.0</ele><time>2026-05-01T15:31:10.279Z</time></trkpt><trkpt lat="42.5170217" lon="14.1440817"><ele>5.0</ele><time>2026-05-01T15:31:11.279Z</time></trkpt><trkpt lat="42.5171533" lon="14.144195"><ele>4.0</ele><time>2026-05-01T15:31:12.279Z</time></trkpt><trkpt lat="42.5172883" lon="14.144285"><ele>3.0</ele><time>2026-05-01T15:31:13.279Z</time></trkpt><trkpt lat="42.5174183" lon="14.1443867"><ele>3.0</ele><time>2026-05-01T15:31:14.28Z</time></trkpt><trkpt lat="42.5175533" lon="14.1444817"><ele>3.0</ele><time>2026-05-01T15:31:15.279Z</time></trkpt><trkpt lat="42.5176883" lon="14.1445817"><ele>3.0</ele><time>2026-05-01T15:31:16.279Z</time></trkpt><trkpt lat="42.5178317" lon="14.1446717"><ele>3.0</ele><time>2026-05-01T15:31:17.28Z</time></trkpt><trkpt lat="42.5179667" lon="14.144775"><ele>3.0</ele><time>2026-05-01T15:31:18.279Z</time></trkpt><trkpt lat="42.518105" lon="14.1448767"><ele>3.0</ele><time>2026-05-01T15:31:19.279Z</time></trkpt><trkpt lat="42.5182417" lon="14.1449683"><ele>3.0</ele><time>2026-05-01T15:31:20.279Z</time></trkpt><trkpt lat="42.518365" lon="14.14506"><ele>3.0</ele><time>2026-05-01T15:31:21.279Z</time></trkpt><trkpt lat="42.51848" lon="14.1451467"><ele>3.0</ele><time>2026-05-01T15:31:22.279Z</time></trkpt><trkpt lat="42.518585" lon="14.1452267"><ele>3.0</ele><time>2026-05-01T15:31:23.28Z</time></trkpt><trkpt lat="42.5186933" lon="14.1452983"><ele>3.0</ele><time>2026-05-01T15:31:24.279Z</time></trkpt><trkpt lat="42.5187917" lon="14.14536"><ele>3.0</ele><time>2026-05-01T15:31:25.279Z</time></trkpt><trkpt lat="42.5188833" lon="14.14542"><ele>3.0</ele><time>2026-05-01T15:31:26.279Z</time></trkpt><trkpt lat="42.5189683" lon="14.1454883"><ele>3.0</ele><time>2026-05-01T15:31:27.28Z</time></trkpt><trkpt lat="42.5190517" lon="14.1455517"><ele>3.0</ele><time>2026-05-01T15:31:28.279Z</time></trkpt><trkpt lat="42.5191233" lon="14.14561"><ele>2.9999999999999996</ele><time>2026-05-01T15:31:29.279Z</time></trkpt><trkpt lat="42.5191783" lon="14.1456567"><ele>3.0</ele><time>2026-05-01T15:31:30.279Z</time></trkpt><trkpt lat="42.5192483" lon="14.14571"><ele>3.0</ele><time>2026-05-01T15:31:32.279Z</time></trkpt><trkpt lat="42.5193233" lon="14.1457417"><ele>3.0</ele><time>2026-05-01T15:31:35.279Z</time></trkpt><trkpt lat="42.5193833" lon="14.1457717"><ele>3.0</ele><time>2026-05-01T15:31:38.279Z</time></trkpt><trkpt lat="42.5194433" lon="14.14583"><ele>2.9999999999999996</ele><time>2026-05-01T15:31:42.279Z</time></trkpt><trkpt lat="42.5194817" lon="14.1459033"><ele>3.0</ele><time>2026-05-01T15:31:46.279Z</time></trkpt><trkpt lat="42.5195383" lon="14.1459733"><ele>3.4</ele><time>2026-05-01T15:31:51.279Z</time></trkpt><trkpt lat="42.5195583" lon="14.146075"><ele>3.8</ele><time>2026-05-01T15:31:53.279Z</time></trkpt><trkpt lat="42.519515" lon="14.1461917"><ele>4.2</ele><time>2026-05-01T15:31:55.279Z</time></trkpt><trkpt lat="42.5194467" lon="14.1462967"><ele>4.6</ele><time>2026-05-01T15:31:57.279Z</time></trkpt><trkpt lat="42.5193783" lon="14.1464117"><ele>5.0</ele><time>2026-05-01T15:31:59.279Z</time></trkpt><trkpt lat="42.5193133" lon="14.1465017"><ele>4.666666666666667</ele><time>2026-05-01T15:32:01.279Z</time></trkpt><trkpt lat="42.5192583" lon="14.1465733"><ele>4.333333333333334</ele><time>2026-05-01T15:32:04.279Z</time></trkpt><trkpt lat="42.5191933" lon="14.1466583"><ele>4.0</ele><time>2026-05-01T15:32:13.279Z</time></trkpt><trkpt lat="42.519145" lon="14.146715"><ele>3.666666666666667</ele><time>2026-05-01T15:32:16.279Z</time></trkpt><trkpt lat="42.5190933" lon="14.14679"><ele>3.3333333333333335</ele><time>2026-05-01T15:32:21.279Z</time></trkpt><trkpt lat="42.5190583" lon="14.1469283"><ele>3.0</ele><time>2026-05-01T15:32:24.279Z</time></trkpt><trkpt lat="42.5190817" lon="14.14704"><ele>3.0</ele><time>2026-05-01T15:32:26.279Z</time></trkpt><trkpt lat="42.5191367" lon="14.1471517"><ele>3.0</ele><time>2026-05-01T15:32:28.279Z</time></trkpt><trkpt lat="42.5192483" lon="14.1472517"><ele>3.0</ele><time>2026-05-01T15:32:30.279Z</time></trkpt><trkpt lat="42.51934" lon="14.1472683"><ele>3.0</ele><time>2026-05-01T15:32:31.279Z</time></trkpt><trkpt lat="42.5194317" lon="14.147315"><ele>3.0</ele><time>2026-05-01T15:32:32.279Z</time></trkpt><trkpt lat="42.5195133" lon="14.1473933"><ele>2.4</ele><time>2026-05-01T15:32:33.279Z</time></trkpt><trkpt lat="42.519585" lon="14.1474967"><ele>1.7999999999999998</ele><time>2026-05-01T15:32:34.279Z</time></trkpt><trkpt lat="42.5196633" lon="14.1476033"><ele>1.2</ele><time>2026-05-01T15:32:35.279Z</time></trkpt><trkpt lat="42.5197317" lon="14.1477117"><ele>0.6</ele><time>2026-05-01T15:32:36.279Z</time></trkpt><trkpt lat="42.51979" lon="14.147825"><ele>0.0</ele><time>2026-05-01T15:32:37.279Z</time></trkpt><trkpt lat="42.5198417" lon="14.1479317"><ele>0.0</ele><time>2026-05-01T15:32:38.279Z</time></trkpt><trkpt lat="42.51989" lon="14.1480333"><ele>0.0</ele><time>2026-05-01T15:32:39.279Z</time></trkpt><trkpt lat="42.5199333" lon="14.1481317"><ele>0.0</ele><time>2026-05-01T15:32:40.279Z</time></trkpt><trkpt lat="42.5199767" lon="14.1482317"><ele>0.0</ele><time>2026-05-01T15:32:41.28Z</time></trkpt><trkpt lat="42.5200183" lon="14.14833"><ele>0.0</ele><time>2026-05-01T15:32:42.279Z</time></trkpt><trkpt lat="42.52006" lon="14.148435"><ele>0.0</ele><time>2026-05-01T15:32:43.279Z</time></trkpt><trkpt lat="42.5201017" lon="14.1485233"><ele>0.4</ele><time>2026-05-01T15:32:44.279Z</time></trkpt><trkpt lat="42.5201467" lon="14.1486733"><ele>0.8</ele><time>2026-05-01T15:32:46.279Z</time></trkpt><trkpt lat="42.5201817" lon="14.1488017"><ele>1.2000000000000002</ele><time>2026-05-01T15:32:48.279Z</time></trkpt><trkpt lat="42.5202167" lon="14.14891"><ele>1.6</ele><time>2026-05-01T15:32:50.279Z</time></trkpt><trkpt lat="42.5202617" lon="14.1489983"><ele>2.0</ele><time>2026-05-01T15:32:52.279Z</time></trkpt><trkpt lat="42.520285" lon="14.14908"><ele>1.9999999999999998</ele><time>2026-05-01T15:32:54.279Z</time></trkpt><trkpt lat="42.5203133" lon="14.1491767"><ele>2.0</ele><time>2026-05-01T15:33:02.279Z</time></trkpt><trkpt lat="42.5203317" lon="14.1492633"><ele>2.0</ele><time>2026-05-01T15:33:04.279Z</time></trkpt><trkpt lat="42.5203567" lon="14.14936"><ele>2.0</ele><time>2026-05-01T15:33:12.28Z</time></trkpt><trkpt lat="42.5204133" lon="14.149485"><ele>1.9999999999999998</ele><time>2026-05-01T15:33:14.279Z</time></trkpt><trkpt lat="42.5204433" lon="14.1495683"><ele>2.0</ele><time>2026-05-01T15:33:15.279Z</time></trkpt><trkpt lat="42.5204767" lon="14.149655"><ele>1.9999999999999998</ele><time>2026-05-01T15:33:16.279Z</time></trkpt><trkpt lat="42.5205117" lon="14.149745"><ele>2.0</ele><time>2026-05-01T15:33:17.279Z</time></trkpt><trkpt lat="42.520545" lon="14.1498283"><ele>2.0</ele><time>2026-05-01T15:33:18.279Z</time></trkpt><trkpt lat="42.5206017" lon="14.149955"><ele>2.0</ele><time>2026-05-01T15:33:20.279Z</time></trkpt><trkpt lat="42.52065" lon="14.150045"><ele>1.9999999999999998</ele><time>2026-05-01T15:33:23.279Z</time></trkpt><trkpt lat="42.520675" lon="14.15015"><ele>2.0</ele><time>2026-05-01T15:33:26.279Z</time></trkpt><trkpt lat="42.5207017" lon="14.1502717"><ele>2.0</ele><time>2026-05-01T15:33:29.279Z</time></trkpt><trkpt lat="42.5207167" lon="14.150355"><ele>2.0</ele><time>2026-05-01T15:33:30.279Z</time></trkpt><trkpt lat="42.5207483" lon="14.15046"><ele>2.0</ele><time>2026-05-01T15:33:31.279Z</time></trkpt><trkpt lat="42.5207983" lon="14.1505917"><ele>2.0</ele><time>2026-05-01T15:33:32.279Z</time></trkpt><trkpt lat="42.5208533" lon="14.150725"><ele>2.0</ele><time>2026-05-01T15:33:33.279Z</time></trkpt><trkpt lat="42.5208967" lon="14.1508633"><ele>2.0</ele><time>2026-05-01T15:33:34.279Z</time></trkpt><trkpt lat="42.520945" lon="14.151005"><ele>2.0</ele><time>2026-05-01T15:33:35.28Z</time></trkpt><trkpt lat="42.5210017" lon="14.1511683"><ele>2.0</ele><time>2026-05-01T15:33:36.279Z</time></trkpt><trkpt lat="42.5210433" lon="14.1513183"><ele>2.0</ele><time>2026-05-01T15:33:37.279Z</time></trkpt><trkpt lat="42.5210867" lon="14.1514567"><ele>2.0</ele><time>2026-05-01T15:33:38.279Z</time></trkpt><trkpt lat="42.5211267" lon="14.1515867"><ele>2.0</ele><time>2026-05-01T15:33:39.279Z</time></trkpt><trkpt lat="42.5211617" lon="14.15171"><ele>2.0</ele><time>2026-05-01T15:33:40.279Z</time></trkpt><trkpt lat="42.5212017" lon="14.1518217"><ele>2.0</ele><time>2026-05-01T15:33:41.279Z</time></trkpt><trkpt lat="42.5212417" lon="14.1519383"><ele>2.0</ele><time>2026-05-01T15:33:42.279Z</time></trkpt><trkpt lat="42.521285" lon="14.1520517"><ele>1.6</ele><time>2026-05-01T15:33:43.279Z</time></trkpt><trkpt lat="42.5213267" lon="14.1521633"><ele>1.2000000000000002</ele><time>2026-05-01T15:33:44.279Z</time></trkpt><trkpt lat="42.5213683" lon="14.15228"><ele>0.8</ele><time>2026-05-01T15:33:45.28Z</time></trkpt><trkpt lat="42.5214067" lon="14.1523967"><ele>0.4</ele><time>2026-05-01T15:33:46.279Z</time></trkpt><trkpt lat="42.52145" lon="14.1525067"><ele>0.0</ele><time>2026-05-01T15:33:47.279Z</time></trkpt><trkpt lat="42.5214883" lon="14.15262"><ele>0.0</ele><time>2026-05-01T15:33:48.279Z</time></trkpt><trkpt lat="42.5215267" lon="14.152725"><ele>0.0</ele><time>2026-05-01T15:33:49.279Z</time></trkpt><trkpt lat="42.5215617" lon="14.1528267"><ele>0.0</ele><time>2026-05-01T15:33:50.279Z</time></trkpt><trkpt lat="42.5215983" lon="14.15293"><ele>0.0</ele><time>2026-05-01T15:33:51.279Z</time></trkpt><trkpt lat="42.521635" lon="14.153025"><ele>0.0</ele><time>2026-05-01T15:33:52.279Z</time></trkpt><trkpt lat="42.5216667" lon="14.1531183"><ele>0.0</ele><time>2026-05-01T15:33:53.279Z</time></trkpt><trkpt lat="42.521695" lon="14.1532083"><ele>0.0</ele><time>2026-05-01T15:33:54.279Z</time></trkpt><trkpt lat="42.5217267" lon="14.1532933"><ele>0.0</ele><time>2026-05-01T15:33:55.28Z</time></trkpt><trkpt lat="42.52176" lon="14.1533783"><ele>0.0</ele><time>2026-05-01T15:33:56.279Z</time></trkpt><trkpt lat="42.5217867" lon="14.15346"><ele>0.0</ele><time>2026-05-01T15:33:57.279Z</time></trkpt><trkpt lat="42.521835" lon="14.15358"><ele>0.0</ele><time>2026-05-01T15:33:59.279Z</time></trkpt><trkpt lat="42.5218783" lon="14.1536567"><ele>0.0</ele><time>2026-05-01T15:34:03.279Z</time></trkpt><trkpt lat="42.5219617" lon="14.1536267"><ele>0.0</ele><time>2026-05-01T15:34:08.279Z</time></trkpt><trkpt lat="42.52202" lon="14.1535817"><ele>0.0</ele><time>2026-05-01T15:34:09.279Z</time></trkpt><trkpt lat="42.5220767" lon="14.15353"><ele>0.0</ele><time>2026-05-01T15:34:10.28Z</time></trkpt><trkpt lat="42.5221733" lon="14.1534383"><ele>0.0</ele><time>2026-05-01T15:34:12.279Z</time></trkpt><trkpt lat="42.5222383" lon="14.1533633"><ele>0.0</ele><time>2026-05-01T15:34:14.28Z</time></trkpt><trkpt lat="42.522275" lon="14.1532933"><ele>0.0</ele><time>2026-05-01T15:34:16.28Z</time></trkpt><trkpt lat="42.5222783" lon="14.1531783"><ele>0.3333333333333333</ele><time>2026-05-01T15:34:21.279Z</time></trkpt><trkpt lat="42.5223283" lon="14.1530867"><ele>0.6666666666666666</ele><time>2026-05-01T15:34:24.279Z</time></trkpt><trkpt lat="42.522385" lon="14.153025"><ele>1.0</ele><time>2026-05-01T15:34:28.279Z</time></trkpt><trkpt lat="42.5224417" lon="14.1529783"><ele>1.3333333333333333</ele><time>2026-05-01T15:34:30.279Z</time></trkpt><trkpt lat="42.52251" lon="14.152925"><ele>1.6666666666666665</ele><time>2026-05-01T15:34:32.279Z</time></trkpt><trkpt lat="42.5225833" lon="14.1528683"><ele>2.0</ele><time>2026-05-01T15:34:34.279Z</time></trkpt><trkpt lat="42.522645" lon="14.1527917"><ele>2.0</ele><time>2026-05-01T15:34:36.279Z</time></trkpt><trkpt lat="42.522675" lon="14.1527067"><ele>2.0</ele><time>2026-05-01T15:34:38.279Z</time></trkpt><trkpt lat="42.5226567" lon="14.15262"><ele>2.0</ele><time>2026-05-01T15:34:40.279Z</time></trkpt><trkpt lat="42.5225717" lon="14.1526167"><ele>2.0</ele><time>2026-05-01T15:34:43.279Z</time></trkpt><trkpt lat="42.52249" lon="14.1526517"><ele>2.0</ele><time>2026-05-01T15:34:46.279Z</time></trkpt><trkpt lat="42.5224333" lon="14.1525983"><ele>2.0</ele><time>2026-05-01T15:34:49.28Z</time></trkpt></trkseg></trk></gpx>